<?xml version='1.0' encoding='UTF-8'?><gpx version="1.1" creator="JPX - https://github.com/jenetics/jpx" xmlns="http://www.topografix.com/GPX/1/1"><trk><trkseg><trkpt lat="38.1769083" lon="15.6665267"><ele>83.0</ele><time>2026-04-09T06:35:19.872Z</time></trkpt><trkpt lat="38.17701" lon="15.666625"><ele>83.0</ele><time>2026-04-09T06:35:21.871Z</time></trkpt><trkpt lat="38.1770767" lon="15.6667"><ele>83.0</ele><time>2026-04-09T06:35:22.872Z</time></trkpt><trkpt lat="38.1771367" lon="15.66678"><ele>83.0</ele><time>2026-04-09T06:35:23.872Z</time></trkpt><trkpt lat="38.1772033" lon="15.6668733"><ele>83.0</ele><time>2026-04-09T06:35:24.872Z</time></trkpt><trkpt lat="38.1772883" lon="15.666955"><ele>83.4</ele><time>2026-04-09T06:35:25.872Z</time></trkpt><trkpt lat="38.1773833" lon="15.6670383"><ele>83.80000000000001</ele><time>2026-04-09T06:35:26.872Z</time></trkpt><trkpt lat="38.17748" lon="15.66712"><ele>84.2</ele><time>2026-04-09T06:35:27.871Z</time></trkpt><trkpt lat="38.17757" lon="15.6672"><ele>84.6</ele><time>2026-04-09T06:35:28.871Z</time></trkpt><trkpt lat="38.1776383" lon="15.667255"><ele>85.0</ele><time>2026-04-09T06:35:29.872Z</time></trkpt><trkpt lat="38.1777083" lon="15.667375"><ele>85.0</ele><time>2026-04-09T06:35:31.871Z</time></trkpt><trkpt lat="38.1777133" lon="15.667455"><ele>85.0</ele><time>2026-04-09T06:35:32.872Z</time></trkpt><trkpt lat="38.1776967" lon="15.6675467"><ele>85.0</ele><time>2026-04-09T06:35:33.872Z</time></trkpt><trkpt lat="38.1776617" lon="15.66766"><ele>85.0</ele><time>2026-04-09T06:35:34.871Z</time></trkpt><trkpt lat="38.1776217" lon="15.6677883"><ele>85.0</ele><time>2026-04-09T06:35:35.872Z</time></trkpt><trkpt lat="38.1775983" lon="15.6679"><ele>85.0</ele><time>2026-04-09T06:35:36.872Z</time></trkpt><trkpt lat="38.1776183" lon="15.668005"><ele>85.4</ele><time>2026-04-09T06:35:37.871Z</time></trkpt><trkpt lat="38.1776733" lon="15.66811"><ele>85.8</ele><time>2026-04-09T06:35:38.872Z</time></trkpt><trkpt lat="38.1777483" lon="15.6682017"><ele>86.19999999999999</ele><time>2026-04-09T06:35:39.871Z</time></trkpt><trkpt lat="38.177835" lon="15.668285"><ele>86.6</ele><time>2026-04-09T06:35:40.872Z</time></trkpt><trkpt lat="38.1779133" lon="15.6683683"><ele>87.0</ele><time>2026-04-09T06:35:41.871Z</time></trkpt><trkpt lat="38.1779833" lon="15.668445"><ele>87.0</ele><time>2026-04-09T06:35:42.871Z</time></trkpt><trkpt lat="38.1780467" lon="15.6685233"><ele>87.0</ele><time>2026-04-09T06:35:43.872Z</time></trkpt><trkpt lat="38.1780983" lon="15.6685917"><ele>87.0</ele><time>2026-04-09T06:35:44.872Z</time></trkpt><trkpt lat="38.178155" lon="15.6686483"><ele>87.0</ele><time>2026-04-09T06:35:45.872Z</time></trkpt><trkpt lat="38.1782" lon="15.668705"><ele>87.0</ele><time>2026-04-09T06:35:46.871Z</time></trkpt><trkpt lat="38.178245" lon="15.6687667"><ele>87.0</ele><time>2026-04-09T06:35:47.871Z</time></trkpt><trkpt lat="38.1782933" lon="15.6688183"><ele>87.0</ele><time>2026-04-09T06:35:48.872Z</time></trkpt><trkpt lat="38.1784017" lon="15.66889"><ele>86.57142857142857</ele><time>2026-04-09T06:35:50.871Z</time></trkpt><trkpt lat="38.1784583" lon="15.6689417"><ele>86.14285714285714</ele><time>2026-04-09T06:35:51.871Z</time></trkpt><trkpt lat="38.1785183" lon="15.6689783"><ele>85.71428571428572</ele><time>2026-04-09T06:35:52.872Z</time></trkpt><trkpt lat="38.1785817" lon="15.669015"><ele>85.28571428571428</ele><time>2026-04-09T06:35:53.872Z</time></trkpt><trkpt lat="38.178645" lon="15.669035"><ele>84.85714285714286</ele><time>2026-04-09T06:35:54.871Z</time></trkpt><trkpt lat="38.17871" lon="15.6690583"><ele>84.42857142857143</ele><time>2026-04-09T06:35:55.872Z</time></trkpt><trkpt lat="38.1787817" lon="15.669085"><ele>84.0</ele><time>2026-04-09T06:35:56.872Z</time></trkpt><trkpt lat="38.1788633" lon="15.6691167"><ele>84.0</ele><time>2026-04-09T06:35:57.871Z</time></trkpt><trkpt lat="38.17895" lon="15.66915"><ele>84.0</ele><time>2026-04-09T06:35:58.872Z</time></trkpt><trkpt lat="38.179045" lon="15.6691783"><ele>84.0</ele><time>2026-04-09T06:35:59.872Z</time></trkpt><trkpt lat="38.17915" lon="15.669205"><ele>84.0</ele><time>2026-04-09T06:36:00.871Z</time></trkpt><trkpt lat="38.1792667" lon="15.6692033"><ele>84.0</ele><time>2026-04-09T06:36:01.872Z</time></trkpt><trkpt lat="38.1793817" lon="15.669205"><ele>83.5</ele><time>2026-04-09T06:36:02.872Z</time></trkpt><trkpt lat="38.1795183" lon="15.6692017"><ele>83.0</ele><time>2026-04-09T06:36:03.872Z</time></trkpt><trkpt lat="38.179655" lon="15.66921"><ele>82.5</ele><time>2026-04-09T06:36:04.872Z</time></trkpt><trkpt lat="38.1797917" lon="15.6692317"><ele>82.0</ele><time>2026-04-09T06:36:05.872Z</time></trkpt><trkpt lat="38.17992" lon="15.6692583"><ele>81.25</ele><time>2026-04-09T06:36:06.872Z</time></trkpt><trkpt lat="38.1800467" lon="15.669275"><ele>80.5</ele><time>2026-04-09T06:36:07.871Z</time></trkpt><trkpt lat="38.180175" lon="15.6692917"><ele>79.75</ele><time>2026-04-09T06:36:08.871Z</time></trkpt><trkpt lat="38.18031" lon="15.6692983"><ele>79.0</ele><time>2026-04-09T06:36:09.871Z</time></trkpt><trkpt lat="38.1804483" lon="15.6693067"><ele>79.0</ele><time>2026-04-09T06:36:10.871Z</time></trkpt><trkpt lat="38.1806" lon="15.66933"><ele>79.0</ele><time>2026-04-09T06:36:11.872Z</time></trkpt><trkpt lat="38.1807533" lon="15.6693617"><ele>79.0</ele><time>2026-04-09T06:36:12.872Z</time></trkpt><trkpt lat="38.1809033" lon="15.6694017"><ele>79.5</ele><time>2026-04-09T06:36:13.871Z</time></trkpt><trkpt lat="38.1810567" lon="15.6694467"><ele>80.0</ele><time>2026-04-09T06:36:14.871Z</time></trkpt><trkpt lat="38.1812033" lon="15.669485"><ele>80.5</ele><time>2026-04-09T06:36:15.871Z</time></trkpt><trkpt lat="38.1813367" lon="15.6695183"><ele>81.0</ele><time>2026-04-09T06:36:16.872Z</time></trkpt><trkpt lat="38.181455" lon="15.66955"><ele>81.4</ele><time>2026-04-09T06:36:17.871Z</time></trkpt><trkpt lat="38.181555" lon="15.6695617"><ele>81.8</ele><time>2026-04-09T06:36:18.871Z</time></trkpt><trkpt lat="38.181645" lon="15.6695633"><ele>82.2</ele><time>2026-04-09T06:36:19.872Z</time></trkpt><trkpt lat="38.181725" lon="15.6695417"><ele>82.60000000000001</ele><time>2026-04-09T06:36:20.871Z</time></trkpt><trkpt lat="38.1817917" lon="15.6695133"><ele>83.0</ele><time>2026-04-09T06:36:21.872Z</time></trkpt><trkpt lat="38.1819083" lon="15.6694833"><ele>83.0</ele><time>2026-04-09T06:36:23.872Z</time></trkpt><trkpt lat="38.18201" lon="15.6695383"><ele>83.0</ele><time>2026-04-09T06:36:25.872Z</time></trkpt><trkpt lat="38.1820933" lon="15.6695933"><ele>83.0</ele><time>2026-04-09T06:36:27.872Z</time></trkpt><trkpt lat="38.18214" lon="15.66952"><ele>83.0</ele><time>2026-04-09T06:36:29.872Z</time></trkpt><trkpt lat="38.1821233" lon="15.6694383"><ele>83.0</ele><time>2026-04-09T06:36:30.871Z</time></trkpt><trkpt lat="38.1820733" lon="15.66934"><ele>83.0</ele><time>2026-04-09T06:36:31.871Z</time></trkpt><trkpt lat="38.1819967" lon="15.6692133"><ele>82.66666666666667</ele><time>2026-04-09T06:36:32.871Z</time></trkpt><trkpt lat="38.1818983" lon="15.66906"><ele>82.33333333333333</ele><time>2026-04-09T06:36:33.872Z</time></trkpt><trkpt lat="38.1817867" lon="15.66889"><ele>82.0</ele><time>2026-04-09T06:36:34.871Z</time></trkpt><trkpt lat="38.1816833" lon="15.6687083"><ele>81.66666666666666</ele><time>2026-04-09T06:36:35.871Z</time></trkpt><trkpt lat="38.1815833" lon="15.6685117"><ele>81.33333333333333</ele><time>2026-04-09T06:36:36.871Z</time></trkpt><trkpt lat="38.1814733" lon="15.6683033"><ele>81.0</ele><time>2026-04-09T06:36:37.872Z</time></trkpt><trkpt lat="38.1813633" lon="15.668085"><ele>80.0</ele><time>2026-04-09T06:36:38.871Z</time></trkpt><trkpt lat="38.1812517" lon="15.6678533"><ele>79.0</ele><time>2026-04-09T06:36:39.871Z</time></trkpt><trkpt lat="38.1811367" lon="15.66761"><ele>78.0</ele><time>2026-04-09T06:36:40.871Z</time></trkpt><trkpt lat="38.1810133" lon="15.6673583"><ele>77.0</ele><time>2026-04-09T06:36:41.871Z</time></trkpt><trkpt lat="38.1808783" lon="15.6671"><ele>76.0</ele><time>2026-04-09T06:36:42.872Z</time></trkpt><trkpt lat="38.1807433" lon="15.6668467"><ele>74.5</ele><time>2026-04-09T06:36:43.872Z</time></trkpt><trkpt lat="38.1806133" lon="15.6665633"><ele>73.0</ele><time>2026-04-09T06:36:44.872Z</time></trkpt><trkpt lat="38.1804767" lon="15.6662883"><ele>73.5</ele><time>2026-04-09T06:36:45.872Z</time></trkpt><trkpt lat="38.180335" lon="15.66602"><ele>74.0</ele><time>2026-04-09T06:36:46.872Z</time></trkpt><trkpt lat="38.180205" lon="15.6657567"><ele>74.0</ele><time>2026-04-09T06:36:47.871Z</time></trkpt><trkpt lat="38.1800667" lon="15.6654917"><ele>74.0</ele><time>2026-04-09T06:36:48.872Z</time></trkpt><trkpt lat="38.1799367" lon="15.665225"><ele>71.0</ele><time>2026-04-09T06:36:49.872Z</time></trkpt><trkpt lat="38.1798033" lon="15.6649567"><ele>68.0</ele><time>2026-04-09T06:36:50.871Z</time></trkpt><trkpt lat="38.1796717" lon="15.6647017"><ele>68.0</ele><time>2026-04-09T06:36:51.872Z</time></trkpt><trkpt lat="38.1795467" lon="15.66445"><ele>68.0</ele><time>2026-04-09T06:36:52.871Z</time></trkpt><trkpt lat="38.179425" lon="15.6642"><ele>68.0</ele><time>2026-04-09T06:36:53.872Z</time></trkpt><trkpt lat="38.1792967" lon="15.6639583"><ele>68.0</ele><time>2026-04-09T06:36:54.872Z</time></trkpt><trkpt lat="38.1791717" lon="15.6637217"><ele>68.0</ele><time>2026-04-09T06:36:55.871Z</time></trkpt><trkpt lat="38.1790367" lon="15.6634733"><ele>68.0</ele><time>2026-04-09T06:36:56.871Z</time></trkpt><trkpt lat="38.17889" lon="15.6632317"><ele>68.0</ele><time>2026-04-09T06:36:57.871Z</time></trkpt><trkpt lat="38.178735" lon="15.6629817"><ele>68.0</ele><time>2026-04-09T06:36:58.871Z</time></trkpt><trkpt lat="38.1785683" lon="15.6627217"><ele>66.5</ele><time>2026-04-09T06:36:59.871Z</time></trkpt><trkpt lat="38.178385" lon="15.6624517"><ele>65.0</ele><time>2026-04-09T06:37:00.871Z</time></trkpt><trkpt lat="38.178195" lon="15.662175"><ele>61.5</ele><time>2026-04-09T06:37:01.871Z</time></trkpt><trkpt lat="38.1780067" lon="15.6618917"><ele>58.0</ele><time>2026-04-09T06:37:02.871Z</time></trkpt><trkpt lat="38.17782" lon="15.6616033"><ele>58.0</ele><time>2026-04-09T06:37:03.872Z</time></trkpt><trkpt lat="38.1776367" lon="15.6613183"><ele>58.0</ele><time>2026-04-09T06:37:04.871Z</time></trkpt><trkpt lat="38.1774433" lon="15.6610383"><ele>57.0</ele><time>2026-04-09T06:37:05.871Z</time></trkpt><trkpt lat="38.1772467" lon="15.6607567"><ele>56.0</ele><time>2026-04-09T06:37:06.872Z</time></trkpt><trkpt lat="38.17706" lon="15.66048"><ele>55.0</ele><time>2026-04-09T06:37:07.871Z</time></trkpt><trkpt lat="38.1768767" lon="15.6602067"><ele>54.0</ele><time>2026-04-09T06:37:08.872Z</time></trkpt><trkpt lat="38.1766867" lon="15.659935"><ele>52.0</ele><time>2026-04-09T06:37:09.871Z</time></trkpt><trkpt lat="38.1764917" lon="15.659655"><ele>50.0</ele><time>2026-04-09T06:37:10.871Z</time></trkpt><trkpt lat="38.1762967" lon="15.659375"><ele>50.0</ele><time>2026-04-09T06:37:11.871Z</time></trkpt><trkpt lat="38.1761" lon="15.6590817"><ele>50.0</ele><time>2026-04-09T06:37:12.872Z</time></trkpt><trkpt lat="38.1759083" lon="15.6587917"><ele>49.5</ele><time>2026-04-09T06:37:13.871Z</time></trkpt><trkpt lat="38.175725" lon="15.658515"><ele>49.0</ele><time>2026-04-09T06:37:14.871Z</time></trkpt><trkpt lat="38.17554" lon="15.6582633"><ele>48.0</ele><time>2026-04-09T06:37:15.872Z</time></trkpt><trkpt lat="38.1753467" lon="15.658045"><ele>47.0</ele><time>2026-04-09T06:37:16.871Z</time></trkpt><trkpt lat="38.1751517" lon="15.657855"><ele>46.5</ele><time>2026-04-09T06:37:17.872Z</time></trkpt><trkpt lat="38.1749417" lon="15.6576833"><ele>46.0</ele><time>2026-04-09T06:37:18.871Z</time></trkpt><trkpt lat="38.1747283" lon="15.6575333"><ele>44.5</ele><time>2026-04-09T06:37:19.872Z</time></trkpt><trkpt lat="38.1744967" lon="15.6574033"><ele>43.0</ele><time>2026-04-09T06:37:20.872Z</time></trkpt><trkpt lat="38.17426" lon="15.6572917"><ele>42.5</ele><time>2026-04-09T06:37:21.872Z</time></trkpt><trkpt lat="38.174015" lon="15.6571883"><ele>42.0</ele><time>2026-04-09T06:37:22.871Z</time></trkpt><trkpt lat="38.1737517" lon="15.6571017"><ele>42.0</ele><time>2026-04-09T06:37:23.871Z</time></trkpt><trkpt lat="38.1734817" lon="15.6570133"><ele>42.0</ele><time>2026-04-09T06:37:24.872Z</time></trkpt><trkpt lat="38.17322" lon="15.6569233"><ele>39.5</ele><time>2026-04-09T06:37:25.872Z</time></trkpt><trkpt lat="38.1729567" lon="15.6568283"><ele>37.0</ele><time>2026-04-09T06:37:26.872Z</time></trkpt><trkpt lat="38.1726933" lon="15.65674"><ele>37.0</ele><time>2026-04-09T06:37:27.872Z</time></trkpt><trkpt lat="38.17245" lon="15.6566483"><ele>37.0</ele><time>2026-04-09T06:37:28.871Z</time></trkpt><trkpt lat="38.172215" lon="15.65654"><ele>36.0</ele><time>2026-04-09T06:37:29.872Z</time></trkpt><trkpt lat="38.1720017" lon="15.6563983"><ele>35.0</ele><time>2026-04-09T06:37:30.871Z</time></trkpt><trkpt lat="38.1718067" lon="15.6562133"><ele>35.0</ele><time>2026-04-09T06:37:31.871Z</time></trkpt><trkpt lat="38.1716433" lon="15.6559917"><ele>35.0</ele><time>2026-04-09T06:37:32.872Z</time></trkpt><trkpt lat="38.171505" lon="15.6557467"><ele>35.0</ele><time>2026-04-09T06:37:33.871Z</time></trkpt><trkpt lat="38.1713867" lon="15.65547"><ele>35.0</ele><time>2026-04-09T06:37:34.871Z</time></trkpt><trkpt lat="38.171285" lon="15.65517"><ele>33.5</ele><time>2026-04-09T06:37:35.871Z</time></trkpt><trkpt lat="38.1712" lon="15.6548683"><ele>32.0</ele><time>2026-04-09T06:37:36.871Z</time></trkpt><trkpt lat="38.1711283" lon="15.65456"><ele>30.5</ele><time>2026-04-09T06:37:37.872Z</time></trkpt><trkpt lat="38.17105" lon="15.65426"><ele>29.0</ele><time>2026-04-09T06:37:38.872Z</time></trkpt><trkpt lat="38.1709683" lon="15.6539583"><ele>29.0</ele><time>2026-04-09T06:37:39.872Z</time></trkpt><trkpt lat="38.1708883" lon="15.653675"><ele>29.0</ele><time>2026-04-09T06:37:40.871Z</time></trkpt><trkpt lat="38.1708267" lon="15.6534217"><ele>29.0</ele><time>2026-04-09T06:37:41.871Z</time></trkpt><trkpt lat="38.1707783" lon="15.6531917"><ele>28.666666666666664</ele><time>2026-04-09T06:37:42.872Z</time></trkpt><trkpt lat="38.1707433" lon="15.6529833"><ele>28.333333333333336</ele><time>2026-04-09T06:37:43.872Z</time></trkpt><trkpt lat="38.1707217" lon="15.65279"><ele>28.0</ele><time>2026-04-09T06:37:44.871Z</time></trkpt><trkpt lat="38.1707167" lon="15.65262"><ele>27.599999999999998</ele><time>2026-04-09T06:37:45.872Z</time></trkpt><trkpt lat="38.1707183" lon="15.652465"><ele>27.199999999999996</ele><time>2026-04-09T06:37:46.872Z</time></trkpt><trkpt lat="38.1707283" lon="15.6523267"><ele>26.8</ele><time>2026-04-09T06:37:47.871Z</time></trkpt><trkpt lat="38.1707517" lon="15.6522033"><ele>26.4</ele><time>2026-04-09T06:37:48.872Z</time></trkpt><trkpt lat="38.1708" lon="15.6520967"><ele>26.0</ele><time>2026-04-09T06:37:49.872Z</time></trkpt><trkpt lat="38.1708717" lon="15.6520133"><ele>26.0</ele><time>2026-04-09T06:37:50.871Z</time></trkpt><trkpt lat="38.170965" lon="15.6519617"><ele>26.0</ele><time>2026-04-09T06:37:51.871Z</time></trkpt><trkpt lat="38.1710667" lon="15.65194"><ele>26.0</ele><time>2026-04-09T06:37:52.871Z</time></trkpt><trkpt lat="38.17117" lon="15.6519417"><ele>26.0</ele><time>2026-04-09T06:37:53.871Z</time></trkpt><trkpt lat="38.1712717" lon="15.6519867"><ele>26.0</ele><time>2026-04-09T06:37:54.871Z</time></trkpt><trkpt lat="38.1713617" lon="15.6520433"><ele>26.0</ele><time>2026-04-09T06:37:55.871Z</time></trkpt><trkpt lat="38.1714433" lon="15.6521217"><ele>26.0</ele><time>2026-04-09T06:37:56.872Z</time></trkpt><trkpt lat="38.1715183" lon="15.65222"><ele>26.0</ele><time>2026-04-09T06:37:57.872Z</time></trkpt><trkpt lat="38.1715767" lon="15.652325"><ele>26.0</ele><time>2026-04-09T06:37:58.871Z</time></trkpt><trkpt lat="38.171625" lon="15.65243"><ele>26.0</ele><time>2026-04-09T06:37:59.872Z</time></trkpt><trkpt lat="38.171665" lon="15.6525333"><ele>26.4</ele><time>2026-04-09T06:38:00.871Z</time></trkpt><trkpt lat="38.1716983" lon="15.652635"><ele>26.8</ele><time>2026-04-09T06:38:01.871Z</time></trkpt><trkpt lat="38.17173" lon="15.6527467"><ele>27.199999999999996</ele><time>2026-04-09T06:38:02.872Z</time></trkpt><trkpt lat="38.1717683" lon="15.6528683"><ele>27.599999999999998</ele><time>2026-04-09T06:38:03.872Z</time></trkpt><trkpt lat="38.1718083" lon="15.6530067"><ele>28.0</ele><time>2026-04-09T06:38:04.871Z</time></trkpt><trkpt lat="38.1718483" lon="15.65315"><ele>28.25</ele><time>2026-04-09T06:38:05.871Z</time></trkpt><trkpt lat="38.1718933" lon="15.65331"><ele>28.5</ele><time>2026-04-09T06:38:06.871Z</time></trkpt><trkpt lat="38.1719467" lon="15.6534767"><ele>28.75</ele><time>2026-04-09T06:38:07.872Z</time></trkpt><trkpt lat="38.1719867" lon="15.653655"><ele>29.0</ele><time>2026-04-09T06:38:08.872Z</time></trkpt><trkpt lat="38.1720183" lon="15.6538433"><ele>29.25</ele><time>2026-04-09T06:38:09.871Z</time></trkpt><trkpt lat="38.1720183" lon="15.65403"><ele>29.5</ele><time>2026-04-09T06:38:10.872Z</time></trkpt><trkpt lat="38.1719883" lon="15.654205"><ele>29.75</ele><time>2026-04-09T06:38:11.872Z</time></trkpt><trkpt lat="38.1719333" lon="15.6543517"><ele>30.0</ele><time>2026-04-09T06:38:12.871Z</time></trkpt><trkpt lat="38.1718717" lon="15.6544683"><ele>30.5</ele><time>2026-04-09T06:38:13.872Z</time></trkpt><trkpt lat="38.1717933" lon="15.6545667"><ele>31.0</ele><time>2026-04-09T06:38:14.871Z</time></trkpt><trkpt lat="38.1717" lon="15.6546433"><ele>31.5</ele><time>2026-04-09T06:38:15.872Z</time></trkpt><trkpt lat="38.171595" lon="15.6547083"><ele>32.0</ele><time>2026-04-09T06:38:16.872Z</time></trkpt><trkpt lat="38.1714883" lon="15.6547667"><ele>32.0</ele><time>2026-04-09T06:38:17.871Z</time></trkpt><trkpt lat="38.171385" lon="15.6548217"><ele>32.0</ele><time>2026-04-09T06:38:18.872Z</time></trkpt><trkpt lat="38.17128" lon="15.654885"><ele>32.0</ele><time>2026-04-09T06:38:19.871Z</time></trkpt><trkpt lat="38.1711483" lon="15.6549583"><ele>32.0</ele><time>2026-04-09T06:38:20.871Z</time></trkpt><trkpt lat="38.1709933" lon="15.6550333"><ele>32.0</ele><time>2026-04-09T06:38:21.872Z</time></trkpt><trkpt lat="38.1708083" lon="15.6551233"><ele>32.0</ele><time>2026-04-09T06:38:22.871Z</time></trkpt><trkpt lat="38.170615" lon="15.655215"><ele>32.0</ele><time>2026-04-09T06:38:23.872Z</time></trkpt><trkpt lat="38.1704017" lon="15.6553233"><ele>33.5</ele><time>2026-04-09T06:38:24.872Z</time></trkpt><trkpt lat="38.1701717" lon="15.6554533"><ele>35.0</ele><time>2026-04-09T06:38:25.872Z</time></trkpt><trkpt lat="38.1699367" lon="15.6556067"><ele>33.0</ele><time>2026-04-09T06:38:26.872Z</time></trkpt><trkpt lat="38.1696933" lon="15.655755"><ele>31.0</ele><time>2026-04-09T06:38:27.872Z</time></trkpt><trkpt lat="38.1694417" lon="15.655895"><ele>31.0</ele><time>2026-04-09T06:38:28.871Z</time></trkpt><trkpt lat="38.1691833" lon="15.6560383"><ele>31.0</ele><time>2026-04-09T06:38:29.872Z</time></trkpt><trkpt lat="38.1689233" lon="15.6561817"><ele>31.5</ele><time>2026-04-09T06:38:30.872Z</time></trkpt><trkpt lat="38.168655" lon="15.656345"><ele>32.0</ele><time>2026-04-09T06:38:31.872Z</time></trkpt><trkpt lat="38.1683883" lon="15.6565167"><ele>30.0</ele><time>2026-04-09T06:38:32.871Z</time></trkpt><trkpt lat="38.1681367" lon="15.6567033"><ele>28.0</ele><time>2026-04-09T06:38:33.872Z</time></trkpt><trkpt lat="38.1678733" lon="15.6568867"><ele>29.5</ele><time>2026-04-09T06:38:34.871Z</time></trkpt><trkpt lat="38.1676133" lon="15.657095"><ele>31.0</ele><time>2026-04-09T06:38:35.872Z</time></trkpt><trkpt lat="38.167365" lon="15.65731"><ele>29.5</ele><time>2026-04-09T06:38:36.872Z</time></trkpt><trkpt lat="38.1671267" lon="15.6575333"><ele>28.0</ele><time>2026-04-09T06:38:37.872Z</time></trkpt><trkpt lat="38.1668933" lon="15.6577533"><ele>28.5</ele><time>2026-04-09T06:38:38.872Z</time></trkpt><trkpt lat="38.1666617" lon="15.6579717"><ele>29.0</ele><time>2026-04-09T06:38:39.872Z</time></trkpt><trkpt lat="38.1664317" lon="15.658185"><ele>29.0</ele><time>2026-04-09T06:38:40.872Z</time></trkpt><trkpt lat="38.1662067" lon="15.6583967"><ele>29.0</ele><time>2026-04-09T06:38:41.871Z</time></trkpt><trkpt lat="38.1659917" lon="15.65861"><ele>29.0</ele><time>2026-04-09T06:38:42.872Z</time></trkpt><trkpt lat="38.1657667" lon="15.6588233"><ele>29.0</ele><time>2026-04-09T06:38:43.872Z</time></trkpt><trkpt lat="38.1655417" lon="15.6590417"><ele>29.0</ele><time>2026-04-09T06:38:44.871Z</time></trkpt><trkpt lat="38.165315" lon="15.6592583"><ele>29.0</ele><time>2026-04-09T06:38:45.871Z</time></trkpt><trkpt lat="38.1650783" lon="15.659475"><ele>30.0</ele><time>2026-04-09T06:38:46.872Z</time></trkpt><trkpt lat="38.1648333" lon="15.6596983"><ele>31.0</ele><time>2026-04-09T06:38:47.872Z</time></trkpt><trkpt lat="38.164595" lon="15.659925"><ele>31.0</ele><time>2026-04-09T06:38:48.871Z</time></trkpt><trkpt lat="38.1643583" lon="15.6601483"><ele>31.0</ele><time>2026-04-09T06:38:49.871Z</time></trkpt><trkpt lat="38.1641133" lon="15.6603667"><ele>34.5</ele><time>2026-04-09T06:38:50.872Z</time></trkpt><trkpt lat="38.1638767" lon="15.6605833"><ele>38.0</ele><time>2026-04-09T06:38:51.871Z</time></trkpt><trkpt lat="38.16364" lon="15.6608117"><ele>38.0</ele><time>2026-04-09T06:38:52.871Z</time></trkpt><trkpt lat="38.16341" lon="15.6610367"><ele>38.0</ele><time>2026-04-09T06:38:53.871Z</time></trkpt><trkpt lat="38.163175" lon="15.661255"><ele>40.5</ele><time>2026-04-09T06:38:54.872Z</time></trkpt><trkpt lat="38.1629317" lon="15.66148"><ele>43.0</ele><time>2026-04-09T06:38:55.872Z</time></trkpt><trkpt lat="38.1627067" lon="15.6617017"><ele>43.0</ele><time>2026-04-09T06:38:56.872Z</time></trkpt><trkpt lat="38.1624717" lon="15.66192"><ele>43.0</ele><time>2026-04-09T06:38:57.872Z</time></trkpt><trkpt lat="38.1622367" lon="15.66214"><ele>45.5</ele><time>2026-04-09T06:38:58.872Z</time></trkpt><trkpt lat="38.1620017" lon="15.6623667"><ele>48.0</ele><time>2026-04-09T06:38:59.871Z</time></trkpt><trkpt lat="38.1617717" lon="15.66259"><ele>49.5</ele><time>2026-04-09T06:39:00.871Z</time></trkpt><trkpt lat="38.161545" lon="15.6628183"><ele>51.0</ele><time>2026-04-09T06:39:01.871Z</time></trkpt><trkpt lat="38.16131" lon="15.6630483"><ele>51.0</ele><time>2026-04-09T06:39:02.871Z</time></trkpt><trkpt lat="38.1610667" lon="15.66328"><ele>51.0</ele><time>2026-04-09T06:39:03.872Z</time></trkpt><trkpt lat="38.1608317" lon="15.663505"><ele>52.5</ele><time>2026-04-09T06:39:04.872Z</time></trkpt><trkpt lat="38.1605933" lon="15.66373"><ele>54.0</ele><time>2026-04-09T06:39:05.872Z</time></trkpt><trkpt lat="38.1603567" lon="15.66396"><ele>54.0</ele><time>2026-04-09T06:39:06.872Z</time></trkpt><trkpt lat="38.1601167" lon="15.6641783"><ele>54.0</ele><time>2026-04-09T06:39:07.872Z</time></trkpt><trkpt lat="38.15988" lon="15.6644"><ele>53.0</ele><time>2026-04-09T06:39:08.872Z</time></trkpt><trkpt lat="38.1596633" lon="15.6646517"><ele>52.0</ele><time>2026-04-09T06:39:09.872Z</time></trkpt><trkpt lat="38.15942" lon="15.6648617"><ele>52.0</ele><time>2026-04-09T06:39:10.871Z</time></trkpt><trkpt lat="38.1591733" lon="15.6651"><ele>52.0</ele><time>2026-04-09T06:39:11.872Z</time></trkpt><trkpt lat="38.1589333" lon="15.6653333"><ele>53.5</ele><time>2026-04-09T06:39:12.872Z</time></trkpt><trkpt lat="38.1586917" lon="15.6655583"><ele>55.0</ele><time>2026-04-09T06:39:13.871Z</time></trkpt><trkpt lat="38.1584567" lon="15.665765"><ele>55.5</ele><time>2026-04-09T06:39:14.872Z</time></trkpt><trkpt lat="38.1581983" lon="15.6659617"><ele>56.0</ele><time>2026-04-09T06:39:15.872Z</time></trkpt><trkpt lat="38.1579317" lon="15.666125"><ele>57.5</ele><time>2026-04-09T06:39:16.872Z</time></trkpt><trkpt lat="38.15766" lon="15.6662767"><ele>59.0</ele><time>2026-04-09T06:39:17.871Z</time></trkpt><trkpt lat="38.1573867" lon="15.66641"><ele>58.5</ele><time>2026-04-09T06:39:18.872Z</time></trkpt><trkpt lat="38.1571083" lon="15.6665383"><ele>58.0</ele><time>2026-04-09T06:39:19.872Z</time></trkpt><trkpt lat="38.1568267" lon="15.6666583"><ele>58.0</ele><time>2026-04-09T06:39:20.871Z</time></trkpt><trkpt lat="38.1565467" lon="15.6667683"><ele>58.0</ele><time>2026-04-09T06:39:21.871Z</time></trkpt><trkpt lat="38.15626" lon="15.6668633"><ele>59.5</ele><time>2026-04-09T06:39:22.871Z</time></trkpt><trkpt lat="38.1559733" lon="15.666955"><ele>61.0</ele><time>2026-04-09T06:39:23.871Z</time></trkpt><trkpt lat="38.1556867" lon="15.6670433"><ele>63.0</ele><time>2026-04-09T06:39:24.871Z</time></trkpt><trkpt lat="38.1553967" lon="15.6671383"><ele>65.0</ele><time>2026-04-09T06:39:25.872Z</time></trkpt><trkpt lat="38.155115" lon="15.66723"><ele>64.0</ele><time>2026-04-09T06:39:26.871Z</time></trkpt><trkpt lat="38.15483" lon="15.6673183"><ele>63.0</ele><time>2026-04-09T06:39:27.872Z</time></trkpt><trkpt lat="38.1545433" lon="15.667415"><ele>63.0</ele><time>2026-04-09T06:39:28.871Z</time></trkpt><trkpt lat="38.154255" lon="15.66751"><ele>63.0</ele><time>2026-04-09T06:39:29.872Z</time></trkpt><trkpt lat="38.1539667" lon="15.6675967"><ele>63.5</ele><time>2026-04-09T06:39:30.872Z</time></trkpt><trkpt lat="38.1536767" lon="15.6676883"><ele>64.0</ele><time>2026-04-09T06:39:31.872Z</time></trkpt><trkpt lat="38.1533883" lon="15.6677667"><ele>71.0</ele><time>2026-04-09T06:39:32.872Z</time></trkpt><trkpt lat="38.1531017" lon="15.66785"><ele>78.0</ele><time>2026-04-09T06:39:33.871Z</time></trkpt><trkpt lat="38.152815" lon="15.6679367"><ele>78.0</ele><time>2026-04-09T06:39:34.871Z</time></trkpt><trkpt lat="38.1525267" lon="15.6680233"><ele>78.0</ele><time>2026-04-09T06:39:35.872Z</time></trkpt><trkpt lat="38.1522383" lon="15.6680983"><ele>77.5</ele><time>2026-04-09T06:39:36.871Z</time></trkpt><trkpt lat="38.151945" lon="15.6681567"><ele>77.0</ele><time>2026-04-09T06:39:37.872Z</time></trkpt><trkpt lat="38.1516567" lon="15.6681983"><ele>77.0</ele><time>2026-04-09T06:39:38.871Z</time></trkpt><trkpt lat="38.1513667" lon="15.668235"><ele>77.0</ele><time>2026-04-09T06:39:39.872Z</time></trkpt><trkpt lat="38.15107" lon="15.66826"><ele>77.0</ele><time>2026-04-09T06:39:40.871Z</time></trkpt><trkpt lat="38.1507783" lon="15.668275"><ele>77.0</ele><time>2026-04-09T06:39:41.871Z</time></trkpt><trkpt lat="38.1504833" lon="15.6682767"><ele>76.0</ele><time>2026-04-09T06:39:42.872Z</time></trkpt><trkpt lat="38.15018" lon="15.6682667"><ele>75.0</ele><time>2026-04-09T06:39:43.872Z</time></trkpt><trkpt lat="38.14988" lon="15.66824"><ele>80.0</ele><time>2026-04-09T06:39:44.871Z</time></trkpt><trkpt lat="38.1495817" lon="15.6682133"><ele>85.0</ele><time>2026-04-09T06:39:45.871Z</time></trkpt><trkpt lat="38.14929" lon="15.66818"><ele>88.0</ele><time>2026-04-09T06:39:46.872Z</time></trkpt><trkpt lat="38.1489917" lon="15.66815"><ele>91.0</ele><time>2026-04-09T06:39:47.872Z</time></trkpt><trkpt lat="38.1486917" lon="15.6681183"><ele>91.0</ele><time>2026-04-09T06:39:48.872Z</time></trkpt><trkpt lat="38.1483933" lon="15.6680733"><ele>91.0</ele><time>2026-04-09T06:39:49.871Z</time></trkpt><trkpt lat="38.148105" lon="15.6680267"><ele>94.5</ele><time>2026-04-09T06:39:50.872Z</time></trkpt><trkpt lat="38.147815" lon="15.6679917"><ele>98.0</ele><time>2026-04-09T06:39:51.872Z</time></trkpt><trkpt lat="38.1475217" lon="15.66795"><ele>103.5</ele><time>2026-04-09T06:39:52.871Z</time></trkpt><trkpt lat="38.1472333" lon="15.66791"><ele>109.0</ele><time>2026-04-09T06:39:53.872Z</time></trkpt><trkpt lat="38.1469483" lon="15.66787"><ele>109.0</ele><time>2026-04-09T06:39:54.872Z</time></trkpt><trkpt lat="38.1466733" lon="15.6678367"><ele>109.0</ele><time>2026-04-09T06:39:55.872Z</time></trkpt><trkpt lat="38.1464083" lon="15.6677983"><ele>101.5</ele><time>2026-04-09T06:39:56.872Z</time></trkpt><trkpt lat="38.1461433" lon="15.66776"><ele>94.0</ele><time>2026-04-09T06:39:57.871Z</time></trkpt><trkpt lat="38.14539" lon="15.6675283"><ele>91.0</ele><time>2026-04-09T06:40:00.872Z</time></trkpt><trkpt lat="38.1451617" lon="15.66737"><ele>88.0</ele><time>2026-04-09T06:40:01.871Z</time></trkpt><trkpt lat="38.14494" lon="15.6672283"><ele>78.5</ele><time>2026-04-09T06:40:02.872Z</time></trkpt><trkpt lat="38.1447433" lon="15.6670433"><ele>69.0</ele><time>2026-04-09T06:40:03.872Z</time></trkpt><trkpt lat="38.1445483" lon="15.6668217"><ele>69.0</ele><time>2026-04-09T06:40:04.872Z</time></trkpt><trkpt lat="38.14436" lon="15.6665817"><ele>69.0</ele><time>2026-04-09T06:40:05.872Z</time></trkpt><trkpt lat="38.1441667" lon="15.6663267"><ele>64.5</ele><time>2026-04-09T06:40:06.872Z</time></trkpt><trkpt lat="38.1439917" lon="15.6660583"><ele>60.0</ele><time>2026-04-09T06:40:07.872Z</time></trkpt><trkpt lat="38.143835" lon="15.6657833"><ele>60.0</ele><time>2026-04-09T06:40:08.872Z</time></trkpt><trkpt lat="38.1436817" lon="15.6655167"><ele>60.0</ele><time>2026-04-09T06:40:09.871Z</time></trkpt><trkpt lat="38.1435317" lon="15.6652383"><ele>62.5</ele><time>2026-04-09T06:40:10.872Z</time></trkpt><trkpt lat="38.1433783" lon="15.6649633"><ele>65.0</ele><time>2026-04-09T06:40:11.872Z</time></trkpt><trkpt lat="38.1432183" lon="15.6646933"><ele>72.5</ele><time>2026-04-09T06:40:12.871Z</time></trkpt><trkpt lat="38.1430583" lon="15.6644267"><ele>80.0</ele><time>2026-04-09T06:40:13.871Z</time></trkpt><trkpt lat="38.1428933" lon="15.6641717"><ele>80.0</ele><time>2026-04-09T06:40:14.871Z</time></trkpt><trkpt lat="38.1427117" lon="15.6639167"><ele>80.0</ele><time>2026-04-09T06:40:15.872Z</time></trkpt><trkpt lat="38.142515" lon="15.6636617"><ele>82.0</ele><time>2026-04-09T06:40:16.871Z</time></trkpt><trkpt lat="38.142305" lon="15.66341"><ele>84.0</ele><time>2026-04-09T06:40:17.872Z</time></trkpt><trkpt lat="38.1420933" lon="15.6631717"><ele>84.0</ele><time>2026-04-09T06:40:18.872Z</time></trkpt><trkpt lat="38.1418817" lon="15.6629517"><ele>84.0</ele><time>2026-04-09T06:40:19.872Z</time></trkpt><trkpt lat="38.1416617" lon="15.6627467"><ele>79.5</ele><time>2026-04-09T06:40:20.871Z</time></trkpt><trkpt lat="38.1414383" lon="15.6625467"><ele>75.0</ele><time>2026-04-09T06:40:21.871Z</time></trkpt><trkpt lat="38.14119" lon="15.6623617"><ele>75.0</ele><time>2026-04-09T06:40:22.872Z</time></trkpt><trkpt lat="38.140935" lon="15.662175"><ele>75.0</ele><time>2026-04-09T06:40:23.871Z</time></trkpt><trkpt lat="38.1406617" lon="15.6619967"><ele>74.5</ele><time>2026-04-09T06:40:24.871Z</time></trkpt><trkpt lat="38.140375" lon="15.6618217"><ele>74.0</ele><time>2026-04-09T06:40:25.872Z</time></trkpt><trkpt lat="38.1400867" lon="15.6616533"><ele>72.0</ele><time>2026-04-09T06:40:26.871Z</time></trkpt><trkpt lat="38.1397883" lon="15.6614867"><ele>70.0</ele><time>2026-04-09T06:40:27.872Z</time></trkpt><trkpt lat="38.1394833" lon="15.6613233"><ele>70.0</ele><time>2026-04-09T06:40:28.872Z</time></trkpt><trkpt lat="38.13918" lon="15.6611567"><ele>70.0</ele><time>2026-04-09T06:40:29.871Z</time></trkpt><trkpt lat="38.1388767" lon="15.6609933"><ele>68.0</ele><time>2026-04-09T06:40:30.872Z</time></trkpt><trkpt lat="38.138565" lon="15.6608333"><ele>66.0</ele><time>2026-04-09T06:40:31.872Z</time></trkpt><trkpt lat="38.1382633" lon="15.6606717"><ele>72.5</ele><time>2026-04-09T06:40:32.872Z</time></trkpt><trkpt lat="38.1379617" lon="15.66051"><ele>79.0</ele><time>2026-04-09T06:40:33.872Z</time></trkpt><trkpt lat="38.1376583" lon="15.660355"><ele>73.5</ele><time>2026-04-09T06:40:34.872Z</time></trkpt><trkpt lat="38.13735" lon="15.6601833"><ele>68.0</ele><time>2026-04-09T06:40:35.872Z</time></trkpt><trkpt lat="38.1370367" lon="15.6600167"><ele>68.0</ele><time>2026-04-09T06:40:36.871Z</time></trkpt><trkpt lat="38.1367183" lon="15.6598433"><ele>68.0</ele><time>2026-04-09T06:40:37.871Z</time></trkpt><trkpt lat="38.136405" lon="15.6596667"><ele>69.0</ele><time>2026-04-09T06:40:38.872Z</time></trkpt><trkpt lat="38.1360917" lon="15.6594883"><ele>70.0</ele><time>2026-04-09T06:40:39.872Z</time></trkpt><trkpt lat="38.1357717" lon="15.6593217"><ele>60.0</ele><time>2026-04-09T06:40:40.871Z</time></trkpt><trkpt lat="38.1354733" lon="15.6591683"><ele>50.0</ele><time>2026-04-09T06:40:41.872Z</time></trkpt><trkpt lat="38.1351817" lon="15.6589833"><ele>46.5</ele><time>2026-04-09T06:40:42.871Z</time></trkpt><trkpt lat="38.134875" lon="15.65881"><ele>43.0</ele><time>2026-04-09T06:40:43.872Z</time></trkpt><trkpt lat="38.1345667" lon="15.658655"><ele>37.5</ele><time>2026-04-09T06:40:44.871Z</time></trkpt><trkpt lat="38.1342833" lon="15.65851"><ele>32.0</ele><time>2026-04-09T06:40:45.872Z</time></trkpt><trkpt lat="38.1340217" lon="15.6583717"><ele>46.0</ele><time>2026-04-09T06:40:46.872Z</time></trkpt><trkpt lat="38.1337867" lon="15.658245"><ele>60.0</ele><time>2026-04-09T06:40:47.872Z</time></trkpt><trkpt lat="38.1335817" lon="15.6581267"><ele>60.0</ele><time>2026-04-09T06:40:48.872Z</time></trkpt><trkpt lat="38.1334083" lon="15.6580233"><ele>60.0</ele><time>2026-04-09T06:40:49.872Z</time></trkpt><trkpt lat="38.1332533" lon="15.6579217"><ele>60.0</ele><time>2026-04-09T06:40:50.872Z</time></trkpt><trkpt lat="38.1331067" lon="15.65782"><ele>57.25</ele><time>2026-04-09T06:40:51.872Z</time></trkpt><trkpt lat="38.1329733" lon="15.6577083"><ele>54.5</ele><time>2026-04-09T06:40:52.872Z</time></trkpt><trkpt lat="38.132865" lon="15.6576"><ele>51.75</ele><time>2026-04-09T06:40:53.872Z</time></trkpt><trkpt lat="38.13278" lon="15.65749"><ele>49.0</ele><time>2026-04-09T06:40:54.871Z</time></trkpt><trkpt lat="38.1327" lon="15.6574017"><ele>49.0</ele><time>2026-04-09T06:40:55.871Z</time></trkpt><trkpt lat="38.132615" lon="15.6573133"><ele>49.0</ele><time>2026-04-09T06:40:56.871Z</time></trkpt><trkpt lat="38.1325467" lon="15.6572383"><ele>49.0</ele><time>2026-04-09T06:40:57.872Z</time></trkpt><trkpt lat="38.13247" lon="15.65716"><ele>49.0</ele><time>2026-04-09T06:40:58.871Z</time></trkpt><trkpt lat="38.1323883" lon="15.6570967"><ele>49.0</ele><time>2026-04-09T06:40:59.871Z</time></trkpt><trkpt lat="38.132295" lon="15.6570467"><ele>49.6</ele><time>2026-04-09T06:41:00.872Z</time></trkpt><trkpt lat="38.1322017" lon="15.6570167"><ele>50.2</ele><time>2026-04-09T06:41:01.871Z</time></trkpt><trkpt lat="38.1320983" lon="15.6570133"><ele>50.800000000000004</ele><time>2026-04-09T06:41:02.871Z</time></trkpt><trkpt lat="38.1319883" lon="15.65703"><ele>51.400000000000006</ele><time>2026-04-09T06:41:03.872Z</time></trkpt><trkpt lat="38.1318817" lon="15.6570717"><ele>52.0</ele><time>2026-04-09T06:41:04.872Z</time></trkpt><trkpt lat="38.1317783" lon="15.65714"><ele>52.0</ele><time>2026-04-09T06:41:05.872Z</time></trkpt><trkpt lat="38.1316883" lon="15.6572083"><ele>52.0</ele><time>2026-04-09T06:41:06.871Z</time></trkpt><trkpt lat="38.1315933" lon="15.65727"><ele>52.0</ele><time>2026-04-09T06:41:07.872Z</time></trkpt><trkpt lat="38.1314683" lon="15.657345"><ele>52.0</ele><time>2026-04-09T06:41:08.871Z</time></trkpt><trkpt lat="38.1313267" lon="15.6574433"><ele>55.666666666666664</ele><time>2026-04-09T06:41:09.872Z</time></trkpt><trkpt lat="38.131165" lon="15.6575467"><ele>59.33333333333333</ele><time>2026-04-09T06:41:10.872Z</time></trkpt><trkpt lat="38.1309867" lon="15.65766"><ele>63.0</ele><time>2026-04-09T06:41:11.872Z</time></trkpt><trkpt lat="38.1308067" lon="15.6577733"><ele>66.33333333333333</ele><time>2026-04-09T06:41:12.871Z</time></trkpt><trkpt lat="38.1306283" lon="15.6578917"><ele>69.66666666666666</ele><time>2026-04-09T06:41:13.872Z</time></trkpt><trkpt lat="38.1304617" lon="15.6579967"><ele>73.0</ele><time>2026-04-09T06:41:14.872Z</time></trkpt><trkpt lat="38.1302967" lon="15.6581"><ele>73.0</ele><time>2026-04-09T06:41:15.872Z</time></trkpt><trkpt lat="38.130145" lon="15.6582"><ele>73.0</ele><time>2026-04-09T06:41:16.871Z</time></trkpt><trkpt lat="38.1299967" lon="15.658295"><ele>73.0</ele><time>2026-04-09T06:41:17.872Z</time></trkpt><trkpt lat="38.1298517" lon="15.6583933"><ele>71.66666666666666</ele><time>2026-04-09T06:41:18.872Z</time></trkpt><trkpt lat="38.12972" lon="15.65849"><ele>70.33333333333333</ele><time>2026-04-09T06:41:19.871Z</time></trkpt><trkpt lat="38.12957" lon="15.658585"><ele>69.0</ele><time>2026-04-09T06:41:20.872Z</time></trkpt><trkpt lat="38.1294117" lon="15.6586883"><ele>71.33333333333333</ele><time>2026-04-09T06:41:21.872Z</time></trkpt><trkpt lat="38.1292283" lon="15.65881"><ele>73.66666666666666</ele><time>2026-04-09T06:41:22.872Z</time></trkpt><trkpt lat="38.12903" lon="15.65894"><ele>76.0</ele><time>2026-04-09T06:41:23.872Z</time></trkpt><trkpt lat="38.1288183" lon="15.6590833"><ele>76.0</ele><time>2026-04-09T06:41:24.871Z</time></trkpt><trkpt lat="38.1286" lon="15.6592283"><ele>76.0</ele><time>2026-04-09T06:41:25.872Z</time></trkpt><trkpt lat="38.1283783" lon="15.65938"><ele>79.0</ele><time>2026-04-09T06:41:26.872Z</time></trkpt><trkpt lat="38.128135" lon="15.659535"><ele>82.0</ele><time>2026-04-09T06:41:27.871Z</time></trkpt><trkpt lat="38.1279017" lon="15.6596867"><ele>82.0</ele><time>2026-04-09T06:41:28.872Z</time></trkpt><trkpt lat="38.1276633" lon="15.6598417"><ele>82.0</ele><time>2026-04-09T06:41:29.872Z</time></trkpt><trkpt lat="38.1274133" lon="15.6600017"><ele>80.0</ele><time>2026-04-09T06:41:30.872Z</time></trkpt><trkpt lat="38.127155" lon="15.6601633"><ele>78.0</ele><time>2026-04-09T06:41:31.871Z</time></trkpt><trkpt lat="38.126905" lon="15.66034"><ele>78.0</ele><time>2026-04-09T06:41:32.871Z</time></trkpt><trkpt lat="38.1266517" lon="15.66052"><ele>78.0</ele><time>2026-04-09T06:41:33.871Z</time></trkpt><trkpt lat="38.1263983" lon="15.6607267"><ele>80.0</ele><time>2026-04-09T06:41:34.871Z</time></trkpt><trkpt lat="38.1261517" lon="15.6609683"><ele>82.0</ele><time>2026-04-09T06:41:35.872Z</time></trkpt><trkpt lat="38.1259267" lon="15.6612317"><ele>73.5</ele><time>2026-04-09T06:41:36.871Z</time></trkpt><trkpt lat="38.1257167" lon="15.6615283"><ele>65.0</ele><time>2026-04-09T06:41:37.871Z</time></trkpt><trkpt lat="38.1255183" lon="15.66184"><ele>69.5</ele><time>2026-04-09T06:41:38.871Z</time></trkpt><trkpt lat="38.125335" lon="15.6621517"><ele>74.0</ele><time>2026-04-09T06:41:39.872Z</time></trkpt><trkpt lat="38.1251667" lon="15.6624517"><ele>74.0</ele><time>2026-04-09T06:41:40.872Z</time></trkpt><trkpt lat="38.124975" lon="15.662735"><ele>74.0</ele><time>2026-04-09T06:41:41.872Z</time></trkpt><trkpt lat="38.1247633" lon="15.6629983"><ele>74.0</ele><time>2026-04-09T06:41:42.871Z</time></trkpt><trkpt lat="38.124535" lon="15.6632283"><ele>74.0</ele><time>2026-04-09T06:41:43.872Z</time></trkpt><trkpt lat="38.1242867" lon="15.6634233"><ele>67.5</ele><time>2026-04-09T06:41:44.871Z</time></trkpt><trkpt lat="38.1240233" lon="15.663585"><ele>61.0</ele><time>2026-04-09T06:41:45.872Z</time></trkpt><trkpt lat="38.12375" lon="15.663715"><ele>61.0</ele><time>2026-04-09T06:41:46.872Z</time></trkpt><trkpt lat="38.1234717" lon="15.6638033"><ele>61.0</ele><time>2026-04-09T06:41:47.872Z</time></trkpt><trkpt lat="38.1231933" lon="15.663865"><ele>61.0</ele><time>2026-04-09T06:41:48.871Z</time></trkpt><trkpt lat="38.1229083" lon="15.663895"><ele>61.0</ele><time>2026-04-09T06:41:49.871Z</time></trkpt><trkpt lat="38.1226317" lon="15.6638967"><ele>68.5</ele><time>2026-04-09T06:41:50.871Z</time></trkpt><trkpt lat="38.1223483" lon="15.6638617"><ele>76.0</ele><time>2026-04-09T06:41:51.872Z</time></trkpt><trkpt lat="38.1220717" lon="15.663795"><ele>76.0</ele><time>2026-04-09T06:41:52.872Z</time></trkpt><trkpt lat="38.1217883" lon="15.6637"><ele>76.0</ele><time>2026-04-09T06:41:53.872Z</time></trkpt><trkpt lat="38.121515" lon="15.6635683"><ele>86.0</ele><time>2026-04-09T06:41:54.871Z</time></trkpt><trkpt lat="38.12124" lon="15.66342"><ele>96.0</ele><time>2026-04-09T06:41:55.871Z</time></trkpt><trkpt lat="38.1209583" lon="15.66327"><ele>95.5</ele><time>2026-04-09T06:41:56.872Z</time></trkpt><trkpt lat="38.1206633" lon="15.6631283"><ele>95.0</ele><time>2026-04-09T06:41:57.872Z</time></trkpt><trkpt lat="38.120375" lon="15.6629917"><ele>95.0</ele><time>2026-04-09T06:41:58.872Z</time></trkpt><trkpt lat="38.12008" lon="15.6628717"><ele>95.0</ele><time>2026-04-09T06:41:59.871Z</time></trkpt><trkpt lat="38.1197817" lon="15.66277"><ele>90.0</ele><time>2026-04-09T06:42:00.872Z</time></trkpt><trkpt lat="38.11947" lon="15.6626933"><ele>85.0</ele><time>2026-04-09T06:42:01.871Z</time></trkpt><trkpt lat="38.1191533" lon="15.6626433"><ele>86.0</ele><time>2026-04-09T06:42:02.872Z</time></trkpt><trkpt lat="38.11883" lon="15.6626133"><ele>87.0</ele><time>2026-04-09T06:42:03.872Z</time></trkpt><trkpt lat="38.118505" lon="15.6626033"><ele>86.0</ele><time>2026-04-09T06:42:04.872Z</time></trkpt><trkpt lat="38.11818" lon="15.66261"><ele>85.0</ele><time>2026-04-09T06:42:05.871Z</time></trkpt><trkpt lat="38.1178567" lon="15.6626333"><ele>85.0</ele><time>2026-04-09T06:42:06.872Z</time></trkpt><trkpt lat="38.11753" lon="15.6626567"><ele>85.0</ele><time>2026-04-09T06:42:07.872Z</time></trkpt><trkpt lat="38.11721" lon="15.6626783"><ele>86.0</ele><time>2026-04-09T06:42:08.872Z</time></trkpt><trkpt lat="38.116895" lon="15.6627033"><ele>87.0</ele><time>2026-04-09T06:42:09.872Z</time></trkpt><trkpt lat="38.1165717" lon="15.66271"><ele>87.0</ele><time>2026-04-09T06:42:10.871Z</time></trkpt><trkpt lat="38.1162517" lon="15.6626933"><ele>87.0</ele><time>2026-04-09T06:42:11.872Z</time></trkpt><trkpt lat="38.1159317" lon="15.662655"><ele>85.5</ele><time>2026-04-09T06:42:12.871Z</time></trkpt><trkpt lat="38.1156183" lon="15.6626033"><ele>84.0</ele><time>2026-04-09T06:42:13.871Z</time></trkpt><trkpt lat="38.115295" lon="15.662535"><ele>84.0</ele><time>2026-04-09T06:42:14.871Z</time></trkpt><trkpt lat="38.1149767" lon="15.6624683"><ele>84.0</ele><time>2026-04-09T06:42:15.871Z</time></trkpt><trkpt lat="38.11466" lon="15.66239"><ele>88.5</ele><time>2026-04-09T06:42:16.871Z</time></trkpt><trkpt lat="38.1143367" lon="15.662315"><ele>93.0</ele><time>2026-04-09T06:42:17.872Z</time></trkpt><trkpt lat="38.1140183" lon="15.6622317"><ele>93.5</ele><time>2026-04-09T06:42:18.871Z</time></trkpt><trkpt lat="38.1137017" lon="15.6621467"><ele>94.0</ele><time>2026-04-09T06:42:19.872Z</time></trkpt><trkpt lat="38.1133783" lon="15.6620667"><ele>94.5</ele><time>2026-04-09T06:42:20.871Z</time></trkpt><trkpt lat="38.1130517" lon="15.66199"><ele>95.0</ele><time>2026-04-09T06:42:21.872Z</time></trkpt><trkpt lat="38.1127433" lon="15.6619017"><ele>96.5</ele><time>2026-04-09T06:42:22.872Z</time></trkpt><trkpt lat="38.11244" lon="15.661815"><ele>98.0</ele><time>2026-04-09T06:42:23.871Z</time></trkpt><trkpt lat="38.112155" lon="15.6617283"><ele>101.5</ele><time>2026-04-09T06:42:24.871Z</time></trkpt><trkpt lat="38.111885" lon="15.6616583"><ele>105.0</ele><time>2026-04-09T06:42:25.871Z</time></trkpt><trkpt lat="38.1116233" lon="15.6615783"><ele>107.5</ele><time>2026-04-09T06:42:26.871Z</time></trkpt><trkpt lat="38.1113683" lon="15.6615017"><ele>110.0</ele><time>2026-04-09T06:42:27.872Z</time></trkpt><trkpt lat="38.1111117" lon="15.6614283"><ele>110.0</ele><time>2026-04-09T06:42:28.871Z</time></trkpt><trkpt lat="38.1108583" lon="15.66135"><ele>110.0</ele><time>2026-04-09T06:42:29.872Z</time></trkpt><trkpt lat="38.1105967" lon="15.6612717"><ele>112.5</ele><time>2026-04-09T06:42:30.872Z</time></trkpt><trkpt lat="38.1103383" lon="15.661185"><ele>115.0</ele><time>2026-04-09T06:42:31.872Z</time></trkpt><trkpt lat="38.110065" lon="15.6611"><ele>113.5</ele><time>2026-04-09T06:42:32.871Z</time></trkpt><trkpt lat="38.1097817" lon="15.6610067"><ele>112.0</ele><time>2026-04-09T06:42:33.872Z</time></trkpt><trkpt lat="38.1094867" lon="15.66092"><ele>112.0</ele><time>2026-04-09T06:42:34.871Z</time></trkpt><trkpt lat="38.1091933" lon="15.6608333"><ele>112.0</ele><time>2026-04-09T06:42:35.871Z</time></trkpt><trkpt lat="38.1088933" lon="15.6607567"><ele>118.0</ele><time>2026-04-09T06:42:36.871Z</time></trkpt><trkpt lat="38.1085983" lon="15.6606717"><ele>124.0</ele><time>2026-04-09T06:42:37.872Z</time></trkpt><trkpt lat="38.1082967" lon="15.6605817"><ele>124.5</ele><time>2026-04-09T06:42:38.872Z</time></trkpt><trkpt lat="38.1080017" lon="15.660485"><ele>125.0</ele><time>2026-04-09T06:42:39.872Z</time></trkpt><trkpt lat="38.107705" lon="15.6603867"><ele>125.0</ele><time>2026-04-09T06:42:40.872Z</time></trkpt><trkpt lat="38.1074067" lon="15.660295"><ele>125.0</ele><time>2026-04-09T06:42:41.872Z</time></trkpt><trkpt lat="38.1071083" lon="15.6602033"><ele>121.5</ele><time>2026-04-09T06:42:42.871Z</time></trkpt><trkpt lat="38.10681" lon="15.66011"><ele>118.0</ele><time>2026-04-09T06:42:43.872Z</time></trkpt><trkpt lat="38.1065117" lon="15.6600167"><ele>110.0</ele><time>2026-04-09T06:42:44.872Z</time></trkpt><trkpt lat="38.1062133" lon="15.6599233"><ele>102.0</ele><time>2026-04-09T06:42:45.872Z</time></trkpt><trkpt lat="38.1054483" lon="15.6598617"><ele>96.33333333333333</ele><time>2026-04-09T06:42:48.872Z</time></trkpt><trkpt lat="38.1055767" lon="15.6597883"><ele>90.66666666666666</ele><time>2026-04-09T06:42:49.871Z</time></trkpt><trkpt lat="38.1053883" lon="15.65972"><ele>85.0</ele><time>2026-04-09T06:42:50.871Z</time></trkpt><trkpt lat="38.1051917" lon="15.659685"><ele>85.0</ele><time>2026-04-09T06:42:51.871Z</time></trkpt><trkpt lat="38.1049867" lon="15.6596517"><ele>85.0</ele><time>2026-04-09T06:42:52.872Z</time></trkpt><trkpt lat="38.1047767" lon="15.6596267"><ele>85.0</ele><time>2026-04-09T06:42:53.871Z</time></trkpt><trkpt lat="38.104565" lon="15.659625"><ele>81.33333333333333</ele><time>2026-04-09T06:42:54.871Z</time></trkpt><trkpt lat="38.1043467" lon="15.6596267"><ele>77.66666666666667</ele><time>2026-04-09T06:42:55.872Z</time></trkpt><trkpt lat="38.1041283" lon="15.65963"><ele>74.0</ele><time>2026-04-09T06:42:56.872Z</time></trkpt><trkpt lat="38.1039" lon="15.6596333"><ele>70.0</ele><time>2026-04-09T06:42:57.872Z</time></trkpt><trkpt lat="38.1036683" lon="15.6596217"><ele>66.0</ele><time>2026-04-09T06:42:58.871Z</time></trkpt><trkpt lat="38.1034217" lon="15.6596083"><ele>64.5</ele><time>2026-04-09T06:42:59.871Z</time></trkpt><trkpt lat="38.10315" lon="15.6596"><ele>63.0</ele><time>2026-04-09T06:43:00.872Z</time></trkpt><trkpt lat="38.102865" lon="15.6595867"><ele>63.0</ele><time>2026-04-09T06:43:01.871Z</time></trkpt><trkpt lat="38.1025833" lon="15.6595767"><ele>63.0</ele><time>2026-04-09T06:43:02.871Z</time></trkpt><trkpt lat="38.1023133" lon="15.6595633"><ele>64.0</ele><time>2026-04-09T06:43:03.872Z</time></trkpt><trkpt lat="38.1020567" lon="15.6595433"><ele>65.0</ele><time>2026-04-09T06:43:04.872Z</time></trkpt><trkpt lat="38.1018283" lon="15.6595167"><ele>65.0</ele><time>2026-04-09T06:43:05.872Z</time></trkpt><trkpt lat="38.1016117" lon="15.6595033"><ele>65.0</ele><time>2026-04-09T06:43:06.871Z</time></trkpt><trkpt lat="38.1014033" lon="15.65949"><ele>65.0</ele><time>2026-04-09T06:43:07.871Z</time></trkpt><trkpt lat="38.101205" lon="15.6594533"><ele>65.0</ele><time>2026-04-09T06:43:08.871Z</time></trkpt><trkpt lat="38.1010117" lon="15.6593817"><ele>65.0</ele><time>2026-04-09T06:43:09.871Z</time></trkpt><trkpt lat="38.100835" lon="15.6592883"><ele>65.0</ele><time>2026-04-09T06:43:10.872Z</time></trkpt><trkpt lat="38.1006883" lon="15.6591517"><ele>66.0</ele><time>2026-04-09T06:43:11.871Z</time></trkpt><trkpt lat="38.1005733" lon="15.6589833"><ele>67.0</ele><time>2026-04-09T06:43:12.872Z</time></trkpt><trkpt lat="38.10046" lon="15.6587983"><ele>68.0</ele><time>2026-04-09T06:43:13.872Z</time></trkpt><trkpt lat="38.1003617" lon="15.6585967"><ele>66.0</ele><time>2026-04-09T06:43:14.872Z</time></trkpt><trkpt lat="38.100295" lon="15.6583783"><ele>64.0</ele><time>2026-04-09T06:43:15.871Z</time></trkpt><trkpt lat="38.10025" lon="15.65815"><ele>62.0</ele><time>2026-04-09T06:43:16.872Z</time></trkpt><trkpt lat="38.10023" lon="15.6579233"><ele>62.0</ele><time>2026-04-09T06:43:17.871Z</time></trkpt><trkpt lat="38.1002433" lon="15.657685"><ele>62.0</ele><time>2026-04-09T06:43:18.872Z</time></trkpt><trkpt lat="38.10028" lon="15.6574483"><ele>62.0</ele><time>2026-04-09T06:43:19.871Z</time></trkpt><trkpt lat="38.1003233" lon="15.6572083"><ele>62.0</ele><time>2026-04-09T06:43:20.872Z</time></trkpt><trkpt lat="38.10036" lon="15.6569683"><ele>62.0</ele><time>2026-04-09T06:43:21.872Z</time></trkpt><trkpt lat="38.10039" lon="15.6567433"><ele>62.0</ele><time>2026-04-09T06:43:22.872Z</time></trkpt><trkpt lat="38.1004217" lon="15.6565383"><ele>62.0</ele><time>2026-04-09T06:43:23.872Z</time></trkpt><trkpt lat="38.1004533" lon="15.6563383"><ele>62.0</ele><time>2026-04-09T06:43:24.872Z</time></trkpt><trkpt lat="38.10049" lon="15.6561383"><ele>62.0</ele><time>2026-04-09T06:43:25.871Z</time></trkpt><trkpt lat="38.1005233" lon="15.65594"><ele>61.0</ele><time>2026-04-09T06:43:26.871Z</time></trkpt><trkpt lat="38.100545" lon="15.6557583"><ele>60.0</ele><time>2026-04-09T06:43:27.871Z</time></trkpt><trkpt lat="38.100565" lon="15.6555983"><ele>59.0</ele><time>2026-04-09T06:43:28.872Z</time></trkpt><trkpt lat="38.1005883" lon="15.6554617"><ele>58.0</ele><time>2026-04-09T06:43:29.872Z</time></trkpt><trkpt lat="38.1006117" lon="15.65534"><ele>57.0</ele><time>2026-04-09T06:43:30.872Z</time></trkpt><trkpt lat="38.1006433" lon="15.6552183"><ele>56.0</ele><time>2026-04-09T06:43:31.871Z</time></trkpt><trkpt lat="38.1006867" lon="15.65508"><ele>55.0</ele><time>2026-04-09T06:43:32.872Z</time></trkpt><trkpt lat="38.1007283" lon="15.6549317"><ele>54.0</ele><time>2026-04-09T06:43:33.871Z</time></trkpt><trkpt lat="38.1007667" lon="15.654785"><ele>54.0</ele><time>2026-04-09T06:43:34.871Z</time></trkpt><trkpt lat="38.1007933" lon="15.6546567"><ele>54.0</ele><time>2026-04-09T06:43:35.872Z</time></trkpt><trkpt lat="38.10082" lon="15.6545467"><ele>54.0</ele><time>2026-04-09T06:43:36.871Z</time></trkpt><trkpt lat="38.1008517" lon="15.6544683"><ele>54.0</ele><time>2026-04-09T06:43:37.872Z</time></trkpt><trkpt lat="38.1009417" lon="15.6543933"><ele>54.0</ele><time>2026-04-09T06:43:39.871Z</time></trkpt><trkpt lat="38.1010117" lon="15.6543983"><ele>54.0</ele><time>2026-04-09T06:43:40.872Z</time></trkpt><trkpt lat="38.101085" lon="15.6544117"><ele>54.2</ele><time>2026-04-09T06:43:41.872Z</time></trkpt><trkpt lat="38.1011833" lon="15.6544183"><ele>54.400000000000006</ele><time>2026-04-09T06:43:43.872Z</time></trkpt><trkpt lat="38.10127" lon="15.6544083"><ele>54.6</ele><time>2026-04-09T06:43:46.871Z</time></trkpt><trkpt lat="38.1013967" lon="15.6544033"><ele>54.8</ele><time>2026-04-09T06:43:48.872Z</time></trkpt><trkpt lat="38.1014917" lon="15.6544083"><ele>55.0</ele><time>2026-04-09T06:43:49.872Z</time></trkpt><trkpt lat="38.101625" lon="15.6544017"><ele>53.25</ele><time>2026-04-09T06:43:50.871Z</time></trkpt><trkpt lat="38.1017683" lon="15.654415"><ele>51.5</ele><time>2026-04-09T06:43:51.871Z</time></trkpt><trkpt lat="38.1019083" lon="15.6544283"><ele>49.75</ele><time>2026-04-09T06:43:52.871Z</time></trkpt><trkpt lat="38.10204" lon="15.6544467"><ele>48.0</ele><time>2026-04-09T06:43:53.872Z</time></trkpt><trkpt lat="38.1021517" lon="15.6544483"><ele>48.0</ele><time>2026-04-09T06:43:54.872Z</time></trkpt><trkpt lat="38.102245" lon="15.65444"><ele>48.0</ele><time>2026-04-09T06:43:55.871Z</time></trkpt><trkpt lat="38.1023133" lon="15.65443"><ele>48.0</ele><time>2026-04-09T06:43:56.872Z</time></trkpt><trkpt lat="38.1024233" lon="15.65441"><ele>48.0</ele><time>2026-04-09T06:43:58.871Z</time></trkpt><trkpt lat="38.1025167" lon="15.654415"><ele>48.0</ele><time>2026-04-09T06:44:00.871Z</time></trkpt><trkpt lat="38.1025933" lon="15.65443"><ele>48.0</ele><time>2026-04-09T06:44:02.871Z</time></trkpt><trkpt lat="38.1026633" lon="15.65448"><ele>48.599999999999994</ele><time>2026-04-09T06:44:04.872Z</time></trkpt><trkpt lat="38.1026833" lon="15.6546567"><ele>49.199999999999996</ele><time>2026-04-09T06:44:06.872Z</time></trkpt><trkpt lat="38.1026933" lon="15.654785"><ele>49.8</ele><time>2026-04-09T06:44:07.872Z</time></trkpt><trkpt lat="38.1026967" lon="15.6548933"><ele>50.4</ele><time>2026-04-09T06:44:08.872Z</time></trkpt><trkpt lat="38.102705" lon="15.6550417"><ele>51.0</ele><time>2026-04-09T06:44:10.872Z</time></trkpt><trkpt lat="38.102715" lon="15.655135"><ele>51.0</ele><time>2026-04-09T06:44:12.872Z</time></trkpt><trkpt lat="38.1027117" lon="15.65523"><ele>51.0</ele><time>2026-04-09T06:45:35.871Z</time></trkpt><trkpt lat="38.1026867" lon="15.655335"><ele>51.0</ele><time>2026-04-09T06:45:37.871Z</time></trkpt><trkpt lat="38.1026883" lon="15.6555"><ele>51.0</ele><time>2026-04-09T06:45:39.872Z</time></trkpt><trkpt lat="38.1026983" lon="15.655605"><ele>51.0</ele><time>2026-04-09T06:45:40.871Z</time></trkpt><trkpt lat="38.1027067" lon="15.6557133"><ele>51.166666666666664</ele><time>2026-04-09T06:45:41.871Z</time></trkpt><trkpt lat="38.1027183" lon="15.6558067"><ele>51.33333333333333</ele><time>2026-04-09T06:45:42.871Z</time></trkpt><trkpt lat="38.1027167" lon="15.6558867"><ele>51.5</ele><time>2026-04-09T06:45:43.872Z</time></trkpt><trkpt lat="38.1027117" lon="15.6560217"><ele>51.666666666666664</ele><time>2026-04-09T06:45:45.871Z</time></trkpt><trkpt lat="38.1027067" lon="15.6561083"><ele>51.83333333333333</ele><time>2026-04-09T06:45:47.872Z</time></trkpt><trkpt lat="38.1027033" lon="15.6562183"><ele>52.0</ele><time>2026-04-09T06:45:50.871Z</time></trkpt><trkpt lat="38.1026933" lon="15.6563067"><ele>52.49999999999999</ele><time>2026-04-09T06:45:54.871Z</time></trkpt><trkpt lat="38.1026017" lon="15.6563133"><ele>53.0</ele><time>2026-04-09T06:48:42.872Z</time></trkpt><trkpt lat="38.1026767" lon="15.656325"><ele>53.5</ele><time>2026-04-09T06:48:48.871Z</time></trkpt><trkpt lat="38.1027317" lon="15.656375"><ele>54.0</ele><time>2026-04-09T06:48:53.872Z</time></trkpt><trkpt lat="38.10273" lon="15.6564717"><ele>54.49999999999999</ele><time>2026-04-09T06:48:55.871Z</time></trkpt><trkpt lat="38.1027333" lon="15.656635"><ele>55.0</ele><time>2026-04-09T06:48:57.871Z</time></trkpt><trkpt lat="38.1027233" lon="15.656745"><ele>54.99999999999999</ele><time>2026-04-09T06:48:58.872Z</time></trkpt><trkpt lat="38.1027183" lon="15.6568517"><ele>55.0</ele><time>2026-04-09T06:48:59.871Z</time></trkpt><trkpt lat="38.1027183" lon="15.6569517"><ele>55.0</ele><time>2026-04-09T06:49:00.872Z</time></trkpt><trkpt lat="38.1027133" lon="15.6570917"><ele>55.0</ele><time>2026-04-09T06:49:02.872Z</time></trkpt><trkpt lat="38.1027017" lon="15.657185"><ele>54.99999999999999</ele><time>2026-04-09T06:49:04.871Z</time></trkpt><trkpt lat="38.1027067" lon="15.6572883"><ele>55.0</ele><time>2026-04-09T06:49:06.872Z</time></trkpt><trkpt lat="38.10271" lon="15.657415"><ele>55.83333333333333</ele><time>2026-04-09T06:49:08.871Z</time></trkpt><trkpt lat="38.1027167" lon="15.6575133"><ele>56.666666666666664</ele><time>2026-04-09T06:49:10.872Z</time></trkpt><trkpt lat="38.10277" lon="15.6575933"><ele>57.5</ele><time>2026-04-09T06:49:13.871Z</time></trkpt><trkpt lat="38.1028567" lon="15.6576017"><ele>58.33333333333333</ele><time>2026-04-09T06:49:15.872Z</time></trkpt><trkpt lat="38.10297" lon="15.6575683"><ele>59.166666666666664</ele><time>2026-04-09T06:49:17.872Z</time></trkpt><trkpt lat="38.103035" lon="15.6575533"><ele>60.0</ele><time>2026-04-09T06:49:18.872Z</time></trkpt><trkpt lat="38.1031117" lon="15.6575333"><ele>60.0</ele><time>2026-04-09T06:49:19.872Z</time></trkpt><trkpt lat="38.1031917" lon="15.657505"><ele>60.0</ele><time>2026-04-09T06:49:20.872Z</time></trkpt><trkpt lat="38.1032567" lon="15.6574733"><ele>60.0</ele><time>2026-04-09T06:49:21.871Z</time></trkpt><trkpt lat="38.1033317" lon="15.657455"><ele>60.0</ele><time>2026-04-09T06:49:22.871Z</time></trkpt><trkpt lat="38.1034083" lon="15.65745"><ele>60.0</ele><time>2026-04-09T06:49:23.872Z</time></trkpt><trkpt lat="38.1034933" lon="15.6574583"><ele>60.0</ele><time>2026-04-09T06:49:25.871Z</time></trkpt><trkpt lat="38.1035167" lon="15.6576"><ele>60.6</ele><time>2026-04-09T06:49:28.871Z</time></trkpt><trkpt lat="38.1035217" lon="15.6577683"><ele>61.2</ele><time>2026-04-09T06:49:30.872Z</time></trkpt><trkpt lat="38.103525" lon="15.6578883"><ele>61.8</ele><time>2026-04-09T06:49:31.872Z</time></trkpt><trkpt lat="38.10352" lon="15.6580183"><ele>62.4</ele><time>2026-04-09T06:49:32.871Z</time></trkpt><trkpt lat="38.1035117" lon="15.6581517"><ele>63.0</ele><time>2026-04-09T06:49:33.871Z</time></trkpt><trkpt lat="38.1034933" lon="15.658285"><ele>63.0</ele><time>2026-04-09T06:49:34.871Z</time></trkpt><trkpt lat="38.1034683" lon="15.6584083"><ele>63.0</ele><time>2026-04-09T06:49:35.871Z</time></trkpt><trkpt lat="38.1034417" lon="15.6585217"><ele>63.0</ele><time>2026-04-09T06:49:36.871Z</time></trkpt><trkpt lat="38.1034133" lon="15.65863"><ele>63.0</ele><time>2026-04-09T06:49:37.872Z</time></trkpt><trkpt lat="38.10339" lon="15.65874"><ele>63.0</ele><time>2026-04-09T06:49:38.871Z</time></trkpt><trkpt lat="38.103365" lon="15.65886"><ele>63.333333333333336</ele><time>2026-04-09T06:49:39.872Z</time></trkpt><trkpt lat="38.1033533" lon="15.6589817"><ele>63.66666666666667</ele><time>2026-04-09T06:49:40.871Z</time></trkpt><trkpt lat="38.103355" lon="15.6590867"><ele>64.0</ele><time>2026-04-09T06:49:41.871Z</time></trkpt><trkpt lat="38.1033583" lon="15.659185"><ele>64.33333333333334</ele><time>2026-04-09T06:49:42.872Z</time></trkpt><trkpt lat="38.1033617" lon="15.6592783"><ele>64.66666666666667</ele><time>2026-04-09T06:49:43.871Z</time></trkpt><trkpt lat="38.1033867" lon="15.65937"><ele>65.0</ele><time>2026-04-09T06:49:44.871Z</time></trkpt><trkpt lat="38.1034133" lon="15.65945"><ele>65.2</ele><time>2026-04-09T06:49:45.872Z</time></trkpt><trkpt lat="38.1034533" lon="15.65958"><ele>65.4</ele><time>2026-04-09T06:49:47.872Z</time></trkpt><trkpt lat="38.1034817" lon="15.659665"><ele>65.6</ele><time>2026-04-09T06:49:49.871Z</time></trkpt><trkpt lat="38.1034983" lon="15.659765"><ele>65.8</ele><time>2026-04-09T06:49:51.872Z</time></trkpt><trkpt lat="38.1035117" lon="15.6598817"><ele>66.0</ele><time>2026-04-09T06:49:59.872Z</time></trkpt><trkpt lat="38.1035417" lon="15.6600067"><ele>66.0</ele><time>2026-04-09T06:50:01.872Z</time></trkpt><trkpt lat="38.103575" lon="15.660105"><ele>66.0</ele><time>2026-04-09T06:50:02.872Z</time></trkpt><trkpt lat="38.103625" lon="15.66021"><ele>66.0</ele><time>2026-04-09T06:50:03.872Z</time></trkpt><trkpt lat="38.103685" lon="15.66032"><ele>66.0</ele><time>2026-04-09T06:50:04.872Z</time></trkpt><trkpt lat="38.103745" lon="15.6604433"><ele>66.0</ele><time>2026-04-09T06:50:05.871Z</time></trkpt><trkpt lat="38.1038" lon="15.660565"><ele>66.39999999999999</ele><time>2026-04-09T06:50:06.872Z</time></trkpt><trkpt lat="38.1038483" lon="15.6606767"><ele>66.8</ele><time>2026-04-09T06:50:07.871Z</time></trkpt><trkpt lat="38.1038833" lon="15.660785"><ele>67.19999999999999</ele><time>2026-04-09T06:50:08.871Z</time></trkpt><trkpt lat="38.1039133" lon="15.6608967"><ele>67.6</ele><time>2026-04-09T06:50:09.872Z</time></trkpt><trkpt lat="38.10393" lon="15.6610267"><ele>68.0</ele><time>2026-04-09T06:50:10.871Z</time></trkpt><trkpt lat="38.1039517" lon="15.6611567"><ele>68.66666666666667</ele><time>2026-04-09T06:50:11.871Z</time></trkpt><trkpt lat="38.1039633" lon="15.6612667"><ele>69.33333333333334</ele><time>2026-04-09T06:50:12.871Z</time></trkpt><trkpt lat="38.1039817" lon="15.6613583"><ele>70.0</ele><time>2026-04-09T06:50:13.872Z</time></trkpt><trkpt lat="38.1040017" lon="15.6614817"><ele>70.66666666666667</ele><time>2026-04-09T06:50:15.871Z</time></trkpt><trkpt lat="38.1040567" lon="15.661545"><ele>71.33333333333333</ele><time>2026-04-09T06:50:17.871Z</time></trkpt><trkpt lat="38.1041617" lon="15.6615317"><ele>72.0</ele><time>2026-04-09T06:50:19.872Z</time></trkpt><trkpt lat="38.10423" lon="15.6614767"><ele>72.5</ele><time>2026-04-09T06:50:20.871Z</time></trkpt><trkpt lat="38.1042833" lon="15.6613717"><ele>73.0</ele><time>2026-04-09T06:50:21.872Z</time></trkpt><trkpt lat="38.1043283" lon="15.6612283"><ele>73.5</ele><time>2026-04-09T06:50:22.871Z</time></trkpt><trkpt lat="38.1043483" lon="15.6610467"><ele>74.0</ele><time>2026-04-09T06:50:23.872Z</time></trkpt><trkpt lat="38.1043683" lon="15.660845"><ele>74.0</ele><time>2026-04-09T06:50:24.871Z</time></trkpt><trkpt lat="38.1043917" lon="15.6606233"><ele>74.0</ele><time>2026-04-09T06:50:25.872Z</time></trkpt><trkpt lat="38.1044533" lon="15.6604417"><ele>74.0</ele><time>2026-04-09T06:50:26.871Z</time></trkpt><trkpt lat="38.1045583" lon="15.6602833"><ele>74.0</ele><time>2026-04-09T06:50:27.871Z</time></trkpt><trkpt lat="38.1046917" lon="15.660135"><ele>74.0</ele><time>2026-04-09T06:50:28.871Z</time></trkpt><trkpt lat="38.1048183" lon="15.660015"><ele>74.0</ele><time>2026-04-09T06:50:29.871Z</time></trkpt><trkpt lat="38.1049467" lon="15.6599283"><ele>76.2</ele><time>2026-04-09T06:50:30.871Z</time></trkpt><trkpt lat="38.1050683" lon="15.6598717"><ele>78.4</ele><time>2026-04-09T06:50:31.872Z</time></trkpt><trkpt lat="38.1051883" lon="15.6598533"><ele>80.6</ele><time>2026-04-09T06:50:32.872Z</time></trkpt><trkpt lat="38.1052817" lon="15.6598467"><ele>82.8</ele><time>2026-04-09T06:50:33.872Z</time></trkpt><trkpt lat="38.1053683" lon="15.659855"><ele>85.0</ele><time>2026-04-09T06:50:34.871Z</time></trkpt><trkpt lat="38.1054417" lon="15.6598633"><ele>85.0</ele><time>2026-04-09T06:50:35.872Z</time></trkpt><trkpt lat="38.1055233" lon="15.6598783"><ele>85.0</ele><time>2026-04-09T06:50:36.872Z</time></trkpt><trkpt lat="38.1056217" lon="15.6599017"><ele>85.0</ele><time>2026-04-09T06:50:37.872Z</time></trkpt><trkpt lat="38.1057517" lon="15.65993"><ele>85.0</ele><time>2026-04-09T06:50:38.872Z</time></trkpt><trkpt lat="38.1059067" lon="15.65996"><ele>90.66666666666666</ele><time>2026-04-09T06:50:39.872Z</time></trkpt><trkpt lat="38.1060733" lon="15.6599983"><ele>96.33333333333333</ele><time>2026-04-09T06:50:40.871Z</time></trkpt><trkpt lat="38.1062417" lon="15.6600367"><ele>102.0</ele><time>2026-04-09T06:50:41.871Z</time></trkpt><trkpt lat="38.106405" lon="15.66011"><ele>102.0</ele><time>2026-04-09T06:50:42.871Z</time></trkpt><trkpt lat="38.1065633" lon="15.660155"><ele>102.0</ele><time>2026-04-09T06:50:43.871Z</time></trkpt><trkpt lat="38.106725" lon="15.6602067"><ele>102.0</ele><time>2026-04-09T06:50:44.871Z</time></trkpt><trkpt lat="38.107005" lon="15.6603333"><ele>109.66666666666666</ele><time>2026-04-09T06:50:45.871Z</time></trkpt><trkpt lat="38.1071917" lon="15.66041"><ele>117.33333333333333</ele><time>2026-04-09T06:50:46.871Z</time></trkpt><trkpt lat="38.10739" lon="15.6604883"><ele>125.0</ele><time>2026-04-09T06:50:47.872Z</time></trkpt><trkpt lat="38.1075917" lon="15.6605667"><ele>125.0</ele><time>2026-04-09T06:50:48.872Z</time></trkpt><trkpt lat="38.1077933" lon="15.660645"><ele>125.0</ele><time>2026-04-09T06:50:49.871Z</time></trkpt><trkpt lat="38.1079983" lon="15.6607267"><ele>125.0</ele><time>2026-04-09T06:50:50.871Z</time></trkpt><trkpt lat="38.1088833" lon="15.6610883"><ele>120.0</ele><time>2026-04-09T06:50:54.872Z</time></trkpt><trkpt lat="38.1094767" lon="15.6611417"><ele>115.0</ele><time>2026-04-09T06:50:55.872Z</time></trkpt><trkpt lat="38.10997" lon="15.661215"><ele>115.0</ele><time>2026-04-09T06:50:56.872Z</time></trkpt><trkpt lat="38.1102683" lon="15.6612617"><ele>115.0</ele><time>2026-04-09T06:50:57.872Z</time></trkpt><trkpt lat="38.1105433" lon="15.661335"><ele>112.5</ele><time>2026-04-09T06:50:58.871Z</time></trkpt><trkpt lat="38.110815" lon="15.6614233"><ele>110.0</ele><time>2026-04-09T06:50:59.872Z</time></trkpt><trkpt lat="38.1110867" lon="15.6614917"><ele>110.0</ele><time>2026-04-09T06:51:00.872Z</time></trkpt><trkpt lat="38.111355" lon="15.6615767"><ele>110.0</ele><time>2026-04-09T06:51:01.871Z</time></trkpt><trkpt lat="38.1116183" lon="15.66166"><ele>107.5</ele><time>2026-04-09T06:51:02.871Z</time></trkpt><trkpt lat="38.1118883" lon="15.6617433"><ele>105.0</ele><time>2026-04-09T06:51:03.871Z</time></trkpt><trkpt lat="38.1121617" lon="15.6618383"><ele>101.5</ele><time>2026-04-09T06:51:04.872Z</time></trkpt><trkpt lat="38.11243" lon="15.6619283"><ele>98.0</ele><time>2026-04-09T06:51:05.871Z</time></trkpt><trkpt lat="38.1127017" lon="15.6620183"><ele>96.5</ele><time>2026-04-09T06:51:06.872Z</time></trkpt><trkpt lat="38.1129733" lon="15.6621067"><ele>95.0</ele><time>2026-04-09T06:51:07.871Z</time></trkpt><trkpt lat="38.1132433" lon="15.6621867"><ele>94.5</ele><time>2026-04-09T06:51:08.871Z</time></trkpt><trkpt lat="38.11352" lon="15.6622633"><ele>94.0</ele><time>2026-04-09T06:51:09.872Z</time></trkpt><trkpt lat="38.1138033" lon="15.6623317"><ele>93.5</ele><time>2026-04-09T06:51:10.871Z</time></trkpt><trkpt lat="38.11409" lon="15.6623917"><ele>93.0</ele><time>2026-04-09T06:51:11.872Z</time></trkpt><trkpt lat="38.1143817" lon="15.6624467"><ele>93.0</ele><time>2026-04-09T06:51:12.871Z</time></trkpt><trkpt lat="38.1146667" lon="15.6625133"><ele>93.0</ele><time>2026-04-09T06:51:13.872Z</time></trkpt><trkpt lat="38.1149483" lon="15.6625617"><ele>88.5</ele><time>2026-04-09T06:51:14.871Z</time></trkpt><trkpt lat="38.1152217" lon="15.6626167"><ele>84.0</ele><time>2026-04-09T06:51:15.872Z</time></trkpt><trkpt lat="38.115495" lon="15.662675"><ele>85.5</ele><time>2026-04-09T06:51:16.872Z</time></trkpt><trkpt lat="38.1157717" lon="15.662735"><ele>87.0</ele><time>2026-04-09T06:51:17.871Z</time></trkpt><trkpt lat="38.1160467" lon="15.6627817"><ele>89.5</ele><time>2026-04-09T06:51:18.872Z</time></trkpt><trkpt lat="38.1163183" lon="15.6628167"><ele>92.0</ele><time>2026-04-09T06:51:19.871Z</time></trkpt><trkpt lat="38.1165917" lon="15.6628283"><ele>94.5</ele><time>2026-04-09T06:51:20.871Z</time></trkpt><trkpt lat="38.1168617" lon="15.6628217"><ele>97.0</ele><time>2026-04-09T06:51:21.871Z</time></trkpt><trkpt lat="38.1171383" lon="15.6628033"><ele>91.0</ele><time>2026-04-09T06:51:22.871Z</time></trkpt><trkpt lat="38.1174233" lon="15.662775"><ele>85.0</ele><time>2026-04-09T06:51:23.872Z</time></trkpt><trkpt lat="38.117705" lon="15.662745"><ele>85.0</ele><time>2026-04-09T06:51:24.871Z</time></trkpt><trkpt lat="38.1179833" lon="15.6627167"><ele>85.0</ele><time>2026-04-09T06:51:25.871Z</time></trkpt><trkpt lat="38.1182567" lon="15.6626967"><ele>86.0</ele><time>2026-04-09T06:51:26.871Z</time></trkpt><trkpt lat="38.118525" lon="15.6626833"><ele>87.0</ele><time>2026-04-09T06:51:27.871Z</time></trkpt><trkpt lat="38.11879" lon="15.6626867"><ele>86.0</ele><time>2026-04-09T06:51:28.872Z</time></trkpt><trkpt lat="38.11907" lon="15.662705"><ele>85.0</ele><time>2026-04-09T06:51:29.871Z</time></trkpt><trkpt lat="38.1193483" lon="15.66274"><ele>87.5</ele><time>2026-04-09T06:51:30.871Z</time></trkpt><trkpt lat="38.1196267" lon="15.6628033"><ele>90.0</ele><time>2026-04-09T06:51:31.872Z</time></trkpt><trkpt lat="38.1199133" lon="15.6628867"><ele>92.5</ele><time>2026-04-09T06:51:32.871Z</time></trkpt><trkpt lat="38.1201917" lon="15.6630033"><ele>95.0</ele><time>2026-04-09T06:51:33.872Z</time></trkpt><trkpt lat="38.1204667" lon="15.66314"><ele>95.5</ele><time>2026-04-09T06:51:34.872Z</time></trkpt><trkpt lat="38.1207367" lon="15.66328"><ele>96.0</ele><time>2026-04-09T06:51:35.871Z</time></trkpt><trkpt lat="38.12101" lon="15.6634233"><ele>96.0</ele><time>2026-04-09T06:51:36.871Z</time></trkpt><trkpt lat="38.121285" lon="15.6635683"><ele>96.0</ele><time>2026-04-09T06:51:37.871Z</time></trkpt><trkpt lat="38.1215617" lon="15.66371"><ele>86.0</ele><time>2026-04-09T06:51:38.871Z</time></trkpt><trkpt lat="38.1217933" lon="15.6638517"><ele>76.0</ele><time>2026-04-09T06:51:39.872Z</time></trkpt><trkpt lat="38.122085" lon="15.66393"><ele>76.0</ele><time>2026-04-09T06:51:40.871Z</time></trkpt><trkpt lat="38.1223733" lon="15.6639817"><ele>76.0</ele><time>2026-04-09T06:51:41.871Z</time></trkpt><trkpt lat="38.1226667" lon="15.6640067"><ele>68.5</ele><time>2026-04-09T06:51:42.871Z</time></trkpt><trkpt lat="38.122965" lon="15.6639933"><ele>61.0</ele><time>2026-04-09T06:51:43.872Z</time></trkpt><trkpt lat="38.1232567" lon="15.663945"><ele>61.0</ele><time>2026-04-09T06:51:44.871Z</time></trkpt><trkpt lat="38.1235467" lon="15.6638633"><ele>61.0</ele><time>2026-04-09T06:51:45.872Z</time></trkpt><trkpt lat="38.123825" lon="15.6637633"><ele>67.5</ele><time>2026-04-09T06:51:46.871Z</time></trkpt><trkpt lat="38.124095" lon="15.6636383"><ele>74.0</ele><time>2026-04-09T06:51:47.871Z</time></trkpt><trkpt lat="38.124355" lon="15.663475"><ele>74.0</ele><time>2026-04-09T06:51:48.872Z</time></trkpt><trkpt lat="38.1246" lon="15.6632717"><ele>74.0</ele><time>2026-04-09T06:51:49.871Z</time></trkpt><trkpt lat="38.124825" lon="15.6630467"><ele>74.0</ele><time>2026-04-09T06:51:50.871Z</time></trkpt><trkpt lat="38.125035" lon="15.662785"><ele>74.0</ele><time>2026-04-09T06:51:51.872Z</time></trkpt><trkpt lat="38.12523" lon="15.662505"><ele>74.0</ele><time>2026-04-09T06:51:52.872Z</time></trkpt><trkpt lat="38.1254167" lon="15.6622117"><ele>74.0</ele><time>2026-04-09T06:51:53.872Z</time></trkpt><trkpt lat="38.1255933" lon="15.6619083"><ele>78.0</ele><time>2026-04-09T06:51:54.871Z</time></trkpt><trkpt lat="38.1257817" lon="15.66161"><ele>82.0</ele><time>2026-04-09T06:51:55.871Z</time></trkpt><trkpt lat="38.1259833" lon="15.6613267"><ele>77.0</ele><time>2026-04-09T06:51:56.872Z</time></trkpt><trkpt lat="38.126205" lon="15.66107"><ele>72.0</ele><time>2026-04-09T06:51:57.872Z</time></trkpt><trkpt lat="38.126435" lon="15.6608383"><ele>75.0</ele><time>2026-04-09T06:51:58.871Z</time></trkpt><trkpt lat="38.1266717" lon="15.6606283"><ele>78.0</ele><time>2026-04-09T06:51:59.872Z</time></trkpt><trkpt lat="38.1269183" lon="15.66045"><ele>78.0</ele><time>2026-04-09T06:52:00.871Z</time></trkpt><trkpt lat="38.1271733" lon="15.6602833"><ele>78.0</ele><time>2026-04-09T06:52:01.871Z</time></trkpt><trkpt lat="38.1274217" lon="15.6601217"><ele>80.0</ele><time>2026-04-09T06:52:02.871Z</time></trkpt><trkpt lat="38.12765" lon="15.6599667"><ele>82.0</ele><time>2026-04-09T06:52:03.871Z</time></trkpt><trkpt lat="38.12787" lon="15.6598283"><ele>82.0</ele><time>2026-04-09T06:52:04.872Z</time></trkpt><trkpt lat="38.1280717" lon="15.6597083"><ele>82.0</ele><time>2026-04-09T06:52:05.871Z</time></trkpt><trkpt lat="38.1282433" lon="15.6595883"><ele>82.0</ele><time>2026-04-09T06:52:06.872Z</time></trkpt><trkpt lat="38.1283967" lon="15.6594733"><ele>80.5</ele><time>2026-04-09T06:52:07.872Z</time></trkpt><trkpt lat="38.12852" lon="15.659385"><ele>79.0</ele><time>2026-04-09T06:52:08.872Z</time></trkpt><trkpt lat="38.1286267" lon="15.6593217"><ele>77.5</ele><time>2026-04-09T06:52:09.872Z</time></trkpt><trkpt lat="38.1287283" lon="15.659255"><ele>76.0</ele><time>2026-04-09T06:52:10.872Z</time></trkpt><trkpt lat="38.1288367" lon="15.65918"><ele>76.0</ele><time>2026-04-09T06:52:11.871Z</time></trkpt><trkpt lat="38.128965" lon="15.659105"><ele>76.0</ele><time>2026-04-09T06:52:12.872Z</time></trkpt><trkpt lat="38.129095" lon="15.6590217"><ele>76.0</ele><time>2026-04-09T06:52:13.872Z</time></trkpt><trkpt lat="38.1292433" lon="15.658925"><ele>77.66666666666666</ele><time>2026-04-09T06:52:14.872Z</time></trkpt><trkpt lat="38.1294033" lon="15.6588133"><ele>79.33333333333333</ele><time>2026-04-09T06:52:15.872Z</time></trkpt><trkpt lat="38.1295833" lon="15.6587033"><ele>81.0</ele><time>2026-04-09T06:52:16.872Z</time></trkpt><trkpt lat="38.12977" lon="15.6585783"><ele>77.0</ele><time>2026-04-09T06:52:17.872Z</time></trkpt><trkpt lat="38.1299717" lon="15.6584383"><ele>73.0</ele><time>2026-04-09T06:52:18.871Z</time></trkpt><trkpt lat="38.130185" lon="15.6583033"><ele>73.0</ele><time>2026-04-09T06:52:19.871Z</time></trkpt><trkpt lat="38.1303967" lon="15.658195"><ele>73.0</ele><time>2026-04-09T06:52:20.872Z</time></trkpt><trkpt lat="38.130605" lon="15.658095"><ele>73.66666666666666</ele><time>2026-04-09T06:52:21.872Z</time></trkpt><trkpt lat="38.1308183" lon="15.6580167"><ele>74.33333333333333</ele><time>2026-04-09T06:52:22.872Z</time></trkpt><trkpt lat="38.13104" lon="15.6579583"><ele>75.0</ele><time>2026-04-09T06:52:23.871Z</time></trkpt><trkpt lat="38.1312667" lon="15.6579217"><ele>75.0</ele><time>2026-04-09T06:52:24.872Z</time></trkpt><trkpt lat="38.1314733" lon="15.6579117"><ele>75.0</ele><time>2026-04-09T06:52:25.872Z</time></trkpt><trkpt lat="38.1316767" lon="15.6579183"><ele>75.0</ele><time>2026-04-09T06:52:26.872Z</time></trkpt><trkpt lat="38.1318833" lon="15.657925"><ele>74.66666666666667</ele><time>2026-04-09T06:52:27.871Z</time></trkpt><trkpt lat="38.1320667" lon="15.6579433"><ele>74.33333333333334</ele><time>2026-04-09T06:52:28.871Z</time></trkpt><trkpt lat="38.1322383" lon="15.6579367"><ele>74.0</ele><time>2026-04-09T06:52:29.872Z</time></trkpt><trkpt lat="38.1324133" lon="15.65795"><ele>71.33333333333334</ele><time>2026-04-09T06:52:30.872Z</time></trkpt><trkpt lat="38.1325817" lon="15.6579617"><ele>68.66666666666667</ele><time>2026-04-09T06:52:31.872Z</time></trkpt><trkpt lat="38.1327383" lon="15.6579733"><ele>66.0</ele><time>2026-04-09T06:52:32.871Z</time></trkpt><trkpt lat="38.132905" lon="15.6579983"><ele>66.0</ele><time>2026-04-09T06:52:33.872Z</time></trkpt><trkpt lat="38.1330767" lon="15.6580417"><ele>66.0</ele><time>2026-04-09T06:52:34.872Z</time></trkpt><trkpt lat="38.1332467" lon="15.6580983"><ele>66.0</ele><time>2026-04-09T06:52:35.872Z</time></trkpt><trkpt lat="38.1334067" lon="15.6581617"><ele>64.0</ele><time>2026-04-09T06:52:36.871Z</time></trkpt><trkpt lat="38.1335767" lon="15.6582333"><ele>62.0</ele><time>2026-04-09T06:52:37.871Z</time></trkpt><trkpt lat="38.13376" lon="15.6583183"><ele>60.0</ele><time>2026-04-09T06:52:38.871Z</time></trkpt><trkpt lat="38.1339583" lon="15.6584183"><ele>51.5</ele><time>2026-04-09T06:52:39.872Z</time></trkpt><trkpt lat="38.1341683" lon="15.6585317"><ele>43.0</ele><time>2026-04-09T06:52:40.872Z</time></trkpt><trkpt lat="38.1343883" lon="15.6586567"><ele>43.0</ele><time>2026-04-09T06:52:41.871Z</time></trkpt><trkpt lat="38.1346117" lon="15.6587833"><ele>43.0</ele><time>2026-04-09T06:52:42.872Z</time></trkpt><trkpt lat="38.1348383" lon="15.65891"><ele>46.5</ele><time>2026-04-09T06:52:43.871Z</time></trkpt><trkpt lat="38.13506" lon="15.65904"><ele>50.0</ele><time>2026-04-09T06:52:44.872Z</time></trkpt><trkpt lat="38.1352733" lon="15.6591583"><ele>50.0</ele><time>2026-04-09T06:52:45.871Z</time></trkpt><trkpt lat="38.1354783" lon="15.6592817"><ele>50.0</ele><time>2026-04-09T06:52:46.871Z</time></trkpt><trkpt lat="38.1356833" lon="15.6594"><ele>65.66666666666667</ele><time>2026-04-09T06:52:47.871Z</time></trkpt><trkpt lat="38.1358783" lon="15.6595117"><ele>81.33333333333334</ele><time>2026-04-09T06:52:48.871Z</time></trkpt><trkpt lat="38.136075" lon="15.659635"><ele>97.0</ele><time>2026-04-09T06:52:49.871Z</time></trkpt><trkpt lat="38.1362667" lon="15.6597583"><ele>97.0</ele><time>2026-04-09T06:52:50.872Z</time></trkpt><trkpt lat="38.13646" lon="15.659875"><ele>97.0</ele><time>2026-04-09T06:52:51.872Z</time></trkpt><trkpt lat="38.136685" lon="15.6600017"><ele>82.5</ele><time>2026-04-09T06:52:52.871Z</time></trkpt><trkpt lat="38.1368967" lon="15.660105"><ele>68.0</ele><time>2026-04-09T06:52:53.871Z</time></trkpt><trkpt lat="38.1371333" lon="15.6601667"><ele>68.0</ele><time>2026-04-09T06:52:54.871Z</time></trkpt><trkpt lat="38.1373483" lon="15.66027"><ele>68.0</ele><time>2026-04-09T06:52:55.871Z</time></trkpt><trkpt lat="38.1375533" lon="15.6603883"><ele>73.5</ele><time>2026-04-09T06:52:56.871Z</time></trkpt><trkpt lat="38.1378033" lon="15.6605083"><ele>79.0</ele><time>2026-04-09T06:52:57.872Z</time></trkpt><trkpt lat="38.13805" lon="15.6606383"><ele>72.5</ele><time>2026-04-09T06:52:58.871Z</time></trkpt><trkpt lat="38.1382833" lon="15.6607667"><ele>66.0</ele><time>2026-04-09T06:52:59.872Z</time></trkpt><trkpt lat="38.1385017" lon="15.6608917"><ele>66.0</ele><time>2026-04-09T06:53:00.872Z</time></trkpt><trkpt lat="38.1387233" lon="15.661005"><ele>66.0</ele><time>2026-04-09T06:53:01.872Z</time></trkpt><trkpt lat="38.1389533" lon="15.6611283"><ele>68.0</ele><time>2026-04-09T06:53:02.871Z</time></trkpt><trkpt lat="38.1391983" lon="15.6612667"><ele>70.0</ele><time>2026-04-09T06:53:03.871Z</time></trkpt><trkpt lat="38.1394433" lon="15.661405"><ele>70.0</ele><time>2026-04-09T06:53:04.872Z</time></trkpt><trkpt lat="38.1396833" lon="15.6615483"><ele>70.0</ele><time>2026-04-09T06:53:05.871Z</time></trkpt><trkpt lat="38.13993" lon="15.6616817"><ele>72.0</ele><time>2026-04-09T06:53:06.872Z</time></trkpt><trkpt lat="38.1401667" lon="15.6618017"><ele>74.0</ele><time>2026-04-09T06:53:07.871Z</time></trkpt><trkpt lat="38.1404017" lon="15.6619267"><ele>74.5</ele><time>2026-04-09T06:53:08.872Z</time></trkpt><trkpt lat="38.1406617" lon="15.66207"><ele>75.0</ele><time>2026-04-09T06:53:09.872Z</time></trkpt><trkpt lat="38.140905" lon="15.66223"><ele>75.0</ele><time>2026-04-09T06:53:10.872Z</time></trkpt><trkpt lat="38.1411317" lon="15.6623933"><ele>75.0</ele><time>2026-04-09T06:53:11.872Z</time></trkpt><trkpt lat="38.1413567" lon="15.6625783"><ele>74.0</ele><time>2026-04-09T06:53:12.872Z</time></trkpt><trkpt lat="38.1415917" lon="15.6627733"><ele>73.0</ele><time>2026-04-09T06:53:13.871Z</time></trkpt><trkpt lat="38.1418067" lon="15.6629717"><ele>78.5</ele><time>2026-04-09T06:53:14.872Z</time></trkpt><trkpt lat="38.14202" lon="15.6631767"><ele>84.0</ele><time>2026-04-09T06:53:15.872Z</time></trkpt><trkpt lat="38.1422267" lon="15.663385"><ele>82.0</ele><time>2026-04-09T06:53:16.872Z</time></trkpt><trkpt lat="38.14242" lon="15.6636133"><ele>80.0</ele><time>2026-04-09T06:53:17.872Z</time></trkpt><trkpt lat="38.1426133" lon="15.6638583"><ele>80.0</ele><time>2026-04-09T06:53:18.872Z</time></trkpt><trkpt lat="38.1427983" lon="15.66413"><ele>80.0</ele><time>2026-04-09T06:53:19.871Z</time></trkpt><trkpt lat="38.1429817" lon="15.664405"><ele>78.0</ele><time>2026-04-09T06:53:20.871Z</time></trkpt><trkpt lat="38.1431633" lon="15.6647083"><ele>76.0</ele><time>2026-04-09T06:53:21.871Z</time></trkpt><trkpt lat="38.1433367" lon="15.6650217"><ele>68.0</ele><time>2026-04-09T06:53:22.872Z</time></trkpt><trkpt lat="38.1435133" lon="15.6653533"><ele>60.0</ele><time>2026-04-09T06:53:23.871Z</time></trkpt><trkpt lat="38.1437017" lon="15.6656833"><ele>60.0</ele><time>2026-04-09T06:53:24.872Z</time></trkpt><trkpt lat="38.14389" lon="15.6660067"><ele>60.0</ele><time>2026-04-09T06:53:25.871Z</time></trkpt><trkpt lat="38.1440767" lon="15.6663183"><ele>64.5</ele><time>2026-04-09T06:53:26.871Z</time></trkpt><trkpt lat="38.1442667" lon="15.6666033"><ele>69.0</ele><time>2026-04-09T06:53:27.871Z</time></trkpt><trkpt lat="38.1444717" lon="15.6668733"><ele>68.0</ele><time>2026-04-09T06:53:28.871Z</time></trkpt><trkpt lat="38.14469" lon="15.6671133"><ele>67.0</ele><time>2026-04-09T06:53:29.872Z</time></trkpt><trkpt lat="38.1449283" lon="15.6673183"><ele>77.5</ele><time>2026-04-09T06:53:30.871Z</time></trkpt><trkpt lat="38.14519" lon="15.6675"><ele>88.0</ele><time>2026-04-09T06:53:31.871Z</time></trkpt><trkpt lat="38.1454583" lon="15.667645"><ele>101.0</ele><time>2026-04-09T06:53:32.871Z</time></trkpt><trkpt lat="38.1457167" lon="15.6677817"><ele>114.0</ele><time>2026-04-09T06:53:33.871Z</time></trkpt><trkpt lat="38.14597" lon="15.6679083"><ele>114.0</ele><time>2026-04-09T06:53:34.872Z</time></trkpt><trkpt lat="38.1462283" lon="15.66804"><ele>114.0</ele><time>2026-04-09T06:53:35.872Z</time></trkpt><trkpt lat="38.1464783" lon="15.6681583"><ele>111.5</ele><time>2026-04-09T06:53:36.871Z</time></trkpt><trkpt lat="38.1467333" lon="15.668285"><ele>109.0</ele><time>2026-04-09T06:53:37.871Z</time></trkpt><trkpt lat="38.1472217" lon="15.66837"><ele>103.5</ele><time>2026-04-09T06:53:39.871Z</time></trkpt><trkpt lat="38.1474767" lon="15.6682867"><ele>98.0</ele><time>2026-04-09T06:53:40.871Z</time></trkpt><trkpt lat="38.1477683" lon="15.6682717"><ele>98.0</ele><time>2026-04-09T06:53:41.87Z</time></trkpt><trkpt lat="38.14809" lon="15.6682533"><ele>98.0</ele><time>2026-04-09T06:53:42.871Z</time></trkpt><trkpt lat="38.1484267" lon="15.6682533"><ele>94.5</ele><time>2026-04-09T06:53:43.87Z</time></trkpt><trkpt lat="38.148775" lon="15.668245"><ele>91.0</ele><time>2026-04-09T06:53:44.871Z</time></trkpt><trkpt lat="38.1490983" lon="15.668265"><ele>88.0</ele><time>2026-04-09T06:53:45.87Z</time></trkpt><trkpt lat="38.14942" lon="15.6683067"><ele>85.0</ele><time>2026-04-09T06:53:46.87Z</time></trkpt><trkpt lat="38.149745" lon="15.6683383"><ele>80.0</ele><time>2026-04-09T06:53:47.871Z</time></trkpt><trkpt lat="38.150065" lon="15.6683733"><ele>75.0</ele><time>2026-04-09T06:53:48.87Z</time></trkpt><trkpt lat="38.15039" lon="15.6683917"><ele>76.0</ele><time>2026-04-09T06:53:49.871Z</time></trkpt><trkpt lat="38.1507133" lon="15.668395"><ele>77.0</ele><time>2026-04-09T06:53:50.871Z</time></trkpt><trkpt lat="38.1510467" lon="15.6683883"><ele>77.0</ele><time>2026-04-09T06:53:51.87Z</time></trkpt><trkpt lat="38.1513733" lon="15.66836"><ele>77.0</ele><time>2026-04-09T06:53:52.87Z</time></trkpt><trkpt lat="38.1517033" lon="15.6683167"><ele>77.0</ele><time>2026-04-09T06:53:53.87Z</time></trkpt><trkpt lat="38.1520383" lon="15.6682567"><ele>77.0</ele><time>2026-04-09T06:53:54.87Z</time></trkpt><trkpt lat="38.1523667" lon="15.6681867"><ele>77.5</ele><time>2026-04-09T06:53:55.871Z</time></trkpt><trkpt lat="38.1526933" lon="15.6681017"><ele>78.0</ele><time>2026-04-09T06:53:56.87Z</time></trkpt><trkpt lat="38.1530267" lon="15.6679967"><ele>78.0</ele><time>2026-04-09T06:53:57.871Z</time></trkpt><trkpt lat="38.153355" lon="15.667885"><ele>78.0</ele><time>2026-04-09T06:53:58.871Z</time></trkpt><trkpt lat="38.1536867" lon="15.6677783"><ele>71.0</ele><time>2026-04-09T06:53:59.871Z</time></trkpt><trkpt lat="38.154015" lon="15.6676717"><ele>64.0</ele><time>2026-04-09T06:54:00.871Z</time></trkpt><trkpt lat="38.1543483" lon="15.6675667"><ele>63.5</ele><time>2026-04-09T06:54:01.87Z</time></trkpt><trkpt lat="38.154675" lon="15.6674567"><ele>63.0</ele><time>2026-04-09T06:54:02.87Z</time></trkpt><trkpt lat="38.1549983" lon="15.66735"><ele>64.0</ele><time>2026-04-09T06:54:03.871Z</time></trkpt><trkpt lat="38.1553283" lon="15.6672417"><ele>65.0</ele><time>2026-04-09T06:54:04.87Z</time></trkpt><trkpt lat="38.1556467" lon="15.6671317"><ele>63.0</ele><time>2026-04-09T06:54:05.87Z</time></trkpt><trkpt lat="38.1559717" lon="15.66702"><ele>61.0</ele><time>2026-04-09T06:54:06.87Z</time></trkpt><trkpt lat="38.1562933" lon="15.66692"><ele>59.5</ele><time>2026-04-09T06:54:07.871Z</time></trkpt><trkpt lat="38.15661" lon="15.66682"><ele>58.0</ele><time>2026-04-09T06:54:08.871Z</time></trkpt><trkpt lat="38.1569183" lon="15.6667"><ele>58.0</ele><time>2026-04-09T06:54:09.87Z</time></trkpt><trkpt lat="38.15722" lon="15.6665733"><ele>58.0</ele><time>2026-04-09T06:54:10.87Z</time></trkpt><trkpt lat="38.15752" lon="15.6664317"><ele>58.5</ele><time>2026-04-09T06:54:11.87Z</time></trkpt><trkpt lat="38.157815" lon="15.6662733"><ele>59.0</ele><time>2026-04-09T06:54:12.87Z</time></trkpt><trkpt lat="38.1581067" lon="15.6661017"><ele>57.0</ele><time>2026-04-09T06:54:13.871Z</time></trkpt><trkpt lat="38.1583967" lon="15.665915"><ele>55.0</ele><time>2026-04-09T06:54:14.87Z</time></trkpt><trkpt lat="38.158675" lon="15.6656983"><ele>55.0</ele><time>2026-04-09T06:54:15.871Z</time></trkpt><trkpt lat="38.15895" lon="15.6654667"><ele>55.0</ele><time>2026-04-09T06:54:16.871Z</time></trkpt><trkpt lat="38.159215" lon="15.66521"><ele>53.5</ele><time>2026-04-09T06:54:17.87Z</time></trkpt><trkpt lat="38.159475" lon="15.664955"><ele>52.0</ele><time>2026-04-09T06:54:18.871Z</time></trkpt><trkpt lat="38.15975" lon="15.6647033"><ele>53.0</ele><time>2026-04-09T06:54:19.871Z</time></trkpt><trkpt lat="38.160015" lon="15.6644583"><ele>54.0</ele><time>2026-04-09T06:54:20.871Z</time></trkpt><trkpt lat="38.1602933" lon="15.664205"><ele>54.0</ele><time>2026-04-09T06:54:21.87Z</time></trkpt><trkpt lat="38.16058" lon="15.6639533"><ele>54.0</ele><time>2026-04-09T06:54:22.871Z</time></trkpt><trkpt lat="38.1608333" lon="15.6636883"><ele>52.5</ele><time>2026-04-09T06:54:23.87Z</time></trkpt><trkpt lat="38.1611083" lon="15.6634233"><ele>51.0</ele><time>2026-04-09T06:54:24.871Z</time></trkpt><trkpt lat="38.161385" lon="15.6631583"><ele>52.5</ele><time>2026-04-09T06:54:25.87Z</time></trkpt><trkpt lat="38.1616633" lon="15.662895"><ele>54.0</ele><time>2026-04-09T06:54:26.87Z</time></trkpt><trkpt lat="38.1619417" lon="15.662625"><ele>52.5</ele><time>2026-04-09T06:54:27.87Z</time></trkpt><trkpt lat="38.1622117" lon="15.6623617"><ele>51.0</ele><time>2026-04-09T06:54:28.87Z</time></trkpt><trkpt lat="38.16249" lon="15.6620817"><ele>47.0</ele><time>2026-04-09T06:54:29.871Z</time></trkpt><trkpt lat="38.1627617" lon="15.6618017"><ele>43.0</ele><time>2026-04-09T06:54:30.87Z</time></trkpt><trkpt lat="38.1630317" lon="15.6615183"><ele>44.5</ele><time>2026-04-09T06:54:31.871Z</time></trkpt><trkpt lat="38.1633117" lon="15.6612567"><ele>46.0</ele><time>2026-04-09T06:54:32.871Z</time></trkpt><trkpt lat="38.1635883" lon="15.6609967"><ele>42.5</ele><time>2026-04-09T06:54:33.87Z</time></trkpt><trkpt lat="38.1638567" lon="15.6607383"><ele>39.0</ele><time>2026-04-09T06:54:34.87Z</time></trkpt><trkpt lat="38.164125" lon="15.6604933"><ele>35.0</ele><time>2026-04-09T06:54:35.871Z</time></trkpt><trkpt lat="38.1643917" lon="15.6602383"><ele>31.0</ele><time>2026-04-09T06:54:36.871Z</time></trkpt><trkpt lat="38.1646567" lon="15.6599833"><ele>32.0</ele><time>2026-04-09T06:54:37.871Z</time></trkpt><trkpt lat="38.1649217" lon="15.659725"><ele>33.0</ele><time>2026-04-09T06:54:38.87Z</time></trkpt><trkpt lat="38.16519" lon="15.6594783"><ele>32.5</ele><time>2026-04-09T06:54:39.87Z</time></trkpt><trkpt lat="38.1654567" lon="15.65922"><ele>32.0</ele><time>2026-04-09T06:54:40.87Z</time></trkpt><trkpt lat="38.1657283" lon="15.6589567"><ele>32.0</ele><time>2026-04-09T06:54:41.87Z</time></trkpt><trkpt lat="38.165995" lon="15.6586983"><ele>32.0</ele><time>2026-04-09T06:54:42.87Z</time></trkpt><trkpt lat="38.1662583" lon="15.6584467"><ele>31.5</ele><time>2026-04-09T06:54:43.87Z</time></trkpt><trkpt lat="38.1665217" lon="15.6581917"><ele>31.0</ele><time>2026-04-09T06:54:44.87Z</time></trkpt><trkpt lat="38.166785" lon="15.657945"><ele>29.5</ele><time>2026-04-09T06:54:45.871Z</time></trkpt><trkpt lat="38.167045" lon="15.6576967"><ele>28.0</ele><time>2026-04-09T06:54:46.87Z</time></trkpt><trkpt lat="38.1673117" lon="15.65746"><ele>29.5</ele><time>2026-04-09T06:54:47.87Z</time></trkpt><trkpt lat="38.1675867" lon="15.6572183"><ele>31.0</ele><time>2026-04-09T06:54:48.87Z</time></trkpt><trkpt lat="38.1678733" lon="15.6569783"><ele>31.5</ele><time>2026-04-09T06:54:49.87Z</time></trkpt><trkpt lat="38.1681667" lon="15.6567583"><ele>32.0</ele><time>2026-04-09T06:54:50.871Z</time></trkpt><trkpt lat="38.1684617" lon="15.6565483"><ele>32.0</ele><time>2026-04-09T06:54:51.871Z</time></trkpt><trkpt lat="38.1687617" lon="15.6563567"><ele>32.0</ele><time>2026-04-09T06:54:52.87Z</time></trkpt><trkpt lat="38.169065" lon="15.65617"><ele>31.5</ele><time>2026-04-09T06:54:53.871Z</time></trkpt><trkpt lat="38.1693617" lon="15.6560033"><ele>31.0</ele><time>2026-04-09T06:54:54.87Z</time></trkpt><trkpt lat="38.16965" lon="15.6558483"><ele>33.0</ele><time>2026-04-09T06:54:55.871Z</time></trkpt><trkpt lat="38.16992" lon="15.655705"><ele>35.0</ele><time>2026-04-09T06:54:56.87Z</time></trkpt><trkpt lat="38.1701833" lon="15.6555733"><ele>35.0</ele><time>2026-04-09T06:54:57.871Z</time></trkpt><trkpt lat="38.1704333" lon="15.6554567"><ele>35.0</ele><time>2026-04-09T06:54:58.87Z</time></trkpt><trkpt lat="38.1706783" lon="15.6553417"><ele>33.5</ele><time>2026-04-09T06:54:59.871Z</time></trkpt><trkpt lat="38.1709167" lon="15.6552317"><ele>32.0</ele><time>2026-04-09T06:55:00.87Z</time></trkpt><trkpt lat="38.171145" lon="15.655135"><ele>32.0</ele><time>2026-04-09T06:55:01.871Z</time></trkpt><trkpt lat="38.1713617" lon="15.6550567"><ele>32.0</ele><time>2026-04-09T06:55:02.87Z</time></trkpt><trkpt lat="38.171565" lon="15.6549833"><ele>32.0</ele><time>2026-04-09T06:55:03.871Z</time></trkpt><trkpt lat="38.1717483" lon="15.6549167"><ele>32.666666666666664</ele><time>2026-04-09T06:55:04.87Z</time></trkpt><trkpt lat="38.1719117" lon="15.6548417"><ele>33.333333333333336</ele><time>2026-04-09T06:55:05.871Z</time></trkpt><trkpt lat="38.1720617" lon="15.6547767"><ele>34.0</ele><time>2026-04-09T06:55:06.871Z</time></trkpt><trkpt lat="38.1721883" lon="15.6547183"><ele>34.0</ele><time>2026-04-09T06:55:07.871Z</time></trkpt><trkpt lat="38.1723" lon="15.65467"><ele>34.0</ele><time>2026-04-09T06:55:08.87Z</time></trkpt><trkpt lat="38.1724117" lon="15.6546367"><ele>34.0</ele><time>2026-04-09T06:55:09.871Z</time></trkpt><trkpt lat="38.1725167" lon="15.6546267"><ele>34.0</ele><time>2026-04-09T06:55:10.87Z</time></trkpt><trkpt lat="38.1725967" lon="15.6546617"><ele>34.0</ele><time>2026-04-09T06:55:11.87Z</time></trkpt><trkpt lat="38.1726683" lon="15.65473"><ele>34.25</ele><time>2026-04-09T06:55:12.871Z</time></trkpt><trkpt lat="38.1727217" lon="15.6548467"><ele>34.5</ele><time>2026-04-09T06:55:13.871Z</time></trkpt><trkpt lat="38.1727717" lon="15.65498"><ele>34.75</ele><time>2026-04-09T06:55:14.871Z</time></trkpt><trkpt lat="38.1728417" lon="15.6551"><ele>35.0</ele><time>2026-04-09T06:55:15.87Z</time></trkpt><trkpt lat="38.1729367" lon="15.655185"><ele>35.0</ele><time>2026-04-09T06:55:16.871Z</time></trkpt><trkpt lat="38.1730417" lon="15.6552217"><ele>35.0</ele><time>2026-04-09T06:55:17.871Z</time></trkpt><trkpt lat="38.1731633" lon="15.65521"><ele>35.0</ele><time>2026-04-09T06:55:18.87Z</time></trkpt><trkpt lat="38.1732967" lon="15.6551517"><ele>35.0</ele><time>2026-04-09T06:55:19.87Z</time></trkpt><trkpt lat="38.1734333" lon="15.6550617"><ele>34.666666666666664</ele><time>2026-04-09T06:55:20.871Z</time></trkpt><trkpt lat="38.1736033" lon="15.654955"><ele>34.333333333333336</ele><time>2026-04-09T06:55:21.87Z</time></trkpt><trkpt lat="38.1737983" lon="15.654835"><ele>34.0</ele><time>2026-04-09T06:55:22.871Z</time></trkpt><trkpt lat="38.17398" lon="15.6547217"><ele>34.66666666666667</ele><time>2026-04-09T06:55:23.871Z</time></trkpt><trkpt lat="38.17412" lon="15.6545917"><ele>35.333333333333336</ele><time>2026-04-09T06:55:24.87Z</time></trkpt><trkpt lat="38.1742283" lon="15.6544317"><ele>36.0</ele><time>2026-04-09T06:55:25.87Z</time></trkpt><trkpt lat="38.1742983" lon="15.654235"><ele>35.666666666666664</ele><time>2026-04-09T06:55:26.87Z</time></trkpt><trkpt lat="38.1743267" lon="15.6539967"><ele>35.33333333333333</ele><time>2026-04-09T06:55:27.871Z</time></trkpt><trkpt lat="38.1743133" lon="15.653755"><ele>35.0</ele><time>2026-04-09T06:55:28.871Z</time></trkpt><trkpt lat="38.174275" lon="15.653535"><ele>35.0</ele><time>2026-04-09T06:55:29.871Z</time></trkpt><trkpt lat="38.1741817" lon="15.65335"><ele>35.0</ele><time>2026-04-09T06:55:30.871Z</time></trkpt><trkpt lat="38.174035" lon="15.6532"><ele>35.0</ele><time>2026-04-09T06:55:31.87Z</time></trkpt><trkpt lat="38.17386" lon="15.6530983"><ele>33.666666666666664</ele><time>2026-04-09T06:55:32.871Z</time></trkpt><trkpt lat="38.1736633" lon="15.653055"><ele>32.333333333333336</ele><time>2026-04-09T06:55:33.87Z</time></trkpt><trkpt lat="38.17345" lon="15.653075"><ele>31.0</ele><time>2026-04-09T06:55:34.871Z</time></trkpt><trkpt lat="38.1732267" lon="15.65313"><ele>31.0</ele><time>2026-04-09T06:55:35.871Z</time></trkpt><trkpt lat="38.1730317" lon="15.6531983"><ele>31.0</ele><time>2026-04-09T06:55:36.87Z</time></trkpt><trkpt lat="38.1728583" lon="15.653255"><ele>31.0</ele><time>2026-04-09T06:55:37.871Z</time></trkpt><trkpt lat="38.1727117" lon="15.653295"><ele>31.0</ele><time>2026-04-09T06:55:38.87Z</time></trkpt><trkpt lat="38.1725783" lon="15.65333"><ele>31.0</ele><time>2026-04-09T06:55:39.87Z</time></trkpt><trkpt lat="38.17245" lon="15.6533483"><ele>31.0</ele><time>2026-04-09T06:55:40.871Z</time></trkpt><trkpt lat="38.1723267" lon="15.65334"><ele>31.0</ele><time>2026-04-09T06:55:41.871Z</time></trkpt><trkpt lat="38.1722217" lon="15.6533117"><ele>30.6</ele><time>2026-04-09T06:55:42.871Z</time></trkpt><trkpt lat="38.1721217" lon="15.6532683"><ele>30.200000000000003</ele><time>2026-04-09T06:55:43.871Z</time></trkpt><trkpt lat="38.1720283" lon="15.6532067"><ele>29.799999999999997</ele><time>2026-04-09T06:55:44.871Z</time></trkpt><trkpt lat="38.17194" lon="15.6531317"><ele>29.4</ele><time>2026-04-09T06:55:45.87Z</time></trkpt><trkpt lat="38.1718667" lon="15.6530383"><ele>29.0</ele><time>2026-04-09T06:55:46.871Z</time></trkpt><trkpt lat="38.1718083" lon="15.6529317"><ele>29.0</ele><time>2026-04-09T06:55:47.87Z</time></trkpt><trkpt lat="38.1717633" lon="15.65281"><ele>29.0</ele><time>2026-04-09T06:55:48.871Z</time></trkpt><trkpt lat="38.1717233" lon="15.6526617"><ele>29.0</ele><time>2026-04-09T06:55:49.87Z</time></trkpt><trkpt lat="38.1716817" lon="15.65251"><ele>29.0</ele><time>2026-04-09T06:55:50.871Z</time></trkpt><trkpt lat="38.17163" lon="15.6523683"><ele>28.75</ele><time>2026-04-09T06:55:51.871Z</time></trkpt><trkpt lat="38.1715617" lon="15.6522383"><ele>28.5</ele><time>2026-04-09T06:55:52.871Z</time></trkpt><trkpt lat="38.1714917" lon="15.6521167"><ele>28.25</ele><time>2026-04-09T06:55:53.87Z</time></trkpt><trkpt lat="38.17141" lon="15.652"><ele>28.0</ele><time>2026-04-09T06:55:54.871Z</time></trkpt><trkpt lat="38.1713317" lon="15.65188"><ele>27.500000000000004</ele><time>2026-04-09T06:55:55.871Z</time></trkpt><trkpt lat="38.1712617" lon="15.6517683"><ele>27.0</ele><time>2026-04-09T06:55:56.871Z</time></trkpt><trkpt lat="38.1711983" lon="15.6516833"><ele>26.5</ele><time>2026-04-09T06:55:57.87Z</time></trkpt><trkpt lat="38.1711467" lon="15.651615"><ele>26.0</ele><time>2026-04-09T06:55:58.87Z</time></trkpt><trkpt lat="38.1710983" lon="15.6515467"><ele>25.500000000000004</ele><time>2026-04-09T06:55:59.872Z</time></trkpt><trkpt lat="38.1710317" lon="15.6514633"><ele>25.0</ele><time>2026-04-09T06:56:00.871Z</time></trkpt><trkpt lat="38.17096" lon="15.6513717"><ele>25.000000000000004</ele><time>2026-04-09T06:56:01.872Z</time></trkpt><trkpt lat="38.1708733" lon="15.6512917"><ele>25.0</ele><time>2026-04-09T06:56:02.872Z</time></trkpt><trkpt lat="38.17079" lon="15.6512533"><ele>25.0</ele><time>2026-04-09T06:56:03.872Z</time></trkpt><trkpt lat="38.1707267" lon="15.6512483"><ele>25.0</ele><time>2026-04-09T06:56:04.871Z</time></trkpt><trkpt lat="38.1706617" lon="15.6512717"><ele>25.000000000000004</ele><time>2026-04-09T06:56:05.872Z</time></trkpt><trkpt lat="38.170595" lon="15.65131"><ele>25.0</ele><time>2026-04-09T06:56:06.871Z</time></trkpt><trkpt lat="38.170535" lon="15.651365"><ele>24.666666666666668</ele><time>2026-04-09T06:56:07.871Z</time></trkpt><trkpt lat="38.1704817" lon="15.6514333"><ele>24.333333333333336</ele><time>2026-04-09T06:56:08.872Z</time></trkpt><trkpt lat="38.1704517" lon="15.65151"><ele>24.0</ele><time>2026-04-09T06:56:09.871Z</time></trkpt><trkpt lat="38.1704383" lon="15.6516"><ele>23.666666666666668</ele><time>2026-04-09T06:56:10.871Z</time></trkpt><trkpt lat="38.1704467" lon="15.6517"><ele>23.333333333333336</ele><time>2026-04-09T06:56:11.871Z</time></trkpt><trkpt lat="38.1704783" lon="15.6517967"><ele>23.0</ele><time>2026-04-09T06:56:12.872Z</time></trkpt><trkpt lat="38.1705117" lon="15.6518833"><ele>23.333333333333336</ele><time>2026-04-09T06:56:13.871Z</time></trkpt><trkpt lat="38.1705467" lon="15.6519667"><ele>23.666666666666668</ele><time>2026-04-09T06:56:14.871Z</time></trkpt><trkpt lat="38.1705767" lon="15.6520483"><ele>24.0</ele><time>2026-04-09T06:56:15.872Z</time></trkpt><trkpt lat="38.1706117" lon="15.6521433"><ele>24.333333333333336</ele><time>2026-04-09T06:56:16.872Z</time></trkpt><trkpt lat="38.17064" lon="15.6522383"><ele>24.666666666666668</ele><time>2026-04-09T06:56:17.872Z</time></trkpt><trkpt lat="38.1706667" lon="15.652365"><ele>25.0</ele><time>2026-04-09T06:56:18.871Z</time></trkpt><trkpt lat="38.1706733" lon="15.652525"><ele>25.0</ele><time>2026-04-09T06:56:19.871Z</time></trkpt><trkpt lat="38.17067" lon="15.652705"><ele>25.0</ele><time>2026-04-09T06:56:20.871Z</time></trkpt><trkpt lat="38.170675" lon="15.6529067"><ele>25.0</ele><time>2026-04-09T06:56:21.871Z</time></trkpt><trkpt lat="38.1706967" lon="15.6531283"><ele>26.0</ele><time>2026-04-09T06:56:22.872Z</time></trkpt><trkpt lat="38.170745" lon="15.653355"><ele>27.0</ele><time>2026-04-09T06:56:23.872Z</time></trkpt><trkpt lat="38.1708" lon="15.6536067"><ele>28.0</ele><time>2026-04-09T06:56:24.872Z</time></trkpt><trkpt lat="38.1708483" lon="15.6538333"><ele>28.25</ele><time>2026-04-09T06:56:25.872Z</time></trkpt><trkpt lat="38.1708867" lon="15.65403"><ele>28.5</ele><time>2026-04-09T06:56:26.872Z</time></trkpt><trkpt lat="38.1709183" lon="15.6542017"><ele>28.75</ele><time>2026-04-09T06:56:27.872Z</time></trkpt><trkpt lat="38.1709483" lon="15.6543533"><ele>29.0</ele><time>2026-04-09T06:56:28.871Z</time></trkpt><trkpt lat="38.1709733" lon="15.6544867"><ele>29.42857142857143</ele><time>2026-04-09T06:56:29.872Z</time></trkpt><trkpt lat="38.1709817" lon="15.654605"><ele>29.857142857142858</ele><time>2026-04-09T06:56:30.872Z</time></trkpt><trkpt lat="38.1709767" lon="15.6547033"><ele>30.285714285714285</ele><time>2026-04-09T06:56:31.871Z</time></trkpt><trkpt lat="38.1709533" lon="15.6547833"><ele>30.714285714285715</ele><time>2026-04-09T06:56:32.871Z</time></trkpt><trkpt lat="38.170905" lon="15.65484"><ele>31.14285714285714</ele><time>2026-04-09T06:56:33.871Z</time></trkpt><trkpt lat="38.1708433" lon="15.6548733"><ele>31.57142857142857</ele><time>2026-04-09T06:56:34.871Z</time></trkpt><trkpt lat="38.1707683" lon="15.6549033"><ele>32.0</ele><time>2026-04-09T06:56:35.872Z</time></trkpt><trkpt lat="38.1706883" lon="15.6549267"><ele>32.0</ele><time>2026-04-09T06:56:36.872Z</time></trkpt><trkpt lat="38.170605" lon="15.6549317"><ele>32.0</ele><time>2026-04-09T06:56:37.871Z</time></trkpt><trkpt lat="38.1705117" lon="15.6549233"><ele>32.0</ele><time>2026-04-09T06:56:38.872Z</time></trkpt><trkpt lat="38.1704067" lon="15.654925"><ele>32.0</ele><time>2026-04-09T06:56:39.872Z</time></trkpt><trkpt lat="38.1702983" lon="15.65492"><ele>32.0</ele><time>2026-04-09T06:56:40.872Z</time></trkpt><trkpt lat="38.17019" lon="15.6549483"><ele>32.0</ele><time>2026-04-09T06:56:41.872Z</time></trkpt><trkpt lat="38.1700867" lon="15.6549883"><ele>32.0</ele><time>2026-04-09T06:56:42.871Z</time></trkpt><trkpt lat="38.16999" lon="15.6550267"><ele>32.0</ele><time>2026-04-09T06:56:43.871Z</time></trkpt><trkpt lat="38.16988" lon="15.6550633"><ele>32.0</ele><time>2026-04-09T06:56:44.872Z</time></trkpt><trkpt lat="38.1697667" lon="15.6551083"><ele>32.0</ele><time>2026-04-09T06:56:45.871Z</time></trkpt><trkpt lat="38.1696567" lon="15.6551583"><ele>31.8</ele><time>2026-04-09T06:56:46.872Z</time></trkpt><trkpt lat="38.1695633" lon="15.6551967"><ele>31.6</ele><time>2026-04-09T06:56:47.871Z</time></trkpt><trkpt lat="38.1694933" lon="15.6552283"><ele>31.400000000000002</ele><time>2026-04-09T06:56:48.872Z</time></trkpt><trkpt lat="38.1694483" lon="15.6552967"><ele>31.200000000000003</ele><time>2026-04-09T06:56:53.872Z</time></trkpt><trkpt lat="38.1694733" lon="15.65547"><ele>31.0</ele><time>2026-04-09T06:56:55.871Z</time></trkpt><trkpt lat="38.1695167" lon="15.6556033"><ele>31.0</ele><time>2026-04-09T06:56:56.871Z</time></trkpt><trkpt lat="38.1695533" lon="15.655725"><ele>31.0</ele><time>2026-04-09T06:56:57.872Z</time></trkpt><trkpt lat="38.1696317" lon="15.655895"><ele>31.0</ele><time>2026-04-09T06:56:58.871Z</time></trkpt><trkpt lat="38.1697133" lon="15.6560733"><ele>31.0</ele><time>2026-04-09T06:56:59.871Z</time></trkpt><trkpt lat="38.1697917" lon="15.6562667"><ele>33.0</ele><time>2026-04-09T06:57:00.872Z</time></trkpt><trkpt lat="38.1698683" lon="15.6564417"><ele>35.0</ele><time>2026-04-09T06:57:01.871Z</time></trkpt><trkpt lat="38.1699483" lon="15.656655"><ele>37.0</ele><time>2026-04-09T06:57:02.871Z</time></trkpt><trkpt lat="38.1700233" lon="15.6568617"><ele>37.5</ele><time>2026-04-09T06:57:03.872Z</time></trkpt><trkpt lat="38.17009" lon="15.6570267"><ele>38.0</ele><time>2026-04-09T06:57:04.871Z</time></trkpt><trkpt lat="38.170115" lon="15.6571867"><ele>38.5</ele><time>2026-04-09T06:57:05.872Z</time></trkpt><trkpt lat="38.1701167" lon="15.6573533"><ele>39.0</ele><time>2026-04-09T06:57:06.872Z</time></trkpt><trkpt lat="38.17011" lon="15.6575317"><ele>39.0</ele><time>2026-04-09T06:57:07.872Z</time></trkpt><trkpt lat="38.1700917" lon="15.65769"><ele>39.0</ele><time>2026-04-09T06:57:08.871Z</time></trkpt><trkpt lat="38.1700783" lon="15.657825"><ele>39.0</ele><time>2026-04-09T06:57:09.871Z</time></trkpt><trkpt lat="38.1700717" lon="15.657945"><ele>39.0</ele><time>2026-04-09T06:57:10.872Z</time></trkpt><trkpt lat="38.170075" lon="15.6580567"><ele>39.0</ele><time>2026-04-09T06:57:11.871Z</time></trkpt><trkpt lat="38.1700983" lon="15.658175"><ele>39.25</ele><time>2026-04-09T06:57:12.871Z</time></trkpt><trkpt lat="38.1701467" lon="15.658285"><ele>39.5</ele><time>2026-04-09T06:57:13.872Z</time></trkpt><trkpt lat="38.17022" lon="15.6584017"><ele>39.75</ele><time>2026-04-09T06:57:14.872Z</time></trkpt><trkpt lat="38.1703133" lon="15.6585367"><ele>40.0</ele><time>2026-04-09T06:57:15.871Z</time></trkpt><trkpt lat="38.170405" lon="15.6586917"><ele>41.0</ele><time>2026-04-09T06:57:16.872Z</time></trkpt><trkpt lat="38.1704817" lon="15.658865"><ele>42.0</ele><time>2026-04-09T06:57:17.871Z</time></trkpt><trkpt lat="38.1705533" lon="15.6590183"><ele>43.0</ele><time>2026-04-09T06:57:18.871Z</time></trkpt><trkpt lat="38.170625" lon="15.659165"><ele>44.0</ele><time>2026-04-09T06:57:19.872Z</time></trkpt><trkpt lat="38.1706767" lon="15.6593167"><ele>46.0</ele><time>2026-04-09T06:57:20.871Z</time></trkpt><trkpt lat="38.1707317" lon="15.6594817"><ele>48.0</ele><time>2026-04-09T06:57:21.872Z</time></trkpt><trkpt lat="38.17079" lon="15.65965"><ele>50.0</ele><time>2026-04-09T06:57:22.872Z</time></trkpt><trkpt lat="38.170855" lon="15.6598267"><ele>52.0</ele><time>2026-04-09T06:57:23.872Z</time></trkpt><trkpt lat="38.1709233" lon="15.66001"><ele>52.0</ele><time>2026-04-09T06:57:24.872Z</time></trkpt><trkpt lat="38.1709833" lon="15.660205"><ele>52.0</ele><time>2026-04-09T06:57:25.872Z</time></trkpt><trkpt lat="38.171045" lon="15.6603933"><ele>52.0</ele><time>2026-04-09T06:57:26.872Z</time></trkpt><trkpt lat="38.1710933" lon="15.6605567"><ele>53.0</ele><time>2026-04-09T06:57:27.871Z</time></trkpt><trkpt lat="38.1711417" lon="15.6607117"><ele>54.0</ele><time>2026-04-09T06:57:28.871Z</time></trkpt><trkpt lat="38.1711883" lon="15.6608783"><ele>55.0</ele><time>2026-04-09T06:57:29.871Z</time></trkpt><trkpt lat="38.1712233" lon="15.6610333"><ele>56.0</ele><time>2026-04-09T06:57:30.872Z</time></trkpt><trkpt lat="38.171265" lon="15.6611567"><ele>56.0</ele><time>2026-04-09T06:57:31.872Z</time></trkpt><trkpt lat="38.171295" lon="15.661275"><ele>55.99999999999999</ele><time>2026-04-09T06:57:32.872Z</time></trkpt><trkpt lat="38.1713167" lon="15.6613817"><ele>55.99999999999999</ele><time>2026-04-09T06:57:33.872Z</time></trkpt><trkpt lat="38.1713383" lon="15.661495"><ele>56.0</ele><time>2026-04-09T06:57:34.872Z</time></trkpt><trkpt lat="38.171355" lon="15.661615"><ele>56.0</ele><time>2026-04-09T06:57:35.872Z</time></trkpt><trkpt lat="38.1713667" lon="15.66173"><ele>56.00000000000001</ele><time>2026-04-09T06:57:36.872Z</time></trkpt><trkpt lat="38.17137" lon="15.6618417"><ele>56.0</ele><time>2026-04-09T06:57:37.871Z</time></trkpt><trkpt lat="38.1713717" lon="15.661945"><ele>56.0</ele><time>2026-04-09T06:57:38.871Z</time></trkpt><trkpt lat="38.1713817" lon="15.6620483"><ele>56.0</ele><time>2026-04-09T06:57:39.871Z</time></trkpt><trkpt lat="38.1713783" lon="15.66216"><ele>56.00000000000001</ele><time>2026-04-09T06:57:40.872Z</time></trkpt><trkpt lat="38.171375" lon="15.66227"><ele>56.0</ele><time>2026-04-09T06:57:41.871Z</time></trkpt><trkpt lat="38.1713833" lon="15.6623633"><ele>56.50000000000001</ele><time>2026-04-09T06:57:42.871Z</time></trkpt><trkpt lat="38.1713983" lon="15.6624617"><ele>57.0</ele><time>2026-04-09T06:57:43.871Z</time></trkpt><trkpt lat="38.1714183" lon="15.6625533"><ele>57.5</ele><time>2026-04-09T06:57:44.871Z</time></trkpt><trkpt lat="38.1714317" lon="15.6626983"><ele>58.0</ele><time>2026-04-09T06:57:46.871Z</time></trkpt><trkpt lat="38.1714367" lon="15.6628033"><ele>58.50000000000001</ele><time>2026-04-09T06:57:48.872Z</time></trkpt><trkpt lat="38.17147" lon="15.662895"><ele>59.0</ele><time>2026-04-09T06:57:50.872Z</time></trkpt><trkpt lat="38.1715117" lon="15.66302"><ele>60.00000000000001</ele><time>2026-04-09T06:57:52.871Z</time></trkpt><trkpt lat="38.1715733" lon="15.663125"><ele>61.0</ele><time>2026-04-09T06:57:54.872Z</time></trkpt><trkpt lat="38.171625" lon="15.663175"><ele>62.0</ele><time>2026-04-09T06:57:56.872Z</time></trkpt><trkpt lat="38.171645" lon="15.663265"><ele>63.0</ele><time>2026-04-09T06:58:19.871Z</time></trkpt><trkpt lat="38.17167" lon="15.66335"><ele>64.0</ele><time>2026-04-09T06:58:21.872Z</time></trkpt><trkpt lat="38.1716883" lon="15.663435"><ele>65.0</ele><time>2026-04-09T06:58:24.872Z</time></trkpt><trkpt lat="38.1716667" lon="15.6635267"><ele>65.42857142857143</ele><time>2026-04-09T06:58:28.871Z</time></trkpt><trkpt lat="38.1716483" lon="15.663615"><ele>65.85714285714286</ele><time>2026-04-09T06:58:30.871Z</time></trkpt><trkpt lat="38.17164" lon="15.663695"><ele>66.28571428571428</ele><time>2026-04-09T06:58:31.872Z</time></trkpt><trkpt lat="38.171635" lon="15.663785"><ele>66.71428571428572</ele><time>2026-04-09T06:58:32.871Z</time></trkpt><trkpt lat="38.1716283" lon="15.6638733"><ele>67.14285714285714</ele><time>2026-04-09T06:58:33.871Z</time></trkpt><trkpt lat="38.17162" lon="15.6639633"><ele>67.57142857142857</ele><time>2026-04-09T06:58:34.871Z</time></trkpt><trkpt lat="38.17161" lon="15.6640533"><ele>68.0</ele><time>2026-04-09T06:58:35.872Z</time></trkpt><trkpt lat="38.1716033" lon="15.6641533"><ele>68.0</ele><time>2026-04-09T06:58:36.872Z</time></trkpt><trkpt lat="38.1716" lon="15.66424"><ele>68.0</ele><time>2026-04-09T06:58:37.871Z</time></trkpt><trkpt lat="38.1716033" lon="15.6643667"><ele>68.0</ele><time>2026-04-09T06:58:39.871Z</time></trkpt><trkpt lat="38.1716433" lon="15.6644417"><ele>68.0</ele><time>2026-04-09T06:59:54.872Z</time></trkpt><trkpt lat="38.171715" lon="15.6643833"><ele>68.0</ele><time>2026-04-09T06:59:57.872Z</time></trkpt><trkpt lat="38.1716617" lon="15.6644283"><ele>68.0</ele><time>2026-04-09T07:02:40.872Z</time></trkpt><trkpt lat="38.1716217" lon="15.6643183"><ele>68.0</ele><time>2026-04-09T07:02:46.871Z</time></trkpt><trkpt lat="38.1716267" lon="15.6642183"><ele>68.0</ele><time>2026-04-09T07:02:47.872Z</time></trkpt><trkpt lat="38.1716383" lon="15.664095"><ele>68.0</ele><time>2026-04-09T07:02:48.872Z</time></trkpt><trkpt lat="38.1716533" lon="15.6639483"><ele>68.0</ele><time>2026-04-09T07:02:49.872Z</time></trkpt><trkpt lat="38.1716733" lon="15.6638083"><ele>68.0</ele><time>2026-04-09T07:02:50.872Z</time></trkpt><trkpt lat="38.1716917" lon="15.6637067"><ele>68.0</ele><time>2026-04-09T07:02:51.872Z</time></trkpt><trkpt lat="38.1717" lon="15.663625"><ele>68.0</ele><time>2026-04-09T07:02:52.871Z</time></trkpt><trkpt lat="38.1717167" lon="15.6635267"><ele>68.0</ele><time>2026-04-09T07:02:54.871Z</time></trkpt><trkpt lat="38.17169" lon="15.6634433"><ele>68.0</ele><time>2026-04-09T07:02:56.871Z</time></trkpt><trkpt lat="38.17163" lon="15.6632917"><ele>68.0</ele><time>2026-04-09T07:02:58.872Z</time></trkpt><trkpt lat="38.1715967" lon="15.663185"><ele>68.0</ele><time>2026-04-09T07:02:59.872Z</time></trkpt><trkpt lat="38.1715617" lon="15.6630733"><ele>67.4</ele><time>2026-04-09T07:03:00.872Z</time></trkpt><trkpt lat="38.1715317" lon="15.6629483"><ele>66.8</ele><time>2026-04-09T07:03:01.871Z</time></trkpt><trkpt lat="38.1715067" lon="15.6628367"><ele>66.2</ele><time>2026-04-09T07:03:02.872Z</time></trkpt><trkpt lat="38.1714733" lon="15.6627317"><ele>65.6</ele><time>2026-04-09T07:03:03.871Z</time></trkpt><trkpt lat="38.17145" lon="15.662625"><ele>65.0</ele><time>2026-04-09T07:03:04.872Z</time></trkpt><trkpt lat="38.1714417" lon="15.662515"><ele>64.0</ele><time>2026-04-09T07:03:05.871Z</time></trkpt><trkpt lat="38.17144" lon="15.6624067"><ele>63.0</ele><time>2026-04-09T07:03:06.871Z</time></trkpt><trkpt lat="38.17143" lon="15.6623033"><ele>62.0</ele><time>2026-04-09T07:03:07.871Z</time></trkpt><trkpt lat="38.17143" lon="15.662195"><ele>61.0</ele><time>2026-04-09T07:03:08.872Z</time></trkpt><trkpt lat="38.1714267" lon="15.662095"><ele>60.00000000000001</ele><time>2026-04-09T07:03:09.872Z</time></trkpt><trkpt lat="38.1714283" lon="15.661995"><ele>59.0</ele><time>2026-04-09T07:03:10.871Z</time></trkpt><trkpt lat="38.1714333" lon="15.6619017"><ele>58.50000000000001</ele><time>2026-04-09T07:03:11.872Z</time></trkpt><trkpt lat="38.1714233" lon="15.6618167"><ele>58.0</ele><time>2026-04-09T07:03:12.872Z</time></trkpt><trkpt lat="38.171415" lon="15.6617333"><ele>57.5</ele><time>2026-04-09T07:03:13.872Z</time></trkpt><trkpt lat="38.1714033" lon="15.6616417"><ele>57.0</ele><time>2026-04-09T07:03:14.871Z</time></trkpt><trkpt lat="38.1713867" lon="15.6615367"><ele>56.50000000000001</ele><time>2026-04-09T07:03:15.871Z</time></trkpt><trkpt lat="38.1713567" lon="15.661425"><ele>56.0</ele><time>2026-04-09T07:03:16.871Z</time></trkpt><trkpt lat="38.1713367" lon="15.6612917"><ele>56.0</ele><time>2026-04-09T07:03:17.871Z</time></trkpt><trkpt lat="38.1713067" lon="15.6611633"><ele>55.99999999999999</ele><time>2026-04-09T07:03:18.871Z</time></trkpt><trkpt lat="38.1712717" lon="15.6610233"><ele>55.99999999999999</ele><time>2026-04-09T07:03:19.872Z</time></trkpt><trkpt lat="38.17123" lon="15.6609017"><ele>56.0</ele><time>2026-04-09T07:03:20.871Z</time></trkpt><trkpt lat="38.1711983" lon="15.660775"><ele>56.0</ele><time>2026-04-09T07:03:21.872Z</time></trkpt><trkpt lat="38.171125" lon="15.66067"><ele>56.199999999999996</ele><time>2026-04-09T07:03:22.871Z</time></trkpt><trkpt lat="38.17108" lon="15.66056"><ele>56.39999999999999</ele><time>2026-04-09T07:03:23.871Z</time></trkpt><trkpt lat="38.1710567" lon="15.6604533"><ele>56.6</ele><time>2026-04-09T07:03:24.872Z</time></trkpt><trkpt lat="38.1710333" lon="15.6603483"><ele>56.8</ele><time>2026-04-09T07:03:25.872Z</time></trkpt><trkpt lat="38.1709933" lon="15.6602267"><ele>57.0</ele><time>2026-04-09T07:03:26.872Z</time></trkpt><trkpt lat="38.1709583" lon="15.6601167"><ele>56.0</ele><time>2026-04-09T07:03:27.872Z</time></trkpt><trkpt lat="38.1709267" lon="15.659995"><ele>55.0</ele><time>2026-04-09T07:03:28.871Z</time></trkpt><trkpt lat="38.1708917" lon="15.6598667"><ele>54.0</ele><time>2026-04-09T07:03:29.872Z</time></trkpt><trkpt lat="38.17085" lon="15.6597283"><ele>53.0</ele><time>2026-04-09T07:03:30.871Z</time></trkpt><trkpt lat="38.1708033" lon="15.6596"><ele>52.0</ele><time>2026-04-09T07:03:31.871Z</time></trkpt><trkpt lat="38.1707633" lon="15.6594733"><ele>50.6</ele><time>2026-04-09T07:03:32.872Z</time></trkpt><trkpt lat="38.170725" lon="15.6593483"><ele>49.2</ele><time>2026-04-09T07:03:33.872Z</time></trkpt><trkpt lat="38.17068" lon="15.6592267"><ele>47.8</ele><time>2026-04-09T07:03:34.871Z</time></trkpt><trkpt lat="38.17063" lon="15.6591067"><ele>46.4</ele><time>2026-04-09T07:03:35.872Z</time></trkpt><trkpt lat="38.1705717" lon="15.6589867"><ele>45.0</ele><time>2026-04-09T07:03:36.872Z</time></trkpt><trkpt lat="38.17051" lon="15.658875"><ele>44.8</ele><time>2026-04-09T07:03:37.871Z</time></trkpt><trkpt lat="38.1704383" lon="15.6587667"><ele>44.6</ele><time>2026-04-09T07:03:38.871Z</time></trkpt><trkpt lat="38.1703783" lon="15.658665"><ele>44.400000000000006</ele><time>2026-04-09T07:03:39.872Z</time></trkpt><trkpt lat="38.170325" lon="15.6585633"><ele>44.2</ele><time>2026-04-09T07:03:40.872Z</time></trkpt><trkpt lat="38.17027" lon="15.658455"><ele>44.0</ele><time>2026-04-09T07:03:41.871Z</time></trkpt><trkpt lat="38.170205" lon="15.6583433"><ele>43.0</ele><time>2026-04-09T07:03:42.872Z</time></trkpt><trkpt lat="38.1701467" lon="15.6582283"><ele>42.0</ele><time>2026-04-09T07:03:43.871Z</time></trkpt><trkpt lat="38.170085" lon="15.658105"><ele>41.0</ele><time>2026-04-09T07:03:44.871Z</time></trkpt><trkpt lat="38.1700517" lon="15.6579633"><ele>40.0</ele><time>2026-04-09T07:03:45.872Z</time></trkpt><trkpt lat="38.17006" lon="15.6577933"><ele>39.75</ele><time>2026-04-09T07:03:46.872Z</time></trkpt><trkpt lat="38.1700967" lon="15.6576233"><ele>39.5</ele><time>2026-04-09T07:03:47.871Z</time></trkpt><trkpt lat="38.1701233" lon="15.6574633"><ele>39.25</ele><time>2026-04-09T07:03:48.872Z</time></trkpt><trkpt lat="38.17014" lon="15.657325"><ele>39.0</ele><time>2026-04-09T07:03:49.872Z</time></trkpt><trkpt lat="38.170145" lon="15.65722"><ele>39.0</ele><time>2026-04-09T07:03:50.872Z</time></trkpt><trkpt lat="38.1701433" lon="15.6571233"><ele>39.0</ele><time>2026-04-09T07:03:51.872Z</time></trkpt><trkpt lat="38.1701267" lon="15.6570333"><ele>39.0</ele><time>2026-04-09T07:03:52.871Z</time></trkpt><trkpt lat="38.1701017" lon="15.6569517"><ele>39.0</ele><time>2026-04-09T07:03:53.871Z</time></trkpt><trkpt lat="38.1700283" lon="15.6568083"><ele>39.0</ele><time>2026-04-09T07:03:55.872Z</time></trkpt><trkpt lat="38.1699867" lon="15.6567217"><ele>39.0</ele><time>2026-04-09T07:03:56.871Z</time></trkpt><trkpt lat="38.1699367" lon="15.656605"><ele>38.333333333333336</ele><time>2026-04-09T07:03:57.871Z</time></trkpt><trkpt lat="38.1698833" lon="15.656455"><ele>37.66666666666667</ele><time>2026-04-09T07:03:58.871Z</time></trkpt><trkpt lat="38.169805" lon="15.65627"><ele>37.0</ele><time>2026-04-09T07:03:59.871Z</time></trkpt><trkpt lat="38.1697333" lon="15.6560767"><ele>35.5</ele><time>2026-04-09T07:04:00.872Z</time></trkpt><trkpt lat="38.1696717" lon="15.6558967"><ele>34.0</ele><time>2026-04-09T07:04:01.872Z</time></trkpt><trkpt lat="38.1696133" lon="15.6557317"><ele>32.5</ele><time>2026-04-09T07:04:02.872Z</time></trkpt><trkpt lat="38.1695567" lon="15.65557"><ele>31.0</ele><time>2026-04-09T07:04:03.871Z</time></trkpt><trkpt lat="38.1695067" lon="15.6554133"><ele>30.75</ele><time>2026-04-09T07:04:04.872Z</time></trkpt><trkpt lat="38.1694617" lon="15.65527"><ele>30.5</ele><time>2026-04-09T07:04:05.871Z</time></trkpt><trkpt lat="38.1694183" lon="15.6551217"><ele>30.25</ele><time>2026-04-09T07:04:06.872Z</time></trkpt><trkpt lat="38.1693767" lon="15.6549767"><ele>30.0</ele><time>2026-04-09T07:04:07.872Z</time></trkpt><trkpt lat="38.1693483" lon="15.65486"><ele>30.0</ele><time>2026-04-09T07:04:08.871Z</time></trkpt><trkpt lat="38.1693167" lon="15.6547283"><ele>30.0</ele><time>2026-04-09T07:04:10.872Z</time></trkpt><trkpt lat="38.1693583" lon="15.654635"><ele>30.0</ele><time>2026-04-09T07:04:12.872Z</time></trkpt><trkpt lat="38.1695067" lon="15.654585"><ele>30.0</ele><time>2026-04-09T07:04:14.872Z</time></trkpt><trkpt lat="38.169605" lon="15.6545583"><ele>30.0</ele><time>2026-04-09T07:04:15.871Z</time></trkpt><trkpt lat="38.1697" lon="15.6545267"><ele>30.0</ele><time>2026-04-09T07:04:16.871Z</time></trkpt><trkpt lat="38.16979" lon="15.6544783"><ele>30.0</ele><time>2026-04-09T07:04:17.872Z</time></trkpt><trkpt lat="38.169865" lon="15.6544333"><ele>30.0</ele><time>2026-04-09T07:04:18.871Z</time></trkpt><trkpt lat="38.169925" lon="15.6544"><ele>30.0</ele><time>2026-04-09T07:04:19.872Z</time></trkpt><trkpt lat="38.1699967" lon="15.6543"><ele>30.0</ele><time>2026-04-09T07:04:21.871Z</time></trkpt><trkpt lat="38.16999" lon="15.65416"><ele>30.25</ele><time>2026-04-09T07:04:23.872Z</time></trkpt><trkpt lat="38.1699517" lon="15.6540467"><ele>30.5</ele><time>2026-04-09T07:04:24.871Z</time></trkpt><trkpt lat="38.1698667" lon="15.6539117"><ele>30.75</ele><time>2026-04-09T07:04:25.872Z</time></trkpt><trkpt lat="38.1697833" lon="15.6537683"><ele>31.0</ele><time>2026-04-09T07:04:26.872Z</time></trkpt><trkpt lat="38.1697383" lon="15.6536433"><ele>30.333333333333336</ele><time>2026-04-09T07:04:27.871Z</time></trkpt><trkpt lat="38.16969" lon="15.6535583"><ele>29.666666666666668</ele><time>2026-04-09T07:04:28.871Z</time></trkpt><trkpt lat="38.1696883" lon="15.6534767"><ele>29.0</ele><time>2026-04-09T07:04:29.872Z</time></trkpt><trkpt lat="38.1697133" lon="15.6533783"><ele>28.333333333333336</ele><time>2026-04-09T07:04:31.871Z</time></trkpt><trkpt lat="38.169845" lon="15.6533"><ele>27.666666666666668</ele><time>2026-04-09T07:04:33.871Z</time></trkpt><trkpt lat="38.16991" lon="15.6532767"><ele>27.0</ele><time>2026-04-09T07:04:34.872Z</time></trkpt><trkpt lat="38.1699883" lon="15.6532333"><ele>27.0</ele><time>2026-04-09T07:04:36.871Z</time></trkpt><trkpt lat="38.1700217" lon="15.6531333"><ele>27.000000000000004</ele><time>2026-04-09T07:04:38.872Z</time></trkpt><trkpt lat="38.1699933" lon="15.6529917"><ele>27.000000000000004</ele><time>2026-04-09T07:04:40.872Z</time></trkpt><trkpt lat="38.1700183" lon="15.6528717"><ele>27.0</ele><time>2026-04-09T07:04:42.871Z</time></trkpt><trkpt lat="38.1700867" lon="15.6527867"><ele>27.0</ele><time>2026-04-09T07:04:44.872Z</time></trkpt><trkpt lat="38.1701433" lon="15.6527233"><ele>26.714285714285715</ele><time>2026-04-09T07:04:46.871Z</time></trkpt><trkpt lat="38.17022" lon="15.652675"><ele>26.428571428571427</ele><time>2026-04-09T07:05:16.872Z</time></trkpt><trkpt lat="38.1702883" lon="15.6526533"><ele>26.142857142857146</ele><time>2026-04-09T07:05:18.872Z</time></trkpt><trkpt lat="38.170365" lon="15.652615"><ele>25.857142857142858</ele><time>2026-04-09T07:05:20.872Z</time></trkpt><trkpt lat="38.1704133" lon="15.6525617"><ele>25.571428571428573</ele><time>2026-04-09T07:05:22.871Z</time></trkpt><trkpt lat="38.1704267" lon="15.6524783"><ele>25.28571428571429</ele><time>2026-04-09T07:05:26.871Z</time></trkpt><trkpt lat="38.17038" lon="15.6523983"><ele>25.0</ele><time>2026-04-09T07:08:02.872Z</time></trkpt><trkpt lat="38.1703633" lon="15.652285"><ele>25.000000000000004</ele><time>2026-04-09T07:08:04.872Z</time></trkpt><trkpt lat="38.17033" lon="15.652125"><ele>25.0</ele><time>2026-04-09T07:08:06.871Z</time></trkpt><trkpt lat="38.1702983" lon="15.6520483"><ele>25.0</ele><time>2026-04-09T07:08:07.872Z</time></trkpt><trkpt lat="38.1702517" lon="15.651965"><ele>25.0</ele><time>2026-04-09T07:08:08.872Z</time></trkpt><trkpt lat="38.17021" lon="15.6518883"><ele>25.000000000000004</ele><time>2026-04-09T07:08:09.871Z</time></trkpt><trkpt lat="38.170155" lon="15.6518417"><ele>25.0</ele><time>2026-04-09T07:08:10.871Z</time></trkpt><trkpt lat="38.1700883" lon="15.6518183"><ele>24.666666666666668</ele><time>2026-04-09T07:08:11.871Z</time></trkpt><trkpt lat="38.1700083" lon="15.6518383"><ele>24.333333333333336</ele><time>2026-04-09T07:08:12.872Z</time></trkpt><trkpt lat="38.1699433" lon="15.651865"><ele>24.0</ele><time>2026-04-09T07:08:13.872Z</time></trkpt><trkpt lat="38.1698617" lon="15.6518367"><ele>23.666666666666668</ele><time>2026-04-09T07:08:15.872Z</time></trkpt><trkpt lat="38.16989" lon="15.651725"><ele>23.333333333333336</ele><time>2026-04-09T07:08:18.872Z</time></trkpt><trkpt lat="38.169945" lon="15.651675"><ele>23.0</ele><time>2026-04-09T07:08:19.872Z</time></trkpt><trkpt lat="38.1700133" lon="15.6516483"><ele>23.0</ele><time>2026-04-09T07:08:20.871Z</time></trkpt><trkpt lat="38.170085" lon="15.6516283"><ele>23.0</ele><time>2026-04-09T07:08:21.871Z</time></trkpt><trkpt lat="38.1701617" lon="15.6516283"><ele>23.0</ele><time>2026-04-09T07:08:22.871Z</time></trkpt><trkpt lat="38.170245" lon="15.6516383"><ele>23.0</ele><time>2026-04-09T07:08:23.871Z</time></trkpt><trkpt lat="38.1703233" lon="15.65166"><ele>23.0</ele><time>2026-04-09T07:08:24.871Z</time></trkpt><trkpt lat="38.170415" lon="15.6517017"><ele>23.0</ele><time>2026-04-09T07:08:26.872Z</time></trkpt><trkpt lat="38.1704683" lon="15.65175"><ele>23.0</ele><time>2026-04-09T07:08:28.871Z</time></trkpt><trkpt lat="38.170585" lon="15.6518583"><ele>23.0</ele><time>2026-04-09T07:08:30.872Z</time></trkpt><trkpt lat="38.1706817" lon="15.651905"><ele>23.0</ele><time>2026-04-09T07:08:31.871Z</time></trkpt><trkpt lat="38.170795" lon="15.651905"><ele>23.0</ele><time>2026-04-09T07:08:32.871Z</time></trkpt><trkpt lat="38.1709033" lon="15.65186"><ele>23.4</ele><time>2026-04-09T07:08:33.872Z</time></trkpt><trkpt lat="38.1709833" lon="15.6517783"><ele>23.799999999999997</ele><time>2026-04-09T07:08:34.872Z</time></trkpt><trkpt lat="38.1710383" lon="15.6516767"><ele>24.2</ele><time>2026-04-09T07:08:35.871Z</time></trkpt><trkpt lat="38.1710817" lon="15.6515533"><ele>24.6</ele><time>2026-04-09T07:08:36.872Z</time></trkpt><trkpt lat="38.17112" lon="15.651415"><ele>25.0</ele><time>2026-04-09T07:08:37.872Z</time></trkpt><trkpt lat="38.171165" lon="15.6512883"><ele>25.0</ele><time>2026-04-09T07:08:38.872Z</time></trkpt><trkpt lat="38.171225" lon="15.6511867"><ele>25.0</ele><time>2026-04-09T07:08:39.871Z</time></trkpt><trkpt lat="38.1713017" lon="15.651135"><ele>25.0</ele><time>2026-04-09T07:08:40.872Z</time></trkpt><trkpt lat="38.1713917" lon="15.6511"><ele>25.0</ele><time>2026-04-09T07:08:41.872Z</time></trkpt><trkpt lat="38.1714783" lon="15.651085"><ele>25.0</ele><time>2026-04-09T07:08:42.872Z</time></trkpt><trkpt lat="38.1715733" lon="15.6510533"><ele>25.5</ele><time>2026-04-09T07:08:43.872Z</time></trkpt><trkpt lat="38.1716833" lon="15.65105"><ele>26.0</ele><time>2026-04-09T07:08:44.872Z</time></trkpt><trkpt lat="38.1718" lon="15.6510783"><ele>26.5</ele><time>2026-04-09T07:08:45.871Z</time></trkpt><trkpt lat="38.17192" lon="15.651105"><ele>27.0</ele><time>2026-04-09T07:08:46.871Z</time></trkpt><trkpt lat="38.1720333" lon="15.65114"><ele>27.200000000000003</ele><time>2026-04-09T07:08:47.871Z</time></trkpt><trkpt lat="38.1721433" lon="15.6511717"><ele>27.400000000000002</ele><time>2026-04-09T07:08:48.872Z</time></trkpt><trkpt lat="38.17226" lon="15.6512017"><ele>27.599999999999998</ele><time>2026-04-09T07:08:49.872Z</time></trkpt><trkpt lat="38.1723517" lon="15.6512117"><ele>27.799999999999997</ele><time>2026-04-09T07:08:50.871Z</time></trkpt><trkpt lat="38.1724317" lon="15.6512067"><ele>28.0</ele><time>2026-04-09T07:08:51.872Z</time></trkpt><trkpt lat="38.172515" lon="15.6511983"><ele>28.0</ele><time>2026-04-09T07:08:52.872Z</time></trkpt><trkpt lat="38.1726033" lon="15.65117"><ele>27.999999999999996</ele><time>2026-04-09T07:08:53.871Z</time></trkpt><trkpt lat="38.1726983" lon="15.6511167"><ele>27.999999999999996</ele><time>2026-04-09T07:08:54.871Z</time></trkpt><trkpt lat="38.1727983" lon="15.6510667"><ele>28.0</ele><time>2026-04-09T07:08:55.872Z</time></trkpt><trkpt lat="38.172905" lon="15.650995"><ele>28.0</ele><time>2026-04-09T07:08:56.871Z</time></trkpt><trkpt lat="38.17302" lon="15.6509017"><ele>28.0</ele><time>2026-04-09T07:08:57.872Z</time></trkpt><trkpt lat="38.1731633" lon="15.6507783"><ele>28.0</ele><time>2026-04-09T07:08:58.871Z</time></trkpt><trkpt lat="38.1733217" lon="15.6506717"><ele>28.0</ele><time>2026-04-09T07:08:59.872Z</time></trkpt><trkpt lat="38.1734667" lon="15.6505667"><ele>28.25</ele><time>2026-04-09T07:09:00.872Z</time></trkpt><trkpt lat="38.1735883" lon="15.6504717"><ele>28.5</ele><time>2026-04-09T07:09:01.871Z</time></trkpt><trkpt lat="38.1736933" lon="15.6503783"><ele>28.75</ele><time>2026-04-09T07:09:02.872Z</time></trkpt><trkpt lat="38.1738067" lon="15.6502867"><ele>29.0</ele><time>2026-04-09T07:09:03.872Z</time></trkpt><trkpt lat="38.1739117" lon="15.6502133"><ele>28.4</ele><time>2026-04-09T07:09:04.871Z</time></trkpt><trkpt lat="38.1740117" lon="15.650135"><ele>27.799999999999997</ele><time>2026-04-09T07:09:05.872Z</time></trkpt><trkpt lat="38.1741067" lon="15.6500717"><ele>27.200000000000003</ele><time>2026-04-09T07:09:06.871Z</time></trkpt><trkpt lat="38.1741817" lon="15.650015"><ele>26.6</ele><time>2026-04-09T07:09:07.872Z</time></trkpt><trkpt lat="38.174245" lon="15.64997"><ele>26.0</ele><time>2026-04-09T07:09:08.871Z</time></trkpt><trkpt lat="38.1743167" lon="15.649935"><ele>27.25</ele><time>2026-04-09T07:09:09.871Z</time></trkpt><trkpt lat="38.1743983" lon="15.6499183"><ele>28.5</ele><time>2026-04-09T07:09:10.872Z</time></trkpt><trkpt lat="38.1745283" lon="15.649895"><ele>29.75</ele><time>2026-04-09T07:09:11.872Z</time></trkpt><trkpt lat="38.1746883" lon="15.6498583"><ele>31.0</ele><time>2026-04-09T07:09:12.872Z</time></trkpt><trkpt lat="38.174865" lon="15.64983"><ele>31.0</ele><time>2026-04-09T07:09:13.872Z</time></trkpt><trkpt lat="38.1750483" lon="15.649805"><ele>31.0</ele><time>2026-04-09T07:09:14.871Z</time></trkpt><trkpt lat="38.1752483" lon="15.6497867"><ele>31.0</ele><time>2026-04-09T07:09:15.872Z</time></trkpt><trkpt lat="38.175445" lon="15.64976"><ele>31.0</ele><time>2026-04-09T07:09:16.872Z</time></trkpt><trkpt lat="38.1756417" lon="15.6497167"><ele>31.0</ele><time>2026-04-09T07:09:17.872Z</time></trkpt><trkpt lat="38.17581" lon="15.6496683"><ele>31.0</ele><time>2026-04-09T07:09:18.872Z</time></trkpt><trkpt lat="38.1759633" lon="15.6496317"><ele>31.0</ele><time>2026-04-09T07:09:19.871Z</time></trkpt><trkpt lat="38.1761033" lon="15.64961"><ele>31.0</ele><time>2026-04-09T07:09:20.871Z</time></trkpt><trkpt lat="38.1762333" lon="15.64958"><ele>31.0</ele><time>2026-04-09T07:09:21.872Z</time></trkpt><trkpt lat="38.176355" lon="15.6495483"><ele>31.0</ele><time>2026-04-09T07:09:22.872Z</time></trkpt><trkpt lat="38.1764667" lon="15.6495067"><ele>29.200000000000003</ele><time>2026-04-09T07:09:23.872Z</time></trkpt><trkpt lat="38.17657" lon="15.6494567"><ele>27.400000000000002</ele><time>2026-04-09T07:09:24.872Z</time></trkpt><trkpt lat="38.1766567" lon="15.649395"><ele>25.6</ele><time>2026-04-09T07:09:25.872Z</time></trkpt><trkpt lat="38.1767383" lon="15.6493417"><ele>23.8</ele><time>2026-04-09T07:09:26.871Z</time></trkpt><trkpt lat="38.1768133" lon="15.6492817"><ele>22.0</ele><time>2026-04-09T07:09:27.872Z</time></trkpt><trkpt lat="38.176895" lon="15.6492283"><ele>22.0</ele><time>2026-04-09T07:09:28.871Z</time></trkpt><trkpt lat="38.1769817" lon="15.6491867"><ele>22.0</ele><time>2026-04-09T07:09:29.871Z</time></trkpt><trkpt lat="38.1770733" lon="15.6491567"><ele>22.0</ele><time>2026-04-09T07:09:30.872Z</time></trkpt><trkpt lat="38.1771533" lon="15.6491233"><ele>22.0</ele><time>2026-04-09T07:09:31.871Z</time></trkpt><trkpt lat="38.1772317" lon="15.6490867"><ele>22.0</ele><time>2026-04-09T07:09:32.872Z</time></trkpt><trkpt lat="38.17731" lon="15.6490467"><ele>22.0</ele><time>2026-04-09T07:09:33.872Z</time></trkpt><trkpt lat="38.1773767" lon="15.6490067"><ele>22.5</ele><time>2026-04-09T07:09:34.872Z</time></trkpt><trkpt lat="38.1774433" lon="15.6489783"><ele>23.0</ele><time>2026-04-09T07:09:35.872Z</time></trkpt><trkpt lat="38.1775067" lon="15.64896"><ele>23.5</ele><time>2026-04-09T07:09:36.871Z</time></trkpt><trkpt lat="38.17757" lon="15.6489333"><ele>24.0</ele><time>2026-04-09T07:09:37.872Z</time></trkpt><trkpt lat="38.1776433" lon="15.648905"><ele>24.500000000000004</ele><time>2026-04-09T07:09:38.871Z</time></trkpt><trkpt lat="38.1777283" lon="15.64887"><ele>25.0</ele><time>2026-04-09T07:09:39.871Z</time></trkpt><trkpt lat="38.1778367" lon="15.6488267"><ele>25.0</ele><time>2026-04-09T07:09:40.871Z</time></trkpt><trkpt lat="38.17796" lon="15.64878"><ele>25.0</ele><time>2026-04-09T07:09:41.872Z</time></trkpt><trkpt lat="38.1781033" lon="15.6487283"><ele>25.0</ele><time>2026-04-09T07:09:42.871Z</time></trkpt><trkpt lat="38.1782633" lon="15.6486733"><ele>25.0</ele><time>2026-04-09T07:09:43.872Z</time></trkpt><trkpt lat="38.1784083" lon="15.6486333"><ele>24.75</ele><time>2026-04-09T07:09:44.872Z</time></trkpt><trkpt lat="38.17855" lon="15.6485833"><ele>24.5</ele><time>2026-04-09T07:09:45.872Z</time></trkpt><trkpt lat="38.1786767" lon="15.64853"><ele>24.25</ele><time>2026-04-09T07:09:46.871Z</time></trkpt><trkpt lat="38.1788133" lon="15.64846"><ele>24.0</ele><time>2026-04-09T07:09:47.872Z</time></trkpt><trkpt lat="38.1789383" lon="15.648415"><ele>23.799999999999997</ele><time>2026-04-09T07:09:48.872Z</time></trkpt><trkpt lat="38.1790583" lon="15.6483733"><ele>23.599999999999998</ele><time>2026-04-09T07:09:49.872Z</time></trkpt><trkpt lat="38.1791583" lon="15.648325"><ele>23.4</ele><time>2026-04-09T07:09:50.871Z</time></trkpt><trkpt lat="38.1792383" lon="15.6482883"><ele>23.2</ele><time>2026-04-09T07:09:51.871Z</time></trkpt><trkpt lat="38.1793" lon="15.64826"><ele>23.0</ele><time>2026-04-09T07:09:52.872Z</time></trkpt><trkpt lat="38.179375" lon="15.64819"><ele>23.0</ele><time>2026-04-09T07:09:54.872Z</time></trkpt><trkpt lat="38.179445" lon="15.6481317"><ele>23.0</ele><time>2026-04-09T07:09:56.872Z</time></trkpt><trkpt lat="38.1794517" lon="15.6480517"><ele>23.0</ele><time>2026-04-09T07:09:58.872Z</time></trkpt><trkpt lat="38.1793667" lon="15.6480233"><ele>23.0</ele><time>2026-04-09T07:12:48.871Z</time></trkpt><trkpt lat="38.1793233" lon="15.6481233"><ele>23.0</ele><time>2026-04-09T07:12:50.872Z</time></trkpt><trkpt lat="38.1792867" lon="15.6482317"><ele>23.0</ele><time>2026-04-09T07:12:52.872Z</time></trkpt><trkpt lat="38.1791983" lon="15.6483167"><ele>23.0</ele><time>2026-04-09T07:12:54.872Z</time></trkpt><trkpt lat="38.1791167" lon="15.6483467"><ele>23.0</ele><time>2026-04-09T07:12:55.872Z</time></trkpt><trkpt lat="38.1790183" lon="15.6483917"><ele>23.0</ele><time>2026-04-09T07:12:56.871Z</time></trkpt><trkpt lat="38.1789267" lon="15.6484517"><ele>23.0</ele><time>2026-04-09T07:12:57.872Z</time></trkpt><trkpt lat="38.1788083" lon="15.648475"><ele>23.0</ele><time>2026-04-09T07:12:58.872Z</time></trkpt><trkpt lat="38.1787" lon="15.6485083"><ele>23.2</ele><time>2026-04-09T07:12:59.871Z</time></trkpt><trkpt lat="38.17859" lon="15.6485233"><ele>23.4</ele><time>2026-04-09T07:13:00.872Z</time></trkpt><trkpt lat="38.17848" lon="15.6485517"><ele>23.599999999999998</ele><time>2026-04-09T07:13:01.871Z</time></trkpt><trkpt lat="38.1783833" lon="15.6485833"><ele>23.799999999999997</ele><time>2026-04-09T07:13:02.872Z</time></trkpt><trkpt lat="38.178275" lon="15.648595"><ele>24.0</ele><time>2026-04-09T07:13:03.871Z</time></trkpt><trkpt lat="38.1781667" lon="15.64864"><ele>24.25</ele><time>2026-04-09T07:13:04.871Z</time></trkpt><trkpt lat="38.1780617" lon="15.648645"><ele>24.5</ele><time>2026-04-09T07:13:05.872Z</time></trkpt><trkpt lat="38.1779483" lon="15.6486783"><ele>24.75</ele><time>2026-04-09T07:13:06.872Z</time></trkpt><trkpt lat="38.1778333" lon="15.6487233"><ele>25.0</ele><time>2026-04-09T07:13:07.871Z</time></trkpt><trkpt lat="38.1777183" lon="15.6487733"><ele>25.0</ele><time>2026-04-09T07:13:08.872Z</time></trkpt><trkpt lat="38.1776067" lon="15.6488217"><ele>25.0</ele><time>2026-04-09T07:13:09.872Z</time></trkpt><trkpt lat="38.1774983" lon="15.6488667"><ele>25.0</ele><time>2026-04-09T07:13:10.871Z</time></trkpt><trkpt lat="38.1773983" lon="15.6489133"><ele>25.0</ele><time>2026-04-09T07:13:11.871Z</time></trkpt><trkpt lat="38.1772967" lon="15.648955"><ele>25.0</ele><time>2026-04-09T07:13:12.872Z</time></trkpt><trkpt lat="38.1772017" lon="15.6489933"><ele>24.4</ele><time>2026-04-09T07:13:13.872Z</time></trkpt><trkpt lat="38.1771067" lon="15.6490433"><ele>23.8</ele><time>2026-04-09T07:13:14.871Z</time></trkpt><trkpt lat="38.1770183" lon="15.64911"><ele>23.200000000000003</ele><time>2026-04-09T07:13:15.872Z</time></trkpt><trkpt lat="38.1769233" lon="15.6491617"><ele>22.6</ele><time>2026-04-09T07:13:16.871Z</time></trkpt><trkpt lat="38.17683" lon="15.64921"><ele>22.0</ele><time>2026-04-09T07:13:17.872Z</time></trkpt><trkpt lat="38.1767233" lon="15.6492567"><ele>22.0</ele><time>2026-04-09T07:13:18.872Z</time></trkpt><trkpt lat="38.17662" lon="15.64932"><ele>22.0</ele><time>2026-04-09T07:13:19.871Z</time></trkpt><trkpt lat="38.1765183" lon="15.64938"><ele>22.0</ele><time>2026-04-09T07:13:20.872Z</time></trkpt><trkpt lat="38.1764283" lon="15.64944"><ele>22.0</ele><time>2026-04-09T07:13:21.872Z</time></trkpt><trkpt lat="38.1763367" lon="15.6494933"><ele>22.0</ele><time>2026-04-09T07:13:22.872Z</time></trkpt><trkpt lat="38.1762367" lon="15.6495283"><ele>24.25</ele><time>2026-04-09T07:13:23.872Z</time></trkpt><trkpt lat="38.1761167" lon="15.6495583"><ele>26.5</ele><time>2026-04-09T07:13:24.871Z</time></trkpt><trkpt lat="38.1759667" lon="15.64959"><ele>28.75</ele><time>2026-04-09T07:13:25.872Z</time></trkpt><trkpt lat="38.17581" lon="15.64963"><ele>31.0</ele><time>2026-04-09T07:13:26.871Z</time></trkpt><trkpt lat="38.1756367" lon="15.6496683"><ele>31.0</ele><time>2026-04-09T07:13:27.872Z</time></trkpt><trkpt lat="38.17546" lon="15.6496933"><ele>31.0</ele><time>2026-04-09T07:13:28.871Z</time></trkpt><trkpt lat="38.1752667" lon="15.64972"><ele>31.0</ele><time>2026-04-09T07:13:29.871Z</time></trkpt><trkpt lat="38.17507" lon="15.6497433"><ele>31.0</ele><time>2026-04-09T07:13:30.872Z</time></trkpt><trkpt lat="38.1748633" lon="15.6497583"><ele>31.0</ele><time>2026-04-09T07:13:31.871Z</time></trkpt><trkpt lat="38.1746783" lon="15.649785"><ele>31.0</ele><time>2026-04-09T07:13:32.872Z</time></trkpt><trkpt lat="38.17451" lon="15.6498283"><ele>31.25</ele><time>2026-04-09T07:13:33.872Z</time></trkpt><trkpt lat="38.1743667" lon="15.6498733"><ele>31.5</ele><time>2026-04-09T07:13:34.872Z</time></trkpt><trkpt lat="38.1742433" lon="15.6499317"><ele>31.75</ele><time>2026-04-09T07:13:35.871Z</time></trkpt><trkpt lat="38.17412" lon="15.6499867"><ele>32.0</ele><time>2026-04-09T07:13:36.871Z</time></trkpt><trkpt lat="38.1740267" lon="15.6500467"><ele>31.400000000000002</ele><time>2026-04-09T07:13:37.872Z</time></trkpt><trkpt lat="38.17395" lon="15.6501083"><ele>30.800000000000004</ele><time>2026-04-09T07:13:38.871Z</time></trkpt><trkpt lat="38.17389" lon="15.6501733"><ele>30.2</ele><time>2026-04-09T07:13:39.871Z</time></trkpt><trkpt lat="38.1738167" lon="15.6502417"><ele>29.6</ele><time>2026-04-09T07:13:40.872Z</time></trkpt><trkpt lat="38.1737433" lon="15.6503183"><ele>29.0</ele><time>2026-04-09T07:13:41.871Z</time></trkpt><trkpt lat="38.1736417" lon="15.6504067"><ele>29.0</ele><time>2026-04-09T07:13:42.872Z</time></trkpt><trkpt lat="38.1735033" lon="15.6505"><ele>29.0</ele><time>2026-04-09T07:13:43.872Z</time></trkpt><trkpt lat="38.1733483" lon="15.650615"><ele>29.0</ele><time>2026-04-09T07:13:44.871Z</time></trkpt><trkpt lat="38.1731933" lon="15.6507183"><ele>28.666666666666664</ele><time>2026-04-09T07:13:45.871Z</time></trkpt><trkpt lat="38.1730567" lon="15.65082"><ele>28.333333333333336</ele><time>2026-04-09T07:13:46.871Z</time></trkpt><trkpt lat="38.1729117" lon="15.6509233"><ele>28.0</ele><time>2026-04-09T07:13:47.871Z</time></trkpt><trkpt lat="38.17277" lon="15.65103"><ele>28.0</ele><time>2026-04-09T07:13:48.872Z</time></trkpt><trkpt lat="38.1726267" lon="15.6511133"><ele>28.0</ele><time>2026-04-09T07:13:49.871Z</time></trkpt><trkpt lat="38.1724983" lon="15.6511783"><ele>28.0</ele><time>2026-04-09T07:13:50.871Z</time></trkpt><trkpt lat="38.1723883" lon="15.6512067"><ele>28.0</ele><time>2026-04-09T07:13:51.872Z</time></trkpt><trkpt lat="38.1722833" lon="15.6512133"><ele>28.0</ele><time>2026-04-09T07:13:52.872Z</time></trkpt><trkpt lat="38.1722017" lon="15.6512017"><ele>27.999999999999996</ele><time>2026-04-09T07:13:53.872Z</time></trkpt><trkpt lat="38.17209" lon="15.651175"><ele>27.999999999999996</ele><time>2026-04-09T07:13:55.872Z</time></trkpt><trkpt lat="38.171955" lon="15.6511467"><ele>28.0</ele><time>2026-04-09T07:13:57.872Z</time></trkpt><trkpt lat="38.1718783" lon="15.6511267"><ele>28.0</ele><time>2026-04-09T07:13:58.871Z</time></trkpt><trkpt lat="38.1717917" lon="15.651095"><ele>27.799999999999997</ele><time>2026-04-09T07:13:59.871Z</time></trkpt><trkpt lat="38.17168" lon="15.65107"><ele>27.599999999999998</ele><time>2026-04-09T07:14:00.872Z</time></trkpt><trkpt lat="38.17157" lon="15.6510567"><ele>27.400000000000002</ele><time>2026-04-09T07:14:01.871Z</time></trkpt><trkpt lat="38.1714717" lon="15.6510633"><ele>27.200000000000003</ele><time>2026-04-09T07:14:02.871Z</time></trkpt><trkpt lat="38.17138" lon="15.651065"><ele>27.0</ele><time>2026-04-09T07:14:03.872Z</time></trkpt><trkpt lat="38.1712783" lon="15.6510667"><ele>26.6</ele><time>2026-04-09T07:14:04.872Z</time></trkpt><trkpt lat="38.1711733" lon="15.6510783"><ele>26.200000000000003</ele><time>2026-04-09T07:14:05.872Z</time></trkpt><trkpt lat="38.1710767" lon="15.65109"><ele>25.8</ele><time>2026-04-09T07:14:06.872Z</time></trkpt><trkpt lat="38.1709883" lon="15.6511"><ele>25.4</ele><time>2026-04-09T07:14:07.872Z</time></trkpt><trkpt lat="38.1708867" lon="15.6511317"><ele>25.0</ele><time>2026-04-09T07:14:09.871Z</time></trkpt><trkpt lat="38.1707883" lon="15.6511917"><ele>25.0</ele><time>2026-04-09T07:14:11.872Z</time></trkpt><trkpt lat="38.1707117" lon="15.6512367"><ele>25.0</ele><time>2026-04-09T07:14:12.872Z</time></trkpt><trkpt lat="38.170625" lon="15.6512833"><ele>25.0</ele><time>2026-04-09T07:14:13.872Z</time></trkpt><trkpt lat="38.1705467" lon="15.6513617"><ele>25.0</ele><time>2026-04-09T07:14:14.872Z</time></trkpt><trkpt lat="38.1705083" lon="15.6514533"><ele>25.0</ele><time>2026-04-09T07:14:15.872Z</time></trkpt><trkpt lat="38.1704783" lon="15.6515683"><ele>25.2</ele><time>2026-04-09T07:14:16.872Z</time></trkpt><trkpt lat="38.1704767" lon="15.651685"><ele>25.4</ele><time>2026-04-09T07:14:17.872Z</time></trkpt><trkpt lat="38.17052" lon="15.6518083"><ele>25.6</ele><time>2026-04-09T07:14:18.872Z</time></trkpt><trkpt lat="38.1706067" lon="15.6519083"><ele>25.8</ele><time>2026-04-09T07:14:19.871Z</time></trkpt><trkpt lat="38.17072" lon="15.6519583"><ele>26.0</ele><time>2026-04-09T07:14:20.872Z</time></trkpt><trkpt lat="38.1708417" lon="15.6519717"><ele>26.0</ele><time>2026-04-09T07:14:21.872Z</time></trkpt><trkpt lat="38.1709883" lon="15.6519783"><ele>26.0</ele><time>2026-04-09T07:14:22.872Z</time></trkpt><trkpt lat="38.17113" lon="15.6519883"><ele>26.0</ele><time>2026-04-09T07:14:23.872Z</time></trkpt><trkpt lat="38.1712617" lon="15.6520233"><ele>26.0</ele><time>2026-04-09T07:14:24.871Z</time></trkpt><trkpt lat="38.1713817" lon="15.6520883"><ele>26.0</ele><time>2026-04-09T07:14:25.871Z</time></trkpt><trkpt lat="38.1714767" lon="15.6521767"><ele>26.0</ele><time>2026-04-09T07:14:26.871Z</time></trkpt><trkpt lat="38.1715533" lon="15.6522917"><ele>26.0</ele><time>2026-04-09T07:14:27.871Z</time></trkpt><trkpt lat="38.1716117" lon="15.6524033"><ele>26.0</ele><time>2026-04-09T07:14:28.871Z</time></trkpt><trkpt lat="38.1716583" lon="15.65252"><ele>26.0</ele><time>2026-04-09T07:14:29.871Z</time></trkpt><trkpt lat="38.1716967" lon="15.6526383"><ele>26.4</ele><time>2026-04-09T07:14:30.872Z</time></trkpt><trkpt lat="38.1717367" lon="15.652755"><ele>26.8</ele><time>2026-04-09T07:14:31.872Z</time></trkpt><trkpt lat="38.1717667" lon="15.65286"><ele>27.199999999999996</ele><time>2026-04-09T07:14:32.872Z</time></trkpt><trkpt lat="38.1717967" lon="15.6529617"><ele>27.599999999999998</ele><time>2026-04-09T07:14:33.871Z</time></trkpt><trkpt lat="38.171845" lon="15.6530567"><ele>28.0</ele><time>2026-04-09T07:14:34.871Z</time></trkpt><trkpt lat="38.17192" lon="15.6531567"><ele>28.25</ele><time>2026-04-09T07:14:35.872Z</time></trkpt><trkpt lat="38.17202" lon="15.65325"><ele>28.5</ele><time>2026-04-09T07:14:36.871Z</time></trkpt><trkpt lat="38.1721467" lon="15.6533183"><ele>28.75</ele><time>2026-04-09T07:14:37.872Z</time></trkpt><trkpt lat="38.1722883" lon="15.653365"><ele>29.0</ele><time>2026-04-09T07:14:38.872Z</time></trkpt><trkpt lat="38.1724633" lon="15.65337"><ele>29.666666666666664</ele><time>2026-04-09T07:14:39.872Z</time></trkpt><trkpt lat="38.17264" lon="15.6533483"><ele>30.333333333333336</ele><time>2026-04-09T07:14:40.872Z</time></trkpt><trkpt lat="38.1728483" lon="15.6532983"><ele>31.0</ele><time>2026-04-09T07:14:41.872Z</time></trkpt><trkpt lat="38.173075" lon="15.6532417"><ele>31.0</ele><time>2026-04-09T07:14:42.872Z</time></trkpt><trkpt lat="38.17329" lon="15.6531733"><ele>31.0</ele><time>2026-04-09T07:14:43.871Z</time></trkpt><trkpt lat="38.1734883" lon="15.6531283"><ele>31.0</ele><time>2026-04-09T07:14:44.872Z</time></trkpt><trkpt lat="38.1736633" lon="15.6531133"><ele>31.0</ele><time>2026-04-09T07:14:45.871Z</time></trkpt><trkpt lat="38.173825" lon="15.6531433"><ele>31.0</ele><time>2026-04-09T07:14:46.871Z</time></trkpt><trkpt lat="38.173965" lon="15.6532233"><ele>31.0</ele><time>2026-04-09T07:14:47.871Z</time></trkpt><trkpt lat="38.1740783" lon="15.6533333"><ele>32.0</ele><time>2026-04-09T07:14:48.871Z</time></trkpt><trkpt lat="38.1741733" lon="15.6534717"><ele>33.0</ele><time>2026-04-09T07:14:49.871Z</time></trkpt><trkpt lat="38.1742467" lon="15.6536267"><ele>34.0</ele><time>2026-04-09T07:14:50.872Z</time></trkpt><trkpt lat="38.1743083" lon="15.6537983"><ele>35.0</ele><time>2026-04-09T07:14:51.872Z</time></trkpt><trkpt lat="38.1743267" lon="15.653985"><ele>35.33333333333333</ele><time>2026-04-09T07:14:52.872Z</time></trkpt><trkpt lat="38.1742933" lon="15.6541783"><ele>35.666666666666664</ele><time>2026-04-09T07:14:53.871Z</time></trkpt><trkpt lat="38.1742267" lon="15.6543683"><ele>36.0</ele><time>2026-04-09T07:14:54.871Z</time></trkpt><trkpt lat="38.1741333" lon="15.654545"><ele>35.333333333333336</ele><time>2026-04-09T07:14:55.872Z</time></trkpt><trkpt lat="38.174" lon="15.6546933"><ele>34.66666666666667</ele><time>2026-04-09T07:14:56.871Z</time></trkpt><trkpt lat="38.1738417" lon="15.6548033"><ele>34.0</ele><time>2026-04-09T07:14:57.872Z</time></trkpt><trkpt lat="38.17366" lon="15.6549067"><ele>34.0</ele><time>2026-04-09T07:14:58.872Z</time></trkpt><trkpt lat="38.1734833" lon="15.6550083"><ele>34.0</ele><time>2026-04-09T07:14:59.872Z</time></trkpt><trkpt lat="38.1733217" lon="15.6550967"><ele>34.0</ele><time>2026-04-09T07:15:00.871Z</time></trkpt><trkpt lat="38.1731783" lon="15.6551567"><ele>34.25</ele><time>2026-04-09T07:15:01.871Z</time></trkpt><trkpt lat="38.1730533" lon="15.6551717"><ele>34.5</ele><time>2026-04-09T07:15:02.872Z</time></trkpt><trkpt lat="38.1729333" lon="15.6551417"><ele>34.75</ele><time>2026-04-09T07:15:03.872Z</time></trkpt><trkpt lat="38.1728367" lon="15.65506"><ele>35.0</ele><time>2026-04-09T07:15:04.871Z</time></trkpt><trkpt lat="38.172765" lon="15.6549467"><ele>35.0</ele><time>2026-04-09T07:15:05.872Z</time></trkpt><trkpt lat="38.1727383" lon="15.6548067"><ele>35.0</ele><time>2026-04-09T07:15:06.872Z</time></trkpt><trkpt lat="38.1727683" lon="15.6546533"><ele>35.0</ele><time>2026-04-09T07:15:07.872Z</time></trkpt><trkpt lat="38.172825" lon="15.6545167"><ele>35.0</ele><time>2026-04-09T07:15:08.872Z</time></trkpt><trkpt lat="38.1729083" lon="15.65441"><ele>34.666666666666664</ele><time>2026-04-09T07:15:09.871Z</time></trkpt><trkpt lat="38.17302" lon="15.6543383"><ele>34.333333333333336</ele><time>2026-04-09T07:15:10.872Z</time></trkpt><trkpt lat="38.1731683" lon="15.6542667"><ele>34.0</ele><time>2026-04-09T07:15:11.871Z</time></trkpt><trkpt lat="38.1733433" lon="15.654195"><ele>34.0</ele><time>2026-04-09T07:15:12.872Z</time></trkpt><trkpt lat="38.1735467" lon="15.6541017"><ele>34.0</ele><time>2026-04-09T07:15:13.872Z</time></trkpt><trkpt lat="38.1737683" lon="15.6539983"><ele>34.0</ele><time>2026-04-09T07:15:14.871Z</time></trkpt><trkpt lat="38.1740017" lon="15.653885"><ele>34.0</ele><time>2026-04-09T07:15:15.872Z</time></trkpt><trkpt lat="38.1742383" lon="15.6537583"><ele>34.5</ele><time>2026-04-09T07:15:16.871Z</time></trkpt><trkpt lat="38.1744917" lon="15.65364"><ele>35.0</ele><time>2026-04-09T07:15:17.871Z</time></trkpt><trkpt lat="38.1747433" lon="15.65352"><ele>36.0</ele><time>2026-04-09T07:15:18.871Z</time></trkpt><trkpt lat="38.174995" lon="15.653405"><ele>37.0</ele><time>2026-04-09T07:15:19.871Z</time></trkpt><trkpt lat="38.175245" lon="15.6532967"><ele>37.0</ele><time>2026-04-09T07:15:20.872Z</time></trkpt><trkpt lat="38.175495" lon="15.6531883"><ele>37.0</ele><time>2026-04-09T07:15:21.872Z</time></trkpt><trkpt lat="38.17575" lon="15.6530767"><ele>39.0</ele><time>2026-04-09T07:15:22.872Z</time></trkpt><trkpt lat="38.1760083" lon="15.652965"><ele>41.0</ele><time>2026-04-09T07:15:23.871Z</time></trkpt><trkpt lat="38.176265" lon="15.6528567"><ele>45.0</ele><time>2026-04-09T07:15:24.872Z</time></trkpt><trkpt lat="38.1765217" lon="15.6527433"><ele>49.0</ele><time>2026-04-09T07:15:25.872Z</time></trkpt><trkpt lat="38.1767933" lon="15.6526217"><ele>49.0</ele><time>2026-04-09T07:15:26.871Z</time></trkpt><trkpt lat="38.177075" lon="15.6524967"><ele>49.0</ele><time>2026-04-09T07:15:27.871Z</time></trkpt><trkpt lat="38.1773683" lon="15.6523717"><ele>49.5</ele><time>2026-04-09T07:15:28.871Z</time></trkpt><trkpt lat="38.1776717" lon="15.6522417"><ele>50.0</ele><time>2026-04-09T07:15:29.871Z</time></trkpt><trkpt lat="38.1779833" lon="15.652105"><ele>48.5</ele><time>2026-04-09T07:15:30.871Z</time></trkpt><trkpt lat="38.178305" lon="15.65197"><ele>47.0</ele><time>2026-04-09T07:15:31.871Z</time></trkpt><trkpt lat="38.1786367" lon="15.6518317"><ele>46.5</ele><time>2026-04-09T07:15:32.871Z</time></trkpt><trkpt lat="38.1789817" lon="15.6516867"><ele>46.0</ele><time>2026-04-09T07:15:33.871Z</time></trkpt><trkpt lat="38.179325" lon="15.65153"><ele>49.0</ele><time>2026-04-09T07:15:34.872Z</time></trkpt><trkpt lat="38.17966" lon="15.65137"><ele>52.0</ele><time>2026-04-09T07:15:35.872Z</time></trkpt><trkpt lat="38.1800117" lon="15.65121"><ele>48.5</ele><time>2026-04-09T07:15:36.871Z</time></trkpt><trkpt lat="38.180365" lon="15.6510433"><ele>45.0</ele><time>2026-04-09T07:15:37.872Z</time></trkpt><trkpt lat="38.1807133" lon="15.6508583"><ele>44.0</ele><time>2026-04-09T07:15:38.872Z</time></trkpt><trkpt lat="38.1810517" lon="15.650655"><ele>43.0</ele><time>2026-04-09T07:15:39.871Z</time></trkpt><trkpt lat="38.18139" lon="15.6504333"><ele>41.5</ele><time>2026-04-09T07:15:40.872Z</time></trkpt><trkpt lat="38.1817133" lon="15.6502017"><ele>40.0</ele><time>2026-04-09T07:15:41.871Z</time></trkpt><trkpt lat="38.1820433" lon="15.6499633"><ele>44.5</ele><time>2026-04-09T07:15:42.871Z</time></trkpt><trkpt lat="38.1823717" lon="15.6497217"><ele>49.0</ele><time>2026-04-09T07:15:43.871Z</time></trkpt><trkpt lat="38.1827033" lon="15.649485"><ele>45.5</ele><time>2026-04-09T07:15:44.871Z</time></trkpt><trkpt lat="38.1830283" lon="15.6492383"><ele>42.0</ele><time>2026-04-09T07:15:45.872Z</time></trkpt><trkpt lat="38.18336" lon="15.6490067"><ele>41.0</ele><time>2026-04-09T07:15:46.872Z</time></trkpt><trkpt lat="38.1836817" lon="15.64879"><ele>40.0</ele><time>2026-04-09T07:15:47.872Z</time></trkpt><trkpt lat="38.184" lon="15.648605"><ele>38.0</ele><time>2026-04-09T07:15:48.872Z</time></trkpt><trkpt lat="38.1843233" lon="15.648455"><ele>36.0</ele><time>2026-04-09T07:15:49.871Z</time></trkpt><trkpt lat="38.1846517" lon="15.648335"><ele>37.5</ele><time>2026-04-09T07:15:50.871Z</time></trkpt><trkpt lat="38.1849733" lon="15.6482317"><ele>39.0</ele><time>2026-04-09T07:15:51.872Z</time></trkpt><trkpt lat="38.1852967" lon="15.6481517"><ele>39.0</ele><time>2026-04-09T07:15:52.871Z</time></trkpt><trkpt lat="38.185625" lon="15.6481017"><ele>39.0</ele><time>2026-04-09T07:15:53.871Z</time></trkpt><trkpt lat="38.1859483" lon="15.648075"><ele>38.0</ele><time>2026-04-09T07:15:54.872Z</time></trkpt><trkpt lat="38.186275" lon="15.6480783"><ele>37.0</ele><time>2026-04-09T07:15:55.872Z</time></trkpt><trkpt lat="38.1865933" lon="15.6480967"><ele>33.5</ele><time>2026-04-09T07:15:56.871Z</time></trkpt><trkpt lat="38.1869067" lon="15.64814"><ele>30.0</ele><time>2026-04-09T07:15:57.872Z</time></trkpt><trkpt lat="38.187225" lon="15.6482033"><ele>30.0</ele><time>2026-04-09T07:15:58.872Z</time></trkpt><trkpt lat="38.1875383" lon="15.6482867"><ele>30.0</ele><time>2026-04-09T07:15:59.872Z</time></trkpt><trkpt lat="38.1878517" lon="15.6483833"><ele>30.0</ele><time>2026-04-09T07:16:00.871Z</time></trkpt><trkpt lat="38.18815" lon="15.6485"><ele>30.0</ele><time>2026-04-09T07:16:01.871Z</time></trkpt><trkpt lat="38.1884433" lon="15.648605"><ele>31.0</ele><time>2026-04-09T07:16:02.872Z</time></trkpt><trkpt lat="38.1887367" lon="15.64871"><ele>32.0</ele><time>2026-04-09T07:16:03.871Z</time></trkpt><trkpt lat="38.18903" lon="15.6487883"><ele>30.0</ele><time>2026-04-09T07:16:04.872Z</time></trkpt><trkpt lat="38.18932" lon="15.6488417"><ele>28.0</ele><time>2026-04-09T07:16:05.871Z</time></trkpt><trkpt lat="38.1896083" lon="15.6488617"><ele>28.0</ele><time>2026-04-09T07:16:06.871Z</time></trkpt><trkpt lat="38.1899067" lon="15.6488617"><ele>28.0</ele><time>2026-04-09T07:16:07.871Z</time></trkpt><trkpt lat="38.19019" lon="15.6488367"><ele>28.0</ele><time>2026-04-09T07:16:08.872Z</time></trkpt><trkpt lat="38.1904583" lon="15.6487933"><ele>28.0</ele><time>2026-04-09T07:16:09.872Z</time></trkpt><trkpt lat="38.1907117" lon="15.6487217"><ele>29.0</ele><time>2026-04-09T07:16:10.872Z</time></trkpt><trkpt lat="38.1909467" lon="15.6486383"><ele>30.0</ele><time>2026-04-09T07:16:11.872Z</time></trkpt><trkpt lat="38.1911733" lon="15.6485483"><ele>30.0</ele><time>2026-04-09T07:16:12.871Z</time></trkpt><trkpt lat="38.1913917" lon="15.6484383"><ele>30.0</ele><time>2026-04-09T07:16:13.872Z</time></trkpt><trkpt lat="38.1916033" lon="15.6483133"><ele>30.666666666666664</ele><time>2026-04-09T07:16:14.872Z</time></trkpt><trkpt lat="38.1918017" lon="15.648175"><ele>31.333333333333332</ele><time>2026-04-09T07:16:15.871Z</time></trkpt><trkpt lat="38.1919883" lon="15.64803"><ele>32.0</ele><time>2026-04-09T07:16:16.871Z</time></trkpt><trkpt lat="38.192175" lon="15.6478733"><ele>32.5</ele><time>2026-04-09T07:16:17.871Z</time></trkpt><trkpt lat="38.1923583" lon="15.6476883"><ele>33.0</ele><time>2026-04-09T07:16:18.872Z</time></trkpt><trkpt lat="38.1925517" lon="15.6474867"><ele>33.0</ele><time>2026-04-09T07:16:19.871Z</time></trkpt><trkpt lat="38.192755" lon="15.6472767"><ele>33.0</ele><time>2026-04-09T07:16:20.871Z</time></trkpt><trkpt lat="38.19297" lon="15.6470633"><ele>34.5</ele><time>2026-04-09T07:16:21.871Z</time></trkpt><trkpt lat="38.193185" lon="15.6468467"><ele>36.0</ele><time>2026-04-09T07:16:22.872Z</time></trkpt><trkpt lat="38.1933967" lon="15.6466283"><ele>36.0</ele><time>2026-04-09T07:16:23.871Z</time></trkpt><trkpt lat="38.1935983" lon="15.6464183"><ele>36.0</ele><time>2026-04-09T07:16:24.871Z</time></trkpt><trkpt lat="38.1937817" lon="15.646215"><ele>35.5</ele><time>2026-04-09T07:16:25.872Z</time></trkpt><trkpt lat="38.19397" lon="15.64602"><ele>35.0</ele><time>2026-04-09T07:16:26.872Z</time></trkpt><trkpt lat="38.1941633" lon="15.6458217"><ele>35.0</ele><time>2026-04-09T07:16:27.872Z</time></trkpt><trkpt lat="38.1943617" lon="15.6456233"><ele>35.0</ele><time>2026-04-09T07:16:28.872Z</time></trkpt><trkpt lat="38.19457" lon="15.6454083"><ele>35.0</ele><time>2026-04-09T07:16:29.872Z</time></trkpt><trkpt lat="38.19479" lon="15.64518"><ele>35.0</ele><time>2026-04-09T07:16:30.871Z</time></trkpt><trkpt lat="38.1950233" lon="15.644945"><ele>34.5</ele><time>2026-04-09T07:16:31.872Z</time></trkpt><trkpt lat="38.1952617" lon="15.6446983"><ele>34.0</ele><time>2026-04-09T07:16:32.872Z</time></trkpt><trkpt lat="38.19551" lon="15.644445"><ele>36.5</ele><time>2026-04-09T07:16:33.872Z</time></trkpt><trkpt lat="38.1957483" lon="15.644195"><ele>39.0</ele><time>2026-04-09T07:16:34.872Z</time></trkpt><trkpt lat="38.1959833" lon="15.6439567"><ele>39.0</ele><time>2026-04-09T07:16:35.871Z</time></trkpt><trkpt lat="38.19622" lon="15.643715"><ele>39.0</ele><time>2026-04-09T07:16:36.871Z</time></trkpt><trkpt lat="38.1964533" lon="15.6434617"><ele>46.0</ele><time>2026-04-09T07:16:37.871Z</time></trkpt><trkpt lat="38.19669" lon="15.643215"><ele>53.0</ele><time>2026-04-09T07:16:38.872Z</time></trkpt><trkpt lat="38.1969317" lon="15.6429767"><ele>54.0</ele><time>2026-04-09T07:16:39.871Z</time></trkpt><trkpt lat="38.19718" lon="15.64275"><ele>55.0</ele><time>2026-04-09T07:16:40.871Z</time></trkpt><trkpt lat="38.1974467" lon="15.6425283"><ele>55.0</ele><time>2026-04-09T07:16:41.872Z</time></trkpt><trkpt lat="38.1977283" lon="15.642315"><ele>55.0</ele><time>2026-04-09T07:16:42.872Z</time></trkpt><trkpt lat="38.1980217" lon="15.6421167"><ele>55.0</ele><time>2026-04-09T07:16:43.871Z</time></trkpt><trkpt lat="38.1983233" lon="15.6419383"><ele>55.0</ele><time>2026-04-09T07:16:44.871Z</time></trkpt><trkpt lat="38.1986283" lon="15.641785"><ele>55.0</ele><time>2026-04-09T07:16:45.872Z</time></trkpt><trkpt lat="38.1989433" lon="15.6416333"><ele>55.0</ele><time>2026-04-09T07:16:46.872Z</time></trkpt><trkpt lat="38.1992683" lon="15.6414933"><ele>57.0</ele><time>2026-04-09T07:16:47.871Z</time></trkpt><trkpt lat="38.1995917" lon="15.641345"><ele>59.0</ele><time>2026-04-09T07:16:48.872Z</time></trkpt><trkpt lat="38.1999017" lon="15.6412183"><ele>58.0</ele><time>2026-04-09T07:16:49.872Z</time></trkpt><trkpt lat="38.2002" lon="15.6411017"><ele>57.0</ele><time>2026-04-09T07:16:50.871Z</time></trkpt><trkpt lat="38.2005" lon="15.641015"><ele>56.0</ele><time>2026-04-09T07:16:51.871Z</time></trkpt><trkpt lat="38.2008033" lon="15.64094"><ele>55.0</ele><time>2026-04-09T07:16:52.871Z</time></trkpt><trkpt lat="38.2010983" lon="15.640875"><ele>55.0</ele><time>2026-04-09T07:16:53.872Z</time></trkpt><trkpt lat="38.2013917" lon="15.6408317"><ele>55.0</ele><time>2026-04-09T07:16:54.871Z</time></trkpt><trkpt lat="38.201685" lon="15.6407983"><ele>56.0</ele><time>2026-04-09T07:16:55.871Z</time></trkpt><trkpt lat="38.2019833" lon="15.64077"><ele>57.0</ele><time>2026-04-09T07:16:56.871Z</time></trkpt><trkpt lat="38.2022883" lon="15.6407583"><ele>58.5</ele><time>2026-04-09T07:16:57.871Z</time></trkpt><trkpt lat="38.2025983" lon="15.6407533"><ele>60.0</ele><time>2026-04-09T07:16:58.871Z</time></trkpt><trkpt lat="38.20291" lon="15.64077"><ele>58.0</ele><time>2026-04-09T07:16:59.872Z</time></trkpt><trkpt lat="38.2032267" lon="15.640775"><ele>56.0</ele><time>2026-04-09T07:17:00.872Z</time></trkpt><trkpt lat="38.203555" lon="15.6407867"><ele>56.0</ele><time>2026-04-09T07:17:01.871Z</time></trkpt><trkpt lat="38.20388" lon="15.6408"><ele>56.0</ele><time>2026-04-09T07:17:02.872Z</time></trkpt><trkpt lat="38.2042133" lon="15.6408167"><ele>54.5</ele><time>2026-04-09T07:17:03.872Z</time></trkpt><trkpt lat="38.20454" lon="15.640825"><ele>53.0</ele><time>2026-04-09T07:17:04.872Z</time></trkpt><trkpt lat="38.204855" lon="15.6408483"><ele>53.0</ele><time>2026-04-09T07:17:05.872Z</time></trkpt><trkpt lat="38.2051833" lon="15.64088"><ele>53.0</ele><time>2026-04-09T07:17:06.872Z</time></trkpt><trkpt lat="38.2055133" lon="15.6409217"><ele>55.0</ele><time>2026-04-09T07:17:07.872Z</time></trkpt><trkpt lat="38.2058583" lon="15.640995"><ele>57.0</ele><time>2026-04-09T07:17:08.872Z</time></trkpt><trkpt lat="38.2062033" lon="15.6410933"><ele>59.0</ele><time>2026-04-09T07:17:09.872Z</time></trkpt><trkpt lat="38.2065467" lon="15.641205"><ele>61.0</ele><time>2026-04-09T07:17:10.872Z</time></trkpt><trkpt lat="38.2069033" lon="15.6413317"><ele>61.0</ele><time>2026-04-09T07:17:11.872Z</time></trkpt><trkpt lat="38.2072617" lon="15.641475"><ele>61.0</ele><time>2026-04-09T07:17:12.872Z</time></trkpt><trkpt lat="38.2076167" lon="15.64164"><ele>61.0</ele><time>2026-04-09T07:17:13.872Z</time></trkpt><trkpt lat="38.2079483" lon="15.6418117"><ele>61.0</ele><time>2026-04-09T07:17:14.872Z</time></trkpt><trkpt lat="38.2082467" lon="15.6419867"><ele>61.0</ele><time>2026-04-09T07:17:15.871Z</time></trkpt><trkpt lat="38.208485" lon="15.64215"><ele>61.0</ele><time>2026-04-09T07:17:16.871Z</time></trkpt><trkpt lat="38.208685" lon="15.6423017"><ele>61.0</ele><time>2026-04-09T07:17:17.871Z</time></trkpt><trkpt lat="38.20886" lon="15.6424583"><ele>61.0</ele><time>2026-04-09T07:17:18.871Z</time></trkpt><trkpt lat="38.2090133" lon="15.642605"><ele>61.0</ele><time>2026-04-09T07:17:19.871Z</time></trkpt><trkpt lat="38.2091333" lon="15.6427467"><ele>64.66666666666666</ele><time>2026-04-09T07:17:20.872Z</time></trkpt><trkpt lat="38.2092317" lon="15.6429133"><ele>68.33333333333333</ele><time>2026-04-09T07:17:21.871Z</time></trkpt><trkpt lat="38.2093317" lon="15.6430583"><ele>72.0</ele><time>2026-04-09T07:17:22.872Z</time></trkpt><trkpt lat="38.20944" lon="15.6431617"><ele>72.0</ele><time>2026-04-09T07:17:23.872Z</time></trkpt><trkpt lat="38.2095633" lon="15.643225"><ele>72.0</ele><time>2026-04-09T07:17:24.872Z</time></trkpt><trkpt lat="38.2096583" lon="15.64328"><ele>72.0</ele><time>2026-04-09T07:17:25.871Z</time></trkpt><trkpt lat="38.2097417" lon="15.643345"><ele>72.0</ele><time>2026-04-09T07:17:26.871Z</time></trkpt><trkpt lat="38.2098233" lon="15.6434233"><ele>72.0</ele><time>2026-04-09T07:17:27.871Z</time></trkpt><trkpt lat="38.2098967" lon="15.64349"><ele>72.33333333333333</ele><time>2026-04-09T07:17:28.872Z</time></trkpt><trkpt lat="38.20996" lon="15.6435483"><ele>72.66666666666667</ele><time>2026-04-09T07:17:29.872Z</time></trkpt><trkpt lat="38.2099983" lon="15.64367"><ele>73.0</ele><time>2026-04-09T07:17:31.871Z</time></trkpt><trkpt lat="38.209915" lon="15.64367"><ele>73.33333333333334</ele><time>2026-04-09T07:17:35.872Z</time></trkpt><trkpt lat="38.2098583" lon="15.64358"><ele>73.66666666666667</ele><time>2026-04-09T07:17:37.871Z</time></trkpt><trkpt lat="38.209885" lon="15.64366"><ele>74.0</ele><time>2026-04-09T07:27:59.871Z</time></trkpt><trkpt lat="38.2099517" lon="15.6437267"><ele>76.0</ele><time>2026-04-09T07:28:01.871Z</time></trkpt><trkpt lat="38.2100317" lon="15.6437883"><ele>78.0</ele><time>2026-04-09T07:28:03.871Z</time></trkpt><trkpt lat="38.2101233" lon="15.6438833"><ele>80.0</ele><time>2026-04-09T07:28:05.871Z</time></trkpt><trkpt lat="38.21019" lon="15.6439433"><ele>82.0</ele><time>2026-04-09T07:28:06.871Z</time></trkpt><trkpt lat="38.21028" lon="15.64401"><ele>84.0</ele><time>2026-04-09T07:28:07.872Z</time></trkpt><trkpt lat="38.2103717" lon="15.64407"><ele>84.0</ele><time>2026-04-09T07:28:08.872Z</time></trkpt><trkpt lat="38.2104667" lon="15.6441233"><ele>84.0</ele><time>2026-04-09T07:28:09.871Z</time></trkpt><trkpt lat="38.2105633" lon="15.644175"><ele>84.0</ele><time>2026-04-09T07:28:10.871Z</time></trkpt><trkpt lat="38.2106583" lon="15.6442367"><ele>84.0</ele><time>2026-04-09T07:28:11.872Z</time></trkpt><trkpt lat="38.2107483" lon="15.6443183"><ele>84.0</ele><time>2026-04-09T07:28:12.872Z</time></trkpt><trkpt lat="38.2108533" lon="15.6444167"><ele>85.75</ele><time>2026-04-09T07:28:13.871Z</time></trkpt><trkpt lat="38.2109617" lon="15.6445267"><ele>87.5</ele><time>2026-04-09T07:28:14.872Z</time></trkpt><trkpt lat="38.2110767" lon="15.6446467"><ele>89.25</ele><time>2026-04-09T07:28:15.872Z</time></trkpt><trkpt lat="38.2112" lon="15.6447783"><ele>91.0</ele><time>2026-04-09T07:28:16.872Z</time></trkpt><trkpt lat="38.2113283" lon="15.644905"><ele>91.0</ele><time>2026-04-09T07:28:17.872Z</time></trkpt><trkpt lat="38.211465" lon="15.645045"><ele>91.0</ele><time>2026-04-09T07:28:18.872Z</time></trkpt><trkpt lat="38.2116017" lon="15.6452"><ele>91.0</ele><time>2026-04-09T07:28:19.872Z</time></trkpt><trkpt lat="38.2117567" lon="15.645365"><ele>92.33333333333333</ele><time>2026-04-09T07:28:20.871Z</time></trkpt><trkpt lat="38.2119233" lon="15.6455417"><ele>93.66666666666667</ele><time>2026-04-09T07:28:21.871Z</time></trkpt><trkpt lat="38.2120967" lon="15.6457217"><ele>95.0</ele><time>2026-04-09T07:28:22.872Z</time></trkpt><trkpt lat="38.2122883" lon="15.6458883"><ele>88.0</ele><time>2026-04-09T07:28:23.872Z</time></trkpt><trkpt lat="38.2124733" lon="15.6460583"><ele>81.0</ele><time>2026-04-09T07:28:24.872Z</time></trkpt><trkpt lat="38.2126617" lon="15.6462233"><ele>77.0</ele><time>2026-04-09T07:28:25.872Z</time></trkpt><trkpt lat="38.2128517" lon="15.6463867"><ele>73.0</ele><time>2026-04-09T07:28:26.871Z</time></trkpt><trkpt lat="38.2130417" lon="15.646545"><ele>76.0</ele><time>2026-04-09T07:28:27.871Z</time></trkpt><trkpt lat="38.21324" lon="15.6466967"><ele>79.0</ele><time>2026-04-09T07:28:28.871Z</time></trkpt><trkpt lat="38.2134367" lon="15.646835"><ele>81.0</ele><time>2026-04-09T07:28:29.872Z</time></trkpt><trkpt lat="38.2136467" lon="15.6469683"><ele>83.0</ele><time>2026-04-09T07:28:30.872Z</time></trkpt><trkpt lat="38.2138517" lon="15.6470967"><ele>91.5</ele><time>2026-04-09T07:28:31.872Z</time></trkpt><trkpt lat="38.2140633" lon="15.6472117"><ele>100.0</ele><time>2026-04-09T07:28:32.871Z</time></trkpt><trkpt lat="38.2142717" lon="15.647325"><ele>100.0</ele><time>2026-04-09T07:28:33.872Z</time></trkpt><trkpt lat="38.2144917" lon="15.6474317"><ele>100.0</ele><time>2026-04-09T07:28:34.871Z</time></trkpt><trkpt lat="38.2147067" lon="15.6475483"><ele>101.0</ele><time>2026-04-09T07:28:35.872Z</time></trkpt><trkpt lat="38.21494" lon="15.6476467"><ele>102.0</ele><time>2026-04-09T07:28:36.872Z</time></trkpt><trkpt lat="38.2151783" lon="15.6477333"><ele>106.5</ele><time>2026-04-09T07:28:37.872Z</time></trkpt><trkpt lat="38.2154183" lon="15.6478067"><ele>111.0</ele><time>2026-04-09T07:28:38.872Z</time></trkpt><trkpt lat="38.21567" lon="15.64789"><ele>112.0</ele><time>2026-04-09T07:28:39.871Z</time></trkpt><trkpt lat="38.2159217" lon="15.6479483"><ele>113.0</ele><time>2026-04-09T07:28:40.872Z</time></trkpt><trkpt lat="38.2161783" lon="15.6480117"><ele>113.0</ele><time>2026-04-09T07:28:41.871Z</time></trkpt><trkpt lat="38.2164433" lon="15.6480633"><ele>113.0</ele><time>2026-04-09T07:28:42.872Z</time></trkpt><trkpt lat="38.2167017" lon="15.6480917"><ele>111.5</ele><time>2026-04-09T07:28:43.872Z</time></trkpt><trkpt lat="38.2169633" lon="15.6481183"><ele>110.0</ele><time>2026-04-09T07:28:44.871Z</time></trkpt><trkpt lat="38.2172317" lon="15.6481383"><ele>111.5</ele><time>2026-04-09T07:28:45.871Z</time></trkpt><trkpt lat="38.2174983" lon="15.6481567"><ele>113.0</ele><time>2026-04-09T07:28:46.872Z</time></trkpt><trkpt lat="38.217765" lon="15.6481767"><ele>113.0</ele><time>2026-04-09T07:28:47.871Z</time></trkpt><trkpt lat="38.2180333" lon="15.64819"><ele>113.0</ele><time>2026-04-09T07:28:48.872Z</time></trkpt><trkpt lat="38.2182917" lon="15.6481833"><ele>113.0</ele><time>2026-04-09T07:28:49.871Z</time></trkpt><trkpt lat="38.2185633" lon="15.64816"><ele>113.0</ele><time>2026-04-09T07:28:50.871Z</time></trkpt><trkpt lat="38.218825" lon="15.6481233"><ele>110.0</ele><time>2026-04-09T07:28:51.871Z</time></trkpt><trkpt lat="38.2190917" lon="15.6480917"><ele>107.0</ele><time>2026-04-09T07:28:52.871Z</time></trkpt><trkpt lat="38.219365" lon="15.648075"><ele>107.0</ele><time>2026-04-09T07:28:53.872Z</time></trkpt><trkpt lat="38.2196317" lon="15.648055"><ele>107.0</ele><time>2026-04-09T07:28:54.872Z</time></trkpt><trkpt lat="38.2199067" lon="15.6480433"><ele>97.0</ele><time>2026-04-09T07:28:55.872Z</time></trkpt><trkpt lat="38.2201733" lon="15.64805"><ele>87.0</ele><time>2026-04-09T07:28:56.872Z</time></trkpt><trkpt lat="38.2204483" lon="15.64806"><ele>91.0</ele><time>2026-04-09T07:28:57.872Z</time></trkpt><trkpt lat="38.2207217" lon="15.64809"><ele>95.0</ele><time>2026-04-09T07:28:58.871Z</time></trkpt><trkpt lat="38.2209983" lon="15.6481217"><ele>95.0</ele><time>2026-04-09T07:28:59.872Z</time></trkpt><trkpt lat="38.2212717" lon="15.64817"><ele>95.0</ele><time>2026-04-09T07:29:00.871Z</time></trkpt><trkpt lat="38.2215383" lon="15.6482267"><ele>96.5</ele><time>2026-04-09T07:29:01.871Z</time></trkpt><trkpt lat="38.2218067" lon="15.648285"><ele>98.0</ele><time>2026-04-09T07:29:02.872Z</time></trkpt><trkpt lat="38.2220767" lon="15.6483433"><ele>125.0</ele><time>2026-04-09T07:29:03.872Z</time></trkpt><trkpt lat="38.2287733" lon="15.6552283"><ele>132.0</ele><time>2026-04-09T07:29:36.871Z</time></trkpt><trkpt lat="38.228885" lon="15.6555433"><ele>139.0</ele><time>2026-04-09T07:29:37.872Z</time></trkpt><trkpt lat="38.22901" lon="15.6558617"><ele>124.5</ele><time>2026-04-09T07:29:38.871Z</time></trkpt><trkpt lat="38.2291167" lon="15.65618"><ele>110.0</ele><time>2026-04-09T07:29:39.872Z</time></trkpt><trkpt lat="38.2292167" lon="15.656495"><ele>110.0</ele><time>2026-04-09T07:29:40.873Z</time></trkpt><trkpt lat="38.2293183" lon="15.6568083"><ele>110.0</ele><time>2026-04-09T07:29:41.873Z</time></trkpt><trkpt lat="38.2294167" lon="15.6571233"><ele>114.0</ele><time>2026-04-09T07:29:42.872Z</time></trkpt><trkpt lat="38.2295167" lon="15.6574417"><ele>118.0</ele><time>2026-04-09T07:29:43.872Z</time></trkpt><trkpt lat="38.2296167" lon="15.6577583"><ele>119.5</ele><time>2026-04-09T07:29:44.872Z</time></trkpt><trkpt lat="38.22972" lon="15.658075"><ele>121.0</ele><time>2026-04-09T07:29:45.873Z</time></trkpt><trkpt lat="38.2298233" lon="15.6583917"><ele>110.0</ele><time>2026-04-09T07:29:46.872Z</time></trkpt><trkpt lat="38.22992" lon="15.6587133"><ele>99.0</ele><time>2026-04-09T07:29:47.873Z</time></trkpt><trkpt lat="38.230015" lon="15.6590383"><ele>99.0</ele><time>2026-04-09T07:29:48.873Z</time></trkpt><trkpt lat="38.230095" lon="15.6593667"><ele>99.0</ele><time>2026-04-09T07:29:49.873Z</time></trkpt><trkpt lat="38.23018" lon="15.65969"><ele>102.0</ele><time>2026-04-09T07:29:50.872Z</time></trkpt><trkpt lat="38.2302683" lon="15.6600183"><ele>105.0</ele><time>2026-04-09T07:29:51.873Z</time></trkpt><trkpt lat="38.2303617" lon="15.6603433"><ele>111.5</ele><time>2026-04-09T07:29:52.873Z</time></trkpt><trkpt lat="38.2304583" lon="15.660665"><ele>118.0</ele><time>2026-04-09T07:29:53.872Z</time></trkpt><trkpt lat="38.23055" lon="15.660985"><ele>107.5</ele><time>2026-04-09T07:29:54.872Z</time></trkpt><trkpt lat="38.230645" lon="15.6613033"><ele>97.0</ele><time>2026-04-09T07:29:55.873Z</time></trkpt><trkpt lat="38.23074" lon="15.6616217"><ele>102.0</ele><time>2026-04-09T07:29:56.873Z</time></trkpt><trkpt lat="38.2308233" lon="15.66195"><ele>107.0</ele><time>2026-04-09T07:29:57.873Z</time></trkpt><trkpt lat="38.2309067" lon="15.6622733"><ele>107.0</ele><time>2026-04-09T07:29:58.872Z</time></trkpt><trkpt lat="38.2309967" lon="15.66259"><ele>107.0</ele><time>2026-04-09T07:29:59.872Z</time></trkpt><trkpt lat="38.231095" lon="15.6628967"><ele>110.5</ele><time>2026-04-09T07:30:00.873Z</time></trkpt><trkpt lat="38.2311883" lon="15.6632167"><ele>114.0</ele><time>2026-04-09T07:30:01.872Z</time></trkpt><trkpt lat="38.231275" lon="15.6635467"><ele>113.5</ele><time>2026-04-09T07:30:02.873Z</time></trkpt><trkpt lat="38.2313617" lon="15.6638667"><ele>113.0</ele><time>2026-04-09T07:30:03.872Z</time></trkpt><trkpt lat="38.231455" lon="15.6641867"><ele>105.5</ele><time>2026-04-09T07:30:04.873Z</time></trkpt><trkpt lat="38.23155" lon="15.6645067"><ele>98.0</ele><time>2026-04-09T07:30:05.872Z</time></trkpt><trkpt lat="38.2316467" lon="15.664825"><ele>98.0</ele><time>2026-04-09T07:30:06.872Z</time></trkpt><trkpt lat="38.2317517" lon="15.6651417"><ele>98.0</ele><time>2026-04-09T07:30:07.873Z</time></trkpt><trkpt lat="38.231855" lon="15.66546"><ele>103.0</ele><time>2026-04-09T07:30:08.873Z</time></trkpt><trkpt lat="38.231965" lon="15.6657717"><ele>108.0</ele><time>2026-04-09T07:30:09.873Z</time></trkpt><trkpt lat="38.2320633" lon="15.66609"><ele>116.0</ele><time>2026-04-09T07:30:10.872Z</time></trkpt><trkpt lat="38.2321667" lon="15.6664017"><ele>124.0</ele><time>2026-04-09T07:30:11.873Z</time></trkpt><trkpt lat="38.23227" lon="15.6667167"><ele>115.5</ele><time>2026-04-09T07:30:12.873Z</time></trkpt><trkpt lat="38.2323717" lon="15.6670317"><ele>107.0</ele><time>2026-04-09T07:30:13.873Z</time></trkpt><trkpt lat="38.232475" lon="15.667345"><ele>107.0</ele><time>2026-04-09T07:30:14.872Z</time></trkpt><trkpt lat="38.23259" lon="15.6676483"><ele>107.0</ele><time>2026-04-09T07:30:15.873Z</time></trkpt><trkpt lat="38.2327017" lon="15.6679683"><ele>108.0</ele><time>2026-04-09T07:30:16.873Z</time></trkpt><trkpt lat="38.2328067" lon="15.66829"><ele>109.0</ele><time>2026-04-09T07:30:17.873Z</time></trkpt><trkpt lat="38.232915" lon="15.6686033"><ele>116.0</ele><time>2026-04-09T07:30:18.872Z</time></trkpt><trkpt lat="38.2330217" lon="15.6689167"><ele>123.0</ele><time>2026-04-09T07:30:19.872Z</time></trkpt><trkpt lat="38.233125" lon="15.669235"><ele>118.0</ele><time>2026-04-09T07:30:20.873Z</time></trkpt><trkpt lat="38.2332317" lon="15.6695533"><ele>113.0</ele><time>2026-04-09T07:30:21.873Z</time></trkpt><trkpt lat="38.2333433" lon="15.6698667"><ele>113.0</ele><time>2026-04-09T07:30:22.872Z</time></trkpt><trkpt lat="38.233455" lon="15.6701767"><ele>113.0</ele><time>2026-04-09T07:30:23.872Z</time></trkpt><trkpt lat="38.23357" lon="15.6704917"><ele>119.0</ele><time>2026-04-09T07:30:24.873Z</time></trkpt><trkpt lat="38.2336867" lon="15.6708017"><ele>125.0</ele><time>2026-04-09T07:30:25.873Z</time></trkpt><trkpt lat="38.2338017" lon="15.6711117"><ele>128.0</ele><time>2026-04-09T07:30:26.872Z</time></trkpt><trkpt lat="38.233925" lon="15.6714233"><ele>131.0</ele><time>2026-04-09T07:30:27.872Z</time></trkpt><trkpt lat="38.2340483" lon="15.6717233"><ele>128.5</ele><time>2026-04-09T07:30:28.873Z</time></trkpt><trkpt lat="38.2341767" lon="15.67203"><ele>126.0</ele><time>2026-04-09T07:30:29.873Z</time></trkpt><trkpt lat="38.2343083" lon="15.6723317"><ele>126.0</ele><time>2026-04-09T07:30:30.873Z</time></trkpt><trkpt lat="38.2344433" lon="15.6726333"><ele>126.0</ele><time>2026-04-09T07:30:31.873Z</time></trkpt><trkpt lat="38.2345733" lon="15.6729317"><ele>130.5</ele><time>2026-04-09T07:30:32.872Z</time></trkpt><trkpt lat="38.2346983" lon="15.6732317"><ele>135.0</ele><time>2026-04-09T07:30:33.872Z</time></trkpt><trkpt lat="38.23483" lon="15.6735317"><ele>128.5</ele><time>2026-04-09T07:30:34.873Z</time></trkpt><trkpt lat="38.2349633" lon="15.67383"><ele>122.0</ele><time>2026-04-09T07:30:35.872Z</time></trkpt><trkpt lat="38.2350933" lon="15.6741283"><ele>122.0</ele><time>2026-04-09T07:30:36.873Z</time></trkpt><trkpt lat="38.23523" lon="15.6744233"><ele>122.0</ele><time>2026-04-09T07:30:37.873Z</time></trkpt><trkpt lat="38.2353633" lon="15.674725"><ele>128.0</ele><time>2026-04-09T07:30:38.872Z</time></trkpt><trkpt lat="38.2355033" lon="15.6750233"><ele>134.0</ele><time>2026-04-09T07:30:39.872Z</time></trkpt><trkpt lat="38.23564" lon="15.67532"><ele>117.5</ele><time>2026-04-09T07:30:40.872Z</time></trkpt><trkpt lat="38.23577" lon="15.675625"><ele>101.0</ele><time>2026-04-09T07:30:41.873Z</time></trkpt><trkpt lat="38.235885" lon="15.6759233"><ele>112.0</ele><time>2026-04-09T07:30:42.872Z</time></trkpt><trkpt lat="38.2360217" lon="15.6762233"><ele>123.0</ele><time>2026-04-09T07:30:43.872Z</time></trkpt><trkpt lat="38.2361533" lon="15.6765233"><ele>123.0</ele><time>2026-04-09T07:30:44.873Z</time></trkpt><trkpt lat="38.2362883" lon="15.6768183"><ele>123.0</ele><time>2026-04-09T07:30:45.873Z</time></trkpt><trkpt lat="38.2364233" lon="15.6771033"><ele>123.0</ele><time>2026-04-09T07:30:46.873Z</time></trkpt><trkpt lat="38.23657" lon="15.677395"><ele>123.0</ele><time>2026-04-09T07:30:47.873Z</time></trkpt><trkpt lat="38.2367283" lon="15.6776767"><ele>132.5</ele><time>2026-04-09T07:30:48.872Z</time></trkpt><trkpt lat="38.2368983" lon="15.6779467"><ele>142.0</ele><time>2026-04-09T07:30:49.873Z</time></trkpt><trkpt lat="38.2370783" lon="15.6782083"><ele>142.0</ele><time>2026-04-09T07:30:50.872Z</time></trkpt><trkpt lat="38.237255" lon="15.6784683"><ele>142.0</ele><time>2026-04-09T07:30:51.873Z</time></trkpt><trkpt lat="38.237445" lon="15.6787167"><ele>137.5</ele><time>2026-04-09T07:30:52.873Z</time></trkpt><trkpt lat="38.2376317" lon="15.6789483"><ele>133.0</ele><time>2026-04-09T07:30:53.872Z</time></trkpt><trkpt lat="38.23782" lon="15.6791867"><ele>133.0</ele><time>2026-04-09T07:30:54.873Z</time></trkpt><trkpt lat="38.2380167" lon="15.6794167"><ele>133.0</ele><time>2026-04-09T07:30:55.873Z</time></trkpt><trkpt lat="38.2382167" lon="15.6796367"><ele>119.5</ele><time>2026-04-09T07:30:56.873Z</time></trkpt><trkpt lat="38.2384283" lon="15.6798517"><ele>106.0</ele><time>2026-04-09T07:30:57.872Z</time></trkpt><trkpt lat="38.2386467" lon="15.680055"><ele>106.0</ele><time>2026-04-09T07:30:58.872Z</time></trkpt><trkpt lat="38.23887" lon="15.6802467"><ele>106.0</ele><time>2026-04-09T07:30:59.872Z</time></trkpt><trkpt lat="38.2390867" lon="15.6804383"><ele>111.0</ele><time>2026-04-09T07:31:00.872Z</time></trkpt><trkpt lat="38.239315" lon="15.6806283"><ele>116.0</ele><time>2026-04-09T07:31:01.873Z</time></trkpt><trkpt lat="38.23954" lon="15.6808167"><ele>116.0</ele><time>2026-04-09T07:31:02.872Z</time></trkpt><trkpt lat="38.2397583" lon="15.6810067"><ele>116.0</ele><time>2026-04-09T07:31:03.873Z</time></trkpt><trkpt lat="38.2399817" lon="15.681195"><ele>130.0</ele><time>2026-04-09T07:31:04.872Z</time></trkpt><trkpt lat="38.2402" lon="15.6813967"><ele>144.0</ele><time>2026-04-09T07:31:05.872Z</time></trkpt><trkpt lat="38.2404183" lon="15.6815883"><ele>139.5</ele><time>2026-04-09T07:31:06.873Z</time></trkpt><trkpt lat="38.240635" lon="15.6817933"><ele>135.0</ele><time>2026-04-09T07:31:07.872Z</time></trkpt><trkpt lat="38.2408583" lon="15.6819933"><ele>145.0</ele><time>2026-04-09T07:31:08.873Z</time></trkpt><trkpt lat="38.24108" lon="15.6821933"><ele>155.0</ele><time>2026-04-09T07:31:09.873Z</time></trkpt><trkpt lat="38.2413017" lon="15.68239"><ele>149.5</ele><time>2026-04-09T07:31:10.872Z</time></trkpt><trkpt lat="38.2415233" lon="15.6825883"><ele>144.0</ele><time>2026-04-09T07:31:11.873Z</time></trkpt><trkpt lat="38.2445183" lon="15.68934"><ele>131.0</ele><time>2026-04-09T07:31:33.872Z</time></trkpt><trkpt lat="38.2445667" lon="15.6896683"><ele>118.0</ele><time>2026-04-09T07:31:34.871Z</time></trkpt><trkpt lat="38.2446567" lon="15.6900083"><ele>128.0</ele><time>2026-04-09T07:31:35.871Z</time></trkpt><trkpt lat="38.2447567" lon="15.6903383"><ele>138.0</ele><time>2026-04-09T07:31:36.872Z</time></trkpt><trkpt lat="38.2448633" lon="15.6906667"><ele>151.5</ele><time>2026-04-09T07:31:37.872Z</time></trkpt><trkpt lat="38.2449717" lon="15.6909983"><ele>165.0</ele><time>2026-04-09T07:31:38.872Z</time></trkpt><trkpt lat="38.2450783" lon="15.6913367"><ele>188.5</ele><time>2026-04-09T07:31:39.871Z</time></trkpt><trkpt lat="38.2451867" lon="15.6916733"><ele>212.0</ele><time>2026-04-09T07:31:40.872Z</time></trkpt><trkpt lat="38.245295" lon="15.6920117"><ele>112.0</ele><time>2026-04-09T07:31:41.872Z</time></trkpt><trkpt lat="38.2481133" lon="15.7145267"><ele>108.0</ele><time>2026-04-09T07:32:44.871Z</time></trkpt><trkpt lat="38.2482" lon="15.7148533"><ele>104.0</ele><time>2026-04-09T07:32:45.871Z</time></trkpt><trkpt lat="38.2482533" lon="15.7151833"><ele>117.5</ele><time>2026-04-09T07:32:46.872Z</time></trkpt><trkpt lat="38.2483133" lon="15.71553"><ele>131.0</ele><time>2026-04-09T07:32:47.872Z</time></trkpt><trkpt lat="38.2483733" lon="15.7158833"><ele>143.0</ele><time>2026-04-09T07:32:48.871Z</time></trkpt><trkpt lat="38.248415" lon="15.71624"><ele>155.0</ele><time>2026-04-09T07:32:49.872Z</time></trkpt><trkpt lat="38.2484533" lon="15.716595"><ele>158.0</ele><time>2026-04-09T07:32:50.872Z</time></trkpt><trkpt lat="38.2484783" lon="15.71695"><ele>161.0</ele><time>2026-04-09T07:32:51.872Z</time></trkpt><trkpt lat="38.2484983" lon="15.7173033"><ele>161.0</ele><time>2026-04-09T07:32:52.871Z</time></trkpt><trkpt lat="38.2485133" lon="15.7176583"><ele>161.0</ele><time>2026-04-09T07:32:53.872Z</time></trkpt><trkpt lat="38.2484917" lon="15.7180233"><ele>157.5</ele><time>2026-04-09T07:32:54.872Z</time></trkpt><trkpt lat="38.2484983" lon="15.7183733"><ele>154.0</ele><time>2026-04-09T07:32:55.872Z</time></trkpt><trkpt lat="38.2485233" lon="15.71874"><ele>152.0</ele><time>2026-04-09T07:32:56.871Z</time></trkpt><trkpt lat="38.2485317" lon="15.7191083"><ele>150.0</ele><time>2026-04-09T07:32:57.872Z</time></trkpt><trkpt lat="38.2485233" lon="15.719475"><ele>148.5</ele><time>2026-04-09T07:32:58.872Z</time></trkpt><trkpt lat="38.248485" lon="15.7198517"><ele>147.0</ele><time>2026-04-09T07:32:59.871Z</time></trkpt><trkpt lat="38.248485" lon="15.7202067"><ele>148.0</ele><time>2026-04-09T07:33:00.872Z</time></trkpt><trkpt lat="38.2484817" lon="15.720565"><ele>149.0</ele><time>2026-04-09T07:33:01.872Z</time></trkpt><trkpt lat="38.2484733" lon="15.7209283"><ele>145.5</ele><time>2026-04-09T07:33:02.871Z</time></trkpt><trkpt lat="38.24847" lon="15.72129"><ele>142.0</ele><time>2026-04-09T07:33:03.872Z</time></trkpt><trkpt lat="38.24846" lon="15.721655"><ele>141.5</ele><time>2026-04-09T07:33:04.872Z</time></trkpt><trkpt lat="38.2484517" lon="15.7220167"><ele>141.0</ele><time>2026-04-09T07:33:05.872Z</time></trkpt><trkpt lat="38.248445" lon="15.722385"><ele>145.0</ele><time>2026-04-09T07:33:06.871Z</time></trkpt><trkpt lat="38.248445" lon="15.7227483"><ele>149.0</ele><time>2026-04-09T07:33:07.871Z</time></trkpt><trkpt lat="38.2484283" lon="15.7231133"><ele>149.0</ele><time>2026-04-09T07:33:08.872Z</time></trkpt><trkpt lat="38.2484217" lon="15.7234717"><ele>149.0</ele><time>2026-04-09T07:33:09.872Z</time></trkpt><trkpt lat="38.2484183" lon="15.7238383"><ele>149.5</ele><time>2026-04-09T07:33:10.871Z</time></trkpt><trkpt lat="38.2484083" lon="15.7242"><ele>150.0</ele><time>2026-04-09T07:33:11.872Z</time></trkpt><trkpt lat="38.2484067" lon="15.7245583"><ele>152.0</ele><time>2026-04-09T07:33:12.872Z</time></trkpt><trkpt lat="38.2484067" lon="15.7249083"><ele>154.0</ele><time>2026-04-09T07:33:13.872Z</time></trkpt><trkpt lat="38.2484183" lon="15.725265"><ele>154.0</ele><time>2026-04-09T07:33:14.872Z</time></trkpt><trkpt lat="38.2484183" lon="15.7256183"><ele>154.0</ele><time>2026-04-09T07:33:15.872Z</time></trkpt><trkpt lat="38.2484233" lon="15.7259683"><ele>144.5</ele><time>2026-04-09T07:33:16.872Z</time></trkpt><trkpt lat="38.2484317" lon="15.726325"><ele>135.0</ele><time>2026-04-09T07:33:17.872Z</time></trkpt><trkpt lat="38.2484433" lon="15.7266783"><ele>138.0</ele><time>2026-04-09T07:33:18.872Z</time></trkpt><trkpt lat="38.2484517" lon="15.7270267"><ele>141.0</ele><time>2026-04-09T07:33:19.872Z</time></trkpt><trkpt lat="38.2484567" lon="15.7273733"><ele>149.5</ele><time>2026-04-09T07:33:20.871Z</time></trkpt><trkpt lat="38.2484583" lon="15.7277317"><ele>158.0</ele><time>2026-04-09T07:33:21.871Z</time></trkpt><trkpt lat="38.2484533" lon="15.7280783"><ele>158.0</ele><time>2026-04-09T07:33:22.871Z</time></trkpt><trkpt lat="38.2484567" lon="15.728445"><ele>158.0</ele><time>2026-04-09T07:33:23.871Z</time></trkpt><trkpt lat="38.248465" lon="15.7288017"><ele>161.5</ele><time>2026-04-09T07:33:24.872Z</time></trkpt><trkpt lat="38.2484733" lon="15.7291567"><ele>165.0</ele><time>2026-04-09T07:33:25.871Z</time></trkpt><trkpt lat="38.248485" lon="15.7295133"><ele>166.0</ele><time>2026-04-09T07:33:26.872Z</time></trkpt><trkpt lat="38.2484933" lon="15.7298733"><ele>167.0</ele><time>2026-04-09T07:33:27.871Z</time></trkpt><trkpt lat="38.2484933" lon="15.730225"><ele>167.0</ele><time>2026-04-09T07:33:28.871Z</time></trkpt><trkpt lat="38.2484933" lon="15.7305867"><ele>167.0</ele><time>2026-04-09T07:33:29.872Z</time></trkpt><trkpt lat="38.2485083" lon="15.7309517"><ele>157.5</ele><time>2026-04-09T07:33:30.871Z</time></trkpt><trkpt lat="38.2485183" lon="15.7313117"><ele>148.0</ele><time>2026-04-09T07:33:31.872Z</time></trkpt><trkpt lat="38.2485217" lon="15.731675"><ele>158.5</ele><time>2026-04-09T07:33:32.872Z</time></trkpt><trkpt lat="38.248535" lon="15.7320283"><ele>169.0</ele><time>2026-04-09T07:33:33.872Z</time></trkpt><trkpt lat="38.2485433" lon="15.73239"><ele>186.0</ele><time>2026-04-09T07:33:34.871Z</time></trkpt><trkpt lat="38.2485517" lon="15.732755"><ele>203.0</ele><time>2026-04-09T07:33:35.871Z</time></trkpt><trkpt lat="38.2485633" lon="15.733115"><ele>203.0</ele><time>2026-04-09T07:33:36.872Z</time></trkpt><trkpt lat="38.2485717" lon="15.7334683"><ele>203.0</ele><time>2026-04-09T07:33:37.872Z</time></trkpt><trkpt lat="38.2485833" lon="15.7338217"><ele>215.5</ele><time>2026-04-09T07:33:38.872Z</time></trkpt><trkpt lat="38.2485867" lon="15.7341733"><ele>228.0</ele><time>2026-04-09T07:33:39.872Z</time></trkpt><trkpt lat="38.2486017" lon="15.73453"><ele>235.5</ele><time>2026-04-09T07:33:40.872Z</time></trkpt><trkpt lat="38.24861" lon="15.7348883"><ele>243.0</ele><time>2026-04-09T07:33:41.872Z</time></trkpt><trkpt lat="38.2486167" lon="15.7352433"><ele>187.0</ele><time>2026-04-09T07:33:42.872Z</time></trkpt><trkpt lat="38.2502683" lon="15.7439233"><ele>187.0</ele><time>2026-04-09T07:34:07.873Z</time></trkpt><trkpt lat="38.2503567" lon="15.7443217"><ele>187.0</ele><time>2026-04-09T07:34:08.873Z</time></trkpt><trkpt lat="38.2504517" lon="15.744705"><ele>197.0</ele><time>2026-04-09T07:34:09.872Z</time></trkpt><trkpt lat="38.25052" lon="15.745045"><ele>207.0</ele><time>2026-04-09T07:34:10.873Z</time></trkpt><trkpt lat="38.2505867" lon="15.7454067"><ele>211.0</ele><time>2026-04-09T07:34:11.873Z</time></trkpt><trkpt lat="38.2506433" lon="15.7457417"><ele>215.0</ele><time>2026-04-09T07:34:12.872Z</time></trkpt><trkpt lat="38.250695" lon="15.7461017"><ele>230.0</ele><time>2026-04-09T07:34:13.873Z</time></trkpt><trkpt lat="38.250755" lon="15.7464583"><ele>245.0</ele><time>2026-04-09T07:34:14.872Z</time></trkpt><trkpt lat="38.2508167" lon="15.7468117"><ele>258.0</ele><time>2026-04-09T07:34:15.872Z</time></trkpt><trkpt lat="38.2508783" lon="15.7471617"><ele>271.0</ele><time>2026-04-09T07:34:16.872Z</time></trkpt><trkpt lat="38.2509417" lon="15.7475083"><ele>193.0</ele><time>2026-04-09T07:34:17.873Z</time></trkpt><trkpt lat="38.254329" lon="15.7672107"><ele>265.0</ele><time>2026-04-09T07:35:07.838Z</time></trkpt><trkpt lat="38.2538233" lon="15.76644"><ele>265.0</ele><time>2026-04-09T07:35:11.873Z</time></trkpt><trkpt lat="38.253945" lon="15.7667883"><ele>265.0</ele><time>2026-04-09T07:35:12.874Z</time></trkpt><trkpt lat="38.25405" lon="15.7670983"><ele>231.5</ele><time>2026-04-09T07:35:13.873Z</time></trkpt><trkpt lat="38.2541583" lon="15.7674133"><ele>198.0</ele><time>2026-04-09T07:35:14.874Z</time></trkpt><trkpt lat="38.25428" lon="15.7677283"><ele>198.0</ele><time>2026-04-09T07:35:15.873Z</time></trkpt><trkpt lat="38.25441" lon="15.768035"><ele>198.0</ele><time>2026-04-09T07:35:16.873Z</time></trkpt><trkpt lat="38.2545433" lon="15.7683417"><ele>213.5</ele><time>2026-04-09T07:35:17.874Z</time></trkpt><trkpt lat="38.2546883" lon="15.768645"><ele>229.0</ele><time>2026-04-09T07:35:18.874Z</time></trkpt><trkpt lat="38.2548433" lon="15.76895"><ele>233.0</ele><time>2026-04-09T07:35:19.873Z</time></trkpt><trkpt lat="38.2550033" lon="15.76925"><ele>237.0</ele><time>2026-04-09T07:35:20.874Z</time></trkpt><trkpt lat="38.2551583" lon="15.7695617"><ele>258.0</ele><time>2026-04-09T07:35:21.874Z</time></trkpt><trkpt lat="38.2553067" lon="15.7698617"><ele>279.0</ele><time>2026-04-09T07:35:22.874Z</time></trkpt><trkpt lat="38.2554783" lon="15.7701617"><ele>307.0</ele><time>2026-04-09T07:35:23.874Z</time></trkpt><trkpt lat="38.2556467" lon="15.77045"><ele>335.0</ele><time>2026-04-09T07:35:24.873Z</time></trkpt><trkpt lat="38.2558117" lon="15.7707417"><ele>344.5</ele><time>2026-04-09T07:35:25.873Z</time></trkpt><trkpt lat="38.2559783" lon="15.7710383"><ele>354.0</ele><time>2026-04-09T07:35:26.873Z</time></trkpt><trkpt lat="38.262035" lon="15.7796833"><ele>354.0</ele><time>2026-04-09T07:35:59.872Z</time></trkpt><trkpt lat="38.2622" lon="15.7799767"><ele>354.0</ele><time>2026-04-09T07:36:00.872Z</time></trkpt><trkpt lat="38.2623633" lon="15.7802717"><ele>409.0</ele><time>2026-04-09T07:36:01.873Z</time></trkpt><trkpt lat="38.26985" lon="15.7993167"><ele>394.0</ele><time>2026-04-09T07:37:03.87Z</time></trkpt><trkpt lat="38.2699683" lon="15.79966"><ele>379.0</ele><time>2026-04-09T07:37:04.871Z</time></trkpt><trkpt lat="38.2701033" lon="15.7999767"><ele>330.0</ele><time>2026-04-09T07:37:05.871Z</time></trkpt><trkpt lat="38.2702117" lon="15.8003283"><ele>281.0</ele><time>2026-04-09T07:37:06.87Z</time></trkpt><trkpt lat="38.2703083" lon="15.8006683"><ele>255.5</ele><time>2026-04-09T07:37:07.871Z</time></trkpt><trkpt lat="38.27041" lon="15.8010067"><ele>230.0</ele><time>2026-04-09T07:37:08.871Z</time></trkpt><trkpt lat="38.2705083" lon="15.80134"><ele>235.0</ele><time>2026-04-09T07:37:09.871Z</time></trkpt><trkpt lat="38.27061" lon="15.8016767"><ele>240.0</ele><time>2026-04-09T07:37:10.87Z</time></trkpt><trkpt lat="38.270715" lon="15.8020067"><ele>220.0</ele><time>2026-04-09T07:37:11.871Z</time></trkpt><trkpt lat="38.2708217" lon="15.80233"><ele>200.0</ele><time>2026-04-09T07:37:12.87Z</time></trkpt><trkpt lat="38.27092" lon="15.802655"><ele>194.5</ele><time>2026-04-09T07:37:13.87Z</time></trkpt><trkpt lat="38.2710133" lon="15.80298"><ele>189.0</ele><time>2026-04-09T07:37:14.871Z</time></trkpt><trkpt lat="38.27111" lon="15.8033017"><ele>207.5</ele><time>2026-04-09T07:37:15.87Z</time></trkpt><trkpt lat="38.27121" lon="15.8036267"><ele>226.0</ele><time>2026-04-09T07:37:16.871Z</time></trkpt><trkpt lat="38.2713117" lon="15.803955"><ele>226.0</ele><time>2026-04-09T07:37:17.87Z</time></trkpt><trkpt lat="38.27141" lon="15.8042833"><ele>226.0</ele><time>2026-04-09T07:37:18.871Z</time></trkpt><trkpt lat="38.2714983" lon="15.804615"><ele>257.5</ele><time>2026-04-09T07:37:19.871Z</time></trkpt><trkpt lat="38.2715967" lon="15.8049467"><ele>289.0</ele><time>2026-04-09T07:37:20.871Z</time></trkpt><trkpt lat="38.2716917" lon="15.8052817"><ele>304.0</ele><time>2026-04-09T07:37:21.87Z</time></trkpt><trkpt lat="38.27178" lon="15.8056117"><ele>319.0</ele><time>2026-04-09T07:37:22.87Z</time></trkpt><trkpt lat="38.27187" lon="15.80594"><ele>334.5</ele><time>2026-04-09T07:37:23.871Z</time></trkpt><trkpt lat="38.2719633" lon="15.80627"><ele>350.0</ele><time>2026-04-09T07:37:24.87Z</time></trkpt><trkpt lat="38.272055" lon="15.8066067"><ele>373.5</ele><time>2026-04-09T07:37:25.87Z</time></trkpt><trkpt lat="38.2721417" lon="15.8069383"><ele>397.0</ele><time>2026-04-09T07:37:26.871Z</time></trkpt><trkpt lat="38.272235" lon="15.8072667"><ele>409.5</ele><time>2026-04-09T07:37:27.87Z</time></trkpt><trkpt lat="38.2723283" lon="15.8075933"><ele>422.0</ele><time>2026-04-09T07:37:28.871Z</time></trkpt><trkpt lat="38.2724167" lon="15.8079217"><ele>443.0</ele><time>2026-04-09T07:37:29.871Z</time></trkpt><trkpt lat="38.272505" lon="15.8082567"><ele>464.0</ele><time>2026-04-09T07:37:30.871Z</time></trkpt><trkpt lat="38.2725883" lon="15.8085933"><ele>480.5</ele><time>2026-04-09T07:37:31.871Z</time></trkpt><trkpt lat="38.272665" lon="15.8089417"><ele>497.0</ele><time>2026-04-09T07:37:32.87Z</time></trkpt><trkpt lat="38.2727483" lon="15.8092817"><ele>497.0</ele><time>2026-04-09T07:37:33.87Z</time></trkpt><trkpt lat="38.2910267" lon="15.8356733"><ele>498.5</ele><time>2026-04-09T07:39:15.873Z</time></trkpt><trkpt lat="38.29125" lon="15.8359967"><ele>500.0</ele><time>2026-04-09T07:39:16.872Z</time></trkpt><trkpt lat="38.29143" lon="15.8363"><ele>500.0</ele><time>2026-04-09T07:39:17.872Z</time></trkpt><trkpt lat="38.2916" lon="15.8365983"><ele>500.0</ele><time>2026-04-09T07:39:18.873Z</time></trkpt><trkpt lat="38.2917617" lon="15.8368917"><ele>503.5</ele><time>2026-04-09T07:39:19.872Z</time></trkpt><trkpt lat="38.29192" lon="15.837175"><ele>507.0</ele><time>2026-04-09T07:39:20.873Z</time></trkpt><trkpt lat="38.2920867" lon="15.8374517"><ele>505.5</ele><time>2026-04-09T07:39:21.872Z</time></trkpt><trkpt lat="38.2922667" lon="15.837735"><ele>504.0</ele><time>2026-04-09T07:39:22.872Z</time></trkpt><trkpt lat="38.2924367" lon="15.8380283"><ele>504.0</ele><time>2026-04-09T07:39:23.873Z</time></trkpt><trkpt lat="38.292605" lon="15.8383183"><ele>504.0</ele><time>2026-04-09T07:39:24.873Z</time></trkpt><trkpt lat="38.2927717" lon="15.83861"><ele>501.0</ele><time>2026-04-09T07:39:25.872Z</time></trkpt><trkpt lat="38.292935" lon="15.8388967"><ele>498.0</ele><time>2026-04-09T07:39:26.872Z</time></trkpt><trkpt lat="38.2930733" lon="15.8391483"><ele>490.5</ele><time>2026-04-09T07:39:27.873Z</time></trkpt><trkpt lat="38.2932917" lon="15.83939"><ele>483.0</ele><time>2026-04-09T07:39:28.873Z</time></trkpt><trkpt lat="38.2934833" lon="15.8396517"><ele>483.0</ele><time>2026-04-09T07:39:29.872Z</time></trkpt><trkpt lat="38.29369" lon="15.8399017"><ele>483.0</ele><time>2026-04-09T07:39:30.873Z</time></trkpt><trkpt lat="38.2938917" lon="15.8401383"><ele>491.0</ele><time>2026-04-09T07:39:31.872Z</time></trkpt><trkpt lat="38.29409" lon="15.8403633"><ele>499.0</ele><time>2026-04-09T07:39:32.872Z</time></trkpt><trkpt lat="38.2943017" lon="15.84059"><ele>499.0</ele><time>2026-04-09T07:39:33.873Z</time></trkpt><trkpt lat="38.29451" lon="15.8408267"><ele>499.0</ele><time>2026-04-09T07:39:34.873Z</time></trkpt><trkpt lat="38.294715" lon="15.84106"><ele>514.5</ele><time>2026-04-09T07:39:35.872Z</time></trkpt><trkpt lat="38.2949183" lon="15.84129"><ele>530.0</ele><time>2026-04-09T07:39:36.873Z</time></trkpt><trkpt lat="38.2951217" lon="15.8415183"><ele>530.0</ele><time>2026-04-09T07:39:37.873Z</time></trkpt><trkpt lat="38.295325" lon="15.8417483"><ele>530.0</ele><time>2026-04-09T07:39:38.873Z</time></trkpt><trkpt lat="38.3024967" lon="15.8438267"><ele>515.5</ele><time>2026-04-09T07:40:04.872Z</time></trkpt><trkpt lat="38.30271" lon="15.843855"><ele>501.0</ele><time>2026-04-09T07:40:05.872Z</time></trkpt><trkpt lat="38.3029767" lon="15.8438767"><ele>499.5</ele><time>2026-04-09T07:40:06.873Z</time></trkpt><trkpt lat="38.3032767" lon="15.843905"><ele>498.0</ele><time>2026-04-09T07:40:07.872Z</time></trkpt><trkpt lat="38.30358" lon="15.84395"><ele>498.0</ele><time>2026-04-09T07:40:08.872Z</time></trkpt><trkpt lat="38.3038633" lon="15.8439933"><ele>498.0</ele><time>2026-04-09T07:40:09.872Z</time></trkpt><trkpt lat="38.3041433" lon="15.8440383"><ele>495.0</ele><time>2026-04-09T07:40:10.872Z</time></trkpt><trkpt lat="38.3044217" lon="15.8440833"><ele>492.0</ele><time>2026-04-09T07:40:11.873Z</time></trkpt><trkpt lat="38.3047083" lon="15.8441317"><ele>490.5</ele><time>2026-04-09T07:40:12.873Z</time></trkpt><trkpt lat="38.3049983" lon="15.84417"><ele>489.0</ele><time>2026-04-09T07:40:13.872Z</time></trkpt><trkpt lat="38.305285" lon="15.8442033"><ele>489.0</ele><time>2026-04-09T07:40:14.872Z</time></trkpt><trkpt lat="38.305575" lon="15.844235"><ele>489.0</ele><time>2026-04-09T07:40:15.873Z</time></trkpt><trkpt lat="38.30586" lon="15.8442617"><ele>488.5</ele><time>2026-04-09T07:40:16.873Z</time></trkpt><trkpt lat="38.30614" lon="15.84429"><ele>488.0</ele><time>2026-04-09T07:40:17.873Z</time></trkpt><trkpt lat="38.3064233" lon="15.84431"><ele>487.0</ele><time>2026-04-09T07:40:18.872Z</time></trkpt><trkpt lat="38.306715" lon="15.8443267"><ele>486.0</ele><time>2026-04-09T07:40:19.872Z</time></trkpt><trkpt lat="38.3070017" lon="15.8443367"><ele>485.0</ele><time>2026-04-09T07:40:20.873Z</time></trkpt><trkpt lat="38.3072867" lon="15.8443433"><ele>484.0</ele><time>2026-04-09T07:40:21.872Z</time></trkpt><trkpt lat="38.3075683" lon="15.8443467"><ele>484.0</ele><time>2026-04-09T07:40:22.872Z</time></trkpt><trkpt lat="38.3078567" lon="15.84434"><ele>484.0</ele><time>2026-04-09T07:40:23.873Z</time></trkpt><trkpt lat="38.3081433" lon="15.8443233"><ele>483.5</ele><time>2026-04-09T07:40:24.873Z</time></trkpt><trkpt lat="38.3084267" lon="15.8443033"><ele>483.0</ele><time>2026-04-09T07:40:25.872Z</time></trkpt><trkpt lat="38.3087183" lon="15.8442783"><ele>482.0</ele><time>2026-04-09T07:40:26.872Z</time></trkpt><trkpt lat="38.3090067" lon="15.8442467"><ele>481.0</ele><time>2026-04-09T07:40:27.872Z</time></trkpt><trkpt lat="38.3093017" lon="15.8442017"><ele>481.0</ele><time>2026-04-09T07:40:28.873Z</time></trkpt><trkpt lat="38.3095817" lon="15.84416"><ele>481.0</ele><time>2026-04-09T07:40:29.873Z</time></trkpt><trkpt lat="38.3098683" lon="15.8441133"><ele>480.5</ele><time>2026-04-09T07:40:30.873Z</time></trkpt><trkpt lat="38.3101517" lon="15.8440583"><ele>480.0</ele><time>2026-04-09T07:40:31.872Z</time></trkpt><trkpt lat="38.3104383" lon="15.844"><ele>479.0</ele><time>2026-04-09T07:40:32.872Z</time></trkpt><trkpt lat="38.3107167" lon="15.8439333"><ele>478.0</ele><time>2026-04-09T07:40:33.872Z</time></trkpt><trkpt lat="38.3109867" lon="15.8438617"><ele>478.0</ele><time>2026-04-09T07:40:34.873Z</time></trkpt><trkpt lat="38.3112617" lon="15.843785"><ele>478.0</ele><time>2026-04-09T07:40:35.873Z</time></trkpt><trkpt lat="38.3115417" lon="15.843715"><ele>477.0</ele><time>2026-04-09T07:40:36.873Z</time></trkpt><trkpt lat="38.311825" lon="15.8436283"><ele>476.0</ele><time>2026-04-09T07:40:37.872Z</time></trkpt><trkpt lat="38.3120983" lon="15.8435367"><ele>477.5</ele><time>2026-04-09T07:40:38.873Z</time></trkpt><trkpt lat="38.312375" lon="15.84344"><ele>479.0</ele><time>2026-04-09T07:40:39.873Z</time></trkpt><trkpt lat="38.3126583" lon="15.84336"><ele>479.0</ele><time>2026-04-09T07:40:40.872Z</time></trkpt><trkpt lat="38.3129433" lon="15.8432733"><ele>479.0</ele><time>2026-04-09T07:40:41.873Z</time></trkpt><trkpt lat="38.3132117" lon="15.84318"><ele>480.5</ele><time>2026-04-09T07:40:42.872Z</time></trkpt><trkpt lat="38.313485" lon="15.8430867"><ele>482.0</ele><time>2026-04-09T07:40:43.873Z</time></trkpt><trkpt lat="38.31376" lon="15.8429833"><ele>483.0</ele><time>2026-04-09T07:40:44.873Z</time></trkpt><trkpt lat="38.314045" lon="15.8428867"><ele>484.0</ele><time>2026-04-09T07:40:45.872Z</time></trkpt><trkpt lat="38.3143233" lon="15.842795"><ele>484.0</ele><time>2026-04-09T07:40:46.873Z</time></trkpt><trkpt lat="38.3146067" lon="15.8427033"><ele>484.0</ele><time>2026-04-09T07:40:47.873Z</time></trkpt><trkpt lat="38.3148867" lon="15.8426117"><ele>484.0</ele><time>2026-04-09T07:40:48.872Z</time></trkpt><trkpt lat="38.315175" lon="15.8425383"><ele>484.0</ele><time>2026-04-09T07:40:49.872Z</time></trkpt><trkpt lat="38.3154617" lon="15.8424533"><ele>485.5</ele><time>2026-04-09T07:40:50.872Z</time></trkpt><trkpt lat="38.3157467" lon="15.8423667"><ele>487.0</ele><time>2026-04-09T07:40:51.873Z</time></trkpt><trkpt lat="38.3160317" lon="15.8422867"><ele>487.0</ele><time>2026-04-09T07:40:52.872Z</time></trkpt><trkpt lat="38.3163167" lon="15.842215"><ele>487.0</ele><time>2026-04-09T07:40:53.873Z</time></trkpt><trkpt lat="38.3166133" lon="15.8421383"><ele>384.0</ele><time>2026-04-09T07:40:54.873Z</time></trkpt><trkpt lat="38.3331067" lon="15.8589583"><ele>384.0</ele><time>2026-04-09T07:42:12.872Z</time></trkpt><trkpt lat="38.333325" lon="15.85925"><ele>384.0</ele><time>2026-04-09T07:42:13.871Z</time></trkpt><trkpt lat="38.3335433" lon="15.8595383"><ele>383.5</ele><time>2026-04-09T07:42:14.872Z</time></trkpt><trkpt lat="38.3337583" lon="15.85981"><ele>383.0</ele><time>2026-04-09T07:42:15.871Z</time></trkpt><trkpt lat="38.33397" lon="15.860065"><ele>377.0</ele><time>2026-04-09T07:42:16.872Z</time></trkpt><trkpt lat="38.3341917" lon="15.8603067"><ele>371.0</ele><time>2026-04-09T07:42:17.872Z</time></trkpt><trkpt lat="38.3344117" lon="15.860535"><ele>371.0</ele><time>2026-04-09T07:42:18.872Z</time></trkpt><trkpt lat="38.334635" lon="15.8607667"><ele>371.0</ele><time>2026-04-09T07:42:19.871Z</time></trkpt><trkpt lat="38.334865" lon="15.8609933"><ele>370.0</ele><time>2026-04-09T07:42:20.871Z</time></trkpt><trkpt lat="38.3351033" lon="15.8612033"><ele>369.0</ele><time>2026-04-09T07:42:21.872Z</time></trkpt><trkpt lat="38.3353417" lon="15.861415"><ele>370.0</ele><time>2026-04-09T07:42:22.872Z</time></trkpt><trkpt lat="38.3355833" lon="15.8616217"><ele>371.0</ele><time>2026-04-09T07:42:23.871Z</time></trkpt><trkpt lat="38.3358267" lon="15.8618267"><ele>366.0</ele><time>2026-04-09T07:42:24.871Z</time></trkpt><trkpt lat="38.3360717" lon="15.8620317"><ele>361.0</ele><time>2026-04-09T07:42:25.871Z</time></trkpt><trkpt lat="38.3363133" lon="15.8622417"><ele>360.5</ele><time>2026-04-09T07:42:26.871Z</time></trkpt><trkpt lat="38.336555" lon="15.86244"><ele>360.0</ele><time>2026-04-09T07:42:27.871Z</time></trkpt><trkpt lat="38.3367967" lon="15.862635"><ele>353.0</ele><time>2026-04-09T07:42:28.871Z</time></trkpt><trkpt lat="38.3370383" lon="15.8628317"><ele>346.0</ele><time>2026-04-09T07:42:29.871Z</time></trkpt><trkpt lat="38.3372767" lon="15.8630333"><ele>346.0</ele><time>2026-04-09T07:42:30.872Z</time></trkpt><trkpt lat="38.337515" lon="15.8632367"><ele>346.0</ele><time>2026-04-09T07:42:31.872Z</time></trkpt><trkpt lat="38.3377483" lon="15.8634333"><ele>340.5</ele><time>2026-04-09T07:42:32.872Z</time></trkpt><trkpt lat="38.3379867" lon="15.8636333"><ele>335.0</ele><time>2026-04-09T07:42:33.872Z</time></trkpt><trkpt lat="38.338225" lon="15.8638317"><ele>335.0</ele><time>2026-04-09T07:42:34.871Z</time></trkpt><trkpt lat="38.3384617" lon="15.8640267"><ele>335.0</ele><time>2026-04-09T07:42:35.871Z</time></trkpt><trkpt lat="38.3386933" lon="15.864225"><ele>336.5</ele><time>2026-04-09T07:42:36.872Z</time></trkpt><trkpt lat="38.338925" lon="15.8644217"><ele>338.0</ele><time>2026-04-09T07:42:37.872Z</time></trkpt><trkpt lat="38.33916" lon="15.8646183"><ele>338.0</ele><time>2026-04-09T07:42:38.871Z</time></trkpt><trkpt lat="38.3393883" lon="15.864815"><ele>338.0</ele><time>2026-04-09T07:42:39.872Z</time></trkpt><trkpt lat="38.3396183" lon="15.865015"><ele>341.0</ele><time>2026-04-09T07:42:40.871Z</time></trkpt><trkpt lat="38.3398467" lon="15.86522"><ele>344.0</ele><time>2026-04-09T07:42:41.871Z</time></trkpt><trkpt lat="38.340075" lon="15.86542"><ele>344.0</ele><time>2026-04-09T07:42:42.871Z</time></trkpt><trkpt lat="38.3403083" lon="15.8656133"><ele>344.0</ele><time>2026-04-09T07:42:43.872Z</time></trkpt><trkpt lat="38.3405417" lon="15.8658033"><ele>339.0</ele><time>2026-04-09T07:42:44.871Z</time></trkpt><trkpt lat="38.340765" lon="15.8659967"><ele>334.0</ele><time>2026-04-09T07:42:45.871Z</time></trkpt><trkpt lat="38.3409967" lon="15.86619"><ele>334.0</ele><time>2026-04-09T07:42:46.872Z</time></trkpt><trkpt lat="38.3412283" lon="15.86638"><ele>334.0</ele><time>2026-04-09T07:42:47.871Z</time></trkpt><trkpt lat="38.34146" lon="15.86657"><ele>328.5</ele><time>2026-04-09T07:42:48.871Z</time></trkpt><trkpt lat="38.3416883" lon="15.86676"><ele>323.0</ele><time>2026-04-09T07:42:49.872Z</time></trkpt><trkpt lat="38.34192" lon="15.866945"><ele>323.0</ele><time>2026-04-09T07:42:50.871Z</time></trkpt><trkpt lat="38.3421533" lon="15.8671383"><ele>323.0</ele><time>2026-04-09T07:42:51.871Z</time></trkpt><trkpt lat="38.342385" lon="15.8673333"><ele>319.0</ele><time>2026-04-09T07:42:52.871Z</time></trkpt><trkpt lat="38.3426217" lon="15.8675267"><ele>315.0</ele><time>2026-04-09T07:42:53.871Z</time></trkpt><trkpt lat="38.34286" lon="15.8677133"><ele>318.5</ele><time>2026-04-09T07:42:54.871Z</time></trkpt><trkpt lat="38.3431067" lon="15.867895"><ele>322.0</ele><time>2026-04-09T07:42:55.871Z</time></trkpt><trkpt lat="38.34336" lon="15.8680733"><ele>322.0</ele><time>2026-04-09T07:42:56.872Z</time></trkpt><trkpt lat="38.3436067" lon="15.8682433"><ele>322.0</ele><time>2026-04-09T07:42:57.871Z</time></trkpt><trkpt lat="38.3438583" lon="15.8684083"><ele>320.0</ele><time>2026-04-09T07:42:58.871Z</time></trkpt><trkpt lat="38.344115" lon="15.8685733"><ele>318.0</ele><time>2026-04-09T07:42:59.872Z</time></trkpt><trkpt lat="38.344375" lon="15.868735"><ele>318.0</ele><time>2026-04-09T07:43:00.871Z</time></trkpt><trkpt lat="38.34463" lon="15.8688933"><ele>318.0</ele><time>2026-04-09T07:43:01.871Z</time></trkpt><trkpt lat="38.34488" lon="15.869045"><ele>314.0</ele><time>2026-04-09T07:43:02.872Z</time></trkpt><trkpt lat="38.3451367" lon="15.8691917"><ele>310.0</ele><time>2026-04-09T07:43:03.872Z</time></trkpt><trkpt lat="38.3454" lon="15.8693283"><ele>317.0</ele><time>2026-04-09T07:43:04.871Z</time></trkpt><trkpt lat="38.345655" lon="15.8694617"><ele>324.0</ele><time>2026-04-09T07:43:05.872Z</time></trkpt><trkpt lat="38.34591" lon="15.8695917"><ele>324.0</ele><time>2026-04-09T07:43:06.872Z</time></trkpt><trkpt lat="38.346165" lon="15.8697217"><ele>324.0</ele><time>2026-04-09T07:43:07.871Z</time></trkpt><trkpt lat="38.3464167" lon="15.8698533"><ele>313.0</ele><time>2026-04-09T07:43:08.872Z</time></trkpt><trkpt lat="38.346675" lon="15.8699783"><ele>302.0</ele><time>2026-04-09T07:43:09.872Z</time></trkpt><trkpt lat="38.3539013" lon="15.8685116"><ele>302.0</ele><time>2026-04-09T07:43:34.906Z</time></trkpt><trkpt lat="38.354" lon="15.868415"><ele>302.0</ele><time>2026-04-09T07:43:35.872Z</time></trkpt><trkpt lat="38.3542567" lon="15.8682517"><ele>302.0</ele><time>2026-04-09T07:43:36.871Z</time></trkpt><trkpt lat="38.3544983" lon="15.8680633"><ele>298.5</ele><time>2026-04-09T07:43:37.872Z</time></trkpt><trkpt lat="38.3547283" lon="15.8678767"><ele>295.0</ele><time>2026-04-09T07:43:38.872Z</time></trkpt><trkpt lat="38.3549567" lon="15.867685"><ele>298.5</ele><time>2026-04-09T07:43:39.872Z</time></trkpt><trkpt lat="38.35519" lon="15.8675017"><ele>302.0</ele><time>2026-04-09T07:43:40.872Z</time></trkpt><trkpt lat="38.3554267" lon="15.8673083"><ele>299.0</ele><time>2026-04-09T07:43:41.871Z</time></trkpt><trkpt lat="38.3556633" lon="15.8671133"><ele>296.0</ele><time>2026-04-09T07:43:42.871Z</time></trkpt><trkpt lat="38.3559017" lon="15.8669333"><ele>296.0</ele><time>2026-04-09T07:43:43.871Z</time></trkpt><trkpt lat="38.35614" lon="15.866755"><ele>296.0</ele><time>2026-04-09T07:43:44.872Z</time></trkpt><trkpt lat="38.35638" lon="15.8665833"><ele>293.0</ele><time>2026-04-09T07:43:45.871Z</time></trkpt><trkpt lat="38.3566283" lon="15.8664133"><ele>290.0</ele><time>2026-04-09T07:43:46.872Z</time></trkpt><trkpt lat="38.3568833" lon="15.866255"><ele>290.0</ele><time>2026-04-09T07:43:47.872Z</time></trkpt><trkpt lat="38.35714" lon="15.8661033"><ele>290.0</ele><time>2026-04-09T07:43:48.872Z</time></trkpt><trkpt lat="38.3574017" lon="15.8659583"><ele>294.0</ele><time>2026-04-09T07:43:49.872Z</time></trkpt><trkpt lat="38.357665" lon="15.8658333"><ele>298.0</ele><time>2026-04-09T07:43:50.871Z</time></trkpt><trkpt lat="38.3579367" lon="15.8657083"><ele>295.5</ele><time>2026-04-09T07:43:51.872Z</time></trkpt><trkpt lat="38.3582067" lon="15.8655983"><ele>293.0</ele><time>2026-04-09T07:43:52.871Z</time></trkpt><trkpt lat="38.3584817" lon="15.8654983"><ele>293.0</ele><time>2026-04-09T07:43:53.872Z</time></trkpt><trkpt lat="38.3587567" lon="15.86542"><ele>293.0</ele><time>2026-04-09T07:43:54.872Z</time></trkpt><trkpt lat="38.3590367" lon="15.8653417"><ele>291.0</ele><time>2026-04-09T07:43:55.871Z</time></trkpt><trkpt lat="38.3593067" lon="15.8652817"><ele>289.0</ele><time>2026-04-09T07:43:56.871Z</time></trkpt><trkpt lat="38.3595867" lon="15.8652167"><ele>287.0</ele><time>2026-04-09T07:43:57.871Z</time></trkpt><trkpt lat="38.359865" lon="15.865175"><ele>285.0</ele><time>2026-04-09T07:43:58.871Z</time></trkpt><trkpt lat="38.3601517" lon="15.8651533"><ele>285.0</ele><time>2026-04-09T07:43:59.872Z</time></trkpt><trkpt lat="38.3604367" lon="15.8651317"><ele>285.0</ele><time>2026-04-09T07:44:00.871Z</time></trkpt><trkpt lat="38.3607233" lon="15.8651233"><ele>282.5</ele><time>2026-04-09T07:44:01.871Z</time></trkpt><trkpt lat="38.36101" lon="15.8651167"><ele>280.0</ele><time>2026-04-09T07:44:02.871Z</time></trkpt><trkpt lat="38.3612983" lon="15.8651217"><ele>278.0</ele><time>2026-04-09T07:44:03.872Z</time></trkpt><trkpt lat="38.3615817" lon="15.86513"><ele>276.0</ele><time>2026-04-09T07:44:04.872Z</time></trkpt><trkpt lat="38.3618633" lon="15.8651483"><ele>276.0</ele><time>2026-04-09T07:44:05.871Z</time></trkpt><trkpt lat="38.36215" lon="15.86516"><ele>276.0</ele><time>2026-04-09T07:44:06.872Z</time></trkpt><trkpt lat="38.3624333" lon="15.8651733"><ele>273.5</ele><time>2026-04-09T07:44:07.872Z</time></trkpt><trkpt lat="38.3627167" lon="15.8651867"><ele>271.0</ele><time>2026-04-09T07:44:08.872Z</time></trkpt><trkpt lat="38.3629967" lon="15.8652117"><ele>269.0</ele><time>2026-04-09T07:44:09.872Z</time></trkpt><trkpt lat="38.3632783" lon="15.8652333"><ele>267.0</ele><time>2026-04-09T07:44:10.871Z</time></trkpt><trkpt lat="38.3635583" lon="15.865245"><ele>267.0</ele><time>2026-04-09T07:44:11.871Z</time></trkpt><trkpt lat="38.3638433" lon="15.8652533"><ele>267.0</ele><time>2026-04-09T07:44:12.872Z</time></trkpt><trkpt lat="38.3641233" lon="15.8652633"><ele>264.5</ele><time>2026-04-09T07:44:13.872Z</time></trkpt><trkpt lat="38.3644083" lon="15.8652717"><ele>262.0</ele><time>2026-04-09T07:44:14.872Z</time></trkpt><trkpt lat="38.364695" lon="15.8652833"><ele>260.5</ele><time>2026-04-09T07:44:15.871Z</time></trkpt><trkpt lat="38.3649867" lon="15.8652933"><ele>259.0</ele><time>2026-04-09T07:44:16.871Z</time></trkpt><trkpt lat="38.3652717" lon="15.8653083"><ele>256.5</ele><time>2026-04-09T07:44:17.871Z</time></trkpt><trkpt lat="38.36556" lon="15.8653183"><ele>254.0</ele><time>2026-04-09T07:44:18.872Z</time></trkpt><trkpt lat="38.3658483" lon="15.865335"><ele>254.0</ele><time>2026-04-09T07:44:19.872Z</time></trkpt><trkpt lat="38.3661267" lon="15.865355"><ele>254.0</ele><time>2026-04-09T07:44:20.872Z</time></trkpt><trkpt lat="38.3664133" lon="15.8653733"><ele>254.0</ele><time>2026-04-09T07:44:21.871Z</time></trkpt><trkpt lat="38.3666933" lon="15.8653917"><ele>254.0</ele><time>2026-04-09T07:44:22.871Z</time></trkpt><trkpt lat="38.3669817" lon="15.8654083"><ele>252.5</ele><time>2026-04-09T07:44:23.872Z</time></trkpt><trkpt lat="38.3672667" lon="15.8654267"><ele>251.0</ele><time>2026-04-09T07:44:24.871Z</time></trkpt><trkpt lat="38.3675533" lon="15.8654367"><ele>251.0</ele><time>2026-04-09T07:44:25.872Z</time></trkpt><trkpt lat="38.36784" lon="15.865455"><ele>251.0</ele><time>2026-04-09T07:44:26.872Z</time></trkpt><trkpt lat="38.36813" lon="15.865485"><ele>250.5</ele><time>2026-04-09T07:44:27.872Z</time></trkpt><trkpt lat="38.368415" lon="15.8655183"><ele>250.0</ele><time>2026-04-09T07:44:28.871Z</time></trkpt><trkpt lat="38.3686967" lon="15.865565"><ele>249.0</ele><time>2026-04-09T07:44:29.872Z</time></trkpt><trkpt lat="38.36898" lon="15.8656267"><ele>248.0</ele><time>2026-04-09T07:44:30.871Z</time></trkpt><trkpt lat="38.3692617" lon="15.8657"><ele>248.0</ele><time>2026-04-09T07:44:31.872Z</time></trkpt><trkpt lat="38.3695433" lon="15.8657933"><ele>248.0</ele><time>2026-04-09T07:44:32.872Z</time></trkpt><trkpt lat="38.36982" lon="15.8659"><ele>241.5</ele><time>2026-04-09T07:44:33.871Z</time></trkpt><trkpt lat="38.3701017" lon="15.866015"><ele>235.0</ele><time>2026-04-09T07:44:34.872Z</time></trkpt><trkpt lat="38.3703683" lon="15.866145"><ele>240.5</ele><time>2026-04-09T07:44:35.871Z</time></trkpt><trkpt lat="38.3706333" lon="15.8662733"><ele>246.0</ele><time>2026-04-09T07:44:36.872Z</time></trkpt><trkpt lat="38.3708983" lon="15.8664183"><ele>246.0</ele><time>2026-04-09T07:44:37.872Z</time></trkpt><trkpt lat="38.3711567" lon="15.8665833"><ele>246.0</ele><time>2026-04-09T07:44:38.871Z</time></trkpt><trkpt lat="38.37141" lon="15.8667667"><ele>241.0</ele><time>2026-04-09T07:44:39.872Z</time></trkpt><trkpt lat="38.371655" lon="15.8669583"><ele>236.0</ele><time>2026-04-09T07:44:40.871Z</time></trkpt><trkpt lat="38.3718917" lon="15.8671633"><ele>236.0</ele><time>2026-04-09T07:44:41.871Z</time></trkpt><trkpt lat="38.3721367" lon="15.8673667"><ele>236.0</ele><time>2026-04-09T07:44:42.872Z</time></trkpt><trkpt lat="38.3723733" lon="15.867585"><ele>234.0</ele><time>2026-04-09T07:44:43.871Z</time></trkpt><trkpt lat="38.3726117" lon="15.867805"><ele>232.0</ele><time>2026-04-09T07:44:44.872Z</time></trkpt><trkpt lat="38.372845" lon="15.8680217"><ele>230.5</ele><time>2026-04-09T07:44:45.871Z</time></trkpt><trkpt lat="38.373085" lon="15.86824"><ele>229.0</ele><time>2026-04-09T07:44:46.872Z</time></trkpt><trkpt lat="38.3733267" lon="15.8684633"><ele>229.0</ele><time>2026-04-09T07:44:47.872Z</time></trkpt><trkpt lat="38.3735683" lon="15.8686867"><ele>229.0</ele><time>2026-04-09T07:44:48.872Z</time></trkpt><trkpt lat="38.3738133" lon="15.86891"><ele>225.5</ele><time>2026-04-09T07:44:49.872Z</time></trkpt><trkpt lat="38.374055" lon="15.86914"><ele>222.0</ele><time>2026-04-09T07:44:50.872Z</time></trkpt><trkpt lat="38.3742983" lon="15.8693683"><ele>222.0</ele><time>2026-04-09T07:44:51.871Z</time></trkpt><trkpt lat="38.3745383" lon="15.8696"><ele>222.0</ele><time>2026-04-09T07:44:52.872Z</time></trkpt><trkpt lat="38.3747783" lon="15.86983"><ele>222.0</ele><time>2026-04-09T07:44:53.872Z</time></trkpt><trkpt lat="38.37502" lon="15.8700517"><ele>222.0</ele><time>2026-04-09T07:44:54.871Z</time></trkpt><trkpt lat="38.3752617" lon="15.87028"><ele>218.0</ele><time>2026-04-09T07:44:55.871Z</time></trkpt><trkpt lat="38.3754983" lon="15.8705067"><ele>214.0</ele><time>2026-04-09T07:44:56.872Z</time></trkpt><trkpt lat="38.3757333" lon="15.8707367"><ele>209.5</ele><time>2026-04-09T07:44:57.871Z</time></trkpt><trkpt lat="38.3759683" lon="15.8709683"><ele>205.0</ele><time>2026-04-09T07:44:58.871Z</time></trkpt><trkpt lat="38.3762" lon="15.8712017"><ele>215.5</ele><time>2026-04-09T07:44:59.871Z</time></trkpt><trkpt lat="38.3764367" lon="15.8714267"><ele>226.0</ele><time>2026-04-09T07:45:00.871Z</time></trkpt><trkpt lat="38.37667" lon="15.87165"><ele>221.0</ele><time>2026-04-09T07:45:01.872Z</time></trkpt><trkpt lat="38.3768983" lon="15.87187"><ele>216.0</ele><time>2026-04-09T07:45:02.871Z</time></trkpt><trkpt lat="38.377125" lon="15.87209"><ele>232.5</ele><time>2026-04-09T07:45:03.872Z</time></trkpt><trkpt lat="38.3773483" lon="15.872305"><ele>249.0</ele><time>2026-04-09T07:45:04.872Z</time></trkpt><trkpt lat="38.3775617" lon="15.87252"><ele>172.0</ele><time>2026-04-09T07:45:05.872Z</time></trkpt><trkpt lat="38.382195" lon="15.881465"><ele>167.5</ele><time>2026-04-09T07:45:33.873Z</time></trkpt><trkpt lat="38.3822967" lon="15.8819167"><ele>163.0</ele><time>2026-04-09T07:45:34.873Z</time></trkpt><trkpt lat="38.3823483" lon="15.882345"><ele>160.0</ele><time>2026-04-09T07:45:35.873Z</time></trkpt><trkpt lat="38.3823983" lon="15.8827117"><ele>157.0</ele><time>2026-04-09T07:45:36.872Z</time></trkpt><trkpt lat="38.382445" lon="15.8830767"><ele>155.0</ele><time>2026-04-09T07:45:37.872Z</time></trkpt><trkpt lat="38.3824867" lon="15.8834567"><ele>153.0</ele><time>2026-04-09T07:45:38.872Z</time></trkpt><trkpt lat="38.3825183" lon="15.8838317"><ele>153.0</ele><time>2026-04-09T07:45:39.873Z</time></trkpt><trkpt lat="38.3825583" lon="15.884205"><ele>153.0</ele><time>2026-04-09T07:45:40.873Z</time></trkpt><trkpt lat="38.3825967" lon="15.8845767"><ele>151.0</ele><time>2026-04-09T07:45:41.872Z</time></trkpt><trkpt lat="38.3826433" lon="15.8849517"><ele>149.0</ele><time>2026-04-09T07:45:42.873Z</time></trkpt><trkpt lat="38.3826833" lon="15.885335"><ele>147.0</ele><time>2026-04-09T07:45:43.873Z</time></trkpt><trkpt lat="38.382725" lon="15.8857233"><ele>145.0</ele><time>2026-04-09T07:45:44.873Z</time></trkpt><trkpt lat="38.38276" lon="15.8860983"><ele>143.5</ele><time>2026-04-09T07:45:45.873Z</time></trkpt><trkpt lat="38.3828033" lon="15.88647"><ele>142.0</ele><time>2026-04-09T07:45:46.872Z</time></trkpt><trkpt lat="38.3828433" lon="15.886845"><ele>141.0</ele><time>2026-04-09T07:45:47.873Z</time></trkpt><trkpt lat="38.3828867" lon="15.8872183"><ele>140.0</ele><time>2026-04-09T07:45:48.872Z</time></trkpt><trkpt lat="38.3829417" lon="15.88759"><ele>139.5</ele><time>2026-04-09T07:45:49.873Z</time></trkpt><trkpt lat="38.3830067" lon="15.8879667"><ele>139.0</ele><time>2026-04-09T07:45:50.873Z</time></trkpt><trkpt lat="38.3830733" lon="15.8883333"><ele>138.5</ele><time>2026-04-09T07:45:51.872Z</time></trkpt><trkpt lat="38.3831517" lon="15.888705"><ele>138.0</ele><time>2026-04-09T07:45:52.873Z</time></trkpt><trkpt lat="38.3832333" lon="15.889065"><ele>136.5</ele><time>2026-04-09T07:45:53.873Z</time></trkpt><trkpt lat="38.38332" lon="15.88943"><ele>135.0</ele><time>2026-04-09T07:45:54.872Z</time></trkpt><trkpt lat="38.3834117" lon="15.8897817"><ele>132.5</ele><time>2026-04-09T07:45:55.873Z</time></trkpt><trkpt lat="38.3835067" lon="15.890135"><ele>130.0</ele><time>2026-04-09T07:45:56.873Z</time></trkpt><trkpt lat="38.3836033" lon="15.8904917"><ele>130.0</ele><time>2026-04-09T07:45:57.872Z</time></trkpt><trkpt lat="38.3836967" lon="15.890855"><ele>130.0</ele><time>2026-04-09T07:45:58.872Z</time></trkpt><trkpt lat="38.3837967" lon="15.8912117"><ele>133.5</ele><time>2026-04-09T07:45:59.872Z</time></trkpt><trkpt lat="38.3838933" lon="15.8915767"><ele>137.0</ele><time>2026-04-09T07:46:00.872Z</time></trkpt><trkpt lat="38.384" lon="15.891955"><ele>130.0</ele><time>2026-04-09T07:46:01.872Z</time></trkpt><trkpt lat="38.3841033" lon="15.8923233"><ele>123.0</ele><time>2026-04-09T07:46:02.872Z</time></trkpt><trkpt lat="38.3842083" lon="15.8926917"><ele>122.5</ele><time>2026-04-09T07:46:03.872Z</time></trkpt><trkpt lat="38.384315" lon="15.8930667"><ele>122.0</ele><time>2026-04-09T07:46:04.872Z</time></trkpt><trkpt lat="38.3844183" lon="15.8934383"><ele>120.0</ele><time>2026-04-09T07:46:05.873Z</time></trkpt><trkpt lat="38.3845383" lon="15.8938017"><ele>118.0</ele><time>2026-04-09T07:46:06.873Z</time></trkpt><trkpt lat="38.3846583" lon="15.8941567"><ele>118.0</ele><time>2026-04-09T07:46:07.873Z</time></trkpt><trkpt lat="38.384775" lon="15.8945067"><ele>118.0</ele><time>2026-04-09T07:46:08.873Z</time></trkpt><trkpt lat="38.3849083" lon="15.8948483"><ele>114.5</ele><time>2026-04-09T07:46:09.873Z</time></trkpt><trkpt lat="38.3850533" lon="15.895185"><ele>111.0</ele><time>2026-04-09T07:46:10.873Z</time></trkpt><trkpt lat="38.3852033" lon="15.895505"><ele>111.0</ele><time>2026-04-09T07:46:11.872Z</time></trkpt><trkpt lat="38.385365" lon="15.8958267"><ele>111.0</ele><time>2026-04-09T07:46:12.873Z</time></trkpt><trkpt lat="38.3855367" lon="15.8961367"><ele>107.5</ele><time>2026-04-09T07:46:13.872Z</time></trkpt><trkpt lat="38.3857183" lon="15.896435"><ele>104.0</ele><time>2026-04-09T07:46:14.872Z</time></trkpt><trkpt lat="38.3859133" lon="15.8967217"><ele>97.5</ele><time>2026-04-09T07:46:15.872Z</time></trkpt><trkpt lat="38.38611" lon="15.8969983"><ele>91.0</ele><time>2026-04-09T07:46:16.872Z</time></trkpt><trkpt lat="38.386315" lon="15.8972767"><ele>91.0</ele><time>2026-04-09T07:46:17.872Z</time></trkpt><trkpt lat="38.3865267" lon="15.897545"><ele>91.0</ele><time>2026-04-09T07:46:18.872Z</time></trkpt><trkpt lat="38.3867467" lon="15.8978117"><ele>91.0</ele><time>2026-04-09T07:46:19.872Z</time></trkpt><trkpt lat="38.38695" lon="15.8980783"><ele>91.0</ele><time>2026-04-09T07:46:20.873Z</time></trkpt><trkpt lat="38.38716" lon="15.89835"><ele>91.0</ele><time>2026-04-09T07:46:21.873Z</time></trkpt><trkpt lat="38.3873667" lon="15.8986167"><ele>91.0</ele><time>2026-04-09T07:46:22.873Z</time></trkpt><trkpt lat="38.3875833" lon="15.8988833"><ele>91.0</ele><time>2026-04-09T07:46:23.873Z</time></trkpt><trkpt lat="38.387795" lon="15.8991567"><ele>91.0</ele><time>2026-04-09T07:46:24.872Z</time></trkpt><trkpt lat="38.38801" lon="15.8994233"><ele>86.5</ele><time>2026-04-09T07:46:25.872Z</time></trkpt><trkpt lat="38.388225" lon="15.8996867"><ele>82.0</ele><time>2026-04-09T07:46:26.872Z</time></trkpt><trkpt lat="38.3884367" lon="15.8999683"><ele>82.0</ele><time>2026-04-09T07:46:27.873Z</time></trkpt><trkpt lat="38.38865" lon="15.9002433"><ele>82.0</ele><time>2026-04-09T07:46:28.873Z</time></trkpt><trkpt lat="38.3888633" lon="15.9005067"><ele>82.0</ele><time>2026-04-09T07:46:29.873Z</time></trkpt><trkpt lat="38.3890767" lon="15.9007683"><ele>82.0</ele><time>2026-04-09T07:46:30.873Z</time></trkpt><trkpt lat="38.3892883" lon="15.9010417"><ele>84.0</ele><time>2026-04-09T07:46:31.873Z</time></trkpt><trkpt lat="38.3895033" lon="15.9013083"><ele>86.0</ele><time>2026-04-09T07:46:32.873Z</time></trkpt><trkpt lat="38.38972" lon="15.901565"><ele>87.0</ele><time>2026-04-09T07:46:33.873Z</time></trkpt><trkpt lat="38.3899367" lon="15.9018333"><ele>88.0</ele><time>2026-04-09T07:46:34.872Z</time></trkpt><trkpt lat="38.39016" lon="15.9021"><ele>88.0</ele><time>2026-04-09T07:46:35.872Z</time></trkpt><trkpt lat="38.3903783" lon="15.9023667"><ele>88.0</ele><time>2026-04-09T07:46:36.872Z</time></trkpt><trkpt lat="38.3906017" lon="15.9026367"><ele>85.5</ele><time>2026-04-09T07:46:37.872Z</time></trkpt><trkpt lat="38.3908317" lon="15.9028967"><ele>83.0</ele><time>2026-04-09T07:46:38.873Z</time></trkpt><trkpt lat="38.391055" lon="15.903165"><ele>77.0</ele><time>2026-04-09T07:46:39.872Z</time></trkpt><trkpt lat="38.3912883" lon="15.9034267"><ele>71.0</ele><time>2026-04-09T07:46:40.873Z</time></trkpt><trkpt lat="38.3915233" lon="15.903685"><ele>71.0</ele><time>2026-04-09T07:46:41.872Z</time></trkpt><trkpt lat="38.3917667" lon="15.90393"><ele>71.0</ele><time>2026-04-09T07:46:42.873Z</time></trkpt><trkpt lat="38.3920117" lon="15.904165"><ele>63.5</ele><time>2026-04-09T07:46:43.873Z</time></trkpt><trkpt lat="38.392265" lon="15.9043883"><ele>56.0</ele><time>2026-04-09T07:46:44.872Z</time></trkpt><trkpt lat="38.39253" lon="15.9046"><ele>56.0</ele><time>2026-04-09T07:46:45.872Z</time></trkpt><trkpt lat="38.39279" lon="15.904795"><ele>56.0</ele><time>2026-04-09T07:46:46.872Z</time></trkpt><trkpt lat="38.3930717" lon="15.904985"><ele>54.0</ele><time>2026-04-09T07:46:47.873Z</time></trkpt><trkpt lat="38.3933467" lon="15.905155"><ele>52.0</ele><time>2026-04-09T07:46:48.873Z</time></trkpt><trkpt lat="38.3936283" lon="15.905315"><ele>51.5</ele><time>2026-04-09T07:46:49.872Z</time></trkpt><trkpt lat="38.3939117" lon="15.90547"><ele>51.0</ele><time>2026-04-09T07:46:50.873Z</time></trkpt><trkpt lat="38.394185" lon="15.9056133"><ele>51.0</ele><time>2026-04-09T07:46:51.872Z</time></trkpt><trkpt lat="38.3944683" lon="15.9057517"><ele>51.0</ele><time>2026-04-09T07:46:52.872Z</time></trkpt><trkpt lat="38.3947467" lon="15.90589"><ele>43.0</ele><time>2026-04-09T07:46:53.873Z</time></trkpt><trkpt lat="38.39502" lon="15.9060317"><ele>35.0</ele><time>2026-04-09T07:46:54.873Z</time></trkpt><trkpt lat="38.3953017" lon="15.9061683"><ele>39.0</ele><time>2026-04-09T07:46:55.873Z</time></trkpt><trkpt lat="38.3955767" lon="15.9062917"><ele>43.0</ele><time>2026-04-09T07:46:56.873Z</time></trkpt><trkpt lat="38.3958583" lon="15.9064"><ele>43.0</ele><time>2026-04-09T07:46:57.872Z</time></trkpt><trkpt lat="38.3961333" lon="15.9064883"><ele>43.0</ele><time>2026-04-09T07:46:58.873Z</time></trkpt><trkpt lat="38.3964167" lon="15.90656"><ele>47.0</ele><time>2026-04-09T07:46:59.872Z</time></trkpt><trkpt lat="38.3966983" lon="15.9066033"><ele>51.0</ele><time>2026-04-09T07:47:00.873Z</time></trkpt><trkpt lat="38.3969817" lon="15.906635"><ele>54.5</ele><time>2026-04-09T07:47:01.872Z</time></trkpt><trkpt lat="38.3972717" lon="15.90665"><ele>58.0</ele><time>2026-04-09T07:47:02.872Z</time></trkpt><trkpt lat="38.3975633" lon="15.9066617"><ele>58.0</ele><time>2026-04-09T07:47:03.872Z</time></trkpt><trkpt lat="38.397855" lon="15.90666"><ele>58.0</ele><time>2026-04-09T07:47:04.872Z</time></trkpt><trkpt lat="38.3981467" lon="15.9066567"><ele>54.5</ele><time>2026-04-09T07:47:05.872Z</time></trkpt><trkpt lat="38.3984367" lon="15.9066617"><ele>51.0</ele><time>2026-04-09T07:47:06.872Z</time></trkpt><trkpt lat="38.3987333" lon="15.9066817"><ele>49.0</ele><time>2026-04-09T07:47:07.873Z</time></trkpt><trkpt lat="38.3990183" lon="15.906725"><ele>47.0</ele><time>2026-04-09T07:47:08.872Z</time></trkpt><trkpt lat="38.3993117" lon="15.90679"><ele>38.5</ele><time>2026-04-09T07:47:09.873Z</time></trkpt><trkpt lat="38.39961" lon="15.90687"><ele>30.0</ele><time>2026-04-09T07:47:10.873Z</time></trkpt><trkpt lat="38.399895" lon="15.9069667"><ele>30.0</ele><time>2026-04-09T07:47:11.872Z</time></trkpt><trkpt lat="38.4001767" lon="15.9070817"><ele>30.0</ele><time>2026-04-09T07:47:12.873Z</time></trkpt><trkpt lat="38.4004567" lon="15.9072067"><ele>31.0</ele><time>2026-04-09T07:47:13.873Z</time></trkpt><trkpt lat="38.40073" lon="15.907345"><ele>32.0</ele><time>2026-04-09T07:47:14.872Z</time></trkpt><trkpt lat="38.4009983" lon="15.9074983"><ele>27.0</ele><time>2026-04-09T07:47:15.872Z</time></trkpt><trkpt lat="38.40126" lon="15.9076717"><ele>22.0</ele><time>2026-04-09T07:47:16.873Z</time></trkpt><trkpt lat="38.401515" lon="15.9078583"><ele>22.0</ele><time>2026-04-09T07:47:17.873Z</time></trkpt><trkpt lat="38.4017617" lon="15.908055"><ele>22.0</ele><time>2026-04-09T07:47:18.873Z</time></trkpt><trkpt lat="38.4020067" lon="15.908255"><ele>22.5</ele><time>2026-04-09T07:47:19.872Z</time></trkpt><trkpt lat="38.402245" lon="15.9084667"><ele>23.0</ele><time>2026-04-09T07:47:20.872Z</time></trkpt><trkpt lat="38.402485" lon="15.9086833"><ele>23.0</ele><time>2026-04-09T07:47:21.873Z</time></trkpt><trkpt lat="38.402715" lon="15.908895"><ele>23.0</ele><time>2026-04-09T07:47:22.873Z</time></trkpt><trkpt lat="38.4029467" lon="15.9091017"><ele>23.0</ele><time>2026-04-09T07:47:23.872Z</time></trkpt><trkpt lat="38.4031783" lon="15.9093133"><ele>23.0</ele><time>2026-04-09T07:47:24.873Z</time></trkpt><trkpt lat="38.4034167" lon="15.9095117"><ele>23.0</ele><time>2026-04-09T07:47:25.873Z</time></trkpt><trkpt lat="38.4036483" lon="15.9097217"><ele>23.0</ele><time>2026-04-09T07:47:26.873Z</time></trkpt><trkpt lat="38.4038767" lon="15.9099267"><ele>31.5</ele><time>2026-04-09T07:47:27.873Z</time></trkpt><trkpt lat="38.404105" lon="15.910135"><ele>40.0</ele><time>2026-04-09T07:47:28.872Z</time></trkpt><trkpt lat="38.4043417" lon="15.9103467"><ele>40.0</ele><time>2026-04-09T07:47:29.873Z</time></trkpt><trkpt lat="38.404575" lon="15.91055"><ele>40.0</ele><time>2026-04-09T07:47:30.873Z</time></trkpt><trkpt lat="38.404805" lon="15.910755"><ele>46.5</ele><time>2026-04-09T07:47:31.872Z</time></trkpt><trkpt lat="38.4050367" lon="15.9109683"><ele>53.0</ele><time>2026-04-09T07:47:32.873Z</time></trkpt><trkpt lat="38.4052667" lon="15.9111717"><ele>46.5</ele><time>2026-04-09T07:47:33.873Z</time></trkpt><trkpt lat="38.4054967" lon="15.911375"><ele>40.0</ele><time>2026-04-09T07:47:34.872Z</time></trkpt><trkpt lat="38.40573" lon="15.9115833"><ele>47.0</ele><time>2026-04-09T07:47:35.873Z</time></trkpt><trkpt lat="38.4059567" lon="15.9117867"><ele>54.0</ele><time>2026-04-09T07:47:36.872Z</time></trkpt><trkpt lat="38.406185" lon="15.9119933"><ele>50.0</ele><time>2026-04-09T07:47:37.872Z</time></trkpt><trkpt lat="38.4064167" lon="15.9122017"><ele>46.0</ele><time>2026-04-09T07:47:38.872Z</time></trkpt><trkpt lat="38.4066483" lon="15.9124183"><ele>53.0</ele><time>2026-04-09T07:47:39.872Z</time></trkpt><trkpt lat="38.4068733" lon="15.9126333"><ele>60.0</ele><time>2026-04-09T07:47:40.873Z</time></trkpt><trkpt lat="38.4070983" lon="15.91285"><ele>56.5</ele><time>2026-04-09T07:47:41.872Z</time></trkpt><trkpt lat="38.4073267" lon="15.9130733"><ele>53.0</ele><time>2026-04-09T07:47:42.873Z</time></trkpt><trkpt lat="38.4075467" lon="15.9133133"><ele>57.0</ele><time>2026-04-09T07:47:43.873Z</time></trkpt><trkpt lat="38.40777" lon="15.9135667"><ele>61.0</ele><time>2026-04-09T07:47:44.873Z</time></trkpt><trkpt lat="38.4079783" lon="15.9138167"><ele>60.5</ele><time>2026-04-09T07:47:45.873Z</time></trkpt><trkpt lat="38.4081917" lon="15.9140733"><ele>60.0</ele><time>2026-04-09T07:47:46.872Z</time></trkpt><trkpt lat="38.408395" lon="15.9143417"><ele>62.0</ele><time>2026-04-09T07:47:47.873Z</time></trkpt><trkpt lat="38.4085933" lon="15.914605"><ele>64.0</ele><time>2026-04-09T07:47:48.873Z</time></trkpt><trkpt lat="38.4087983" lon="15.9148683"><ele>64.5</ele><time>2026-04-09T07:47:49.873Z</time></trkpt><trkpt lat="38.4089983" lon="15.9151267"><ele>65.0</ele><time>2026-04-09T07:47:50.872Z</time></trkpt><trkpt lat="38.4092033" lon="15.9153867"><ele>65.0</ele><time>2026-04-09T07:47:51.873Z</time></trkpt><trkpt lat="38.4094017" lon="15.9156317"><ele>65.0</ele><time>2026-04-09T07:47:52.872Z</time></trkpt><trkpt lat="38.409595" lon="15.9158817"><ele>64.0</ele><time>2026-04-09T07:47:53.873Z</time></trkpt><trkpt lat="38.40979" lon="15.9161317"><ele>63.0</ele><time>2026-04-09T07:47:54.873Z</time></trkpt><trkpt lat="38.4099983" lon="15.91639"><ele>63.0</ele><time>2026-04-09T07:47:55.873Z</time></trkpt><trkpt lat="38.4102067" lon="15.916635"><ele>63.0</ele><time>2026-04-09T07:47:56.873Z</time></trkpt><trkpt lat="38.41041" lon="15.9168833"><ele>62.5</ele><time>2026-04-09T07:47:57.873Z</time></trkpt><trkpt lat="38.410625" lon="15.917125"><ele>62.0</ele><time>2026-04-09T07:47:58.873Z</time></trkpt><trkpt lat="38.4108433" lon="15.9173567"><ele>62.5</ele><time>2026-04-09T07:47:59.873Z</time></trkpt><trkpt lat="38.4110667" lon="15.9175867"><ele>63.0</ele><time>2026-04-09T07:48:00.872Z</time></trkpt><trkpt lat="38.4112883" lon="15.91781"><ele>62.0</ele><time>2026-04-09T07:48:01.873Z</time></trkpt><trkpt lat="38.4115233" lon="15.918035"><ele>61.0</ele><time>2026-04-09T07:48:02.873Z</time></trkpt><trkpt lat="38.4117583" lon="15.9182517"><ele>61.5</ele><time>2026-04-09T07:48:03.873Z</time></trkpt><trkpt lat="38.412" lon="15.9184567"><ele>62.0</ele><time>2026-04-09T07:48:04.872Z</time></trkpt><trkpt lat="38.4122433" lon="15.91866"><ele>62.0</ele><time>2026-04-09T07:48:05.872Z</time></trkpt><trkpt lat="38.412485" lon="15.9188517"><ele>62.0</ele><time>2026-04-09T07:48:06.874Z</time></trkpt><trkpt lat="38.41273" lon="15.9190367"><ele>62.0</ele><time>2026-04-09T07:48:07.874Z</time></trkpt><trkpt lat="38.4129833" lon="15.9192167"><ele>62.0</ele><time>2026-04-09T07:48:08.873Z</time></trkpt><trkpt lat="38.4132367" lon="15.9193833"><ele>63.0</ele><time>2026-04-09T07:48:09.874Z</time></trkpt><trkpt lat="38.4134933" lon="15.9195417"><ele>64.0</ele><time>2026-04-09T07:48:10.874Z</time></trkpt><trkpt lat="38.4137517" lon="15.91969"><ele>63.5</ele><time>2026-04-09T07:48:11.874Z</time></trkpt><trkpt lat="38.4140117" lon="15.9198383"><ele>63.0</ele><time>2026-04-09T07:48:12.874Z</time></trkpt><trkpt lat="38.4142733" lon="15.9199767"><ele>63.5</ele><time>2026-04-09T07:48:13.873Z</time></trkpt><trkpt lat="38.4145417" lon="15.9201117"><ele>64.0</ele><time>2026-04-09T07:48:14.874Z</time></trkpt><trkpt lat="38.41481" lon="15.920235"><ele>64.0</ele><time>2026-04-09T07:48:15.873Z</time></trkpt><trkpt lat="38.4150833" lon="15.920345"><ele>64.0</ele><time>2026-04-09T07:48:16.874Z</time></trkpt><trkpt lat="38.4153633" lon="15.9204683"><ele>63.5</ele><time>2026-04-09T07:48:17.873Z</time></trkpt><trkpt lat="38.4156333" lon="15.9205833"><ele>63.0</ele><time>2026-04-09T07:48:18.874Z</time></trkpt><trkpt lat="38.415905" lon="15.920685"><ele>63.0</ele><time>2026-04-09T07:48:19.873Z</time></trkpt><trkpt lat="38.4161783" lon="15.9207883"><ele>63.0</ele><time>2026-04-09T07:48:20.873Z</time></trkpt><trkpt lat="38.4164567" lon="15.9208883"><ele>62.5</ele><time>2026-04-09T07:48:21.874Z</time></trkpt><trkpt lat="38.4167417" lon="15.9209867"><ele>62.0</ele><time>2026-04-09T07:48:22.874Z</time></trkpt><trkpt lat="38.4170217" lon="15.92109"><ele>61.0</ele><time>2026-04-09T07:48:23.874Z</time></trkpt><trkpt lat="38.417295" lon="15.9211967"><ele>60.0</ele><time>2026-04-09T07:48:24.873Z</time></trkpt><trkpt lat="38.4175683" lon="15.9213117"><ele>60.0</ele><time>2026-04-09T07:48:25.873Z</time></trkpt><trkpt lat="38.4178417" lon="15.921425"><ele>60.0</ele><time>2026-04-09T07:48:26.873Z</time></trkpt><trkpt lat="38.4181233" lon="15.92153"><ele>60.0</ele><time>2026-04-09T07:48:27.874Z</time></trkpt><trkpt lat="38.4183983" lon="15.9216333"><ele>60.0</ele><time>2026-04-09T07:48:28.874Z</time></trkpt><trkpt lat="38.4186783" lon="15.921725"><ele>60.0</ele><time>2026-04-09T07:48:29.873Z</time></trkpt><trkpt lat="38.418955" lon="15.9218267"><ele>60.0</ele><time>2026-04-09T07:48:30.873Z</time></trkpt><trkpt lat="38.4192317" lon="15.9219333"><ele>60.0</ele><time>2026-04-09T07:48:31.874Z</time></trkpt><trkpt lat="38.4195067" lon="15.9220367"><ele>60.0</ele><time>2026-04-09T07:48:32.873Z</time></trkpt><trkpt lat="38.4197867" lon="15.9221467"><ele>59.5</ele><time>2026-04-09T07:48:33.874Z</time></trkpt><trkpt lat="38.4200617" lon="15.9222483"><ele>59.0</ele><time>2026-04-09T07:48:34.873Z</time></trkpt><trkpt lat="38.4203317" lon="15.9223583"><ele>58.0</ele><time>2026-04-09T07:48:35.874Z</time></trkpt><trkpt lat="38.42061" lon="15.922465"><ele>57.0</ele><time>2026-04-09T07:48:36.874Z</time></trkpt><trkpt lat="38.42088" lon="15.9225733"><ele>57.5</ele><time>2026-04-09T07:48:37.874Z</time></trkpt><trkpt lat="38.4211633" lon="15.9226783"><ele>58.0</ele><time>2026-04-09T07:48:38.874Z</time></trkpt><trkpt lat="38.4214383" lon="15.9227817"><ele>58.0</ele><time>2026-04-09T07:48:39.873Z</time></trkpt><trkpt lat="38.421715" lon="15.922885"><ele>58.0</ele><time>2026-04-09T07:48:40.874Z</time></trkpt><trkpt lat="38.4219983" lon="15.92299"><ele>54.5</ele><time>2026-04-09T07:48:41.873Z</time></trkpt><trkpt lat="38.42228" lon="15.9230933"><ele>51.0</ele><time>2026-04-09T07:48:42.873Z</time></trkpt><trkpt lat="38.422555" lon="15.9232033"><ele>51.0</ele><time>2026-04-09T07:48:43.874Z</time></trkpt><trkpt lat="38.4228217" lon="15.9233067"><ele>51.0</ele><time>2026-04-09T07:48:44.873Z</time></trkpt><trkpt lat="38.4230967" lon="15.9234167"><ele>52.5</ele><time>2026-04-09T07:48:45.873Z</time></trkpt><trkpt lat="38.4233667" lon="15.923525"><ele>54.0</ele><time>2026-04-09T07:48:46.874Z</time></trkpt><trkpt lat="38.4236433" lon="15.9236433"><ele>50.0</ele><time>2026-04-09T07:48:47.873Z</time></trkpt><trkpt lat="38.4239183" lon="15.92376"><ele>46.0</ele><time>2026-04-09T07:48:48.874Z</time></trkpt><trkpt lat="38.4241967" lon="15.9238783"><ele>46.0</ele><time>2026-04-09T07:48:49.874Z</time></trkpt><trkpt lat="38.4244633" lon="15.924005"><ele>46.0</ele><time>2026-04-09T07:48:50.873Z</time></trkpt><trkpt lat="38.424735" lon="15.9241317"><ele>47.5</ele><time>2026-04-09T07:48:51.874Z</time></trkpt><trkpt lat="38.4250017" lon="15.9242633"><ele>49.0</ele><time>2026-04-09T07:48:52.873Z</time></trkpt><trkpt lat="38.4252667" lon="15.9244017"><ele>42.0</ele><time>2026-04-09T07:48:53.873Z</time></trkpt><trkpt lat="38.42553" lon="15.9245417"><ele>35.0</ele><time>2026-04-09T07:48:54.874Z</time></trkpt><trkpt lat="38.42579" lon="15.9246967"><ele>35.0</ele><time>2026-04-09T07:48:55.873Z</time></trkpt><trkpt lat="38.4260417" lon="15.92486"><ele>35.0</ele><time>2026-04-09T07:48:56.873Z</time></trkpt><trkpt lat="38.4262967" lon="15.925015"><ele>30.0</ele><time>2026-04-09T07:48:57.874Z</time></trkpt><trkpt lat="38.4265433" lon="15.92518"><ele>25.0</ele><time>2026-04-09T07:48:58.874Z</time></trkpt><trkpt lat="38.4267933" lon="15.9253533"><ele>25.0</ele><time>2026-04-09T07:48:59.874Z</time></trkpt><trkpt lat="38.4270433" lon="15.9255267"><ele>25.0</ele><time>2026-04-09T07:49:00.874Z</time></trkpt><trkpt lat="38.427295" lon="15.9257083"><ele>22.5</ele><time>2026-04-09T07:49:01.874Z</time></trkpt><trkpt lat="38.4275367" lon="15.925895"><ele>20.0</ele><time>2026-04-09T07:49:02.874Z</time></trkpt><trkpt lat="38.42778" lon="15.9260783"><ele>18.5</ele><time>2026-04-09T07:49:03.874Z</time></trkpt><trkpt lat="38.4280133" lon="15.9262767"><ele>17.0</ele><time>2026-04-09T07:49:04.874Z</time></trkpt><trkpt lat="38.428245" lon="15.9264817"><ele>17.0</ele><time>2026-04-09T07:49:05.874Z</time></trkpt><trkpt lat="38.4284767" lon="15.9266883"><ele>17.0</ele><time>2026-04-09T07:49:06.874Z</time></trkpt><trkpt lat="38.42871" lon="15.9268983"><ele>17.0</ele><time>2026-04-09T07:49:07.874Z</time></trkpt><trkpt lat="38.4289417" lon="15.9271167"><ele>17.0</ele><time>2026-04-09T07:49:08.873Z</time></trkpt><trkpt lat="38.4291683" lon="15.92734"><ele>17.5</ele><time>2026-04-09T07:49:09.874Z</time></trkpt><trkpt lat="38.4293933" lon="15.9275683"><ele>18.0</ele><time>2026-04-09T07:49:10.874Z</time></trkpt><trkpt lat="38.429615" lon="15.9278117"><ele>19.0</ele><time>2026-04-09T07:49:11.873Z</time></trkpt><trkpt lat="38.4298367" lon="15.9280433"><ele>20.0</ele><time>2026-04-09T07:49:12.873Z</time></trkpt><trkpt lat="38.430055" lon="15.9282767"><ele>19.0</ele><time>2026-04-09T07:49:13.874Z</time></trkpt><trkpt lat="38.4302733" lon="15.928515"><ele>18.0</ele><time>2026-04-09T07:49:14.873Z</time></trkpt><trkpt lat="38.4304833" lon="15.9287617"><ele>18.0</ele><time>2026-04-09T07:49:15.873Z</time></trkpt><trkpt lat="38.4306917" lon="15.929005"><ele>18.0</ele><time>2026-04-09T07:49:16.874Z</time></trkpt><trkpt lat="38.4309017" lon="15.9292483"><ele>18.0</ele><time>2026-04-09T07:49:17.874Z</time></trkpt><trkpt lat="38.43111" lon="15.9294933"><ele>18.0</ele><time>2026-04-09T07:49:18.873Z</time></trkpt><trkpt lat="38.4313233" lon="15.929745"><ele>23.0</ele><time>2026-04-09T07:49:19.874Z</time></trkpt><trkpt lat="38.43153" lon="15.93"><ele>28.0</ele><time>2026-04-09T07:49:20.874Z</time></trkpt><trkpt lat="38.43174" lon="15.930255"><ele>28.5</ele><time>2026-04-09T07:49:21.874Z</time></trkpt><trkpt lat="38.4319567" lon="15.93051"><ele>29.0</ele><time>2026-04-09T07:49:22.873Z</time></trkpt><trkpt lat="38.43217" lon="15.93077"><ele>27.0</ele><time>2026-04-09T07:49:23.874Z</time></trkpt><trkpt lat="38.4323883" lon="15.9310267"><ele>25.0</ele><time>2026-04-09T07:49:24.874Z</time></trkpt><trkpt lat="38.4326067" lon="15.9312833"><ele>25.0</ele><time>2026-04-09T07:49:25.874Z</time></trkpt><trkpt lat="38.4328233" lon="15.931535"><ele>25.0</ele><time>2026-04-09T07:49:26.874Z</time></trkpt><trkpt lat="38.4330383" lon="15.9317917"><ele>27.0</ele><time>2026-04-09T07:49:27.873Z</time></trkpt><trkpt lat="38.4332467" lon="15.9320467"><ele>29.0</ele><time>2026-04-09T07:49:28.874Z</time></trkpt><trkpt lat="38.43345" lon="15.9323017"><ele>29.0</ele><time>2026-04-09T07:49:29.874Z</time></trkpt><trkpt lat="38.4336567" lon="15.9325517"><ele>29.0</ele><time>2026-04-09T07:49:30.873Z</time></trkpt><trkpt lat="38.4338683" lon="15.9328"><ele>30.5</ele><time>2026-04-09T07:49:31.874Z</time></trkpt><trkpt lat="38.43407" lon="15.9330567"><ele>32.0</ele><time>2026-04-09T07:49:32.874Z</time></trkpt><trkpt lat="38.434275" lon="15.933305"><ele>30.0</ele><time>2026-04-09T07:49:33.873Z</time></trkpt><trkpt lat="38.4344733" lon="15.9335583"><ele>28.0</ele><time>2026-04-09T07:49:34.874Z</time></trkpt><trkpt lat="38.4346783" lon="15.9338067"><ele>33.5</ele><time>2026-04-09T07:49:35.873Z</time></trkpt><trkpt lat="38.4348767" lon="15.9340583"><ele>39.0</ele><time>2026-04-09T07:49:36.873Z</time></trkpt><trkpt lat="38.4350783" lon="15.9343133"><ele>39.0</ele><time>2026-04-09T07:49:37.874Z</time></trkpt><trkpt lat="38.4352767" lon="15.934565"><ele>39.0</ele><time>2026-04-09T07:49:38.874Z</time></trkpt><trkpt lat="38.4354767" lon="15.9348133"><ele>43.5</ele><time>2026-04-09T07:49:39.874Z</time></trkpt><trkpt lat="38.4356767" lon="15.9350633"><ele>48.0</ele><time>2026-04-09T07:49:40.873Z</time></trkpt><trkpt lat="38.4358817" lon="15.9353133"><ele>48.0</ele><time>2026-04-09T07:49:41.874Z</time></trkpt><trkpt lat="38.4360767" lon="15.9355783"><ele>48.0</ele><time>2026-04-09T07:49:42.873Z</time></trkpt><trkpt lat="38.4362683" lon="15.9358433"><ele>49.0</ele><time>2026-04-09T07:49:43.874Z</time></trkpt><trkpt lat="38.43646" lon="15.9361117"><ele>50.0</ele><time>2026-04-09T07:49:44.873Z</time></trkpt><trkpt lat="38.436645" lon="15.9363767"><ele>50.0</ele><time>2026-04-09T07:49:45.873Z</time></trkpt><trkpt lat="38.4368417" lon="15.93665"><ele>50.0</ele><time>2026-04-09T07:49:46.874Z</time></trkpt><trkpt lat="38.4370333" lon="15.936935"><ele>51.5</ele><time>2026-04-09T07:49:47.874Z</time></trkpt><trkpt lat="38.437225" lon="15.937225"><ele>53.0</ele><time>2026-04-09T07:49:48.874Z</time></trkpt><trkpt lat="38.4374083" lon="15.9375133"><ele>54.5</ele><time>2026-04-09T07:49:49.874Z</time></trkpt><trkpt lat="38.4375817" lon="15.9378067"><ele>56.0</ele><time>2026-04-09T07:49:50.873Z</time></trkpt><trkpt lat="38.43775" lon="15.9381017"><ele>56.0</ele><time>2026-04-09T07:49:51.873Z</time></trkpt><trkpt lat="38.43792" lon="15.9384017"><ele>56.0</ele><time>2026-04-09T07:49:52.874Z</time></trkpt><trkpt lat="38.4380817" lon="15.9387067"><ele>56.0</ele><time>2026-04-09T07:49:53.874Z</time></trkpt><trkpt lat="38.4382383" lon="15.93901"><ele>56.0</ele><time>2026-04-09T07:49:54.874Z</time></trkpt><trkpt lat="38.4383883" lon="15.939315"><ele>56.0</ele><time>2026-04-09T07:49:55.874Z</time></trkpt><trkpt lat="38.43854" lon="15.9396267"><ele>56.0</ele><time>2026-04-09T07:49:56.874Z</time></trkpt><trkpt lat="38.43868" lon="15.9399383"><ele>54.5</ele><time>2026-04-09T07:49:57.873Z</time></trkpt><trkpt lat="38.438815" lon="15.94026"><ele>53.0</ele><time>2026-04-09T07:49:58.874Z</time></trkpt><trkpt lat="38.43895" lon="15.9405833"><ele>53.5</ele><time>2026-04-09T07:49:59.873Z</time></trkpt><trkpt lat="38.4390817" lon="15.94091"><ele>54.0</ele><time>2026-04-09T07:50:00.874Z</time></trkpt><trkpt lat="38.4392" lon="15.9412383"><ele>54.0</ele><time>2026-04-09T07:50:01.873Z</time></trkpt><trkpt lat="38.4393233" lon="15.9415683"><ele>54.0</ele><time>2026-04-09T07:50:02.874Z</time></trkpt><trkpt lat="38.4394483" lon="15.9418967"><ele>53.5</ele><time>2026-04-09T07:50:03.874Z</time></trkpt><trkpt lat="38.4395667" lon="15.9422267"><ele>53.0</ele><time>2026-04-09T07:50:04.873Z</time></trkpt><trkpt lat="38.4396883" lon="15.942565"><ele>54.0</ele><time>2026-04-09T07:50:05.873Z</time></trkpt><trkpt lat="38.4398133" lon="15.9428933"><ele>55.0</ele><time>2026-04-09T07:50:06.873Z</time></trkpt><trkpt lat="38.4399383" lon="15.9432367"><ele>56.5</ele><time>2026-04-09T07:50:07.874Z</time></trkpt><trkpt lat="38.44007" lon="15.9435767"><ele>58.0</ele><time>2026-04-09T07:50:08.873Z</time></trkpt><trkpt lat="38.4401933" lon="15.9439133"><ele>59.0</ele><time>2026-04-09T07:50:09.873Z</time></trkpt><trkpt lat="38.440325" lon="15.9442417"><ele>60.0</ele><time>2026-04-09T07:50:10.873Z</time></trkpt><trkpt lat="38.440445" lon="15.9445767"><ele>60.0</ele><time>2026-04-09T07:50:11.874Z</time></trkpt><trkpt lat="38.4405733" lon="15.94491"><ele>60.0</ele><time>2026-04-09T07:50:12.874Z</time></trkpt><trkpt lat="38.440705" lon="15.94524"><ele>60.5</ele><time>2026-04-09T07:50:13.873Z</time></trkpt><trkpt lat="38.4408367" lon="15.945565"><ele>61.0</ele><time>2026-04-09T07:50:14.874Z</time></trkpt><trkpt lat="38.4409817" lon="15.9458917"><ele>62.0</ele><time>2026-04-09T07:50:15.874Z</time></trkpt><trkpt lat="38.441125" lon="15.94621"><ele>63.0</ele><time>2026-04-09T07:50:16.874Z</time></trkpt><trkpt lat="38.4412733" lon="15.9465233"><ele>61.0</ele><time>2026-04-09T07:50:17.874Z</time></trkpt><trkpt lat="38.4414217" lon="15.9468317"><ele>59.0</ele><time>2026-04-09T07:50:18.874Z</time></trkpt><trkpt lat="38.4415817" lon="15.947135"><ele>59.0</ele><time>2026-04-09T07:50:19.874Z</time></trkpt><trkpt lat="38.441735" lon="15.94743"><ele>59.0</ele><time>2026-04-09T07:50:20.873Z</time></trkpt><trkpt lat="38.4418917" lon="15.9477267"><ele>60.0</ele><time>2026-04-09T07:50:21.873Z</time></trkpt><trkpt lat="38.4420467" lon="15.9480183"><ele>61.0</ele><time>2026-04-09T07:50:22.873Z</time></trkpt><trkpt lat="38.44221" lon="15.9483"><ele>61.5</ele><time>2026-04-09T07:50:23.874Z</time></trkpt><trkpt lat="38.4423767" lon="15.94857"><ele>62.0</ele><time>2026-04-09T07:50:24.873Z</time></trkpt><trkpt lat="38.4425517" lon="15.948835"><ele>62.0</ele><time>2026-04-09T07:50:25.874Z</time></trkpt><trkpt lat="38.4427333" lon="15.94911"><ele>62.0</ele><time>2026-04-09T07:50:26.874Z</time></trkpt><trkpt lat="38.442925" lon="15.9493783"><ele>62.5</ele><time>2026-04-09T07:50:27.874Z</time></trkpt><trkpt lat="38.4431033" lon="15.94965"><ele>63.0</ele><time>2026-04-09T07:50:28.873Z</time></trkpt><trkpt lat="38.4433017" lon="15.9499233"><ele>64.0</ele><time>2026-04-09T07:50:29.874Z</time></trkpt><trkpt lat="38.4435017" lon="15.9501917"><ele>65.0</ele><time>2026-04-09T07:50:30.874Z</time></trkpt><trkpt lat="38.4437" lon="15.95046"><ele>65.0</ele><time>2026-04-09T07:50:31.874Z</time></trkpt><trkpt lat="38.4439067" lon="15.9507333"><ele>65.0</ele><time>2026-04-09T07:50:32.874Z</time></trkpt><trkpt lat="38.4441017" lon="15.951"><ele>65.0</ele><time>2026-04-09T07:50:33.874Z</time></trkpt><trkpt lat="38.444305" lon="15.9512633"><ele>65.0</ele><time>2026-04-09T07:50:34.874Z</time></trkpt><trkpt lat="38.444505" lon="15.9515333"><ele>64.0</ele><time>2026-04-09T07:50:35.874Z</time></trkpt><trkpt lat="38.4446967" lon="15.951805"><ele>63.0</ele><time>2026-04-09T07:50:36.873Z</time></trkpt><trkpt lat="38.444895" lon="15.95208"><ele>63.0</ele><time>2026-04-09T07:50:37.874Z</time></trkpt><trkpt lat="38.44509" lon="15.9523567"><ele>63.0</ele><time>2026-04-09T07:50:38.873Z</time></trkpt><trkpt lat="38.4452783" lon="15.952635"><ele>64.0</ele><time>2026-04-09T07:50:39.873Z</time></trkpt><trkpt lat="38.4454667" lon="15.9529167"><ele>65.0</ele><time>2026-04-09T07:50:40.874Z</time></trkpt><trkpt lat="38.4456433" lon="15.9531917"><ele>65.0</ele><time>2026-04-09T07:50:41.874Z</time></trkpt><trkpt lat="38.445815" lon="15.9534767"><ele>65.0</ele><time>2026-04-09T07:50:42.874Z</time></trkpt><trkpt lat="38.445985" lon="15.953775"><ele>65.0</ele><time>2026-04-09T07:50:43.874Z</time></trkpt><trkpt lat="38.446145" lon="15.9540717"><ele>65.0</ele><time>2026-04-09T07:50:44.874Z</time></trkpt><trkpt lat="38.4462983" lon="15.9543767"><ele>64.0</ele><time>2026-04-09T07:50:45.873Z</time></trkpt><trkpt lat="38.4464417" lon="15.9546883"><ele>63.0</ele><time>2026-04-09T07:50:46.873Z</time></trkpt><trkpt lat="38.44658" lon="15.9550067"><ele>65.0</ele><time>2026-04-09T07:50:47.873Z</time></trkpt><trkpt lat="38.4467133" lon="15.95533"><ele>67.0</ele><time>2026-04-09T07:50:48.874Z</time></trkpt><trkpt lat="38.4468367" lon="15.955655"><ele>67.0</ele><time>2026-04-09T07:50:49.873Z</time></trkpt><trkpt lat="38.4469617" lon="15.95598"><ele>67.0</ele><time>2026-04-09T07:50:50.874Z</time></trkpt><trkpt lat="38.447085" lon="15.9563117"><ele>66.5</ele><time>2026-04-09T07:50:51.874Z</time></trkpt><trkpt lat="38.4471833" lon="15.95666"><ele>66.0</ele><time>2026-04-09T07:50:52.874Z</time></trkpt><trkpt lat="38.4472883" lon="15.9569967"><ele>66.0</ele><time>2026-04-09T07:50:53.874Z</time></trkpt><trkpt lat="38.4473883" lon="15.95734"><ele>66.0</ele><time>2026-04-09T07:50:54.874Z</time></trkpt><trkpt lat="38.447485" lon="15.957685"><ele>66.0</ele><time>2026-04-09T07:50:55.873Z</time></trkpt><trkpt lat="38.4475783" lon="15.9580383"><ele>66.0</ele><time>2026-04-09T07:50:56.873Z</time></trkpt><trkpt lat="38.447665" lon="15.9583933"><ele>67.5</ele><time>2026-04-09T07:50:57.873Z</time></trkpt><trkpt lat="38.447745" lon="15.958735"><ele>69.0</ele><time>2026-04-09T07:50:58.873Z</time></trkpt><trkpt lat="38.4478267" lon="15.9590783"><ele>68.5</ele><time>2026-04-09T07:50:59.873Z</time></trkpt><trkpt lat="38.4479167" lon="15.9594317"><ele>68.0</ele><time>2026-04-09T07:51:00.874Z</time></trkpt><trkpt lat="38.44801" lon="15.9597783"><ele>68.0</ele><time>2026-04-09T07:51:01.874Z</time></trkpt><trkpt lat="38.4481083" lon="15.9601233"><ele>68.0</ele><time>2026-04-09T07:51:02.874Z</time></trkpt><trkpt lat="38.448205" lon="15.9604633"><ele>68.0</ele><time>2026-04-09T07:51:03.874Z</time></trkpt><trkpt lat="38.4483083" lon="15.960805"><ele>68.0</ele><time>2026-04-09T07:51:04.874Z</time></trkpt><trkpt lat="38.4484117" lon="15.9611417"><ele>68.0</ele><time>2026-04-09T07:51:05.874Z</time></trkpt><trkpt lat="38.4485133" lon="15.961475"><ele>68.0</ele><time>2026-04-09T07:51:06.874Z</time></trkpt><trkpt lat="38.448625" lon="15.96181"><ele>69.5</ele><time>2026-04-09T07:51:07.873Z</time></trkpt><trkpt lat="38.4487417" lon="15.9621433"><ele>71.0</ele><time>2026-04-09T07:51:08.873Z</time></trkpt><trkpt lat="38.44886" lon="15.962475"><ele>71.0</ele><time>2026-04-09T07:51:09.874Z</time></trkpt><trkpt lat="38.44898" lon="15.9628083"><ele>71.0</ele><time>2026-04-09T07:51:10.873Z</time></trkpt><trkpt lat="38.44911" lon="15.9631333"><ele>72.0</ele><time>2026-04-09T07:51:11.873Z</time></trkpt><trkpt lat="38.44924" lon="15.9634583"><ele>73.0</ele><time>2026-04-09T07:51:12.873Z</time></trkpt><trkpt lat="38.449375" lon="15.963775"><ele>73.0</ele><time>2026-04-09T07:51:13.874Z</time></trkpt><trkpt lat="38.4495133" lon="15.9640983"><ele>73.0</ele><time>2026-04-09T07:51:14.874Z</time></trkpt><trkpt lat="38.4496533" lon="15.9644217"><ele>71.5</ele><time>2026-04-09T07:51:15.873Z</time></trkpt><trkpt lat="38.4497967" lon="15.9647417"><ele>70.0</ele><time>2026-04-09T07:51:16.874Z</time></trkpt><trkpt lat="38.4499467" lon="15.9650517"><ele>68.0</ele><time>2026-04-09T07:51:17.873Z</time></trkpt><trkpt lat="38.4500933" lon="15.9653667"><ele>66.0</ele><time>2026-04-09T07:51:18.874Z</time></trkpt><trkpt lat="38.4502467" lon="15.96568"><ele>66.0</ele><time>2026-04-09T07:51:19.874Z</time></trkpt><trkpt lat="38.4504033" lon="15.9659817"><ele>66.0</ele><time>2026-04-09T07:51:20.874Z</time></trkpt><trkpt lat="38.4505633" lon="15.9662867"><ele>66.5</ele><time>2026-04-09T07:51:21.874Z</time></trkpt><trkpt lat="38.4507217" lon="15.9665883"><ele>67.0</ele><time>2026-04-09T07:51:22.874Z</time></trkpt><trkpt lat="38.4508867" lon="15.966885"><ele>67.5</ele><time>2026-04-09T07:51:23.874Z</time></trkpt><trkpt lat="38.45105" lon="15.9671817"><ele>68.0</ele><time>2026-04-09T07:51:24.874Z</time></trkpt><trkpt lat="38.45122" lon="15.9674767"><ele>67.5</ele><time>2026-04-09T07:51:25.874Z</time></trkpt><trkpt lat="38.45139" lon="15.967765"><ele>67.0</ele><time>2026-04-09T07:51:26.874Z</time></trkpt><trkpt lat="38.4515667" lon="15.9680483"><ele>67.0</ele><time>2026-04-09T07:51:27.873Z</time></trkpt><trkpt lat="38.4517467" lon="15.9683317"><ele>67.0</ele><time>2026-04-09T07:51:28.873Z</time></trkpt><trkpt lat="38.4519333" lon="15.9686117"><ele>68.5</ele><time>2026-04-09T07:51:29.874Z</time></trkpt><trkpt lat="38.4521267" lon="15.96889"><ele>70.0</ele><time>2026-04-09T07:51:30.873Z</time></trkpt><trkpt lat="38.4523167" lon="15.9691583"><ele>70.0</ele><time>2026-04-09T07:51:31.873Z</time></trkpt><trkpt lat="38.4525133" lon="15.9694283"><ele>70.0</ele><time>2026-04-09T07:51:32.874Z</time></trkpt><trkpt lat="38.452705" lon="15.969695"><ele>70.0</ele><time>2026-04-09T07:51:33.874Z</time></trkpt><trkpt lat="38.4529017" lon="15.9699633"><ele>70.0</ele><time>2026-04-09T07:51:34.874Z</time></trkpt><trkpt lat="38.4530967" lon="15.9702233"><ele>69.0</ele><time>2026-04-09T07:51:35.874Z</time></trkpt><trkpt lat="38.4533033" lon="15.9704833"><ele>68.0</ele><time>2026-04-09T07:51:36.873Z</time></trkpt><trkpt lat="38.45351" lon="15.97074"><ele>68.0</ele><time>2026-04-09T07:51:37.874Z</time></trkpt><trkpt lat="38.453715" lon="15.9709883"><ele>68.0</ele><time>2026-04-09T07:51:38.873Z</time></trkpt><trkpt lat="38.453925" lon="15.971245"><ele>68.0</ele><time>2026-04-09T07:51:39.874Z</time></trkpt><trkpt lat="38.45414" lon="15.971485"><ele>68.0</ele><time>2026-04-09T07:51:40.874Z</time></trkpt><trkpt lat="38.4543567" lon="15.97173"><ele>67.5</ele><time>2026-04-09T07:51:41.873Z</time></trkpt><trkpt lat="38.4545783" lon="15.97197"><ele>67.0</ele><time>2026-04-09T07:51:42.873Z</time></trkpt><trkpt lat="38.4548" lon="15.9722017"><ele>69.5</ele><time>2026-04-09T07:51:43.874Z</time></trkpt><trkpt lat="38.455015" lon="15.9724317"><ele>72.0</ele><time>2026-04-09T07:51:44.873Z</time></trkpt><trkpt lat="38.4552367" lon="15.9726633"><ele>72.5</ele><time>2026-04-09T07:51:45.874Z</time></trkpt><trkpt lat="38.4554583" lon="15.9728917"><ele>73.0</ele><time>2026-04-09T07:51:46.874Z</time></trkpt><trkpt lat="38.455665" lon="15.9731067"><ele>73.0</ele><time>2026-04-09T07:51:47.873Z</time></trkpt><trkpt lat="38.4558517" lon="15.97331"><ele>73.0</ele><time>2026-04-09T07:51:48.874Z</time></trkpt><trkpt lat="38.4560367" lon="15.9735167"><ele>73.0</ele><time>2026-04-09T07:51:49.874Z</time></trkpt><trkpt lat="38.4562367" lon="15.9737067"><ele>73.0</ele><time>2026-04-09T07:51:50.874Z</time></trkpt><trkpt lat="38.456445" lon="15.9739067"><ele>73.0</ele><time>2026-04-09T07:51:51.873Z</time></trkpt><trkpt lat="38.4566583" lon="15.9741133"><ele>73.0</ele><time>2026-04-09T07:51:52.874Z</time></trkpt><trkpt lat="38.4568733" lon="15.974335"><ele>73.5</ele><time>2026-04-09T07:51:53.874Z</time></trkpt><trkpt lat="38.4570867" lon="15.9745667"><ele>74.0</ele><time>2026-04-09T07:51:54.874Z</time></trkpt><trkpt lat="38.45731" lon="15.9748067"><ele>75.0</ele><time>2026-04-09T07:51:55.874Z</time></trkpt><trkpt lat="38.4575333" lon="15.9750533"><ele>76.0</ele><time>2026-04-09T07:51:56.874Z</time></trkpt><trkpt lat="38.45777" lon="15.9753017"><ele>75.5</ele><time>2026-04-09T07:51:57.874Z</time></trkpt><trkpt lat="38.4579967" lon="15.9755517"><ele>75.0</ele><time>2026-04-09T07:51:58.874Z</time></trkpt><trkpt lat="38.458225" lon="15.9757967"><ele>75.0</ele><time>2026-04-09T07:51:59.873Z</time></trkpt><trkpt lat="38.45846" lon="15.976045"><ele>75.0</ele><time>2026-04-09T07:52:00.874Z</time></trkpt><trkpt lat="38.4587" lon="15.9762917"><ele>74.5</ele><time>2026-04-09T07:52:01.873Z</time></trkpt><trkpt lat="38.458935" lon="15.9765417"><ele>74.0</ele><time>2026-04-09T07:52:02.873Z</time></trkpt><trkpt lat="38.4591717" lon="15.9767967"><ele>74.0</ele><time>2026-04-09T07:52:03.873Z</time></trkpt><trkpt lat="38.459415" lon="15.9770483"><ele>74.0</ele><time>2026-04-09T07:52:04.874Z</time></trkpt><trkpt lat="38.459655" lon="15.9773"><ele>72.0</ele><time>2026-04-09T07:52:05.873Z</time></trkpt><trkpt lat="38.45989" lon="15.977545"><ele>70.0</ele><time>2026-04-09T07:52:06.874Z</time></trkpt><trkpt lat="38.460125" lon="15.9777967"><ele>70.0</ele><time>2026-04-09T07:52:07.873Z</time></trkpt><trkpt lat="38.460365" lon="15.9780467"><ele>70.0</ele><time>2026-04-09T07:52:08.874Z</time></trkpt><trkpt lat="38.460605" lon="15.9783083"><ele>68.5</ele><time>2026-04-09T07:52:09.874Z</time></trkpt><trkpt lat="38.46085" lon="15.9785717"><ele>67.0</ele><time>2026-04-09T07:52:10.873Z</time></trkpt><trkpt lat="38.4611033" lon="15.97884"><ele>66.5</ele><time>2026-04-09T07:52:11.874Z</time></trkpt><trkpt lat="38.4613583" lon="15.9791"><ele>66.0</ele><time>2026-04-09T07:52:12.873Z</time></trkpt><trkpt lat="38.4616133" lon="15.9793633"><ele>66.0</ele><time>2026-04-09T07:52:13.874Z</time></trkpt><trkpt lat="38.461875" lon="15.979625"><ele>66.0</ele><time>2026-04-09T07:52:14.874Z</time></trkpt><trkpt lat="38.4621317" lon="15.9798933"><ele>66.0</ele><time>2026-04-09T07:52:15.873Z</time></trkpt><trkpt lat="38.46238" lon="15.9801683"><ele>66.0</ele><time>2026-04-09T07:52:16.874Z</time></trkpt><trkpt lat="38.462625" lon="15.9804333"><ele>66.0</ele><time>2026-04-09T07:52:17.873Z</time></trkpt><trkpt lat="38.4628733" lon="15.980695"><ele>66.0</ele><time>2026-04-09T07:52:18.874Z</time></trkpt><trkpt lat="38.46311" lon="15.98096"><ele>66.5</ele><time>2026-04-09T07:52:19.873Z</time></trkpt><trkpt lat="38.463335" lon="15.981235"><ele>67.0</ele><time>2026-04-09T07:52:20.873Z</time></trkpt><trkpt lat="38.463555" lon="15.9815117"><ele>67.5</ele><time>2026-04-09T07:52:21.874Z</time></trkpt><trkpt lat="38.4637633" lon="15.9818067"><ele>68.0</ele><time>2026-04-09T07:52:22.873Z</time></trkpt><trkpt lat="38.46397" lon="15.9821033"><ele>66.0</ele><time>2026-04-09T07:52:23.874Z</time></trkpt><trkpt lat="38.4641683" lon="15.9824067"><ele>64.0</ele><time>2026-04-09T07:52:24.873Z</time></trkpt><trkpt lat="38.4643683" lon="15.9827117"><ele>64.0</ele><time>2026-04-09T07:52:25.873Z</time></trkpt><trkpt lat="38.4645617" lon="15.9830183"><ele>64.0</ele><time>2026-04-09T07:52:26.873Z</time></trkpt><trkpt lat="38.4647517" lon="15.9833333"><ele>65.0</ele><time>2026-04-09T07:52:27.874Z</time></trkpt><trkpt lat="38.4649417" lon="15.983655"><ele>66.0</ele><time>2026-04-09T07:52:28.874Z</time></trkpt><trkpt lat="38.4651317" lon="15.9839833"><ele>65.0</ele><time>2026-04-09T07:52:29.873Z</time></trkpt><trkpt lat="38.4653133" lon="15.9843217"><ele>64.0</ele><time>2026-04-09T07:52:30.873Z</time></trkpt><trkpt lat="38.4654983" lon="15.9846633"><ele>62.5</ele><time>2026-04-09T07:52:31.874Z</time></trkpt><trkpt lat="38.4656767" lon="15.9850067"><ele>61.0</ele><time>2026-04-09T07:52:32.873Z</time></trkpt><trkpt lat="38.46587" lon="15.9853517"><ele>61.0</ele><time>2026-04-09T07:52:33.873Z</time></trkpt><trkpt lat="38.4660633" lon="15.9857067"><ele>61.0</ele><time>2026-04-09T07:52:34.873Z</time></trkpt><trkpt lat="38.4662517" lon="15.9860533"><ele>59.0</ele><time>2026-04-09T07:52:35.874Z</time></trkpt><trkpt lat="38.4664417" lon="15.9864033"><ele>57.0</ele><time>2026-04-09T07:52:36.874Z</time></trkpt><trkpt lat="38.4666417" lon="15.9867667"><ele>56.5</ele><time>2026-04-09T07:52:37.873Z</time></trkpt><trkpt lat="38.4668517" lon="15.9871567"><ele>56.0</ele><time>2026-04-09T07:52:38.873Z</time></trkpt><trkpt lat="38.4670717" lon="15.987555"><ele>55.5</ele><time>2026-04-09T07:52:39.874Z</time></trkpt><trkpt lat="38.467295" lon="15.9879717"><ele>55.0</ele><time>2026-04-09T07:52:40.873Z</time></trkpt><trkpt lat="38.4675283" lon="15.988395"><ele>54.5</ele><time>2026-04-09T07:52:41.873Z</time></trkpt><trkpt lat="38.4677733" lon="15.9888233"><ele>54.0</ele><time>2026-04-09T07:52:42.874Z</time></trkpt><trkpt lat="38.4680233" lon="15.9892617"><ele>57.5</ele><time>2026-04-09T07:52:43.874Z</time></trkpt><trkpt lat="38.4682717" lon="15.9897"><ele>61.0</ele><time>2026-04-09T07:52:44.874Z</time></trkpt><trkpt lat="38.4685167" lon="15.99015"><ele>61.0</ele><time>2026-04-09T07:52:45.874Z</time></trkpt><trkpt lat="38.4687617" lon="15.9905967"><ele>61.0</ele><time>2026-04-09T07:52:46.873Z</time></trkpt><trkpt lat="38.4689967" lon="15.9910417"><ele>59.5</ele><time>2026-04-09T07:52:47.873Z</time></trkpt><trkpt lat="38.4692167" lon="15.9914833"><ele>58.0</ele><time>2026-04-09T07:52:48.874Z</time></trkpt><trkpt lat="38.46941" lon="15.9919"><ele>45.5</ele><time>2026-04-09T07:52:49.873Z</time></trkpt><trkpt lat="38.4696117" lon="15.992255"><ele>33.0</ele><time>2026-04-09T07:52:50.873Z</time></trkpt><trkpt lat="38.4698183" lon="15.9925917"><ele>32.0</ele><time>2026-04-09T07:52:51.873Z</time></trkpt><trkpt lat="38.4700233" lon="15.99293"><ele>31.0</ele><time>2026-04-09T07:52:52.873Z</time></trkpt><trkpt lat="38.47022" lon="15.993275"><ele>31.5</ele><time>2026-04-09T07:52:53.874Z</time></trkpt><trkpt lat="38.4703983" lon="15.9936233"><ele>32.0</ele><time>2026-04-09T07:52:54.873Z</time></trkpt><trkpt lat="38.4705683" lon="15.9939567"><ele>32.5</ele><time>2026-04-09T07:52:55.873Z</time></trkpt><trkpt lat="38.47075" lon="15.99428"><ele>33.0</ele><time>2026-04-09T07:52:56.874Z</time></trkpt><trkpt lat="38.47094" lon="15.994575"><ele>33.0</ele><time>2026-04-09T07:52:57.873Z</time></trkpt><trkpt lat="38.4711317" lon="15.9948683"><ele>33.0</ele><time>2026-04-09T07:52:58.873Z</time></trkpt><trkpt lat="38.4713333" lon="15.9951467"><ele>33.5</ele><time>2026-04-09T07:52:59.874Z</time></trkpt><trkpt lat="38.4715467" lon="15.995415"><ele>34.0</ele><time>2026-04-09T07:53:00.874Z</time></trkpt><trkpt lat="38.47176" lon="15.9956683"><ele>34.5</ele><time>2026-04-09T07:53:01.874Z</time></trkpt><trkpt lat="38.4719767" lon="15.9959"><ele>35.0</ele><time>2026-04-09T07:53:02.874Z</time></trkpt><trkpt lat="38.4721917" lon="15.99613"><ele>35.5</ele><time>2026-04-09T07:53:03.874Z</time></trkpt><trkpt lat="38.4724017" lon="15.996345"><ele>36.0</ele><time>2026-04-09T07:53:04.874Z</time></trkpt><trkpt lat="38.4726183" lon="15.99654"><ele>35.5</ele><time>2026-04-09T07:53:05.874Z</time></trkpt><trkpt lat="38.4728383" lon="15.9967283"><ele>35.0</ele><time>2026-04-09T07:53:06.874Z</time></trkpt><trkpt lat="38.4730567" lon="15.9969167"><ele>35.0</ele><time>2026-04-09T07:53:07.874Z</time></trkpt><trkpt lat="38.4732733" lon="15.997095"><ele>35.0</ele><time>2026-04-09T07:53:08.873Z</time></trkpt><trkpt lat="38.47349" lon="15.997265"><ele>35.0</ele><time>2026-04-09T07:53:09.873Z</time></trkpt><trkpt lat="38.4737033" lon="15.997425"><ele>35.0</ele><time>2026-04-09T07:53:10.873Z</time></trkpt><trkpt lat="38.473915" lon="15.9975883"><ele>34.5</ele><time>2026-04-09T07:53:11.874Z</time></trkpt><trkpt lat="38.474115" lon="15.9977483"><ele>34.0</ele><time>2026-04-09T07:53:12.873Z</time></trkpt><trkpt lat="38.474305" lon="15.9979017"><ele>34.0</ele><time>2026-04-09T07:53:13.873Z</time></trkpt><trkpt lat="38.47449" lon="15.99804"><ele>34.0</ele><time>2026-04-09T07:53:14.874Z</time></trkpt><trkpt lat="38.4746767" lon="15.9981783"><ele>34.0</ele><time>2026-04-09T07:53:15.873Z</time></trkpt><trkpt lat="38.4748483" lon="15.9983117"><ele>34.333333333333336</ele><time>2026-04-09T07:53:16.873Z</time></trkpt><trkpt lat="38.475015" lon="15.9984317"><ele>34.666666666666664</ele><time>2026-04-09T07:53:17.874Z</time></trkpt><trkpt lat="38.475185" lon="15.998555"><ele>35.0</ele><time>2026-04-09T07:53:18.873Z</time></trkpt><trkpt lat="38.4753583" lon="15.99868"><ele>34.33333333333333</ele><time>2026-04-09T07:53:19.873Z</time></trkpt><trkpt lat="38.47551" lon="15.998795"><ele>33.666666666666664</ele><time>2026-04-09T07:53:20.873Z</time></trkpt><trkpt lat="38.4756583" lon="15.9989083"><ele>33.0</ele><time>2026-04-09T07:53:21.873Z</time></trkpt><trkpt lat="38.4758017" lon="15.9990233"><ele>33.0</ele><time>2026-04-09T07:53:22.873Z</time></trkpt><trkpt lat="38.4759383" lon="15.9991217"><ele>33.0</ele><time>2026-04-09T07:53:23.873Z</time></trkpt><trkpt lat="38.476075" lon="15.9992267"><ele>33.0</ele><time>2026-04-09T07:53:24.874Z</time></trkpt><trkpt lat="38.4762017" lon="15.999315"><ele>33.75</ele><time>2026-04-09T07:53:25.873Z</time></trkpt><trkpt lat="38.476325" lon="15.9994033"><ele>34.5</ele><time>2026-04-09T07:53:26.873Z</time></trkpt><trkpt lat="38.4764433" lon="15.99948"><ele>35.25</ele><time>2026-04-09T07:53:27.874Z</time></trkpt><trkpt lat="38.4765567" lon="15.9995567"><ele>36.0</ele><time>2026-04-09T07:53:28.874Z</time></trkpt><trkpt lat="38.4766583" lon="15.999625"><ele>36.0</ele><time>2026-04-09T07:53:29.873Z</time></trkpt><trkpt lat="38.4767617" lon="15.9996883"><ele>36.0</ele><time>2026-04-09T07:53:30.874Z</time></trkpt><trkpt lat="38.4768567" lon="15.9997617"><ele>36.0</ele><time>2026-04-09T07:53:31.873Z</time></trkpt><trkpt lat="38.4769567" lon="15.9998233"><ele>36.0</ele><time>2026-04-09T07:53:32.874Z</time></trkpt><trkpt lat="38.4770483" lon="15.9998817"><ele>36.0</ele><time>2026-04-09T07:53:33.874Z</time></trkpt><trkpt lat="38.4771333" lon="15.9999283"><ele>35.6</ele><time>2026-04-09T07:53:34.874Z</time></trkpt><trkpt lat="38.4772133" lon="15.9999783"><ele>35.2</ele><time>2026-04-09T07:53:35.873Z</time></trkpt><trkpt lat="38.4772967" lon="16.00004"><ele>34.8</ele><time>2026-04-09T07:53:36.873Z</time></trkpt><trkpt lat="38.4773783" lon="16.000095"><ele>34.4</ele><time>2026-04-09T07:53:37.874Z</time></trkpt><trkpt lat="38.4774583" lon="16.0001567"><ele>34.0</ele><time>2026-04-09T07:53:38.873Z</time></trkpt><trkpt lat="38.4775483" lon="16.0002233"><ele>34.0</ele><time>2026-04-09T07:53:39.874Z</time></trkpt><trkpt lat="38.477635" lon="16.0002967"><ele>34.0</ele><time>2026-04-09T07:53:40.874Z</time></trkpt><trkpt lat="38.4777217" lon="16.0003733"><ele>34.0</ele><time>2026-04-09T07:53:41.874Z</time></trkpt><trkpt lat="38.4778033" lon="16.000465"><ele>34.0</ele><time>2026-04-09T07:53:42.874Z</time></trkpt><trkpt lat="38.4778783" lon="16.000575"><ele>34.0</ele><time>2026-04-09T07:53:43.874Z</time></trkpt><trkpt lat="38.4779417" lon="16.0006933"><ele>34.25</ele><time>2026-04-09T07:53:44.873Z</time></trkpt><trkpt lat="38.477995" lon="16.0008267"><ele>34.5</ele><time>2026-04-09T07:53:45.873Z</time></trkpt><trkpt lat="38.4780317" lon="16.0009783"><ele>34.75</ele><time>2026-04-09T07:53:46.873Z</time></trkpt><trkpt lat="38.4780683" lon="16.0011367"><ele>35.0</ele><time>2026-04-09T07:53:47.874Z</time></trkpt><trkpt lat="38.478095" lon="16.0012983"><ele>35.0</ele><time>2026-04-09T07:53:48.873Z</time></trkpt><trkpt lat="38.47811" lon="16.0014567"><ele>35.0</ele><time>2026-04-09T07:53:49.874Z</time></trkpt><trkpt lat="38.4781217" lon="16.0016117"><ele>35.0</ele><time>2026-04-09T07:53:50.874Z</time></trkpt><trkpt lat="38.4781383" lon="16.001765"><ele>35.0</ele><time>2026-04-09T07:53:51.873Z</time></trkpt><trkpt lat="38.4781783" lon="16.00192"><ele>35.0</ele><time>2026-04-09T07:53:52.873Z</time></trkpt><trkpt lat="38.4782567" lon="16.002065"><ele>35.0</ele><time>2026-04-09T07:53:53.874Z</time></trkpt><trkpt lat="38.4783617" lon="16.0022017"><ele>35.0</ele><time>2026-04-09T07:53:54.874Z</time></trkpt><trkpt lat="38.4784833" lon="16.0023033"><ele>35.0</ele><time>2026-04-09T07:53:55.874Z</time></trkpt><trkpt lat="38.4786267" lon="16.0023683"><ele>34.33333333333333</ele><time>2026-04-09T07:53:56.874Z</time></trkpt><trkpt lat="38.4787833" lon="16.0023817"><ele>33.666666666666664</ele><time>2026-04-09T07:53:57.874Z</time></trkpt><trkpt lat="38.47894" lon="16.0023383"><ele>33.0</ele><time>2026-04-09T07:53:58.873Z</time></trkpt><trkpt lat="38.4790933" lon="16.0022433"><ele>33.0</ele><time>2026-04-09T07:53:59.874Z</time></trkpt><trkpt lat="38.479225" lon="16.0021033"><ele>33.0</ele><time>2026-04-09T07:54:00.873Z</time></trkpt><trkpt lat="38.4793317" lon="16.0019233"><ele>33.0</ele><time>2026-04-09T07:54:01.874Z</time></trkpt><trkpt lat="38.4793967" lon="16.0017167"><ele>34.0</ele><time>2026-04-09T07:54:02.874Z</time></trkpt><trkpt lat="38.47944" lon="16.0015017"><ele>35.0</ele><time>2026-04-09T07:54:03.874Z</time></trkpt><trkpt lat="38.47948" lon="16.0012917"><ele>36.0</ele><time>2026-04-09T07:54:04.874Z</time></trkpt><trkpt lat="38.4795167" lon="16.0010917"><ele>36.0</ele><time>2026-04-09T07:54:05.873Z</time></trkpt><trkpt lat="38.4795617" lon="16.0008917"><ele>36.0</ele><time>2026-04-09T07:54:06.873Z</time></trkpt><trkpt lat="38.4796033" lon="16.000695"><ele>36.0</ele><time>2026-04-09T07:54:07.873Z</time></trkpt><trkpt lat="38.47964" lon="16.0004883"><ele>36.0</ele><time>2026-04-09T07:54:08.874Z</time></trkpt><trkpt lat="38.479685" lon="16.00029"><ele>36.0</ele><time>2026-04-09T07:54:09.873Z</time></trkpt><trkpt lat="38.4797183" lon="16.0000933"><ele>36.0</ele><time>2026-04-09T07:54:10.873Z</time></trkpt><trkpt lat="38.479725" lon="15.9998967"><ele>36.0</ele><time>2026-04-09T07:54:11.874Z</time></trkpt><trkpt lat="38.47971" lon="15.9997117"><ele>36.0</ele><time>2026-04-09T07:54:12.874Z</time></trkpt><trkpt lat="38.4796633" lon="15.9995433"><ele>36.0</ele><time>2026-04-09T07:54:13.874Z</time></trkpt><trkpt lat="38.479595" lon="15.99938"><ele>36.0</ele><time>2026-04-09T07:54:14.874Z</time></trkpt><trkpt lat="38.4795117" lon="15.9992383"><ele>35.75</ele><time>2026-04-09T07:54:15.873Z</time></trkpt><trkpt lat="38.4794317" lon="15.999115"><ele>35.5</ele><time>2026-04-09T07:54:16.873Z</time></trkpt><trkpt lat="38.4793483" lon="15.9990033"><ele>35.25</ele><time>2026-04-09T07:54:17.874Z</time></trkpt><trkpt lat="38.4792717" lon="15.9988883"><ele>35.0</ele><time>2026-04-09T07:54:18.873Z</time></trkpt><trkpt lat="38.47919" lon="15.9987933"><ele>35.0</ele><time>2026-04-09T07:54:19.874Z</time></trkpt><trkpt lat="38.479095" lon="15.9987067"><ele>35.0</ele><time>2026-04-09T07:54:20.874Z</time></trkpt><trkpt lat="38.4790033" lon="15.998635"><ele>35.0</ele><time>2026-04-09T07:54:21.874Z</time></trkpt><trkpt lat="38.4789233" lon="15.9985617"><ele>35.0</ele><time>2026-04-09T07:54:22.874Z</time></trkpt><trkpt lat="38.4788517" lon="15.998495"><ele>35.0</ele><time>2026-04-09T07:54:23.873Z</time></trkpt><trkpt lat="38.4787867" lon="15.9984183"><ele>34.6</ele><time>2026-04-09T07:54:24.873Z</time></trkpt><trkpt lat="38.4787133" lon="15.9983467"><ele>34.2</ele><time>2026-04-09T07:54:25.873Z</time></trkpt><trkpt lat="38.4786367" lon="15.99827"><ele>33.8</ele><time>2026-04-09T07:54:26.874Z</time></trkpt><trkpt lat="38.4785617" lon="15.998205"><ele>33.4</ele><time>2026-04-09T07:54:27.874Z</time></trkpt><trkpt lat="38.4784917" lon="15.9981383"><ele>33.0</ele><time>2026-04-09T07:54:28.873Z</time></trkpt><trkpt lat="38.4784283" lon="15.9980717"><ele>32.833333333333336</ele><time>2026-04-09T07:54:29.874Z</time></trkpt><trkpt lat="38.4783667" lon="15.9980033"><ele>32.666666666666664</ele><time>2026-04-09T07:54:30.874Z</time></trkpt><trkpt lat="38.4783033" lon="15.9979367"><ele>32.5</ele><time>2026-04-09T07:54:31.873Z</time></trkpt><trkpt lat="38.478245" lon="15.9978783"><ele>32.33333333333333</ele><time>2026-04-09T07:54:32.873Z</time></trkpt><trkpt lat="38.4781833" lon="15.9978183"><ele>32.166666666666664</ele><time>2026-04-09T07:54:33.873Z</time></trkpt><trkpt lat="38.478115" lon="15.99776"><ele>32.0</ele><time>2026-04-09T07:54:34.873Z</time></trkpt><trkpt lat="38.4780533" lon="15.997695"><ele>31.999999999999996</ele><time>2026-04-09T07:54:35.873Z</time></trkpt><trkpt lat="38.4779983" lon="15.9976267"><ele>32.0</ele><time>2026-04-09T07:54:36.873Z</time></trkpt><trkpt lat="38.477945" lon="15.997545"><ele>32.0</ele><time>2026-04-09T07:54:37.873Z</time></trkpt><trkpt lat="38.4779033" lon="15.9974533"><ele>32.0</ele><time>2026-04-09T07:54:38.873Z</time></trkpt><trkpt lat="38.4778883" lon="15.997345"><ele>31.999999999999996</ele><time>2026-04-09T07:54:39.873Z</time></trkpt><trkpt lat="38.477895" lon="15.99724"><ele>32.0</ele><time>2026-04-09T07:54:40.874Z</time></trkpt><trkpt lat="38.4779317" lon="15.9971383"><ele>32.33333333333333</ele><time>2026-04-09T07:54:41.874Z</time></trkpt><trkpt lat="38.477985" lon="15.9970483"><ele>32.666666666666664</ele><time>2026-04-09T07:54:42.873Z</time></trkpt><trkpt lat="38.4780567" lon="15.9969733"><ele>33.0</ele><time>2026-04-09T07:54:43.873Z</time></trkpt><trkpt lat="38.47813" lon="15.9969083"><ele>33.333333333333336</ele><time>2026-04-09T07:54:44.873Z</time></trkpt><trkpt lat="38.4781967" lon="15.99684"><ele>33.66666666666667</ele><time>2026-04-09T07:54:45.874Z</time></trkpt><trkpt lat="38.478255" lon="15.9967833"><ele>34.0</ele><time>2026-04-09T07:54:46.874Z</time></trkpt><trkpt lat="38.4783317" lon="15.9967017"><ele>34.5</ele><time>2026-04-09T07:54:48.873Z</time></trkpt><trkpt lat="38.4783783" lon="15.9966417"><ele>35.0</ele><time>2026-04-09T07:54:50.873Z</time></trkpt><trkpt lat="38.478385" lon="15.9965483"><ele>35.5</ele><time>2026-04-09T07:54:52.873Z</time></trkpt><trkpt lat="38.4783717" lon="15.9964117"><ele>36.0</ele><time>2026-04-09T07:54:54.873Z</time></trkpt><trkpt lat="38.4783467" lon="15.9963217"><ele>36.5</ele><time>2026-04-09T07:54:55.873Z</time></trkpt><trkpt lat="38.47831" lon="15.996215"><ele>37.0</ele><time>2026-04-09T07:54:56.874Z</time></trkpt><trkpt lat="38.478275" lon="15.9961117"><ele>37.0</ele><time>2026-04-09T07:54:57.874Z</time></trkpt><trkpt lat="38.478245" lon="15.9960017"><ele>37.0</ele><time>2026-04-09T07:54:58.873Z</time></trkpt><trkpt lat="38.4782217" lon="15.995885"><ele>37.0</ele><time>2026-04-09T07:54:59.874Z</time></trkpt><trkpt lat="38.4781917" lon="15.99576"><ele>37.0</ele><time>2026-04-09T07:55:00.873Z</time></trkpt><trkpt lat="38.4781633" lon="15.99564"><ele>37.0</ele><time>2026-04-09T07:55:01.873Z</time></trkpt><trkpt lat="38.478125" lon="15.9955233"><ele>36.66666666666667</ele><time>2026-04-09T07:55:02.873Z</time></trkpt><trkpt lat="38.4780867" lon="15.9954067"><ele>36.333333333333336</ele><time>2026-04-09T07:55:03.873Z</time></trkpt><trkpt lat="38.47805" lon="15.9953083"><ele>36.0</ele><time>2026-04-09T07:55:04.873Z</time></trkpt><trkpt lat="38.4780117" lon="15.9952233"><ele>35.666666666666664</ele><time>2026-04-09T07:55:05.874Z</time></trkpt><trkpt lat="38.4779717" lon="15.9951517"><ele>35.33333333333333</ele><time>2026-04-09T07:55:06.873Z</time></trkpt><trkpt lat="38.4779083" lon="15.9950367"><ele>35.0</ele><time>2026-04-09T07:55:08.873Z</time></trkpt><trkpt lat="38.4778467" lon="15.9950067"><ele>34.2</ele><time>2026-04-09T07:55:10.873Z</time></trkpt><trkpt lat="38.47774" lon="15.99501"><ele>33.4</ele><time>2026-04-09T07:55:22.873Z</time></trkpt><trkpt lat="38.4776167" lon="15.9950717"><ele>32.6</ele><time>2026-04-09T07:55:24.874Z</time></trkpt><trkpt lat="38.4775483" lon="15.9951367"><ele>31.8</ele><time>2026-04-09T07:55:25.874Z</time></trkpt><trkpt lat="38.47747" lon="15.9952133"><ele>31.0</ele><time>2026-04-09T07:55:26.874Z</time></trkpt><trkpt lat="38.477385" lon="15.9952933"><ele>31.0</ele><time>2026-04-09T07:55:27.874Z</time></trkpt><trkpt lat="38.477295" lon="15.9953767"><ele>31.0</ele><time>2026-04-09T07:55:28.874Z</time></trkpt><trkpt lat="38.4771983" lon="15.9954567"><ele>31.0</ele><time>2026-04-09T07:55:29.873Z</time></trkpt><trkpt lat="38.4771" lon="15.99553"><ele>31.0</ele><time>2026-04-09T07:55:30.873Z</time></trkpt><trkpt lat="38.4770033" lon="15.99561"><ele>31.25</ele><time>2026-04-09T07:55:31.873Z</time></trkpt><trkpt lat="38.4769033" lon="15.9956867"><ele>31.5</ele><time>2026-04-09T07:55:32.874Z</time></trkpt><trkpt lat="38.4768117" lon="15.9957683"><ele>31.75</ele><time>2026-04-09T07:55:33.873Z</time></trkpt><trkpt lat="38.4767117" lon="15.9958517"><ele>32.0</ele><time>2026-04-09T07:55:34.874Z</time></trkpt><trkpt lat="38.4766067" lon="15.9959383"><ele>32.0</ele><time>2026-04-09T07:55:35.874Z</time></trkpt><trkpt lat="38.4764967" lon="15.9960217"><ele>32.0</ele><time>2026-04-09T07:55:36.873Z</time></trkpt><trkpt lat="38.47639" lon="15.9961233"><ele>32.0</ele><time>2026-04-09T07:55:37.874Z</time></trkpt><trkpt lat="38.47629" lon="15.99623"><ele>32.0</ele><time>2026-04-09T07:55:38.874Z</time></trkpt><trkpt lat="38.476185" lon="15.99634"><ele>33.0</ele><time>2026-04-09T07:55:39.874Z</time></trkpt><trkpt lat="38.4760833" lon="15.9964567"><ele>34.0</ele><time>2026-04-09T07:55:40.873Z</time></trkpt><trkpt lat="38.4759883" lon="15.9965883"><ele>35.0</ele><time>2026-04-09T07:55:41.873Z</time></trkpt><trkpt lat="38.4758883" lon="15.9967217"><ele>36.0</ele><time>2026-04-09T07:55:42.874Z</time></trkpt><trkpt lat="38.475785" lon="15.99686"><ele>36.0</ele><time>2026-04-09T07:55:43.873Z</time></trkpt><trkpt lat="38.4756933" lon="15.9970067"><ele>36.0</ele><time>2026-04-09T07:55:44.874Z</time></trkpt><trkpt lat="38.4755933" lon="15.9971483"><ele>36.0</ele><time>2026-04-09T07:55:45.874Z</time></trkpt><trkpt lat="38.4754933" lon="15.9972967"><ele>36.0</ele><time>2026-04-09T07:55:46.874Z</time></trkpt><trkpt lat="38.4753883" lon="15.99745"><ele>36.0</ele><time>2026-04-09T07:55:47.873Z</time></trkpt><trkpt lat="38.475275" lon="15.997625"><ele>36.0</ele><time>2026-04-09T07:55:48.874Z</time></trkpt><trkpt lat="38.4751533" lon="15.99781"><ele>36.0</ele><time>2026-04-09T07:55:49.874Z</time></trkpt><trkpt lat="38.4750267" lon="15.99799"><ele>36.0</ele><time>2026-04-09T07:55:50.873Z</time></trkpt><trkpt lat="38.4749083" lon="15.9981717"><ele>36.0</ele><time>2026-04-09T07:55:51.873Z</time></trkpt><trkpt lat="38.4747867" lon="15.9983533"><ele>36.0</ele><time>2026-04-09T07:55:52.873Z</time></trkpt><trkpt lat="38.4746583" lon="15.9985283"><ele>36.0</ele><time>2026-04-09T07:55:53.874Z</time></trkpt><trkpt lat="38.4745367" lon="15.998705"><ele>36.0</ele><time>2026-04-09T07:55:54.873Z</time></trkpt><trkpt lat="38.4744117" lon="15.9988933"><ele>36.0</ele><time>2026-04-09T07:55:55.874Z</time></trkpt><trkpt lat="38.4742833" lon="15.9990867"><ele>36.0</ele><time>2026-04-09T07:55:56.873Z</time></trkpt><trkpt lat="38.4741467" lon="15.99929"><ele>36.0</ele><time>2026-04-09T07:55:57.874Z</time></trkpt><trkpt lat="38.4740133" lon="15.999505"><ele>35.666666666666664</ele><time>2026-04-09T07:55:58.874Z</time></trkpt><trkpt lat="38.4738783" lon="15.99972"><ele>35.33333333333333</ele><time>2026-04-09T07:55:59.874Z</time></trkpt><trkpt lat="38.473735" lon="15.9999333"><ele>35.0</ele><time>2026-04-09T07:56:00.873Z</time></trkpt><trkpt lat="38.4735833" lon="16.0001467"><ele>36.0</ele><time>2026-04-09T07:56:01.873Z</time></trkpt><trkpt lat="38.4734333" lon="16.00036"><ele>37.0</ele><time>2026-04-09T07:56:02.873Z</time></trkpt><trkpt lat="38.4732917" lon="16.00057"><ele>38.0</ele><time>2026-04-09T07:56:03.874Z</time></trkpt><trkpt lat="38.4731517" lon="16.0007717"><ele>38.0</ele><time>2026-04-09T07:56:04.873Z</time></trkpt><trkpt lat="38.473015" lon="16.00097"><ele>38.0</ele><time>2026-04-09T07:56:05.874Z</time></trkpt><trkpt lat="38.47288" lon="16.0011733"><ele>38.0</ele><time>2026-04-09T07:56:06.874Z</time></trkpt><trkpt lat="38.4727433" lon="16.0013633"><ele>39.0</ele><time>2026-04-09T07:56:07.873Z</time></trkpt><trkpt lat="38.47262" lon="16.001545"><ele>40.0</ele><time>2026-04-09T07:56:08.873Z</time></trkpt><trkpt lat="38.472495" lon="16.0017233"><ele>41.0</ele><time>2026-04-09T07:56:09.873Z</time></trkpt><trkpt lat="38.47238" lon="16.0018933"><ele>41.0</ele><time>2026-04-09T07:56:10.873Z</time></trkpt><trkpt lat="38.4722733" lon="16.00205"><ele>41.0</ele><time>2026-04-09T07:56:11.874Z</time></trkpt><trkpt lat="38.4721683" lon="16.0022117"><ele>41.0</ele><time>2026-04-09T07:56:12.874Z</time></trkpt><trkpt lat="38.4720667" lon="16.00237"><ele>40.666666666666664</ele><time>2026-04-09T07:56:13.874Z</time></trkpt><trkpt lat="38.47196" lon="16.00252"><ele>40.333333333333336</ele><time>2026-04-09T07:56:14.873Z</time></trkpt><trkpt lat="38.4718567" lon="16.0026717"><ele>40.0</ele><time>2026-04-09T07:56:15.874Z</time></trkpt><trkpt lat="38.4717517" lon="16.0028217"><ele>40.0</ele><time>2026-04-09T07:56:16.874Z</time></trkpt><trkpt lat="38.4716367" lon="16.00297"><ele>40.0</ele><time>2026-04-09T07:56:17.874Z</time></trkpt><trkpt lat="38.4715267" lon="16.00312"><ele>40.0</ele><time>2026-04-09T07:56:18.874Z</time></trkpt><trkpt lat="38.471425" lon="16.0032583"><ele>40.0</ele><time>2026-04-09T07:56:19.874Z</time></trkpt><trkpt lat="38.4713283" lon="16.003385"><ele>40.0</ele><time>2026-04-09T07:56:20.874Z</time></trkpt><trkpt lat="38.47124" lon="16.003505"><ele>40.0</ele><time>2026-04-09T07:56:21.874Z</time></trkpt><trkpt lat="38.4711517" lon="16.00362"><ele>40.0</ele><time>2026-04-09T07:56:22.873Z</time></trkpt><trkpt lat="38.4710717" lon="16.0037333"><ele>40.0</ele><time>2026-04-09T07:56:23.874Z</time></trkpt><trkpt lat="38.4709883" lon="16.0038533"><ele>40.0</ele><time>2026-04-09T07:56:24.874Z</time></trkpt><trkpt lat="38.470905" lon="16.0039667"><ele>40.0</ele><time>2026-04-09T07:56:25.874Z</time></trkpt><trkpt lat="38.4708133" lon="16.0040867"><ele>40.0</ele><time>2026-04-09T07:56:26.874Z</time></trkpt><trkpt lat="38.4707217" lon="16.0042117"><ele>40.25</ele><time>2026-04-09T07:56:27.873Z</time></trkpt><trkpt lat="38.4706217" lon="16.0043417"><ele>40.5</ele><time>2026-04-09T07:56:28.873Z</time></trkpt><trkpt lat="38.470515" lon="16.00448"><ele>40.75</ele><time>2026-04-09T07:56:29.874Z</time></trkpt><trkpt lat="38.4704133" lon="16.0046267"><ele>41.0</ele><time>2026-04-09T07:56:30.874Z</time></trkpt><trkpt lat="38.4703083" lon="16.004785"><ele>41.33333333333333</ele><time>2026-04-09T07:56:31.874Z</time></trkpt><trkpt lat="38.47019" lon="16.0049467"><ele>41.666666666666664</ele><time>2026-04-09T07:56:32.873Z</time></trkpt><trkpt lat="38.4700617" lon="16.005125"><ele>42.0</ele><time>2026-04-09T07:56:33.874Z</time></trkpt><trkpt lat="38.46993" lon="16.0052967"><ele>42.0</ele><time>2026-04-09T07:56:34.873Z</time></trkpt><trkpt lat="38.4697867" lon="16.0054683"><ele>42.0</ele><time>2026-04-09T07:56:35.874Z</time></trkpt><trkpt lat="38.4696467" lon="16.0056467"><ele>42.0</ele><time>2026-04-09T07:56:36.873Z</time></trkpt><trkpt lat="38.46951" lon="16.0058283"><ele>42.333333333333336</ele><time>2026-04-09T07:56:37.873Z</time></trkpt><trkpt lat="38.4693717" lon="16.00601"><ele>42.66666666666667</ele><time>2026-04-09T07:56:38.874Z</time></trkpt><trkpt lat="38.469235" lon="16.006195"><ele>43.0</ele><time>2026-04-09T07:56:39.873Z</time></trkpt><trkpt lat="38.4691033" lon="16.00638"><ele>43.0</ele><time>2026-04-09T07:56:40.873Z</time></trkpt><trkpt lat="38.4689717" lon="16.0065617"><ele>43.0</ele><time>2026-04-09T07:56:41.873Z</time></trkpt><trkpt lat="38.4688433" lon="16.0067283"><ele>43.0</ele><time>2026-04-09T07:56:42.873Z</time></trkpt><trkpt lat="38.4687183" lon="16.0068933"><ele>44.333333333333336</ele><time>2026-04-09T07:56:43.873Z</time></trkpt><trkpt lat="38.4685933" lon="16.0070583"><ele>45.666666666666664</ele><time>2026-04-09T07:56:44.873Z</time></trkpt><trkpt lat="38.4684717" lon="16.0072283"><ele>47.0</ele><time>2026-04-09T07:56:45.874Z</time></trkpt><trkpt lat="38.46835" lon="16.0073967"><ele>46.666666666666664</ele><time>2026-04-09T07:56:46.874Z</time></trkpt><trkpt lat="38.4682283" lon="16.00756"><ele>46.333333333333336</ele><time>2026-04-09T07:56:47.873Z</time></trkpt><trkpt lat="38.4680983" lon="16.007735"><ele>46.0</ele><time>2026-04-09T07:56:48.873Z</time></trkpt><trkpt lat="38.4679667" lon="16.0079033"><ele>46.0</ele><time>2026-04-09T07:56:49.874Z</time></trkpt><trkpt lat="38.46784" lon="16.0080717"><ele>46.0</ele><time>2026-04-09T07:56:50.874Z</time></trkpt><trkpt lat="38.4677117" lon="16.0082467"><ele>46.0</ele><time>2026-04-09T07:56:51.873Z</time></trkpt><trkpt lat="38.4675833" lon="16.008415"><ele>45.66666666666667</ele><time>2026-04-09T07:56:52.874Z</time></trkpt><trkpt lat="38.4674633" lon="16.0085833"><ele>45.333333333333336</ele><time>2026-04-09T07:56:53.874Z</time></trkpt><trkpt lat="38.46734" lon="16.0087533"><ele>45.0</ele><time>2026-04-09T07:56:54.873Z</time></trkpt><trkpt lat="38.46721" lon="16.0089233"><ele>45.333333333333336</ele><time>2026-04-09T07:56:55.874Z</time></trkpt><trkpt lat="38.4670817" lon="16.0090833"><ele>45.66666666666667</ele><time>2026-04-09T07:56:56.874Z</time></trkpt><trkpt lat="38.46697" lon="16.00924"><ele>46.0</ele><time>2026-04-09T07:56:57.874Z</time></trkpt><trkpt lat="38.4668667" lon="16.00939"><ele>46.75</ele><time>2026-04-09T07:56:58.874Z</time></trkpt><trkpt lat="38.4667717" lon="16.0095267"><ele>47.5</ele><time>2026-04-09T07:56:59.874Z</time></trkpt><trkpt lat="38.4666767" lon="16.0096383"><ele>48.25</ele><time>2026-04-09T07:57:00.874Z</time></trkpt><trkpt lat="38.4665933" lon="16.009725"><ele>49.0</ele><time>2026-04-09T07:57:01.873Z</time></trkpt><trkpt lat="38.4664967" lon="16.00978"><ele>49.0</ele><time>2026-04-09T07:57:02.874Z</time></trkpt><trkpt lat="38.4663933" lon="16.0098067"><ele>49.0</ele><time>2026-04-09T07:57:03.873Z</time></trkpt><trkpt lat="38.4662783" lon="16.0098383"><ele>49.0</ele><time>2026-04-09T07:57:04.873Z</time></trkpt><trkpt lat="38.466175" lon="16.00993"><ele>49.0</ele><time>2026-04-09T07:57:05.873Z</time></trkpt><trkpt lat="38.4660967" lon="16.0100567"><ele>49.5</ele><time>2026-04-09T07:57:06.873Z</time></trkpt><trkpt lat="38.4660583" lon="16.0102067"><ele>50.0</ele><time>2026-04-09T07:57:07.873Z</time></trkpt><trkpt lat="38.4660383" lon="16.0103733"><ele>50.5</ele><time>2026-04-09T07:57:08.874Z</time></trkpt><trkpt lat="38.4659967" lon="16.01052"><ele>51.0</ele><time>2026-04-09T07:57:09.873Z</time></trkpt><trkpt lat="38.46592" lon="16.01066"><ele>51.0</ele><time>2026-04-09T07:57:10.874Z</time></trkpt><trkpt lat="38.4658283" lon="16.0108"><ele>51.0</ele><time>2026-04-09T07:57:11.874Z</time></trkpt><trkpt lat="38.465735" lon="16.0109383"><ele>51.0</ele><time>2026-04-09T07:57:12.873Z</time></trkpt><trkpt lat="38.4656317" lon="16.0110783"><ele>51.0</ele><time>2026-04-09T07:57:13.874Z</time></trkpt><trkpt lat="38.46552" lon="16.011225"><ele>50.66666666666667</ele><time>2026-04-09T07:57:14.873Z</time></trkpt><trkpt lat="38.465415" lon="16.0113667"><ele>50.333333333333336</ele><time>2026-04-09T07:57:15.874Z</time></trkpt><trkpt lat="38.46531" lon="16.0115"><ele>50.0</ele><time>2026-04-09T07:57:16.874Z</time></trkpt><trkpt lat="38.4652017" lon="16.01164"><ele>50.0</ele><time>2026-04-09T07:57:17.874Z</time></trkpt><trkpt lat="38.4650983" lon="16.011785"><ele>50.0</ele><time>2026-04-09T07:57:18.873Z</time></trkpt><trkpt lat="38.46499" lon="16.0119383"><ele>50.0</ele><time>2026-04-09T07:57:19.873Z</time></trkpt><trkpt lat="38.4648733" lon="16.0121017"><ele>50.0</ele><time>2026-04-09T07:57:20.873Z</time></trkpt><trkpt lat="38.4647517" lon="16.0122633"><ele>50.0</ele><time>2026-04-09T07:57:21.874Z</time></trkpt><trkpt lat="38.464625" lon="16.012435"><ele>50.0</ele><time>2026-04-09T07:57:22.874Z</time></trkpt><trkpt lat="38.4644933" lon="16.0126183"><ele>52.66666666666667</ele><time>2026-04-09T07:57:23.874Z</time></trkpt><trkpt lat="38.4643567" lon="16.012805"><ele>55.33333333333333</ele><time>2026-04-09T07:57:24.874Z</time></trkpt><trkpt lat="38.46421" lon="16.013005"><ele>58.0</ele><time>2026-04-09T07:57:25.874Z</time></trkpt><trkpt lat="38.4640483" lon="16.0132"><ele>56.5</ele><time>2026-04-09T07:57:26.874Z</time></trkpt><trkpt lat="38.4638833" lon="16.0134"><ele>55.0</ele><time>2026-04-09T07:57:27.874Z</time></trkpt><trkpt lat="38.4637183" lon="16.0135983"><ele>64.0</ele><time>2026-04-09T07:57:28.874Z</time></trkpt><trkpt lat="38.463545" lon="16.0138017"><ele>73.0</ele><time>2026-04-09T07:57:29.874Z</time></trkpt><trkpt lat="38.463375" lon="16.0140117"><ele>71.0</ele><time>2026-04-09T07:57:30.873Z</time></trkpt><trkpt lat="38.46321" lon="16.01422"><ele>69.0</ele><time>2026-04-09T07:57:31.873Z</time></trkpt><trkpt lat="38.4630433" lon="16.0144283"><ele>75.0</ele><time>2026-04-09T07:57:32.874Z</time></trkpt><trkpt lat="38.4628783" lon="16.014635"><ele>81.0</ele><time>2026-04-09T07:57:33.873Z</time></trkpt><trkpt lat="38.4627167" lon="16.0148367"><ele>80.5</ele><time>2026-04-09T07:57:34.873Z</time></trkpt><trkpt lat="38.4625433" lon="16.0150417"><ele>80.0</ele><time>2026-04-09T07:57:35.873Z</time></trkpt><trkpt lat="38.4623717" lon="16.0152467"><ele>80.0</ele><time>2026-04-09T07:57:36.873Z</time></trkpt><trkpt lat="38.4622033" lon="16.0154433"><ele>80.0</ele><time>2026-04-09T07:57:37.874Z</time></trkpt><trkpt lat="38.4620433" lon="16.015645"><ele>76.0</ele><time>2026-04-09T07:57:38.873Z</time></trkpt><trkpt lat="38.4618833" lon="16.0158433"><ele>72.0</ele><time>2026-04-09T07:57:39.874Z</time></trkpt><trkpt lat="38.46172" lon="16.0160483"><ele>72.0</ele><time>2026-04-09T07:57:40.874Z</time></trkpt><trkpt lat="38.461555" lon="16.01625"><ele>72.0</ele><time>2026-04-09T07:57:41.874Z</time></trkpt><trkpt lat="38.4613967" lon="16.0164567"><ele>68.33333333333333</ele><time>2026-04-09T07:57:42.874Z</time></trkpt><trkpt lat="38.4612383" lon="16.0166617"><ele>64.66666666666666</ele><time>2026-04-09T07:57:43.873Z</time></trkpt><trkpt lat="38.4610833" lon="16.016865"><ele>61.0</ele><time>2026-04-09T07:57:44.874Z</time></trkpt><trkpt lat="38.4609233" lon="16.0170717"><ele>61.0</ele><time>2026-04-09T07:57:45.873Z</time></trkpt><trkpt lat="38.4607667" lon="16.0172817"><ele>61.0</ele><time>2026-04-09T07:57:46.874Z</time></trkpt><trkpt lat="38.4606167" lon="16.017495"><ele>61.0</ele><time>2026-04-09T07:57:47.873Z</time></trkpt><trkpt lat="38.4604633" lon="16.017715"><ele>61.0</ele><time>2026-04-09T07:57:48.874Z</time></trkpt><trkpt lat="38.4603083" lon="16.01793"><ele>61.0</ele><time>2026-04-09T07:57:49.873Z</time></trkpt><trkpt lat="38.4601533" lon="16.0181467"><ele>61.0</ele><time>2026-04-09T07:57:50.873Z</time></trkpt><trkpt lat="38.4599917" lon="16.0183583"><ele>61.0</ele><time>2026-04-09T07:57:51.874Z</time></trkpt><trkpt lat="38.459845" lon="16.0185817"><ele>61.0</ele><time>2026-04-09T07:57:52.873Z</time></trkpt><trkpt lat="38.4596867" lon="16.0187967"><ele>61.0</ele><time>2026-04-09T07:57:53.874Z</time></trkpt><trkpt lat="38.45953" lon="16.0190133"><ele>61.0</ele><time>2026-04-09T07:57:54.873Z</time></trkpt><trkpt lat="38.459375" lon="16.0192333"><ele>61.5</ele><time>2026-04-09T07:57:55.873Z</time></trkpt><trkpt lat="38.4592217" lon="16.0194533"><ele>62.0</ele><time>2026-04-09T07:57:56.874Z</time></trkpt><trkpt lat="38.4590683" lon="16.01967"><ele>62.0</ele><time>2026-04-09T07:57:57.873Z</time></trkpt><trkpt lat="38.4589067" lon="16.0198967"><ele>62.0</ele><time>2026-04-09T07:57:58.873Z</time></trkpt><trkpt lat="38.4587533" lon="16.020105"><ele>62.0</ele><time>2026-04-09T07:57:59.874Z</time></trkpt><trkpt lat="38.4585983" lon="16.0203067"><ele>62.0</ele><time>2026-04-09T07:58:00.874Z</time></trkpt><trkpt lat="38.458435" lon="16.0205233"><ele>62.0</ele><time>2026-04-09T07:58:01.874Z</time></trkpt><trkpt lat="38.4582783" lon="16.020735"><ele>62.0</ele><time>2026-04-09T07:58:02.873Z</time></trkpt><trkpt lat="38.45813" lon="16.02095"><ele>63.0</ele><time>2026-04-09T07:58:03.874Z</time></trkpt><trkpt lat="38.45797" lon="16.0211633"><ele>64.0</ele><time>2026-04-09T07:58:04.873Z</time></trkpt><trkpt lat="38.4578117" lon="16.02137"><ele>65.0</ele><time>2026-04-09T07:58:05.874Z</time></trkpt><trkpt lat="38.4576567" lon="16.02159"><ele>66.0</ele><time>2026-04-09T07:58:06.873Z</time></trkpt><trkpt lat="38.4575117" lon="16.0218017"><ele>66.0</ele><time>2026-04-09T07:58:07.874Z</time></trkpt><trkpt lat="38.4573633" lon="16.0220167"><ele>66.0</ele><time>2026-04-09T07:58:08.873Z</time></trkpt><trkpt lat="38.45721" lon="16.0222283"><ele>66.0</ele><time>2026-04-09T07:58:09.873Z</time></trkpt><trkpt lat="38.4570667" lon="16.0224483"><ele>66.0</ele><time>2026-04-09T07:58:10.873Z</time></trkpt><trkpt lat="38.45692" lon="16.0226667"><ele>66.0</ele><time>2026-04-09T07:58:11.873Z</time></trkpt><trkpt lat="38.4567733" lon="16.0228767"><ele>66.66666666666667</ele><time>2026-04-09T07:58:12.874Z</time></trkpt><trkpt lat="38.456625" lon="16.0230883"><ele>67.33333333333334</ele><time>2026-04-09T07:58:13.874Z</time></trkpt><trkpt lat="38.4564733" lon="16.0233033"><ele>68.0</ele><time>2026-04-09T07:58:14.873Z</time></trkpt><trkpt lat="38.4563267" lon="16.02352"><ele>68.0</ele><time>2026-04-09T07:58:15.874Z</time></trkpt><trkpt lat="38.4561717" lon="16.0237383"><ele>68.0</ele><time>2026-04-09T07:58:16.873Z</time></trkpt><trkpt lat="38.45602" lon="16.0239483"><ele>68.33333333333334</ele><time>2026-04-09T07:58:17.873Z</time></trkpt><trkpt lat="38.455875" lon="16.024165"><ele>68.66666666666667</ele><time>2026-04-09T07:58:18.873Z</time></trkpt><trkpt lat="38.4557233" lon="16.024375"><ele>69.0</ele><time>2026-04-09T07:58:19.874Z</time></trkpt><trkpt lat="38.45557" lon="16.02459"><ele>69.5</ele><time>2026-04-09T07:58:20.874Z</time></trkpt><trkpt lat="38.455425" lon="16.02481"><ele>70.0</ele><time>2026-04-09T07:58:21.873Z</time></trkpt><trkpt lat="38.4552717" lon="16.0250233"><ele>70.0</ele><time>2026-04-09T07:58:22.873Z</time></trkpt><trkpt lat="38.4551183" lon="16.0252317"><ele>70.0</ele><time>2026-04-09T07:58:23.874Z</time></trkpt><trkpt lat="38.4549667" lon="16.0254417"><ele>70.0</ele><time>2026-04-09T07:58:24.873Z</time></trkpt><trkpt lat="38.4548133" lon="16.0256567"><ele>70.66666666666666</ele><time>2026-04-09T07:58:25.874Z</time></trkpt><trkpt lat="38.4546633" lon="16.0258583"><ele>71.33333333333333</ele><time>2026-04-09T07:58:26.874Z</time></trkpt><trkpt lat="38.454515" lon="16.0260517"><ele>72.0</ele><time>2026-04-09T07:58:27.873Z</time></trkpt><trkpt lat="38.45437" lon="16.0262467"><ele>72.66666666666667</ele><time>2026-04-09T07:58:28.873Z</time></trkpt><trkpt lat="38.454225" lon="16.0264417"><ele>73.33333333333334</ele><time>2026-04-09T07:58:29.873Z</time></trkpt><trkpt lat="38.454085" lon="16.0266433"><ele>74.0</ele><time>2026-04-09T07:58:30.873Z</time></trkpt><trkpt lat="38.45395" lon="16.0268417"><ele>74.33333333333334</ele><time>2026-04-09T07:58:31.873Z</time></trkpt><trkpt lat="38.4538217" lon="16.027025"><ele>74.66666666666667</ele><time>2026-04-09T07:58:32.874Z</time></trkpt><trkpt lat="38.4536983" lon="16.027205"><ele>75.0</ele><time>2026-04-09T07:58:33.873Z</time></trkpt><trkpt lat="38.45358" lon="16.0273717"><ele>75.0</ele><time>2026-04-09T07:58:34.874Z</time></trkpt><trkpt lat="38.45347" lon="16.027535"><ele>75.0</ele><time>2026-04-09T07:58:35.873Z</time></trkpt><trkpt lat="38.453365" lon="16.027695"><ele>75.0</ele><time>2026-04-09T07:58:36.874Z</time></trkpt><trkpt lat="38.4532633" lon="16.027845"><ele>75.0</ele><time>2026-04-09T07:58:37.873Z</time></trkpt><trkpt lat="38.4531767" lon="16.02798"><ele>75.0</ele><time>2026-04-09T07:58:38.874Z</time></trkpt><trkpt lat="38.4530983" lon="16.0281067"><ele>75.0</ele><time>2026-04-09T07:58:39.874Z</time></trkpt><trkpt lat="38.4530167" lon="16.0282217"><ele>75.0</ele><time>2026-04-09T07:58:40.874Z</time></trkpt><trkpt lat="38.4529317" lon="16.0283167"><ele>75.2</ele><time>2026-04-09T07:58:41.873Z</time></trkpt><trkpt lat="38.4528433" lon="16.0283917"><ele>75.4</ele><time>2026-04-09T07:58:42.874Z</time></trkpt><trkpt lat="38.45274" lon="16.02844"><ele>75.6</ele><time>2026-04-09T07:58:43.874Z</time></trkpt><trkpt lat="38.4526333" lon="16.0284833"><ele>75.8</ele><time>2026-04-09T07:58:44.874Z</time></trkpt><trkpt lat="38.452545" lon="16.028555"><ele>76.0</ele><time>2026-04-09T07:58:45.874Z</time></trkpt><trkpt lat="38.4524767" lon="16.02864"><ele>76.0</ele><time>2026-04-09T07:58:46.874Z</time></trkpt><trkpt lat="38.45245" lon="16.02875"><ele>76.0</ele><time>2026-04-09T07:58:47.874Z</time></trkpt><trkpt lat="38.4524417" lon="16.028885"><ele>76.0</ele><time>2026-04-09T07:58:48.874Z</time></trkpt><trkpt lat="38.4524383" lon="16.0290233"><ele>76.0</ele><time>2026-04-09T07:58:49.873Z</time></trkpt><trkpt lat="38.45242" lon="16.0291717"><ele>76.0</ele><time>2026-04-09T07:58:50.873Z</time></trkpt><trkpt lat="38.45238" lon="16.0293133"><ele>76.0</ele><time>2026-04-09T07:58:51.873Z</time></trkpt><trkpt lat="38.45232" lon="16.0294633"><ele>76.0</ele><time>2026-04-09T07:58:52.874Z</time></trkpt><trkpt lat="38.4522517" lon="16.0296183"><ele>76.0</ele><time>2026-04-09T07:58:53.874Z</time></trkpt><trkpt lat="38.4521733" lon="16.0297933"><ele>76.0</ele><time>2026-04-09T07:58:54.873Z</time></trkpt><trkpt lat="38.452095" lon="16.0299633"><ele>76.25</ele><time>2026-04-09T07:58:55.873Z</time></trkpt><trkpt lat="38.452025" lon="16.03014"><ele>76.5</ele><time>2026-04-09T07:58:56.873Z</time></trkpt><trkpt lat="38.4519633" lon="16.0303133"><ele>76.75</ele><time>2026-04-09T07:58:57.874Z</time></trkpt><trkpt lat="38.4519017" lon="16.03048"><ele>77.0</ele><time>2026-04-09T07:58:58.873Z</time></trkpt><trkpt lat="38.4518367" lon="16.03065"><ele>77.25</ele><time>2026-04-09T07:58:59.874Z</time></trkpt><trkpt lat="38.451775" lon="16.0308183"><ele>77.5</ele><time>2026-04-09T07:59:00.873Z</time></trkpt><trkpt lat="38.4517133" lon="16.030995"><ele>77.75</ele><time>2026-04-09T07:59:01.874Z</time></trkpt><trkpt lat="38.4516483" lon="16.031165"><ele>78.0</ele><time>2026-04-09T07:59:02.873Z</time></trkpt><trkpt lat="38.4515817" lon="16.0313367"><ele>78.0</ele><time>2026-04-09T07:59:03.873Z</time></trkpt><trkpt lat="38.4515083" lon="16.0315217"><ele>78.0</ele><time>2026-04-09T07:59:04.873Z</time></trkpt><trkpt lat="38.451435" lon="16.0317033"><ele>78.0</ele><time>2026-04-09T07:59:05.873Z</time></trkpt><trkpt lat="38.4513483" lon="16.03188"><ele>79.0</ele><time>2026-04-09T07:59:06.874Z</time></trkpt><trkpt lat="38.4512667" lon="16.03207"><ele>80.0</ele><time>2026-04-09T07:59:07.874Z</time></trkpt><trkpt lat="38.4511783" lon="16.0322683"><ele>81.0</ele><time>2026-04-09T07:59:08.874Z</time></trkpt><trkpt lat="38.4510833" lon="16.032475"><ele>81.0</ele><time>2026-04-09T07:59:09.873Z</time></trkpt><trkpt lat="38.45097" lon="16.0326917"><ele>81.0</ele><time>2026-04-09T07:59:10.874Z</time></trkpt><trkpt lat="38.4508433" lon="16.0329183"><ele>81.0</ele><time>2026-04-09T07:59:11.873Z</time></trkpt><trkpt lat="38.4507067" lon="16.0331567"><ele>80.5</ele><time>2026-04-09T07:59:12.873Z</time></trkpt><trkpt lat="38.450555" lon="16.0334083"><ele>80.0</ele><time>2026-04-09T07:59:13.874Z</time></trkpt><trkpt lat="38.4503967" lon="16.0336533"><ele>82.0</ele><time>2026-04-09T07:59:14.874Z</time></trkpt><trkpt lat="38.4502483" lon="16.0338933"><ele>84.0</ele><time>2026-04-09T07:59:15.873Z</time></trkpt><trkpt lat="38.4501017" lon="16.03412"><ele>83.0</ele><time>2026-04-09T07:59:16.873Z</time></trkpt><trkpt lat="38.449955" lon="16.0343567"><ele>82.0</ele><time>2026-04-09T07:59:17.874Z</time></trkpt><trkpt lat="38.4498" lon="16.0346017"><ele>82.0</ele><time>2026-04-09T07:59:18.874Z</time></trkpt><trkpt lat="38.449635" lon="16.0348467"><ele>82.0</ele><time>2026-04-09T07:59:19.874Z</time></trkpt><trkpt lat="38.4494717" lon="16.0350817"><ele>82.33333333333333</ele><time>2026-04-09T07:59:20.874Z</time></trkpt><trkpt lat="38.4493133" lon="16.035295"><ele>82.66666666666667</ele><time>2026-04-09T07:59:21.873Z</time></trkpt><trkpt lat="38.4491633" lon="16.0354917"><ele>83.0</ele><time>2026-04-09T07:59:22.874Z</time></trkpt><trkpt lat="38.4490233" lon="16.03569"><ele>83.0</ele><time>2026-04-09T07:59:23.873Z</time></trkpt><trkpt lat="38.4488783" lon="16.0358717"><ele>83.0</ele><time>2026-04-09T07:59:24.874Z</time></trkpt><trkpt lat="38.4487367" lon="16.036045"><ele>83.0</ele><time>2026-04-09T07:59:25.874Z</time></trkpt><trkpt lat="38.4486" lon="16.03621"><ele>84.0</ele><time>2026-04-09T07:59:26.874Z</time></trkpt><trkpt lat="38.4484733" lon="16.0363717"><ele>85.0</ele><time>2026-04-09T07:59:27.874Z</time></trkpt><trkpt lat="38.4483483" lon="16.03652"><ele>86.0</ele><time>2026-04-09T07:59:28.874Z</time></trkpt><trkpt lat="38.4482183" lon="16.036655"><ele>86.0</ele><time>2026-04-09T07:59:29.874Z</time></trkpt><trkpt lat="38.44809" lon="16.0367883"><ele>86.0</ele><time>2026-04-09T07:59:30.873Z</time></trkpt><trkpt lat="38.447955" lon="16.0369167"><ele>86.0</ele><time>2026-04-09T07:59:31.874Z</time></trkpt><trkpt lat="38.44782" lon="16.0370467"><ele>86.33333333333334</ele><time>2026-04-09T07:59:32.873Z</time></trkpt><trkpt lat="38.4476833" lon="16.037175"><ele>86.66666666666667</ele><time>2026-04-09T07:59:33.874Z</time></trkpt><trkpt lat="38.447545" lon="16.037305"><ele>87.0</ele><time>2026-04-09T07:59:34.874Z</time></trkpt><trkpt lat="38.447405" lon="16.037435"><ele>87.0</ele><time>2026-04-09T07:59:35.873Z</time></trkpt><trkpt lat="38.447265" lon="16.03756"><ele>87.0</ele><time>2026-04-09T07:59:36.874Z</time></trkpt><trkpt lat="38.447115" lon="16.0376817"><ele>87.0</ele><time>2026-04-09T07:59:37.874Z</time></trkpt><trkpt lat="38.44696" lon="16.0378167"><ele>88.33333333333333</ele><time>2026-04-09T07:59:38.874Z</time></trkpt><trkpt lat="38.4467883" lon="16.0379633"><ele>89.66666666666666</ele><time>2026-04-09T07:59:39.873Z</time></trkpt><trkpt lat="38.446605" lon="16.0381067"><ele>91.0</ele><time>2026-04-09T07:59:40.874Z</time></trkpt><trkpt lat="38.4464117" lon="16.0382633"><ele>91.5</ele><time>2026-04-09T07:59:41.873Z</time></trkpt><trkpt lat="38.4462067" lon="16.0384217"><ele>92.0</ele><time>2026-04-09T07:59:42.874Z</time></trkpt><trkpt lat="38.446" lon="16.0385817"><ele>92.0</ele><time>2026-04-09T07:59:43.874Z</time></trkpt><trkpt lat="38.4457867" lon="16.0387433"><ele>92.0</ele><time>2026-04-09T07:59:44.874Z</time></trkpt><trkpt lat="38.4455817" lon="16.0388967"><ele>92.0</ele><time>2026-04-09T07:59:45.874Z</time></trkpt><trkpt lat="38.4453883" lon="16.03904"><ele>92.0</ele><time>2026-04-09T07:59:46.873Z</time></trkpt><trkpt lat="38.4452033" lon="16.0391667"><ele>92.0</ele><time>2026-04-09T07:59:47.874Z</time></trkpt><trkpt lat="38.4450217" lon="16.039295"><ele>92.0</ele><time>2026-04-09T07:59:48.873Z</time></trkpt><trkpt lat="38.4448533" lon="16.0394217"><ele>92.0</ele><time>2026-04-09T07:59:49.873Z</time></trkpt><trkpt lat="38.4446817" lon="16.0395467"><ele>92.0</ele><time>2026-04-09T07:59:50.874Z</time></trkpt><trkpt lat="38.4445167" lon="16.0396667"><ele>92.0</ele><time>2026-04-09T07:59:51.874Z</time></trkpt><trkpt lat="38.4443533" lon="16.039795"><ele>92.0</ele><time>2026-04-09T07:59:52.873Z</time></trkpt><trkpt lat="38.4441967" lon="16.0399167"><ele>92.0</ele><time>2026-04-09T07:59:53.874Z</time></trkpt><trkpt lat="38.4440333" lon="16.0400333"><ele>93.33333333333334</ele><time>2026-04-09T07:59:54.873Z</time></trkpt><trkpt lat="38.4438667" lon="16.0401567"><ele>94.66666666666667</ele><time>2026-04-09T07:59:55.873Z</time></trkpt><trkpt lat="38.4436867" lon="16.0402967"><ele>96.0</ele><time>2026-04-09T07:59:56.874Z</time></trkpt><trkpt lat="38.4434933" lon="16.0404383"><ele>96.0</ele><time>2026-04-09T07:59:57.873Z</time></trkpt><trkpt lat="38.4433" lon="16.04059"><ele>96.0</ele><time>2026-04-09T07:59:58.873Z</time></trkpt><trkpt lat="38.4430917" lon="16.0407517"><ele>97.5</ele><time>2026-04-09T07:59:59.873Z</time></trkpt><trkpt lat="38.4428733" lon="16.0409283"><ele>99.0</ele><time>2026-04-09T08:00:00.874Z</time></trkpt><trkpt lat="38.44264" lon="16.0411183"><ele>99.0</ele><time>2026-04-09T08:00:01.874Z</time></trkpt><trkpt lat="38.4424" lon="16.0413233"><ele>99.0</ele><time>2026-04-09T08:00:02.874Z</time></trkpt><trkpt lat="38.4421567" lon="16.04153"><ele>100.0</ele><time>2026-04-09T08:00:03.874Z</time></trkpt><trkpt lat="38.44192" lon="16.0417383"><ele>101.0</ele><time>2026-04-09T08:00:04.873Z</time></trkpt><trkpt lat="38.4416967" lon="16.0419383"><ele>101.0</ele><time>2026-04-09T08:00:05.874Z</time></trkpt><trkpt lat="38.4414833" lon="16.0421333"><ele>101.0</ele><time>2026-04-09T08:00:06.874Z</time></trkpt><trkpt lat="38.441285" lon="16.0423217"><ele>103.5</ele><time>2026-04-09T08:00:07.873Z</time></trkpt><trkpt lat="38.4410933" lon="16.0425117"><ele>106.0</ele><time>2026-04-09T08:00:08.873Z</time></trkpt><trkpt lat="38.440915" lon="16.0427033"><ele>106.0</ele><time>2026-04-09T08:00:09.873Z</time></trkpt><trkpt lat="38.440735" lon="16.0428983"><ele>106.0</ele><time>2026-04-09T08:00:10.873Z</time></trkpt><trkpt lat="38.4405483" lon="16.04309"><ele>105.0</ele><time>2026-04-09T08:00:11.874Z</time></trkpt><trkpt lat="38.4403717" lon="16.0432783"><ele>104.0</ele><time>2026-04-09T08:00:12.874Z</time></trkpt><trkpt lat="38.4402017" lon="16.0434633"><ele>105.66666666666666</ele><time>2026-04-09T08:00:13.873Z</time></trkpt><trkpt lat="38.440035" lon="16.0436533"><ele>107.33333333333334</ele><time>2026-04-09T08:00:14.874Z</time></trkpt><trkpt lat="38.4398667" lon="16.0438383"><ele>109.0</ele><time>2026-04-09T08:00:15.873Z</time></trkpt><trkpt lat="38.4396983" lon="16.0440233"><ele>112.0</ele><time>2026-04-09T08:00:16.873Z</time></trkpt><trkpt lat="38.4395233" lon="16.0442033"><ele>115.0</ele><time>2026-04-09T08:00:17.874Z</time></trkpt><trkpt lat="38.4393533" lon="16.044385"><ele>118.0</ele><time>2026-04-09T08:00:18.874Z</time></trkpt><trkpt lat="38.4391867" lon="16.0445683"><ele>118.0</ele><time>2026-04-09T08:00:19.874Z</time></trkpt><trkpt lat="38.4390117" lon="16.044745"><ele>118.0</ele><time>2026-04-09T08:00:20.874Z</time></trkpt><trkpt lat="38.4388483" lon="16.0449233"><ele>118.0</ele><time>2026-04-09T08:00:21.873Z</time></trkpt><trkpt lat="38.4386817" lon="16.0450983"><ele>121.66666666666667</ele><time>2026-04-09T08:00:22.874Z</time></trkpt><trkpt lat="38.4385167" lon="16.045265"><ele>125.33333333333334</ele><time>2026-04-09T08:00:23.873Z</time></trkpt><trkpt lat="38.43836" lon="16.0454317"><ele>129.0</ele><time>2026-04-09T08:00:24.873Z</time></trkpt><trkpt lat="38.4382083" lon="16.045595"><ele>129.0</ele><time>2026-04-09T08:00:25.874Z</time></trkpt><trkpt lat="38.438065" lon="16.0457567"><ele>129.0</ele><time>2026-04-09T08:00:26.874Z</time></trkpt><trkpt lat="38.43792" lon="16.0459317"><ele>129.0</ele><time>2026-04-09T08:00:27.874Z</time></trkpt><trkpt lat="38.4377583" lon="16.0460967"><ele>128.33333333333334</ele><time>2026-04-09T08:00:28.873Z</time></trkpt><trkpt lat="38.4376017" lon="16.04625"><ele>127.66666666666667</ele><time>2026-04-09T08:00:29.874Z</time></trkpt><trkpt lat="38.4374367" lon="16.0464167"><ele>127.0</ele><time>2026-04-09T08:00:30.874Z</time></trkpt><trkpt lat="38.4372717" lon="16.0465817"><ele>128.33333333333334</ele><time>2026-04-09T08:00:31.874Z</time></trkpt><trkpt lat="38.437105" lon="16.0467433"><ele>129.66666666666666</ele><time>2026-04-09T08:00:32.874Z</time></trkpt><trkpt lat="38.4369467" lon="16.046895"><ele>131.0</ele><time>2026-04-09T08:00:33.874Z</time></trkpt><trkpt lat="38.4367933" lon="16.04704"><ele>131.0</ele><time>2026-04-09T08:00:34.874Z</time></trkpt><trkpt lat="38.4366517" lon="16.0471833"><ele>131.0</ele><time>2026-04-09T08:00:35.875Z</time></trkpt><trkpt lat="38.4365033" lon="16.0473233"><ele>131.0</ele><time>2026-04-09T08:00:36.874Z</time></trkpt><trkpt lat="38.4363583" lon="16.0474533"><ele>130.66666666666666</ele><time>2026-04-09T08:00:37.875Z</time></trkpt><trkpt lat="38.4362183" lon="16.0475867"><ele>130.33333333333334</ele><time>2026-04-09T08:00:38.874Z</time></trkpt><trkpt lat="38.4360833" lon="16.0477133"><ele>130.0</ele><time>2026-04-09T08:00:39.875Z</time></trkpt><trkpt lat="38.435945" lon="16.0478383"><ele>130.0</ele><time>2026-04-09T08:00:40.875Z</time></trkpt><trkpt lat="38.4358067" lon="16.0479683"><ele>130.0</ele><time>2026-04-09T08:00:41.875Z</time></trkpt><trkpt lat="38.43567" lon="16.048095"><ele>130.0</ele><time>2026-04-09T08:00:42.875Z</time></trkpt><trkpt lat="38.4355383" lon="16.0482217"><ele>133.66666666666669</ele><time>2026-04-09T08:00:43.874Z</time></trkpt><trkpt lat="38.4354117" lon="16.048355"><ele>137.33333333333334</ele><time>2026-04-09T08:00:44.874Z</time></trkpt><trkpt lat="38.4352783" lon="16.048475"><ele>141.0</ele><time>2026-04-09T08:00:45.875Z</time></trkpt><trkpt lat="38.4351367" lon="16.0485983"><ele>141.0</ele><time>2026-04-09T08:00:46.875Z</time></trkpt><trkpt lat="38.4349983" lon="16.0487233"><ele>141.0</ele><time>2026-04-09T08:00:47.875Z</time></trkpt><trkpt lat="38.4348517" lon="16.048855"><ele>141.0</ele><time>2026-04-09T08:00:48.874Z</time></trkpt><trkpt lat="38.434705" lon="16.0489867"><ele>140.66666666666666</ele><time>2026-04-09T08:00:49.875Z</time></trkpt><trkpt lat="38.4345467" lon="16.049125"><ele>140.33333333333331</ele><time>2026-04-09T08:00:50.874Z</time></trkpt><trkpt lat="38.4344017" lon="16.0492733"><ele>140.0</ele><time>2026-04-09T08:00:51.875Z</time></trkpt><trkpt lat="38.4342467" lon="16.0494233"><ele>141.0</ele><time>2026-04-09T08:00:52.875Z</time></trkpt><trkpt lat="38.4341067" lon="16.0495717"><ele>142.0</ele><time>2026-04-09T08:00:53.874Z</time></trkpt><trkpt lat="38.433955" lon="16.0497283"><ele>143.0</ele><time>2026-04-09T08:00:54.874Z</time></trkpt><trkpt lat="38.4337983" lon="16.0498883"><ele>144.66666666666666</ele><time>2026-04-09T08:00:55.874Z</time></trkpt><trkpt lat="38.4336433" lon="16.050055"><ele>146.33333333333334</ele><time>2026-04-09T08:00:56.875Z</time></trkpt><trkpt lat="38.43349" lon="16.050235"><ele>148.0</ele><time>2026-04-09T08:00:57.875Z</time></trkpt><trkpt lat="38.433325" lon="16.0504267"><ele>148.0</ele><time>2026-04-09T08:00:58.875Z</time></trkpt><trkpt lat="38.4331533" lon="16.0506183"><ele>148.0</ele><time>2026-04-09T08:00:59.875Z</time></trkpt><trkpt lat="38.4329783" lon="16.0508183"><ele>148.66666666666669</ele><time>2026-04-09T08:01:00.875Z</time></trkpt><trkpt lat="38.4328117" lon="16.0510033"><ele>149.33333333333334</ele><time>2026-04-09T08:01:01.874Z</time></trkpt><trkpt lat="38.4326533" lon="16.0511817"><ele>150.0</ele><time>2026-04-09T08:01:02.874Z</time></trkpt><trkpt lat="38.432495" lon="16.0513633"><ele>150.0</ele><time>2026-04-09T08:01:03.874Z</time></trkpt><trkpt lat="38.4323383" lon="16.0515483"><ele>150.0</ele><time>2026-04-09T08:01:04.874Z</time></trkpt><trkpt lat="38.4321717" lon="16.0517433"><ele>150.0</ele><time>2026-04-09T08:01:05.875Z</time></trkpt><trkpt lat="38.4319933" lon="16.0519433"><ele>150.5</ele><time>2026-04-09T08:01:06.875Z</time></trkpt><trkpt lat="38.4318167" lon="16.0521483"><ele>151.0</ele><time>2026-04-09T08:01:07.874Z</time></trkpt><trkpt lat="38.431635" lon="16.0523533"><ele>153.0</ele><time>2026-04-09T08:01:08.875Z</time></trkpt><trkpt lat="38.4314633" lon="16.0525533"><ele>155.0</ele><time>2026-04-09T08:01:09.875Z</time></trkpt><trkpt lat="38.4312933" lon="16.05275"><ele>156.5</ele><time>2026-04-09T08:01:10.874Z</time></trkpt><trkpt lat="38.431125" lon="16.052945"><ele>158.0</ele><time>2026-04-09T08:01:11.875Z</time></trkpt><trkpt lat="38.43096" lon="16.05314"><ele>158.33333333333331</ele><time>2026-04-09T08:01:12.874Z</time></trkpt><trkpt lat="38.4307933" lon="16.0533283"><ele>158.66666666666666</ele><time>2026-04-09T08:01:13.875Z</time></trkpt><trkpt lat="38.4306283" lon="16.0535267"><ele>159.0</ele><time>2026-04-09T08:01:14.875Z</time></trkpt><trkpt lat="38.4304683" lon="16.0537183"><ele>159.5</ele><time>2026-04-09T08:01:15.874Z</time></trkpt><trkpt lat="38.4303033" lon="16.05391"><ele>160.0</ele><time>2026-04-09T08:01:16.874Z</time></trkpt><trkpt lat="38.4301367" lon="16.05411"><ele>160.0</ele><time>2026-04-09T08:01:17.874Z</time></trkpt><trkpt lat="38.4299617" lon="16.0543083"><ele>160.0</ele><time>2026-04-09T08:01:18.874Z</time></trkpt><trkpt lat="38.4297917" lon="16.0545067"><ele>160.5</ele><time>2026-04-09T08:01:19.875Z</time></trkpt><trkpt lat="38.4296167" lon="16.0546917"><ele>161.0</ele><time>2026-04-09T08:01:20.875Z</time></trkpt><trkpt lat="38.4294483" lon="16.0548817"><ele>161.0</ele><time>2026-04-09T08:01:21.874Z</time></trkpt><trkpt lat="38.4292867" lon="16.0550667"><ele>161.0</ele><time>2026-04-09T08:01:22.875Z</time></trkpt><trkpt lat="38.4291367" lon="16.0552433"><ele>161.0</ele><time>2026-04-09T08:01:23.875Z</time></trkpt><trkpt lat="38.4289983" lon="16.0554067"><ele>161.0</ele><time>2026-04-09T08:01:24.875Z</time></trkpt><trkpt lat="38.4288583" lon="16.0555717"><ele>161.0</ele><time>2026-04-09T08:01:25.875Z</time></trkpt><trkpt lat="38.4287183" lon="16.055735"><ele>161.0</ele><time>2026-04-09T08:01:26.874Z</time></trkpt><trkpt lat="38.42857" lon="16.0558967"><ele>162.66666666666666</ele><time>2026-04-09T08:01:27.875Z</time></trkpt><trkpt lat="38.42842" lon="16.0560733"><ele>164.33333333333334</ele><time>2026-04-09T08:01:28.874Z</time></trkpt><trkpt lat="38.4282667" lon="16.0562517"><ele>166.0</ele><time>2026-04-09T08:01:29.875Z</time></trkpt><trkpt lat="38.42811" lon="16.05643"><ele>167.0</ele><time>2026-04-09T08:01:30.875Z</time></trkpt><trkpt lat="38.4279533" lon="16.0566067"><ele>168.0</ele><time>2026-04-09T08:01:31.875Z</time></trkpt><trkpt lat="38.42781" lon="16.05677"><ele>169.0</ele><time>2026-04-09T08:01:32.874Z</time></trkpt><trkpt lat="38.427675" lon="16.05693"><ele>169.0</ele><time>2026-04-09T08:01:33.874Z</time></trkpt><trkpt lat="38.4275467" lon="16.0570867"><ele>169.0</ele><time>2026-04-09T08:01:34.874Z</time></trkpt><trkpt lat="38.4274117" lon="16.05724"><ele>169.0</ele><time>2026-04-09T08:01:35.875Z</time></trkpt><trkpt lat="38.42727" lon="16.0574017"><ele>171.33333333333334</ele><time>2026-04-09T08:01:36.875Z</time></trkpt><trkpt lat="38.4271267" lon="16.0575667"><ele>173.66666666666666</ele><time>2026-04-09T08:01:37.874Z</time></trkpt><trkpt lat="38.4269833" lon="16.0577367"><ele>176.0</ele><time>2026-04-09T08:01:38.875Z</time></trkpt><trkpt lat="38.4268417" lon="16.0578983"><ele>176.0</ele><time>2026-04-09T08:01:39.875Z</time></trkpt><trkpt lat="38.426695" lon="16.0580683"><ele>176.0</ele><time>2026-04-09T08:01:40.875Z</time></trkpt><trkpt lat="38.4265533" lon="16.05824"><ele>176.0</ele><time>2026-04-09T08:01:41.874Z</time></trkpt><trkpt lat="38.4264067" lon="16.0584033"><ele>177.66666666666666</ele><time>2026-04-09T08:01:42.875Z</time></trkpt><trkpt lat="38.4262617" lon="16.0585833"><ele>179.33333333333334</ele><time>2026-04-09T08:01:43.875Z</time></trkpt><trkpt lat="38.4261033" lon="16.05877"><ele>181.0</ele><time>2026-04-09T08:01:44.874Z</time></trkpt><trkpt lat="38.4259433" lon="16.0589683"><ele>180.0</ele><time>2026-04-09T08:01:45.875Z</time></trkpt><trkpt lat="38.42577" lon="16.059155"><ele>179.0</ele><time>2026-04-09T08:01:46.874Z</time></trkpt><trkpt lat="38.4256017" lon="16.059345"><ele>180.0</ele><time>2026-04-09T08:01:47.875Z</time></trkpt><trkpt lat="38.425445" lon="16.0595267"><ele>181.0</ele><time>2026-04-09T08:01:48.874Z</time></trkpt><trkpt lat="38.4252767" lon="16.0597117"><ele>182.0</ele><time>2026-04-09T08:01:49.874Z</time></trkpt><trkpt lat="38.425105" lon="16.0599033"><ele>181.5</ele><time>2026-04-09T08:01:50.875Z</time></trkpt><trkpt lat="38.4249367" lon="16.060095"><ele>181.0</ele><time>2026-04-09T08:01:51.875Z</time></trkpt><trkpt lat="38.424765" lon="16.0602967"><ele>181.5</ele><time>2026-04-09T08:01:52.874Z</time></trkpt><trkpt lat="38.4245883" lon="16.0604933"><ele>182.0</ele><time>2026-04-09T08:01:53.874Z</time></trkpt><trkpt lat="38.4244067" lon="16.0606983"><ele>182.0</ele><time>2026-04-09T08:01:54.874Z</time></trkpt><trkpt lat="38.4242333" lon="16.060905"><ele>182.0</ele><time>2026-04-09T08:01:55.874Z</time></trkpt><trkpt lat="38.4240567" lon="16.0610983"><ele>182.0</ele><time>2026-04-09T08:01:56.874Z</time></trkpt><trkpt lat="38.423885" lon="16.061305"><ele>182.0</ele><time>2026-04-09T08:01:57.875Z</time></trkpt><trkpt lat="38.423715" lon="16.0615117"><ele>185.0</ele><time>2026-04-09T08:01:58.875Z</time></trkpt><trkpt lat="38.4235417" lon="16.0617183"><ele>188.0</ele><time>2026-04-09T08:01:59.875Z</time></trkpt><trkpt lat="38.4233633" lon="16.0619267"><ele>188.0</ele><time>2026-04-09T08:02:00.875Z</time></trkpt><trkpt lat="38.4231817" lon="16.06213"><ele>188.0</ele><time>2026-04-09T08:02:01.875Z</time></trkpt><trkpt lat="38.4230033" lon="16.062325"><ele>189.0</ele><time>2026-04-09T08:02:02.874Z</time></trkpt><trkpt lat="38.4228317" lon="16.0625217"><ele>190.0</ele><time>2026-04-09T08:02:03.875Z</time></trkpt><trkpt lat="38.422665" lon="16.06272"><ele>190.0</ele><time>2026-04-09T08:02:04.875Z</time></trkpt><trkpt lat="38.4224967" lon="16.0629133"><ele>190.0</ele><time>2026-04-09T08:02:05.874Z</time></trkpt><trkpt lat="38.4223317" lon="16.0631033"><ele>190.0</ele><time>2026-04-09T08:02:06.874Z</time></trkpt><trkpt lat="38.4221733" lon="16.0632967"><ele>190.66666666666669</ele><time>2026-04-09T08:02:07.874Z</time></trkpt><trkpt lat="38.4220167" lon="16.0634883"><ele>191.33333333333334</ele><time>2026-04-09T08:02:08.875Z</time></trkpt><trkpt lat="38.4218633" lon="16.0636817"><ele>192.0</ele><time>2026-04-09T08:02:09.874Z</time></trkpt><trkpt lat="38.4217167" lon="16.0638667"><ele>192.0</ele><time>2026-04-09T08:02:10.874Z</time></trkpt><trkpt lat="38.421575" lon="16.0640517"><ele>192.0</ele><time>2026-04-09T08:02:11.875Z</time></trkpt><trkpt lat="38.4214367" lon="16.064225"><ele>192.0</ele><time>2026-04-09T08:02:12.875Z</time></trkpt><trkpt lat="38.4212983" lon="16.064405"><ele>193.33333333333331</ele><time>2026-04-09T08:02:13.875Z</time></trkpt><trkpt lat="38.4211617" lon="16.0645767"><ele>194.66666666666666</ele><time>2026-04-09T08:02:14.875Z</time></trkpt><trkpt lat="38.4210267" lon="16.06475"><ele>196.0</ele><time>2026-04-09T08:02:15.874Z</time></trkpt><trkpt lat="38.4208883" lon="16.0649267"><ele>195.66666666666666</ele><time>2026-04-09T08:02:16.875Z</time></trkpt><trkpt lat="38.4207633" lon="16.0651"><ele>195.33333333333331</ele><time>2026-04-09T08:02:17.874Z</time></trkpt><trkpt lat="38.4206367" lon="16.065275"><ele>195.0</ele><time>2026-04-09T08:02:18.874Z</time></trkpt><trkpt lat="38.4205133" lon="16.0654567"><ele>195.0</ele><time>2026-04-09T08:02:19.874Z</time></trkpt><trkpt lat="38.4203883" lon="16.0656367"><ele>195.0</ele><time>2026-04-09T08:02:20.874Z</time></trkpt><trkpt lat="38.42027" lon="16.0658283"><ele>195.0</ele><time>2026-04-09T08:02:21.874Z</time></trkpt><trkpt lat="38.42014" lon="16.0660417"><ele>195.66666666666669</ele><time>2026-04-09T08:02:22.874Z</time></trkpt><trkpt lat="38.4199933" lon="16.066245"><ele>196.33333333333334</ele><time>2026-04-09T08:02:23.874Z</time></trkpt><trkpt lat="38.419845" lon="16.0664683"><ele>197.0</ele><time>2026-04-09T08:02:24.874Z</time></trkpt><trkpt lat="38.4197017" lon="16.0666917"><ele>198.66666666666669</ele><time>2026-04-09T08:02:25.875Z</time></trkpt><trkpt lat="38.41957" lon="16.06691"><ele>200.33333333333331</ele><time>2026-04-09T08:02:26.875Z</time></trkpt><trkpt lat="38.41943" lon="16.0671217"><ele>202.0</ele><time>2026-04-09T08:02:27.875Z</time></trkpt><trkpt lat="38.4192983" lon="16.0673533"><ele>201.5</ele><time>2026-04-09T08:02:28.875Z</time></trkpt><trkpt lat="38.41917" lon="16.0675917"><ele>201.0</ele><time>2026-04-09T08:02:29.874Z</time></trkpt><trkpt lat="38.4190483" lon="16.0678317"><ele>201.0</ele><time>2026-04-09T08:02:30.875Z</time></trkpt><trkpt lat="38.418935" lon="16.0680783"><ele>201.0</ele><time>2026-04-09T08:02:31.874Z</time></trkpt><trkpt lat="38.41882" lon="16.0683317"><ele>201.0</ele><time>2026-04-09T08:02:32.875Z</time></trkpt><trkpt lat="38.4187017" lon="16.0685867"><ele>201.0</ele><time>2026-04-09T08:02:33.875Z</time></trkpt><trkpt lat="38.4185883" lon="16.0688467"><ele>201.0</ele><time>2026-04-09T08:02:34.874Z</time></trkpt><trkpt lat="38.4184817" lon="16.0691033"><ele>201.0</ele><time>2026-04-09T08:02:35.875Z</time></trkpt><trkpt lat="38.4183767" lon="16.06936"><ele>202.0</ele><time>2026-04-09T08:02:36.875Z</time></trkpt><trkpt lat="38.4182717" lon="16.06963"><ele>203.0</ele><time>2026-04-09T08:02:37.874Z</time></trkpt><trkpt lat="38.41818" lon="16.06989"><ele>203.5</ele><time>2026-04-09T08:02:38.874Z</time></trkpt><trkpt lat="38.41809" lon="16.0701617"><ele>204.0</ele><time>2026-04-09T08:02:39.875Z</time></trkpt><trkpt lat="38.4180067" lon="16.0704383"><ele>204.33333333333331</ele><time>2026-04-09T08:02:40.875Z</time></trkpt><trkpt lat="38.4179233" lon="16.070705"><ele>204.66666666666666</ele><time>2026-04-09T08:02:41.875Z</time></trkpt><trkpt lat="38.41785" lon="16.0709733"><ele>205.0</ele><time>2026-04-09T08:02:42.875Z</time></trkpt><trkpt lat="38.4177817" lon="16.0712517"><ele>205.0</ele><time>2026-04-09T08:02:43.875Z</time></trkpt><trkpt lat="38.4177183" lon="16.07153"><ele>205.0</ele><time>2026-04-09T08:02:44.875Z</time></trkpt><trkpt lat="38.4176633" lon="16.07181"><ele>207.5</ele><time>2026-04-09T08:02:45.875Z</time></trkpt><trkpt lat="38.41761" lon="16.0720883"><ele>210.0</ele><time>2026-04-09T08:02:46.874Z</time></trkpt><trkpt lat="38.4175567" lon="16.07237"><ele>211.0</ele><time>2026-04-09T08:02:47.874Z</time></trkpt><trkpt lat="38.4175117" lon="16.072655"><ele>212.0</ele><time>2026-04-09T08:02:48.875Z</time></trkpt><trkpt lat="38.417475" lon="16.0729367"><ele>212.0</ele><time>2026-04-09T08:02:49.874Z</time></trkpt><trkpt lat="38.4174433" lon="16.0732317"><ele>212.0</ele><time>2026-04-09T08:02:50.875Z</time></trkpt><trkpt lat="38.4174167" lon="16.073515"><ele>212.5</ele><time>2026-04-09T08:02:51.874Z</time></trkpt><trkpt lat="38.4173967" lon="16.0738067"><ele>213.0</ele><time>2026-04-09T08:02:52.874Z</time></trkpt><trkpt lat="38.4173783" lon="16.0741017"><ele>213.0</ele><time>2026-04-09T08:02:53.874Z</time></trkpt><trkpt lat="38.4173717" lon="16.0744017"><ele>213.0</ele><time>2026-04-09T08:02:54.875Z</time></trkpt><trkpt lat="38.4173633" lon="16.0747"><ele>213.0</ele><time>2026-04-09T08:02:55.874Z</time></trkpt><trkpt lat="38.4173667" lon="16.0749867"><ele>213.0</ele><time>2026-04-09T08:02:56.874Z</time></trkpt><trkpt lat="38.41737" lon="16.075285"><ele>213.0</ele><time>2026-04-09T08:02:57.875Z</time></trkpt><trkpt lat="38.417375" lon="16.0755833"><ele>213.0</ele><time>2026-04-09T08:02:58.874Z</time></trkpt><trkpt lat="38.4173917" lon="16.075885"><ele>215.0</ele><time>2026-04-09T08:02:59.874Z</time></trkpt><trkpt lat="38.417425" lon="16.076185"><ele>217.0</ele><time>2026-04-09T08:03:00.875Z</time></trkpt><trkpt lat="38.41745" lon="16.0764733"><ele>218.0</ele><time>2026-04-09T08:03:01.874Z</time></trkpt><trkpt lat="38.41748" lon="16.0767633"><ele>219.0</ele><time>2026-04-09T08:03:02.875Z</time></trkpt><trkpt lat="38.417505" lon="16.077055"><ele>219.0</ele><time>2026-04-09T08:03:03.874Z</time></trkpt><trkpt lat="38.41754" lon="16.0773367"><ele>219.0</ele><time>2026-04-09T08:03:04.875Z</time></trkpt><trkpt lat="38.417565" lon="16.0776183"><ele>219.0</ele><time>2026-04-09T08:03:05.874Z</time></trkpt><trkpt lat="38.4176083" lon="16.0779017"><ele>220.0</ele><time>2026-04-09T08:03:06.874Z</time></trkpt><trkpt lat="38.4176367" lon="16.0781917"><ele>221.0</ele><time>2026-04-09T08:03:07.875Z</time></trkpt><trkpt lat="38.41767" lon="16.07847"><ele>221.0</ele><time>2026-04-09T08:03:08.874Z</time></trkpt><trkpt lat="38.4176917" lon="16.078755"><ele>221.0</ele><time>2026-04-09T08:03:09.874Z</time></trkpt><trkpt lat="38.417725" lon="16.0790333"><ele>221.0</ele><time>2026-04-09T08:03:10.874Z</time></trkpt><trkpt lat="38.417755" lon="16.079325"><ele>224.0</ele><time>2026-04-09T08:03:11.875Z</time></trkpt><trkpt lat="38.4177983" lon="16.0796017"><ele>227.0</ele><time>2026-04-09T08:03:12.875Z</time></trkpt><trkpt lat="38.4178367" lon="16.0798967"><ele>228.5</ele><time>2026-04-09T08:03:13.874Z</time></trkpt><trkpt lat="38.4178783" lon="16.0801833"><ele>230.0</ele><time>2026-04-09T08:03:14.874Z</time></trkpt><trkpt lat="38.417915" lon="16.0804767"><ele>230.0</ele><time>2026-04-09T08:03:15.874Z</time></trkpt><trkpt lat="38.41796" lon="16.0807683"><ele>230.0</ele><time>2026-04-09T08:03:16.874Z</time></trkpt><trkpt lat="38.4179983" lon="16.0810633"><ele>230.0</ele><time>2026-04-09T08:03:17.874Z</time></trkpt><trkpt lat="38.4180333" lon="16.0813517"><ele>230.0</ele><time>2026-04-09T08:03:18.874Z</time></trkpt><trkpt lat="38.41806" lon="16.0816467"><ele>229.5</ele><time>2026-04-09T08:03:19.874Z</time></trkpt><trkpt lat="38.4180917" lon="16.0819317"><ele>229.0</ele><time>2026-04-09T08:03:20.874Z</time></trkpt><trkpt lat="38.41812" lon="16.0822317"><ele>229.5</ele><time>2026-04-09T08:03:21.875Z</time></trkpt><trkpt lat="38.4181567" lon="16.0825267"><ele>230.0</ele><time>2026-04-09T08:03:22.874Z</time></trkpt><trkpt lat="38.418205" lon="16.0828183"><ele>230.0</ele><time>2026-04-09T08:03:23.875Z</time></trkpt><trkpt lat="38.4182383" lon="16.083105"><ele>230.0</ele><time>2026-04-09T08:03:24.874Z</time></trkpt><trkpt lat="38.41829" lon="16.083395"><ele>231.5</ele><time>2026-04-09T08:03:25.875Z</time></trkpt><trkpt lat="38.4183333" lon="16.083685"><ele>233.0</ele><time>2026-04-09T08:03:26.874Z</time></trkpt><trkpt lat="38.418385" lon="16.08397"><ele>233.0</ele><time>2026-04-09T08:03:27.875Z</time></trkpt><trkpt lat="38.4184383" lon="16.0842533"><ele>233.0</ele><time>2026-04-09T08:03:28.874Z</time></trkpt><trkpt lat="38.4184967" lon="16.0845317"><ele>233.0</ele><time>2026-04-09T08:03:29.875Z</time></trkpt><trkpt lat="38.4185667" lon="16.08481"><ele>233.0</ele><time>2026-04-09T08:03:30.874Z</time></trkpt><trkpt lat="38.4186483" lon="16.0850917"><ele>232.5</ele><time>2026-04-09T08:03:31.875Z</time></trkpt><trkpt lat="38.41873" lon="16.0853617"><ele>232.0</ele><time>2026-04-09T08:03:32.875Z</time></trkpt><trkpt lat="38.41882" lon="16.085635"><ele>233.0</ele><time>2026-04-09T08:03:33.874Z</time></trkpt><trkpt lat="38.4189167" lon="16.0858967"><ele>234.0</ele><time>2026-04-09T08:03:34.875Z</time></trkpt><trkpt lat="38.4190167" lon="16.0861633"><ele>234.0</ele><time>2026-04-09T08:03:35.875Z</time></trkpt><trkpt lat="38.4191233" lon="16.08642"><ele>234.0</ele><time>2026-04-09T08:03:36.874Z</time></trkpt><trkpt lat="38.4192383" lon="16.0866667"><ele>235.0</ele><time>2026-04-09T08:03:37.875Z</time></trkpt><trkpt lat="38.419355" lon="16.0869133"><ele>236.0</ele><time>2026-04-09T08:03:38.875Z</time></trkpt><trkpt lat="38.4194733" lon="16.0871417"><ele>237.0</ele><time>2026-04-09T08:03:39.875Z</time></trkpt><trkpt lat="38.4195967" lon="16.087355"><ele>237.33333333333331</ele><time>2026-04-09T08:03:40.875Z</time></trkpt><trkpt lat="38.4197217" lon="16.0875733"><ele>237.66666666666666</ele><time>2026-04-09T08:03:41.875Z</time></trkpt><trkpt lat="38.4198383" lon="16.0877833"><ele>238.0</ele><time>2026-04-09T08:03:42.875Z</time></trkpt><trkpt lat="38.419955" lon="16.0880083"><ele>238.0</ele><time>2026-04-09T08:03:43.874Z</time></trkpt><trkpt lat="38.4200717" lon="16.08822"><ele>238.0</ele><time>2026-04-09T08:03:44.875Z</time></trkpt><trkpt lat="38.4201867" lon="16.0884383"><ele>238.0</ele><time>2026-04-09T08:03:45.875Z</time></trkpt><trkpt lat="38.4203117" lon="16.08866"><ele>238.0</ele><time>2026-04-09T08:03:46.875Z</time></trkpt><trkpt lat="38.4204217" lon="16.0888717"><ele>238.0</ele><time>2026-04-09T08:03:47.874Z</time></trkpt><trkpt lat="38.4205317" lon="16.0891"><ele>238.0</ele><time>2026-04-09T08:03:48.875Z</time></trkpt><trkpt lat="38.4206383" lon="16.0893283"><ele>237.0</ele><time>2026-04-09T08:03:49.875Z</time></trkpt><trkpt lat="38.420735" lon="16.089555"><ele>236.0</ele><time>2026-04-09T08:03:50.875Z</time></trkpt><trkpt lat="38.4208283" lon="16.0897983"><ele>235.0</ele><time>2026-04-09T08:03:51.875Z</time></trkpt><trkpt lat="38.4209183" lon="16.0900467"><ele>235.0</ele><time>2026-04-09T08:03:52.875Z</time></trkpt><trkpt lat="38.4209983" lon="16.0903067"><ele>235.0</ele><time>2026-04-09T08:03:53.875Z</time></trkpt><trkpt lat="38.4210817" lon="16.090565"><ele>235.0</ele><time>2026-04-09T08:03:54.874Z</time></trkpt><trkpt lat="38.42116" lon="16.09084"><ele>237.0</ele><time>2026-04-09T08:03:55.875Z</time></trkpt><trkpt lat="38.4212433" lon="16.0911183"><ele>239.0</ele><time>2026-04-09T08:03:56.875Z</time></trkpt><trkpt lat="38.4213167" lon="16.0914"><ele>239.0</ele><time>2026-04-09T08:03:57.875Z</time></trkpt><trkpt lat="38.42138" lon="16.091675"><ele>239.0</ele><time>2026-04-09T08:03:58.874Z</time></trkpt><trkpt lat="38.42143" lon="16.0919517"><ele>239.0</ele><time>2026-04-09T08:03:59.875Z</time></trkpt><trkpt lat="38.4214767" lon="16.092235"><ele>239.66666666666669</ele><time>2026-04-09T08:04:00.874Z</time></trkpt><trkpt lat="38.421515" lon="16.0925133"><ele>240.33333333333331</ele><time>2026-04-09T08:04:01.875Z</time></trkpt><trkpt lat="38.4215467" lon="16.0927983"><ele>241.0</ele><time>2026-04-09T08:04:02.874Z</time></trkpt><trkpt lat="38.42158" lon="16.093085"><ele>239.0</ele><time>2026-04-09T08:04:03.875Z</time></trkpt><trkpt lat="38.4216083" lon="16.0933833"><ele>237.0</ele><time>2026-04-09T08:04:04.874Z</time></trkpt><trkpt lat="38.4216367" lon="16.0936633"><ele>237.0</ele><time>2026-04-09T08:04:05.874Z</time></trkpt><trkpt lat="38.421645" lon="16.0939617"><ele>237.0</ele><time>2026-04-09T08:04:06.875Z</time></trkpt><trkpt lat="38.4216417" lon="16.0942533"><ele>233.0</ele><time>2026-04-09T08:04:07.874Z</time></trkpt><trkpt lat="38.4216333" lon="16.0945583"><ele>229.0</ele><time>2026-04-09T08:04:08.875Z</time></trkpt><trkpt lat="38.4216267" lon="16.0948483"><ele>228.5</ele><time>2026-04-09T08:04:09.875Z</time></trkpt><trkpt lat="38.4216117" lon="16.0951433"><ele>228.0</ele><time>2026-04-09T08:04:10.874Z</time></trkpt><trkpt lat="38.42159" lon="16.0954417"><ele>228.0</ele><time>2026-04-09T08:04:11.875Z</time></trkpt><trkpt lat="38.4215633" lon="16.0957317"><ele>228.0</ele><time>2026-04-09T08:04:12.875Z</time></trkpt><trkpt lat="38.4215283" lon="16.0960167"><ele>229.33333333333331</ele><time>2026-04-09T08:04:13.874Z</time></trkpt><trkpt lat="38.421485" lon="16.096295"><ele>230.66666666666666</ele><time>2026-04-09T08:04:14.874Z</time></trkpt><trkpt lat="38.4214333" lon="16.096575"><ele>232.0</ele><time>2026-04-09T08:04:15.875Z</time></trkpt><trkpt lat="38.4213717" lon="16.096865"><ele>232.5</ele><time>2026-04-09T08:04:16.875Z</time></trkpt><trkpt lat="38.4213183" lon="16.09716"><ele>233.0</ele><time>2026-04-09T08:04:17.875Z</time></trkpt><trkpt lat="38.4212567" lon="16.097455"><ele>234.5</ele><time>2026-04-09T08:04:18.875Z</time></trkpt><trkpt lat="38.4211833" lon="16.09774"><ele>236.0</ele><time>2026-04-09T08:04:19.875Z</time></trkpt><trkpt lat="38.421095" lon="16.09802"><ele>237.5</ele><time>2026-04-09T08:04:20.874Z</time></trkpt><trkpt lat="38.42101" lon="16.0983"><ele>239.0</ele><time>2026-04-09T08:04:21.875Z</time></trkpt><trkpt lat="38.4209133" lon="16.0985733"><ele>239.0</ele><time>2026-04-09T08:04:22.875Z</time></trkpt><trkpt lat="38.42081" lon="16.098845"><ele>239.0</ele><time>2026-04-09T08:04:23.874Z</time></trkpt><trkpt lat="38.4206967" lon="16.09911"><ele>239.0</ele><time>2026-04-09T08:04:24.875Z</time></trkpt><trkpt lat="38.4205767" lon="16.09938"><ele>239.0</ele><time>2026-04-09T08:04:25.874Z</time></trkpt><trkpt lat="38.4204583" lon="16.0996433"><ele>239.5</ele><time>2026-04-09T08:04:26.874Z</time></trkpt><trkpt lat="38.420335" lon="16.099905"><ele>240.0</ele><time>2026-04-09T08:04:27.875Z</time></trkpt><trkpt lat="38.4202067" lon="16.100155"><ele>240.5</ele><time>2026-04-09T08:04:28.874Z</time></trkpt><trkpt lat="38.4200767" lon="16.1003933"><ele>241.0</ele><time>2026-04-09T08:04:29.874Z</time></trkpt><trkpt lat="38.41994" lon="16.1006217"><ele>242.33333333333331</ele><time>2026-04-09T08:04:30.875Z</time></trkpt><trkpt lat="38.419795" lon="16.1008417"><ele>243.66666666666669</ele><time>2026-04-09T08:04:31.874Z</time></trkpt><trkpt lat="38.4196467" lon="16.101055"><ele>245.0</ele><time>2026-04-09T08:04:32.874Z</time></trkpt><trkpt lat="38.4195" lon="16.1012667"><ele>245.5</ele><time>2026-04-09T08:04:33.875Z</time></trkpt><trkpt lat="38.4193483" lon="16.10148"><ele>246.0</ele><time>2026-04-09T08:04:34.875Z</time></trkpt><trkpt lat="38.4191933" lon="16.1017"><ele>246.5</ele><time>2026-04-09T08:04:35.874Z</time></trkpt><trkpt lat="38.41904" lon="16.1019183"><ele>247.0</ele><time>2026-04-09T08:04:36.875Z</time></trkpt><trkpt lat="38.418885" lon="16.1021467"><ele>249.5</ele><time>2026-04-09T08:04:37.874Z</time></trkpt><trkpt lat="38.4187317" lon="16.10237"><ele>252.0</ele><time>2026-04-09T08:04:38.874Z</time></trkpt><trkpt lat="38.4185783" lon="16.1025983"><ele>252.5</ele><time>2026-04-09T08:04:39.874Z</time></trkpt><trkpt lat="38.4184283" lon="16.1028233"><ele>253.0</ele><time>2026-04-09T08:04:40.875Z</time></trkpt><trkpt lat="38.4182867" lon="16.10305"><ele>253.33333333333331</ele><time>2026-04-09T08:04:41.874Z</time></trkpt><trkpt lat="38.4181567" lon="16.1032767"><ele>253.66666666666669</ele><time>2026-04-09T08:04:42.875Z</time></trkpt><trkpt lat="38.4180333" lon="16.1035017"><ele>254.0</ele><time>2026-04-09T08:04:43.875Z</time></trkpt><trkpt lat="38.4179167" lon="16.1037317"><ele>257.6666666666667</ele><time>2026-04-09T08:04:44.874Z</time></trkpt><trkpt lat="38.4178033" lon="16.103965"><ele>261.3333333333333</ele><time>2026-04-09T08:04:45.875Z</time></trkpt><trkpt lat="38.41769" lon="16.1042033"><ele>265.0</ele><time>2026-04-09T08:04:46.875Z</time></trkpt><trkpt lat="38.4175767" lon="16.1044483"><ele>265.0</ele><time>2026-04-09T08:04:47.875Z</time></trkpt><trkpt lat="38.4174733" lon="16.104695"><ele>265.0</ele><time>2026-04-09T08:04:48.875Z</time></trkpt><trkpt lat="38.4173733" lon="16.1049417"><ele>265.0</ele><time>2026-04-09T08:04:49.875Z</time></trkpt><trkpt lat="38.4172833" lon="16.1052033"><ele>264.5</ele><time>2026-04-09T08:04:50.875Z</time></trkpt><trkpt lat="38.4171917" lon="16.1054767"><ele>264.0</ele><time>2026-04-09T08:04:51.875Z</time></trkpt><trkpt lat="38.4171017" lon="16.10575"><ele>274.0</ele><time>2026-04-09T08:04:52.874Z</time></trkpt><trkpt lat="38.4170167" lon="16.1060183"><ele>284.0</ele><time>2026-04-09T08:04:53.875Z</time></trkpt><trkpt lat="38.4169367" lon="16.106285"><ele>284.0</ele><time>2026-04-09T08:04:54.875Z</time></trkpt><trkpt lat="38.4168683" lon="16.1065483"><ele>284.0</ele><time>2026-04-09T08:04:55.875Z</time></trkpt><trkpt lat="38.4168133" lon="16.1068133"><ele>284.0</ele><time>2026-04-09T08:04:56.875Z</time></trkpt><trkpt lat="38.4167633" lon="16.1070783"><ele>283.6666666666667</ele><time>2026-04-09T08:04:57.875Z</time></trkpt><trkpt lat="38.41672" lon="16.1073583"><ele>283.3333333333333</ele><time>2026-04-09T08:04:58.875Z</time></trkpt><trkpt lat="38.4166767" lon="16.1076383"><ele>283.0</ele><time>2026-04-09T08:04:59.875Z</time></trkpt><trkpt lat="38.4166383" lon="16.1079183"><ele>283.0</ele><time>2026-04-09T08:05:00.875Z</time></trkpt><trkpt lat="38.416605" lon="16.1081967"><ele>283.0</ele><time>2026-04-09T08:05:01.875Z</time></trkpt><trkpt lat="38.4165733" lon="16.1084683"><ele>283.0</ele><time>2026-04-09T08:05:02.875Z</time></trkpt><trkpt lat="38.4165517" lon="16.1087517"><ele>282.5</ele><time>2026-04-09T08:05:03.875Z</time></trkpt><trkpt lat="38.4165367" lon="16.10904"><ele>282.0</ele><time>2026-04-09T08:05:04.874Z</time></trkpt><trkpt lat="38.4165267" lon="16.1093283"><ele>281.3333333333333</ele><time>2026-04-09T08:05:05.874Z</time></trkpt><trkpt lat="38.4165267" lon="16.1096117"><ele>280.66666666666663</ele><time>2026-04-09T08:05:06.874Z</time></trkpt><trkpt lat="38.416535" lon="16.1098917"><ele>280.0</ele><time>2026-04-09T08:05:07.875Z</time></trkpt><trkpt lat="38.4165367" lon="16.1101833"><ele>283.5</ele><time>2026-04-09T08:05:08.875Z</time></trkpt><trkpt lat="38.41655" lon="16.11048"><ele>287.0</ele><time>2026-04-09T08:05:09.875Z</time></trkpt><trkpt lat="38.41657" lon="16.1107633"><ele>288.5</ele><time>2026-04-09T08:05:10.875Z</time></trkpt><trkpt lat="38.4166067" lon="16.1110533"><ele>290.0</ele><time>2026-04-09T08:05:11.875Z</time></trkpt><trkpt lat="38.4166567" lon="16.11135"><ele>292.0</ele><time>2026-04-09T08:05:12.874Z</time></trkpt><trkpt lat="38.4166983" lon="16.1116317"><ele>294.0</ele><time>2026-04-09T08:05:13.875Z</time></trkpt><trkpt lat="38.4167567" lon="16.1119217"><ele>294.0</ele><time>2026-04-09T08:05:14.874Z</time></trkpt><trkpt lat="38.4168183" lon="16.1122067"><ele>294.0</ele><time>2026-04-09T08:05:15.874Z</time></trkpt><trkpt lat="38.4168883" lon="16.112495"><ele>295.5</ele><time>2026-04-09T08:05:16.874Z</time></trkpt><trkpt lat="38.4169433" lon="16.1127733"><ele>297.0</ele><time>2026-04-09T08:05:17.874Z</time></trkpt><trkpt lat="38.4170033" lon="16.11305"><ele>299.0</ele><time>2026-04-09T08:05:18.874Z</time></trkpt><trkpt lat="38.4170617" lon="16.1133233"><ele>301.0</ele><time>2026-04-09T08:05:19.875Z</time></trkpt><trkpt lat="38.4171267" lon="16.1135933"><ele>303.0</ele><time>2026-04-09T08:05:20.874Z</time></trkpt><trkpt lat="38.4171933" lon="16.1138767"><ele>298.5</ele><time>2026-04-09T08:05:21.874Z</time></trkpt><trkpt lat="38.41727" lon="16.1141533"><ele>294.0</ele><time>2026-04-09T08:05:22.874Z</time></trkpt><trkpt lat="38.41734" lon="16.1144317"><ele>294.0</ele><time>2026-04-09T08:05:23.874Z</time></trkpt><trkpt lat="38.4174017" lon="16.1147133"><ele>294.0</ele><time>2026-04-09T08:05:24.874Z</time></trkpt><trkpt lat="38.4174533" lon="16.1149883"><ele>297.3333333333333</ele><time>2026-04-09T08:05:25.874Z</time></trkpt><trkpt lat="38.4175033" lon="16.1152683"><ele>300.66666666666663</ele><time>2026-04-09T08:05:26.874Z</time></trkpt><trkpt lat="38.4175467" lon="16.115545"><ele>304.0</ele><time>2026-04-09T08:05:27.875Z</time></trkpt><trkpt lat="38.417595" lon="16.1158267"><ele>310.0</ele><time>2026-04-09T08:05:28.874Z</time></trkpt><trkpt lat="38.4176333" lon="16.116115"><ele>316.0</ele><time>2026-04-09T08:05:29.874Z</time></trkpt><trkpt lat="38.4176683" lon="16.116405"><ele>321.5</ele><time>2026-04-09T08:05:30.875Z</time></trkpt><trkpt lat="38.417695" lon="16.116695"><ele>327.0</ele><time>2026-04-09T08:05:31.875Z</time></trkpt><trkpt lat="38.4177133" lon="16.1169817"><ele>327.0</ele><time>2026-04-09T08:05:32.875Z</time></trkpt><trkpt lat="38.4177267" lon="16.11727"><ele>327.0</ele><time>2026-04-09T08:05:33.874Z</time></trkpt><trkpt lat="38.4177367" lon="16.1175517"><ele>327.0</ele><time>2026-04-09T08:05:34.875Z</time></trkpt><trkpt lat="38.417745" lon="16.1178533"><ele>325.5</ele><time>2026-04-09T08:05:35.874Z</time></trkpt><trkpt lat="38.4177417" lon="16.1181483"><ele>324.0</ele><time>2026-04-09T08:05:36.875Z</time></trkpt><trkpt lat="38.41774" lon="16.1184333"><ele>317.5</ele><time>2026-04-09T08:05:37.875Z</time></trkpt><trkpt lat="38.4177217" lon="16.1187217"><ele>311.0</ele><time>2026-04-09T08:05:38.874Z</time></trkpt><trkpt lat="38.4177083" lon="16.11901"><ele>311.0</ele><time>2026-04-09T08:05:39.875Z</time></trkpt><trkpt lat="38.41769" lon="16.1193017"><ele>311.0</ele><time>2026-04-09T08:05:40.875Z</time></trkpt><trkpt lat="38.4176683" lon="16.1195983"><ele>311.0</ele><time>2026-04-09T08:05:41.874Z</time></trkpt><trkpt lat="38.417635" lon="16.1198917"><ele>311.0</ele><time>2026-04-09T08:05:42.875Z</time></trkpt><trkpt lat="38.4176067" lon="16.120175"><ele>311.5</ele><time>2026-04-09T08:05:43.874Z</time></trkpt><trkpt lat="38.417575" lon="16.1204717"><ele>312.0</ele><time>2026-04-09T08:05:44.874Z</time></trkpt><trkpt lat="38.4175417" lon="16.1207667"><ele>314.5</ele><time>2026-04-09T08:05:45.875Z</time></trkpt><trkpt lat="38.4175017" lon="16.1210483"><ele>317.0</ele><time>2026-04-09T08:05:46.875Z</time></trkpt><trkpt lat="38.417465" lon="16.1213333"><ele>319.5</ele><time>2026-04-09T08:05:47.875Z</time></trkpt><trkpt lat="38.41743" lon="16.12163"><ele>322.0</ele><time>2026-04-09T08:05:48.874Z</time></trkpt><trkpt lat="38.4173867" lon="16.1219117"><ele>322.0</ele><time>2026-04-09T08:05:49.875Z</time></trkpt><trkpt lat="38.4173517" lon="16.1221967"><ele>322.0</ele><time>2026-04-09T08:05:50.874Z</time></trkpt><trkpt lat="38.41731" lon="16.1224933"><ele>326.0</ele><time>2026-04-09T08:05:51.874Z</time></trkpt><trkpt lat="38.4172667" lon="16.1227767"><ele>330.0</ele><time>2026-04-09T08:05:52.875Z</time></trkpt><trkpt lat="38.4172083" lon="16.1230667"><ele>327.5</ele><time>2026-04-09T08:05:53.875Z</time></trkpt><trkpt lat="38.4171567" lon="16.1233567"><ele>325.0</ele><time>2026-04-09T08:05:54.875Z</time></trkpt><trkpt lat="38.417105" lon="16.12364"><ele>325.0</ele><time>2026-04-09T08:05:55.874Z</time></trkpt><trkpt lat="38.41704" lon="16.1239233"><ele>325.0</ele><time>2026-04-09T08:05:56.875Z</time></trkpt><trkpt lat="38.4169667" lon="16.1242033"><ele>327.0</ele><time>2026-04-09T08:05:57.875Z</time></trkpt><trkpt lat="38.416885" lon="16.1244767"><ele>329.0</ele><time>2026-04-09T08:05:58.875Z</time></trkpt><trkpt lat="38.4168117" lon="16.1247533"><ele>330.0</ele><time>2026-04-09T08:05:59.875Z</time></trkpt><trkpt lat="38.4167317" lon="16.1250267"><ele>331.0</ele><time>2026-04-09T08:06:00.875Z</time></trkpt><trkpt lat="38.4166417" lon="16.12529"><ele>331.0</ele><time>2026-04-09T08:06:01.874Z</time></trkpt><trkpt lat="38.4165483" lon="16.1255517"><ele>331.0</ele><time>2026-04-09T08:06:02.875Z</time></trkpt><trkpt lat="38.41645" lon="16.1258117"><ele>331.5</ele><time>2026-04-09T08:06:03.874Z</time></trkpt><trkpt lat="38.416345" lon="16.1260733"><ele>332.0</ele><time>2026-04-09T08:06:04.875Z</time></trkpt><trkpt lat="38.4162417" lon="16.126335"><ele>345.5</ele><time>2026-04-09T08:06:05.875Z</time></trkpt><trkpt lat="38.41614" lon="16.1265967"><ele>359.0</ele><time>2026-04-09T08:06:06.874Z</time></trkpt><trkpt lat="38.4160233" lon="16.1268517"><ele>359.0</ele><time>2026-04-09T08:06:07.874Z</time></trkpt><trkpt lat="38.4159133" lon="16.12711"><ele>359.0</ele><time>2026-04-09T08:06:08.874Z</time></trkpt><trkpt lat="38.415805" lon="16.12737"><ele>352.0</ele><time>2026-04-09T08:06:09.875Z</time></trkpt><trkpt lat="38.415695" lon="16.1276233"><ele>345.0</ele><time>2026-04-09T08:06:10.875Z</time></trkpt><trkpt lat="38.4155933" lon="16.1278767"><ele>352.5</ele><time>2026-04-09T08:06:11.875Z</time></trkpt><trkpt lat="38.4154833" lon="16.1281283"><ele>360.0</ele><time>2026-04-09T08:06:12.875Z</time></trkpt><trkpt lat="38.415375" lon="16.128385"><ele>360.0</ele><time>2026-04-09T08:06:13.875Z</time></trkpt><trkpt lat="38.41526" lon="16.128645"><ele>360.0</ele><time>2026-04-09T08:06:14.874Z</time></trkpt><trkpt lat="38.4151483" lon="16.1289033"><ele>357.5</ele><time>2026-04-09T08:06:15.874Z</time></trkpt><trkpt lat="38.4150317" lon="16.1291717"><ele>355.0</ele><time>2026-04-09T08:06:16.875Z</time></trkpt><trkpt lat="38.41492" lon="16.1294367"><ele>355.0</ele><time>2026-04-09T08:06:17.875Z</time></trkpt><trkpt lat="38.4148033" lon="16.129705"><ele>355.0</ele><time>2026-04-09T08:06:18.875Z</time></trkpt><trkpt lat="38.41468" lon="16.12998"><ele>357.5</ele><time>2026-04-09T08:06:19.874Z</time></trkpt><trkpt lat="38.414565" lon="16.1302567"><ele>360.0</ele><time>2026-04-09T08:06:20.874Z</time></trkpt><trkpt lat="38.414445" lon="16.13053"><ele>358.5</ele><time>2026-04-09T08:06:21.874Z</time></trkpt><trkpt lat="38.414335" lon="16.13081"><ele>357.0</ele><time>2026-04-09T08:06:22.874Z</time></trkpt><trkpt lat="38.4142333" lon="16.1310867"><ele>357.0</ele><time>2026-04-09T08:06:23.875Z</time></trkpt><trkpt lat="38.41414" lon="16.13137"><ele>357.0</ele><time>2026-04-09T08:06:24.875Z</time></trkpt><trkpt lat="38.4140483" lon="16.1316583"><ele>360.5</ele><time>2026-04-09T08:06:25.875Z</time></trkpt><trkpt lat="38.4139783" lon="16.1319467"><ele>364.0</ele><time>2026-04-09T08:06:26.875Z</time></trkpt><trkpt lat="38.4139133" lon="16.1322383"><ele>366.5</ele><time>2026-04-09T08:06:27.874Z</time></trkpt><trkpt lat="38.41385" lon="16.13253"><ele>369.0</ele><time>2026-04-09T08:06:28.874Z</time></trkpt><trkpt lat="38.4138" lon="16.132825"><ele>369.0</ele><time>2026-04-09T08:06:29.874Z</time></trkpt><trkpt lat="38.4137517" lon="16.13312"><ele>369.0</ele><time>2026-04-09T08:06:30.875Z</time></trkpt><trkpt lat="38.4137167" lon="16.1334233"><ele>372.0</ele><time>2026-04-09T08:06:31.874Z</time></trkpt><trkpt lat="38.4136883" lon="16.133725"><ele>375.0</ele><time>2026-04-09T08:06:32.874Z</time></trkpt><trkpt lat="38.4136667" lon="16.13403"><ele>376.5</ele><time>2026-04-09T08:06:33.874Z</time></trkpt><trkpt lat="38.41364" lon="16.1343317"><ele>378.0</ele><time>2026-04-09T08:06:34.874Z</time></trkpt><trkpt lat="38.41361" lon="16.1346317"><ele>383.5</ele><time>2026-04-09T08:06:35.874Z</time></trkpt><trkpt lat="38.4135767" lon="16.1349283"><ele>389.0</ele><time>2026-04-09T08:06:36.874Z</time></trkpt><trkpt lat="38.4135517" lon="16.1352217"><ele>389.0</ele><time>2026-04-09T08:06:37.875Z</time></trkpt><trkpt lat="38.41353" lon="16.1355133"><ele>389.0</ele><time>2026-04-09T08:06:38.874Z</time></trkpt><trkpt lat="38.413495" lon="16.1358067"><ele>394.0</ele><time>2026-04-09T08:06:39.875Z</time></trkpt><trkpt lat="38.4134417" lon="16.1360883"><ele>399.0</ele><time>2026-04-09T08:06:40.875Z</time></trkpt><trkpt lat="38.413385" lon="16.1363733"><ele>401.0</ele><time>2026-04-09T08:06:41.875Z</time></trkpt><trkpt lat="38.4133383" lon="16.1366567"><ele>403.0</ele><time>2026-04-09T08:06:42.874Z</time></trkpt><trkpt lat="38.413275" lon="16.1369517"><ele>403.0</ele><time>2026-04-09T08:06:43.875Z</time></trkpt><trkpt lat="38.4132067" lon="16.137235"><ele>403.0</ele><time>2026-04-09T08:06:44.874Z</time></trkpt><trkpt lat="38.4131217" lon="16.1375217"><ele>398.0</ele><time>2026-04-09T08:06:45.874Z</time></trkpt><trkpt lat="38.4130433" lon="16.1378033"><ele>393.0</ele><time>2026-04-09T08:06:46.874Z</time></trkpt><trkpt lat="38.4129433" lon="16.1380767"><ele>401.5</ele><time>2026-04-09T08:06:47.875Z</time></trkpt><trkpt lat="38.4128383" lon="16.138345"><ele>410.0</ele><time>2026-04-09T08:06:48.875Z</time></trkpt><trkpt lat="38.41272" lon="16.1386083"><ele>410.0</ele><time>2026-04-09T08:06:49.874Z</time></trkpt><trkpt lat="38.4125967" lon="16.1388717"><ele>410.0</ele><time>2026-04-09T08:06:50.874Z</time></trkpt><trkpt lat="38.412465" lon="16.1391283"><ele>409.0</ele><time>2026-04-09T08:06:51.875Z</time></trkpt><trkpt lat="38.4123333" lon="16.139385"><ele>408.0</ele><time>2026-04-09T08:06:52.875Z</time></trkpt><trkpt lat="38.4121983" lon="16.1396317"><ele>416.0</ele><time>2026-04-09T08:06:53.874Z</time></trkpt><trkpt lat="38.4120617" lon="16.13987"><ele>424.0</ele><time>2026-04-09T08:06:54.874Z</time></trkpt><trkpt lat="38.4119233" lon="16.1401017"><ele>424.0</ele><time>2026-04-09T08:06:55.874Z</time></trkpt><trkpt lat="38.4118" lon="16.1403433"><ele>424.0</ele><time>2026-04-09T08:06:56.875Z</time></trkpt><trkpt lat="38.4116683" lon="16.1405867"><ele>419.0</ele><time>2026-04-09T08:06:57.874Z</time></trkpt><trkpt lat="38.4115283" lon="16.1408233"><ele>414.0</ele><time>2026-04-09T08:06:58.875Z</time></trkpt><trkpt lat="38.411395" lon="16.1410583"><ele>415.66666666666663</ele><time>2026-04-09T08:06:59.875Z</time></trkpt><trkpt lat="38.4112633" lon="16.14129"><ele>417.3333333333333</ele><time>2026-04-09T08:07:00.875Z</time></trkpt><trkpt lat="38.4111267" lon="16.1415167"><ele>419.0</ele><time>2026-04-09T08:07:01.875Z</time></trkpt><trkpt lat="38.4109933" lon="16.14176"><ele>419.0</ele><time>2026-04-09T08:07:02.874Z</time></trkpt><trkpt lat="38.4108667" lon="16.1420183"><ele>419.0</ele><time>2026-04-09T08:07:03.874Z</time></trkpt><trkpt lat="38.4107317" lon="16.1422633"><ele>419.5</ele><time>2026-04-09T08:07:04.875Z</time></trkpt><trkpt lat="38.4105917" lon="16.1425"><ele>420.0</ele><time>2026-04-09T08:07:05.875Z</time></trkpt><trkpt lat="38.4104567" lon="16.1427533"><ele>421.0</ele><time>2026-04-09T08:07:06.875Z</time></trkpt><trkpt lat="38.410325" lon="16.143005"><ele>422.0</ele><time>2026-04-09T08:07:07.874Z</time></trkpt><trkpt lat="38.41019" lon="16.143255"><ele>424.5</ele><time>2026-04-09T08:07:08.875Z</time></trkpt><trkpt lat="38.4100483" lon="16.1435067"><ele>427.0</ele><time>2026-04-09T08:07:09.875Z</time></trkpt><trkpt lat="38.409915" lon="16.1437633"><ele>427.0</ele><time>2026-04-09T08:07:10.875Z</time></trkpt><trkpt lat="38.4097883" lon="16.1440133"><ele>427.0</ele><time>2026-04-09T08:07:11.875Z</time></trkpt><trkpt lat="38.409655" lon="16.1442667"><ele>449.0</ele><time>2026-04-09T08:07:12.875Z</time></trkpt><trkpt lat="38.4095267" lon="16.1445217"><ele>471.0</ele><time>2026-04-09T08:07:13.874Z</time></trkpt><trkpt lat="38.4093917" lon="16.144775"><ele>478.0</ele><time>2026-04-09T08:07:14.874Z</time></trkpt><trkpt lat="38.4092583" lon="16.1450233"><ele>485.0</ele><time>2026-04-09T08:07:15.874Z</time></trkpt><trkpt lat="38.40912" lon="16.1452717"><ele>485.0</ele><time>2026-04-09T08:07:16.875Z</time></trkpt><trkpt lat="38.40898" lon="16.1455133"><ele>485.0</ele><time>2026-04-09T08:07:17.875Z</time></trkpt><trkpt lat="38.4088417" lon="16.1457483"><ele>491.5</ele><time>2026-04-09T08:07:18.875Z</time></trkpt><trkpt lat="38.4087083" lon="16.146"><ele>498.0</ele><time>2026-04-09T08:07:19.875Z</time></trkpt><trkpt lat="38.408615" lon="16.1463083"><ele>477.0</ele><time>2026-04-09T08:07:20.874Z</time></trkpt><trkpt lat="38.408475" lon="16.1465583"><ele>456.0</ele><time>2026-04-09T08:07:21.874Z</time></trkpt><trkpt lat="38.408335" lon="16.1468033"><ele>456.0</ele><time>2026-04-09T08:07:22.874Z</time></trkpt><trkpt lat="38.4082067" lon="16.1470433"><ele>456.0</ele><time>2026-04-09T08:07:23.875Z</time></trkpt><trkpt lat="38.40808" lon="16.1472783"><ele>459.0</ele><time>2026-04-09T08:07:24.875Z</time></trkpt><trkpt lat="38.40794" lon="16.1475217"><ele>462.0</ele><time>2026-04-09T08:07:25.875Z</time></trkpt><trkpt lat="38.4078017" lon="16.1477617"><ele>462.0</ele><time>2026-04-09T08:07:26.875Z</time></trkpt><trkpt lat="38.4076567" lon="16.1479917"><ele>462.0</ele><time>2026-04-09T08:07:27.874Z</time></trkpt><trkpt lat="38.4075133" lon="16.1482267"><ele>463.5</ele><time>2026-04-09T08:07:28.874Z</time></trkpt><trkpt lat="38.407385" lon="16.1484733"><ele>465.0</ele><time>2026-04-09T08:07:29.874Z</time></trkpt><trkpt lat="38.40725" lon="16.148725"><ele>464.5</ele><time>2026-04-09T08:07:30.875Z</time></trkpt><trkpt lat="38.40712" lon="16.148975"><ele>464.0</ele><time>2026-04-09T08:07:31.875Z</time></trkpt><trkpt lat="38.4069933" lon="16.1492333"><ele>464.0</ele><time>2026-04-09T08:07:32.875Z</time></trkpt><trkpt lat="38.4068633" lon="16.1494883"><ele>464.0</ele><time>2026-04-09T08:07:33.875Z</time></trkpt><trkpt lat="38.4067283" lon="16.1497467"><ele>469.0</ele><time>2026-04-09T08:07:34.875Z</time></trkpt><trkpt lat="38.4066017" lon="16.15"><ele>474.0</ele><time>2026-04-09T08:07:35.874Z</time></trkpt><trkpt lat="38.4064717" lon="16.1502533"><ele>474.0</ele><time>2026-04-09T08:07:36.875Z</time></trkpt><trkpt lat="38.4063383" lon="16.15051"><ele>474.0</ele><time>2026-04-09T08:07:37.875Z</time></trkpt><trkpt lat="38.4061983" lon="16.1507633"><ele>474.5</ele><time>2026-04-09T08:07:38.875Z</time></trkpt><trkpt lat="38.4060667" lon="16.1510183"><ele>475.0</ele><time>2026-04-09T08:07:39.874Z</time></trkpt><trkpt lat="38.40594" lon="16.151275"><ele>475.0</ele><time>2026-04-09T08:07:40.875Z</time></trkpt><trkpt lat="38.4058183" lon="16.1515367"><ele>475.0</ele><time>2026-04-09T08:07:41.875Z</time></trkpt><trkpt lat="38.4057" lon="16.1517967"><ele>476.0</ele><time>2026-04-09T08:07:42.875Z</time></trkpt><trkpt lat="38.4055883" lon="16.1520567"><ele>477.0</ele><time>2026-04-09T08:07:43.875Z</time></trkpt><trkpt lat="38.4054783" lon="16.1523217"><ele>479.0</ele><time>2026-04-09T08:07:44.874Z</time></trkpt><trkpt lat="38.4053667" lon="16.15259"><ele>481.0</ele><time>2026-04-09T08:07:45.875Z</time></trkpt><trkpt lat="38.4052567" lon="16.15286"><ele>481.0</ele><time>2026-04-09T08:07:46.875Z</time></trkpt><trkpt lat="38.4051517" lon="16.1531417"><ele>481.0</ele><time>2026-04-09T08:07:47.874Z</time></trkpt><trkpt lat="38.40505" lon="16.153415"><ele>484.0</ele><time>2026-04-09T08:07:48.874Z</time></trkpt><trkpt lat="38.4049533" lon="16.1536867"><ele>487.0</ele><time>2026-04-09T08:07:49.874Z</time></trkpt><trkpt lat="38.4048567" lon="16.1539583"><ele>486.5</ele><time>2026-04-09T08:07:50.874Z</time></trkpt><trkpt lat="38.404755" lon="16.1542383"><ele>486.0</ele><time>2026-04-09T08:07:51.875Z</time></trkpt><trkpt lat="38.40467" lon="16.1545183"><ele>493.5</ele><time>2026-04-09T08:07:52.874Z</time></trkpt><trkpt lat="38.4045883" lon="16.1547983"><ele>501.0</ele><time>2026-04-09T08:07:53.875Z</time></trkpt><trkpt lat="38.4045033" lon="16.15508"><ele>501.0</ele><time>2026-04-09T08:07:54.874Z</time></trkpt><trkpt lat="38.40442" lon="16.1553583"><ele>501.0</ele><time>2026-04-09T08:07:55.875Z</time></trkpt><trkpt lat="38.4043383" lon="16.1556417"><ele>502.0</ele><time>2026-04-09T08:07:56.875Z</time></trkpt><trkpt lat="38.4042567" lon="16.1559183"><ele>503.0</ele><time>2026-04-09T08:07:57.874Z</time></trkpt><trkpt lat="38.4041717" lon="16.156195"><ele>503.0</ele><time>2026-04-09T08:07:58.874Z</time></trkpt><trkpt lat="38.4040867" lon="16.1564733"><ele>503.0</ele><time>2026-04-09T08:07:59.874Z</time></trkpt><trkpt lat="38.4040033" lon="16.156755"><ele>503.5</ele><time>2026-04-09T08:08:00.874Z</time></trkpt><trkpt lat="38.4039267" lon="16.1570383"><ele>504.0</ele><time>2026-04-09T08:08:01.874Z</time></trkpt><trkpt lat="38.4038517" lon="16.1573333"><ele>514.0</ele><time>2026-04-09T08:08:02.874Z</time></trkpt><trkpt lat="38.4037683" lon="16.1576033"><ele>524.0</ele><time>2026-04-09T08:08:03.874Z</time></trkpt><trkpt lat="38.4036817" lon="16.1578833"><ele>524.0</ele><time>2026-04-09T08:08:04.874Z</time></trkpt><trkpt lat="38.4035917" lon="16.1581667"><ele>524.0</ele><time>2026-04-09T08:08:05.874Z</time></trkpt><trkpt lat="38.403515" lon="16.1584517"><ele>522.5</ele><time>2026-04-09T08:08:06.874Z</time></trkpt><trkpt lat="38.4034383" lon="16.1587417"><ele>521.0</ele><time>2026-04-09T08:08:07.875Z</time></trkpt><trkpt lat="38.4033633" lon="16.1590283"><ele>523.5</ele><time>2026-04-09T08:08:08.874Z</time></trkpt><trkpt lat="38.4032817" lon="16.1593133"><ele>526.0</ele><time>2026-04-09T08:08:09.875Z</time></trkpt><trkpt lat="38.4031917" lon="16.1596033"><ele>529.5</ele><time>2026-04-09T08:08:10.875Z</time></trkpt><trkpt lat="38.4031033" lon="16.1598817"><ele>533.0</ele><time>2026-04-09T08:08:11.874Z</time></trkpt><trkpt lat="38.403025" lon="16.1601467"><ele>544.0</ele><time>2026-04-09T08:08:12.874Z</time></trkpt><trkpt lat="38.402925" lon="16.1604217"><ele>555.0</ele><time>2026-04-09T08:08:13.875Z</time></trkpt><trkpt lat="38.402815" lon="16.1606883"><ele>544.0</ele><time>2026-04-09T08:08:14.874Z</time></trkpt><trkpt lat="38.4026767" lon="16.160945"><ele>533.0</ele><time>2026-04-09T08:08:15.874Z</time></trkpt><trkpt lat="38.40254" lon="16.1611983"><ele>533.0</ele><time>2026-04-09T08:08:16.874Z</time></trkpt><trkpt lat="38.4024133" lon="16.161455"><ele>533.0</ele><time>2026-04-09T08:08:17.875Z</time></trkpt><trkpt lat="38.4022833" lon="16.1617"><ele>537.3333333333333</ele><time>2026-04-09T08:08:18.874Z</time></trkpt><trkpt lat="38.40216" lon="16.1619333"><ele>541.6666666666666</ele><time>2026-04-09T08:08:19.875Z</time></trkpt><trkpt lat="38.4020317" lon="16.1621467"><ele>546.0</ele><time>2026-04-09T08:08:20.874Z</time></trkpt><trkpt lat="38.4019017" lon="16.1623433"><ele>546.3333333333334</ele><time>2026-04-09T08:08:21.874Z</time></trkpt><trkpt lat="38.4017617" lon="16.1625433"><ele>546.6666666666667</ele><time>2026-04-09T08:08:22.875Z</time></trkpt><trkpt lat="38.40163" lon="16.162725"><ele>547.0</ele><time>2026-04-09T08:08:23.875Z</time></trkpt><trkpt lat="38.4015083" lon="16.1628933"><ele>547.0</ele><time>2026-04-09T08:08:24.874Z</time></trkpt><trkpt lat="38.4013817" lon="16.16307"><ele>547.0</ele><time>2026-04-09T08:08:25.874Z</time></trkpt><trkpt lat="38.4012483" lon="16.1632433"><ele>547.0</ele><time>2026-04-09T08:08:26.874Z</time></trkpt><trkpt lat="38.4011117" lon="16.1634167"><ele>557.0</ele><time>2026-04-09T08:08:27.875Z</time></trkpt><trkpt lat="38.4009617" lon="16.1635767"><ele>567.0</ele><time>2026-04-09T08:08:28.875Z</time></trkpt><trkpt lat="38.40081" lon="16.1637317"><ele>577.0</ele><time>2026-04-09T08:08:29.875Z</time></trkpt><trkpt lat="38.4007183" lon="16.1639233"><ele>578.0</ele><time>2026-04-09T08:08:30.875Z</time></trkpt><trkpt lat="38.4006033" lon="16.1641167"><ele>579.0</ele><time>2026-04-09T08:08:31.874Z</time></trkpt><trkpt lat="38.4004783" lon="16.1643083"><ele>580.0</ele><time>2026-04-09T08:08:32.874Z</time></trkpt><trkpt lat="38.400355" lon="16.1645117"><ele>588.6666666666667</ele><time>2026-04-09T08:08:33.874Z</time></trkpt><trkpt lat="38.400235" lon="16.1647033"><ele>597.3333333333334</ele><time>2026-04-09T08:08:34.875Z</time></trkpt><trkpt lat="38.4001167" lon="16.1649"><ele>606.0</ele><time>2026-04-09T08:08:35.875Z</time></trkpt><trkpt lat="38.4000017" lon="16.16509"><ele>606.0</ele><time>2026-04-09T08:08:36.874Z</time></trkpt><trkpt lat="38.399885" lon="16.1652867"><ele>606.0</ele><time>2026-04-09T08:08:37.875Z</time></trkpt><trkpt lat="38.3997717" lon="16.1654833"><ele>606.0</ele><time>2026-04-09T08:08:38.875Z</time></trkpt><trkpt lat="38.399655" lon="16.1656717"><ele>611.0</ele><time>2026-04-09T08:08:39.874Z</time></trkpt><trkpt lat="38.3995383" lon="16.1658633"><ele>616.0</ele><time>2026-04-09T08:08:40.875Z</time></trkpt><trkpt lat="38.3994233" lon="16.166055"><ele>621.0</ele><time>2026-04-09T08:08:41.875Z</time></trkpt><trkpt lat="38.37454" lon="16.17754"><ele>576.5</ele><time>2026-04-09T08:11:08.87Z</time></trkpt><trkpt lat="38.37429" lon="16.1776467"><ele>532.0</ele><time>2026-04-09T08:11:09.871Z</time></trkpt><trkpt lat="38.3741233" lon="16.177765"><ele>532.0</ele><time>2026-04-09T08:11:10.871Z</time></trkpt><trkpt lat="38.3739683" lon="16.1779117"><ele>532.0</ele><time>2026-04-09T08:11:11.871Z</time></trkpt><trkpt lat="38.3738167" lon="16.1780567"><ele>532.0</ele><time>2026-04-09T08:11:12.87Z</time></trkpt><trkpt lat="38.3736567" lon="16.1782083"><ele>529.3333333333334</ele><time>2026-04-09T08:11:13.871Z</time></trkpt><trkpt lat="38.3735067" lon="16.17836"><ele>526.6666666666666</ele><time>2026-04-09T08:11:14.871Z</time></trkpt><trkpt lat="38.3733567" lon="16.1785133"><ele>524.0</ele><time>2026-04-09T08:11:15.87Z</time></trkpt><trkpt lat="38.373215" lon="16.17868"><ele>524.0</ele><time>2026-04-09T08:11:16.871Z</time></trkpt><trkpt lat="38.3730667" lon="16.17886"><ele>524.0</ele><time>2026-04-09T08:11:17.871Z</time></trkpt><trkpt lat="38.3729283" lon="16.1790517"><ele>524.0</ele><time>2026-04-09T08:11:18.871Z</time></trkpt><trkpt lat="38.3727883" lon="16.1792367"><ele>522.3333333333333</ele><time>2026-04-09T08:11:19.87Z</time></trkpt><trkpt lat="38.37266" lon="16.1794167"><ele>520.6666666666666</ele><time>2026-04-09T08:11:20.87Z</time></trkpt><trkpt lat="38.3725333" lon="16.17961"><ele>519.0</ele><time>2026-04-09T08:11:21.87Z</time></trkpt><trkpt lat="38.3724033" lon="16.1798017"><ele>513.3333333333334</ele><time>2026-04-09T08:11:22.871Z</time></trkpt><trkpt lat="38.37227" lon="16.179995"><ele>507.6666666666667</ele><time>2026-04-09T08:11:23.87Z</time></trkpt><trkpt lat="38.372145" lon="16.180185"><ele>502.0</ele><time>2026-04-09T08:11:24.87Z</time></trkpt><trkpt lat="38.3720233" lon="16.18038"><ele>500.0</ele><time>2026-04-09T08:11:25.871Z</time></trkpt><trkpt lat="38.3718833" lon="16.1805733"><ele>498.0</ele><time>2026-04-09T08:11:26.87Z</time></trkpt><trkpt lat="38.3717417" lon="16.1807567"><ele>496.0</ele><time>2026-04-09T08:11:27.871Z</time></trkpt><trkpt lat="38.37158" lon="16.1809483"><ele>498.33333333333337</ele><time>2026-04-09T08:11:28.871Z</time></trkpt><trkpt lat="38.3714217" lon="16.1811367"><ele>500.66666666666663</ele><time>2026-04-09T08:11:29.871Z</time></trkpt><trkpt lat="38.3712583" lon="16.1813167"><ele>503.0</ele><time>2026-04-09T08:11:30.87Z</time></trkpt><trkpt lat="38.3710883" lon="16.1814867"><ele>498.3333333333333</ele><time>2026-04-09T08:11:31.87Z</time></trkpt><trkpt lat="38.3709117" lon="16.1816583"><ele>493.66666666666663</ele><time>2026-04-09T08:11:32.871Z</time></trkpt><trkpt lat="38.37073" lon="16.1818133"><ele>489.0</ele><time>2026-04-09T08:11:33.87Z</time></trkpt><trkpt lat="38.3705533" lon="16.1819617"><ele>485.33333333333337</ele><time>2026-04-09T08:11:34.87Z</time></trkpt><trkpt lat="38.3703767" lon="16.1821033"><ele>481.6666666666667</ele><time>2026-04-09T08:11:35.871Z</time></trkpt><trkpt lat="38.370195" lon="16.1822417"><ele>478.0</ele><time>2026-04-09T08:11:36.87Z</time></trkpt><trkpt lat="38.3700083" lon="16.1823833"><ele>478.0</ele><time>2026-04-09T08:11:37.87Z</time></trkpt><trkpt lat="38.36982" lon="16.182495"><ele>478.0</ele><time>2026-04-09T08:11:38.871Z</time></trkpt><trkpt lat="38.3696283" lon="16.1826033"><ele>478.0</ele><time>2026-04-09T08:11:39.871Z</time></trkpt><trkpt lat="38.3694267" lon="16.18274"><ele>479.33333333333337</ele><time>2026-04-09T08:11:40.87Z</time></trkpt><trkpt lat="38.36924" lon="16.1828567"><ele>480.66666666666663</ele><time>2026-04-09T08:11:41.871Z</time></trkpt><trkpt lat="38.3690417" lon="16.18299"><ele>482.0</ele><time>2026-04-09T08:11:42.871Z</time></trkpt><trkpt lat="38.3688483" lon="16.1831233"><ele>472.0</ele><time>2026-04-09T08:11:43.871Z</time></trkpt><trkpt lat="38.3686583" lon="16.183245"><ele>462.0</ele><time>2026-04-09T08:11:44.872Z</time></trkpt><trkpt lat="38.3684683" lon="16.1833817"><ele>452.0</ele><time>2026-04-09T08:11:45.872Z</time></trkpt><trkpt lat="38.3682767" lon="16.183525"><ele>452.0</ele><time>2026-04-09T08:11:46.872Z</time></trkpt><trkpt lat="38.3680783" lon="16.1836733"><ele>452.0</ele><time>2026-04-09T08:11:47.871Z</time></trkpt><trkpt lat="38.3678883" lon="16.183825"><ele>449.5</ele><time>2026-04-09T08:11:48.872Z</time></trkpt><trkpt lat="38.3677033" lon="16.18398"><ele>447.0</ele><time>2026-04-09T08:11:49.871Z</time></trkpt><trkpt lat="38.3675183" lon="16.1841533"><ele>447.0</ele><time>2026-04-09T08:11:50.871Z</time></trkpt><trkpt lat="38.3673317" lon="16.1843317"><ele>447.0</ele><time>2026-04-09T08:11:51.872Z</time></trkpt><trkpt lat="38.3671383" lon="16.1845067"><ele>457.5</ele><time>2026-04-09T08:11:52.871Z</time></trkpt><trkpt lat="38.366945" lon="16.1846783"><ele>468.0</ele><time>2026-04-09T08:11:53.871Z</time></trkpt><trkpt lat="38.36676" lon="16.1848433"><ele>468.0</ele><time>2026-04-09T08:11:54.871Z</time></trkpt><trkpt lat="38.3665767" lon="16.1850233"><ele>468.0</ele><time>2026-04-09T08:11:55.872Z</time></trkpt><trkpt lat="38.3664033" lon="16.1851833"><ele>468.0</ele><time>2026-04-09T08:11:56.872Z</time></trkpt><trkpt lat="38.366235" lon="16.1853483"><ele>468.0</ele><time>2026-04-09T08:11:57.871Z</time></trkpt><trkpt lat="38.3660633" lon="16.1855133"><ele>468.0</ele><time>2026-04-09T08:11:58.872Z</time></trkpt><trkpt lat="38.3658933" lon="16.18567"><ele>468.0</ele><time>2026-04-09T08:11:59.872Z</time></trkpt><trkpt lat="38.3657183" lon="16.1858217"><ele>460.33333333333337</ele><time>2026-04-09T08:12:00.872Z</time></trkpt><trkpt lat="38.3655433" lon="16.185975"><ele>452.6666666666667</ele><time>2026-04-09T08:12:01.871Z</time></trkpt><trkpt lat="38.3653817" lon="16.1861283"><ele>445.0</ele><time>2026-04-09T08:12:02.872Z</time></trkpt><trkpt lat="38.3652433" lon="16.1863117"><ele>459.33333333333337</ele><time>2026-04-09T08:12:03.872Z</time></trkpt><trkpt lat="38.3650833" lon="16.18648"><ele>473.66666666666663</ele><time>2026-04-09T08:12:04.871Z</time></trkpt><trkpt lat="38.36492" lon="16.1866467"><ele>488.0</ele><time>2026-04-09T08:12:05.872Z</time></trkpt><trkpt lat="38.36476" lon="16.186815"><ele>506.66666666666663</ele><time>2026-04-09T08:12:06.871Z</time></trkpt><trkpt lat="38.3645967" lon="16.186985"><ele>525.3333333333334</ele><time>2026-04-09T08:12:07.871Z</time></trkpt><trkpt lat="38.3644333" lon="16.1871533"><ele>544.0</ele><time>2026-04-09T08:12:08.871Z</time></trkpt><trkpt lat="38.364275" lon="16.1873217"><ele>439.0</ele><time>2026-04-09T08:12:09.871Z</time></trkpt><trkpt lat="38.3635567" lon="16.188265"><ele>439.0</ele><time>2026-04-09T08:12:14.871Z</time></trkpt><trkpt lat="38.3633433" lon="16.188625"><ele>439.0</ele><time>2026-04-09T08:12:15.871Z</time></trkpt><trkpt lat="38.3631817" lon="16.188945"><ele>426.0</ele><time>2026-04-09T08:12:16.872Z</time></trkpt><trkpt lat="38.36307" lon="16.1892317"><ele>413.0</ele><time>2026-04-09T08:12:17.871Z</time></trkpt><trkpt lat="38.3629567" lon="16.1894917"><ele>413.0</ele><time>2026-04-09T08:12:18.872Z</time></trkpt><trkpt lat="38.362855" lon="16.18976"><ele>413.0</ele><time>2026-04-09T08:12:19.872Z</time></trkpt><trkpt lat="38.362755" lon="16.1900283"><ele>396.0</ele><time>2026-04-09T08:12:20.871Z</time></trkpt><trkpt lat="38.3626567" lon="16.1903"><ele>379.0</ele><time>2026-04-09T08:12:21.871Z</time></trkpt><trkpt lat="38.3625717" lon="16.190585"><ele>376.5</ele><time>2026-04-09T08:12:22.871Z</time></trkpt><trkpt lat="38.3624967" lon="16.1908617"><ele>374.0</ele><time>2026-04-09T08:12:23.871Z</time></trkpt><trkpt lat="38.3624383" lon="16.1911383"><ele>374.0</ele><time>2026-04-09T08:12:24.871Z</time></trkpt><trkpt lat="38.362405" lon="16.1914283"><ele>374.0</ele><time>2026-04-09T08:12:25.871Z</time></trkpt><trkpt lat="38.3623633" lon="16.19172"><ele>374.0</ele><time>2026-04-09T08:12:26.872Z</time></trkpt><trkpt lat="38.3623333" lon="16.1919967"><ele>374.0</ele><time>2026-04-09T08:12:27.871Z</time></trkpt><trkpt lat="38.362305" lon="16.1922867"><ele>374.0</ele><time>2026-04-09T08:12:28.871Z</time></trkpt><trkpt lat="38.362275" lon="16.1925767"><ele>377.0</ele><time>2026-04-09T08:12:29.871Z</time></trkpt><trkpt lat="38.3622533" lon="16.1928633"><ele>380.0</ele><time>2026-04-09T08:12:30.871Z</time></trkpt><trkpt lat="38.362235" lon="16.1931583"><ele>377.0</ele><time>2026-04-09T08:12:31.871Z</time></trkpt><trkpt lat="38.3622267" lon="16.193445"><ele>374.0</ele><time>2026-04-09T08:12:32.872Z</time></trkpt><trkpt lat="38.3622167" lon="16.1937367"><ele>371.5</ele><time>2026-04-09T08:12:33.872Z</time></trkpt><trkpt lat="38.3621983" lon="16.19402"><ele>369.0</ele><time>2026-04-09T08:12:34.872Z</time></trkpt><trkpt lat="38.3621933" lon="16.19431"><ele>389.5</ele><time>2026-04-09T08:12:35.872Z</time></trkpt><trkpt lat="38.3621817" lon="16.1946"><ele>410.0</ele><time>2026-04-09T08:12:36.871Z</time></trkpt><trkpt lat="38.36216" lon="16.1948833"><ele>410.0</ele><time>2026-04-09T08:12:37.872Z</time></trkpt><trkpt lat="38.362145" lon="16.1951717"><ele>410.0</ele><time>2026-04-09T08:12:38.871Z</time></trkpt><trkpt lat="38.3621267" lon="16.1954633"><ele>405.0</ele><time>2026-04-09T08:12:39.872Z</time></trkpt><trkpt lat="38.3620983" lon="16.1957467"><ele>400.0</ele><time>2026-04-09T08:12:40.872Z</time></trkpt><trkpt lat="38.362065" lon="16.196025"><ele>395.0</ele><time>2026-04-09T08:12:41.872Z</time></trkpt><trkpt lat="38.3620217" lon="16.19631"><ele>382.0</ele><time>2026-04-09T08:12:42.871Z</time></trkpt><trkpt lat="38.3619867" lon="16.1965967"><ele>369.0</ele><time>2026-04-09T08:12:43.871Z</time></trkpt><trkpt lat="38.36195" lon="16.1968817"><ele>369.0</ele><time>2026-04-09T08:12:44.872Z</time></trkpt><trkpt lat="38.3619067" lon="16.1971583"><ele>369.0</ele><time>2026-04-09T08:12:45.872Z</time></trkpt><trkpt lat="38.3618583" lon="16.19745"><ele>360.0</ele><time>2026-04-09T08:12:46.872Z</time></trkpt><trkpt lat="38.36181" lon="16.197725"><ele>351.0</ele><time>2026-04-09T08:12:47.871Z</time></trkpt><trkpt lat="38.3617667" lon="16.19801"><ele>342.0</ele><time>2026-04-09T08:12:48.872Z</time></trkpt><trkpt lat="38.3617117" lon="16.1982917"><ele>336.0</ele><time>2026-04-09T08:12:49.871Z</time></trkpt><trkpt lat="38.3616567" lon="16.1985667"><ele>330.0</ele><time>2026-04-09T08:12:50.871Z</time></trkpt><trkpt lat="38.36161" lon="16.1988533"><ele>328.5</ele><time>2026-04-09T08:12:51.871Z</time></trkpt><trkpt lat="38.3615567" lon="16.1991283"><ele>327.0</ele><time>2026-04-09T08:12:52.872Z</time></trkpt><trkpt lat="38.3614883" lon="16.1994167"><ele>327.0</ele><time>2026-04-09T08:12:53.872Z</time></trkpt><trkpt lat="38.3614117" lon="16.19969"><ele>327.0</ele><time>2026-04-09T08:12:54.872Z</time></trkpt><trkpt lat="38.3613367" lon="16.1999617"><ele>324.0</ele><time>2026-04-09T08:12:55.872Z</time></trkpt><trkpt lat="38.361265" lon="16.2002367"><ele>321.0</ele><time>2026-04-09T08:12:56.872Z</time></trkpt><trkpt lat="38.3611967" lon="16.2005117"><ele>321.3333333333333</ele><time>2026-04-09T08:12:57.871Z</time></trkpt><trkpt lat="38.3611417" lon="16.2007783"><ele>321.66666666666663</ele><time>2026-04-09T08:12:58.871Z</time></trkpt><trkpt lat="38.36108" lon="16.20106"><ele>322.0</ele><time>2026-04-09T08:12:59.872Z</time></trkpt><trkpt lat="38.3610183" lon="16.2013367"><ele>321.0</ele><time>2026-04-09T08:13:00.872Z</time></trkpt><trkpt lat="38.3609317" lon="16.2016167"><ele>320.0</ele><time>2026-04-09T08:13:01.872Z</time></trkpt><trkpt lat="38.36086" lon="16.20189"><ele>320.0</ele><time>2026-04-09T08:13:02.871Z</time></trkpt><trkpt lat="38.3607867" lon="16.2021633"><ele>320.0</ele><time>2026-04-09T08:13:03.871Z</time></trkpt><trkpt lat="38.3607133" lon="16.2024417"><ele>317.5</ele><time>2026-04-09T08:13:04.872Z</time></trkpt><trkpt lat="38.3606383" lon="16.2027117"><ele>315.0</ele><time>2026-04-09T08:13:05.872Z</time></trkpt><trkpt lat="38.3605633" lon="16.2029883"><ele>311.3333333333333</ele><time>2026-04-09T08:13:06.872Z</time></trkpt><trkpt lat="38.3605067" lon="16.2032617"><ele>307.66666666666663</ele><time>2026-04-09T08:13:07.871Z</time></trkpt><trkpt lat="38.360445" lon="16.2035383"><ele>304.0</ele><time>2026-04-09T08:13:08.872Z</time></trkpt><trkpt lat="38.36038" lon="16.2038167"><ele>303.0</ele><time>2026-04-09T08:13:09.871Z</time></trkpt><trkpt lat="38.3603183" lon="16.2040933"><ele>302.0</ele><time>2026-04-09T08:13:10.871Z</time></trkpt><trkpt lat="38.3602583" lon="16.2043633"><ele>301.0</ele><time>2026-04-09T08:13:11.872Z</time></trkpt><trkpt lat="38.3602017" lon="16.204645"><ele>300.0</ele><time>2026-04-09T08:13:12.871Z</time></trkpt><trkpt lat="38.36014" lon="16.2049283"><ele>299.0</ele><time>2026-04-09T08:13:13.871Z</time></trkpt><trkpt lat="38.360085" lon="16.20521"><ele>299.0</ele><time>2026-04-09T08:13:14.872Z</time></trkpt><trkpt lat="38.3600317" lon="16.2054867"><ele>299.0</ele><time>2026-04-09T08:13:15.871Z</time></trkpt><trkpt lat="38.3599883" lon="16.2057667"><ele>299.0</ele><time>2026-04-09T08:13:16.872Z</time></trkpt><trkpt lat="38.3599417" lon="16.2060517"><ele>296.5</ele><time>2026-04-09T08:13:17.871Z</time></trkpt><trkpt lat="38.3598883" lon="16.2063383"><ele>294.0</ele><time>2026-04-09T08:13:18.872Z</time></trkpt><trkpt lat="38.359835" lon="16.2066233"><ele>294.0</ele><time>2026-04-09T08:13:19.871Z</time></trkpt><trkpt lat="38.3597867" lon="16.2068967"><ele>294.0</ele><time>2026-04-09T08:13:20.871Z</time></trkpt><trkpt lat="38.3597417" lon="16.2071767"><ele>294.0</ele><time>2026-04-09T08:13:21.872Z</time></trkpt><trkpt lat="38.3596917" lon="16.2074567"><ele>294.0</ele><time>2026-04-09T08:13:22.871Z</time></trkpt><trkpt lat="38.359645" lon="16.2077417"><ele>294.0</ele><time>2026-04-09T08:13:23.872Z</time></trkpt><trkpt lat="38.3595933" lon="16.2080283"><ele>292.5</ele><time>2026-04-09T08:13:24.872Z</time></trkpt><trkpt lat="38.35955" lon="16.2083267"><ele>291.0</ele><time>2026-04-09T08:13:25.872Z</time></trkpt><trkpt lat="38.3595117" lon="16.20864"><ele>291.0</ele><time>2026-04-09T08:13:26.872Z</time></trkpt><trkpt lat="38.3594733" lon="16.20894"><ele>291.0</ele><time>2026-04-09T08:13:27.872Z</time></trkpt><trkpt lat="38.35944" lon="16.2092433"><ele>290.5</ele><time>2026-04-09T08:13:28.872Z</time></trkpt><trkpt lat="38.3594067" lon="16.209535"><ele>290.0</ele><time>2026-04-09T08:13:29.871Z</time></trkpt><trkpt lat="38.3593683" lon="16.209835"><ele>289.0</ele><time>2026-04-09T08:13:30.872Z</time></trkpt><trkpt lat="38.3593333" lon="16.21013"><ele>288.0</ele><time>2026-04-09T08:13:31.872Z</time></trkpt><trkpt lat="38.3593017" lon="16.210425"><ele>286.5</ele><time>2026-04-09T08:13:32.872Z</time></trkpt><trkpt lat="38.3592667" lon="16.2107167"><ele>285.0</ele><time>2026-04-09T08:13:33.871Z</time></trkpt><trkpt lat="38.35924" lon="16.2110033"><ele>285.0</ele><time>2026-04-09T08:13:34.871Z</time></trkpt><trkpt lat="38.3592133" lon="16.2112883"><ele>285.0</ele><time>2026-04-09T08:13:35.871Z</time></trkpt><trkpt lat="38.359195" lon="16.2115833"><ele>285.0</ele><time>2026-04-09T08:13:36.872Z</time></trkpt><trkpt lat="38.359185" lon="16.2118783"><ele>285.0</ele><time>2026-04-09T08:13:37.871Z</time></trkpt><trkpt lat="38.3591517" lon="16.2121667"><ele>281.5</ele><time>2026-04-09T08:13:38.871Z</time></trkpt><trkpt lat="38.3591283" lon="16.2124567"><ele>278.0</ele><time>2026-04-09T08:13:39.871Z</time></trkpt><trkpt lat="38.359115" lon="16.2127467"><ele>278.0</ele><time>2026-04-09T08:13:40.872Z</time></trkpt><trkpt lat="38.3590917" lon="16.2130417"><ele>278.0</ele><time>2026-04-09T08:13:41.872Z</time></trkpt><trkpt lat="38.35907" lon="16.2133417"><ele>274.5</ele><time>2026-04-09T08:13:42.871Z</time></trkpt><trkpt lat="38.3590433" lon="16.2136433"><ele>271.0</ele><time>2026-04-09T08:13:43.872Z</time></trkpt><trkpt lat="38.359025" lon="16.2139417"><ele>269.0</ele><time>2026-04-09T08:13:44.871Z</time></trkpt><trkpt lat="38.3590017" lon="16.2142517"><ele>267.0</ele><time>2026-04-09T08:13:45.872Z</time></trkpt><trkpt lat="38.3589867" lon="16.2145667"><ele>264.5</ele><time>2026-04-09T08:13:46.872Z</time></trkpt><trkpt lat="38.3589767" lon="16.214875"><ele>262.0</ele><time>2026-04-09T08:13:47.872Z</time></trkpt><trkpt lat="38.3589783" lon="16.2151867"><ele>262.0</ele><time>2026-04-09T08:13:48.871Z</time></trkpt><trkpt lat="38.358955" lon="16.21549"><ele>262.0</ele><time>2026-04-09T08:13:49.872Z</time></trkpt><trkpt lat="38.3589367" lon="16.2157917"><ele>259.5</ele><time>2026-04-09T08:13:50.871Z</time></trkpt><trkpt lat="38.3589267" lon="16.2160967"><ele>257.0</ele><time>2026-04-09T08:13:51.872Z</time></trkpt><trkpt lat="38.3589133" lon="16.2164133"><ele>255.5</ele><time>2026-04-09T08:13:52.871Z</time></trkpt><trkpt lat="38.35891" lon="16.2167233"><ele>254.0</ele><time>2026-04-09T08:13:53.871Z</time></trkpt><trkpt lat="38.358905" lon="16.2170433"><ele>252.0</ele><time>2026-04-09T08:13:54.871Z</time></trkpt><trkpt lat="38.3589033" lon="16.217375"><ele>250.0</ele><time>2026-04-09T08:13:55.872Z</time></trkpt><trkpt lat="38.35889" lon="16.2177033"><ele>250.0</ele><time>2026-04-09T08:13:56.872Z</time></trkpt><trkpt lat="38.35888" lon="16.2180267"><ele>250.0</ele><time>2026-04-09T08:13:57.872Z</time></trkpt><trkpt lat="38.3588667" lon="16.218355"><ele>250.0</ele><time>2026-04-09T08:13:58.872Z</time></trkpt><trkpt lat="38.3588583" lon="16.2186767"><ele>250.0</ele><time>2026-04-09T08:13:59.872Z</time></trkpt><trkpt lat="38.3588467" lon="16.219"><ele>250.0</ele><time>2026-04-09T08:14:00.871Z</time></trkpt><trkpt lat="38.3588367" lon="16.219325"><ele>250.0</ele><time>2026-04-09T08:14:01.871Z</time></trkpt><trkpt lat="38.3588333" lon="16.2196533"><ele>247.0</ele><time>2026-04-09T08:14:02.871Z</time></trkpt><trkpt lat="38.35883" lon="16.219975"><ele>244.0</ele><time>2026-04-09T08:14:03.872Z</time></trkpt><trkpt lat="38.3588183" lon="16.2202967"><ele>244.0</ele><time>2026-04-09T08:14:04.872Z</time></trkpt><trkpt lat="38.358805" lon="16.2206167"><ele>244.0</ele><time>2026-04-09T08:14:05.871Z</time></trkpt><trkpt lat="38.3588" lon="16.2209383"><ele>242.0</ele><time>2026-04-09T08:14:06.872Z</time></trkpt><trkpt lat="38.358785" lon="16.22126"><ele>240.0</ele><time>2026-04-09T08:14:07.871Z</time></trkpt><trkpt lat="38.358775" lon="16.22158"><ele>239.5</ele><time>2026-04-09T08:14:08.872Z</time></trkpt><trkpt lat="38.3587617" lon="16.2218917"><ele>239.0</ele><time>2026-04-09T08:14:09.871Z</time></trkpt><trkpt lat="38.3587517" lon="16.2221917"><ele>237.0</ele><time>2026-04-09T08:14:10.872Z</time></trkpt><trkpt lat="38.3587367" lon="16.222495"><ele>235.0</ele><time>2026-04-09T08:14:11.87Z</time></trkpt><trkpt lat="38.3587217" lon="16.2227833"><ele>235.0</ele><time>2026-04-09T08:14:12.871Z</time></trkpt><trkpt lat="38.3587033" lon="16.2230733"><ele>235.0</ele><time>2026-04-09T08:14:13.872Z</time></trkpt><trkpt lat="38.3586883" lon="16.2233717"><ele>233.0</ele><time>2026-04-09T08:14:14.871Z</time></trkpt><trkpt lat="38.3586817" lon="16.2236617"><ele>231.0</ele><time>2026-04-09T08:14:15.871Z</time></trkpt><trkpt lat="38.3586717" lon="16.2239567"><ele>229.5</ele><time>2026-04-09T08:14:16.872Z</time></trkpt><trkpt lat="38.358665" lon="16.2242517"><ele>228.0</ele><time>2026-04-09T08:14:17.871Z</time></trkpt><trkpt lat="38.358655" lon="16.2245467"><ele>228.33333333333331</ele><time>2026-04-09T08:14:18.872Z</time></trkpt><trkpt lat="38.3586417" lon="16.2248317"><ele>228.66666666666666</ele><time>2026-04-09T08:14:19.872Z</time></trkpt><trkpt lat="38.3586317" lon="16.2251117"><ele>229.0</ele><time>2026-04-09T08:14:20.872Z</time></trkpt><trkpt lat="38.3586183" lon="16.22539"><ele>228.66666666666666</ele><time>2026-04-09T08:14:21.871Z</time></trkpt><trkpt lat="38.3585967" lon="16.225665"><ele>228.33333333333331</ele><time>2026-04-09T08:14:22.872Z</time></trkpt><trkpt lat="38.35858" lon="16.2259383"><ele>228.0</ele><time>2026-04-09T08:14:23.872Z</time></trkpt><trkpt lat="38.3585617" lon="16.226205"><ele>227.66666666666669</ele><time>2026-04-09T08:14:24.871Z</time></trkpt><trkpt lat="38.35854" lon="16.2264867"><ele>227.33333333333334</ele><time>2026-04-09T08:14:25.871Z</time></trkpt><trkpt lat="38.3585183" lon="16.2267617"><ele>227.0</ele><time>2026-04-09T08:14:26.871Z</time></trkpt><trkpt lat="38.3585033" lon="16.2270317"><ele>227.0</ele><time>2026-04-09T08:14:27.871Z</time></trkpt><trkpt lat="38.3584867" lon="16.227305"><ele>227.0</ele><time>2026-04-09T08:14:28.871Z</time></trkpt><trkpt lat="38.358465" lon="16.2275767"><ele>227.0</ele><time>2026-04-09T08:14:29.872Z</time></trkpt><trkpt lat="38.3584367" lon="16.2278417"><ele>226.66666666666669</ele><time>2026-04-09T08:14:30.871Z</time></trkpt><trkpt lat="38.3584117" lon="16.228105"><ele>226.33333333333331</ele><time>2026-04-09T08:14:31.872Z</time></trkpt><trkpt lat="38.35839" lon="16.228375"><ele>226.0</ele><time>2026-04-09T08:14:32.871Z</time></trkpt><trkpt lat="38.3583617" lon="16.2286417"><ele>223.66666666666666</ele><time>2026-04-09T08:14:33.871Z</time></trkpt><trkpt lat="38.3583283" lon="16.22892"><ele>221.33333333333331</ele><time>2026-04-09T08:14:34.872Z</time></trkpt><trkpt lat="38.3582917" lon="16.22919"><ele>219.0</ele><time>2026-04-09T08:14:35.872Z</time></trkpt><trkpt lat="38.3582667" lon="16.2294567"><ele>218.66666666666669</ele><time>2026-04-09T08:14:36.872Z</time></trkpt><trkpt lat="38.358235" lon="16.229715"><ele>218.33333333333334</ele><time>2026-04-09T08:14:37.871Z</time></trkpt><trkpt lat="38.3582083" lon="16.2299783"><ele>218.0</ele><time>2026-04-09T08:14:38.872Z</time></trkpt><trkpt lat="38.3581783" lon="16.2302383"><ele>218.0</ele><time>2026-04-09T08:14:39.872Z</time></trkpt><trkpt lat="38.358145" lon="16.230515"><ele>218.0</ele><time>2026-04-09T08:14:40.871Z</time></trkpt><trkpt lat="38.3581117" lon="16.2308017"><ele>218.0</ele><time>2026-04-09T08:14:41.872Z</time></trkpt><trkpt lat="38.358075" lon="16.2310767"><ele>218.33333333333334</ele><time>2026-04-09T08:14:42.872Z</time></trkpt><trkpt lat="38.358035" lon="16.23136"><ele>218.66666666666669</ele><time>2026-04-09T08:14:43.871Z</time></trkpt><trkpt lat="38.3579933" lon="16.2316383"><ele>219.0</ele><time>2026-04-09T08:14:44.871Z</time></trkpt><trkpt lat="38.357945" lon="16.2319267"><ele>213.0</ele><time>2026-04-09T08:14:45.872Z</time></trkpt><trkpt lat="38.3579033" lon="16.23221"><ele>207.0</ele><time>2026-04-09T08:14:46.872Z</time></trkpt><trkpt lat="38.357845" lon="16.2325067"><ele>207.0</ele><time>2026-04-09T08:14:47.872Z</time></trkpt><trkpt lat="38.3577883" lon="16.23281"><ele>207.0</ele><time>2026-04-09T08:14:48.872Z</time></trkpt><trkpt lat="38.3577267" lon="16.2331017"><ele>204.5</ele><time>2026-04-09T08:14:49.872Z</time></trkpt><trkpt lat="38.35767" lon="16.233405"><ele>202.0</ele><time>2026-04-09T08:14:50.871Z</time></trkpt><trkpt lat="38.3576133" lon="16.2337017"><ele>203.0</ele><time>2026-04-09T08:14:51.872Z</time></trkpt><trkpt lat="38.3575517" lon="16.233985"><ele>204.0</ele><time>2026-04-09T08:14:52.872Z</time></trkpt><trkpt lat="38.357495" lon="16.2342583"><ele>204.0</ele><time>2026-04-09T08:14:53.871Z</time></trkpt><trkpt lat="38.35744" lon="16.2345317"><ele>204.0</ele><time>2026-04-09T08:14:54.871Z</time></trkpt><trkpt lat="38.35738" lon="16.234795"><ele>204.0</ele><time>2026-04-09T08:14:55.872Z</time></trkpt><trkpt lat="38.3573283" lon="16.2350633"><ele>204.66666666666669</ele><time>2026-04-09T08:14:56.872Z</time></trkpt><trkpt lat="38.3572717" lon="16.23533"><ele>205.33333333333334</ele><time>2026-04-09T08:14:57.872Z</time></trkpt><trkpt lat="38.35722" lon="16.2355833"><ele>206.0</ele><time>2026-04-09T08:14:58.871Z</time></trkpt><trkpt lat="38.357155" lon="16.2358317"><ele>203.0</ele><time>2026-04-09T08:14:59.871Z</time></trkpt><trkpt lat="38.3570817" lon="16.23608"><ele>200.0</ele><time>2026-04-09T08:15:00.872Z</time></trkpt><trkpt lat="38.357015" lon="16.236325"><ele>197.0</ele><time>2026-04-09T08:15:01.871Z</time></trkpt><trkpt lat="38.35695" lon="16.236565"><ele>196.0</ele><time>2026-04-09T08:15:02.872Z</time></trkpt><trkpt lat="38.356895" lon="16.2367917"><ele>195.0</ele><time>2026-04-09T08:15:03.871Z</time></trkpt><trkpt lat="38.3568417" lon="16.2370183"><ele>194.0</ele><time>2026-04-09T08:15:04.871Z</time></trkpt><trkpt lat="38.35678" lon="16.2372333"><ele>193.33333333333334</ele><time>2026-04-09T08:15:05.871Z</time></trkpt><trkpt lat="38.356725" lon="16.237445"><ele>192.66666666666669</ele><time>2026-04-09T08:15:06.872Z</time></trkpt><trkpt lat="38.3566733" lon="16.2376367"><ele>192.0</ele><time>2026-04-09T08:15:07.872Z</time></trkpt><trkpt lat="38.35662" lon="16.2378217"><ele>192.0</ele><time>2026-04-09T08:15:08.871Z</time></trkpt><trkpt lat="38.3565683" lon="16.2380167"><ele>192.0</ele><time>2026-04-09T08:15:09.872Z</time></trkpt><trkpt lat="38.3565117" lon="16.2382133"><ele>192.0</ele><time>2026-04-09T08:15:10.872Z</time></trkpt><trkpt lat="38.3564467" lon="16.2384183"><ele>191.0</ele><time>2026-04-09T08:15:11.872Z</time></trkpt><trkpt lat="38.3563867" lon="16.23863"><ele>190.0</ele><time>2026-04-09T08:15:12.872Z</time></trkpt><trkpt lat="38.3563167" lon="16.238845"><ele>189.0</ele><time>2026-04-09T08:15:13.872Z</time></trkpt><trkpt lat="38.3562467" lon="16.23908"><ele>188.33333333333334</ele><time>2026-04-09T08:15:14.871Z</time></trkpt><trkpt lat="38.3561717" lon="16.2393167"><ele>187.66666666666669</ele><time>2026-04-09T08:15:15.872Z</time></trkpt><trkpt lat="38.35608" lon="16.2395617"><ele>187.0</ele><time>2026-04-09T08:15:16.871Z</time></trkpt><trkpt lat="38.3559883" lon="16.2398267"><ele>187.0</ele><time>2026-04-09T08:15:17.871Z</time></trkpt><trkpt lat="38.3558967" lon="16.2400933"><ele>187.0</ele><time>2026-04-09T08:15:18.871Z</time></trkpt><trkpt lat="38.355795" lon="16.2403517"><ele>187.0</ele><time>2026-04-09T08:15:19.871Z</time></trkpt><trkpt lat="38.3556967" lon="16.2406217"><ele>187.0</ele><time>2026-04-09T08:15:20.872Z</time></trkpt><trkpt lat="38.3555817" lon="16.240875"><ele>184.5</ele><time>2026-04-09T08:15:21.871Z</time></trkpt><trkpt lat="38.3554683" lon="16.241125"><ele>182.0</ele><time>2026-04-09T08:15:22.872Z</time></trkpt><trkpt lat="38.3553517" lon="16.2413717"><ele>183.33333333333331</ele><time>2026-04-09T08:15:23.872Z</time></trkpt><trkpt lat="38.355245" lon="16.24162"><ele>184.66666666666666</ele><time>2026-04-09T08:15:24.871Z</time></trkpt><trkpt lat="38.35513" lon="16.2418667"><ele>186.0</ele><time>2026-04-09T08:15:25.872Z</time></trkpt><trkpt lat="38.355005" lon="16.2421183"><ele>190.0</ele><time>2026-04-09T08:15:26.872Z</time></trkpt><trkpt lat="38.354865" lon="16.2423617"><ele>194.0</ele><time>2026-04-09T08:15:27.872Z</time></trkpt><trkpt lat="38.35473" lon="16.2426067"><ele>186.0</ele><time>2026-04-09T08:15:28.871Z</time></trkpt><trkpt lat="38.3545917" lon="16.2428583"><ele>178.0</ele><time>2026-04-09T08:15:29.872Z</time></trkpt><trkpt lat="38.3544517" lon="16.243105"><ele>178.0</ele><time>2026-04-09T08:15:30.872Z</time></trkpt><trkpt lat="38.3543083" lon="16.24335"><ele>178.0</ele><time>2026-04-09T08:15:31.872Z</time></trkpt><trkpt lat="38.354175" lon="16.2435933"><ele>178.0</ele><time>2026-04-09T08:15:32.872Z</time></trkpt><trkpt lat="38.3540383" lon="16.243835"><ele>178.0</ele><time>2026-04-09T08:15:33.871Z</time></trkpt><trkpt lat="38.3539" lon="16.244085"><ele>177.0</ele><time>2026-04-09T08:15:34.871Z</time></trkpt><trkpt lat="38.3537633" lon="16.24432"><ele>176.0</ele><time>2026-04-09T08:15:35.872Z</time></trkpt><trkpt lat="38.3536283" lon="16.24457"><ele>176.0</ele><time>2026-04-09T08:15:36.871Z</time></trkpt><trkpt lat="38.3534917" lon="16.2448167"><ele>176.0</ele><time>2026-04-09T08:15:37.872Z</time></trkpt><trkpt lat="38.3533533" lon="16.2450633"><ele>176.0</ele><time>2026-04-09T08:15:38.871Z</time></trkpt><trkpt lat="38.3532233" lon="16.2453"><ele>176.0</ele><time>2026-04-09T08:15:39.872Z</time></trkpt><trkpt lat="38.3530983" lon="16.24553"><ele>176.0</ele><time>2026-04-09T08:15:40.872Z</time></trkpt><trkpt lat="38.35297" lon="16.2457583"><ele>173.33333333333331</ele><time>2026-04-09T08:15:41.872Z</time></trkpt><trkpt lat="38.3528483" lon="16.2459767"><ele>170.66666666666666</ele><time>2026-04-09T08:15:42.872Z</time></trkpt><trkpt lat="38.35273" lon="16.2461917"><ele>168.0</ele><time>2026-04-09T08:15:43.872Z</time></trkpt><trkpt lat="38.3526167" lon="16.2464083"><ele>168.66666666666666</ele><time>2026-04-09T08:15:44.872Z</time></trkpt><trkpt lat="38.3525" lon="16.2466217"><ele>169.33333333333331</ele><time>2026-04-09T08:15:45.872Z</time></trkpt><trkpt lat="38.3523817" lon="16.2468333"><ele>170.0</ele><time>2026-04-09T08:15:46.872Z</time></trkpt><trkpt lat="38.3522617" lon="16.2470483"><ele>168.33333333333331</ele><time>2026-04-09T08:15:47.871Z</time></trkpt><trkpt lat="38.3521417" lon="16.2472567"><ele>166.66666666666666</ele><time>2026-04-09T08:15:48.871Z</time></trkpt><trkpt lat="38.352025" lon="16.247465"><ele>165.0</ele><time>2026-04-09T08:15:49.872Z</time></trkpt><trkpt lat="38.3519017" lon="16.2476767"><ele>164.66666666666666</ele><time>2026-04-09T08:15:50.871Z</time></trkpt><trkpt lat="38.3517867" lon="16.2478933"><ele>164.33333333333331</ele><time>2026-04-09T08:15:51.871Z</time></trkpt><trkpt lat="38.3516717" lon="16.2481083"><ele>164.0</ele><time>2026-04-09T08:15:52.871Z</time></trkpt><trkpt lat="38.3515667" lon="16.24833"><ele>164.0</ele><time>2026-04-09T08:15:53.871Z</time></trkpt><trkpt lat="38.3514683" lon="16.248555"><ele>164.0</ele><time>2026-04-09T08:15:54.872Z</time></trkpt><trkpt lat="38.3513767" lon="16.2487817"><ele>164.0</ele><time>2026-04-09T08:15:55.871Z</time></trkpt><trkpt lat="38.3512833" lon="16.2490133"><ele>163.0</ele><time>2026-04-09T08:15:56.872Z</time></trkpt><trkpt lat="38.3512033" lon="16.2492433"><ele>162.0</ele><time>2026-04-09T08:15:57.872Z</time></trkpt><trkpt lat="38.351115" lon="16.24948"><ele>161.0</ele><time>2026-04-09T08:15:58.871Z</time></trkpt><trkpt lat="38.3510383" lon="16.2497083"><ele>161.33333333333331</ele><time>2026-04-09T08:15:59.872Z</time></trkpt><trkpt lat="38.350965" lon="16.249945"><ele>161.66666666666666</ele><time>2026-04-09T08:16:00.871Z</time></trkpt><trkpt lat="38.350895" lon="16.2501683"><ele>162.0</ele><time>2026-04-09T08:16:01.872Z</time></trkpt><trkpt lat="38.3508317" lon="16.2503967"><ele>165.33333333333334</ele><time>2026-04-09T08:16:02.872Z</time></trkpt><trkpt lat="38.350775" lon="16.2506267"><ele>168.66666666666669</ele><time>2026-04-09T08:16:03.871Z</time></trkpt><trkpt lat="38.35071" lon="16.2508483"><ele>172.0</ele><time>2026-04-09T08:16:04.872Z</time></trkpt><trkpt lat="38.3506517" lon="16.25107"><ele>172.0</ele><time>2026-04-09T08:16:05.871Z</time></trkpt><trkpt lat="38.3506" lon="16.2512883"><ele>172.0</ele><time>2026-04-09T08:16:06.872Z</time></trkpt><trkpt lat="38.3505533" lon="16.2514917"><ele>172.0</ele><time>2026-04-09T08:16:07.872Z</time></trkpt><trkpt lat="38.3505067" lon="16.2516833"><ele>166.33333333333334</ele><time>2026-04-09T08:16:08.872Z</time></trkpt><trkpt lat="38.35045" lon="16.251875"><ele>160.66666666666666</ele><time>2026-04-09T08:16:09.872Z</time></trkpt><trkpt lat="38.3503933" lon="16.2520667"><ele>155.0</ele><time>2026-04-09T08:16:10.872Z</time></trkpt><trkpt lat="38.3503333" lon="16.25226"><ele>155.0</ele><time>2026-04-09T08:16:11.871Z</time></trkpt><trkpt lat="38.35027" lon="16.2524633"><ele>155.0</ele><time>2026-04-09T08:16:12.872Z</time></trkpt><trkpt lat="38.3502017" lon="16.2526633"><ele>155.0</ele><time>2026-04-09T08:16:13.872Z</time></trkpt><trkpt lat="38.35013" lon="16.2528567"><ele>155.0</ele><time>2026-04-09T08:16:14.871Z</time></trkpt><trkpt lat="38.3500517" lon="16.2530517"><ele>155.0</ele><time>2026-04-09T08:16:15.871Z</time></trkpt><trkpt lat="38.3499667" lon="16.2532367"><ele>155.0</ele><time>2026-04-09T08:16:16.872Z</time></trkpt><trkpt lat="38.3498783" lon="16.253425"><ele>156.33333333333331</ele><time>2026-04-09T08:16:17.872Z</time></trkpt><trkpt lat="38.3497867" lon="16.2536117"><ele>157.66666666666666</ele><time>2026-04-09T08:16:18.872Z</time></trkpt><trkpt lat="38.349685" lon="16.253805"><ele>159.0</ele><time>2026-04-09T08:16:19.872Z</time></trkpt><trkpt lat="38.3495867" lon="16.253995"><ele>156.0</ele><time>2026-04-09T08:16:20.872Z</time></trkpt><trkpt lat="38.3494817" lon="16.25418"><ele>153.0</ele><time>2026-04-09T08:16:21.871Z</time></trkpt><trkpt lat="38.3493817" lon="16.2543533"><ele>150.0</ele><time>2026-04-09T08:16:22.871Z</time></trkpt><trkpt lat="38.3492783" lon="16.2545167"><ele>150.0</ele><time>2026-04-09T08:16:23.871Z</time></trkpt><trkpt lat="38.3491733" lon="16.254675"><ele>150.0</ele><time>2026-04-09T08:16:24.872Z</time></trkpt><trkpt lat="38.3490567" lon="16.254835"><ele>150.0</ele><time>2026-04-09T08:16:25.871Z</time></trkpt><trkpt lat="38.3489417" lon="16.2549917"><ele>148.33333333333334</ele><time>2026-04-09T08:16:26.871Z</time></trkpt><trkpt lat="38.3488283" lon="16.2551567"><ele>146.66666666666669</ele><time>2026-04-09T08:16:27.871Z</time></trkpt><trkpt lat="38.3487017" lon="16.2553083"><ele>145.0</ele><time>2026-04-09T08:16:28.871Z</time></trkpt><trkpt lat="38.3485783" lon="16.2554583"><ele>145.0</ele><time>2026-04-09T08:16:29.871Z</time></trkpt><trkpt lat="38.348445" lon="16.2555967"><ele>145.0</ele><time>2026-04-09T08:16:30.872Z</time></trkpt><trkpt lat="38.3483133" lon="16.2557417"><ele>145.0</ele><time>2026-04-09T08:16:31.872Z</time></trkpt><trkpt lat="38.348175" lon="16.25589"><ele>144.0</ele><time>2026-04-09T08:16:32.872Z</time></trkpt><trkpt lat="38.34803" lon="16.2560217"><ele>143.0</ele><time>2026-04-09T08:16:33.872Z</time></trkpt><trkpt lat="38.347885" lon="16.2561533"><ele>142.0</ele><time>2026-04-09T08:16:34.872Z</time></trkpt><trkpt lat="38.3477383" lon="16.2562817"><ele>142.0</ele><time>2026-04-09T08:16:35.872Z</time></trkpt><trkpt lat="38.3475917" lon="16.256405"><ele>142.0</ele><time>2026-04-09T08:16:36.872Z</time></trkpt><trkpt lat="38.347435" lon="16.2565233"><ele>142.0</ele><time>2026-04-09T08:16:37.871Z</time></trkpt><trkpt lat="38.34728" lon="16.2566467"><ele>141.66666666666669</ele><time>2026-04-09T08:16:38.872Z</time></trkpt><trkpt lat="38.3471217" lon="16.2567633"><ele>141.33333333333334</ele><time>2026-04-09T08:16:39.872Z</time></trkpt><trkpt lat="38.3469683" lon="16.2568767"><ele>141.0</ele><time>2026-04-09T08:16:40.872Z</time></trkpt><trkpt lat="38.34683" lon="16.25698"><ele>141.0</ele><time>2026-04-09T08:16:41.872Z</time></trkpt><trkpt lat="38.346685" lon="16.2570783"><ele>141.0</ele><time>2026-04-09T08:16:42.871Z</time></trkpt><trkpt lat="38.346545" lon="16.25718"><ele>141.0</ele><time>2026-04-09T08:16:43.871Z</time></trkpt><trkpt lat="38.3464033" lon="16.2572933"><ele>140.66666666666666</ele><time>2026-04-09T08:16:44.872Z</time></trkpt><trkpt lat="38.3462633" lon="16.2574267"><ele>140.33333333333331</ele><time>2026-04-09T08:16:45.872Z</time></trkpt><trkpt lat="38.34612" lon="16.2575733"><ele>140.0</ele><time>2026-04-09T08:16:46.872Z</time></trkpt><trkpt lat="38.3459733" lon="16.257735"><ele>140.0</ele><time>2026-04-09T08:16:47.871Z</time></trkpt><trkpt lat="38.3458167" lon="16.2579267"><ele>140.0</ele><time>2026-04-09T08:16:48.872Z</time></trkpt><trkpt lat="38.3456433" lon="16.2581367"><ele>137.0</ele><time>2026-04-09T08:16:49.872Z</time></trkpt><trkpt lat="38.3454667" lon="16.2583717"><ele>134.0</ele><time>2026-04-09T08:16:50.871Z</time></trkpt><trkpt lat="38.3452883" lon="16.2585917"><ele>134.0</ele><time>2026-04-09T08:16:51.871Z</time></trkpt><trkpt lat="38.3451267" lon="16.25881"><ele>134.0</ele><time>2026-04-09T08:16:52.872Z</time></trkpt><trkpt lat="38.344995" lon="16.25902"><ele>134.0</ele><time>2026-04-09T08:16:53.872Z</time></trkpt><trkpt lat="38.3448833" lon="16.2592183"><ele>134.33333333333331</ele><time>2026-04-09T08:16:54.872Z</time></trkpt><trkpt lat="38.344765" lon="16.2594083"><ele>134.66666666666666</ele><time>2026-04-09T08:16:55.872Z</time></trkpt><trkpt lat="38.344665" lon="16.259605"><ele>135.0</ele><time>2026-04-09T08:16:56.871Z</time></trkpt><trkpt lat="38.3445767" lon="16.259805"><ele>133.66666666666666</ele><time>2026-04-09T08:16:57.872Z</time></trkpt><trkpt lat="38.3444833" lon="16.26001"><ele>132.33333333333331</ele><time>2026-04-09T08:16:58.872Z</time></trkpt><trkpt lat="38.3444067" lon="16.2602167"><ele>131.0</ele><time>2026-04-09T08:16:59.872Z</time></trkpt><trkpt lat="38.34433" lon="16.2604217"><ele>131.33333333333331</ele><time>2026-04-09T08:17:00.871Z</time></trkpt><trkpt lat="38.34426" lon="16.260625"><ele>131.66666666666666</ele><time>2026-04-09T08:17:01.871Z</time></trkpt><trkpt lat="38.3441883" lon="16.2608317"><ele>132.0</ele><time>2026-04-09T08:17:02.872Z</time></trkpt><trkpt lat="38.3441283" lon="16.26104"><ele>132.0</ele><time>2026-04-09T08:17:03.872Z</time></trkpt><trkpt lat="38.3440683" lon="16.2612483"><ele>132.0</ele><time>2026-04-09T08:17:04.871Z</time></trkpt><trkpt lat="38.34401" lon="16.2614783"><ele>132.0</ele><time>2026-04-09T08:17:05.871Z</time></trkpt><trkpt lat="38.3439517" lon="16.2617033"><ele>132.0</ele><time>2026-04-09T08:17:06.872Z</time></trkpt><trkpt lat="38.3439" lon="16.2619383"><ele>132.0</ele><time>2026-04-09T08:17:07.872Z</time></trkpt><trkpt lat="38.3438583" lon="16.2621883"><ele>132.0</ele><time>2026-04-09T08:17:08.872Z</time></trkpt><trkpt lat="38.3438233" lon="16.2624633"><ele>129.0</ele><time>2026-04-09T08:17:09.871Z</time></trkpt><trkpt lat="38.3437983" lon="16.2627567"><ele>126.0</ele><time>2026-04-09T08:17:10.872Z</time></trkpt><trkpt lat="38.34378" lon="16.2630683"><ele>125.0</ele><time>2026-04-09T08:17:11.872Z</time></trkpt><trkpt lat="38.343755" lon="16.2633983"><ele>124.0</ele><time>2026-04-09T08:17:12.872Z</time></trkpt><trkpt lat="38.343735" lon="16.2637517"><ele>123.0</ele><time>2026-04-09T08:17:13.872Z</time></trkpt><trkpt lat="38.3437333" lon="16.2641183"><ele>122.0</ele><time>2026-04-09T08:17:14.871Z</time></trkpt><trkpt lat="38.34372" lon="16.26448"><ele>121.0</ele><time>2026-04-09T08:17:15.871Z</time></trkpt><trkpt lat="38.3437117" lon="16.2648317"><ele>120.0</ele><time>2026-04-09T08:17:16.872Z</time></trkpt><trkpt lat="38.3437" lon="16.2651633"><ele>120.0</ele><time>2026-04-09T08:17:17.872Z</time></trkpt><trkpt lat="38.3436817" lon="16.2654767"><ele>120.0</ele><time>2026-04-09T08:17:18.872Z</time></trkpt><trkpt lat="38.3436617" lon="16.2657817"><ele>119.66666666666666</ele><time>2026-04-09T08:17:19.871Z</time></trkpt><trkpt lat="38.34363" lon="16.2660633"><ele>119.33333333333333</ele><time>2026-04-09T08:17:20.872Z</time></trkpt><trkpt lat="38.343595" lon="16.2663383"><ele>119.0</ele><time>2026-04-09T08:17:21.872Z</time></trkpt><trkpt lat="38.3435583" lon="16.2666133"><ele>119.0</ele><time>2026-04-09T08:17:22.871Z</time></trkpt><trkpt lat="38.3435133" lon="16.2668817"><ele>119.0</ele><time>2026-04-09T08:17:23.871Z</time></trkpt><trkpt lat="38.343465" lon="16.2671483"><ele>119.0</ele><time>2026-04-09T08:17:24.872Z</time></trkpt><trkpt lat="38.343415" lon="16.26741"><ele>118.66666666666666</ele><time>2026-04-09T08:17:25.872Z</time></trkpt><trkpt lat="38.3433617" lon="16.26767"><ele>118.33333333333334</ele><time>2026-04-09T08:17:26.872Z</time></trkpt><trkpt lat="38.343305" lon="16.26792"><ele>118.0</ele><time>2026-04-09T08:17:27.872Z</time></trkpt><trkpt lat="38.3432567" lon="16.2681617"><ele>116.66666666666667</ele><time>2026-04-09T08:17:28.871Z</time></trkpt><trkpt lat="38.3432" lon="16.2684017"><ele>115.33333333333334</ele><time>2026-04-09T08:17:29.872Z</time></trkpt><trkpt lat="38.3431483" lon="16.26865"><ele>114.0</ele><time>2026-04-09T08:17:30.872Z</time></trkpt><trkpt lat="38.3430983" lon="16.2688883"><ele>113.66666666666666</ele><time>2026-04-09T08:17:31.872Z</time></trkpt><trkpt lat="38.3430433" lon="16.2691283"><ele>113.33333333333333</ele><time>2026-04-09T08:17:32.872Z</time></trkpt><trkpt lat="38.342995" lon="16.2693717"><ele>113.0</ele><time>2026-04-09T08:17:33.872Z</time></trkpt><trkpt lat="38.342945" lon="16.2696133"><ele>112.66666666666666</ele><time>2026-04-09T08:17:34.872Z</time></trkpt><trkpt lat="38.3428967" lon="16.26985"><ele>112.33333333333334</ele><time>2026-04-09T08:17:35.871Z</time></trkpt><trkpt lat="38.3428383" lon="16.270095"><ele>112.0</ele><time>2026-04-09T08:17:36.871Z</time></trkpt><trkpt lat="38.34278" lon="16.2703483"><ele>112.0</ele><time>2026-04-09T08:17:37.871Z</time></trkpt><trkpt lat="38.3427183" lon="16.27061"><ele>112.0</ele><time>2026-04-09T08:17:38.872Z</time></trkpt><trkpt lat="38.34265" lon="16.2708833"><ele>112.0</ele><time>2026-04-09T08:17:39.871Z</time></trkpt><trkpt lat="38.3425767" lon="16.271155"><ele>112.0</ele><time>2026-04-09T08:17:40.872Z</time></trkpt><trkpt lat="38.3425067" lon="16.2714233"><ele>112.0</ele><time>2026-04-09T08:17:41.871Z</time></trkpt><trkpt lat="38.342435" lon="16.2716783"><ele>112.0</ele><time>2026-04-09T08:17:42.871Z</time></trkpt><trkpt lat="38.3423617" lon="16.2719283"><ele>111.33333333333334</ele><time>2026-04-09T08:17:43.872Z</time></trkpt><trkpt lat="38.3422867" lon="16.272175"><ele>110.66666666666666</ele><time>2026-04-09T08:17:44.872Z</time></trkpt><trkpt lat="38.34221" lon="16.27243"><ele>110.0</ele><time>2026-04-09T08:17:45.871Z</time></trkpt><trkpt lat="38.3421267" lon="16.2726817"><ele>110.0</ele><time>2026-04-09T08:17:46.872Z</time></trkpt><trkpt lat="38.3420433" lon="16.27293"><ele>110.0</ele><time>2026-04-09T08:17:47.872Z</time></trkpt><trkpt lat="38.3419533" lon="16.2731983"><ele>110.0</ele><time>2026-04-09T08:17:48.872Z</time></trkpt><trkpt lat="38.3418583" lon="16.2734733"><ele>110.0</ele><time>2026-04-09T08:17:49.872Z</time></trkpt><trkpt lat="38.3417567" lon="16.2737433"><ele>110.0</ele><time>2026-04-09T08:17:50.872Z</time></trkpt><trkpt lat="38.3416483" lon="16.2740117"><ele>110.33333333333333</ele><time>2026-04-09T08:17:51.871Z</time></trkpt><trkpt lat="38.3415417" lon="16.2742667"><ele>110.66666666666666</ele><time>2026-04-09T08:17:52.871Z</time></trkpt><trkpt lat="38.3414367" lon="16.274515"><ele>111.0</ele><time>2026-04-09T08:17:53.872Z</time></trkpt><trkpt lat="38.3413367" lon="16.27476"><ele>110.0</ele><time>2026-04-09T08:17:54.871Z</time></trkpt><trkpt lat="38.3412367" lon="16.2749933"><ele>109.0</ele><time>2026-04-09T08:17:55.871Z</time></trkpt><trkpt lat="38.3411267" lon="16.2752217"><ele>108.0</ele><time>2026-04-09T08:17:56.872Z</time></trkpt><trkpt lat="38.34101" lon="16.2754617"><ele>109.5</ele><time>2026-04-09T08:17:57.872Z</time></trkpt><trkpt lat="38.3408917" lon="16.2757183"><ele>111.0</ele><time>2026-04-09T08:17:58.871Z</time></trkpt><trkpt lat="38.3407567" lon="16.2759883"><ele>111.0</ele><time>2026-04-09T08:17:59.872Z</time></trkpt><trkpt lat="38.340615" lon="16.27625"><ele>111.0</ele><time>2026-04-09T08:18:00.871Z</time></trkpt><trkpt lat="38.3404717" lon="16.27652"><ele>108.0</ele><time>2026-04-09T08:18:01.872Z</time></trkpt><trkpt lat="38.3403133" lon="16.2767967"><ele>105.0</ele><time>2026-04-09T08:18:02.872Z</time></trkpt><trkpt lat="38.3401483" lon="16.2770717"><ele>106.5</ele><time>2026-04-09T08:18:03.872Z</time></trkpt><trkpt lat="38.3399783" lon="16.27734"><ele>108.0</ele><time>2026-04-09T08:18:04.871Z</time></trkpt><trkpt lat="38.3398083" lon="16.27761"><ele>106.5</ele><time>2026-04-09T08:18:05.872Z</time></trkpt><trkpt lat="38.3396383" lon="16.27788"><ele>105.0</ele><time>2026-04-09T08:18:06.872Z</time></trkpt><trkpt lat="38.3394717" lon="16.2781467"><ele>105.0</ele><time>2026-04-09T08:18:07.871Z</time></trkpt><trkpt lat="38.33932" lon="16.2784083"><ele>105.0</ele><time>2026-04-09T08:18:08.871Z</time></trkpt><trkpt lat="38.3391717" lon="16.2786617"><ele>105.0</ele><time>2026-04-09T08:18:09.872Z</time></trkpt><trkpt lat="38.3390283" lon="16.2789033"><ele>105.0</ele><time>2026-04-09T08:18:10.872Z</time></trkpt><trkpt lat="38.3388933" lon="16.2791467"><ele>105.0</ele><time>2026-04-09T08:18:11.872Z</time></trkpt><trkpt lat="38.338765" lon="16.2793833"><ele>105.0</ele><time>2026-04-09T08:18:12.871Z</time></trkpt><trkpt lat="38.3386333" lon="16.2796083"><ele>105.0</ele><time>2026-04-09T08:18:13.872Z</time></trkpt><trkpt lat="38.338505" lon="16.279825"><ele>105.0</ele><time>2026-04-09T08:18:14.872Z</time></trkpt><trkpt lat="38.3383867" lon="16.28005"><ele>105.0</ele><time>2026-04-09T08:18:15.872Z</time></trkpt><trkpt lat="38.3382667" lon="16.2802733"><ele>105.0</ele><time>2026-04-09T08:18:16.872Z</time></trkpt><trkpt lat="38.3381617" lon="16.2804883"><ele>107.0</ele><time>2026-04-09T08:18:17.872Z</time></trkpt><trkpt lat="38.3380567" lon="16.2807117"><ele>109.0</ele><time>2026-04-09T08:18:18.871Z</time></trkpt><trkpt lat="38.337955" lon="16.2809333"><ele>111.0</ele><time>2026-04-09T08:18:19.871Z</time></trkpt><trkpt lat="38.3378533" lon="16.2811417"><ele>108.66666666666666</ele><time>2026-04-09T08:18:20.872Z</time></trkpt><trkpt lat="38.3377417" lon="16.2813617"><ele>106.33333333333333</ele><time>2026-04-09T08:18:21.872Z</time></trkpt><trkpt lat="38.3376383" lon="16.2815867"><ele>104.0</ele><time>2026-04-09T08:18:22.872Z</time></trkpt><trkpt lat="38.33754" lon="16.2818017"><ele>104.0</ele><time>2026-04-09T08:18:23.872Z</time></trkpt><trkpt lat="38.337445" lon="16.2820233"><ele>104.0</ele><time>2026-04-09T08:18:24.871Z</time></trkpt><trkpt lat="38.3373517" lon="16.2822383"><ele>104.0</ele><time>2026-04-09T08:18:25.871Z</time></trkpt><trkpt lat="38.33726" lon="16.28245"><ele>101.66666666666666</ele><time>2026-04-09T08:18:26.872Z</time></trkpt><trkpt lat="38.337175" lon="16.28265"><ele>99.33333333333334</ele><time>2026-04-09T08:18:27.872Z</time></trkpt><trkpt lat="38.3370883" lon="16.2828433"><ele>97.0</ele><time>2026-04-09T08:18:28.871Z</time></trkpt><trkpt lat="38.3370067" lon="16.2830367"><ele>98.0</ele><time>2026-04-09T08:18:29.871Z</time></trkpt><trkpt lat="38.3369283" lon="16.283215"><ele>99.0</ele><time>2026-04-09T08:18:30.872Z</time></trkpt><trkpt lat="38.3368467" lon="16.2833933"><ele>100.0</ele><time>2026-04-09T08:18:31.871Z</time></trkpt><trkpt lat="38.3367683" lon="16.2835733"><ele>100.0</ele><time>2026-04-09T08:18:32.871Z</time></trkpt><trkpt lat="38.3366883" lon="16.2837433"><ele>100.0</ele><time>2026-04-09T08:18:33.871Z</time></trkpt><trkpt lat="38.336615" lon="16.2839033"><ele>100.0</ele><time>2026-04-09T08:18:34.871Z</time></trkpt><trkpt lat="38.3365367" lon="16.284065"><ele>100.5</ele><time>2026-04-09T08:18:35.871Z</time></trkpt><trkpt lat="38.336455" lon="16.284225"><ele>101.0</ele><time>2026-04-09T08:18:36.871Z</time></trkpt><trkpt lat="38.33638" lon="16.28438"><ele>101.5</ele><time>2026-04-09T08:18:37.871Z</time></trkpt><trkpt lat="38.3362983" lon="16.2845333"><ele>102.0</ele><time>2026-04-09T08:18:38.871Z</time></trkpt><trkpt lat="38.3362183" lon="16.2846917"><ele>101.5</ele><time>2026-04-09T08:18:39.872Z</time></trkpt><trkpt lat="38.3361333" lon="16.284835"><ele>101.0</ele><time>2026-04-09T08:18:40.871Z</time></trkpt><trkpt lat="38.3360433" lon="16.28498"><ele>100.5</ele><time>2026-04-09T08:18:41.871Z</time></trkpt><trkpt lat="38.3359533" lon="16.2851283"><ele>100.0</ele><time>2026-04-09T08:18:42.872Z</time></trkpt><trkpt lat="38.3358533" lon="16.2852867"><ele>100.0</ele><time>2026-04-09T08:18:43.872Z</time></trkpt><trkpt lat="38.3357433" lon="16.2854333"><ele>100.0</ele><time>2026-04-09T08:18:44.872Z</time></trkpt><trkpt lat="38.3356267" lon="16.285595"><ele>100.0</ele><time>2026-04-09T08:18:45.872Z</time></trkpt><trkpt lat="38.3355033" lon="16.2857583"><ele>99.33333333333334</ele><time>2026-04-09T08:18:46.872Z</time></trkpt><trkpt lat="38.33538" lon="16.2859333"><ele>98.66666666666666</ele><time>2026-04-09T08:18:47.871Z</time></trkpt><trkpt lat="38.3352567" lon="16.2861133"><ele>98.0</ele><time>2026-04-09T08:18:48.872Z</time></trkpt><trkpt lat="38.33513" lon="16.2862883"><ele>98.66666666666666</ele><time>2026-04-09T08:18:49.871Z</time></trkpt><trkpt lat="38.3349933" lon="16.2864733"><ele>99.33333333333334</ele><time>2026-04-09T08:18:50.871Z</time></trkpt><trkpt lat="38.334855" lon="16.2866617"><ele>100.0</ele><time>2026-04-09T08:18:51.872Z</time></trkpt><trkpt lat="38.33471" lon="16.2868517"><ele>100.0</ele><time>2026-04-09T08:18:52.871Z</time></trkpt><trkpt lat="38.33456" lon="16.2870533"><ele>100.0</ele><time>2026-04-09T08:18:53.872Z</time></trkpt><trkpt lat="38.3344083" lon="16.2872483"><ele>100.0</ele><time>2026-04-09T08:18:54.871Z</time></trkpt><trkpt lat="38.33426" lon="16.28745"><ele>107.66666666666667</ele><time>2026-04-09T08:18:55.872Z</time></trkpt><trkpt lat="38.3341117" lon="16.2876483"><ele>115.33333333333334</ele><time>2026-04-09T08:18:56.872Z</time></trkpt><trkpt lat="38.3339633" lon="16.2878483"><ele>123.0</ele><time>2026-04-09T08:18:57.871Z</time></trkpt><trkpt lat="38.3338117" lon="16.2880533"><ele>110.0</ele><time>2026-04-09T08:18:58.872Z</time></trkpt><trkpt lat="38.3333117" lon="16.2887067"><ele>110.0</ele><time>2026-04-09T08:19:01.871Z</time></trkpt><trkpt lat="38.3331117" lon="16.2888967"><ele>110.0</ele><time>2026-04-09T08:19:02.871Z</time></trkpt><trkpt lat="38.3329283" lon="16.2890967"><ele>102.0</ele><time>2026-04-09T08:19:03.872Z</time></trkpt><trkpt lat="38.33274" lon="16.28929"><ele>94.0</ele><time>2026-04-09T08:19:04.872Z</time></trkpt><trkpt lat="38.3325533" lon="16.28947"><ele>94.0</ele><time>2026-04-09T08:19:05.871Z</time></trkpt><trkpt lat="38.3323667" lon="16.28963"><ele>94.0</ele><time>2026-04-09T08:19:06.871Z</time></trkpt><trkpt lat="38.3321833" lon="16.2897933"><ele>94.0</ele><time>2026-04-09T08:19:07.871Z</time></trkpt><trkpt lat="38.3319817" lon="16.2899533"><ele>90.0</ele><time>2026-04-09T08:19:08.872Z</time></trkpt><trkpt lat="38.3317867" lon="16.290105"><ele>86.0</ele><time>2026-04-09T08:19:09.872Z</time></trkpt><trkpt lat="38.331585" lon="16.2902467"><ele>83.5</ele><time>2026-04-09T08:19:10.871Z</time></trkpt><trkpt lat="38.33138" lon="16.290375"><ele>81.0</ele><time>2026-04-09T08:19:11.872Z</time></trkpt><trkpt lat="38.3311767" lon="16.29049"><ele>81.33333333333333</ele><time>2026-04-09T08:19:12.872Z</time></trkpt><trkpt lat="38.3309683" lon="16.290605"><ele>81.66666666666666</ele><time>2026-04-09T08:19:13.872Z</time></trkpt><trkpt lat="38.3307617" lon="16.290705"><ele>82.0</ele><time>2026-04-09T08:19:14.872Z</time></trkpt><trkpt lat="38.3305433" lon="16.2908017"><ele>80.0</ele><time>2026-04-09T08:19:15.871Z</time></trkpt><trkpt lat="38.33033" lon="16.290895"><ele>78.0</ele><time>2026-04-09T08:19:16.872Z</time></trkpt><trkpt lat="38.3301133" lon="16.2909733"><ele>78.0</ele><time>2026-04-09T08:19:17.871Z</time></trkpt><trkpt lat="38.3299017" lon="16.291055"><ele>78.0</ele><time>2026-04-09T08:19:18.871Z</time></trkpt><trkpt lat="38.3296883" lon="16.29113"><ele>78.0</ele><time>2026-04-09T08:19:19.872Z</time></trkpt><trkpt lat="38.32947" lon="16.2912067"><ele>77.66666666666667</ele><time>2026-04-09T08:19:20.871Z</time></trkpt><trkpt lat="38.3292567" lon="16.2912867"><ele>77.33333333333334</ele><time>2026-04-09T08:19:21.871Z</time></trkpt><trkpt lat="38.3290467" lon="16.291365"><ele>77.0</ele><time>2026-04-09T08:19:22.871Z</time></trkpt><trkpt lat="38.3288433" lon="16.2914583"><ele>77.0</ele><time>2026-04-09T08:19:23.871Z</time></trkpt><trkpt lat="38.3286233" lon="16.2915433"><ele>77.0</ele><time>2026-04-09T08:19:24.872Z</time></trkpt><trkpt lat="38.3284067" lon="16.2916367"><ele>77.0</ele><time>2026-04-09T08:19:25.872Z</time></trkpt><trkpt lat="38.3282067" lon="16.2917417"><ele>77.0</ele><time>2026-04-09T08:19:26.872Z</time></trkpt><trkpt lat="38.3280067" lon="16.291855"><ele>77.0</ele><time>2026-04-09T08:19:27.872Z</time></trkpt><trkpt lat="38.3278083" lon="16.291975"><ele>76.33333333333334</ele><time>2026-04-09T08:19:28.872Z</time></trkpt><trkpt lat="38.3276133" lon="16.2921"><ele>75.66666666666667</ele><time>2026-04-09T08:19:29.871Z</time></trkpt><trkpt lat="38.3274133" lon="16.29224"><ele>75.0</ele><time>2026-04-09T08:19:30.871Z</time></trkpt><trkpt lat="38.3272183" lon="16.2923867"><ele>75.0</ele><time>2026-04-09T08:19:31.872Z</time></trkpt><trkpt lat="38.327035" lon="16.2925333"><ele>75.0</ele><time>2026-04-09T08:19:32.872Z</time></trkpt><trkpt lat="38.3268567" lon="16.292685"><ele>75.0</ele><time>2026-04-09T08:19:33.871Z</time></trkpt><trkpt lat="38.3266767" lon="16.29285"><ele>75.0</ele><time>2026-04-09T08:19:34.871Z</time></trkpt><trkpt lat="38.3265" lon="16.293015"><ele>75.0</ele><time>2026-04-09T08:19:35.872Z</time></trkpt><trkpt lat="38.326325" lon="16.2931767"><ele>75.0</ele><time>2026-04-09T08:19:36.872Z</time></trkpt><trkpt lat="38.3261483" lon="16.2933467"><ele>73.33333333333333</ele><time>2026-04-09T08:19:37.872Z</time></trkpt><trkpt lat="38.3259667" lon="16.2935133"><ele>71.66666666666666</ele><time>2026-04-09T08:19:38.871Z</time></trkpt><trkpt lat="38.3257883" lon="16.29368"><ele>70.0</ele><time>2026-04-09T08:19:39.872Z</time></trkpt><trkpt lat="38.3256067" lon="16.2938483"><ele>70.33333333333333</ele><time>2026-04-09T08:19:40.871Z</time></trkpt><trkpt lat="38.3254233" lon="16.2940217"><ele>70.66666666666667</ele><time>2026-04-09T08:19:41.872Z</time></trkpt><trkpt lat="38.3252467" lon="16.2941867"><ele>71.0</ele><time>2026-04-09T08:19:42.872Z</time></trkpt><trkpt lat="38.32507" lon="16.2943533"><ele>71.0</ele><time>2026-04-09T08:19:43.872Z</time></trkpt><trkpt lat="38.3248917" lon="16.2945217"><ele>71.0</ele><time>2026-04-09T08:19:44.872Z</time></trkpt><trkpt lat="38.32471" lon="16.29468"><ele>71.0</ele><time>2026-04-09T08:19:45.871Z</time></trkpt><trkpt lat="38.3245267" lon="16.2948367"><ele>70.33333333333334</ele><time>2026-04-09T08:19:46.872Z</time></trkpt><trkpt lat="38.32434" lon="16.2949917"><ele>69.66666666666667</ele><time>2026-04-09T08:19:47.872Z</time></trkpt><trkpt lat="38.32415" lon="16.2951467"><ele>69.0</ele><time>2026-04-09T08:19:48.872Z</time></trkpt><trkpt lat="38.3239733" lon="16.2953017"><ele>66.5</ele><time>2026-04-09T08:19:49.871Z</time></trkpt><trkpt lat="38.3237883" lon="16.2954617"><ele>64.0</ele><time>2026-04-09T08:19:50.871Z</time></trkpt><trkpt lat="38.3235967" lon="16.29563"><ele>64.0</ele><time>2026-04-09T08:19:51.871Z</time></trkpt><trkpt lat="38.3234083" lon="16.29579"><ele>64.0</ele><time>2026-04-09T08:19:52.872Z</time></trkpt><trkpt lat="38.3232133" lon="16.2959483"><ele>64.0</ele><time>2026-04-09T08:19:53.871Z</time></trkpt><trkpt lat="38.323035" lon="16.2961067"><ele>64.0</ele><time>2026-04-09T08:19:54.871Z</time></trkpt><trkpt lat="38.3228417" lon="16.2962567"><ele>64.0</ele><time>2026-04-09T08:19:55.871Z</time></trkpt><trkpt lat="38.3226517" lon="16.2964033"><ele>63.666666666666664</ele><time>2026-04-09T08:19:56.872Z</time></trkpt><trkpt lat="38.3224683" lon="16.2965567"><ele>63.33333333333333</ele><time>2026-04-09T08:19:57.871Z</time></trkpt><trkpt lat="38.3222883" lon="16.2967033"><ele>63.0</ele><time>2026-04-09T08:19:58.871Z</time></trkpt><trkpt lat="38.3221" lon="16.296855"><ele>63.0</ele><time>2026-04-09T08:19:59.872Z</time></trkpt><trkpt lat="38.321905" lon="16.2970067"><ele>63.0</ele><time>2026-04-09T08:20:00.872Z</time></trkpt><trkpt lat="38.32171" lon="16.2971567"><ele>63.0</ele><time>2026-04-09T08:20:01.872Z</time></trkpt><trkpt lat="38.321525" lon="16.297295"><ele>63.0</ele><time>2026-04-09T08:20:02.871Z</time></trkpt><trkpt lat="38.321335" lon="16.2974417"><ele>63.0</ele><time>2026-04-09T08:20:03.871Z</time></trkpt><trkpt lat="38.321145" lon="16.2975817"><ele>62.66666666666667</ele><time>2026-04-09T08:20:04.872Z</time></trkpt><trkpt lat="38.3209583" lon="16.2977217"><ele>62.333333333333336</ele><time>2026-04-09T08:20:05.871Z</time></trkpt><trkpt lat="38.3207733" lon="16.2978567"><ele>62.0</ele><time>2026-04-09T08:20:06.872Z</time></trkpt><trkpt lat="38.3205767" lon="16.2979933"><ele>61.5</ele><time>2026-04-09T08:20:07.872Z</time></trkpt><trkpt lat="38.3203783" lon="16.2981267"><ele>61.0</ele><time>2026-04-09T08:20:08.872Z</time></trkpt><trkpt lat="38.32018" lon="16.2982717"><ele>61.0</ele><time>2026-04-09T08:20:09.872Z</time></trkpt><trkpt lat="38.3199833" lon="16.298415"><ele>61.0</ele><time>2026-04-09T08:20:10.872Z</time></trkpt><trkpt lat="38.3197867" lon="16.2985567"><ele>60.0</ele><time>2026-04-09T08:20:11.872Z</time></trkpt><trkpt lat="38.3195967" lon="16.2986983"><ele>59.0</ele><time>2026-04-09T08:20:12.871Z</time></trkpt><trkpt lat="38.319405" lon="16.298835"><ele>58.0</ele><time>2026-04-09T08:20:13.871Z</time></trkpt><trkpt lat="38.3192083" lon="16.298965"><ele>58.0</ele><time>2026-04-09T08:20:14.871Z</time></trkpt><trkpt lat="38.319015" lon="16.29909"><ele>58.0</ele><time>2026-04-09T08:20:15.872Z</time></trkpt><trkpt lat="38.318825" lon="16.29922"><ele>58.0</ele><time>2026-04-09T08:20:16.872Z</time></trkpt><trkpt lat="38.3186317" lon="16.2993483"><ele>58.0</ele><time>2026-04-09T08:20:17.872Z</time></trkpt><trkpt lat="38.31844" lon="16.2994767"><ele>58.0</ele><time>2026-04-09T08:20:18.871Z</time></trkpt><trkpt lat="38.3182383" lon="16.2996017"><ele>58.0</ele><time>2026-04-09T08:20:19.871Z</time></trkpt><trkpt lat="38.318045" lon="16.2997233"><ele>56.33333333333333</ele><time>2026-04-09T08:20:20.872Z</time></trkpt><trkpt lat="38.3178483" lon="16.2998567"><ele>54.66666666666667</ele><time>2026-04-09T08:20:21.871Z</time></trkpt><trkpt lat="38.31765" lon="16.29999"><ele>53.0</ele><time>2026-04-09T08:20:22.871Z</time></trkpt><trkpt lat="38.3174433" lon="16.30012"><ele>53.0</ele><time>2026-04-09T08:20:23.872Z</time></trkpt><trkpt lat="38.3172417" lon="16.3002483"><ele>53.0</ele><time>2026-04-09T08:20:24.872Z</time></trkpt><trkpt lat="38.3170367" lon="16.3003783"><ele>52.66666666666667</ele><time>2026-04-09T08:20:25.871Z</time></trkpt><trkpt lat="38.3168417" lon="16.3005"><ele>52.33333333333333</ele><time>2026-04-09T08:20:26.872Z</time></trkpt><trkpt lat="38.31664" lon="16.300625"><ele>52.0</ele><time>2026-04-09T08:20:27.872Z</time></trkpt><trkpt lat="38.3164383" lon="16.3007483"><ele>51.666666666666664</ele><time>2026-04-09T08:20:28.871Z</time></trkpt><trkpt lat="38.3162383" lon="16.30087"><ele>51.33333333333333</ele><time>2026-04-09T08:20:29.872Z</time></trkpt><trkpt lat="38.316035" lon="16.3009917"><ele>51.0</ele><time>2026-04-09T08:20:30.871Z</time></trkpt><trkpt lat="38.315835" lon="16.301115"><ele>51.0</ele><time>2026-04-09T08:20:31.872Z</time></trkpt><trkpt lat="38.3156267" lon="16.3012417"><ele>51.0</ele><time>2026-04-09T08:20:32.872Z</time></trkpt><trkpt lat="38.3154167" lon="16.30137"><ele>50.33333333333333</ele><time>2026-04-09T08:20:33.871Z</time></trkpt><trkpt lat="38.3152117" lon="16.3014883"><ele>49.666666666666664</ele><time>2026-04-09T08:20:34.872Z</time></trkpt><trkpt lat="38.315015" lon="16.3016117"><ele>49.0</ele><time>2026-04-09T08:20:35.871Z</time></trkpt><trkpt lat="38.3148133" lon="16.3017467"><ele>48.33333333333333</ele><time>2026-04-09T08:20:36.871Z</time></trkpt><trkpt lat="38.31462" lon="16.3018583"><ele>47.666666666666664</ele><time>2026-04-09T08:20:37.871Z</time></trkpt><trkpt lat="38.3144267" lon="16.30197"><ele>47.0</ele><time>2026-04-09T08:20:38.871Z</time></trkpt><trkpt lat="38.3142233" lon="16.30208"><ele>47.0</ele><time>2026-04-09T08:20:39.872Z</time></trkpt><trkpt lat="38.314035" lon="16.3021933"><ele>47.0</ele><time>2026-04-09T08:20:40.872Z</time></trkpt><trkpt lat="38.3138417" lon="16.3023"><ele>47.0</ele><time>2026-04-09T08:20:41.871Z</time></trkpt><trkpt lat="38.31365" lon="16.30241"><ele>47.0</ele><time>2026-04-09T08:20:42.872Z</time></trkpt><trkpt lat="38.3134483" lon="16.3025233"><ele>47.0</ele><time>2026-04-09T08:20:43.872Z</time></trkpt><trkpt lat="38.3132567" lon="16.302625"><ele>47.0</ele><time>2026-04-09T08:20:44.872Z</time></trkpt><trkpt lat="38.3130733" lon="16.3027267"><ele>46.666666666666664</ele><time>2026-04-09T08:20:45.872Z</time></trkpt><trkpt lat="38.31289" lon="16.3028283"><ele>46.333333333333336</ele><time>2026-04-09T08:20:46.871Z</time></trkpt><trkpt lat="38.31271" lon="16.302925"><ele>46.0</ele><time>2026-04-09T08:20:47.871Z</time></trkpt><trkpt lat="38.31254" lon="16.3030083"><ele>46.0</ele><time>2026-04-09T08:20:48.872Z</time></trkpt><trkpt lat="38.3123883" lon="16.3030783"><ele>46.0</ele><time>2026-04-09T08:20:49.871Z</time></trkpt><trkpt lat="38.3122383" lon="16.3031217"><ele>46.0</ele><time>2026-04-09T08:20:50.871Z</time></trkpt><trkpt lat="38.3120917" lon="16.3031483"><ele>46.5</ele><time>2026-04-09T08:20:51.871Z</time></trkpt><trkpt lat="38.31195" lon="16.3031467"><ele>47.0</ele><time>2026-04-09T08:20:52.872Z</time></trkpt><trkpt lat="38.3118133" lon="16.3031133"><ele>47.5</ele><time>2026-04-09T08:20:53.872Z</time></trkpt><trkpt lat="38.31167" lon="16.3030433"><ele>48.0</ele><time>2026-04-09T08:20:54.871Z</time></trkpt><trkpt lat="38.31155" lon="16.3029317"><ele>47.0</ele><time>2026-04-09T08:20:55.871Z</time></trkpt><trkpt lat="38.3114317" lon="16.3028317"><ele>46.0</ele><time>2026-04-09T08:20:56.871Z</time></trkpt><trkpt lat="38.3113267" lon="16.30275"><ele>45.0</ele><time>2026-04-09T08:20:57.871Z</time></trkpt><trkpt lat="38.3111983" lon="16.3027017"><ele>44.0</ele><time>2026-04-09T08:20:58.871Z</time></trkpt><trkpt lat="38.311065" lon="16.3026867"><ele>44.0</ele><time>2026-04-09T08:20:59.872Z</time></trkpt><trkpt lat="38.310945" lon="16.3027433"><ele>44.0</ele><time>2026-04-09T08:21:00.871Z</time></trkpt><trkpt lat="38.310845" lon="16.3028617"><ele>44.0</ele><time>2026-04-09T08:21:01.871Z</time></trkpt><trkpt lat="38.3107833" lon="16.3030017"><ele>44.0</ele><time>2026-04-09T08:21:02.872Z</time></trkpt><trkpt lat="38.3107633" lon="16.3031883"><ele>44.0</ele><time>2026-04-09T08:21:03.871Z</time></trkpt><trkpt lat="38.3107833" lon="16.3033733"><ele>44.0</ele><time>2026-04-09T08:21:04.872Z</time></trkpt><trkpt lat="38.3108367" lon="16.30356"><ele>44.0</ele><time>2026-04-09T08:21:05.872Z</time></trkpt><trkpt lat="38.3108967" lon="16.3037417"><ele>44.0</ele><time>2026-04-09T08:21:06.872Z</time></trkpt><trkpt lat="38.3109517" lon="16.3039067"><ele>44.0</ele><time>2026-04-09T08:21:07.871Z</time></trkpt><trkpt lat="38.31101" lon="16.3040783"><ele>44.0</ele><time>2026-04-09T08:21:08.872Z</time></trkpt><trkpt lat="38.3110433" lon="16.3042533"><ele>44.0</ele><time>2026-04-09T08:21:09.871Z</time></trkpt><trkpt lat="38.311065" lon="16.3044183"><ele>44.0</ele><time>2026-04-09T08:21:10.871Z</time></trkpt><trkpt lat="38.311055" lon="16.304565"><ele>44.0</ele><time>2026-04-09T08:21:11.871Z</time></trkpt><trkpt lat="38.31101" lon="16.3047067"><ele>44.0</ele><time>2026-04-09T08:21:12.871Z</time></trkpt><trkpt lat="38.3109367" lon="16.3048317"><ele>44.0</ele><time>2026-04-09T08:21:13.872Z</time></trkpt><trkpt lat="38.3108417" lon="16.3049367"><ele>43.400000000000006</ele><time>2026-04-09T08:21:14.871Z</time></trkpt><trkpt lat="38.310745" lon="16.3050067"><ele>42.8</ele><time>2026-04-09T08:21:15.872Z</time></trkpt><trkpt lat="38.31064" lon="16.305055"><ele>42.2</ele><time>2026-04-09T08:21:16.872Z</time></trkpt><trkpt lat="38.3105333" lon="16.3050633"><ele>41.599999999999994</ele><time>2026-04-09T08:21:17.872Z</time></trkpt><trkpt lat="38.3104317" lon="16.3050367"><ele>41.0</ele><time>2026-04-09T08:21:18.872Z</time></trkpt><trkpt lat="38.3103283" lon="16.305005"><ele>41.0</ele><time>2026-04-09T08:21:19.872Z</time></trkpt><trkpt lat="38.310235" lon="16.3049633"><ele>41.0</ele><time>2026-04-09T08:21:20.872Z</time></trkpt><trkpt lat="38.310155" lon="16.3049183"><ele>41.0</ele><time>2026-04-09T08:21:21.871Z</time></trkpt><trkpt lat="38.3100917" lon="16.3048667"><ele>41.0</ele><time>2026-04-09T08:21:22.871Z</time></trkpt><trkpt lat="38.3100267" lon="16.3048133"><ele>41.0</ele><time>2026-04-09T08:21:23.871Z</time></trkpt><trkpt lat="38.30995" lon="16.304785"><ele>41.0</ele><time>2026-04-09T08:21:24.872Z</time></trkpt><trkpt lat="38.3098567" lon="16.3047767"><ele>41.0</ele><time>2026-04-09T08:21:25.872Z</time></trkpt><trkpt lat="38.30977" lon="16.3047917"><ele>41.0</ele><time>2026-04-09T08:21:26.871Z</time></trkpt><trkpt lat="38.3096667" lon="16.3048233"><ele>41.0</ele><time>2026-04-09T08:21:27.871Z</time></trkpt><trkpt lat="38.30956" lon="16.3048733"><ele>41.0</ele><time>2026-04-09T08:21:28.872Z</time></trkpt><trkpt lat="38.30945" lon="16.3049233"><ele>41.0</ele><time>2026-04-09T08:21:29.872Z</time></trkpt><trkpt lat="38.3093233" lon="16.304985"><ele>41.0</ele><time>2026-04-09T08:21:30.872Z</time></trkpt><trkpt lat="38.3091933" lon="16.3050433"><ele>41.0</ele><time>2026-04-09T08:21:31.872Z</time></trkpt><trkpt lat="38.3090483" lon="16.3051083"><ele>41.0</ele><time>2026-04-09T08:21:32.872Z</time></trkpt><trkpt lat="38.308895" lon="16.3051767"><ele>40.5</ele><time>2026-04-09T08:21:33.871Z</time></trkpt><trkpt lat="38.308755" lon="16.3052433"><ele>40.0</ele><time>2026-04-09T08:21:34.872Z</time></trkpt><trkpt lat="38.3086267" lon="16.3053267"><ele>39.5</ele><time>2026-04-09T08:21:35.871Z</time></trkpt><trkpt lat="38.3085317" lon="16.30544"><ele>39.0</ele><time>2026-04-09T08:21:36.871Z</time></trkpt><trkpt lat="38.3084783" lon="16.3056"><ele>38.5</ele><time>2026-04-09T08:21:37.871Z</time></trkpt><trkpt lat="38.30848" lon="16.3057783"><ele>38.0</ele><time>2026-04-09T08:21:38.872Z</time></trkpt><trkpt lat="38.3085133" lon="16.3059367"><ele>37.5</ele><time>2026-04-09T08:21:39.871Z</time></trkpt><trkpt lat="38.3085817" lon="16.30608"><ele>37.0</ele><time>2026-04-09T08:21:40.872Z</time></trkpt><trkpt lat="38.3086733" lon="16.3061967"><ele>37.0</ele><time>2026-04-09T08:21:41.871Z</time></trkpt><trkpt lat="38.30879" lon="16.3062633"><ele>37.0</ele><time>2026-04-09T08:21:42.872Z</time></trkpt><trkpt lat="38.3088967" lon="16.30629"><ele>37.0</ele><time>2026-04-09T08:21:43.872Z</time></trkpt><trkpt lat="38.30901" lon="16.306285"><ele>37.0</ele><time>2026-04-09T08:21:44.871Z</time></trkpt><trkpt lat="38.3091183" lon="16.3062583"><ele>37.25</ele><time>2026-04-09T08:21:45.872Z</time></trkpt><trkpt lat="38.3092333" lon="16.3062317"><ele>37.5</ele><time>2026-04-09T08:21:46.872Z</time></trkpt><trkpt lat="38.3093467" lon="16.3061933"><ele>37.75</ele><time>2026-04-09T08:21:47.872Z</time></trkpt><trkpt lat="38.309465" lon="16.306185"><ele>38.0</ele><time>2026-04-09T08:21:48.871Z</time></trkpt><trkpt lat="38.3095817" lon="16.3061967"><ele>38.0</ele><time>2026-04-09T08:21:49.872Z</time></trkpt><trkpt lat="38.3096933" lon="16.3062717"><ele>38.0</ele><time>2026-04-09T08:21:50.872Z</time></trkpt><trkpt lat="38.309795" lon="16.30638"><ele>38.0</ele><time>2026-04-09T08:21:51.872Z</time></trkpt><trkpt lat="38.3098867" lon="16.30651"><ele>38.0</ele><time>2026-04-09T08:21:52.871Z</time></trkpt><trkpt lat="38.3099733" lon="16.306655"><ele>37.33333333333333</ele><time>2026-04-09T08:21:53.871Z</time></trkpt><trkpt lat="38.3100583" lon="16.3068183"><ele>36.666666666666664</ele><time>2026-04-09T08:21:54.872Z</time></trkpt><trkpt lat="38.3101483" lon="16.3069967"><ele>36.0</ele><time>2026-04-09T08:21:55.871Z</time></trkpt><trkpt lat="38.3102567" lon="16.3071717"><ele>36.0</ele><time>2026-04-09T08:21:56.872Z</time></trkpt><trkpt lat="38.3103717" lon="16.3073633"><ele>36.0</ele><time>2026-04-09T08:21:57.872Z</time></trkpt><trkpt lat="38.3104933" lon="16.3075733"><ele>36.0</ele><time>2026-04-09T08:21:58.872Z</time></trkpt><trkpt lat="38.310625" lon="16.3077917"><ele>36.5</ele><time>2026-04-09T08:21:59.872Z</time></trkpt><trkpt lat="38.31076" lon="16.30803"><ele>37.0</ele><time>2026-04-09T08:22:00.872Z</time></trkpt><trkpt lat="38.310905" lon="16.3082767"><ele>37.0</ele><time>2026-04-09T08:22:01.872Z</time></trkpt><trkpt lat="38.31105" lon="16.3085217"><ele>37.0</ele><time>2026-04-09T08:22:02.871Z</time></trkpt><trkpt lat="38.31119" lon="16.3087717"><ele>36.5</ele><time>2026-04-09T08:22:03.872Z</time></trkpt><trkpt lat="38.3113317" lon="16.3090217"><ele>36.0</ele><time>2026-04-09T08:22:04.872Z</time></trkpt><trkpt lat="38.3114667" lon="16.30927"><ele>37.0</ele><time>2026-04-09T08:22:05.871Z</time></trkpt><trkpt lat="38.31161" lon="16.3095117"><ele>38.0</ele><time>2026-04-09T08:22:06.871Z</time></trkpt><trkpt lat="38.311755" lon="16.3097533"><ele>38.0</ele><time>2026-04-09T08:22:07.871Z</time></trkpt><trkpt lat="38.3119033" lon="16.31"><ele>38.0</ele><time>2026-04-09T08:22:08.871Z</time></trkpt><trkpt lat="38.31205" lon="16.31025"><ele>38.0</ele><time>2026-04-09T08:22:09.872Z</time></trkpt><trkpt lat="38.3121917" lon="16.3105033"><ele>38.0</ele><time>2026-04-09T08:22:10.871Z</time></trkpt><trkpt lat="38.3123367" lon="16.3107483"><ele>38.0</ele><time>2026-04-09T08:22:11.872Z</time></trkpt><trkpt lat="38.312485" lon="16.311"><ele>38.0</ele><time>2026-04-09T08:22:12.872Z</time></trkpt><trkpt lat="38.312625" lon="16.3112467"><ele>37.5</ele><time>2026-04-09T08:22:13.872Z</time></trkpt><trkpt lat="38.3127667" lon="16.3114883"><ele>37.0</ele><time>2026-04-09T08:22:14.872Z</time></trkpt><trkpt lat="38.3129017" lon="16.3117333"><ele>37.0</ele><time>2026-04-09T08:22:15.871Z</time></trkpt><trkpt lat="38.3130383" lon="16.31197"><ele>37.0</ele><time>2026-04-09T08:22:16.872Z</time></trkpt><trkpt lat="38.31317" lon="16.312205"><ele>37.5</ele><time>2026-04-09T08:22:17.872Z</time></trkpt><trkpt lat="38.3133183" lon="16.312445"><ele>38.0</ele><time>2026-04-09T08:22:18.871Z</time></trkpt><trkpt lat="38.31346" lon="16.3126867"><ele>38.0</ele><time>2026-04-09T08:22:19.871Z</time></trkpt><trkpt lat="38.3135883" lon="16.3129383"><ele>38.0</ele><time>2026-04-09T08:22:20.871Z</time></trkpt><trkpt lat="38.313715" lon="16.3131917"><ele>38.0</ele><time>2026-04-09T08:22:21.871Z</time></trkpt><trkpt lat="38.3138317" lon="16.3134583"><ele>38.0</ele><time>2026-04-09T08:22:22.872Z</time></trkpt><trkpt lat="38.313945" lon="16.3137333"><ele>41.5</ele><time>2026-04-09T08:22:23.871Z</time></trkpt><trkpt lat="38.3140533" lon="16.314015"><ele>45.0</ele><time>2026-04-09T08:22:24.872Z</time></trkpt><trkpt lat="38.3141567" lon="16.31431"><ele>45.0</ele><time>2026-04-09T08:22:25.872Z</time></trkpt><trkpt lat="38.3142483" lon="16.3146083"><ele>45.0</ele><time>2026-04-09T08:22:26.872Z</time></trkpt><trkpt lat="38.314335" lon="16.314915"><ele>51.0</ele><time>2026-04-09T08:22:27.872Z</time></trkpt><trkpt lat="38.3144133" lon="16.3152233"><ele>57.0</ele><time>2026-04-09T08:22:28.871Z</time></trkpt><trkpt lat="38.3144933" lon="16.3155267"><ele>66.0</ele><time>2026-04-09T08:22:29.872Z</time></trkpt><trkpt lat="38.3145683" lon="16.31583"><ele>75.0</ele><time>2026-04-09T08:22:30.872Z</time></trkpt><trkpt lat="38.3146433" lon="16.3161333"><ele>76.5</ele><time>2026-04-09T08:22:31.872Z</time></trkpt><trkpt lat="38.3147183" lon="16.3164367"><ele>78.0</ele><time>2026-04-09T08:22:32.872Z</time></trkpt><trkpt lat="38.3140967" lon="16.3209317"><ele>63.5</ele><time>2026-04-09T08:22:46.872Z</time></trkpt><trkpt lat="38.3140533" lon="16.3212383"><ele>49.0</ele><time>2026-04-09T08:22:47.873Z</time></trkpt><trkpt lat="38.31402" lon="16.321565"><ele>48.0</ele><time>2026-04-09T08:22:48.872Z</time></trkpt><trkpt lat="38.31399" lon="16.32189"><ele>47.0</ele><time>2026-04-09T08:22:49.872Z</time></trkpt><trkpt lat="38.3139517" lon="16.3222083"><ele>46.5</ele><time>2026-04-09T08:22:50.873Z</time></trkpt><trkpt lat="38.3139117" lon="16.3225267"><ele>46.0</ele><time>2026-04-09T08:22:51.872Z</time></trkpt><trkpt lat="38.3138683" lon="16.3228433"><ele>52.0</ele><time>2026-04-09T08:22:52.872Z</time></trkpt><trkpt lat="38.3138233" lon="16.3231617"><ele>58.0</ele><time>2026-04-09T08:22:53.873Z</time></trkpt><trkpt lat="38.3137767" lon="16.3234733"><ele>58.0</ele><time>2026-04-09T08:22:54.873Z</time></trkpt><trkpt lat="38.3137333" lon="16.32378"><ele>58.0</ele><time>2026-04-09T08:22:55.872Z</time></trkpt><trkpt lat="38.3136933" lon="16.32408"><ele>60.0</ele><time>2026-04-09T08:22:56.873Z</time></trkpt><trkpt lat="38.3136567" lon="16.3243933"><ele>62.0</ele><time>2026-04-09T08:22:57.872Z</time></trkpt><trkpt lat="38.3135967" lon="16.3247283"><ele>55.5</ele><time>2026-04-09T08:22:58.873Z</time></trkpt><trkpt lat="38.313555" lon="16.3250183"><ele>49.0</ele><time>2026-04-09T08:22:59.873Z</time></trkpt><trkpt lat="38.3135267" lon="16.3253683"><ele>50.0</ele><time>2026-04-09T08:23:00.872Z</time></trkpt><trkpt lat="38.31348" lon="16.3257033"><ele>51.0</ele><time>2026-04-09T08:23:01.873Z</time></trkpt><trkpt lat="38.3134333" lon="16.32603"><ele>51.0</ele><time>2026-04-09T08:23:02.873Z</time></trkpt><trkpt lat="38.3133917" lon="16.3263667"><ele>51.0</ele><time>2026-04-09T08:23:03.872Z</time></trkpt><trkpt lat="38.31335" lon="16.3266967"><ele>56.5</ele><time>2026-04-09T08:23:04.873Z</time></trkpt><trkpt lat="38.3133033" lon="16.32702"><ele>62.0</ele><time>2026-04-09T08:23:05.872Z</time></trkpt><trkpt lat="38.3132517" lon="16.327335"><ele>33.0</ele><time>2026-04-09T08:23:06.872Z</time></trkpt><trkpt lat="38.31261" lon="16.3316583"><ele>33.0</ele><time>2026-04-09T08:23:19.873Z</time></trkpt><trkpt lat="38.3125667" lon="16.3319933"><ele>33.0</ele><time>2026-04-09T08:23:20.873Z</time></trkpt><trkpt lat="38.3125467" lon="16.33232"><ele>31.5</ele><time>2026-04-09T08:23:21.873Z</time></trkpt><trkpt lat="38.3125317" lon="16.3326483"><ele>30.0</ele><time>2026-04-09T08:23:22.872Z</time></trkpt><trkpt lat="38.31251" lon="16.332975"><ele>28.5</ele><time>2026-04-09T08:23:23.873Z</time></trkpt><trkpt lat="38.3125" lon="16.333295"><ele>27.0</ele><time>2026-04-09T08:23:24.873Z</time></trkpt><trkpt lat="38.3124867" lon="16.3336267"><ele>26.5</ele><time>2026-04-09T08:23:25.872Z</time></trkpt><trkpt lat="38.3124667" lon="16.3339517"><ele>26.0</ele><time>2026-04-09T08:23:26.873Z</time></trkpt><trkpt lat="38.312455" lon="16.3342867"><ele>26.0</ele><time>2026-04-09T08:23:27.872Z</time></trkpt><trkpt lat="38.3124383" lon="16.3346217"><ele>26.0</ele><time>2026-04-09T08:23:28.873Z</time></trkpt><trkpt lat="38.312425" lon="16.3349583"><ele>25.5</ele><time>2026-04-09T08:23:29.872Z</time></trkpt><trkpt lat="38.31241" lon="16.3352917"><ele>25.0</ele><time>2026-04-09T08:23:30.873Z</time></trkpt><trkpt lat="38.3123983" lon="16.3356267"><ele>23.5</ele><time>2026-04-09T08:23:31.872Z</time></trkpt><trkpt lat="38.3123817" lon="16.3359633"><ele>22.0</ele><time>2026-04-09T08:23:32.873Z</time></trkpt><trkpt lat="38.312365" lon="16.3362983"><ele>22.0</ele><time>2026-04-09T08:23:33.873Z</time></trkpt><trkpt lat="38.3123467" lon="16.336635"><ele>22.0</ele><time>2026-04-09T08:23:34.873Z</time></trkpt><trkpt lat="38.3123267" lon="16.336975"><ele>22.5</ele><time>2026-04-09T08:23:35.873Z</time></trkpt><trkpt lat="38.3123133" lon="16.3373083"><ele>23.0</ele><time>2026-04-09T08:23:36.872Z</time></trkpt><trkpt lat="38.3123033" lon="16.3376367"><ele>23.0</ele><time>2026-04-09T08:23:37.872Z</time></trkpt><trkpt lat="38.3122917" lon="16.3379633"><ele>23.0</ele><time>2026-04-09T08:23:38.872Z</time></trkpt><trkpt lat="38.3122733" lon="16.3383"><ele>22.5</ele><time>2026-04-09T08:23:39.873Z</time></trkpt><trkpt lat="38.312265" lon="16.33862"><ele>22.0</ele><time>2026-04-09T08:23:40.872Z</time></trkpt><trkpt lat="38.3122567" lon="16.338945"><ele>22.0</ele><time>2026-04-09T08:23:41.872Z</time></trkpt><trkpt lat="38.31224" lon="16.3392817"><ele>22.0</ele><time>2026-04-09T08:23:42.872Z</time></trkpt><trkpt lat="38.3122217" lon="16.3396183"><ele>21.0</ele><time>2026-04-09T08:23:43.873Z</time></trkpt><trkpt lat="38.3121967" lon="16.3399483"><ele>20.0</ele><time>2026-04-09T08:23:44.872Z</time></trkpt><trkpt lat="38.3121767" lon="16.3402783"><ele>20.0</ele><time>2026-04-09T08:23:45.873Z</time></trkpt><trkpt lat="38.3121483" lon="16.3406067"><ele>20.0</ele><time>2026-04-09T08:23:46.873Z</time></trkpt><trkpt lat="38.3121117" lon="16.3409433"><ele>20.0</ele><time>2026-04-09T08:23:47.873Z</time></trkpt><trkpt lat="38.31207" lon="16.3412683"><ele>20.0</ele><time>2026-04-09T08:23:48.873Z</time></trkpt><trkpt lat="38.31202" lon="16.3415883"><ele>20.5</ele><time>2026-04-09T08:23:49.872Z</time></trkpt><trkpt lat="38.3119617" lon="16.3419117"><ele>21.0</ele><time>2026-04-09T08:23:50.872Z</time></trkpt><trkpt lat="38.3118933" lon="16.342235"><ele>22.5</ele><time>2026-04-09T08:23:51.873Z</time></trkpt><trkpt lat="38.3118283" lon="16.3425583"><ele>24.0</ele><time>2026-04-09T08:23:52.873Z</time></trkpt><trkpt lat="38.3117633" lon="16.3428817"><ele>26.0</ele><time>2026-04-09T08:23:53.873Z</time></trkpt><trkpt lat="38.311685" lon="16.3432"><ele>28.0</ele><time>2026-04-09T08:23:54.872Z</time></trkpt><trkpt lat="38.3116133" lon="16.3435267"><ele>28.0</ele><time>2026-04-09T08:23:55.873Z</time></trkpt><trkpt lat="38.31152" lon="16.3438483"><ele>28.0</ele><time>2026-04-09T08:23:56.872Z</time></trkpt><trkpt lat="38.3114283" lon="16.3441667"><ele>31.5</ele><time>2026-04-09T08:23:57.872Z</time></trkpt><trkpt lat="38.3113383" lon="16.344485"><ele>35.0</ele><time>2026-04-09T08:23:58.873Z</time></trkpt><trkpt lat="38.31125" lon="16.3448067"><ele>35.0</ele><time>2026-04-09T08:23:59.873Z</time></trkpt><trkpt lat="38.3111667" lon="16.345145"><ele>35.0</ele><time>2026-04-09T08:24:00.873Z</time></trkpt><trkpt lat="38.3110683" lon="16.3455267"><ele>32.0</ele><time>2026-04-09T08:24:01.873Z</time></trkpt><trkpt lat="38.3110533" lon="16.3458467"><ele>29.0</ele><time>2026-04-09T08:24:02.873Z</time></trkpt><trkpt lat="38.31095" lon="16.34615"><ele>26.5</ele><time>2026-04-09T08:24:03.873Z</time></trkpt><trkpt lat="38.3108633" lon="16.3464117"><ele>24.0</ele><time>2026-04-09T08:24:04.872Z</time></trkpt><trkpt lat="38.3107733" lon="16.3467083"><ele>24.0</ele><time>2026-04-09T08:24:05.872Z</time></trkpt><trkpt lat="38.31068" lon="16.3470083"><ele>24.0</ele><time>2026-04-09T08:24:06.873Z</time></trkpt><trkpt lat="38.3105883" lon="16.3473133"><ele>22.5</ele><time>2026-04-09T08:24:07.873Z</time></trkpt><trkpt lat="38.3104967" lon="16.3476233"><ele>21.0</ele><time>2026-04-09T08:24:08.873Z</time></trkpt><trkpt lat="38.310415" lon="16.34794"><ele>21.5</ele><time>2026-04-09T08:24:09.873Z</time></trkpt><trkpt lat="38.3103467" lon="16.3482667"><ele>22.0</ele><time>2026-04-09T08:24:10.872Z</time></trkpt><trkpt lat="38.3102817" lon="16.348595"><ele>21.5</ele><time>2026-04-09T08:24:11.872Z</time></trkpt><trkpt lat="38.31023" lon="16.3489233"><ele>21.0</ele><time>2026-04-09T08:24:12.872Z</time></trkpt><trkpt lat="38.310185" lon="16.3492417"><ele>21.0</ele><time>2026-04-09T08:24:13.873Z</time></trkpt><trkpt lat="38.3101517" lon="16.34957"><ele>21.0</ele><time>2026-04-09T08:24:14.872Z</time></trkpt><trkpt lat="38.310125" lon="16.3499017"><ele>20.0</ele><time>2026-04-09T08:24:15.873Z</time></trkpt><trkpt lat="38.3101117" lon="16.350235"><ele>19.0</ele><time>2026-04-09T08:24:16.873Z</time></trkpt><trkpt lat="38.3101083" lon="16.3505717"><ele>17.5</ele><time>2026-04-09T08:24:17.872Z</time></trkpt><trkpt lat="38.3101167" lon="16.350905"><ele>16.0</ele><time>2026-04-09T08:24:18.873Z</time></trkpt><trkpt lat="38.310135" lon="16.35124"><ele>16.5</ele><time>2026-04-09T08:24:19.872Z</time></trkpt><trkpt lat="38.31016" lon="16.35157"><ele>17.0</ele><time>2026-04-09T08:24:20.872Z</time></trkpt><trkpt lat="38.3101867" lon="16.3518983"><ele>17.0</ele><time>2026-04-09T08:24:21.873Z</time></trkpt><trkpt lat="38.3102133" lon="16.3522383"><ele>17.0</ele><time>2026-04-09T08:24:22.873Z</time></trkpt><trkpt lat="38.3102383" lon="16.3525767"><ele>17.0</ele><time>2026-04-09T08:24:23.872Z</time></trkpt><trkpt lat="38.31027" lon="16.3529117"><ele>17.0</ele><time>2026-04-09T08:24:24.872Z</time></trkpt><trkpt lat="38.3103" lon="16.3532467"><ele>16.5</ele><time>2026-04-09T08:24:25.872Z</time></trkpt><trkpt lat="38.310335" lon="16.3535917"><ele>16.0</ele><time>2026-04-09T08:24:26.872Z</time></trkpt><trkpt lat="38.31035" lon="16.353915"><ele>15.0</ele><time>2026-04-09T08:24:27.873Z</time></trkpt><trkpt lat="38.3103767" lon="16.3542483"><ele>14.0</ele><time>2026-04-09T08:24:28.873Z</time></trkpt><trkpt lat="38.310405" lon="16.3545867"><ele>15.0</ele><time>2026-04-09T08:24:29.873Z</time></trkpt><trkpt lat="38.310435" lon="16.3549083"><ele>16.0</ele><time>2026-04-09T08:24:30.872Z</time></trkpt><trkpt lat="38.3104667" lon="16.3552333"><ele>16.0</ele><time>2026-04-09T08:24:31.873Z</time></trkpt><trkpt lat="38.3105133" lon="16.3558983"><ele>16.0</ele><time>2026-04-09T08:24:33.872Z</time></trkpt><trkpt lat="38.3105433" lon="16.35623"><ele>16.0</ele><time>2026-04-09T08:24:34.873Z</time></trkpt><trkpt lat="38.3105667" lon="16.3565567"><ele>16.5</ele><time>2026-04-09T08:24:35.872Z</time></trkpt><trkpt lat="38.3105933" lon="16.35689"><ele>17.0</ele><time>2026-04-09T08:24:36.873Z</time></trkpt><trkpt lat="38.3106183" lon="16.3572183"><ele>18.0</ele><time>2026-04-09T08:24:37.873Z</time></trkpt><trkpt lat="38.31065" lon="16.3575483"><ele>19.0</ele><time>2026-04-09T08:24:38.873Z</time></trkpt><trkpt lat="38.3106833" lon="16.3578833"><ele>19.5</ele><time>2026-04-09T08:24:39.873Z</time></trkpt><trkpt lat="38.3107133" lon="16.3582067"><ele>20.0</ele><time>2026-04-09T08:24:40.873Z</time></trkpt><trkpt lat="38.3107383" lon="16.3585333"><ele>20.0</ele><time>2026-04-09T08:24:41.873Z</time></trkpt><trkpt lat="38.3107617" lon="16.358865"><ele>20.0</ele><time>2026-04-09T08:24:42.872Z</time></trkpt><trkpt lat="38.3107783" lon="16.3591967"><ele>20.0</ele><time>2026-04-09T08:24:43.873Z</time></trkpt><trkpt lat="38.3107983" lon="16.3595267"><ele>20.0</ele><time>2026-04-09T08:24:44.873Z</time></trkpt><trkpt lat="38.31082" lon="16.35986"><ele>20.0</ele><time>2026-04-09T08:24:45.873Z</time></trkpt><trkpt lat="38.3108533" lon="16.36019"><ele>20.0</ele><time>2026-04-09T08:24:46.873Z</time></trkpt><trkpt lat="38.3108867" lon="16.3605183"><ele>19.5</ele><time>2026-04-09T08:24:47.873Z</time></trkpt><trkpt lat="38.31093" lon="16.3608383"><ele>19.0</ele><time>2026-04-09T08:24:48.872Z</time></trkpt><trkpt lat="38.3109883" lon="16.36115"><ele>17.5</ele><time>2026-04-09T08:24:49.872Z</time></trkpt><trkpt lat="38.3110533" lon="16.361455"><ele>16.0</ele><time>2026-04-09T08:24:50.872Z</time></trkpt><trkpt lat="38.3111283" lon="16.36175"><ele>16.0</ele><time>2026-04-09T08:24:51.873Z</time></trkpt><trkpt lat="38.311205" lon="16.3620367"><ele>16.0</ele><time>2026-04-09T08:24:52.873Z</time></trkpt><trkpt lat="38.311305" lon="16.3623183"><ele>18.5</ele><time>2026-04-09T08:24:53.872Z</time></trkpt><trkpt lat="38.3114083" lon="16.3625917"><ele>21.0</ele><time>2026-04-09T08:24:54.873Z</time></trkpt><trkpt lat="38.3115333" lon="16.3628533"><ele>19.0</ele><time>2026-04-09T08:24:55.873Z</time></trkpt><trkpt lat="38.3116567" lon="16.363115"><ele>17.0</ele><time>2026-04-09T08:24:56.872Z</time></trkpt><trkpt lat="38.3117917" lon="16.363375"><ele>17.0</ele><time>2026-04-09T08:24:57.872Z</time></trkpt><trkpt lat="38.3119317" lon="16.3636367"><ele>17.0</ele><time>2026-04-09T08:24:58.872Z</time></trkpt><trkpt lat="38.3120733" lon="16.3639117"><ele>16.5</ele><time>2026-04-09T08:24:59.873Z</time></trkpt><trkpt lat="38.31221" lon="16.3641867"><ele>16.0</ele><time>2026-04-09T08:25:00.873Z</time></trkpt><trkpt lat="38.3123517" lon="16.3644633"><ele>15.5</ele><time>2026-04-09T08:25:01.872Z</time></trkpt><trkpt lat="38.3124917" lon="16.3647483"><ele>15.0</ele><time>2026-04-09T08:25:02.872Z</time></trkpt><trkpt lat="38.3126217" lon="16.36503"><ele>15.0</ele><time>2026-04-09T08:25:03.873Z</time></trkpt><trkpt lat="38.3127517" lon="16.36531"><ele>15.0</ele><time>2026-04-09T08:25:04.873Z</time></trkpt><trkpt lat="38.31288" lon="16.3655867"><ele>15.0</ele><time>2026-04-09T08:25:05.872Z</time></trkpt><trkpt lat="38.31301" lon="16.36586"><ele>15.0</ele><time>2026-04-09T08:25:06.872Z</time></trkpt><trkpt lat="38.3131367" lon="16.366125"><ele>14.5</ele><time>2026-04-09T08:25:07.873Z</time></trkpt><trkpt lat="38.313265" lon="16.3663883"><ele>14.0</ele><time>2026-04-09T08:25:08.873Z</time></trkpt><trkpt lat="38.3134017" lon="16.3666533"><ele>14.0</ele><time>2026-04-09T08:25:09.872Z</time></trkpt><trkpt lat="38.313535" lon="16.366915"><ele>14.0</ele><time>2026-04-09T08:25:10.873Z</time></trkpt><trkpt lat="38.313665" lon="16.3671783"><ele>13.0</ele><time>2026-04-09T08:25:11.873Z</time></trkpt><trkpt lat="38.31379" lon="16.3674417"><ele>12.0</ele><time>2026-04-09T08:25:12.872Z</time></trkpt><trkpt lat="38.3139217" lon="16.3677083"><ele>12.0</ele><time>2026-04-09T08:25:13.873Z</time></trkpt><trkpt lat="38.3140533" lon="16.36798"><ele>12.0</ele><time>2026-04-09T08:25:14.872Z</time></trkpt><trkpt lat="38.3141867" lon="16.3682533"><ele>11.0</ele><time>2026-04-09T08:25:15.872Z</time></trkpt><trkpt lat="38.3143183" lon="16.3685317"><ele>10.0</ele><time>2026-04-09T08:25:16.873Z</time></trkpt><trkpt lat="38.31445" lon="16.3688017"><ele>11.0</ele><time>2026-04-09T08:25:17.873Z</time></trkpt><trkpt lat="38.314585" lon="16.36908"><ele>12.0</ele><time>2026-04-09T08:25:18.872Z</time></trkpt><trkpt lat="38.3147183" lon="16.3693533"><ele>13.5</ele><time>2026-04-09T08:25:19.873Z</time></trkpt><trkpt lat="38.3148533" lon="16.3696233"><ele>15.0</ele><time>2026-04-09T08:25:20.872Z</time></trkpt><trkpt lat="38.3149933" lon="16.3698917"><ele>15.5</ele><time>2026-04-09T08:25:21.873Z</time></trkpt><trkpt lat="38.3151333" lon="16.3701583"><ele>16.0</ele><time>2026-04-09T08:25:22.873Z</time></trkpt><trkpt lat="38.3152667" lon="16.3704233"><ele>15.5</ele><time>2026-04-09T08:25:23.873Z</time></trkpt><trkpt lat="38.3154083" lon="16.3707"><ele>15.0</ele><time>2026-04-09T08:25:24.872Z</time></trkpt><trkpt lat="38.315535" lon="16.3709683"><ele>16.0</ele><time>2026-04-09T08:25:25.872Z</time></trkpt><trkpt lat="38.3156683" lon="16.37124"><ele>17.0</ele><time>2026-04-09T08:25:26.872Z</time></trkpt><trkpt lat="38.3158033" lon="16.3715167"><ele>17.0</ele><time>2026-04-09T08:25:27.872Z</time></trkpt><trkpt lat="38.3159417" lon="16.3717883"><ele>17.0</ele><time>2026-04-09T08:25:28.873Z</time></trkpt><trkpt lat="38.3160667" lon="16.37205"><ele>18.0</ele><time>2026-04-09T08:25:29.872Z</time></trkpt><trkpt lat="38.3162017" lon="16.3723167"><ele>19.0</ele><time>2026-04-09T08:25:30.872Z</time></trkpt><trkpt lat="38.3163383" lon="16.3725883"><ele>20.5</ele><time>2026-04-09T08:25:31.873Z</time></trkpt><trkpt lat="38.3164733" lon="16.3728667"><ele>22.0</ele><time>2026-04-09T08:25:32.873Z</time></trkpt><trkpt lat="38.316605" lon="16.3731383"><ele>22.0</ele><time>2026-04-09T08:25:33.872Z</time></trkpt><trkpt lat="38.31674" lon="16.373405"><ele>22.0</ele><time>2026-04-09T08:25:34.872Z</time></trkpt><trkpt lat="38.3168767" lon="16.3736683"><ele>21.5</ele><time>2026-04-09T08:25:35.872Z</time></trkpt><trkpt lat="38.3170017" lon="16.373935"><ele>21.0</ele><time>2026-04-09T08:25:36.872Z</time></trkpt><trkpt lat="38.3171383" lon="16.374205"><ele>23.5</ele><time>2026-04-09T08:25:37.873Z</time></trkpt><trkpt lat="38.3172717" lon="16.3744683"><ele>26.0</ele><time>2026-04-09T08:25:38.873Z</time></trkpt><trkpt lat="38.3174033" lon="16.37474"><ele>26.0</ele><time>2026-04-09T08:25:39.872Z</time></trkpt><trkpt lat="38.3175333" lon="16.375005"><ele>26.0</ele><time>2026-04-09T08:25:40.873Z</time></trkpt><trkpt lat="38.3176717" lon="16.3752733"><ele>25.0</ele><time>2026-04-09T08:25:41.872Z</time></trkpt><trkpt lat="38.3178017" lon="16.375545"><ele>24.0</ele><time>2026-04-09T08:25:42.872Z</time></trkpt><trkpt lat="38.3179283" lon="16.3758183"><ele>24.0</ele><time>2026-04-09T08:25:43.873Z</time></trkpt><trkpt lat="38.3180633" lon="16.3760917"><ele>24.0</ele><time>2026-04-09T08:25:44.873Z</time></trkpt><trkpt lat="38.3182" lon="16.376365"><ele>24.5</ele><time>2026-04-09T08:25:45.873Z</time></trkpt><trkpt lat="38.3183283" lon="16.3766367"><ele>25.0</ele><time>2026-04-09T08:25:46.872Z</time></trkpt><trkpt lat="38.3184633" lon="16.376915"><ele>25.0</ele><time>2026-04-09T08:25:47.872Z</time></trkpt><trkpt lat="38.3185967" lon="16.3771917"><ele>25.0</ele><time>2026-04-09T08:25:48.872Z</time></trkpt><trkpt lat="38.3187267" lon="16.377465"><ele>25.0</ele><time>2026-04-09T08:25:49.872Z</time></trkpt><trkpt lat="38.3188667" lon="16.3777383"><ele>25.0</ele><time>2026-04-09T08:25:50.873Z</time></trkpt><trkpt lat="38.318995" lon="16.378005"><ele>27.5</ele><time>2026-04-09T08:25:51.873Z</time></trkpt><trkpt lat="38.3191283" lon="16.3782717"><ele>30.0</ele><time>2026-04-09T08:25:52.872Z</time></trkpt><trkpt lat="38.31926" lon="16.378545"><ele>30.0</ele><time>2026-04-09T08:25:53.872Z</time></trkpt><trkpt lat="38.3193933" lon="16.3788117"><ele>30.0</ele><time>2026-04-09T08:25:54.873Z</time></trkpt><trkpt lat="38.3195267" lon="16.37908"><ele>28.0</ele><time>2026-04-09T08:25:55.873Z</time></trkpt><trkpt lat="38.3196583" lon="16.379345"><ele>26.0</ele><time>2026-04-09T08:25:56.872Z</time></trkpt><trkpt lat="38.3197933" lon="16.3796167"><ele>30.0</ele><time>2026-04-09T08:25:57.872Z</time></trkpt><trkpt lat="38.3199383" lon="16.3798933"><ele>34.0</ele><time>2026-04-09T08:25:58.873Z</time></trkpt><trkpt lat="38.3200733" lon="16.3801667"><ele>34.0</ele><time>2026-04-09T08:25:59.873Z</time></trkpt><trkpt lat="38.320205" lon="16.3804383"><ele>34.0</ele><time>2026-04-09T08:26:00.873Z</time></trkpt><trkpt lat="38.3203367" lon="16.3807083"><ele>34.0</ele><time>2026-04-09T08:26:01.873Z</time></trkpt><trkpt lat="38.3204717" lon="16.3809783"><ele>34.0</ele><time>2026-04-09T08:26:02.873Z</time></trkpt><trkpt lat="38.3206017" lon="16.3812417"><ele>33.5</ele><time>2026-04-09T08:26:03.872Z</time></trkpt><trkpt lat="38.3207317" lon="16.381515"><ele>33.0</ele><time>2026-04-09T08:26:04.873Z</time></trkpt><trkpt lat="38.320865" lon="16.3817917"><ele>33.0</ele><time>2026-04-09T08:26:05.873Z</time></trkpt><trkpt lat="38.3209983" lon="16.3820617"><ele>33.0</ele><time>2026-04-09T08:26:06.873Z</time></trkpt><trkpt lat="38.3211317" lon="16.3823383"><ele>32.5</ele><time>2026-04-09T08:26:07.872Z</time></trkpt><trkpt lat="38.3212717" lon="16.3826167"><ele>32.0</ele><time>2026-04-09T08:26:08.872Z</time></trkpt><trkpt lat="38.3213983" lon="16.38289"><ele>34.5</ele><time>2026-04-09T08:26:09.872Z</time></trkpt><trkpt lat="38.32153" lon="16.383165"><ele>37.0</ele><time>2026-04-09T08:26:10.872Z</time></trkpt><trkpt lat="38.321645" lon="16.3834383"><ele>37.0</ele><time>2026-04-09T08:26:11.873Z</time></trkpt><trkpt lat="38.3217583" lon="16.383715"><ele>37.0</ele><time>2026-04-09T08:26:12.872Z</time></trkpt><trkpt lat="38.3218733" lon="16.383995"><ele>35.5</ele><time>2026-04-09T08:26:13.873Z</time></trkpt><trkpt lat="38.3219967" lon="16.3842817"><ele>34.0</ele><time>2026-04-09T08:26:14.873Z</time></trkpt><trkpt lat="38.3221183" lon="16.38456"><ele>32.5</ele><time>2026-04-09T08:26:15.872Z</time></trkpt><trkpt lat="38.3222467" lon="16.3848367"><ele>31.0</ele><time>2026-04-09T08:26:16.873Z</time></trkpt><trkpt lat="38.32238" lon="16.3851067"><ele>31.0</ele><time>2026-04-09T08:26:17.872Z</time></trkpt><trkpt lat="38.32251" lon="16.3853717"><ele>31.0</ele><time>2026-04-09T08:26:18.873Z</time></trkpt><trkpt lat="38.3226433" lon="16.385645"><ele>26.5</ele><time>2026-04-09T08:26:19.873Z</time></trkpt><trkpt lat="38.3227817" lon="16.3859217"><ele>22.0</ele><time>2026-04-09T08:26:20.873Z</time></trkpt><trkpt lat="38.322915" lon="16.38619"><ele>23.5</ele><time>2026-04-09T08:26:21.873Z</time></trkpt><trkpt lat="38.32305" lon="16.3864633"><ele>25.0</ele><time>2026-04-09T08:26:22.872Z</time></trkpt><trkpt lat="38.3231883" lon="16.386735"><ele>34.0</ele><time>2026-04-09T08:26:23.872Z</time></trkpt><trkpt lat="38.3233233" lon="16.3870033"><ele>43.0</ele><time>2026-04-09T08:26:24.872Z</time></trkpt><trkpt lat="38.3234667" lon="16.3872733"><ele>43.0</ele><time>2026-04-09T08:26:25.872Z</time></trkpt><trkpt lat="38.323605" lon="16.3875467"><ele>43.0</ele><time>2026-04-09T08:26:26.873Z</time></trkpt><trkpt lat="38.3237483" lon="16.3878233"><ele>47.0</ele><time>2026-04-09T08:26:27.873Z</time></trkpt><trkpt lat="38.3238883" lon="16.388095"><ele>51.0</ele><time>2026-04-09T08:26:28.873Z</time></trkpt><trkpt lat="38.32403" lon="16.3883683"><ele>59.5</ele><time>2026-04-09T08:26:29.873Z</time></trkpt><trkpt lat="38.3241717" lon="16.3886417"><ele>68.0</ele><time>2026-04-09T08:26:30.873Z</time></trkpt><trkpt lat="38.32431" lon="16.3889117"><ele>68.0</ele><time>2026-04-09T08:26:31.872Z</time></trkpt><trkpt lat="38.3244433" lon="16.3891783"><ele>68.0</ele><time>2026-04-09T08:26:32.873Z</time></trkpt><trkpt lat="38.3248517" lon="16.3899683"><ele>61.5</ele><time>2026-04-09T08:26:35.871Z</time></trkpt><trkpt lat="38.32498" lon="16.3902383"><ele>55.0</ele><time>2026-04-09T08:26:36.871Z</time></trkpt><trkpt lat="38.3250767" lon="16.390545"><ele>49.5</ele><time>2026-04-09T08:26:37.871Z</time></trkpt><trkpt lat="38.3252233" lon="16.39082"><ele>44.0</ele><time>2026-04-09T08:26:38.871Z</time></trkpt><trkpt lat="38.3253433" lon="16.3910983"><ele>42.0</ele><time>2026-04-09T08:26:39.87Z</time></trkpt><trkpt lat="38.325475" lon="16.391355"><ele>40.0</ele><time>2026-04-09T08:26:40.87Z</time></trkpt><trkpt lat="38.3256067" lon="16.3916083"><ele>40.0</ele><time>2026-04-09T08:26:41.87Z</time></trkpt><trkpt lat="38.3257417" lon="16.3918633"><ele>40.0</ele><time>2026-04-09T08:26:42.871Z</time></trkpt><trkpt lat="38.3258833" lon="16.39212"><ele>38.5</ele><time>2026-04-09T08:26:43.871Z</time></trkpt><trkpt lat="38.326025" lon="16.3923767"><ele>37.0</ele><time>2026-04-09T08:26:44.87Z</time></trkpt><trkpt lat="38.326165" lon="16.392625"><ele>37.0</ele><time>2026-04-09T08:26:45.87Z</time></trkpt><trkpt lat="38.3263067" lon="16.3928867"><ele>37.0</ele><time>2026-04-09T08:26:46.871Z</time></trkpt><trkpt lat="38.3264483" lon="16.3931467"><ele>41.0</ele><time>2026-04-09T08:26:47.87Z</time></trkpt><trkpt lat="38.3265967" lon="16.3934117"><ele>45.0</ele><time>2026-04-09T08:26:48.871Z</time></trkpt><trkpt lat="38.3267317" lon="16.3936783"><ele>47.5</ele><time>2026-04-09T08:26:49.87Z</time></trkpt><trkpt lat="38.326865" lon="16.3939483"><ele>50.0</ele><time>2026-04-09T08:26:50.87Z</time></trkpt><trkpt lat="38.326995" lon="16.3942233"><ele>50.0</ele><time>2026-04-09T08:26:51.87Z</time></trkpt><trkpt lat="38.32713" lon="16.394495"><ele>50.0</ele><time>2026-04-09T08:26:52.871Z</time></trkpt><trkpt lat="38.327275" lon="16.3947583"><ele>54.0</ele><time>2026-04-09T08:26:53.87Z</time></trkpt><trkpt lat="38.3274167" lon="16.3950233"><ele>58.0</ele><time>2026-04-09T08:26:54.87Z</time></trkpt><trkpt lat="38.327555" lon="16.3952917"><ele>55.5</ele><time>2026-04-09T08:26:55.87Z</time></trkpt><trkpt lat="38.3276883" lon="16.39556"><ele>53.0</ele><time>2026-04-09T08:26:56.87Z</time></trkpt><trkpt lat="38.3278267" lon="16.395825"><ele>53.0</ele><time>2026-04-09T08:26:57.871Z</time></trkpt><trkpt lat="38.3279683" lon="16.3960933"><ele>53.0</ele><time>2026-04-09T08:26:58.871Z</time></trkpt><trkpt lat="38.3281033" lon="16.3963583"><ele>56.5</ele><time>2026-04-09T08:26:59.87Z</time></trkpt><trkpt lat="38.3282333" lon="16.3966333"><ele>60.0</ele><time>2026-04-09T08:27:00.87Z</time></trkpt><trkpt lat="38.3283567" lon="16.3969233"><ele>60.0</ele><time>2026-04-09T08:27:01.87Z</time></trkpt><trkpt lat="38.3284667" lon="16.3972117"><ele>60.0</ele><time>2026-04-09T08:27:02.871Z</time></trkpt><trkpt lat="38.32856" lon="16.3975083"><ele>60.0</ele><time>2026-04-09T08:27:03.87Z</time></trkpt><trkpt lat="38.3286417" lon="16.3978183"><ele>60.0</ele><time>2026-04-09T08:27:04.871Z</time></trkpt><trkpt lat="38.328715" lon="16.398125"><ele>59.0</ele><time>2026-04-09T08:27:05.871Z</time></trkpt><trkpt lat="38.3287767" lon="16.3984317"><ele>58.0</ele><time>2026-04-09T08:27:06.87Z</time></trkpt><trkpt lat="38.3288183" lon="16.3987417"><ele>58.5</ele><time>2026-04-09T08:27:07.871Z</time></trkpt><trkpt lat="38.3288583" lon="16.39905"><ele>59.0</ele><time>2026-04-09T08:27:08.871Z</time></trkpt><trkpt lat="38.3288883" lon="16.39936"><ele>64.0</ele><time>2026-04-09T08:27:09.871Z</time></trkpt><trkpt lat="38.3289133" lon="16.399665"><ele>69.0</ele><time>2026-04-09T08:27:10.871Z</time></trkpt><trkpt lat="38.32893" lon="16.3999767"><ele>69.0</ele><time>2026-04-09T08:27:11.87Z</time></trkpt><trkpt lat="38.328945" lon="16.4002817"><ele>69.0</ele><time>2026-04-09T08:27:12.871Z</time></trkpt><trkpt lat="38.3289583" lon="16.4005817"><ele>69.0</ele><time>2026-04-09T08:27:13.871Z</time></trkpt><trkpt lat="38.32898" lon="16.4008883"><ele>69.0</ele><time>2026-04-09T08:27:14.87Z</time></trkpt><trkpt lat="38.3290133" lon="16.401195"><ele>78.5</ele><time>2026-04-09T08:27:15.87Z</time></trkpt><trkpt lat="38.329045" lon="16.4014917"><ele>88.0</ele><time>2026-04-09T08:27:16.871Z</time></trkpt><trkpt lat="38.32908" lon="16.4017933"><ele>88.0</ele><time>2026-04-09T08:27:17.871Z</time></trkpt><trkpt lat="38.3291167" lon="16.4020933"><ele>88.0</ele><time>2026-04-09T08:27:18.87Z</time></trkpt><trkpt lat="38.329155" lon="16.4023867"><ele>97.5</ele><time>2026-04-09T08:27:19.87Z</time></trkpt><trkpt lat="38.3291917" lon="16.402675"><ele>107.0</ele><time>2026-04-09T08:27:20.871Z</time></trkpt><trkpt lat="38.329215" lon="16.4029683"><ele>108.5</ele><time>2026-04-09T08:27:21.87Z</time></trkpt><trkpt lat="38.3292467" lon="16.4032617"><ele>110.0</ele><time>2026-04-09T08:27:22.87Z</time></trkpt><trkpt lat="38.3292767" lon="16.4035567"><ele>107.66666666666666</ele><time>2026-04-09T08:27:23.871Z</time></trkpt><trkpt lat="38.3293067" lon="16.40385"><ele>105.33333333333334</ele><time>2026-04-09T08:27:24.87Z</time></trkpt><trkpt lat="38.3293317" lon="16.404115"><ele>103.0</ele><time>2026-04-09T08:27:25.87Z</time></trkpt><trkpt lat="38.3293533" lon="16.40437"><ele>88.0</ele><time>2026-04-09T08:27:26.871Z</time></trkpt><trkpt lat="38.329475" lon="16.4059683"><ele>70.0</ele><time>2026-04-09T08:27:32.871Z</time></trkpt><trkpt lat="38.3296683" lon="16.40661"><ele>70.0</ele><time>2026-04-09T08:27:33.872Z</time></trkpt><trkpt lat="38.3297083" lon="16.40691"><ele>70.0</ele><time>2026-04-09T08:27:34.871Z</time></trkpt><trkpt lat="38.32975" lon="16.4072067"><ele>64.0</ele><time>2026-04-09T08:27:35.872Z</time></trkpt><trkpt lat="38.3297883" lon="16.4075"><ele>58.0</ele><time>2026-04-09T08:27:36.872Z</time></trkpt><trkpt lat="38.3298167" lon="16.40779"><ele>54.0</ele><time>2026-04-09T08:27:37.872Z</time></trkpt><trkpt lat="38.32984" lon="16.408085"><ele>50.0</ele><time>2026-04-09T08:27:38.871Z</time></trkpt><trkpt lat="38.3298483" lon="16.4083767"><ele>50.0</ele><time>2026-04-09T08:27:39.872Z</time></trkpt><trkpt lat="38.32985" lon="16.40867"><ele>50.0</ele><time>2026-04-09T08:27:40.871Z</time></trkpt><trkpt lat="38.3298433" lon="16.40896"><ele>52.0</ele><time>2026-04-09T08:27:41.87Z</time></trkpt><trkpt lat="38.32982" lon="16.4092517"><ele>54.0</ele><time>2026-04-09T08:27:42.871Z</time></trkpt><trkpt lat="38.3297867" lon="16.4095433"><ele>69.5</ele><time>2026-04-09T08:27:43.871Z</time></trkpt><trkpt lat="38.3297417" lon="16.4098333"><ele>85.0</ele><time>2026-04-09T08:27:44.872Z</time></trkpt><trkpt lat="38.329695" lon="16.410125"><ele>85.5</ele><time>2026-04-09T08:27:45.872Z</time></trkpt><trkpt lat="38.3296467" lon="16.4104167"><ele>86.0</ele><time>2026-04-09T08:27:46.872Z</time></trkpt><trkpt lat="38.3288033" lon="16.4136833"><ele>68.5</ele><time>2026-04-09T08:27:57.874Z</time></trkpt><trkpt lat="38.3287017" lon="16.4139817"><ele>51.0</ele><time>2026-04-09T08:27:58.874Z</time></trkpt><trkpt lat="38.3286417" lon="16.4142383"><ele>51.0</ele><time>2026-04-09T08:27:59.874Z</time></trkpt><trkpt lat="38.32858" lon="16.4145117"><ele>51.0</ele><time>2026-04-09T08:28:00.875Z</time></trkpt><trkpt lat="38.3285317" lon="16.4147917"><ele>51.0</ele><time>2026-04-09T08:28:01.874Z</time></trkpt><trkpt lat="38.3284833" lon="16.415065"><ele>50.66666666666667</ele><time>2026-04-09T08:28:02.875Z</time></trkpt><trkpt lat="38.3284267" lon="16.4153233"><ele>50.333333333333336</ele><time>2026-04-09T08:28:03.874Z</time></trkpt><trkpt lat="38.3283633" lon="16.4155817"><ele>50.0</ele><time>2026-04-09T08:28:04.875Z</time></trkpt><trkpt lat="38.3283067" lon="16.4158433"><ele>52.0</ele><time>2026-04-09T08:28:05.874Z</time></trkpt><trkpt lat="38.3282417" lon="16.4160983"><ele>54.0</ele><time>2026-04-09T08:28:06.874Z</time></trkpt><trkpt lat="38.3281967" lon="16.4163617"><ele>56.0</ele><time>2026-04-09T08:28:07.874Z</time></trkpt><trkpt lat="38.3281683" lon="16.416635"><ele>57.0</ele><time>2026-04-09T08:28:08.874Z</time></trkpt><trkpt lat="38.32815" lon="16.4169033"><ele>58.0</ele><time>2026-04-09T08:28:09.874Z</time></trkpt><trkpt lat="38.3281417" lon="16.4171667"><ele>59.0</ele><time>2026-04-09T08:28:10.875Z</time></trkpt><trkpt lat="38.328145" lon="16.4174267"><ele>56.333333333333336</ele><time>2026-04-09T08:28:11.875Z</time></trkpt><trkpt lat="38.3281633" lon="16.4176933"><ele>53.66666666666667</ele><time>2026-04-09T08:28:12.875Z</time></trkpt><trkpt lat="38.3281933" lon="16.4179517"><ele>51.0</ele><time>2026-04-09T08:28:13.875Z</time></trkpt><trkpt lat="38.3282433" lon="16.4182183"><ele>46.0</ele><time>2026-04-09T08:28:14.874Z</time></trkpt><trkpt lat="38.3283233" lon="16.41848"><ele>41.0</ele><time>2026-04-09T08:28:15.875Z</time></trkpt><trkpt lat="38.3284" lon="16.4187317"><ele>36.0</ele><time>2026-04-09T08:28:16.874Z</time></trkpt><trkpt lat="38.3284817" lon="16.4189733"><ele>36.0</ele><time>2026-04-09T08:28:17.874Z</time></trkpt><trkpt lat="38.3285583" lon="16.4192117"><ele>36.0</ele><time>2026-04-09T08:28:18.874Z</time></trkpt><trkpt lat="38.3286533" lon="16.4194617"><ele>36.0</ele><time>2026-04-09T08:28:19.875Z</time></trkpt><trkpt lat="38.3287533" lon="16.4197183"><ele>36.5</ele><time>2026-04-09T08:28:20.874Z</time></trkpt><trkpt lat="38.32885" lon="16.4199767"><ele>37.0</ele><time>2026-04-09T08:28:21.874Z</time></trkpt><trkpt lat="38.3289567" lon="16.420245"><ele>35.0</ele><time>2026-04-09T08:28:22.875Z</time></trkpt><trkpt lat="38.3290517" lon="16.4204917"><ele>33.0</ele><time>2026-04-09T08:28:23.875Z</time></trkpt><trkpt lat="38.3291467" lon="16.420745"><ele>31.0</ele><time>2026-04-09T08:28:24.875Z</time></trkpt><trkpt lat="38.3292467" lon="16.4209983"><ele>31.0</ele><time>2026-04-09T08:28:25.875Z</time></trkpt><trkpt lat="38.32935" lon="16.421245"><ele>31.0</ele><time>2026-04-09T08:28:26.875Z</time></trkpt><trkpt lat="38.3294517" lon="16.4214967"><ele>31.0</ele><time>2026-04-09T08:28:27.874Z</time></trkpt><trkpt lat="38.3295517" lon="16.4217517"><ele>31.0</ele><time>2026-04-09T08:28:28.874Z</time></trkpt><trkpt lat="38.329655" lon="16.4220117"><ele>31.0</ele><time>2026-04-09T08:28:29.875Z</time></trkpt><trkpt lat="38.3297617" lon="16.42228"><ele>31.0</ele><time>2026-04-09T08:28:30.875Z</time></trkpt><trkpt lat="38.329855" lon="16.4225467"><ele>31.0</ele><time>2026-04-09T08:28:31.874Z</time></trkpt><trkpt lat="38.329945" lon="16.4228233"><ele>29.5</ele><time>2026-04-09T08:28:32.874Z</time></trkpt><trkpt lat="38.3300417" lon="16.4231033"><ele>28.0</ele><time>2026-04-09T08:28:33.875Z</time></trkpt><trkpt lat="38.3301367" lon="16.423375"><ele>28.0</ele><time>2026-04-09T08:28:34.875Z</time></trkpt><trkpt lat="38.33024" lon="16.42365"><ele>28.0</ele><time>2026-04-09T08:28:35.874Z</time></trkpt><trkpt lat="38.3303433" lon="16.42393"><ele>27.0</ele><time>2026-04-09T08:28:36.874Z</time></trkpt><trkpt lat="38.3304517" lon="16.4242083"><ele>26.0</ele><time>2026-04-09T08:28:37.875Z</time></trkpt><trkpt lat="38.3305617" lon="16.4244883"><ele>29.5</ele><time>2026-04-09T08:28:38.875Z</time></trkpt><trkpt lat="38.3306817" lon="16.42477"><ele>33.0</ele><time>2026-04-09T08:28:39.874Z</time></trkpt><trkpt lat="38.3307883" lon="16.425065"><ele>33.0</ele><time>2026-04-09T08:28:40.875Z</time></trkpt><trkpt lat="38.3309" lon="16.425355"><ele>33.0</ele><time>2026-04-09T08:28:41.874Z</time></trkpt><trkpt lat="38.331" lon="16.4256533"><ele>28.0</ele><time>2026-04-09T08:28:42.874Z</time></trkpt><trkpt lat="38.33112" lon="16.4259533"><ele>23.0</ele><time>2026-04-09T08:28:43.874Z</time></trkpt><trkpt lat="38.3312217" lon="16.4262467"><ele>22.5</ele><time>2026-04-09T08:28:44.874Z</time></trkpt><trkpt lat="38.3313283" lon="16.4265333"><ele>22.0</ele><time>2026-04-09T08:28:45.875Z</time></trkpt><trkpt lat="38.331445" lon="16.4268233"><ele>22.0</ele><time>2026-04-09T08:28:46.874Z</time></trkpt><trkpt lat="38.3315583" lon="16.427115"><ele>22.0</ele><time>2026-04-09T08:28:47.875Z</time></trkpt><trkpt lat="38.3316683" lon="16.4274033"><ele>19.0</ele><time>2026-04-09T08:28:48.874Z</time></trkpt><trkpt lat="38.331775" lon="16.4276933"><ele>16.0</ele><time>2026-04-09T08:28:49.875Z</time></trkpt><trkpt lat="38.331885" lon="16.42798"><ele>14.5</ele><time>2026-04-09T08:28:50.875Z</time></trkpt><trkpt lat="38.331995" lon="16.4282667"><ele>13.0</ele><time>2026-04-09T08:28:51.874Z</time></trkpt><trkpt lat="38.33211" lon="16.4285567"><ele>13.5</ele><time>2026-04-09T08:28:52.874Z</time></trkpt><trkpt lat="38.3322217" lon="16.42884"><ele>14.0</ele><time>2026-04-09T08:28:53.874Z</time></trkpt><trkpt lat="38.332325" lon="16.429125"><ele>17.5</ele><time>2026-04-09T08:28:54.875Z</time></trkpt><trkpt lat="38.33243" lon="16.4294117"><ele>21.0</ele><time>2026-04-09T08:28:55.875Z</time></trkpt><trkpt lat="38.33254" lon="16.429705"><ele>21.0</ele><time>2026-04-09T08:28:56.875Z</time></trkpt><trkpt lat="38.3326533" lon="16.4299967"><ele>21.0</ele><time>2026-04-09T08:28:57.875Z</time></trkpt><trkpt lat="38.3327683" lon="16.4302783"><ele>17.5</ele><time>2026-04-09T08:28:58.875Z</time></trkpt><trkpt lat="38.3328767" lon="16.4305517"><ele>14.0</ele><time>2026-04-09T08:28:59.875Z</time></trkpt><trkpt lat="38.3329667" lon="16.4308183"><ele>16.333333333333336</ele><time>2026-04-09T08:29:00.874Z</time></trkpt><trkpt lat="38.3330633" lon="16.4310783"><ele>18.666666666666668</ele><time>2026-04-09T08:29:01.875Z</time></trkpt><trkpt lat="38.3331533" lon="16.4313283"><ele>21.0</ele><time>2026-04-09T08:29:02.874Z</time></trkpt><trkpt lat="38.3332483" lon="16.431575"><ele>21.333333333333332</ele><time>2026-04-09T08:29:03.874Z</time></trkpt><trkpt lat="38.33334" lon="16.43182"><ele>21.666666666666664</ele><time>2026-04-09T08:29:04.874Z</time></trkpt><trkpt lat="38.3334317" lon="16.4320567"><ele>22.0</ele><time>2026-04-09T08:29:05.875Z</time></trkpt><trkpt lat="38.3335283" lon="16.432305"><ele>22.0</ele><time>2026-04-09T08:29:06.875Z</time></trkpt><trkpt lat="38.3336117" lon="16.4325433"><ele>22.0</ele><time>2026-04-09T08:29:07.874Z</time></trkpt><trkpt lat="38.333705" lon="16.4327833"><ele>22.0</ele><time>2026-04-09T08:29:08.875Z</time></trkpt><trkpt lat="38.3338" lon="16.4330267"><ele>24.666666666666664</ele><time>2026-04-09T08:29:09.875Z</time></trkpt><trkpt lat="38.3338967" lon="16.4332783"><ele>27.333333333333332</ele><time>2026-04-09T08:29:10.875Z</time></trkpt><trkpt lat="38.3339883" lon="16.4335133"><ele>30.0</ele><time>2026-04-09T08:29:11.875Z</time></trkpt><trkpt lat="38.3340767" lon="16.4337583"><ele>27.666666666666668</ele><time>2026-04-09T08:29:12.875Z</time></trkpt><trkpt lat="38.3341617" lon="16.4339967"><ele>25.333333333333336</ele><time>2026-04-09T08:29:13.875Z</time></trkpt><trkpt lat="38.3342517" lon="16.4342367"><ele>23.0</ele><time>2026-04-09T08:29:14.874Z</time></trkpt><trkpt lat="38.3343533" lon="16.4344767"><ele>21.333333333333336</ele><time>2026-04-09T08:29:15.874Z</time></trkpt><trkpt lat="38.33445" lon="16.434705"><ele>19.666666666666668</ele><time>2026-04-09T08:29:16.875Z</time></trkpt><trkpt lat="38.3345367" lon="16.4349233"><ele>18.0</ele><time>2026-04-09T08:29:17.874Z</time></trkpt><trkpt lat="38.3346117" lon="16.435135"><ele>18.0</ele><time>2026-04-09T08:29:18.874Z</time></trkpt><trkpt lat="38.3346833" lon="16.4353433"><ele>18.0</ele><time>2026-04-09T08:29:19.875Z</time></trkpt><trkpt lat="38.3347617" lon="16.435535"><ele>18.0</ele><time>2026-04-09T08:29:20.875Z</time></trkpt><trkpt lat="38.33483" lon="16.4357217"><ele>18.0</ele><time>2026-04-09T08:29:21.874Z</time></trkpt><trkpt lat="38.334905" lon="16.4359017"><ele>18.0</ele><time>2026-04-09T08:29:22.874Z</time></trkpt><trkpt lat="38.3349667" lon="16.4360733"><ele>18.0</ele><time>2026-04-09T08:29:23.875Z</time></trkpt><trkpt lat="38.3350167" lon="16.43624"><ele>18.0</ele><time>2026-04-09T08:29:24.874Z</time></trkpt><trkpt lat="38.3350583" lon="16.4364133"><ele>18.0</ele><time>2026-04-09T08:29:25.875Z</time></trkpt><trkpt lat="38.33506" lon="16.4365733"><ele>18.0</ele><time>2026-04-09T08:29:26.874Z</time></trkpt><trkpt lat="38.33504" lon="16.4367367"><ele>18.0</ele><time>2026-04-09T08:29:27.875Z</time></trkpt><trkpt lat="38.334995" lon="16.4369"><ele>18.0</ele><time>2026-04-09T08:29:28.874Z</time></trkpt><trkpt lat="38.33493" lon="16.4370567"><ele>16.5</ele><time>2026-04-09T08:29:29.874Z</time></trkpt><trkpt lat="38.33484" lon="16.4371933"><ele>15.0</ele><time>2026-04-09T08:29:30.875Z</time></trkpt><trkpt lat="38.3347383" lon="16.43731"><ele>13.5</ele><time>2026-04-09T08:29:31.874Z</time></trkpt><trkpt lat="38.3346217" lon="16.43741"><ele>12.0</ele><time>2026-04-09T08:29:32.875Z</time></trkpt><trkpt lat="38.3345067" lon="16.4374967"><ele>11.0</ele><time>2026-04-09T08:29:33.874Z</time></trkpt><trkpt lat="38.3343917" lon="16.437565"><ele>10.0</ele><time>2026-04-09T08:29:34.874Z</time></trkpt><trkpt lat="38.3342783" lon="16.4376317"><ele>9.0</ele><time>2026-04-09T08:29:35.874Z</time></trkpt><trkpt lat="38.33416" lon="16.437695"><ele>8.0</ele><time>2026-04-09T08:29:36.875Z</time></trkpt><trkpt lat="38.3340517" lon="16.43776"><ele>8.0</ele><time>2026-04-09T08:29:37.874Z</time></trkpt><trkpt lat="38.33394" lon="16.4378283"><ele>8.0</ele><time>2026-04-09T08:29:38.875Z</time></trkpt><trkpt lat="38.3338417" lon="16.4378967"><ele>8.0</ele><time>2026-04-09T08:29:39.874Z</time></trkpt><trkpt lat="38.33374" lon="16.43796"><ele>8.0</ele><time>2026-04-09T08:29:40.875Z</time></trkpt><trkpt lat="38.3336467" lon="16.4380133"><ele>7.6000000000000005</ele><time>2026-04-09T08:29:41.875Z</time></trkpt><trkpt lat="38.3335583" lon="16.4380667"><ele>7.200000000000001</ele><time>2026-04-09T08:29:42.874Z</time></trkpt><trkpt lat="38.3334733" lon="16.4381133"><ele>6.8</ele><time>2026-04-09T08:29:43.874Z</time></trkpt><trkpt lat="38.3334033" lon="16.438145"><ele>6.4</ele><time>2026-04-09T08:29:44.875Z</time></trkpt><trkpt lat="38.33329" lon="16.43816"><ele>6.0</ele><time>2026-04-09T08:29:46.874Z</time></trkpt><trkpt lat="38.3331833" lon="16.4381733"><ele>6.0</ele><time>2026-04-09T08:29:48.875Z</time></trkpt><trkpt lat="38.333105" lon="16.4382617"><ele>6.0</ele><time>2026-04-09T08:29:50.875Z</time></trkpt><trkpt lat="38.333085" lon="16.4384033"><ele>6.0</ele><time>2026-04-09T08:29:52.875Z</time></trkpt><trkpt lat="38.3331183" lon="16.43849"><ele>6.0</ele><time>2026-04-09T08:29:53.875Z</time></trkpt><trkpt lat="38.3331683" lon="16.438595"><ele>6.0</ele><time>2026-04-09T08:29:54.874Z</time></trkpt><trkpt lat="38.333215" lon="16.4387067"><ele>6.0</ele><time>2026-04-09T08:29:55.875Z</time></trkpt><trkpt lat="38.3332533" lon="16.4388467"><ele>6.0</ele><time>2026-04-09T08:29:56.874Z</time></trkpt><trkpt lat="38.3332867" lon="16.4390067"><ele>6.0</ele><time>2026-04-09T08:29:57.874Z</time></trkpt><trkpt lat="38.3333217" lon="16.43917"><ele>6.0</ele><time>2026-04-09T08:29:58.875Z</time></trkpt><trkpt lat="38.3333667" lon="16.4393483"><ele>6.0</ele><time>2026-04-09T08:29:59.875Z</time></trkpt><trkpt lat="38.3334283" lon="16.4395217"><ele>6.0</ele><time>2026-04-09T08:30:00.874Z</time></trkpt><trkpt lat="38.3334983" lon="16.4397033"><ele>6.0</ele><time>2026-04-09T08:30:01.875Z</time></trkpt><trkpt lat="38.33357" lon="16.4398983"><ele>5.666666666666667</ele><time>2026-04-09T08:30:02.874Z</time></trkpt><trkpt lat="38.3336583" lon="16.4401283"><ele>5.333333333333334</ele><time>2026-04-09T08:30:03.874Z</time></trkpt><trkpt lat="38.333755" lon="16.440385"><ele>5.0</ele><time>2026-04-09T08:30:04.874Z</time></trkpt><trkpt lat="38.3338433" lon="16.440645"><ele>5.0</ele><time>2026-04-09T08:30:05.874Z</time></trkpt><trkpt lat="38.3339133" lon="16.4408933"><ele>5.0</ele><time>2026-04-09T08:30:06.875Z</time></trkpt><trkpt lat="38.3339867" lon="16.4411367"><ele>5.0</ele><time>2026-04-09T08:30:07.875Z</time></trkpt><trkpt lat="38.33407" lon="16.4413717"><ele>5.0</ele><time>2026-04-09T08:30:08.875Z</time></trkpt><trkpt lat="38.334165" lon="16.4416067"><ele>5.0</ele><time>2026-04-09T08:30:09.875Z</time></trkpt><trkpt lat="38.3342467" lon="16.4418367"><ele>5.0</ele><time>2026-04-09T08:30:10.875Z</time></trkpt><trkpt lat="38.3343283" lon="16.4420633"><ele>4.333333333333334</ele><time>2026-04-09T08:30:11.874Z</time></trkpt><trkpt lat="38.334405" lon="16.4422867"><ele>3.666666666666667</ele><time>2026-04-09T08:30:12.874Z</time></trkpt><trkpt lat="38.3344867" lon="16.4425067"><ele>3.0</ele><time>2026-04-09T08:30:13.874Z</time></trkpt><trkpt lat="38.334565" lon="16.442725"><ele>3.0</ele><time>2026-04-09T08:30:14.874Z</time></trkpt><trkpt lat="38.3346367" lon="16.442935"><ele>3.0</ele><time>2026-04-09T08:30:15.874Z</time></trkpt><trkpt lat="38.3347067" lon="16.4431467"><ele>3.0</ele><time>2026-04-09T08:30:16.875Z</time></trkpt><trkpt lat="38.3347767" lon="16.4433567"><ele>3.333333333333333</ele><time>2026-04-09T08:30:17.875Z</time></trkpt><trkpt lat="38.3348517" lon="16.4435667"><ele>3.6666666666666665</ele><time>2026-04-09T08:30:18.875Z</time></trkpt><trkpt lat="38.3349317" lon="16.4437883"><ele>4.0</ele><time>2026-04-09T08:30:19.875Z</time></trkpt><trkpt lat="38.3350117" lon="16.444"><ele>4.0</ele><time>2026-04-09T08:30:20.875Z</time></trkpt><trkpt lat="38.3350883" lon="16.444215"><ele>4.0</ele><time>2026-04-09T08:30:21.874Z</time></trkpt><trkpt lat="38.3351683" lon="16.4444383"><ele>4.0</ele><time>2026-04-09T08:30:22.875Z</time></trkpt><trkpt lat="38.33525" lon="16.4446583"><ele>4.0</ele><time>2026-04-09T08:30:23.875Z</time></trkpt><trkpt lat="38.3353317" lon="16.4448733"><ele>4.0</ele><time>2026-04-09T08:30:24.875Z</time></trkpt><trkpt lat="38.3354067" lon="16.44509"><ele>4.0</ele><time>2026-04-09T08:30:25.875Z</time></trkpt><trkpt lat="38.3354867" lon="16.445305"><ele>5.333333333333333</ele><time>2026-04-09T08:30:26.874Z</time></trkpt><trkpt lat="38.335565" lon="16.4455283"><ele>6.666666666666666</ele><time>2026-04-09T08:30:27.875Z</time></trkpt><trkpt lat="38.3356483" lon="16.4457483"><ele>8.0</ele><time>2026-04-09T08:30:28.875Z</time></trkpt><trkpt lat="38.3357283" lon="16.4459633"><ele>8.0</ele><time>2026-04-09T08:30:29.874Z</time></trkpt><trkpt lat="38.3358117" lon="16.4461733"><ele>8.0</ele><time>2026-04-09T08:30:30.875Z</time></trkpt><trkpt lat="38.335885" lon="16.4463883"><ele>8.0</ele><time>2026-04-09T08:30:31.875Z</time></trkpt><trkpt lat="38.3359617" lon="16.446605"><ele>7.666666666666666</ele><time>2026-04-09T08:30:32.875Z</time></trkpt><trkpt lat="38.3360333" lon="16.4468233"><ele>7.333333333333334</ele><time>2026-04-09T08:30:33.874Z</time></trkpt><trkpt lat="38.336105" lon="16.4470333"><ele>7.0</ele><time>2026-04-09T08:30:34.875Z</time></trkpt><trkpt lat="38.33618" lon="16.4472517"><ele>7.0</ele><time>2026-04-09T08:30:35.875Z</time></trkpt><trkpt lat="38.3362567" lon="16.4474683"><ele>7.0</ele><time>2026-04-09T08:30:36.874Z</time></trkpt><trkpt lat="38.3363333" lon="16.4476883"><ele>7.0</ele><time>2026-04-09T08:30:37.875Z</time></trkpt><trkpt lat="38.3364167" lon="16.4479083"><ele>6.666666666666667</ele><time>2026-04-09T08:30:38.875Z</time></trkpt><trkpt lat="38.3364983" lon="16.4481217"><ele>6.333333333333334</ele><time>2026-04-09T08:30:39.875Z</time></trkpt><trkpt lat="38.3365767" lon="16.4483483"><ele>6.0</ele><time>2026-04-09T08:30:40.875Z</time></trkpt><trkpt lat="38.3366567" lon="16.4485683"><ele>6.333333333333334</ele><time>2026-04-09T08:30:41.875Z</time></trkpt><trkpt lat="38.3367367" lon="16.4487933"><ele>6.666666666666667</ele><time>2026-04-09T08:30:42.875Z</time></trkpt><trkpt lat="38.3368167" lon="16.449015"><ele>7.0</ele><time>2026-04-09T08:30:43.874Z</time></trkpt><trkpt lat="38.3368967" lon="16.449245"><ele>7.0</ele><time>2026-04-09T08:30:44.875Z</time></trkpt><trkpt lat="38.3369817" lon="16.4494767"><ele>7.0</ele><time>2026-04-09T08:30:45.874Z</time></trkpt><trkpt lat="38.3370717" lon="16.4497017"><ele>7.0</ele><time>2026-04-09T08:30:46.875Z</time></trkpt><trkpt lat="38.3371533" lon="16.449925"><ele>7.333333333333334</ele><time>2026-04-09T08:30:47.874Z</time></trkpt><trkpt lat="38.3372333" lon="16.4501517"><ele>7.666666666666666</ele><time>2026-04-09T08:30:48.875Z</time></trkpt><trkpt lat="38.33731" lon="16.4503767"><ele>8.0</ele><time>2026-04-09T08:30:49.874Z</time></trkpt><trkpt lat="38.3373833" lon="16.4506033"><ele>7.333333333333333</ele><time>2026-04-09T08:30:50.874Z</time></trkpt><trkpt lat="38.3374667" lon="16.4508417"><ele>6.666666666666666</ele><time>2026-04-09T08:30:51.874Z</time></trkpt><trkpt lat="38.3375483" lon="16.4510817"><ele>6.0</ele><time>2026-04-09T08:30:52.874Z</time></trkpt><trkpt lat="38.3376383" lon="16.4513183"><ele>5.333333333333333</ele><time>2026-04-09T08:30:53.875Z</time></trkpt><trkpt lat="38.33773" lon="16.4515617"><ele>4.666666666666666</ele><time>2026-04-09T08:30:54.874Z</time></trkpt><trkpt lat="38.3378083" lon="16.4518017"><ele>4.0</ele><time>2026-04-09T08:30:55.874Z</time></trkpt><trkpt lat="38.3378967" lon="16.4520367"><ele>4.0</ele><time>2026-04-09T08:30:56.875Z</time></trkpt><trkpt lat="38.3379817" lon="16.452275"><ele>4.0</ele><time>2026-04-09T08:30:57.875Z</time></trkpt><trkpt lat="38.3380667" lon="16.4525183"><ele>4.0</ele><time>2026-04-09T08:30:58.875Z</time></trkpt><trkpt lat="38.338155" lon="16.4527583"><ele>4.666666666666666</ele><time>2026-04-09T08:30:59.875Z</time></trkpt><trkpt lat="38.338245" lon="16.4529983"><ele>5.333333333333333</ele><time>2026-04-09T08:31:00.875Z</time></trkpt><trkpt lat="38.3383333" lon="16.453245"><ele>6.0</ele><time>2026-04-09T08:31:01.874Z</time></trkpt><trkpt lat="38.3384233" lon="16.4534817"><ele>6.0</ele><time>2026-04-09T08:31:02.875Z</time></trkpt><trkpt lat="38.3385083" lon="16.453715"><ele>6.0</ele><time>2026-04-09T08:31:03.874Z</time></trkpt><trkpt lat="38.3385917" lon="16.4539567"><ele>6.0</ele><time>2026-04-09T08:31:04.874Z</time></trkpt><trkpt lat="38.33868" lon="16.4541917"><ele>6.0</ele><time>2026-04-09T08:31:05.875Z</time></trkpt><trkpt lat="38.3387717" lon="16.45443"><ele>6.0</ele><time>2026-04-09T08:31:06.875Z</time></trkpt><trkpt lat="38.3388717" lon="16.4546633"><ele>6.0</ele><time>2026-04-09T08:31:07.875Z</time></trkpt><trkpt lat="38.3389683" lon="16.4548983"><ele>6.333333333333334</ele><time>2026-04-09T08:31:08.874Z</time></trkpt><trkpt lat="38.3390633" lon="16.4551367"><ele>6.666666666666667</ele><time>2026-04-09T08:31:09.875Z</time></trkpt><trkpt lat="38.3391567" lon="16.4553783"><ele>7.0</ele><time>2026-04-09T08:31:10.875Z</time></trkpt><trkpt lat="38.3392467" lon="16.4556067"><ele>7.0</ele><time>2026-04-09T08:31:11.875Z</time></trkpt><trkpt lat="38.3393383" lon="16.45584"><ele>7.0</ele><time>2026-04-09T08:31:12.875Z</time></trkpt><trkpt lat="38.3394333" lon="16.4560767"><ele>7.0</ele><time>2026-04-09T08:31:13.874Z</time></trkpt><trkpt lat="38.339525" lon="16.4563183"><ele>7.0</ele><time>2026-04-09T08:31:14.874Z</time></trkpt><trkpt lat="38.3396167" lon="16.4565533"><ele>7.0</ele><time>2026-04-09T08:31:15.875Z</time></trkpt><trkpt lat="38.339705" lon="16.4567817"><ele>7.0</ele><time>2026-04-09T08:31:16.874Z</time></trkpt><trkpt lat="38.3397933" lon="16.45702"><ele>7.0</ele><time>2026-04-09T08:31:17.875Z</time></trkpt><trkpt lat="38.3398917" lon="16.457255"><ele>7.0</ele><time>2026-04-09T08:31:18.875Z</time></trkpt><trkpt lat="38.339985" lon="16.45749"><ele>7.0</ele><time>2026-04-09T08:31:19.875Z</time></trkpt><trkpt lat="38.3400767" lon="16.4577283"><ele>6.666666666666667</ele><time>2026-04-09T08:31:20.875Z</time></trkpt><trkpt lat="38.340165" lon="16.4579567"><ele>6.333333333333334</ele><time>2026-04-09T08:31:21.875Z</time></trkpt><trkpt lat="38.340255" lon="16.45819"><ele>6.0</ele><time>2026-04-09T08:31:22.874Z</time></trkpt><trkpt lat="38.340345" lon="16.458415"><ele>6.0</ele><time>2026-04-09T08:31:23.875Z</time></trkpt><trkpt lat="38.34043" lon="16.4586283"><ele>6.0</ele><time>2026-04-09T08:31:24.875Z</time></trkpt><trkpt lat="38.3405133" lon="16.45885"><ele>6.0</ele><time>2026-04-09T08:31:25.875Z</time></trkpt><trkpt lat="38.3405967" lon="16.4590517"><ele>6.666666666666666</ele><time>2026-04-09T08:31:26.874Z</time></trkpt><trkpt lat="38.3406733" lon="16.4592583"><ele>7.333333333333333</ele><time>2026-04-09T08:31:27.875Z</time></trkpt><trkpt lat="38.3407567" lon="16.4594517"><ele>8.0</ele><time>2026-04-09T08:31:28.874Z</time></trkpt><trkpt lat="38.340835" lon="16.459645"><ele>8.333333333333332</ele><time>2026-04-09T08:31:29.874Z</time></trkpt><trkpt lat="38.3409083" lon="16.4598367"><ele>8.666666666666666</ele><time>2026-04-09T08:31:30.874Z</time></trkpt><trkpt lat="38.3409783" lon="16.4600233"><ele>9.0</ele><time>2026-04-09T08:31:31.875Z</time></trkpt><trkpt lat="38.3410517" lon="16.4602033"><ele>9.0</ele><time>2026-04-09T08:31:32.874Z</time></trkpt><trkpt lat="38.3411183" lon="16.4603917"><ele>9.0</ele><time>2026-04-09T08:31:33.875Z</time></trkpt><trkpt lat="38.3411917" lon="16.4605783"><ele>9.0</ele><time>2026-04-09T08:31:34.874Z</time></trkpt><trkpt lat="38.3412633" lon="16.46076"><ele>8.666666666666666</ele><time>2026-04-09T08:31:35.874Z</time></trkpt><trkpt lat="38.3413333" lon="16.46094"><ele>8.333333333333332</ele><time>2026-04-09T08:31:36.875Z</time></trkpt><trkpt lat="38.3414017" lon="16.4611133"><ele>8.0</ele><time>2026-04-09T08:31:37.875Z</time></trkpt><trkpt lat="38.3414667" lon="16.461285"><ele>8.0</ele><time>2026-04-09T08:31:38.875Z</time></trkpt><trkpt lat="38.34153" lon="16.4614567"><ele>8.0</ele><time>2026-04-09T08:31:39.875Z</time></trkpt><trkpt lat="38.3415933" lon="16.4616283"><ele>8.0</ele><time>2026-04-09T08:31:40.875Z</time></trkpt><trkpt lat="38.3416633" lon="16.4618017"><ele>8.0</ele><time>2026-04-09T08:31:41.874Z</time></trkpt><trkpt lat="38.3417367" lon="16.4619717"><ele>8.0</ele><time>2026-04-09T08:31:42.875Z</time></trkpt><trkpt lat="38.34181" lon="16.4621317"><ele>8.0</ele><time>2026-04-09T08:31:43.874Z</time></trkpt><trkpt lat="38.3418817" lon="16.462295"><ele>8.0</ele><time>2026-04-09T08:31:44.875Z</time></trkpt><trkpt lat="38.3419467" lon="16.462455"><ele>8.0</ele><time>2026-04-09T08:31:45.874Z</time></trkpt><trkpt lat="38.3420133" lon="16.4626183"><ele>8.0</ele><time>2026-04-09T08:31:46.874Z</time></trkpt><trkpt lat="38.34208" lon="16.4627833"><ele>8.0</ele><time>2026-04-09T08:31:47.874Z</time></trkpt><trkpt lat="38.342135" lon="16.462945"><ele>8.0</ele><time>2026-04-09T08:31:48.875Z</time></trkpt><trkpt lat="38.3421967" lon="16.463105"><ele>7.75</ele><time>2026-04-09T08:31:49.875Z</time></trkpt><trkpt lat="38.3422683" lon="16.4632683"><ele>7.5</ele><time>2026-04-09T08:31:50.875Z</time></trkpt><trkpt lat="38.342325" lon="16.4634317"><ele>7.25</ele><time>2026-04-09T08:31:51.874Z</time></trkpt><trkpt lat="38.3423783" lon="16.46359"><ele>7.0</ele><time>2026-04-09T08:31:52.875Z</time></trkpt><trkpt lat="38.342435" lon="16.4637383"><ele>7.0</ele><time>2026-04-09T08:31:53.875Z</time></trkpt><trkpt lat="38.3424917" lon="16.4638667"><ele>6.999999999999999</ele><time>2026-04-09T08:31:54.874Z</time></trkpt><trkpt lat="38.3425383" lon="16.4639867"><ele>6.999999999999999</ele><time>2026-04-09T08:31:55.875Z</time></trkpt><trkpt lat="38.3425917" lon="16.4641117"><ele>7.0</ele><time>2026-04-09T08:31:56.875Z</time></trkpt><trkpt lat="38.34264" lon="16.4642433"><ele>7.0</ele><time>2026-04-09T08:31:57.874Z</time></trkpt><trkpt lat="38.34269" lon="16.46438"><ele>7.0</ele><time>2026-04-09T08:31:58.874Z</time></trkpt><trkpt lat="38.3427417" lon="16.4645167"><ele>7.0</ele><time>2026-04-09T08:31:59.874Z</time></trkpt><trkpt lat="38.3427967" lon="16.4646567"><ele>7.0</ele><time>2026-04-09T08:32:00.874Z</time></trkpt><trkpt lat="38.3428483" lon="16.4647967"><ele>7.0</ele><time>2026-04-09T08:32:01.874Z</time></trkpt><trkpt lat="38.3429017" lon="16.4649383"><ele>7.0</ele><time>2026-04-09T08:32:02.874Z</time></trkpt><trkpt lat="38.3429617" lon="16.4650717"><ele>7.0</ele><time>2026-04-09T08:32:03.874Z</time></trkpt><trkpt lat="38.34301" lon="16.4652083"><ele>7.0</ele><time>2026-04-09T08:32:04.874Z</time></trkpt><trkpt lat="38.343055" lon="16.4653467"><ele>7.0</ele><time>2026-04-09T08:32:05.875Z</time></trkpt><trkpt lat="38.34311" lon="16.465465"><ele>7.199999999999999</ele><time>2026-04-09T08:32:06.874Z</time></trkpt><trkpt lat="38.3431633" lon="16.4655817"><ele>7.3999999999999995</ele><time>2026-04-09T08:32:07.875Z</time></trkpt><trkpt lat="38.34322" lon="16.46569"><ele>7.6000000000000005</ele><time>2026-04-09T08:32:08.874Z</time></trkpt><trkpt lat="38.3432767" lon="16.4658017"><ele>7.800000000000001</ele><time>2026-04-09T08:32:09.875Z</time></trkpt><trkpt lat="38.3433433" lon="16.4659033"><ele>8.0</ele><time>2026-04-09T08:32:10.874Z</time></trkpt><trkpt lat="38.3434017" lon="16.46599"><ele>7.999999999999999</ele><time>2026-04-09T08:32:11.874Z</time></trkpt><trkpt lat="38.3434583" lon="16.466075"><ele>8.0</ele><time>2026-04-09T08:32:12.874Z</time></trkpt><trkpt lat="38.343505" lon="16.4661567"><ele>8.0</ele><time>2026-04-09T08:32:13.875Z</time></trkpt><trkpt lat="38.34355" lon="16.4662217"><ele>8.0</ele><time>2026-04-09T08:32:14.875Z</time></trkpt><trkpt lat="38.3436317" lon="16.4663333"><ele>7.999999999999999</ele><time>2026-04-09T08:32:16.874Z</time></trkpt><trkpt lat="38.343685" lon="16.4664233"><ele>8.0</ele><time>2026-04-09T08:32:18.874Z</time></trkpt><trkpt lat="38.3437433" lon="16.4664883"><ele>8.166666666666666</ele><time>2026-04-09T08:32:20.875Z</time></trkpt><trkpt lat="38.343805" lon="16.46655"><ele>8.333333333333332</ele><time>2026-04-09T08:32:22.875Z</time></trkpt><trkpt lat="38.34387" lon="16.4666367"><ele>8.5</ele><time>2026-04-09T08:32:24.875Z</time></trkpt><trkpt lat="38.3439767" lon="16.466725"><ele>8.666666666666666</ele><time>2026-04-09T08:32:26.874Z</time></trkpt><trkpt lat="38.3440317" lon="16.466775"><ele>8.833333333333334</ele><time>2026-04-09T08:32:27.874Z</time></trkpt><trkpt lat="38.3440833" lon="16.4668283"><ele>9.0</ele><time>2026-04-09T08:32:28.875Z</time></trkpt><trkpt lat="38.3441283" lon="16.46689"><ele>9.166666666666666</ele><time>2026-04-09T08:32:29.875Z</time></trkpt><trkpt lat="38.3441867" lon="16.46697"><ele>9.333333333333334</ele><time>2026-04-09T08:32:30.875Z</time></trkpt><trkpt lat="38.344235" lon="16.4670417"><ele>9.5</ele><time>2026-04-09T08:32:31.875Z</time></trkpt><trkpt lat="38.3442817" lon="16.467115"><ele>9.666666666666668</ele><time>2026-04-09T08:32:32.874Z</time></trkpt><trkpt lat="38.3443233" lon="16.4671883"><ele>9.833333333333334</ele><time>2026-04-09T08:32:33.875Z</time></trkpt><trkpt lat="38.34436" lon="16.4672583"><ele>10.0</ele><time>2026-04-09T08:32:34.874Z</time></trkpt><trkpt lat="38.3444033" lon="16.4673617"><ele>9.666666666666668</ele><time>2026-04-09T08:32:36.874Z</time></trkpt><trkpt lat="38.34445" lon="16.467445"><ele>9.333333333333334</ele><time>2026-04-09T08:32:39.874Z</time></trkpt><trkpt lat="38.3444967" lon="16.467525"><ele>9.0</ele><time>2026-04-09T08:32:41.875Z</time></trkpt><trkpt lat="38.34454" lon="16.467635"><ele>8.666666666666666</ele><time>2026-04-09T08:32:43.875Z</time></trkpt><trkpt lat="38.34457" lon="16.4677783"><ele>8.333333333333332</ele><time>2026-04-09T08:32:45.875Z</time></trkpt><trkpt lat="38.344585" lon="16.4678567"><ele>8.0</ele><time>2026-04-09T08:32:46.875Z</time></trkpt><trkpt lat="38.3446167" lon="16.46793"><ele>7.800000000000001</ele><time>2026-04-09T08:32:47.875Z</time></trkpt><trkpt lat="38.344705" lon="16.4680083"><ele>7.6000000000000005</ele><time>2026-04-09T08:32:49.875Z</time></trkpt><trkpt lat="38.3448233" lon="16.4679583"><ele>7.3999999999999995</ele><time>2026-04-09T08:32:51.875Z</time></trkpt><trkpt lat="38.3448817" lon="16.467865"><ele>7.199999999999999</ele><time>2026-04-09T08:32:52.874Z</time></trkpt><trkpt lat="38.3449367" lon="16.4677617"><ele>7.0</ele><time>2026-04-09T08:32:53.875Z</time></trkpt><trkpt lat="38.3449933" lon="16.4676617"><ele>7.8</ele><time>2026-04-09T08:32:54.874Z</time></trkpt><trkpt lat="38.3450683" lon="16.4675633"><ele>8.6</ele><time>2026-04-09T08:32:55.875Z</time></trkpt><trkpt lat="38.345145" lon="16.46747"><ele>9.4</ele><time>2026-04-09T08:32:56.875Z</time></trkpt><trkpt lat="38.3452" lon="16.4674017"><ele>10.200000000000001</ele><time>2026-04-09T08:32:57.875Z</time></trkpt><trkpt lat="38.3452883" lon="16.467305"><ele>11.0</ele><time>2026-04-09T08:32:59.874Z</time></trkpt><trkpt lat="38.3453633" lon="16.4672117"><ele>11.0</ele><time>2026-04-09T08:33:01.875Z</time></trkpt><trkpt lat="38.3454233" lon="16.4671433"><ele>11.0</ele><time>2026-04-09T08:33:03.875Z</time></trkpt><trkpt lat="38.3454733" lon="16.4670883"><ele>11.0</ele><time>2026-04-09T08:33:05.874Z</time></trkpt><trkpt lat="38.3455233" lon="16.4670367"><ele>11.0</ele><time>2026-04-09T08:33:07.874Z</time></trkpt><trkpt lat="38.345575" lon="16.4669583"><ele>11.0</ele><time>2026-04-09T08:33:10.874Z</time></trkpt><trkpt lat="38.3456333" lon="16.4669"><ele>11.0</ele><time>2026-04-09T08:33:13.874Z</time></trkpt><trkpt lat="38.345715" lon="16.4668417"><ele>11.333333333333332</ele><time>2026-04-09T08:33:16.875Z</time></trkpt><trkpt lat="38.3457767" lon="16.4667867"><ele>11.666666666666666</ele><time>2026-04-09T08:33:18.875Z</time></trkpt><trkpt lat="38.3458533" lon="16.4667233"><ele>12.0</ele><time>2026-04-09T08:33:20.875Z</time></trkpt><trkpt lat="38.3459267" lon="16.4666833"><ele>12.333333333333332</ele><time>2026-04-09T08:33:22.874Z</time></trkpt><trkpt lat="38.3459933" lon="16.4666383"><ele>12.666666666666666</ele><time>2026-04-09T08:33:25.875Z</time></trkpt><trkpt lat="38.3460817" lon="16.4666117"><ele>13.0</ele><time>2026-04-09T08:33:27.875Z</time></trkpt><trkpt lat="38.3462017" lon="16.466565"><ele>12.999999999999998</ele><time>2026-04-09T08:33:29.874Z</time></trkpt><trkpt lat="38.3462733" lon="16.4665283"><ele>13.0</ele><time>2026-04-09T08:33:30.874Z</time></trkpt><trkpt lat="38.34634" lon="16.46649"><ele>13.0</ele><time>2026-04-09T08:33:31.874Z</time></trkpt><trkpt lat="38.346405" lon="16.466445"><ele>13.0</ele><time>2026-04-09T08:33:32.874Z</time></trkpt><trkpt lat="38.34648" lon="16.466405"><ele>12.999999999999998</ele><time>2026-04-09T08:33:33.874Z</time></trkpt><trkpt lat="38.3465633" lon="16.4663633"><ele>13.0</ele><time>2026-04-09T08:33:34.874Z</time></trkpt><trkpt lat="38.3466333" lon="16.46631"><ele>14.8</ele><time>2026-04-09T08:33:35.874Z</time></trkpt><trkpt lat="38.3467067" lon="16.466265"><ele>16.6</ele><time>2026-04-09T08:33:36.875Z</time></trkpt><trkpt lat="38.3467933" lon="16.4662067"><ele>18.400000000000002</ele><time>2026-04-09T08:33:37.875Z</time></trkpt><trkpt lat="38.3468783" lon="16.4661433"><ele>20.200000000000003</ele><time>2026-04-09T08:33:38.875Z</time></trkpt><trkpt lat="38.3469717" lon="16.466095"><ele>22.0</ele><time>2026-04-09T08:33:39.874Z</time></trkpt><trkpt lat="38.3470667" lon="16.4660333"><ele>22.0</ele><time>2026-04-09T08:33:40.875Z</time></trkpt><trkpt lat="38.347175" lon="16.4659767"><ele>22.0</ele><time>2026-04-09T08:33:41.875Z</time></trkpt><trkpt lat="38.3472933" lon="16.4659167"><ele>22.0</ele><time>2026-04-09T08:33:42.874Z</time></trkpt><trkpt lat="38.3474017" lon="16.4658583"><ele>22.0</ele><time>2026-04-09T08:33:43.874Z</time></trkpt><trkpt lat="38.3475183" lon="16.4657883"><ele>20.25</ele><time>2026-04-09T08:33:44.875Z</time></trkpt><trkpt lat="38.3476417" lon="16.4657117"><ele>18.5</ele><time>2026-04-09T08:33:45.874Z</time></trkpt><trkpt lat="38.3477667" lon="16.4656333"><ele>16.75</ele><time>2026-04-09T08:33:46.875Z</time></trkpt><trkpt lat="38.3478983" lon="16.46555"><ele>15.0</ele><time>2026-04-09T08:33:47.874Z</time></trkpt><trkpt lat="38.3480183" lon="16.4654633"><ele>16.0</ele><time>2026-04-09T08:33:48.874Z</time></trkpt><trkpt lat="38.3481333" lon="16.4653617"><ele>17.0</ele><time>2026-04-09T08:33:49.875Z</time></trkpt><trkpt lat="38.3482467" lon="16.4652667"><ele>18.0</ele><time>2026-04-09T08:33:50.874Z</time></trkpt><trkpt lat="38.3483583" lon="16.4651767"><ele>19.0</ele><time>2026-04-09T08:33:51.874Z</time></trkpt><trkpt lat="38.3484817" lon="16.4650917"><ele>19.0</ele><time>2026-04-09T08:33:52.874Z</time></trkpt><trkpt lat="38.3486217" lon="16.4650217"><ele>19.0</ele><time>2026-04-09T08:33:53.874Z</time></trkpt><trkpt lat="38.34877" lon="16.4649583"><ele>19.0</ele><time>2026-04-09T08:33:54.874Z</time></trkpt><trkpt lat="38.3489183" lon="16.4648833"><ele>18.5</ele><time>2026-04-09T08:33:55.874Z</time></trkpt><trkpt lat="38.349045" lon="16.46482"><ele>18.0</ele><time>2026-04-09T08:33:56.875Z</time></trkpt><trkpt lat="38.3491717" lon="16.4647583"><ele>17.5</ele><time>2026-04-09T08:33:57.875Z</time></trkpt><trkpt lat="38.3492917" lon="16.4646883"><ele>17.0</ele><time>2026-04-09T08:33:58.875Z</time></trkpt><trkpt lat="38.3494083" lon="16.464605"><ele>17.25</ele><time>2026-04-09T08:33:59.875Z</time></trkpt><trkpt lat="38.349505" lon="16.4644883"><ele>17.5</ele><time>2026-04-09T08:34:00.875Z</time></trkpt><trkpt lat="38.349605" lon="16.4643517"><ele>17.75</ele><time>2026-04-09T08:34:01.875Z</time></trkpt><trkpt lat="38.349705" lon="16.4642117"><ele>18.0</ele><time>2026-04-09T08:34:02.874Z</time></trkpt><trkpt lat="38.3497883" lon="16.464065"><ele>18.0</ele><time>2026-04-09T08:34:03.874Z</time></trkpt><trkpt lat="38.34988" lon="16.4639383"><ele>18.0</ele><time>2026-04-09T08:34:04.875Z</time></trkpt><trkpt lat="38.34998" lon="16.4638283"><ele>18.0</ele><time>2026-04-09T08:34:05.874Z</time></trkpt><trkpt lat="38.3500967" lon="16.463735"><ele>18.0</ele><time>2026-04-09T08:34:06.875Z</time></trkpt><trkpt lat="38.350245" lon="16.4636617"><ele>19.333333333333332</ele><time>2026-04-09T08:34:07.874Z</time></trkpt><trkpt lat="38.3504083" lon="16.463585"><ele>20.666666666666664</ele><time>2026-04-09T08:34:08.874Z</time></trkpt><trkpt lat="38.3505717" lon="16.4635017"><ele>22.0</ele><time>2026-04-09T08:34:09.874Z</time></trkpt><trkpt lat="38.35073" lon="16.4634283"><ele>22.0</ele><time>2026-04-09T08:34:10.874Z</time></trkpt><trkpt lat="38.3508733" lon="16.4633583"><ele>22.0</ele><time>2026-04-09T08:34:11.875Z</time></trkpt><trkpt lat="38.3510233" lon="16.4632933"><ele>22.0</ele><time>2026-04-09T08:34:12.875Z</time></trkpt><trkpt lat="38.35116" lon="16.4632183"><ele>22.0</ele><time>2026-04-09T08:34:13.875Z</time></trkpt><trkpt lat="38.3513067" lon="16.4631383"><ele>22.0</ele><time>2026-04-09T08:34:14.875Z</time></trkpt><trkpt lat="38.3514367" lon="16.463015"><ele>22.0</ele><time>2026-04-09T08:34:15.874Z</time></trkpt><trkpt lat="38.35157" lon="16.462885"><ele>22.666666666666664</ele><time>2026-04-09T08:34:16.875Z</time></trkpt><trkpt lat="38.3516933" lon="16.4627417"><ele>23.333333333333332</ele><time>2026-04-09T08:34:17.874Z</time></trkpt><trkpt lat="38.3518233" lon="16.4626"><ele>24.0</ele><time>2026-04-09T08:34:18.875Z</time></trkpt><trkpt lat="38.351955" lon="16.4624517"><ele>24.0</ele><time>2026-04-09T08:34:19.875Z</time></trkpt><trkpt lat="38.3520917" lon="16.462305"><ele>24.0</ele><time>2026-04-09T08:34:20.875Z</time></trkpt><trkpt lat="38.3522267" lon="16.4621533"><ele>24.0</ele><time>2026-04-09T08:34:21.875Z</time></trkpt><trkpt lat="38.3523583" lon="16.4620133"><ele>25.0</ele><time>2026-04-09T08:34:22.874Z</time></trkpt><trkpt lat="38.3524883" lon="16.4618683"><ele>26.0</ele><time>2026-04-09T08:34:23.875Z</time></trkpt><trkpt lat="38.3526167" lon="16.4617383"><ele>27.0</ele><time>2026-04-09T08:34:24.874Z</time></trkpt><trkpt lat="38.3527483" lon="16.4616117"><ele>27.0</ele><time>2026-04-09T08:34:25.875Z</time></trkpt><trkpt lat="38.3528767" lon="16.461475"><ele>27.0</ele><time>2026-04-09T08:34:26.875Z</time></trkpt><trkpt lat="38.35301" lon="16.46135"><ele>27.0</ele><time>2026-04-09T08:34:27.875Z</time></trkpt><trkpt lat="38.3531533" lon="16.4612167"><ele>27.0</ele><time>2026-04-09T08:34:28.874Z</time></trkpt><trkpt lat="38.3533" lon="16.46109"><ele>27.0</ele><time>2026-04-09T08:34:29.874Z</time></trkpt><trkpt lat="38.3534467" lon="16.4609617"><ele>27.0</ele><time>2026-04-09T08:34:30.874Z</time></trkpt><trkpt lat="38.3535867" lon="16.4608433"><ele>27.0</ele><time>2026-04-09T08:34:31.875Z</time></trkpt><trkpt lat="38.3537317" lon="16.460715"><ele>27.0</ele><time>2026-04-09T08:34:32.874Z</time></trkpt><trkpt lat="38.353875" lon="16.4605933"><ele>27.0</ele><time>2026-04-09T08:34:33.875Z</time></trkpt><trkpt lat="38.3540217" lon="16.4604767"><ele>28.0</ele><time>2026-04-09T08:34:34.875Z</time></trkpt><trkpt lat="38.3541583" lon="16.46035"><ele>29.0</ele><time>2026-04-09T08:34:35.874Z</time></trkpt><trkpt lat="38.354305" lon="16.4602233"><ele>30.0</ele><time>2026-04-09T08:34:36.875Z</time></trkpt><trkpt lat="38.3544517" lon="16.460095"><ele>30.0</ele><time>2026-04-09T08:34:37.875Z</time></trkpt><trkpt lat="38.3546" lon="16.45997"><ele>30.0</ele><time>2026-04-09T08:34:38.874Z</time></trkpt><trkpt lat="38.35474" lon="16.4598517"><ele>30.0</ele><time>2026-04-09T08:34:39.874Z</time></trkpt><trkpt lat="38.3548883" lon="16.45972"><ele>30.666666666666664</ele><time>2026-04-09T08:34:40.874Z</time></trkpt><trkpt lat="38.35504" lon="16.4595933"><ele>31.333333333333332</ele><time>2026-04-09T08:34:41.874Z</time></trkpt><trkpt lat="38.3551933" lon="16.4594733"><ele>32.0</ele><time>2026-04-09T08:34:42.875Z</time></trkpt><trkpt lat="38.3553483" lon="16.4593417"><ele>32.0</ele><time>2026-04-09T08:34:43.874Z</time></trkpt><trkpt lat="38.35547" lon="16.459205"><ele>32.0</ele><time>2026-04-09T08:34:44.875Z</time></trkpt><trkpt lat="38.3555833" lon="16.4590433"><ele>32.0</ele><time>2026-04-09T08:34:45.875Z</time></trkpt><trkpt lat="38.355685" lon="16.4588667"><ele>31.333333333333332</ele><time>2026-04-09T08:34:46.875Z</time></trkpt><trkpt lat="38.355785" lon="16.4586867"><ele>30.666666666666664</ele><time>2026-04-09T08:34:47.875Z</time></trkpt><trkpt lat="38.35589" lon="16.45851"><ele>30.0</ele><time>2026-04-09T08:34:48.875Z</time></trkpt><trkpt lat="38.3559933" lon="16.4583317"><ele>30.0</ele><time>2026-04-09T08:34:49.875Z</time></trkpt><trkpt lat="38.35611" lon="16.4581533"><ele>30.0</ele><time>2026-04-09T08:34:50.875Z</time></trkpt><trkpt lat="38.3562117" lon="16.4579783"><ele>30.0</ele><time>2026-04-09T08:34:51.875Z</time></trkpt><trkpt lat="38.3563" lon="16.457805"><ele>29.666666666666664</ele><time>2026-04-09T08:34:52.875Z</time></trkpt><trkpt lat="38.3563933" lon="16.4576417"><ele>29.333333333333332</ele><time>2026-04-09T08:34:53.874Z</time></trkpt><trkpt lat="38.3564833" lon="16.45748"><ele>29.0</ele><time>2026-04-09T08:34:54.875Z</time></trkpt><trkpt lat="38.3565683" lon="16.4573383"><ele>29.0</ele><time>2026-04-09T08:34:55.875Z</time></trkpt><trkpt lat="38.35665" lon="16.4572"><ele>29.0</ele><time>2026-04-09T08:34:56.875Z</time></trkpt><trkpt lat="38.356735" lon="16.4570617"><ele>29.0</ele><time>2026-04-09T08:34:57.875Z</time></trkpt><trkpt lat="38.3568267" lon="16.4569233"><ele>29.0</ele><time>2026-04-09T08:34:58.874Z</time></trkpt><trkpt lat="38.3569217" lon="16.4567767"><ele>28.333333333333332</ele><time>2026-04-09T08:34:59.874Z</time></trkpt><trkpt lat="38.3570283" lon="16.4566367"><ele>27.666666666666664</ele><time>2026-04-09T08:35:00.875Z</time></trkpt><trkpt lat="38.3571467" lon="16.4565017"><ele>27.0</ele><time>2026-04-09T08:35:01.875Z</time></trkpt><trkpt lat="38.357275" lon="16.4563683"><ele>28.666666666666664</ele><time>2026-04-09T08:35:02.874Z</time></trkpt><trkpt lat="38.3574033" lon="16.4562267"><ele>30.333333333333332</ele><time>2026-04-09T08:35:03.875Z</time></trkpt><trkpt lat="38.3575283" lon="16.4560883"><ele>32.0</ele><time>2026-04-09T08:35:04.874Z</time></trkpt><trkpt lat="38.35764" lon="16.45595"><ele>32.0</ele><time>2026-04-09T08:35:05.875Z</time></trkpt><trkpt lat="38.3577483" lon="16.455805"><ele>32.0</ele><time>2026-04-09T08:35:06.875Z</time></trkpt><trkpt lat="38.3578483" lon="16.4556467"><ele>32.0</ele><time>2026-04-09T08:35:07.874Z</time></trkpt><trkpt lat="38.3579333" lon="16.455475"><ele>30.0</ele><time>2026-04-09T08:35:08.874Z</time></trkpt><trkpt lat="38.35802" lon="16.4552983"><ele>28.0</ele><time>2026-04-09T08:35:09.875Z</time></trkpt><trkpt lat="38.358095" lon="16.4551183"><ele>26.0</ele><time>2026-04-09T08:35:10.874Z</time></trkpt><trkpt lat="38.3581733" lon="16.4549333"><ele>26.0</ele><time>2026-04-09T08:35:11.875Z</time></trkpt><trkpt lat="38.3582567" lon="16.454745"><ele>26.0</ele><time>2026-04-09T08:35:12.875Z</time></trkpt><trkpt lat="38.3583417" lon="16.454555"><ele>26.0</ele><time>2026-04-09T08:35:13.875Z</time></trkpt><trkpt lat="38.358425" lon="16.45436"><ele>27.0</ele><time>2026-04-09T08:35:14.875Z</time></trkpt><trkpt lat="38.3585083" lon="16.45416"><ele>28.0</ele><time>2026-04-09T08:35:15.875Z</time></trkpt><trkpt lat="38.3585933" lon="16.453965"><ele>29.0</ele><time>2026-04-09T08:35:16.874Z</time></trkpt><trkpt lat="38.3586783" lon="16.45377"><ele>28.666666666666664</ele><time>2026-04-09T08:35:17.875Z</time></trkpt><trkpt lat="38.3587667" lon="16.4535717"><ele>28.333333333333336</ele><time>2026-04-09T08:35:18.874Z</time></trkpt><trkpt lat="38.3588483" lon="16.453375"><ele>28.0</ele><time>2026-04-09T08:35:19.875Z</time></trkpt><trkpt lat="38.3589283" lon="16.45318"><ele>28.0</ele><time>2026-04-09T08:35:20.874Z</time></trkpt><trkpt lat="38.358995" lon="16.4529717"><ele>28.0</ele><time>2026-04-09T08:35:21.874Z</time></trkpt><trkpt lat="38.359045" lon="16.452765"><ele>28.0</ele><time>2026-04-09T08:35:22.875Z</time></trkpt><trkpt lat="38.3590717" lon="16.4525567"><ele>29.333333333333336</ele><time>2026-04-09T08:35:23.874Z</time></trkpt><trkpt lat="38.3591017" lon="16.4523467"><ele>30.666666666666664</ele><time>2026-04-09T08:35:24.875Z</time></trkpt><trkpt lat="38.3591433" lon="16.452135"><ele>32.0</ele><time>2026-04-09T08:35:25.875Z</time></trkpt><trkpt lat="38.3591867" lon="16.4519283"><ele>34.0</ele><time>2026-04-09T08:35:26.875Z</time></trkpt><trkpt lat="38.35924" lon="16.4517317"><ele>36.0</ele><time>2026-04-09T08:35:27.875Z</time></trkpt><trkpt lat="38.3593217" lon="16.45155"><ele>38.0</ele><time>2026-04-09T08:35:28.875Z</time></trkpt><trkpt lat="38.3594217" lon="16.45137"><ele>36.33333333333333</ele><time>2026-04-09T08:35:29.874Z</time></trkpt><trkpt lat="38.35952" lon="16.4511983"><ele>34.666666666666664</ele><time>2026-04-09T08:35:30.875Z</time></trkpt><trkpt lat="38.359615" lon="16.4510317"><ele>33.0</ele><time>2026-04-09T08:35:31.875Z</time></trkpt><trkpt lat="38.35971" lon="16.4508567"><ele>33.0</ele><time>2026-04-09T08:35:32.874Z</time></trkpt><trkpt lat="38.35979" lon="16.450675"><ele>33.0</ele><time>2026-04-09T08:35:33.875Z</time></trkpt><trkpt lat="38.3598717" lon="16.4504867"><ele>33.0</ele><time>2026-04-09T08:35:34.875Z</time></trkpt><trkpt lat="38.359945" lon="16.45029"><ele>34.666666666666664</ele><time>2026-04-09T08:35:35.874Z</time></trkpt><trkpt lat="38.36001" lon="16.450095"><ele>36.33333333333333</ele><time>2026-04-09T08:35:36.874Z</time></trkpt><trkpt lat="38.3600833" lon="16.449905"><ele>38.0</ele><time>2026-04-09T08:35:37.874Z</time></trkpt><trkpt lat="38.3601583" lon="16.449715"><ele>39.33333333333333</ele><time>2026-04-09T08:35:38.875Z</time></trkpt><trkpt lat="38.360235" lon="16.44953"><ele>40.666666666666664</ele><time>2026-04-09T08:35:39.875Z</time></trkpt><trkpt lat="38.3603033" lon="16.44933"><ele>42.0</ele><time>2026-04-09T08:35:40.875Z</time></trkpt><trkpt lat="38.360375" lon="16.449135"><ele>42.0</ele><time>2026-04-09T08:35:41.875Z</time></trkpt><trkpt lat="38.3604517" lon="16.4489367"><ele>42.0</ele><time>2026-04-09T08:35:42.874Z</time></trkpt><trkpt lat="38.3605217" lon="16.4487317"><ele>42.0</ele><time>2026-04-09T08:35:43.874Z</time></trkpt><trkpt lat="38.3606" lon="16.4485283"><ele>40.333333333333336</ele><time>2026-04-09T08:35:44.875Z</time></trkpt><trkpt lat="38.36068" lon="16.4483383"><ele>38.66666666666667</ele><time>2026-04-09T08:35:45.875Z</time></trkpt><trkpt lat="38.360765" lon="16.4481617"><ele>37.0</ele><time>2026-04-09T08:35:46.875Z</time></trkpt><trkpt lat="38.36086" lon="16.44799"><ele>38.66666666666667</ele><time>2026-04-09T08:35:47.874Z</time></trkpt><trkpt lat="38.3609683" lon="16.447835"><ele>40.333333333333336</ele><time>2026-04-09T08:35:48.875Z</time></trkpt><trkpt lat="38.361085" lon="16.447685"><ele>42.0</ele><time>2026-04-09T08:35:49.875Z</time></trkpt><trkpt lat="38.36121" lon="16.4475383"><ele>42.0</ele><time>2026-04-09T08:35:50.874Z</time></trkpt><trkpt lat="38.361335" lon="16.4473783"><ele>42.0</ele><time>2026-04-09T08:35:51.875Z</time></trkpt><trkpt lat="38.36146" lon="16.44722"><ele>42.0</ele><time>2026-04-09T08:35:52.874Z</time></trkpt><trkpt lat="38.3615817" lon="16.447055"><ele>41.666666666666664</ele><time>2026-04-09T08:35:53.874Z</time></trkpt><trkpt lat="38.3617067" lon="16.446895"><ele>41.33333333333333</ele><time>2026-04-09T08:35:54.875Z</time></trkpt><trkpt lat="38.3618317" lon="16.4467267"><ele>41.0</ele><time>2026-04-09T08:35:55.875Z</time></trkpt><trkpt lat="38.3619617" lon="16.4465683"><ele>41.0</ele><time>2026-04-09T08:35:56.875Z</time></trkpt><trkpt lat="38.3620883" lon="16.446415"><ele>41.0</ele><time>2026-04-09T08:35:57.875Z</time></trkpt><trkpt lat="38.3622133" lon="16.4462567"><ele>41.0</ele><time>2026-04-09T08:35:58.874Z</time></trkpt><trkpt lat="38.36234" lon="16.4460917"><ele>40.33333333333333</ele><time>2026-04-09T08:35:59.874Z</time></trkpt><trkpt lat="38.36247" lon="16.4459383"><ele>39.666666666666664</ele><time>2026-04-09T08:36:00.875Z</time></trkpt><trkpt lat="38.362605" lon="16.4457817"><ele>39.0</ele><time>2026-04-09T08:36:01.874Z</time></trkpt><trkpt lat="38.3627333" lon="16.445625"><ele>39.0</ele><time>2026-04-09T08:36:02.874Z</time></trkpt><trkpt lat="38.3628617" lon="16.44547"><ele>39.0</ele><time>2026-04-09T08:36:03.875Z</time></trkpt><trkpt lat="38.3629867" lon="16.4453117"><ele>39.0</ele><time>2026-04-09T08:36:04.875Z</time></trkpt><trkpt lat="38.3631117" lon="16.4451567"><ele>40.0</ele><time>2026-04-09T08:36:05.874Z</time></trkpt><trkpt lat="38.3632333" lon="16.4450017"><ele>41.0</ele><time>2026-04-09T08:36:06.875Z</time></trkpt><trkpt lat="38.3633733" lon="16.4448417"><ele>42.0</ele><time>2026-04-09T08:36:07.874Z</time></trkpt><trkpt lat="38.363505" lon="16.4446717"><ele>41.666666666666664</ele><time>2026-04-09T08:36:08.875Z</time></trkpt><trkpt lat="38.3636417" lon="16.4445067"><ele>41.33333333333333</ele><time>2026-04-09T08:36:09.874Z</time></trkpt><trkpt lat="38.3637683" lon="16.4443367"><ele>41.0</ele><time>2026-04-09T08:36:10.874Z</time></trkpt><trkpt lat="38.3638983" lon="16.44417"><ele>41.0</ele><time>2026-04-09T08:36:11.875Z</time></trkpt><trkpt lat="38.36403" lon="16.4440033"><ele>41.0</ele><time>2026-04-09T08:36:12.875Z</time></trkpt><trkpt lat="38.3641617" lon="16.4438383"><ele>41.0</ele><time>2026-04-09T08:36:13.874Z</time></trkpt><trkpt lat="38.364295" lon="16.44368"><ele>43.0</ele><time>2026-04-09T08:36:14.875Z</time></trkpt><trkpt lat="38.3644283" lon="16.4435217"><ele>45.0</ele><time>2026-04-09T08:36:15.874Z</time></trkpt><trkpt lat="38.3645583" lon="16.4433583"><ele>47.0</ele><time>2026-04-09T08:36:16.874Z</time></trkpt><trkpt lat="38.3646867" lon="16.44319"><ele>46.0</ele><time>2026-04-09T08:36:17.875Z</time></trkpt><trkpt lat="38.364815" lon="16.4430183"><ele>45.0</ele><time>2026-04-09T08:36:18.875Z</time></trkpt><trkpt lat="38.36494" lon="16.442845"><ele>44.0</ele><time>2026-04-09T08:36:19.875Z</time></trkpt><trkpt lat="38.3650667" lon="16.4426767"><ele>44.0</ele><time>2026-04-09T08:36:20.875Z</time></trkpt><trkpt lat="38.365195" lon="16.4425133"><ele>44.0</ele><time>2026-04-09T08:36:21.875Z</time></trkpt><trkpt lat="38.3653233" lon="16.442355"><ele>44.0</ele><time>2026-04-09T08:36:22.874Z</time></trkpt><trkpt lat="38.3654617" lon="16.4422117"><ele>45.33333333333333</ele><time>2026-04-09T08:36:23.875Z</time></trkpt><trkpt lat="38.365605" lon="16.4420767"><ele>46.666666666666664</ele><time>2026-04-09T08:36:24.874Z</time></trkpt><trkpt lat="38.3657583" lon="16.4419367"><ele>48.0</ele><time>2026-04-09T08:36:25.875Z</time></trkpt><trkpt lat="38.3659083" lon="16.441805"><ele>48.0</ele><time>2026-04-09T08:36:26.875Z</time></trkpt><trkpt lat="38.3660517" lon="16.4416683"><ele>48.0</ele><time>2026-04-09T08:36:27.874Z</time></trkpt><trkpt lat="38.366185" lon="16.44154"><ele>48.0</ele><time>2026-04-09T08:36:28.874Z</time></trkpt><trkpt lat="38.3663183" lon="16.441415"><ele>48.33333333333333</ele><time>2026-04-09T08:36:29.874Z</time></trkpt><trkpt lat="38.3664417" lon="16.4412833"><ele>48.666666666666664</ele><time>2026-04-09T08:36:30.875Z</time></trkpt><trkpt lat="38.3665417" lon="16.4411267"><ele>49.0</ele><time>2026-04-09T08:36:31.875Z</time></trkpt><trkpt lat="38.36663" lon="16.440945"><ele>49.0</ele><time>2026-04-09T08:36:32.874Z</time></trkpt><trkpt lat="38.3666983" lon="16.4407533"><ele>49.0</ele><time>2026-04-09T08:36:33.875Z</time></trkpt><trkpt lat="38.3667667" lon="16.4405583"><ele>49.0</ele><time>2026-04-09T08:36:34.874Z</time></trkpt><trkpt lat="38.366835" lon="16.4403767"><ele>49.33333333333333</ele><time>2026-04-09T08:36:35.874Z</time></trkpt><trkpt lat="38.3669067" lon="16.4402"><ele>49.66666666666667</ele><time>2026-04-09T08:36:36.874Z</time></trkpt><trkpt lat="38.36698" lon="16.4400267"><ele>50.0</ele><time>2026-04-09T08:36:37.875Z</time></trkpt><trkpt lat="38.3670567" lon="16.4398633"><ele>50.0</ele><time>2026-04-09T08:36:38.875Z</time></trkpt><trkpt lat="38.367145" lon="16.4397083"><ele>50.0</ele><time>2026-04-09T08:36:39.875Z</time></trkpt><trkpt lat="38.3672583" lon="16.4395767"><ele>50.0</ele><time>2026-04-09T08:36:40.874Z</time></trkpt><trkpt lat="38.36739" lon="16.4394567"><ele>48.66666666666667</ele><time>2026-04-09T08:36:41.874Z</time></trkpt><trkpt lat="38.36753" lon="16.439355"><ele>47.333333333333336</ele><time>2026-04-09T08:36:42.874Z</time></trkpt><trkpt lat="38.3676667" lon="16.4392583"><ele>46.0</ele><time>2026-04-09T08:36:43.874Z</time></trkpt><trkpt lat="38.3677917" lon="16.4391467"><ele>46.0</ele><time>2026-04-09T08:36:44.874Z</time></trkpt><trkpt lat="38.36793" lon="16.439035"><ele>46.0</ele><time>2026-04-09T08:36:45.874Z</time></trkpt><trkpt lat="38.368055" lon="16.4389067"><ele>46.0</ele><time>2026-04-09T08:36:46.874Z</time></trkpt><trkpt lat="38.3681683" lon="16.4387533"><ele>47.0</ele><time>2026-04-09T08:36:47.874Z</time></trkpt><trkpt lat="38.36826" lon="16.4385783"><ele>48.0</ele><time>2026-04-09T08:36:48.875Z</time></trkpt><trkpt lat="38.3683567" lon="16.438405"><ele>49.0</ele><time>2026-04-09T08:36:49.874Z</time></trkpt><trkpt lat="38.36845" lon="16.4382283"><ele>49.0</ele><time>2026-04-09T08:36:50.874Z</time></trkpt><trkpt lat="38.3685467" lon="16.4380567"><ele>49.0</ele><time>2026-04-09T08:36:51.875Z</time></trkpt><trkpt lat="38.3686417" lon="16.4378883"><ele>49.0</ele><time>2026-04-09T08:36:52.875Z</time></trkpt><trkpt lat="38.3687283" lon="16.4377233"><ele>49.666666666666664</ele><time>2026-04-09T08:36:53.874Z</time></trkpt><trkpt lat="38.3688067" lon="16.437565"><ele>50.33333333333333</ele><time>2026-04-09T08:36:54.874Z</time></trkpt><trkpt lat="38.3688817" lon="16.437395"><ele>51.0</ele><time>2026-04-09T08:36:55.874Z</time></trkpt><trkpt lat="38.3689467" lon="16.4372167"><ele>52.66666666666667</ele><time>2026-04-09T08:36:56.875Z</time></trkpt><trkpt lat="38.369005" lon="16.4370217"><ele>54.333333333333336</ele><time>2026-04-09T08:36:57.874Z</time></trkpt><trkpt lat="38.369065" lon="16.4368267"><ele>56.0</ele><time>2026-04-09T08:36:58.875Z</time></trkpt><trkpt lat="38.3691133" lon="16.4366233"><ele>56.0</ele><time>2026-04-09T08:36:59.875Z</time></trkpt><trkpt lat="38.3691683" lon="16.4364317"><ele>56.0</ele><time>2026-04-09T08:37:00.874Z</time></trkpt><trkpt lat="38.36922" lon="16.4362333"><ele>56.0</ele><time>2026-04-09T08:37:01.875Z</time></trkpt><trkpt lat="38.3692717" lon="16.436045"><ele>56.66666666666667</ele><time>2026-04-09T08:37:02.874Z</time></trkpt><trkpt lat="38.3693183" lon="16.4358583"><ele>57.33333333333333</ele><time>2026-04-09T08:37:03.874Z</time></trkpt><trkpt lat="38.36937" lon="16.435675"><ele>58.0</ele><time>2026-04-09T08:37:04.874Z</time></trkpt><trkpt lat="38.3694133" lon="16.4354933"><ele>59.25</ele><time>2026-04-09T08:37:05.875Z</time></trkpt><trkpt lat="38.3694583" lon="16.43532"><ele>60.5</ele><time>2026-04-09T08:37:06.875Z</time></trkpt><trkpt lat="38.369515" lon="16.4351533"><ele>61.75</ele><time>2026-04-09T08:37:07.874Z</time></trkpt><trkpt lat="38.36958" lon="16.4349883"><ele>63.0</ele><time>2026-04-09T08:37:08.875Z</time></trkpt><trkpt lat="38.3696617" lon="16.43484"><ele>62.33333333333333</ele><time>2026-04-09T08:37:09.874Z</time></trkpt><trkpt lat="38.3697483" lon="16.4346883"><ele>61.666666666666664</ele><time>2026-04-09T08:37:10.875Z</time></trkpt><trkpt lat="38.3698433" lon="16.4345367"><ele>61.0</ele><time>2026-04-09T08:37:11.874Z</time></trkpt><trkpt lat="38.3699417" lon="16.4343867"><ele>61.0</ele><time>2026-04-09T08:37:12.875Z</time></trkpt><trkpt lat="38.37004" lon="16.4342317"><ele>61.0</ele><time>2026-04-09T08:37:13.875Z</time></trkpt><trkpt lat="38.3701417" lon="16.4340767"><ele>61.0</ele><time>2026-04-09T08:37:14.875Z</time></trkpt><trkpt lat="38.370235" lon="16.433915"><ele>62.666666666666664</ele><time>2026-04-09T08:37:15.875Z</time></trkpt><trkpt lat="38.3703367" lon="16.4337617"><ele>64.33333333333333</ele><time>2026-04-09T08:37:16.874Z</time></trkpt><trkpt lat="38.3704283" lon="16.4335983"><ele>66.0</ele><time>2026-04-09T08:37:17.874Z</time></trkpt><trkpt lat="38.37052" lon="16.4334467"><ele>65.0</ele><time>2026-04-09T08:37:18.875Z</time></trkpt><trkpt lat="38.370625" lon="16.4332967"><ele>64.0</ele><time>2026-04-09T08:37:19.874Z</time></trkpt><trkpt lat="38.3707283" lon="16.4331517"><ele>63.0</ele><time>2026-04-09T08:37:20.875Z</time></trkpt><trkpt lat="38.370825" lon="16.4329983"><ele>64.33333333333333</ele><time>2026-04-09T08:37:21.875Z</time></trkpt><trkpt lat="38.370925" lon="16.43284"><ele>65.66666666666666</ele><time>2026-04-09T08:37:22.874Z</time></trkpt><trkpt lat="38.3710283" lon="16.4326833"><ele>67.0</ele><time>2026-04-09T08:37:23.875Z</time></trkpt><trkpt lat="38.3711417" lon="16.4325317"><ele>67.0</ele><time>2026-04-09T08:37:24.875Z</time></trkpt><trkpt lat="38.3712617" lon="16.432405"><ele>67.0</ele><time>2026-04-09T08:37:25.875Z</time></trkpt><trkpt lat="38.371375" lon="16.4322883"><ele>67.0</ele><time>2026-04-09T08:37:26.875Z</time></trkpt><trkpt lat="38.371485" lon="16.43218"><ele>67.0</ele><time>2026-04-09T08:37:27.875Z</time></trkpt><trkpt lat="38.3715917" lon="16.4320733"><ele>67.75</ele><time>2026-04-09T08:37:28.875Z</time></trkpt><trkpt lat="38.3716983" lon="16.4319717"><ele>68.5</ele><time>2026-04-09T08:37:29.875Z</time></trkpt><trkpt lat="38.3717983" lon="16.4318633"><ele>69.25</ele><time>2026-04-09T08:37:30.874Z</time></trkpt><trkpt lat="38.3718983" lon="16.4317533"><ele>70.0</ele><time>2026-04-09T08:37:31.874Z</time></trkpt><trkpt lat="38.371995" lon="16.431655"><ele>70.0</ele><time>2026-04-09T08:37:32.875Z</time></trkpt><trkpt lat="38.3720883" lon="16.4315633"><ele>70.0</ele><time>2026-04-09T08:37:33.875Z</time></trkpt><trkpt lat="38.3721733" lon="16.4314733"><ele>70.0</ele><time>2026-04-09T08:37:34.875Z</time></trkpt><trkpt lat="38.3722583" lon="16.4314017"><ele>70.0</ele><time>2026-04-09T08:37:35.874Z</time></trkpt><trkpt lat="38.3723367" lon="16.43131"><ele>70.0</ele><time>2026-04-09T08:37:36.874Z</time></trkpt><trkpt lat="38.372395" lon="16.4312117"><ele>69.6</ele><time>2026-04-09T08:37:37.874Z</time></trkpt><trkpt lat="38.3724483" lon="16.431105"><ele>69.2</ele><time>2026-04-09T08:37:38.874Z</time></trkpt><trkpt lat="38.3724817" lon="16.4309667"><ele>68.8</ele><time>2026-04-09T08:37:39.874Z</time></trkpt><trkpt lat="38.3725183" lon="16.4308417"><ele>68.4</ele><time>2026-04-09T08:37:40.875Z</time></trkpt><trkpt lat="38.3725433" lon="16.4307233"><ele>68.0</ele><time>2026-04-09T08:37:41.875Z</time></trkpt><trkpt lat="38.3725567" lon="16.4305967"><ele>68.83333333333334</ele><time>2026-04-09T08:37:42.875Z</time></trkpt><trkpt lat="38.37257" lon="16.43047"><ele>69.66666666666667</ele><time>2026-04-09T08:37:43.874Z</time></trkpt><trkpt lat="38.3725833" lon="16.43034"><ele>70.5</ele><time>2026-04-09T08:37:44.875Z</time></trkpt><trkpt lat="38.3726017" lon="16.4302267"><ele>71.33333333333333</ele><time>2026-04-09T08:37:45.875Z</time></trkpt><trkpt lat="38.3726167" lon="16.4301317"><ele>72.16666666666666</ele><time>2026-04-09T08:37:46.875Z</time></trkpt><trkpt lat="38.3726267" lon="16.4300483"><ele>73.0</ele><time>2026-04-09T08:37:47.875Z</time></trkpt><trkpt lat="38.3726433" lon="16.429905"><ele>73.0</ele><time>2026-04-09T08:37:49.874Z</time></trkpt><trkpt lat="38.3726633" lon="16.4297833"><ele>73.0</ele><time>2026-04-09T08:37:51.875Z</time></trkpt><trkpt lat="38.3726767" lon="16.4296817"><ele>73.0</ele><time>2026-04-09T08:37:54.875Z</time></trkpt><trkpt lat="38.3727017" lon="16.4296017"><ele>73.0</ele><time>2026-04-09T08:37:57.875Z</time></trkpt><trkpt lat="38.3727283" lon="16.4294767"><ele>73.0</ele><time>2026-04-09T08:37:59.875Z</time></trkpt><trkpt lat="38.3727383" lon="16.4293317"><ele>73.5</ele><time>2026-04-09T08:38:01.874Z</time></trkpt><trkpt lat="38.3727467" lon="16.429245"><ele>74.0</ele><time>2026-04-09T08:38:02.874Z</time></trkpt><trkpt lat="38.3727533" lon="16.4291433"><ele>74.5</ele><time>2026-04-09T08:38:03.874Z</time></trkpt><trkpt lat="38.3727733" lon="16.429035"><ele>75.0</ele><time>2026-04-09T08:38:04.875Z</time></trkpt><trkpt lat="38.37279" lon="16.428915"><ele>75.5</ele><time>2026-04-09T08:38:05.875Z</time></trkpt><trkpt lat="38.3728067" lon="16.42879"><ele>76.0</ele><time>2026-04-09T08:38:06.874Z</time></trkpt><trkpt lat="38.3728317" lon="16.42866"><ele>76.5</ele><time>2026-04-09T08:38:07.875Z</time></trkpt><trkpt lat="38.3728533" lon="16.4285167"><ele>77.0</ele><time>2026-04-09T08:38:08.874Z</time></trkpt><trkpt lat="38.37287" lon="16.4283683"><ele>77.5</ele><time>2026-04-09T08:38:09.874Z</time></trkpt><trkpt lat="38.3728883" lon="16.4282067"><ele>78.0</ele><time>2026-04-09T08:38:10.874Z</time></trkpt><trkpt lat="38.3729133" lon="16.42805"><ele>76.75</ele><time>2026-04-09T08:38:11.874Z</time></trkpt><trkpt lat="38.3729367" lon="16.42789"><ele>75.5</ele><time>2026-04-09T08:38:12.875Z</time></trkpt><trkpt lat="38.3729683" lon="16.427725"><ele>74.25</ele><time>2026-04-09T08:38:13.874Z</time></trkpt><trkpt lat="38.3730117" lon="16.4275567"><ele>73.0</ele><time>2026-04-09T08:38:14.875Z</time></trkpt><trkpt lat="38.3730633" lon="16.4273817"><ele>73.0</ele><time>2026-04-09T08:38:15.874Z</time></trkpt><trkpt lat="38.3731217" lon="16.42721"><ele>73.0</ele><time>2026-04-09T08:38:16.875Z</time></trkpt><trkpt lat="38.3731767" lon="16.4270367"><ele>73.0</ele><time>2026-04-09T08:38:17.874Z</time></trkpt><trkpt lat="38.3732283" lon="16.4268717"><ele>73.0</ele><time>2026-04-09T08:38:18.874Z</time></trkpt><trkpt lat="38.3732783" lon="16.4267117"><ele>74.5</ele><time>2026-04-09T08:38:19.875Z</time></trkpt><trkpt lat="38.373325" lon="16.4265683"><ele>76.0</ele><time>2026-04-09T08:38:20.875Z</time></trkpt><trkpt lat="38.3733683" lon="16.4264217"><ele>77.5</ele><time>2026-04-09T08:38:21.875Z</time></trkpt><trkpt lat="38.37341" lon="16.42628"><ele>79.0</ele><time>2026-04-09T08:38:22.874Z</time></trkpt><trkpt lat="38.3734567" lon="16.4261467"><ele>80.0</ele><time>2026-04-09T08:38:23.874Z</time></trkpt><trkpt lat="38.37351" lon="16.4260167"><ele>81.0</ele><time>2026-04-09T08:38:24.875Z</time></trkpt><trkpt lat="38.3735733" lon="16.4258983"><ele>82.0</ele><time>2026-04-09T08:38:25.875Z</time></trkpt><trkpt lat="38.3736517" lon="16.4258017"><ele>83.0</ele><time>2026-04-09T08:38:26.875Z</time></trkpt><trkpt lat="38.3737367" lon="16.4257183"><ele>84.0</ele><time>2026-04-09T08:38:27.874Z</time></trkpt><trkpt lat="38.3738283" lon="16.4256517"><ele>83.2</ele><time>2026-04-09T08:38:28.874Z</time></trkpt><trkpt lat="38.3739267" lon="16.42561"><ele>82.4</ele><time>2026-04-09T08:38:29.874Z</time></trkpt><trkpt lat="38.3740367" lon="16.4255783"><ele>81.6</ele><time>2026-04-09T08:38:30.874Z</time></trkpt><trkpt lat="38.374145" lon="16.4255833"><ele>80.8</ele><time>2026-04-09T08:38:31.875Z</time></trkpt><trkpt lat="38.3742433" lon="16.4256233"><ele>80.0</ele><time>2026-04-09T08:38:32.875Z</time></trkpt><trkpt lat="38.37435" lon="16.4256683"><ele>80.0</ele><time>2026-04-09T08:38:33.874Z</time></trkpt><trkpt lat="38.3744583" lon="16.42569"><ele>80.0</ele><time>2026-04-09T08:38:34.874Z</time></trkpt><trkpt lat="38.3745717" lon="16.4256833"><ele>80.0</ele><time>2026-04-09T08:38:35.875Z</time></trkpt><trkpt lat="38.3746733" lon="16.42564"><ele>80.0</ele><time>2026-04-09T08:38:36.875Z</time></trkpt><trkpt lat="38.37477" lon="16.425575"><ele>80.0</ele><time>2026-04-09T08:38:37.875Z</time></trkpt><trkpt lat="38.37486" lon="16.42547"><ele>82.25</ele><time>2026-04-09T08:38:38.874Z</time></trkpt><trkpt lat="38.37494" lon="16.425345"><ele>84.5</ele><time>2026-04-09T08:38:39.875Z</time></trkpt><trkpt lat="38.375005" lon="16.4252067"><ele>86.75</ele><time>2026-04-09T08:38:40.875Z</time></trkpt><trkpt lat="38.3750633" lon="16.4250683"><ele>89.0</ele><time>2026-04-09T08:38:41.875Z</time></trkpt><trkpt lat="38.375115" lon="16.4249317"><ele>89.0</ele><time>2026-04-09T08:38:42.875Z</time></trkpt><trkpt lat="38.375175" lon="16.4247917"><ele>89.0</ele><time>2026-04-09T08:38:43.874Z</time></trkpt><trkpt lat="38.3752283" lon="16.424645"><ele>89.0</ele><time>2026-04-09T08:38:44.874Z</time></trkpt><trkpt lat="38.3752783" lon="16.4245033"><ele>89.0</ele><time>2026-04-09T08:38:45.875Z</time></trkpt><trkpt lat="38.3753383" lon="16.4243883"><ele>89.0</ele><time>2026-04-09T08:38:46.874Z</time></trkpt><trkpt lat="38.3754" lon="16.42429"><ele>89.0</ele><time>2026-04-09T08:38:47.875Z</time></trkpt><trkpt lat="38.3754633" lon="16.4242117"><ele>89.0</ele><time>2026-04-09T08:38:48.874Z</time></trkpt><trkpt lat="38.375535" lon="16.4241617"><ele>89.0</ele><time>2026-04-09T08:38:49.874Z</time></trkpt><trkpt lat="38.3756333" lon="16.42413"><ele>89.0</ele><time>2026-04-09T08:38:50.875Z</time></trkpt><trkpt lat="38.3757383" lon="16.4241167"><ele>91.0</ele><time>2026-04-09T08:38:51.875Z</time></trkpt><trkpt lat="38.375855" lon="16.42412"><ele>93.0</ele><time>2026-04-09T08:38:52.874Z</time></trkpt><trkpt lat="38.37597" lon="16.4241317"><ele>95.0</ele><time>2026-04-09T08:38:53.875Z</time></trkpt><trkpt lat="38.3760783" lon="16.42415"><ele>97.0</ele><time>2026-04-09T08:38:54.874Z</time></trkpt><trkpt lat="38.3761933" lon="16.42417"><ele>97.0</ele><time>2026-04-09T08:38:55.874Z</time></trkpt><trkpt lat="38.37632" lon="16.4241717"><ele>97.0</ele><time>2026-04-09T08:38:56.875Z</time></trkpt><trkpt lat="38.3764283" lon="16.4241417"><ele>97.0</ele><time>2026-04-09T08:38:57.874Z</time></trkpt><trkpt lat="38.3765383" lon="16.4240767"><ele>97.0</ele><time>2026-04-09T08:38:58.874Z</time></trkpt><trkpt lat="38.3766467" lon="16.4239867"><ele>97.75</ele><time>2026-04-09T08:38:59.875Z</time></trkpt><trkpt lat="38.3767417" lon="16.42389"><ele>98.5</ele><time>2026-04-09T08:39:00.875Z</time></trkpt><trkpt lat="38.3768267" lon="16.4237733"><ele>99.25</ele><time>2026-04-09T08:39:01.875Z</time></trkpt><trkpt lat="38.3769033" lon="16.4236467"><ele>100.0</ele><time>2026-04-09T08:39:02.874Z</time></trkpt><trkpt lat="38.37699" lon="16.4235317"><ele>100.0</ele><time>2026-04-09T08:39:03.874Z</time></trkpt><trkpt lat="38.3770767" lon="16.4233983"><ele>100.0</ele><time>2026-04-09T08:39:04.875Z</time></trkpt><trkpt lat="38.3771617" lon="16.4232633"><ele>100.0</ele><time>2026-04-09T08:39:05.874Z</time></trkpt><trkpt lat="38.3772483" lon="16.42312"><ele>100.0</ele><time>2026-04-09T08:39:06.874Z</time></trkpt><trkpt lat="38.37733" lon="16.422975"><ele>102.75</ele><time>2026-04-09T08:39:07.875Z</time></trkpt><trkpt lat="38.3774033" lon="16.4228233"><ele>105.5</ele><time>2026-04-09T08:39:08.875Z</time></trkpt><trkpt lat="38.3774633" lon="16.4226683"><ele>108.25</ele><time>2026-04-09T08:39:09.874Z</time></trkpt><trkpt lat="38.3775283" lon="16.4225067"><ele>111.0</ele><time>2026-04-09T08:39:10.874Z</time></trkpt><trkpt lat="38.3775867" lon="16.4223433"><ele>111.0</ele><time>2026-04-09T08:39:11.875Z</time></trkpt><trkpt lat="38.3776467" lon="16.4221767"><ele>111.0</ele><time>2026-04-09T08:39:12.875Z</time></trkpt><trkpt lat="38.3777133" lon="16.4220083"><ele>111.0</ele><time>2026-04-09T08:39:13.874Z</time></trkpt><trkpt lat="38.3777733" lon="16.4218283"><ele>111.0</ele><time>2026-04-09T08:39:14.874Z</time></trkpt><trkpt lat="38.3778283" lon="16.4216467"><ele>110.75</ele><time>2026-04-09T08:39:15.874Z</time></trkpt><trkpt lat="38.3778833" lon="16.42148"><ele>110.5</ele><time>2026-04-09T08:39:16.874Z</time></trkpt><trkpt lat="38.377935" lon="16.421315"><ele>110.25</ele><time>2026-04-09T08:39:17.875Z</time></trkpt><trkpt lat="38.3779917" lon="16.4211683"><ele>110.0</ele><time>2026-04-09T08:39:18.875Z</time></trkpt><trkpt lat="38.3780617" lon="16.421035"><ele>112.75</ele><time>2026-04-09T08:39:19.874Z</time></trkpt><trkpt lat="38.37814" lon="16.420915"><ele>115.5</ele><time>2026-04-09T08:39:20.875Z</time></trkpt><trkpt lat="38.3782333" lon="16.4208267"><ele>118.25</ele><time>2026-04-09T08:39:21.874Z</time></trkpt><trkpt lat="38.37835" lon="16.4207517"><ele>121.0</ele><time>2026-04-09T08:39:22.875Z</time></trkpt><trkpt lat="38.3784683" lon="16.420675"><ele>121.0</ele><time>2026-04-09T08:39:23.874Z</time></trkpt><trkpt lat="38.378595" lon="16.4206017"><ele>121.0</ele><time>2026-04-09T08:39:24.875Z</time></trkpt><trkpt lat="38.378705" lon="16.420495"><ele>121.0</ele><time>2026-04-09T08:39:25.875Z</time></trkpt><trkpt lat="38.3788017" lon="16.42037"><ele>121.0</ele><time>2026-04-09T08:39:26.874Z</time></trkpt><trkpt lat="38.37888" lon="16.4202033"><ele>122.0</ele><time>2026-04-09T08:39:27.874Z</time></trkpt><trkpt lat="38.3789383" lon="16.4200417"><ele>123.0</ele><time>2026-04-09T08:39:28.875Z</time></trkpt><trkpt lat="38.3790083" lon="16.4198717"><ele>124.0</ele><time>2026-04-09T08:39:29.874Z</time></trkpt><trkpt lat="38.3790983" lon="16.4197283"><ele>125.0</ele><time>2026-04-09T08:39:30.875Z</time></trkpt><trkpt lat="38.3792033" lon="16.4196"><ele>125.0</ele><time>2026-04-09T08:39:31.874Z</time></trkpt><trkpt lat="38.3793033" lon="16.419465"><ele>125.0</ele><time>2026-04-09T08:39:32.875Z</time></trkpt><trkpt lat="38.379405" lon="16.41934"><ele>125.0</ele><time>2026-04-09T08:39:33.875Z</time></trkpt><trkpt lat="38.379505" lon="16.419215"><ele>125.0</ele><time>2026-04-09T08:39:34.875Z</time></trkpt><trkpt lat="38.3795933" lon="16.4190717"><ele>125.0</ele><time>2026-04-09T08:39:35.874Z</time></trkpt><trkpt lat="38.37966" lon="16.4189117"><ele>125.0</ele><time>2026-04-09T08:39:36.874Z</time></trkpt><trkpt lat="38.3797017" lon="16.418745"><ele>125.0</ele><time>2026-04-09T08:39:37.875Z</time></trkpt><trkpt lat="38.37975" lon="16.41858"><ele>125.0</ele><time>2026-04-09T08:39:38.874Z</time></trkpt><trkpt lat="38.3798117" lon="16.41843"><ele>127.25</ele><time>2026-04-09T08:39:39.875Z</time></trkpt><trkpt lat="38.3799" lon="16.4183033"><ele>129.5</ele><time>2026-04-09T08:39:40.875Z</time></trkpt><trkpt lat="38.3800133" lon="16.418205"><ele>131.75</ele><time>2026-04-09T08:39:41.874Z</time></trkpt><trkpt lat="38.3801283" lon="16.4181117"><ele>134.0</ele><time>2026-04-09T08:39:42.875Z</time></trkpt><trkpt lat="38.3802267" lon="16.41802"><ele>134.0</ele><time>2026-04-09T08:39:43.875Z</time></trkpt><trkpt lat="38.3803183" lon="16.417895"><ele>134.0</ele><time>2026-04-09T08:39:44.874Z</time></trkpt><trkpt lat="38.380395" lon="16.4177533"><ele>134.0</ele><time>2026-04-09T08:39:45.874Z</time></trkpt><trkpt lat="38.3804583" lon="16.417595"><ele>134.0</ele><time>2026-04-09T08:39:46.875Z</time></trkpt><trkpt lat="38.38052" lon="16.4174333"><ele>136.75</ele><time>2026-04-09T08:39:47.875Z</time></trkpt><trkpt lat="38.380575" lon="16.4172667"><ele>139.5</ele><time>2026-04-09T08:39:48.874Z</time></trkpt><trkpt lat="38.3806367" lon="16.4170983"><ele>142.25</ele><time>2026-04-09T08:39:49.875Z</time></trkpt><trkpt lat="38.3806967" lon="16.4169317"><ele>145.0</ele><time>2026-04-09T08:39:50.874Z</time></trkpt><trkpt lat="38.3807617" lon="16.416765"><ele>145.0</ele><time>2026-04-09T08:39:51.874Z</time></trkpt><trkpt lat="38.3808167" lon="16.4166033"><ele>145.0</ele><time>2026-04-09T08:39:52.875Z</time></trkpt><trkpt lat="38.3808617" lon="16.4164283"><ele>145.0</ele><time>2026-04-09T08:39:53.875Z</time></trkpt><trkpt lat="38.3808933" lon="16.416245"><ele>145.0</ele><time>2026-04-09T08:39:54.874Z</time></trkpt><trkpt lat="38.3809233" lon="16.416075"><ele>145.75</ele><time>2026-04-09T08:39:55.874Z</time></trkpt><trkpt lat="38.380955" lon="16.4159033"><ele>146.5</ele><time>2026-04-09T08:39:56.874Z</time></trkpt><trkpt lat="38.3809817" lon="16.4157383"><ele>147.25</ele><time>2026-04-09T08:39:57.874Z</time></trkpt><trkpt lat="38.3810167" lon="16.4155817"><ele>148.0</ele><time>2026-04-09T08:39:58.874Z</time></trkpt><trkpt lat="38.3810617" lon="16.4154367"><ele>149.25</ele><time>2026-04-09T08:39:59.874Z</time></trkpt><trkpt lat="38.38114" lon="16.4153117"><ele>150.5</ele><time>2026-04-09T08:40:00.875Z</time></trkpt><trkpt lat="38.3812267" lon="16.4151967"><ele>151.75</ele><time>2026-04-09T08:40:01.875Z</time></trkpt><trkpt lat="38.3813133" lon="16.4150883"><ele>153.0</ele><time>2026-04-09T08:40:02.874Z</time></trkpt><trkpt lat="38.3813917" lon="16.4149683"><ele>155.0</ele><time>2026-04-09T08:40:03.875Z</time></trkpt><trkpt lat="38.3814367" lon="16.414855"><ele>157.0</ele><time>2026-04-09T08:40:04.875Z</time></trkpt><trkpt lat="38.38145" lon="16.4147133"><ele>159.0</ele><time>2026-04-09T08:40:05.875Z</time></trkpt><trkpt lat="38.3814233" lon="16.4145717"><ele>161.0</ele><time>2026-04-09T08:40:06.874Z</time></trkpt><trkpt lat="38.3813733" lon="16.414465"><ele>163.0</ele><time>2026-04-09T08:40:07.875Z</time></trkpt><trkpt lat="38.3812617" lon="16.4143833"><ele>164.0</ele><time>2026-04-09T08:40:08.874Z</time></trkpt><trkpt lat="38.38113" lon="16.4143267"><ele>165.0</ele><time>2026-04-09T08:40:09.874Z</time></trkpt><trkpt lat="38.3809883" lon="16.414295"><ele>166.0</ele><time>2026-04-09T08:40:10.875Z</time></trkpt><trkpt lat="38.3808483" lon="16.41426"><ele>167.0</ele><time>2026-04-09T08:40:11.875Z</time></trkpt><trkpt lat="38.3807067" lon="16.41422"><ele>167.0</ele><time>2026-04-09T08:40:12.874Z</time></trkpt><trkpt lat="38.3805767" lon="16.4141933"><ele>167.0</ele><time>2026-04-09T08:40:13.875Z</time></trkpt><trkpt lat="38.3804633" lon="16.414165"><ele>167.0</ele><time>2026-04-09T08:40:14.875Z</time></trkpt><trkpt lat="38.3803567" lon="16.4141183"><ele>167.0</ele><time>2026-04-09T08:40:15.875Z</time></trkpt><trkpt lat="38.38027" lon="16.4140533"><ele>166.5</ele><time>2026-04-09T08:40:16.875Z</time></trkpt><trkpt lat="38.38022" lon="16.4139617"><ele>166.0</ele><time>2026-04-09T08:40:17.874Z</time></trkpt><trkpt lat="38.380205" lon="16.4138417"><ele>165.5</ele><time>2026-04-09T08:40:18.875Z</time></trkpt><trkpt lat="38.3802283" lon="16.413725"><ele>165.0</ele><time>2026-04-09T08:40:19.874Z</time></trkpt><trkpt lat="38.3802717" lon="16.4136317"><ele>164.5</ele><time>2026-04-09T08:40:20.874Z</time></trkpt><trkpt lat="38.3803483" lon="16.413595"><ele>164.0</ele><time>2026-04-09T08:40:21.874Z</time></trkpt><trkpt lat="38.3804333" lon="16.4135833"><ele>169.25</ele><time>2026-04-09T08:40:22.875Z</time></trkpt><trkpt lat="38.3805317" lon="16.4136117"><ele>174.5</ele><time>2026-04-09T08:40:23.874Z</time></trkpt><trkpt lat="38.3806433" lon="16.4136733"><ele>179.75</ele><time>2026-04-09T08:40:24.875Z</time></trkpt><trkpt lat="38.3807633" lon="16.4137533"><ele>185.0</ele><time>2026-04-09T08:40:25.874Z</time></trkpt><trkpt lat="38.3808933" lon="16.4138133"><ele>181.5</ele><time>2026-04-09T08:40:26.874Z</time></trkpt><trkpt lat="38.3810217" lon="16.4138617"><ele>178.0</ele><time>2026-04-09T08:40:27.875Z</time></trkpt><trkpt lat="38.381145" lon="16.4139"><ele>174.5</ele><time>2026-04-09T08:40:28.874Z</time></trkpt><trkpt lat="38.381265" lon="16.4139233"><ele>171.0</ele><time>2026-04-09T08:40:29.875Z</time></trkpt><trkpt lat="38.3813767" lon="16.413945"><ele>171.0</ele><time>2026-04-09T08:40:30.874Z</time></trkpt><trkpt lat="38.3814717" lon="16.4139667"><ele>171.0</ele><time>2026-04-09T08:40:31.874Z</time></trkpt><trkpt lat="38.3815567" lon="16.413985"><ele>171.0</ele><time>2026-04-09T08:40:32.875Z</time></trkpt><trkpt lat="38.3816517" lon="16.4139817"><ele>171.0</ele><time>2026-04-09T08:40:33.875Z</time></trkpt><trkpt lat="38.3817517" lon="16.4139467"><ele>171.0</ele><time>2026-04-09T08:40:34.875Z</time></trkpt><trkpt lat="38.38185" lon="16.4138867"><ele>171.0</ele><time>2026-04-09T08:40:35.875Z</time></trkpt><trkpt lat="38.3819483" lon="16.4138233"><ele>171.0</ele><time>2026-04-09T08:40:36.875Z</time></trkpt><trkpt lat="38.3820483" lon="16.4137617"><ele>171.0</ele><time>2026-04-09T08:40:37.874Z</time></trkpt><trkpt lat="38.3821517" lon="16.413745"><ele>171.0</ele><time>2026-04-09T08:40:38.874Z</time></trkpt><trkpt lat="38.3822467" lon="16.4137633"><ele>171.0</ele><time>2026-04-09T08:40:39.874Z</time></trkpt><trkpt lat="38.3823467" lon="16.4138083"><ele>173.0</ele><time>2026-04-09T08:40:40.875Z</time></trkpt><trkpt lat="38.3824483" lon="16.41387"><ele>175.0</ele><time>2026-04-09T08:40:41.874Z</time></trkpt><trkpt lat="38.3825533" lon="16.4139217"><ele>177.0</ele><time>2026-04-09T08:40:42.875Z</time></trkpt><trkpt lat="38.3826383" lon="16.41399"><ele>179.0</ele><time>2026-04-09T08:40:43.875Z</time></trkpt><trkpt lat="38.3826967" lon="16.4140983"><ele>181.0</ele><time>2026-04-09T08:40:44.874Z</time></trkpt><trkpt lat="38.3827217" lon="16.4142233"><ele>181.0</ele><time>2026-04-09T08:40:45.875Z</time></trkpt><trkpt lat="38.382725" lon="16.4143633"><ele>181.0</ele><time>2026-04-09T08:40:46.875Z</time></trkpt><trkpt lat="38.3827267" lon="16.414495"><ele>181.0</ele><time>2026-04-09T08:40:47.875Z</time></trkpt><trkpt lat="38.382735" lon="16.414615"><ele>181.0</ele><time>2026-04-09T08:40:48.875Z</time></trkpt><trkpt lat="38.3827567" lon="16.4147083"><ele>181.0</ele><time>2026-04-09T08:40:49.875Z</time></trkpt><trkpt lat="38.382845" lon="16.4147967"><ele>181.0</ele><time>2026-04-09T08:40:51.874Z</time></trkpt><trkpt lat="38.3829483" lon="16.4146833"><ele>181.0</ele><time>2026-04-09T08:40:53.875Z</time></trkpt><trkpt lat="38.38297" lon="16.4145567"><ele>181.0</ele><time>2026-04-09T08:40:54.874Z</time></trkpt><trkpt lat="38.38296" lon="16.414415"><ele>181.0</ele><time>2026-04-09T08:40:55.874Z</time></trkpt><trkpt lat="38.3829567" lon="16.4142967"><ele>181.0</ele><time>2026-04-09T08:40:56.875Z</time></trkpt><trkpt lat="38.3829583" lon="16.4142133"><ele>181.0</ele><time>2026-04-09T08:40:57.875Z</time></trkpt><trkpt lat="38.382965" lon="16.4140633"><ele>181.0</ele><time>2026-04-09T08:40:59.874Z</time></trkpt><trkpt lat="38.3829733" lon="16.4139817"><ele>181.0</ele><time>2026-04-09T08:41:00.875Z</time></trkpt><trkpt lat="38.382975" lon="16.4138917"><ele>181.0</ele><time>2026-04-09T08:41:01.874Z</time></trkpt><trkpt lat="38.3829783" lon="16.4138033"><ele>181.0</ele><time>2026-04-09T08:41:02.875Z</time></trkpt><trkpt lat="38.3829567" lon="16.4136467"><ele>181.0</ele><time>2026-04-09T08:41:04.875Z</time></trkpt><trkpt lat="38.38293" lon="16.4135683"><ele>182.16666666666669</ele><time>2026-04-09T08:41:05.874Z</time></trkpt><trkpt lat="38.3829117" lon="16.4134867"><ele>183.33333333333334</ele><time>2026-04-09T08:41:06.874Z</time></trkpt><trkpt lat="38.3828983" lon="16.4134"><ele>184.5</ele><time>2026-04-09T08:41:07.875Z</time></trkpt><trkpt lat="38.3828817" lon="16.4133117"><ele>185.66666666666666</ele><time>2026-04-09T08:41:08.874Z</time></trkpt><trkpt lat="38.3828533" lon="16.4131567"><ele>186.83333333333331</ele><time>2026-04-09T08:41:10.874Z</time></trkpt><trkpt lat="38.3828267" lon="16.4130783"><ele>188.0</ele><time>2026-04-09T08:41:11.875Z</time></trkpt><trkpt lat="38.3827717" lon="16.4129333"><ele>190.0</ele><time>2026-04-09T08:41:13.875Z</time></trkpt><trkpt lat="38.3827467" lon="16.4128583"><ele>192.0</ele><time>2026-04-09T08:41:14.875Z</time></trkpt><trkpt lat="38.38268" lon="16.41272"><ele>194.0</ele><time>2026-04-09T08:41:16.875Z</time></trkpt><trkpt lat="38.3826417" lon="16.412645"><ele>196.0</ele><time>2026-04-09T08:41:17.875Z</time></trkpt><trkpt lat="38.3826033" lon="16.4125667"><ele>198.00000000000003</ele><time>2026-04-09T08:41:18.875Z</time></trkpt><trkpt lat="38.3825517" lon="16.4124817"><ele>200.0</ele><time>2026-04-09T08:41:19.874Z</time></trkpt><trkpt lat="38.3824967" lon="16.412405"><ele>200.0</ele><time>2026-04-09T08:41:20.875Z</time></trkpt><trkpt lat="38.3824283" lon="16.4123333"><ele>200.0</ele><time>2026-04-09T08:41:21.874Z</time></trkpt><trkpt lat="38.3823417" lon="16.4122817"><ele>200.0</ele><time>2026-04-09T08:41:22.874Z</time></trkpt><trkpt lat="38.38224" lon="16.4122417"><ele>200.0</ele><time>2026-04-09T08:41:23.875Z</time></trkpt><trkpt lat="38.3821317" lon="16.4122267"><ele>200.0</ele><time>2026-04-09T08:41:24.874Z</time></trkpt><trkpt lat="38.38202" lon="16.4122383"><ele>201.0</ele><time>2026-04-09T08:41:25.875Z</time></trkpt><trkpt lat="38.3819083" lon="16.41228"><ele>202.0</ele><time>2026-04-09T08:41:26.874Z</time></trkpt><trkpt lat="38.3817917" lon="16.41234"><ele>203.0</ele><time>2026-04-09T08:41:27.875Z</time></trkpt><trkpt lat="38.3816733" lon="16.4124117"><ele>204.0</ele><time>2026-04-09T08:41:28.874Z</time></trkpt><trkpt lat="38.381545" lon="16.412475"><ele>204.0</ele><time>2026-04-09T08:41:29.874Z</time></trkpt><trkpt lat="38.3814467" lon="16.4125467"><ele>204.0</ele><time>2026-04-09T08:41:30.875Z</time></trkpt><trkpt lat="38.3813567" lon="16.4126033"><ele>204.0</ele><time>2026-04-09T08:41:31.875Z</time></trkpt><trkpt lat="38.3812633" lon="16.412655"><ele>204.0</ele><time>2026-04-09T08:41:32.875Z</time></trkpt><trkpt lat="38.3811933" lon="16.4126767"><ele>204.0</ele><time>2026-04-09T08:41:33.875Z</time></trkpt><trkpt lat="38.3811117" lon="16.4126833"><ele>203.66666666666666</ele><time>2026-04-09T08:41:34.874Z</time></trkpt><trkpt lat="38.38105" lon="16.4126567"><ele>203.33333333333331</ele><time>2026-04-09T08:41:35.874Z</time></trkpt><trkpt lat="38.3809833" lon="16.4125267"><ele>203.0</ele><time>2026-04-09T08:41:37.874Z</time></trkpt><trkpt lat="38.3809833" lon="16.4124417"><ele>202.66666666666666</ele><time>2026-04-09T08:41:38.875Z</time></trkpt><trkpt lat="38.38102" lon="16.412345"><ele>202.33333333333331</ele><time>2026-04-09T08:41:39.875Z</time></trkpt><trkpt lat="38.381085" lon="16.4122583"><ele>202.0</ele><time>2026-04-09T08:41:40.875Z</time></trkpt><trkpt lat="38.3811683" lon="16.41218"><ele>205.0</ele><time>2026-04-09T08:41:41.875Z</time></trkpt><trkpt lat="38.3812517" lon="16.4120917"><ele>208.0</ele><time>2026-04-09T08:41:42.875Z</time></trkpt><trkpt lat="38.38133" lon="16.412005"><ele>211.0</ele><time>2026-04-09T08:41:43.874Z</time></trkpt><trkpt lat="38.3814117" lon="16.4119217"><ele>214.0</ele><time>2026-04-09T08:41:44.875Z</time></trkpt><trkpt lat="38.3814917" lon="16.411845"><ele>217.0</ele><time>2026-04-09T08:41:45.875Z</time></trkpt><trkpt lat="38.3815767" lon="16.4117817"><ele>217.0</ele><time>2026-04-09T08:41:46.875Z</time></trkpt><trkpt lat="38.38167" lon="16.4117383"><ele>217.0</ele><time>2026-04-09T08:41:47.874Z</time></trkpt><trkpt lat="38.381765" lon="16.4117"><ele>217.0</ele><time>2026-04-09T08:41:48.875Z</time></trkpt><trkpt lat="38.3818717" lon="16.4116617"><ele>217.0</ele><time>2026-04-09T08:41:49.875Z</time></trkpt><trkpt lat="38.3819733" lon="16.4116383"><ele>217.0</ele><time>2026-04-09T08:41:50.875Z</time></trkpt><trkpt lat="38.3820683" lon="16.411615"><ele>217.0</ele><time>2026-04-09T08:41:51.875Z</time></trkpt><trkpt lat="38.38216" lon="16.411585"><ele>217.0</ele><time>2026-04-09T08:41:52.874Z</time></trkpt><trkpt lat="38.3822533" lon="16.41156"><ele>217.0</ele><time>2026-04-09T08:41:53.875Z</time></trkpt><trkpt lat="38.3823417" lon="16.4115333"><ele>217.0</ele><time>2026-04-09T08:41:54.874Z</time></trkpt><trkpt lat="38.3824283" lon="16.4115217"><ele>217.0</ele><time>2026-04-09T08:41:55.874Z</time></trkpt><trkpt lat="38.382515" lon="16.4115333"><ele>217.16666666666666</ele><time>2026-04-09T08:41:56.874Z</time></trkpt><trkpt lat="38.3826" lon="16.4115717"><ele>217.33333333333331</ele><time>2026-04-09T08:41:57.874Z</time></trkpt><trkpt lat="38.3826867" lon="16.41164"><ele>217.5</ele><time>2026-04-09T08:41:58.875Z</time></trkpt><trkpt lat="38.38276" lon="16.4117117"><ele>217.66666666666669</ele><time>2026-04-09T08:41:59.874Z</time></trkpt><trkpt lat="38.3828267" lon="16.4117667"><ele>217.83333333333334</ele><time>2026-04-09T08:42:00.875Z</time></trkpt><trkpt lat="38.3829017" lon="16.4118117"><ele>218.0</ele><time>2026-04-09T08:42:01.875Z</time></trkpt><trkpt lat="38.3829717" lon="16.41182"><ele>218.60000000000002</ele><time>2026-04-09T08:42:02.874Z</time></trkpt><trkpt lat="38.3830483" lon="16.41181"><ele>219.20000000000002</ele><time>2026-04-09T08:42:03.875Z</time></trkpt><trkpt lat="38.3831183" lon="16.4117567"><ele>219.8</ele><time>2026-04-09T08:42:04.875Z</time></trkpt><trkpt lat="38.3831883" lon="16.4116717"><ele>220.4</ele><time>2026-04-09T08:42:05.874Z</time></trkpt><trkpt lat="38.383255" lon="16.4115633"><ele>221.0</ele><time>2026-04-09T08:42:06.875Z</time></trkpt><trkpt lat="38.38333" lon="16.4114667"><ele>221.00000000000003</ele><time>2026-04-09T08:42:07.875Z</time></trkpt><trkpt lat="38.3834017" lon="16.411375"><ele>221.0</ele><time>2026-04-09T08:42:08.874Z</time></trkpt><trkpt lat="38.38347" lon="16.4113"><ele>221.0</ele><time>2026-04-09T08:42:09.875Z</time></trkpt><trkpt lat="38.3835167" lon="16.4112133"><ele>221.0</ele><time>2026-04-09T08:42:10.875Z</time></trkpt><trkpt lat="38.38354" lon="16.4111267"><ele>221.00000000000003</ele><time>2026-04-09T08:42:11.875Z</time></trkpt><trkpt lat="38.3834717" lon="16.4110333"><ele>221.0</ele><time>2026-04-09T08:42:13.874Z</time></trkpt><trkpt lat="38.3833883" lon="16.4110333"><ele>222.60000000000002</ele><time>2026-04-09T08:42:14.874Z</time></trkpt><trkpt lat="38.3832817" lon="16.4110833"><ele>224.20000000000002</ele><time>2026-04-09T08:42:15.875Z</time></trkpt><trkpt lat="38.3831883" lon="16.4111283"><ele>225.79999999999998</ele><time>2026-04-09T08:42:16.875Z</time></trkpt><trkpt lat="38.3830983" lon="16.4111767"><ele>227.39999999999998</ele><time>2026-04-09T08:42:17.875Z</time></trkpt><trkpt lat="38.3830217" lon="16.4112117"><ele>229.0</ele><time>2026-04-09T08:42:18.875Z</time></trkpt><trkpt lat="38.3829533" lon="16.4112267"><ele>228.99999999999997</ele><time>2026-04-09T08:42:19.874Z</time></trkpt><trkpt lat="38.382885" lon="16.4112267"><ele>229.0</ele><time>2026-04-09T08:42:20.875Z</time></trkpt><trkpt lat="38.3828217" lon="16.411215"><ele>229.0</ele><time>2026-04-09T08:42:21.875Z</time></trkpt><trkpt lat="38.3827117" lon="16.41113"><ele>229.0</ele><time>2026-04-09T08:42:23.874Z</time></trkpt><trkpt lat="38.38267" lon="16.411065"><ele>228.99999999999997</ele><time>2026-04-09T08:42:24.874Z</time></trkpt><trkpt lat="38.3826317" lon="16.4109933"><ele>229.0</ele><time>2026-04-09T08:42:25.875Z</time></trkpt><trkpt lat="38.3825767" lon="16.4109117"><ele>229.0</ele><time>2026-04-09T08:42:26.875Z</time></trkpt><trkpt lat="38.382515" lon="16.4108317"><ele>228.99999999999997</ele><time>2026-04-09T08:42:27.874Z</time></trkpt><trkpt lat="38.38246" lon="16.4107533"><ele>228.99999999999997</ele><time>2026-04-09T08:42:28.874Z</time></trkpt><trkpt lat="38.382405" lon="16.41066"><ele>229.0</ele><time>2026-04-09T08:42:29.875Z</time></trkpt><trkpt lat="38.38233" lon="16.4105767"><ele>229.0</ele><time>2026-04-09T08:42:30.874Z</time></trkpt><trkpt lat="38.3822633" lon="16.4104883"><ele>230.49999999999997</ele><time>2026-04-09T08:42:31.875Z</time></trkpt><trkpt lat="38.3821967" lon="16.4104117"><ele>232.0</ele><time>2026-04-09T08:42:32.874Z</time></trkpt><trkpt lat="38.3821283" lon="16.4103333"><ele>233.5</ele><time>2026-04-09T08:42:33.875Z</time></trkpt><trkpt lat="38.3820683" lon="16.4102517"><ele>235.0</ele><time>2026-04-09T08:42:34.875Z</time></trkpt><trkpt lat="38.3820067" lon="16.410175"><ele>236.49999999999997</ele><time>2026-04-09T08:42:35.874Z</time></trkpt><trkpt lat="38.3819383" lon="16.41011"><ele>238.0</ele><time>2026-04-09T08:42:36.875Z</time></trkpt><trkpt lat="38.38188" lon="16.4100333"><ele>238.0</ele><time>2026-04-09T08:42:37.875Z</time></trkpt><trkpt lat="38.3818283" lon="16.4099683"><ele>238.0</ele><time>2026-04-09T08:42:38.875Z</time></trkpt><trkpt lat="38.3817767" lon="16.409895"><ele>238.0</ele><time>2026-04-09T08:42:39.875Z</time></trkpt><trkpt lat="38.38173" lon="16.4098267"><ele>238.0</ele><time>2026-04-09T08:42:40.874Z</time></trkpt><trkpt lat="38.381675" lon="16.4097633"><ele>238.0</ele><time>2026-04-09T08:42:41.875Z</time></trkpt><trkpt lat="38.3816333" lon="16.4096833"><ele>238.0</ele><time>2026-04-09T08:42:42.875Z</time></trkpt><trkpt lat="38.3815767" lon="16.40964"><ele>238.0</ele><time>2026-04-09T08:42:43.875Z</time></trkpt><trkpt lat="38.3815017" lon="16.4096167"><ele>241.33333333333331</ele><time>2026-04-09T08:42:44.875Z</time></trkpt><trkpt lat="38.38143" lon="16.409615"><ele>244.66666666666666</ele><time>2026-04-09T08:42:45.874Z</time></trkpt><trkpt lat="38.3813517" lon="16.40963"><ele>248.0</ele><time>2026-04-09T08:42:46.874Z</time></trkpt><trkpt lat="38.3812467" lon="16.409645"><ele>251.33333333333331</ele><time>2026-04-09T08:42:47.874Z</time></trkpt><trkpt lat="38.3811483" lon="16.4096517"><ele>254.66666666666666</ele><time>2026-04-09T08:42:48.875Z</time></trkpt><trkpt lat="38.3810733" lon="16.4096267"><ele>258.0</ele><time>2026-04-09T08:42:49.875Z</time></trkpt><trkpt lat="38.3810283" lon="16.40956"><ele>258.0</ele><time>2026-04-09T08:42:50.874Z</time></trkpt><trkpt lat="38.3810067" lon="16.4094783"><ele>258.0</ele><time>2026-04-09T08:42:52.875Z</time></trkpt><trkpt lat="38.3811133" lon="16.409375"><ele>258.0</ele><time>2026-04-09T08:42:54.874Z</time></trkpt><trkpt lat="38.3812" lon="16.4093283"><ele>258.0</ele><time>2026-04-09T08:42:55.875Z</time></trkpt><trkpt lat="38.3812967" lon="16.409295"><ele>258.0</ele><time>2026-04-09T08:42:56.875Z</time></trkpt><trkpt lat="38.3813883" lon="16.40926"><ele>258.4</ele><time>2026-04-09T08:42:57.874Z</time></trkpt><trkpt lat="38.381495" lon="16.4092367"><ele>258.8</ele><time>2026-04-09T08:42:58.874Z</time></trkpt><trkpt lat="38.3816" lon="16.4092033"><ele>259.2</ele><time>2026-04-09T08:42:59.875Z</time></trkpt><trkpt lat="38.3817017" lon="16.40917"><ele>259.6</ele><time>2026-04-09T08:43:00.875Z</time></trkpt><trkpt lat="38.3817917" lon="16.40913"><ele>260.0</ele><time>2026-04-09T08:43:01.875Z</time></trkpt><trkpt lat="38.3818883" lon="16.4090983"><ele>260.0</ele><time>2026-04-09T08:43:02.874Z</time></trkpt><trkpt lat="38.3819783" lon="16.40907"><ele>260.0</ele><time>2026-04-09T08:43:03.874Z</time></trkpt><trkpt lat="38.382075" lon="16.4090517"><ele>260.0</ele><time>2026-04-09T08:43:04.874Z</time></trkpt><trkpt lat="38.3821533" lon="16.4090233"><ele>260.0</ele><time>2026-04-09T08:43:05.874Z</time></trkpt><trkpt lat="38.38223" lon="16.40901"><ele>260.0</ele><time>2026-04-09T08:43:06.874Z</time></trkpt><trkpt lat="38.3823017" lon="16.4089983"><ele>260.0</ele><time>2026-04-09T08:43:07.874Z</time></trkpt><trkpt lat="38.3824167" lon="16.4090583"><ele>259.7142857142857</ele><time>2026-04-09T08:43:09.874Z</time></trkpt><trkpt lat="38.3824567" lon="16.409125"><ele>259.42857142857144</ele><time>2026-04-09T08:43:10.874Z</time></trkpt><trkpt lat="38.3825" lon="16.4091983"><ele>259.1428571428571</ele><time>2026-04-09T08:43:11.875Z</time></trkpt><trkpt lat="38.3825367" lon="16.4092683"><ele>258.8571428571429</ele><time>2026-04-09T08:43:12.875Z</time></trkpt><trkpt lat="38.38258" lon="16.4093267"><ele>258.57142857142856</ele><time>2026-04-09T08:43:13.875Z</time></trkpt><trkpt lat="38.3826533" lon="16.4093933"><ele>258.2857142857143</ele><time>2026-04-09T08:43:15.874Z</time></trkpt><trkpt lat="38.3827383" lon="16.40935"><ele>258.0</ele><time>2026-04-09T08:43:17.874Z</time></trkpt><trkpt lat="38.3827733" lon="16.4092167"><ele>258.0</ele><time>2026-04-09T08:43:19.875Z</time></trkpt><trkpt lat="38.38277" lon="16.4091333"><ele>258.0</ele><time>2026-04-09T08:43:20.874Z</time></trkpt><trkpt lat="38.3827433" lon="16.408995"><ele>258.0</ele><time>2026-04-09T08:43:22.875Z</time></trkpt><trkpt lat="38.382685" lon="16.40889"><ele>258.0</ele><time>2026-04-09T08:43:24.874Z</time></trkpt><trkpt lat="38.3825917" lon="16.4088367"><ele>258.0</ele><time>2026-04-09T08:43:26.875Z</time></trkpt><trkpt lat="38.3824467" lon="16.408815"><ele>261.5</ele><time>2026-04-09T08:43:28.874Z</time></trkpt><trkpt lat="38.3823667" lon="16.4087983"><ele>265.0</ele><time>2026-04-09T08:43:29.874Z</time></trkpt><trkpt lat="38.3822833" lon="16.40879"><ele>268.5</ele><time>2026-04-09T08:43:30.874Z</time></trkpt><trkpt lat="38.3822067" lon="16.4087767"><ele>272.0</ele><time>2026-04-09T08:43:31.874Z</time></trkpt><trkpt lat="38.3821383" lon="16.4087733"><ele>275.5</ele><time>2026-04-09T08:43:32.874Z</time></trkpt><trkpt lat="38.3820167" lon="16.4087917"><ele>279.0</ele><time>2026-04-09T08:43:34.874Z</time></trkpt><trkpt lat="38.3819083" lon="16.4088083"><ele>279.0</ele><time>2026-04-09T08:43:36.875Z</time></trkpt><trkpt lat="38.3818483" lon="16.4087617"><ele>279.0</ele><time>2026-04-09T08:43:38.874Z</time></trkpt><trkpt lat="38.38179" lon="16.40868"><ele>279.0</ele><time>2026-04-09T08:43:41.874Z</time></trkpt><trkpt lat="38.381745" lon="16.408575"><ele>279.0</ele><time>2026-04-09T08:43:43.874Z</time></trkpt><trkpt lat="38.38167" lon="16.408485"><ele>279.0</ele><time>2026-04-09T08:43:45.874Z</time></trkpt><trkpt lat="38.3815783" lon="16.4084017"><ele>279.0</ele><time>2026-04-09T08:43:47.874Z</time></trkpt><trkpt lat="38.3814883" lon="16.4083817"><ele>279.0</ele><time>2026-04-09T08:43:49.875Z</time></trkpt><trkpt lat="38.3814133" lon="16.40837"><ele>279.0</ele><time>2026-04-09T08:43:51.874Z</time></trkpt><trkpt lat="38.381395" lon="16.4082867"><ele>279.0</ele><time>2026-04-09T08:43:55.875Z</time></trkpt><trkpt lat="38.381445" lon="16.4082033"><ele>279.0</ele><time>2026-04-09T08:43:57.874Z</time></trkpt><trkpt lat="38.3814983" lon="16.4081217"><ele>279.0</ele><time>2026-04-09T08:43:59.875Z</time></trkpt><trkpt lat="38.3815417" lon="16.40806"><ele>280.3333333333333</ele><time>2026-04-09T08:44:01.875Z</time></trkpt><trkpt lat="38.38161" lon="16.4079833"><ele>281.6666666666667</ele><time>2026-04-09T08:44:04.874Z</time></trkpt><trkpt lat="38.3816717" lon="16.4079317"><ele>283.0</ele><time>2026-04-09T08:44:06.875Z</time></trkpt><trkpt lat="38.3816617" lon="16.4078467"><ele>284.33333333333337</ele><time>2026-04-09T08:44:09.875Z</time></trkpt><trkpt lat="38.3816417" lon="16.4077383"><ele>285.6666666666667</ele><time>2026-04-09T08:44:12.875Z</time></trkpt><trkpt lat="38.3815967" lon="16.4076517"><ele>287.0</ele><time>2026-04-09T08:44:15.875Z</time></trkpt><trkpt lat="38.3815667" lon="16.407555"><ele>287.0</ele><time>2026-04-09T08:44:18.874Z</time></trkpt><trkpt lat="38.3815683" lon="16.40743"><ele>287.0</ele><time>2026-04-09T08:44:21.875Z</time></trkpt><trkpt lat="38.381545" lon="16.40732"><ele>287.0</ele><time>2026-04-09T08:44:24.874Z</time></trkpt><trkpt lat="38.3815167" lon="16.40724"><ele>287.0</ele><time>2026-04-09T08:44:26.875Z</time></trkpt><trkpt lat="38.381545" lon="16.4071367"><ele>287.0</ele><time>2026-04-09T08:44:28.874Z</time></trkpt><trkpt lat="38.381605" lon="16.4070317"><ele>287.0</ele><time>2026-04-09T08:44:30.874Z</time></trkpt><trkpt lat="38.3816683" lon="16.4069333"><ele>288.4</ele><time>2026-04-09T08:44:32.875Z</time></trkpt><trkpt lat="38.381735" lon="16.4068383"><ele>289.79999999999995</ele><time>2026-04-09T08:44:34.874Z</time></trkpt><trkpt lat="38.38181" lon="16.4067233"><ele>291.2</ele><time>2026-04-09T08:44:36.875Z</time></trkpt><trkpt lat="38.3818817" lon="16.4066067"><ele>292.59999999999997</ele><time>2026-04-09T08:44:38.874Z</time></trkpt><trkpt lat="38.3819333" lon="16.4065217"><ele>294.0</ele><time>2026-04-09T08:44:40.875Z</time></trkpt><trkpt lat="38.381975" lon="16.40646"><ele>294.0</ele><time>2026-04-09T08:44:43.874Z</time></trkpt><trkpt lat="38.38193" lon="16.4065283"><ele>294.0</ele><time>2026-04-09T08:44:50.875Z</time></trkpt><trkpt lat="38.38194" lon="16.4066233"><ele>294.0</ele><time>2026-04-09T08:44:52.875Z</time></trkpt><trkpt lat="38.3819833" lon="16.4066833"><ele>294.0</ele><time>2026-04-09T08:44:55.875Z</time></trkpt><trkpt lat="38.3820417" lon="16.4066117"><ele>294.0</ele><time>2026-04-09T08:44:57.875Z</time></trkpt><trkpt lat="38.3821117" lon="16.4065183"><ele>294.0</ele><time>2026-04-09T08:44:59.874Z</time></trkpt><trkpt lat="38.3821617" lon="16.4064333"><ele>294.0</ele><time>2026-04-09T08:45:01.875Z</time></trkpt><trkpt lat="38.382175" lon="16.406335"><ele>294.0</ele><time>2026-04-09T08:45:03.875Z</time></trkpt><trkpt lat="38.38222" lon="16.4062483"><ele>294.0</ele><time>2026-04-09T08:45:06.874Z</time></trkpt><trkpt lat="38.3822883" lon="16.4062517"><ele>294.0</ele><time>2026-04-09T08:45:09.874Z</time></trkpt><trkpt lat="38.3823433" lon="16.4063417"><ele>294.0</ele><time>2026-04-09T08:45:12.874Z</time></trkpt><trkpt lat="38.3823267" lon="16.4064233"><ele>294.0</ele><time>2026-04-09T08:45:14.874Z</time></trkpt><trkpt lat="38.382315" lon="16.4065117"><ele>309.0</ele><time>2026-04-09T08:45:16.874Z</time></trkpt><trkpt lat="38.3823467" lon="16.4066267"><ele>309.0</ele><time>2026-04-09T08:45:19.875Z</time></trkpt><trkpt lat="38.382425" lon="16.4067333"><ele>309.0</ele><time>2026-04-09T08:45:21.874Z</time></trkpt><trkpt lat="38.3824983" lon="16.4068133"><ele>309.0</ele><time>2026-04-09T08:45:23.874Z</time></trkpt><trkpt lat="38.3825583" lon="16.4068667"><ele>309.0</ele><time>2026-04-09T08:45:27.874Z</time></trkpt><trkpt lat="38.3826217" lon="16.4068917"><ele>309.0</ele><time>2026-04-09T08:45:31.875Z</time></trkpt></trkseg><trkseg><trkpt lat="38.3838046" lon="16.4045509"><ele>281.0</ele><time>2026-04-09T09:08:20.232Z</time></trkpt><trkpt lat="38.3838285" lon="16.404434"><ele>281.0</ele><time>2026-04-09T09:08:22.232Z</time></trkpt><trkpt lat="38.3838609" lon="16.4043116"><ele>281.0</ele><time>2026-04-09T09:08:24.231Z</time></trkpt><trkpt lat="38.3839098" lon="16.4041867"><ele>281.0</ele><time>2026-04-09T09:08:26.232Z</time></trkpt><trkpt lat="38.3839813" lon="16.4040667"><ele>281.0</ele><time>2026-04-09T09:08:28.232Z</time></trkpt><trkpt lat="38.3840347" lon="16.4040087"><ele>278.83333333333337</ele><time>2026-04-09T09:08:29.231Z</time></trkpt><trkpt lat="38.3840845" lon="16.4039526"><ele>276.6666666666667</ele><time>2026-04-09T09:08:30.232Z</time></trkpt><trkpt lat="38.3841513" lon="16.4038701"><ele>274.5</ele><time>2026-04-09T09:08:32.232Z</time></trkpt><trkpt lat="38.3842117" lon="16.403915"><ele>272.3333333333333</ele><time>2026-04-09T09:08:36.231Z</time></trkpt><trkpt lat="38.3842167" lon="16.404005"><ele>270.16666666666663</ele><time>2026-04-09T09:08:38.232Z</time></trkpt><trkpt lat="38.38421" lon="16.4041317"><ele>268.0</ele><time>2026-04-09T09:08:40.232Z</time></trkpt><trkpt lat="38.3841967" lon="16.404265"><ele>268.0</ele><time>2026-04-09T09:08:42.232Z</time></trkpt><trkpt lat="38.3841733" lon="16.4043933"><ele>268.0</ele><time>2026-04-09T09:08:44.232Z</time></trkpt><trkpt lat="38.3841383" lon="16.4045183"><ele>268.0</ele><time>2026-04-09T09:08:46.232Z</time></trkpt><trkpt lat="38.3840967" lon="16.4046467"><ele>268.0</ele><time>2026-04-09T09:08:48.231Z</time></trkpt><trkpt lat="38.3840667" lon="16.40472"><ele>268.0</ele><time>2026-04-09T09:08:49.232Z</time></trkpt><trkpt lat="38.383995" lon="16.4048483"><ele>267.66666666666663</ele><time>2026-04-09T09:08:51.232Z</time></trkpt><trkpt lat="38.383955" lon="16.4049167"><ele>267.3333333333333</ele><time>2026-04-09T09:08:52.232Z</time></trkpt><trkpt lat="38.383915" lon="16.4050017"><ele>267.0</ele><time>2026-04-09T09:08:53.232Z</time></trkpt><trkpt lat="38.3838733" lon="16.405105"><ele>266.6666666666667</ele><time>2026-04-09T09:08:54.232Z</time></trkpt><trkpt lat="38.3838333" lon="16.4052117"><ele>266.33333333333337</ele><time>2026-04-09T09:08:55.232Z</time></trkpt><trkpt lat="38.3837933" lon="16.4053233"><ele>266.0</ele><time>2026-04-09T09:08:56.231Z</time></trkpt><trkpt lat="38.3837417" lon="16.405425"><ele>271.33333333333337</ele><time>2026-04-09T09:08:57.232Z</time></trkpt><trkpt lat="38.3836917" lon="16.4055233"><ele>276.6666666666667</ele><time>2026-04-09T09:08:58.232Z</time></trkpt><trkpt lat="38.3836517" lon="16.405615"><ele>282.0</ele><time>2026-04-09T09:08:59.232Z</time></trkpt><trkpt lat="38.38362" lon="16.4057067"><ele>287.3333333333333</ele><time>2026-04-09T09:09:00.232Z</time></trkpt><trkpt lat="38.3835833" lon="16.4058117"><ele>292.66666666666663</ele><time>2026-04-09T09:09:01.232Z</time></trkpt><trkpt lat="38.3835433" lon="16.4059283"><ele>298.0</ele><time>2026-04-09T09:09:02.232Z</time></trkpt><trkpt lat="38.3835133" lon="16.4060533"><ele>298.0</ele><time>2026-04-09T09:09:03.232Z</time></trkpt><trkpt lat="38.3834933" lon="16.40618"><ele>298.0</ele><time>2026-04-09T09:09:04.232Z</time></trkpt><trkpt lat="38.38348" lon="16.4063167"><ele>298.0</ele><time>2026-04-09T09:09:05.232Z</time></trkpt><trkpt lat="38.3834767" lon="16.4064517"><ele>298.0</ele><time>2026-04-09T09:09:06.232Z</time></trkpt><trkpt lat="38.38347" lon="16.4065833"><ele>298.0</ele><time>2026-04-09T09:09:07.231Z</time></trkpt><trkpt lat="38.3834617" lon="16.4067167"><ele>296.0</ele><time>2026-04-09T09:09:08.232Z</time></trkpt><trkpt lat="38.3834433" lon="16.4068383"><ele>294.0</ele><time>2026-04-09T09:09:09.232Z</time></trkpt><trkpt lat="38.3834233" lon="16.4069633"><ele>292.0</ele><time>2026-04-09T09:09:10.232Z</time></trkpt><trkpt lat="38.38341" lon="16.40708"><ele>290.0</ele><time>2026-04-09T09:09:11.231Z</time></trkpt><trkpt lat="38.3833983" lon="16.4071917"><ele>288.0</ele><time>2026-04-09T09:09:12.232Z</time></trkpt><trkpt lat="38.38338" lon="16.4072983"><ele>286.1666666666667</ele><time>2026-04-09T09:09:13.232Z</time></trkpt><trkpt lat="38.38336" lon="16.4074017"><ele>284.3333333333333</ele><time>2026-04-09T09:09:14.232Z</time></trkpt><trkpt lat="38.3833317" lon="16.407495"><ele>282.5</ele><time>2026-04-09T09:09:15.232Z</time></trkpt><trkpt lat="38.3832983" lon="16.40759"><ele>280.66666666666663</ele><time>2026-04-09T09:09:16.232Z</time></trkpt><trkpt lat="38.3832667" lon="16.4076817"><ele>278.8333333333333</ele><time>2026-04-09T09:09:17.232Z</time></trkpt><trkpt lat="38.3832283" lon="16.4077733"><ele>277.0</ele><time>2026-04-09T09:09:18.232Z</time></trkpt><trkpt lat="38.38319" lon="16.4078733"><ele>277.0</ele><time>2026-04-09T09:09:19.232Z</time></trkpt><trkpt lat="38.383135" lon="16.4079717"><ele>277.0</ele><time>2026-04-09T09:09:20.232Z</time></trkpt><trkpt lat="38.3830833" lon="16.4080767"><ele>277.0</ele><time>2026-04-09T09:09:21.232Z</time></trkpt><trkpt lat="38.3830267" lon="16.408175"><ele>277.0</ele><time>2026-04-09T09:09:22.232Z</time></trkpt><trkpt lat="38.3829633" lon="16.4082683"><ele>277.0</ele><time>2026-04-09T09:09:23.232Z</time></trkpt><trkpt lat="38.3829067" lon="16.4083567"><ele>278.16666666666663</ele><time>2026-04-09T09:09:24.232Z</time></trkpt><trkpt lat="38.3828483" lon="16.4084417"><ele>279.3333333333333</ele><time>2026-04-09T09:09:25.232Z</time></trkpt><trkpt lat="38.3827983" lon="16.4085183"><ele>280.5</ele><time>2026-04-09T09:09:26.232Z</time></trkpt><trkpt lat="38.3827567" lon="16.4086067"><ele>281.6666666666667</ele><time>2026-04-09T09:09:27.232Z</time></trkpt><trkpt lat="38.3826883" lon="16.40872"><ele>282.83333333333337</ele><time>2026-04-09T09:09:29.232Z</time></trkpt><trkpt lat="38.3826367" lon="16.4087783"><ele>284.0</ele><time>2026-04-09T09:09:31.232Z</time></trkpt><trkpt lat="38.3826333" lon="16.4088717"><ele>279.6666666666667</ele><time>2026-04-09T09:09:34.232Z</time></trkpt><trkpt lat="38.3826567" lon="16.4089483"><ele>275.33333333333337</ele><time>2026-04-09T09:09:35.232Z</time></trkpt><trkpt lat="38.382695" lon="16.40904"><ele>271.0</ele><time>2026-04-09T09:09:36.232Z</time></trkpt><trkpt lat="38.3827117" lon="16.409125"><ele>266.6666666666667</ele><time>2026-04-09T09:09:37.232Z</time></trkpt><trkpt lat="38.3827517" lon="16.4092633"><ele>262.3333333333333</ele><time>2026-04-09T09:09:39.232Z</time></trkpt><trkpt lat="38.382725" lon="16.4093533"><ele>258.0</ele><time>2026-04-09T09:09:41.232Z</time></trkpt><trkpt lat="38.3826033" lon="16.4092817"><ele>258.0</ele><time>2026-04-09T09:09:45.232Z</time></trkpt><trkpt lat="38.3825333" lon="16.4091933"><ele>258.0</ele><time>2026-04-09T09:09:46.232Z</time></trkpt><trkpt lat="38.38246" lon="16.40912"><ele>258.0</ele><time>2026-04-09T09:09:47.232Z</time></trkpt><trkpt lat="38.3823967" lon="16.4090683"><ele>258.0</ele><time>2026-04-09T09:09:48.232Z</time></trkpt><trkpt lat="38.382325" lon="16.40903"><ele>258.0</ele><time>2026-04-09T09:09:49.231Z</time></trkpt><trkpt lat="38.3822433" lon="16.4090033"><ele>258.0</ele><time>2026-04-09T09:09:50.232Z</time></trkpt><trkpt lat="38.3821567" lon="16.40899"><ele>258.3333333333333</ele><time>2026-04-09T09:09:51.232Z</time></trkpt><trkpt lat="38.38208" lon="16.4090067"><ele>258.6666666666667</ele><time>2026-04-09T09:09:52.232Z</time></trkpt><trkpt lat="38.3819867" lon="16.409025"><ele>259.0</ele><time>2026-04-09T09:09:53.232Z</time></trkpt><trkpt lat="38.3819083" lon="16.4090617"><ele>259.33333333333337</ele><time>2026-04-09T09:09:54.232Z</time></trkpt><trkpt lat="38.38184" lon="16.409085"><ele>259.6666666666667</ele><time>2026-04-09T09:09:55.232Z</time></trkpt><trkpt lat="38.38176" lon="16.4091017"><ele>260.0</ele><time>2026-04-09T09:09:56.232Z</time></trkpt><trkpt lat="38.3816817" lon="16.4091467"><ele>260.0</ele><time>2026-04-09T09:09:57.232Z</time></trkpt><trkpt lat="38.3816033" lon="16.40919"><ele>260.0</ele><time>2026-04-09T09:09:58.232Z</time></trkpt><trkpt lat="38.3815133" lon="16.4092383"><ele>260.0</ele><time>2026-04-09T09:09:59.232Z</time></trkpt><trkpt lat="38.381425" lon="16.4092867"><ele>260.0</ele><time>2026-04-09T09:10:00.232Z</time></trkpt><trkpt lat="38.3813367" lon="16.409325"><ele>260.0</ele><time>2026-04-09T09:10:01.232Z</time></trkpt><trkpt lat="38.3812617" lon="16.4093683"><ele>259.6</ele><time>2026-04-09T09:10:02.231Z</time></trkpt><trkpt lat="38.3811983" lon="16.4093967"><ele>259.2</ele><time>2026-04-09T09:10:03.232Z</time></trkpt><trkpt lat="38.3811317" lon="16.4094283"><ele>258.8</ele><time>2026-04-09T09:10:04.232Z</time></trkpt><trkpt lat="38.3810333" lon="16.40951"><ele>258.4</ele><time>2026-04-09T09:10:06.232Z</time></trkpt><trkpt lat="38.3810133" lon="16.40963"><ele>258.0</ele><time>2026-04-09T09:10:08.232Z</time></trkpt><trkpt lat="38.3810767" lon="16.409725"><ele>258.3333333333333</ele><time>2026-04-09T09:10:10.231Z</time></trkpt><trkpt lat="38.3811433" lon="16.4097283"><ele>258.6666666666667</ele><time>2026-04-09T09:10:11.232Z</time></trkpt><trkpt lat="38.38124" lon="16.409705"><ele>259.0</ele><time>2026-04-09T09:10:12.232Z</time></trkpt><trkpt lat="38.3813333" lon="16.4096783"><ele>259.33333333333337</ele><time>2026-04-09T09:10:13.232Z</time></trkpt><trkpt lat="38.3814167" lon="16.4096533"><ele>259.6666666666667</ele><time>2026-04-09T09:10:14.232Z</time></trkpt><trkpt lat="38.3814967" lon="16.4096483"><ele>260.0</ele><time>2026-04-09T09:10:15.232Z</time></trkpt><trkpt lat="38.3815817" lon="16.4096767"><ele>255.6</ele><time>2026-04-09T09:10:16.232Z</time></trkpt><trkpt lat="38.38166" lon="16.4097233"><ele>251.2</ele><time>2026-04-09T09:10:17.232Z</time></trkpt><trkpt lat="38.3817383" lon="16.409805"><ele>246.8</ele><time>2026-04-09T09:10:18.232Z</time></trkpt><trkpt lat="38.38181" lon="16.4099067"><ele>242.4</ele><time>2026-04-09T09:10:19.231Z</time></trkpt><trkpt lat="38.38188" lon="16.409985"><ele>238.0</ele><time>2026-04-09T09:10:20.232Z</time></trkpt><trkpt lat="38.3819383" lon="16.4100683"><ele>237.99999999999997</ele><time>2026-04-09T09:10:21.232Z</time></trkpt><trkpt lat="38.3819933" lon="16.4101567"><ele>238.0</ele><time>2026-04-09T09:10:22.232Z</time></trkpt><trkpt lat="38.3820417" lon="16.4102383"><ele>238.0</ele><time>2026-04-09T09:10:23.232Z</time></trkpt><trkpt lat="38.382095" lon="16.4103183"><ele>238.0</ele><time>2026-04-09T09:10:24.232Z</time></trkpt><trkpt lat="38.382155" lon="16.4104017"><ele>237.99999999999997</ele><time>2026-04-09T09:10:25.232Z</time></trkpt><trkpt lat="38.382215" lon="16.4104783"><ele>238.0</ele><time>2026-04-09T09:10:26.232Z</time></trkpt><trkpt lat="38.3822717" lon="16.4105583"><ele>236.49999999999997</ele><time>2026-04-09T09:10:27.232Z</time></trkpt><trkpt lat="38.3823317" lon="16.4106417"><ele>235.0</ele><time>2026-04-09T09:10:28.231Z</time></trkpt><trkpt lat="38.3823783" lon="16.4107183"><ele>233.5</ele><time>2026-04-09T09:10:29.232Z</time></trkpt><trkpt lat="38.3824233" lon="16.4107983"><ele>232.0</ele><time>2026-04-09T09:10:30.231Z</time></trkpt><trkpt lat="38.3824767" lon="16.41087"><ele>230.49999999999997</ele><time>2026-04-09T09:10:31.232Z</time></trkpt><trkpt lat="38.3825317" lon="16.410935"><ele>229.0</ele><time>2026-04-09T09:10:32.232Z</time></trkpt><trkpt lat="38.382585" lon="16.4110033"><ele>228.99999999999997</ele><time>2026-04-09T09:10:33.232Z</time></trkpt><trkpt lat="38.3826367" lon="16.41107"><ele>229.0</ele><time>2026-04-09T09:10:34.232Z</time></trkpt><trkpt lat="38.3826917" lon="16.4111367"><ele>229.0</ele><time>2026-04-09T09:10:35.232Z</time></trkpt><trkpt lat="38.3827467" lon="16.4112067"><ele>229.0</ele><time>2026-04-09T09:10:36.232Z</time></trkpt><trkpt lat="38.3828033" lon="16.4112583"><ele>228.99999999999997</ele><time>2026-04-09T09:10:37.232Z</time></trkpt><trkpt lat="38.3829067" lon="16.4113167"><ele>229.0</ele><time>2026-04-09T09:10:39.232Z</time></trkpt><trkpt lat="38.3830267" lon="16.411265"><ele>229.49999999999997</ele><time>2026-04-09T09:10:41.232Z</time></trkpt><trkpt lat="38.383095" lon="16.41122"><ele>230.0</ele><time>2026-04-09T09:10:42.232Z</time></trkpt><trkpt lat="38.383165" lon="16.41118"><ele>230.5</ele><time>2026-04-09T09:10:43.231Z</time></trkpt><trkpt lat="38.3832417" lon="16.4111467"><ele>231.0</ele><time>2026-04-09T09:10:44.232Z</time></trkpt><trkpt lat="38.3833133" lon="16.4111183"><ele>231.49999999999997</ele><time>2026-04-09T09:10:45.231Z</time></trkpt><trkpt lat="38.3833783" lon="16.411105"><ele>232.0</ele><time>2026-04-09T09:10:46.232Z</time></trkpt><trkpt lat="38.3834717" lon="16.4111233"><ele>231.99999999999997</ele><time>2026-04-09T09:10:48.232Z</time></trkpt><trkpt lat="38.383475" lon="16.4112283"><ele>232.0</ele><time>2026-04-09T09:10:50.232Z</time></trkpt><trkpt lat="38.3834117" lon="16.4112867"><ele>232.0</ele><time>2026-04-09T09:10:51.232Z</time></trkpt><trkpt lat="38.3833383" lon="16.4113533"><ele>232.0</ele><time>2026-04-09T09:10:52.232Z</time></trkpt><trkpt lat="38.38325" lon="16.41143"><ele>231.99999999999997</ele><time>2026-04-09T09:10:53.232Z</time></trkpt><trkpt lat="38.3831883" lon="16.4115017"><ele>232.0</ele><time>2026-04-09T09:10:54.232Z</time></trkpt><trkpt lat="38.3831183" lon="16.4115933"><ele>230.16666666666666</ele><time>2026-04-09T09:10:55.232Z</time></trkpt><trkpt lat="38.38306" lon="16.41166"><ele>228.33333333333331</ele><time>2026-04-09T09:10:56.232Z</time></trkpt><trkpt lat="38.3830083" lon="16.411715"><ele>226.5</ele><time>2026-04-09T09:10:57.232Z</time></trkpt><trkpt lat="38.3829" lon="16.41177"><ele>224.66666666666669</ele><time>2026-04-09T09:10:59.232Z</time></trkpt><trkpt lat="38.382835" lon="16.4117667"><ele>222.83333333333334</ele><time>2026-04-09T09:11:00.232Z</time></trkpt><trkpt lat="38.382765" lon="16.411725"><ele>221.0</ele><time>2026-04-09T09:11:01.232Z</time></trkpt><trkpt lat="38.3827" lon="16.411655"><ele>220.50000000000003</ele><time>2026-04-09T09:11:02.232Z</time></trkpt><trkpt lat="38.3826317" lon="16.4115883"><ele>220.0</ele><time>2026-04-09T09:11:03.232Z</time></trkpt><trkpt lat="38.3825517" lon="16.411535"><ele>219.5</ele><time>2026-04-09T09:11:04.232Z</time></trkpt><trkpt lat="38.382475" lon="16.4114983"><ele>219.0</ele><time>2026-04-09T09:11:05.232Z</time></trkpt><trkpt lat="38.382385" lon="16.4114917"><ele>218.50000000000003</ele><time>2026-04-09T09:11:06.232Z</time></trkpt><trkpt lat="38.3822967" lon="16.4115"><ele>218.0</ele><time>2026-04-09T09:11:07.232Z</time></trkpt><trkpt lat="38.3821933" lon="16.411535"><ele>217.8</ele><time>2026-04-09T09:11:08.232Z</time></trkpt><trkpt lat="38.38209" lon="16.41158"><ele>217.60000000000002</ele><time>2026-04-09T09:11:09.232Z</time></trkpt><trkpt lat="38.3819767" lon="16.4116117"><ele>217.39999999999998</ele><time>2026-04-09T09:11:10.232Z</time></trkpt><trkpt lat="38.3818783" lon="16.4116417"><ele>217.2</ele><time>2026-04-09T09:11:11.232Z</time></trkpt><trkpt lat="38.381775" lon="16.4116733"><ele>217.0</ele><time>2026-04-09T09:11:12.232Z</time></trkpt><trkpt lat="38.3816783" lon="16.4117017"><ele>217.0</ele><time>2026-04-09T09:11:13.232Z</time></trkpt><trkpt lat="38.3815817" lon="16.411735"><ele>217.0</ele><time>2026-04-09T09:11:14.232Z</time></trkpt><trkpt lat="38.3814867" lon="16.4117833"><ele>217.0</ele><time>2026-04-09T09:11:15.232Z</time></trkpt><trkpt lat="38.3813983" lon="16.4118483"><ele>217.0</ele><time>2026-04-09T09:11:16.232Z</time></trkpt><trkpt lat="38.3813217" lon="16.411925"><ele>217.0</ele><time>2026-04-09T09:11:17.232Z</time></trkpt><trkpt lat="38.381255" lon="16.4119983"><ele>218.16666666666666</ele><time>2026-04-09T09:11:18.232Z</time></trkpt><trkpt lat="38.381195" lon="16.41207"><ele>219.33333333333331</ele><time>2026-04-09T09:11:19.232Z</time></trkpt><trkpt lat="38.38114" lon="16.4121467"><ele>220.5</ele><time>2026-04-09T09:11:20.232Z</time></trkpt><trkpt lat="38.3810767" lon="16.4122217"><ele>221.66666666666669</ele><time>2026-04-09T09:11:21.232Z</time></trkpt><trkpt lat="38.3810217" lon="16.4123033"><ele>222.83333333333334</ele><time>2026-04-09T09:11:22.232Z</time></trkpt><trkpt lat="38.3809733" lon="16.41238"><ele>224.0</ele><time>2026-04-09T09:11:23.232Z</time></trkpt><trkpt lat="38.3809383" lon="16.412475"><ele>220.33333333333334</ele><time>2026-04-09T09:11:24.232Z</time></trkpt><trkpt lat="38.3809483" lon="16.4125733"><ele>216.66666666666669</ele><time>2026-04-09T09:11:25.232Z</time></trkpt><trkpt lat="38.3809817" lon="16.4126633"><ele>213.0</ele><time>2026-04-09T09:11:26.232Z</time></trkpt><trkpt lat="38.38104" lon="16.4127233"><ele>209.33333333333331</ele><time>2026-04-09T09:11:27.232Z</time></trkpt><trkpt lat="38.381115" lon="16.4127467"><ele>205.66666666666666</ele><time>2026-04-09T09:11:28.232Z</time></trkpt><trkpt lat="38.3812033" lon="16.4127233"><ele>202.0</ele><time>2026-04-09T09:11:29.232Z</time></trkpt><trkpt lat="38.38131" lon="16.4126683"><ele>202.5</ele><time>2026-04-09T09:11:30.232Z</time></trkpt><trkpt lat="38.3814267" lon="16.4125983"><ele>203.0</ele><time>2026-04-09T09:11:31.232Z</time></trkpt><trkpt lat="38.3815383" lon="16.4125233"><ele>203.5</ele><time>2026-04-09T09:11:32.232Z</time></trkpt><trkpt lat="38.38164" lon="16.4124733"><ele>204.0</ele><time>2026-04-09T09:11:33.232Z</time></trkpt><trkpt lat="38.381735" lon="16.4124133"><ele>204.0</ele><time>2026-04-09T09:11:34.232Z</time></trkpt><trkpt lat="38.381835" lon="16.4123667"><ele>204.0</ele><time>2026-04-09T09:11:35.231Z</time></trkpt><trkpt lat="38.381925" lon="16.4123133"><ele>204.0</ele><time>2026-04-09T09:11:36.231Z</time></trkpt><trkpt lat="38.3820167" lon="16.4122617"><ele>204.0</ele><time>2026-04-09T09:11:37.231Z</time></trkpt><trkpt lat="38.382115" lon="16.4122433"><ele>204.0</ele><time>2026-04-09T09:11:38.231Z</time></trkpt><trkpt lat="38.3822017" lon="16.4122417"><ele>203.2</ele><time>2026-04-09T09:11:39.231Z</time></trkpt><trkpt lat="38.38229" lon="16.4122683"><ele>202.39999999999998</ele><time>2026-04-09T09:11:40.231Z</time></trkpt><trkpt lat="38.3823783" lon="16.4123217"><ele>201.6</ele><time>2026-04-09T09:11:41.231Z</time></trkpt><trkpt lat="38.3824583" lon="16.4123883"><ele>200.8</ele><time>2026-04-09T09:11:42.231Z</time></trkpt><trkpt lat="38.38252" lon="16.4124817"><ele>200.0</ele><time>2026-04-09T09:11:43.231Z</time></trkpt><trkpt lat="38.3825733" lon="16.4125817"><ele>200.0</ele><time>2026-04-09T09:11:44.231Z</time></trkpt><trkpt lat="38.382625" lon="16.4127"><ele>200.0</ele><time>2026-04-09T09:11:45.231Z</time></trkpt><trkpt lat="38.3826833" lon="16.4128183"><ele>200.0</ele><time>2026-04-09T09:11:46.231Z</time></trkpt><trkpt lat="38.382735" lon="16.412945"><ele>200.0</ele><time>2026-04-09T09:11:47.23Z</time></trkpt><trkpt lat="38.3827833" lon="16.413065"><ele>200.0</ele><time>2026-04-09T09:11:48.231Z</time></trkpt><trkpt lat="38.3828167" lon="16.41319"><ele>197.6</ele><time>2026-04-09T09:11:49.231Z</time></trkpt><trkpt lat="38.3828433" lon="16.4133167"><ele>195.2</ele><time>2026-04-09T09:11:50.231Z</time></trkpt><trkpt lat="38.3828633" lon="16.413455"><ele>192.8</ele><time>2026-04-09T09:11:51.231Z</time></trkpt><trkpt lat="38.3828883" lon="16.413585"><ele>190.4</ele><time>2026-04-09T09:11:52.231Z</time></trkpt><trkpt lat="38.3829083" lon="16.4137117"><ele>188.0</ele><time>2026-04-09T09:11:53.231Z</time></trkpt><trkpt lat="38.3829167" lon="16.4138383"><ele>186.60000000000002</ele><time>2026-04-09T09:11:54.231Z</time></trkpt><trkpt lat="38.3829217" lon="16.4139583"><ele>185.20000000000002</ele><time>2026-04-09T09:11:55.231Z</time></trkpt><trkpt lat="38.382915" lon="16.4140833"><ele>183.8</ele><time>2026-04-09T09:11:56.231Z</time></trkpt><trkpt lat="38.38291" lon="16.4141967"><ele>182.4</ele><time>2026-04-09T09:11:57.231Z</time></trkpt><trkpt lat="38.3829" lon="16.4143117"><ele>181.0</ele><time>2026-04-09T09:11:58.231Z</time></trkpt><trkpt lat="38.382895" lon="16.4144167"><ele>181.0</ele><time>2026-04-09T09:11:59.231Z</time></trkpt><trkpt lat="38.3828933" lon="16.41451"><ele>181.0</ele><time>2026-04-09T09:12:00.23Z</time></trkpt><trkpt lat="38.3829" lon="16.4146617"><ele>181.0</ele><time>2026-04-09T09:12:02.231Z</time></trkpt><trkpt lat="38.3829317" lon="16.4147917"><ele>181.0</ele><time>2026-04-09T09:12:04.231Z</time></trkpt><trkpt lat="38.3829633" lon="16.4148983"><ele>181.0</ele><time>2026-04-09T09:12:06.231Z</time></trkpt><trkpt lat="38.3829833" lon="16.41498"><ele>184.20000000000002</ele><time>2026-04-09T09:12:09.231Z</time></trkpt><trkpt lat="38.3830333" lon="16.4150717"><ele>187.4</ele><time>2026-04-09T09:13:00.231Z</time></trkpt><trkpt lat="38.3830967" lon="16.41518"><ele>190.6</ele><time>2026-04-09T09:13:02.231Z</time></trkpt><trkpt lat="38.3831683" lon="16.4153133"><ele>193.8</ele><time>2026-04-09T09:13:04.23Z</time></trkpt><trkpt lat="38.3832067" lon="16.4153833"><ele>197.0</ele><time>2026-04-09T09:13:05.231Z</time></trkpt><trkpt lat="38.3832433" lon="16.4154533"><ele>195.57142857142858</ele><time>2026-04-09T09:13:06.231Z</time></trkpt><trkpt lat="38.3832883" lon="16.4155233"><ele>194.14285714285717</ele><time>2026-04-09T09:13:07.231Z</time></trkpt><trkpt lat="38.3833317" lon="16.4155883"><ele>192.71428571428572</ele><time>2026-04-09T09:13:08.231Z</time></trkpt><trkpt lat="38.383375" lon="16.415665"><ele>191.28571428571428</ele><time>2026-04-09T09:13:09.231Z</time></trkpt><trkpt lat="38.3834167" lon="16.4157367"><ele>189.85714285714286</ele><time>2026-04-09T09:13:10.231Z</time></trkpt><trkpt lat="38.3834533" lon="16.4158067"><ele>188.42857142857142</ele><time>2026-04-09T09:13:11.231Z</time></trkpt><trkpt lat="38.383495" lon="16.4158733"><ele>187.0</ele><time>2026-04-09T09:13:12.23Z</time></trkpt><trkpt lat="38.3835433" lon="16.4159317"><ele>187.0</ele><time>2026-04-09T09:13:13.231Z</time></trkpt><trkpt lat="38.3836133" lon="16.41599"><ele>187.0</ele><time>2026-04-09T09:13:14.231Z</time></trkpt><trkpt lat="38.3837033" lon="16.4160383"><ele>187.0</ele><time>2026-04-09T09:13:15.231Z</time></trkpt><trkpt lat="38.3838017" lon="16.4160717"><ele>187.0</ele><time>2026-04-09T09:13:16.231Z</time></trkpt><trkpt lat="38.383915" lon="16.4160933"><ele>187.0</ele><time>2026-04-09T09:13:17.23Z</time></trkpt><trkpt lat="38.3840267" lon="16.4161067"><ele>187.75</ele><time>2026-04-09T09:13:18.231Z</time></trkpt><trkpt lat="38.3841367" lon="16.416125"><ele>188.5</ele><time>2026-04-09T09:13:19.231Z</time></trkpt><trkpt lat="38.3842483" lon="16.4161317"><ele>189.25</ele><time>2026-04-09T09:13:20.23Z</time></trkpt><trkpt lat="38.3843683" lon="16.41614"><ele>190.0</ele><time>2026-04-09T09:13:21.231Z</time></trkpt><trkpt lat="38.3844967" lon="16.41615"><ele>190.0</ele><time>2026-04-09T09:13:22.231Z</time></trkpt><trkpt lat="38.3846183" lon="16.41616"><ele>190.0</ele><time>2026-04-09T09:13:23.23Z</time></trkpt><trkpt lat="38.3847267" lon="16.41618"><ele>190.0</ele><time>2026-04-09T09:13:24.231Z</time></trkpt><trkpt lat="38.3848417" lon="16.4161917"><ele>190.0</ele><time>2026-04-09T09:13:25.231Z</time></trkpt><trkpt lat="38.384955" lon="16.4162017"><ele>189.6</ele><time>2026-04-09T09:13:26.231Z</time></trkpt><trkpt lat="38.3850633" lon="16.41621"><ele>189.2</ele><time>2026-04-09T09:13:27.231Z</time></trkpt><trkpt lat="38.3851733" lon="16.416205"><ele>188.8</ele><time>2026-04-09T09:13:28.231Z</time></trkpt><trkpt lat="38.3852767" lon="16.4162017"><ele>188.4</ele><time>2026-04-09T09:13:29.231Z</time></trkpt><trkpt lat="38.3853833" lon="16.4162033"><ele>188.0</ele><time>2026-04-09T09:13:30.231Z</time></trkpt><trkpt lat="38.3854833" lon="16.4162117"><ele>186.0</ele><time>2026-04-09T09:13:31.231Z</time></trkpt><trkpt lat="38.3855833" lon="16.41622"><ele>184.0</ele><time>2026-04-09T09:13:32.231Z</time></trkpt><trkpt lat="38.385675" lon="16.4162333"><ele>182.0</ele><time>2026-04-09T09:13:33.231Z</time></trkpt><trkpt lat="38.38577" lon="16.4162433"><ele>180.0</ele><time>2026-04-09T09:13:34.231Z</time></trkpt><trkpt lat="38.3858583" lon="16.4162383"><ele>178.0</ele><time>2026-04-09T09:13:35.231Z</time></trkpt><trkpt lat="38.385935" lon="16.4162167"><ele>178.0</ele><time>2026-04-09T09:13:36.231Z</time></trkpt><trkpt lat="38.3860067" lon="16.416175"><ele>178.0</ele><time>2026-04-09T09:13:37.23Z</time></trkpt><trkpt lat="38.3860583" lon="16.41611"><ele>178.0</ele><time>2026-04-09T09:13:38.231Z</time></trkpt><trkpt lat="38.3861" lon="16.4160183"><ele>178.0</ele><time>2026-04-09T09:13:39.23Z</time></trkpt><trkpt lat="38.3861333" lon="16.415925"><ele>178.0</ele><time>2026-04-09T09:13:40.231Z</time></trkpt><trkpt lat="38.3861683" lon="16.4158383"><ele>178.0</ele><time>2026-04-09T09:13:41.231Z</time></trkpt><trkpt lat="38.3862183" lon="16.41575"><ele>178.0</ele><time>2026-04-09T09:13:42.231Z</time></trkpt><trkpt lat="38.3862817" lon="16.4156517"><ele>178.0</ele><time>2026-04-09T09:13:43.231Z</time></trkpt><trkpt lat="38.38636" lon="16.41555"><ele>178.0</ele><time>2026-04-09T09:13:44.231Z</time></trkpt><trkpt lat="38.3864417" lon="16.415445"><ele>178.0</ele><time>2026-04-09T09:13:45.231Z</time></trkpt><trkpt lat="38.386525" lon="16.4153433"><ele>178.0</ele><time>2026-04-09T09:13:46.231Z</time></trkpt><trkpt lat="38.3866083" lon="16.4152467"><ele>176.2</ele><time>2026-04-09T09:13:47.231Z</time></trkpt><trkpt lat="38.38669" lon="16.4151517"><ele>174.4</ele><time>2026-04-09T09:13:48.231Z</time></trkpt><trkpt lat="38.3867667" lon="16.4150667"><ele>172.6</ele><time>2026-04-09T09:13:49.231Z</time></trkpt><trkpt lat="38.3868433" lon="16.414975"><ele>170.79999999999998</ele><time>2026-04-09T09:13:50.231Z</time></trkpt><trkpt lat="38.3869167" lon="16.414875"><ele>169.0</ele><time>2026-04-09T09:13:51.231Z</time></trkpt><trkpt lat="38.3869717" lon="16.4147617"><ele>169.0</ele><time>2026-04-09T09:13:52.231Z</time></trkpt><trkpt lat="38.3870217" lon="16.414655"><ele>169.0</ele><time>2026-04-09T09:13:53.231Z</time></trkpt><trkpt lat="38.3870733" lon="16.41457"><ele>169.0</ele><time>2026-04-09T09:13:54.231Z</time></trkpt><trkpt lat="38.3871217" lon="16.4145183"><ele>169.0</ele><time>2026-04-09T09:13:55.231Z</time></trkpt><trkpt lat="38.387225" lon="16.4145233"><ele>169.0</ele><time>2026-04-09T09:13:57.231Z</time></trkpt><trkpt lat="38.38728" lon="16.4145883"><ele>169.0</ele><time>2026-04-09T09:13:58.231Z</time></trkpt><trkpt lat="38.3873" lon="16.4146817"><ele>169.0</ele><time>2026-04-09T09:13:59.231Z</time></trkpt><trkpt lat="38.3872667" lon="16.4147917"><ele>169.0</ele><time>2026-04-09T09:14:00.231Z</time></trkpt><trkpt lat="38.3872083" lon="16.41489"><ele>169.0</ele><time>2026-04-09T09:14:01.231Z</time></trkpt><trkpt lat="38.3871433" lon="16.4149867"><ele>169.0</ele><time>2026-04-09T09:14:02.231Z</time></trkpt><trkpt lat="38.38707" lon="16.4151017"><ele>169.0</ele><time>2026-04-09T09:14:03.231Z</time></trkpt><trkpt lat="38.3869883" lon="16.4152167"><ele>169.0</ele><time>2026-04-09T09:14:04.231Z</time></trkpt><trkpt lat="38.38692" lon="16.4153233"><ele>169.0</ele><time>2026-04-09T09:14:05.231Z</time></trkpt><trkpt lat="38.3868683" lon="16.4154183"><ele>169.0</ele><time>2026-04-09T09:14:06.23Z</time></trkpt><trkpt lat="38.38683" lon="16.4155117"><ele>169.0</ele><time>2026-04-09T09:14:07.231Z</time></trkpt><trkpt lat="38.386815" lon="16.415615"><ele>169.0</ele><time>2026-04-09T09:14:08.231Z</time></trkpt><trkpt lat="38.3868367" lon="16.41571"><ele>169.0</ele><time>2026-04-09T09:14:09.231Z</time></trkpt><trkpt lat="38.3868933" lon="16.4157833"><ele>167.66666666666669</ele><time>2026-04-09T09:14:10.231Z</time></trkpt><trkpt lat="38.38696" lon="16.415825"><ele>166.33333333333334</ele><time>2026-04-09T09:14:11.231Z</time></trkpt><trkpt lat="38.3870433" lon="16.4158183"><ele>165.0</ele><time>2026-04-09T09:14:12.231Z</time></trkpt><trkpt lat="38.3871167" lon="16.4157717"><ele>163.66666666666666</ele><time>2026-04-09T09:14:13.231Z</time></trkpt><trkpt lat="38.3871783" lon="16.4157067"><ele>162.33333333333331</ele><time>2026-04-09T09:14:14.23Z</time></trkpt><trkpt lat="38.38723" lon="16.4156367"><ele>161.0</ele><time>2026-04-09T09:14:15.231Z</time></trkpt><trkpt lat="38.3872817" lon="16.41557"><ele>159.66666666666666</ele><time>2026-04-09T09:14:16.231Z</time></trkpt><trkpt lat="38.3873367" lon="16.4155133"><ele>158.33333333333331</ele><time>2026-04-09T09:14:17.231Z</time></trkpt><trkpt lat="38.38739" lon="16.4154567"><ele>157.0</ele><time>2026-04-09T09:14:18.231Z</time></trkpt><trkpt lat="38.3874467" lon="16.4154017"><ele>155.66666666666666</ele><time>2026-04-09T09:14:19.231Z</time></trkpt><trkpt lat="38.3875017" lon="16.4153317"><ele>154.33333333333334</ele><time>2026-04-09T09:14:20.231Z</time></trkpt><trkpt lat="38.3875583" lon="16.4152617"><ele>153.0</ele><time>2026-04-09T09:14:21.231Z</time></trkpt><trkpt lat="38.3876167" lon="16.415185"><ele>153.0</ele><time>2026-04-09T09:14:22.23Z</time></trkpt><trkpt lat="38.38768" lon="16.41513"><ele>153.0</ele><time>2026-04-09T09:14:23.231Z</time></trkpt><trkpt lat="38.387745" lon="16.4151033"><ele>153.0</ele><time>2026-04-09T09:14:24.231Z</time></trkpt><trkpt lat="38.3878483" lon="16.415165"><ele>153.0</ele><time>2026-04-09T09:14:26.231Z</time></trkpt><trkpt lat="38.38788" lon="16.4152467"><ele>153.0</ele><time>2026-04-09T09:14:27.231Z</time></trkpt><trkpt lat="38.38786" lon="16.4153533"><ele>153.0</ele><time>2026-04-09T09:14:28.231Z</time></trkpt><trkpt lat="38.38782" lon="16.4154467"><ele>152.0</ele><time>2026-04-09T09:14:29.231Z</time></trkpt><trkpt lat="38.387755" lon="16.4155167"><ele>151.0</ele><time>2026-04-09T09:14:30.23Z</time></trkpt><trkpt lat="38.3876733" lon="16.415565"><ele>150.0</ele><time>2026-04-09T09:14:31.231Z</time></trkpt><trkpt lat="38.3875883" lon="16.41561"><ele>149.0</ele><time>2026-04-09T09:14:32.231Z</time></trkpt><trkpt lat="38.38749" lon="16.4156483"><ele>148.0</ele><time>2026-04-09T09:14:33.231Z</time></trkpt><trkpt lat="38.3874067" lon="16.4157"><ele>148.0</ele><time>2026-04-09T09:14:34.231Z</time></trkpt><trkpt lat="38.3873383" lon="16.4157633"><ele>148.0</ele><time>2026-04-09T09:14:35.231Z</time></trkpt><trkpt lat="38.387295" lon="16.4158333"><ele>148.0</ele><time>2026-04-09T09:14:36.231Z</time></trkpt><trkpt lat="38.38728" lon="16.41592"><ele>148.0</ele><time>2026-04-09T09:14:37.231Z</time></trkpt><trkpt lat="38.387295" lon="16.4160083"><ele>148.0</ele><time>2026-04-09T09:14:38.231Z</time></trkpt><trkpt lat="38.387345" lon="16.41608"><ele>148.0</ele><time>2026-04-09T09:14:39.23Z</time></trkpt><trkpt lat="38.3874083" lon="16.4161183"><ele>148.0</ele><time>2026-04-09T09:14:40.231Z</time></trkpt><trkpt lat="38.3874917" lon="16.41611"><ele>148.0</ele><time>2026-04-09T09:14:41.231Z</time></trkpt><trkpt lat="38.3875783" lon="16.4160483"><ele>148.0</ele><time>2026-04-09T09:14:42.231Z</time></trkpt><trkpt lat="38.3876683" lon="16.415955"><ele>148.0</ele><time>2026-04-09T09:14:43.231Z</time></trkpt><trkpt lat="38.3877617" lon="16.4158683"><ele>148.0</ele><time>2026-04-09T09:14:44.231Z</time></trkpt><trkpt lat="38.38785" lon="16.41579"><ele>148.0</ele><time>2026-04-09T09:14:45.231Z</time></trkpt><trkpt lat="38.3879417" lon="16.41572"><ele>145.6</ele><time>2026-04-09T09:14:46.231Z</time></trkpt><trkpt lat="38.388035" lon="16.4156533"><ele>143.20000000000002</ele><time>2026-04-09T09:14:47.231Z</time></trkpt><trkpt lat="38.3881333" lon="16.415585"><ele>140.8</ele><time>2026-04-09T09:14:48.231Z</time></trkpt><trkpt lat="38.388235" lon="16.4155183"><ele>138.4</ele><time>2026-04-09T09:14:49.231Z</time></trkpt><trkpt lat="38.3883383" lon="16.4154533"><ele>136.0</ele><time>2026-04-09T09:14:50.231Z</time></trkpt><trkpt lat="38.3884483" lon="16.4153867"><ele>136.0</ele><time>2026-04-09T09:14:51.231Z</time></trkpt><trkpt lat="38.3885467" lon="16.415315"><ele>136.0</ele><time>2026-04-09T09:14:52.231Z</time></trkpt><trkpt lat="38.3886583" lon="16.4152417"><ele>136.0</ele><time>2026-04-09T09:14:53.231Z</time></trkpt><trkpt lat="38.3887667" lon="16.41517"><ele>136.0</ele><time>2026-04-09T09:14:54.231Z</time></trkpt><trkpt lat="38.388875" lon="16.4150883"><ele>134.6</ele><time>2026-04-09T09:14:55.231Z</time></trkpt><trkpt lat="38.3889817" lon="16.41501"><ele>133.2</ele><time>2026-04-09T09:14:56.231Z</time></trkpt><trkpt lat="38.3890883" lon="16.4149433"><ele>131.8</ele><time>2026-04-09T09:14:57.231Z</time></trkpt><trkpt lat="38.3891783" lon="16.4148767"><ele>130.4</ele><time>2026-04-09T09:14:58.231Z</time></trkpt><trkpt lat="38.3892733" lon="16.4148267"><ele>129.0</ele><time>2026-04-09T09:14:59.231Z</time></trkpt><trkpt lat="38.389375" lon="16.4147933"><ele>129.0</ele><time>2026-04-09T09:15:00.231Z</time></trkpt><trkpt lat="38.3894783" lon="16.414805"><ele>129.0</ele><time>2026-04-09T09:15:01.231Z</time></trkpt><trkpt lat="38.3895517" lon="16.4148717"><ele>129.0</ele><time>2026-04-09T09:15:02.231Z</time></trkpt><trkpt lat="38.3895833" lon="16.4149667"><ele>129.0</ele><time>2026-04-09T09:15:03.231Z</time></trkpt><trkpt lat="38.3895567" lon="16.4150867"><ele>129.0</ele><time>2026-04-09T09:15:04.231Z</time></trkpt><trkpt lat="38.3894917" lon="16.4151933"><ele>129.0</ele><time>2026-04-09T09:15:05.23Z</time></trkpt><trkpt lat="38.3893967" lon="16.4152983"><ele>129.0</ele><time>2026-04-09T09:15:06.231Z</time></trkpt><trkpt lat="38.389305" lon="16.4154083"><ele>129.0</ele><time>2026-04-09T09:15:07.231Z</time></trkpt><trkpt lat="38.3892367" lon="16.4155233"><ele>129.0</ele><time>2026-04-09T09:15:08.231Z</time></trkpt><trkpt lat="38.389205" lon="16.41563"><ele>127.33333333333333</ele><time>2026-04-09T09:15:09.231Z</time></trkpt><trkpt lat="38.3892067" lon="16.4157233"><ele>125.66666666666666</ele><time>2026-04-09T09:15:10.231Z</time></trkpt><trkpt lat="38.38925" lon="16.415805"><ele>124.0</ele><time>2026-04-09T09:15:11.231Z</time></trkpt><trkpt lat="38.3893217" lon="16.4158583"><ele>122.33333333333333</ele><time>2026-04-09T09:15:12.231Z</time></trkpt><trkpt lat="38.389415" lon="16.4158533"><ele>120.66666666666666</ele><time>2026-04-09T09:15:13.23Z</time></trkpt><trkpt lat="38.3895133" lon="16.4158"><ele>119.0</ele><time>2026-04-09T09:15:14.231Z</time></trkpt><trkpt lat="38.389615" lon="16.4156933"><ele>118.25</ele><time>2026-04-09T09:15:15.231Z</time></trkpt><trkpt lat="38.389705" lon="16.4155633"><ele>117.5</ele><time>2026-04-09T09:15:16.231Z</time></trkpt><trkpt lat="38.389805" lon="16.4154433"><ele>116.75</ele><time>2026-04-09T09:15:17.231Z</time></trkpt><trkpt lat="38.3899017" lon="16.4153433"><ele>116.0</ele><time>2026-04-09T09:15:18.231Z</time></trkpt><trkpt lat="38.3899817" lon="16.4152283"><ele>116.0</ele><time>2026-04-09T09:15:19.231Z</time></trkpt><trkpt lat="38.39005" lon="16.415105"><ele>116.0</ele><time>2026-04-09T09:15:20.231Z</time></trkpt><trkpt lat="38.3901033" lon="16.4149717"><ele>116.0</ele><time>2026-04-09T09:15:21.231Z</time></trkpt><trkpt lat="38.3901183" lon="16.4148267"><ele>116.0</ele><time>2026-04-09T09:15:22.231Z</time></trkpt><trkpt lat="38.3901017" lon="16.41469"><ele>114.5</ele><time>2026-04-09T09:15:23.231Z</time></trkpt><trkpt lat="38.3900567" lon="16.4145517"><ele>113.0</ele><time>2026-04-09T09:15:24.231Z</time></trkpt><trkpt lat="38.389995" lon="16.4144267"><ele>111.5</ele><time>2026-04-09T09:15:25.231Z</time></trkpt><trkpt lat="38.3899183" lon="16.4143117"><ele>110.0</ele><time>2026-04-09T09:15:26.231Z</time></trkpt><trkpt lat="38.3898317" lon="16.4141983"><ele>110.0</ele><time>2026-04-09T09:15:27.231Z</time></trkpt><trkpt lat="38.3897583" lon="16.4141033"><ele>110.0</ele><time>2026-04-09T09:15:28.231Z</time></trkpt><trkpt lat="38.3897017" lon="16.41401"><ele>110.0</ele><time>2026-04-09T09:15:29.231Z</time></trkpt><trkpt lat="38.3896667" lon="16.4139017"><ele>110.0</ele><time>2026-04-09T09:15:30.231Z</time></trkpt><trkpt lat="38.3896783" lon="16.41379"><ele>110.0</ele><time>2026-04-09T09:15:31.231Z</time></trkpt><trkpt lat="38.3897083" lon="16.4136833"><ele>109.6</ele><time>2026-04-09T09:15:32.231Z</time></trkpt><trkpt lat="38.3897683" lon="16.4135933"><ele>109.2</ele><time>2026-04-09T09:15:33.231Z</time></trkpt><trkpt lat="38.38986" lon="16.4135083"><ele>108.80000000000001</ele><time>2026-04-09T09:15:34.231Z</time></trkpt><trkpt lat="38.389965" lon="16.413435"><ele>108.4</ele><time>2026-04-09T09:15:35.231Z</time></trkpt><trkpt lat="38.3900533" lon="16.413385"><ele>108.0</ele><time>2026-04-09T09:15:36.231Z</time></trkpt><trkpt lat="38.3901383" lon="16.4133567"><ele>108.0</ele><time>2026-04-09T09:15:37.231Z</time></trkpt><trkpt lat="38.3902017" lon="16.4133433"><ele>108.0</ele><time>2026-04-09T09:15:38.231Z</time></trkpt><trkpt lat="38.3902883" lon="16.41334"><ele>108.0</ele><time>2026-04-09T09:15:40.231Z</time></trkpt><trkpt lat="38.3903667" lon="16.4133417"><ele>108.0</ele><time>2026-04-09T09:15:42.23Z</time></trkpt><trkpt lat="38.3904867" lon="16.4133483"><ele>108.0</ele><time>2026-04-09T09:15:44.231Z</time></trkpt><trkpt lat="38.3905683" lon="16.4133633"><ele>108.0</ele><time>2026-04-09T09:15:45.231Z</time></trkpt><trkpt lat="38.39066" lon="16.4133767"><ele>107.4</ele><time>2026-04-09T09:15:46.231Z</time></trkpt><trkpt lat="38.3907583" lon="16.413395"><ele>106.80000000000001</ele><time>2026-04-09T09:15:47.231Z</time></trkpt><trkpt lat="38.39086" lon="16.4134033"><ele>106.2</ele><time>2026-04-09T09:15:48.231Z</time></trkpt><trkpt lat="38.3909617" lon="16.413415"><ele>105.6</ele><time>2026-04-09T09:15:49.231Z</time></trkpt><trkpt lat="38.3910667" lon="16.4134233"><ele>105.0</ele><time>2026-04-09T09:15:50.231Z</time></trkpt><trkpt lat="38.39117" lon="16.4134333"><ele>105.0</ele><time>2026-04-09T09:15:51.231Z</time></trkpt><trkpt lat="38.3912783" lon="16.4134433"><ele>105.0</ele><time>2026-04-09T09:15:52.231Z</time></trkpt><trkpt lat="38.3913817" lon="16.4134533"><ele>105.0</ele><time>2026-04-09T09:15:53.231Z</time></trkpt><trkpt lat="38.3914833" lon="16.4134667"><ele>105.0</ele><time>2026-04-09T09:15:54.231Z</time></trkpt><trkpt lat="38.3915883" lon="16.4134783"><ele>105.0</ele><time>2026-04-09T09:15:55.231Z</time></trkpt><trkpt lat="38.3916933" lon="16.41349"><ele>105.0</ele><time>2026-04-09T09:15:56.231Z</time></trkpt><trkpt lat="38.3917933" lon="16.4135"><ele>105.0</ele><time>2026-04-09T09:15:57.231Z</time></trkpt><trkpt lat="38.3918933" lon="16.4135"><ele>105.0</ele><time>2026-04-09T09:15:58.231Z</time></trkpt><trkpt lat="38.391985" lon="16.4135067"><ele>105.0</ele><time>2026-04-09T09:15:59.231Z</time></trkpt><trkpt lat="38.3920633" lon="16.4135167"><ele>105.0</ele><time>2026-04-09T09:16:00.231Z</time></trkpt><trkpt lat="38.3921367" lon="16.41352"><ele>105.0</ele><time>2026-04-09T09:16:01.231Z</time></trkpt><trkpt lat="38.3922033" lon="16.4135217"><ele>105.0</ele><time>2026-04-09T09:16:02.231Z</time></trkpt><trkpt lat="38.3922717" lon="16.4135283"><ele>105.0</ele><time>2026-04-09T09:16:03.231Z</time></trkpt><trkpt lat="38.3923367" lon="16.4135317"><ele>105.0</ele><time>2026-04-09T09:16:04.23Z</time></trkpt><trkpt lat="38.3924567" lon="16.413545"><ele>105.0</ele><time>2026-04-09T09:16:06.231Z</time></trkpt><trkpt lat="38.39252" lon="16.41356"><ele>105.0</ele><time>2026-04-09T09:16:07.231Z</time></trkpt><trkpt lat="38.392585" lon="16.41357"><ele>105.0</ele><time>2026-04-09T09:16:08.231Z</time></trkpt><trkpt lat="38.3926567" lon="16.4135783"><ele>105.0</ele><time>2026-04-09T09:16:09.231Z</time></trkpt><trkpt lat="38.3927317" lon="16.4135883"><ele>105.0</ele><time>2026-04-09T09:16:10.231Z</time></trkpt><trkpt lat="38.3928133" lon="16.4135917"><ele>105.0</ele><time>2026-04-09T09:16:11.231Z</time></trkpt><trkpt lat="38.3929033" lon="16.4135967"><ele>105.0</ele><time>2026-04-09T09:16:12.231Z</time></trkpt><trkpt lat="38.3930017" lon="16.4136083"><ele>105.0</ele><time>2026-04-09T09:16:13.231Z</time></trkpt><trkpt lat="38.3931" lon="16.4136267"><ele>105.0</ele><time>2026-04-09T09:16:14.231Z</time></trkpt><trkpt lat="38.3932083" lon="16.4136417"><ele>104.8</ele><time>2026-04-09T09:16:15.23Z</time></trkpt><trkpt lat="38.3933183" lon="16.41365"><ele>104.6</ele><time>2026-04-09T09:16:16.23Z</time></trkpt><trkpt lat="38.3934267" lon="16.4136617"><ele>104.4</ele><time>2026-04-09T09:16:17.231Z</time></trkpt><trkpt lat="38.393535" lon="16.4136717"><ele>104.2</ele><time>2026-04-09T09:16:18.23Z</time></trkpt><trkpt lat="38.3936433" lon="16.4136767"><ele>104.0</ele><time>2026-04-09T09:16:19.231Z</time></trkpt><trkpt lat="38.3937567" lon="16.4136833"><ele>105.0</ele><time>2026-04-09T09:16:20.231Z</time></trkpt><trkpt lat="38.393865" lon="16.4136933"><ele>106.0</ele><time>2026-04-09T09:16:21.231Z</time></trkpt><trkpt lat="38.3939817" lon="16.4137"><ele>107.0</ele><time>2026-04-09T09:16:22.231Z</time></trkpt><trkpt lat="38.3941067" lon="16.4137217"><ele>108.0</ele><time>2026-04-09T09:16:23.23Z</time></trkpt><trkpt lat="38.3942383" lon="16.4137283"><ele>108.0</ele><time>2026-04-09T09:16:24.231Z</time></trkpt><trkpt lat="38.3943633" lon="16.4137517"><ele>108.0</ele><time>2026-04-09T09:16:25.231Z</time></trkpt><trkpt lat="38.39448" lon="16.41378"><ele>108.0</ele><time>2026-04-09T09:16:26.231Z</time></trkpt><trkpt lat="38.3946" lon="16.4138483"><ele>108.0</ele><time>2026-04-09T09:16:27.231Z</time></trkpt><trkpt lat="38.3947083" lon="16.413935"><ele>107.5</ele><time>2026-04-09T09:16:28.231Z</time></trkpt><trkpt lat="38.3948067" lon="16.414035"><ele>107.0</ele><time>2026-04-09T09:16:29.231Z</time></trkpt><trkpt lat="38.3949033" lon="16.414135"><ele>106.5</ele><time>2026-04-09T09:16:30.231Z</time></trkpt><trkpt lat="38.3949983" lon="16.4142383"><ele>106.0</ele><time>2026-04-09T09:16:31.23Z</time></trkpt><trkpt lat="38.39509" lon="16.414345"><ele>106.0</ele><time>2026-04-09T09:16:32.231Z</time></trkpt><trkpt lat="38.395175" lon="16.4144533"><ele>106.0</ele><time>2026-04-09T09:16:33.231Z</time></trkpt><trkpt lat="38.395245" lon="16.4145617"><ele>106.0</ele><time>2026-04-09T09:16:34.231Z</time></trkpt><trkpt lat="38.3953033" lon="16.414675"><ele>106.0</ele><time>2026-04-09T09:16:35.231Z</time></trkpt><trkpt lat="38.3953617" lon="16.41478"><ele>106.0</ele><time>2026-04-09T09:16:36.231Z</time></trkpt><trkpt lat="38.3954167" lon="16.4148733"><ele>107.19999999999999</ele><time>2026-04-09T09:16:37.231Z</time></trkpt><trkpt lat="38.39546" lon="16.41495"><ele>108.39999999999999</ele><time>2026-04-09T09:16:38.231Z</time></trkpt><trkpt lat="38.3955" lon="16.4150233"><ele>109.6</ele><time>2026-04-09T09:16:39.231Z</time></trkpt><trkpt lat="38.3955783" lon="16.41513"><ele>110.8</ele><time>2026-04-09T09:16:41.231Z</time></trkpt><trkpt lat="38.395655" lon="16.4152"><ele>112.0</ele><time>2026-04-09T09:16:43.23Z</time></trkpt><trkpt lat="38.3957383" lon="16.415265"><ele>112.0</ele><time>2026-04-09T09:16:45.231Z</time></trkpt><trkpt lat="38.3958" lon="16.415295"><ele>112.0</ele><time>2026-04-09T09:16:46.231Z</time></trkpt><trkpt lat="38.3958683" lon="16.41531"><ele>112.0</ele><time>2026-04-09T09:16:47.231Z</time></trkpt><trkpt lat="38.3959383" lon="16.415315"><ele>112.0</ele><time>2026-04-09T09:16:48.23Z</time></trkpt><trkpt lat="38.3960183" lon="16.4152967"><ele>112.0</ele><time>2026-04-09T09:16:49.231Z</time></trkpt><trkpt lat="38.3960967" lon="16.415275"><ele>112.0</ele><time>2026-04-09T09:16:50.231Z</time></trkpt><trkpt lat="38.396175" lon="16.4152467"><ele>112.0</ele><time>2026-04-09T09:16:51.23Z</time></trkpt><trkpt lat="38.3962517" lon="16.4152333"><ele>111.00000000000001</ele><time>2026-04-09T09:16:52.231Z</time></trkpt><trkpt lat="38.3963367" lon="16.4152467"><ele>110.0</ele><time>2026-04-09T09:16:53.23Z</time></trkpt><trkpt lat="38.3964267" lon="16.415285"><ele>109.0</ele><time>2026-04-09T09:16:54.231Z</time></trkpt><trkpt lat="38.39651" lon="16.41533"><ele>108.0</ele><time>2026-04-09T09:16:55.231Z</time></trkpt><trkpt lat="38.396585" lon="16.415355"><ele>107.00000000000001</ele><time>2026-04-09T09:16:56.231Z</time></trkpt><trkpt lat="38.39666" lon="16.4153333"><ele>106.0</ele><time>2026-04-09T09:16:57.231Z</time></trkpt><trkpt lat="38.3967183" lon="16.4152767"><ele>106.00000000000001</ele><time>2026-04-09T09:16:58.231Z</time></trkpt><trkpt lat="38.396755" lon="16.4151867"><ele>106.0</ele><time>2026-04-09T09:16:59.231Z</time></trkpt><trkpt lat="38.396775" lon="16.4150767"><ele>106.0</ele><time>2026-04-09T09:17:00.231Z</time></trkpt><trkpt lat="38.3967917" lon="16.41496"><ele>106.0</ele><time>2026-04-09T09:17:01.23Z</time></trkpt><trkpt lat="38.3968233" lon="16.4148567"><ele>106.00000000000001</ele><time>2026-04-09T09:17:02.231Z</time></trkpt><trkpt lat="38.3968483" lon="16.4147533"><ele>106.0</ele><time>2026-04-09T09:17:03.23Z</time></trkpt><trkpt lat="38.3968717" lon="16.4146517"><ele>109.0</ele><time>2026-04-09T09:17:04.231Z</time></trkpt><trkpt lat="38.3968717" lon="16.4145383"><ele>112.0</ele><time>2026-04-09T09:17:05.231Z</time></trkpt><trkpt lat="38.39686" lon="16.4144133"><ele>115.0</ele><time>2026-04-09T09:17:06.231Z</time></trkpt><trkpt lat="38.3968517" lon="16.4142883"><ele>118.0</ele><time>2026-04-09T09:17:07.231Z</time></trkpt><trkpt lat="38.3968517" lon="16.4141583"><ele>121.0</ele><time>2026-04-09T09:17:08.23Z</time></trkpt><trkpt lat="38.396855" lon="16.4140283"><ele>121.0</ele><time>2026-04-09T09:17:09.231Z</time></trkpt><trkpt lat="38.396875" lon="16.4139133"><ele>121.0</ele><time>2026-04-09T09:17:10.231Z</time></trkpt><trkpt lat="38.3969083" lon="16.4138033"><ele>121.0</ele><time>2026-04-09T09:17:11.231Z</time></trkpt><trkpt lat="38.3969583" lon="16.4137017"><ele>121.0</ele><time>2026-04-09T09:17:12.231Z</time></trkpt><trkpt lat="38.397025" lon="16.4136133"><ele>121.0</ele><time>2026-04-09T09:17:13.231Z</time></trkpt><trkpt lat="38.3970933" lon="16.4135333"><ele>123.00000000000001</ele><time>2026-04-09T09:17:14.23Z</time></trkpt><trkpt lat="38.3971617" lon="16.4134617"><ele>125.0</ele><time>2026-04-09T09:17:15.231Z</time></trkpt><trkpt lat="38.3972167" lon="16.4133933"><ele>127.0</ele><time>2026-04-09T09:17:16.231Z</time></trkpt><trkpt lat="38.3972583" lon="16.4133083"><ele>129.0</ele><time>2026-04-09T09:17:17.23Z</time></trkpt><trkpt lat="38.397275" lon="16.4132183"><ele>131.0</ele><time>2026-04-09T09:17:18.231Z</time></trkpt><trkpt lat="38.3972717" lon="16.4131267"><ele>133.0</ele><time>2026-04-09T09:17:19.231Z</time></trkpt><trkpt lat="38.397235" lon="16.41304"><ele>133.66666666666669</ele><time>2026-04-09T09:17:20.23Z</time></trkpt><trkpt lat="38.3972117" lon="16.4129517"><ele>134.33333333333334</ele><time>2026-04-09T09:17:21.231Z</time></trkpt><trkpt lat="38.3972017" lon="16.41286"><ele>135.0</ele><time>2026-04-09T09:17:22.231Z</time></trkpt><trkpt lat="38.3972517" lon="16.412725"><ele>135.66666666666666</ele><time>2026-04-09T09:17:24.231Z</time></trkpt><trkpt lat="38.39731" lon="16.412685"><ele>136.33333333333331</ele><time>2026-04-09T09:17:25.231Z</time></trkpt><trkpt lat="38.3973733" lon="16.4126517"><ele>137.0</ele><time>2026-04-09T09:17:26.231Z</time></trkpt><trkpt lat="38.3974633" lon="16.412655"><ele>137.0</ele><time>2026-04-09T09:17:27.231Z</time></trkpt><trkpt lat="38.3975733" lon="16.4126683"><ele>137.0</ele><time>2026-04-09T09:17:28.231Z</time></trkpt><trkpt lat="38.397685" lon="16.4126867"><ele>137.0</ele><time>2026-04-09T09:17:29.231Z</time></trkpt><trkpt lat="38.397805" lon="16.4127"><ele>137.0</ele><time>2026-04-09T09:17:30.231Z</time></trkpt><trkpt lat="38.3979283" lon="16.4127117"><ele>132.5</ele><time>2026-04-09T09:17:31.231Z</time></trkpt><trkpt lat="38.3980533" lon="16.41273"><ele>128.0</ele><time>2026-04-09T09:17:32.231Z</time></trkpt><trkpt lat="38.3981767" lon="16.4127517"><ele>123.5</ele><time>2026-04-09T09:17:33.23Z</time></trkpt><trkpt lat="38.3982933" lon="16.4127833"><ele>119.0</ele><time>2026-04-09T09:17:34.231Z</time></trkpt><trkpt lat="38.3984067" lon="16.4128233"><ele>119.0</ele><time>2026-04-09T09:17:35.231Z</time></trkpt><trkpt lat="38.398505" lon="16.41284"><ele>119.0</ele><time>2026-04-09T09:17:36.231Z</time></trkpt><trkpt lat="38.3986133" lon="16.4128833"><ele>119.0</ele><time>2026-04-09T09:17:37.231Z</time></trkpt><trkpt lat="38.3987183" lon="16.4129283"><ele>119.0</ele><time>2026-04-09T09:17:38.231Z</time></trkpt><trkpt lat="38.3988217" lon="16.4129817"><ele>119.0</ele><time>2026-04-09T09:17:39.231Z</time></trkpt><trkpt lat="38.3989233" lon="16.41303"><ele>116.6</ele><time>2026-04-09T09:17:40.231Z</time></trkpt><trkpt lat="38.3990217" lon="16.41307"><ele>114.2</ele><time>2026-04-09T09:17:41.231Z</time></trkpt><trkpt lat="38.3991167" lon="16.4131167"><ele>111.79999999999998</ele><time>2026-04-09T09:17:42.231Z</time></trkpt><trkpt lat="38.399205" lon="16.4131667"><ele>109.39999999999999</ele><time>2026-04-09T09:17:43.23Z</time></trkpt><trkpt lat="38.3992833" lon="16.413235"><ele>107.0</ele><time>2026-04-09T09:17:44.231Z</time></trkpt><trkpt lat="38.3993583" lon="16.413305"><ele>107.0</ele><time>2026-04-09T09:17:45.231Z</time></trkpt><trkpt lat="38.3994333" lon="16.4133983"><ele>106.99999999999999</ele><time>2026-04-09T09:17:46.231Z</time></trkpt><trkpt lat="38.3995" lon="16.413505"><ele>106.99999999999999</ele><time>2026-04-09T09:17:47.23Z</time></trkpt><trkpt lat="38.39956" lon="16.4136183"><ele>107.0</ele><time>2026-04-09T09:17:48.231Z</time></trkpt><trkpt lat="38.3996217" lon="16.4137217"><ele>107.0</ele><time>2026-04-09T09:17:49.231Z</time></trkpt><trkpt lat="38.3996883" lon="16.4138033"><ele>105.66666666666666</ele><time>2026-04-09T09:17:50.231Z</time></trkpt><trkpt lat="38.3997567" lon="16.4138483"><ele>104.33333333333333</ele><time>2026-04-09T09:17:51.231Z</time></trkpt><trkpt lat="38.3998317" lon="16.4138483"><ele>103.0</ele><time>2026-04-09T09:17:52.231Z</time></trkpt><trkpt lat="38.3999067" lon="16.4138067"><ele>101.66666666666666</ele><time>2026-04-09T09:17:53.231Z</time></trkpt><trkpt lat="38.3999833" lon="16.4137283"><ele>100.33333333333333</ele><time>2026-04-09T09:17:54.231Z</time></trkpt><trkpt lat="38.40004" lon="16.413635"><ele>99.0</ele><time>2026-04-09T09:17:55.231Z</time></trkpt><trkpt lat="38.4001117" lon="16.4135217"><ele>102.4</ele><time>2026-04-09T09:17:56.231Z</time></trkpt><trkpt lat="38.40018" lon="16.4134267"><ele>105.80000000000001</ele><time>2026-04-09T09:17:57.231Z</time></trkpt><trkpt lat="38.4002367" lon="16.4133333"><ele>109.19999999999999</ele><time>2026-04-09T09:17:58.231Z</time></trkpt><trkpt lat="38.400285" lon="16.41324"><ele>112.6</ele><time>2026-04-09T09:17:59.231Z</time></trkpt><trkpt lat="38.4003067" lon="16.4131217"><ele>116.0</ele><time>2026-04-09T09:18:00.231Z</time></trkpt><trkpt lat="38.4003067" lon="16.4129917"><ele>119.8</ele><time>2026-04-09T09:18:01.231Z</time></trkpt><trkpt lat="38.4003117" lon="16.4128583"><ele>123.6</ele><time>2026-04-09T09:18:02.231Z</time></trkpt><trkpt lat="38.400325" lon="16.4127317"><ele>127.4</ele><time>2026-04-09T09:18:03.231Z</time></trkpt><trkpt lat="38.400345" lon="16.412605"><ele>131.2</ele><time>2026-04-09T09:18:04.231Z</time></trkpt><trkpt lat="38.4003567" lon="16.4124767"><ele>135.0</ele><time>2026-04-09T09:18:05.23Z</time></trkpt><trkpt lat="38.4003767" lon="16.4123517"><ele>135.0</ele><time>2026-04-09T09:18:06.231Z</time></trkpt><trkpt lat="38.400395" lon="16.41223"><ele>135.0</ele><time>2026-04-09T09:18:07.231Z</time></trkpt><trkpt lat="38.400435" lon="16.412125"><ele>135.0</ele><time>2026-04-09T09:18:08.23Z</time></trkpt><trkpt lat="38.4004933" lon="16.41203"><ele>135.0</ele><time>2026-04-09T09:18:09.231Z</time></trkpt><trkpt lat="38.40056" lon="16.41195"><ele>135.0</ele><time>2026-04-09T09:18:10.231Z</time></trkpt><trkpt lat="38.400635" lon="16.4118733"><ele>129.8</ele><time>2026-04-09T09:18:11.231Z</time></trkpt><trkpt lat="38.400695" lon="16.411805"><ele>124.6</ele><time>2026-04-09T09:18:12.231Z</time></trkpt><trkpt lat="38.4007683" lon="16.4117267"><ele>119.4</ele><time>2026-04-09T09:18:13.231Z</time></trkpt><trkpt lat="38.400845" lon="16.411635"><ele>114.2</ele><time>2026-04-09T09:18:14.231Z</time></trkpt><trkpt lat="38.400925" lon="16.411545"><ele>109.0</ele><time>2026-04-09T09:18:15.231Z</time></trkpt><trkpt lat="38.400985" lon="16.4114467"><ele>109.0</ele><time>2026-04-09T09:18:16.231Z</time></trkpt><trkpt lat="38.40103" lon="16.41134"><ele>109.0</ele><time>2026-04-09T09:18:17.231Z</time></trkpt><trkpt lat="38.40107" lon="16.4112317"><ele>109.0</ele><time>2026-04-09T09:18:18.231Z</time></trkpt><trkpt lat="38.4010933" lon="16.4111133"><ele>109.0</ele><time>2026-04-09T09:18:19.231Z</time></trkpt><trkpt lat="38.4011067" lon="16.410995"><ele>109.0</ele><time>2026-04-09T09:18:20.231Z</time></trkpt><trkpt lat="38.401115" lon="16.4108767"><ele>112.33333333333334</ele><time>2026-04-09T09:18:21.231Z</time></trkpt><trkpt lat="38.4011217" lon="16.41076"><ele>115.66666666666667</ele><time>2026-04-09T09:18:22.231Z</time></trkpt><trkpt lat="38.4011367" lon="16.4106533"><ele>119.0</ele><time>2026-04-09T09:18:23.231Z</time></trkpt><trkpt lat="38.4011783" lon="16.4105483"><ele>122.33333333333334</ele><time>2026-04-09T09:18:24.231Z</time></trkpt><trkpt lat="38.4012183" lon="16.41045"><ele>125.66666666666667</ele><time>2026-04-09T09:18:25.231Z</time></trkpt><trkpt lat="38.4012617" lon="16.4103667"><ele>129.0</ele><time>2026-04-09T09:18:26.231Z</time></trkpt><trkpt lat="38.40131" lon="16.410295"><ele>129.4</ele><time>2026-04-09T09:18:27.231Z</time></trkpt><trkpt lat="38.4013983" lon="16.4102583"><ele>129.8</ele><time>2026-04-09T09:18:28.231Z</time></trkpt><trkpt lat="38.4014917" lon="16.410255"><ele>130.2</ele><time>2026-04-09T09:18:29.231Z</time></trkpt><trkpt lat="38.4015983" lon="16.4102917"><ele>130.6</ele><time>2026-04-09T09:18:30.23Z</time></trkpt><trkpt lat="38.401715" lon="16.4103517"><ele>131.0</ele><time>2026-04-09T09:18:31.231Z</time></trkpt><trkpt lat="38.4018283" lon="16.4104083"><ele>131.0</ele><time>2026-04-09T09:18:32.231Z</time></trkpt><trkpt lat="38.4019367" lon="16.4104733"><ele>131.0</ele><time>2026-04-09T09:18:33.23Z</time></trkpt><trkpt lat="38.40203" lon="16.4105433"><ele>131.0</ele><time>2026-04-09T09:18:34.231Z</time></trkpt><trkpt lat="38.4021383" lon="16.4106217"><ele>131.0</ele><time>2026-04-09T09:18:35.231Z</time></trkpt><trkpt lat="38.4022467" lon="16.4107117"><ele>127.0</ele><time>2026-04-09T09:18:36.231Z</time></trkpt><trkpt lat="38.4023483" lon="16.4107883"><ele>123.0</ele><time>2026-04-09T09:18:37.231Z</time></trkpt><trkpt lat="38.4024533" lon="16.4108517"><ele>119.0</ele><time>2026-04-09T09:18:38.23Z</time></trkpt><trkpt lat="38.4025483" lon="16.4109067"><ele>115.0</ele><time>2026-04-09T09:18:39.231Z</time></trkpt><trkpt lat="38.4026517" lon="16.4109567"><ele>111.0</ele><time>2026-04-09T09:18:40.231Z</time></trkpt><trkpt lat="38.4027583" lon="16.4110067"><ele>111.0</ele><time>2026-04-09T09:18:41.231Z</time></trkpt><trkpt lat="38.4028533" lon="16.4110567"><ele>111.0</ele><time>2026-04-09T09:18:42.231Z</time></trkpt><trkpt lat="38.4029283" lon="16.4111033"><ele>111.0</ele><time>2026-04-09T09:18:43.231Z</time></trkpt><trkpt lat="38.4029833" lon="16.41116"><ele>111.0</ele><time>2026-04-09T09:18:44.231Z</time></trkpt><trkpt lat="38.40305" lon="16.4112667"><ele>111.0</ele><time>2026-04-09T09:18:46.231Z</time></trkpt><trkpt lat="38.403095" lon="16.4113717"><ele>112.0</ele><time>2026-04-09T09:18:48.231Z</time></trkpt><trkpt lat="38.4031617" lon="16.4114383"><ele>113.0</ele><time>2026-04-09T09:18:50.231Z</time></trkpt><trkpt lat="38.403275" lon="16.4114483"><ele>114.0</ele><time>2026-04-09T09:18:52.231Z</time></trkpt><trkpt lat="38.4033433" lon="16.41144"><ele>115.0</ele><time>2026-04-09T09:18:53.231Z</time></trkpt><trkpt lat="38.4034183" lon="16.4114233"><ele>116.0</ele><time>2026-04-09T09:18:54.231Z</time></trkpt><trkpt lat="38.4034867" lon="16.411405"><ele>117.0</ele><time>2026-04-09T09:18:55.231Z</time></trkpt><trkpt lat="38.4035517" lon="16.4113833"><ele>117.0</ele><time>2026-04-09T09:18:56.23Z</time></trkpt><trkpt lat="38.4036083" lon="16.4113333"><ele>117.00000000000001</ele><time>2026-04-09T09:18:57.231Z</time></trkpt><trkpt lat="38.4036617" lon="16.4112617"><ele>117.0</ele><time>2026-04-09T09:18:58.231Z</time></trkpt><trkpt lat="38.4037083" lon="16.4111933"><ele>117.0</ele><time>2026-04-09T09:18:59.231Z</time></trkpt><trkpt lat="38.4037483" lon="16.41113"><ele>117.00000000000001</ele><time>2026-04-09T09:19:00.231Z</time></trkpt><trkpt lat="38.4038183" lon="16.411045"><ele>117.0</ele><time>2026-04-09T09:19:02.231Z</time></trkpt><trkpt lat="38.40388" lon="16.411015"><ele>117.0</ele><time>2026-04-09T09:19:04.231Z</time></trkpt><trkpt lat="38.40396" lon="16.4109833"><ele>119.39999999999999</ele><time>2026-04-09T09:19:18.231Z</time></trkpt><trkpt lat="38.4040517" lon="16.410895"><ele>121.79999999999998</ele><time>2026-04-09T09:19:20.231Z</time></trkpt><trkpt lat="38.4041117" lon="16.4108117"><ele>124.2</ele><time>2026-04-09T09:19:21.231Z</time></trkpt><trkpt lat="38.4041683" lon="16.4107083"><ele>126.6</ele><time>2026-04-09T09:19:22.231Z</time></trkpt><trkpt lat="38.4042267" lon="16.4105967"><ele>129.0</ele><time>2026-04-09T09:19:23.231Z</time></trkpt><trkpt lat="38.4042767" lon="16.4104967"><ele>126.66666666666667</ele><time>2026-04-09T09:19:24.231Z</time></trkpt><trkpt lat="38.4043167" lon="16.410395"><ele>124.33333333333334</ele><time>2026-04-09T09:19:25.231Z</time></trkpt><trkpt lat="38.4043633" lon="16.4103067"><ele>122.0</ele><time>2026-04-09T09:19:26.23Z</time></trkpt><trkpt lat="38.404415" lon="16.41023"><ele>119.66666666666667</ele><time>2026-04-09T09:19:27.231Z</time></trkpt><trkpt lat="38.4044733" lon="16.4101483"><ele>117.33333333333334</ele><time>2026-04-09T09:19:28.231Z</time></trkpt><trkpt lat="38.404545" lon="16.41009"><ele>115.0</ele><time>2026-04-09T09:19:29.231Z</time></trkpt><trkpt lat="38.4046267" lon="16.4100383"><ele>119.0</ele><time>2026-04-09T09:19:30.231Z</time></trkpt><trkpt lat="38.4046933" lon="16.409975"><ele>123.0</ele><time>2026-04-09T09:19:31.231Z</time></trkpt><trkpt lat="38.404765" lon="16.4099067"><ele>127.0</ele><time>2026-04-09T09:19:32.231Z</time></trkpt><trkpt lat="38.404835" lon="16.4098317"><ele>131.0</ele><time>2026-04-09T09:19:33.231Z</time></trkpt><trkpt lat="38.4049083" lon="16.4097567"><ele>135.0</ele><time>2026-04-09T09:19:34.231Z</time></trkpt><trkpt lat="38.4049833" lon="16.409685"><ele>133.28571428571428</ele><time>2026-04-09T09:19:35.231Z</time></trkpt><trkpt lat="38.4050483" lon="16.4096183"><ele>131.57142857142856</ele><time>2026-04-09T09:19:36.231Z</time></trkpt><trkpt lat="38.4051067" lon="16.4095533"><ele>129.85714285714286</ele><time>2026-04-09T09:19:37.231Z</time></trkpt><trkpt lat="38.40516" lon="16.4095"><ele>128.14285714285714</ele><time>2026-04-09T09:19:38.231Z</time></trkpt><trkpt lat="38.405215" lon="16.4094367"><ele>126.42857142857143</ele><time>2026-04-09T09:19:39.231Z</time></trkpt><trkpt lat="38.4052717" lon="16.4093883"><ele>124.71428571428572</ele><time>2026-04-09T09:19:40.231Z</time></trkpt><trkpt lat="38.405335" lon="16.40934"><ele>123.00000000000001</ele><time>2026-04-09T09:19:41.231Z</time></trkpt><trkpt lat="38.4054033" lon="16.4092817"><ele>123.0</ele><time>2026-04-09T09:19:42.231Z</time></trkpt><trkpt lat="38.4054783" lon="16.4092283"><ele>123.0</ele><time>2026-04-09T09:19:43.231Z</time></trkpt><trkpt lat="38.40555" lon="16.4091933"><ele>123.0</ele><time>2026-04-09T09:19:44.231Z</time></trkpt><trkpt lat="38.405635" lon="16.4091617"><ele>123.0</ele><time>2026-04-09T09:19:45.231Z</time></trkpt><trkpt lat="38.4057217" lon="16.4091367"><ele>123.0</ele><time>2026-04-09T09:19:46.231Z</time></trkpt><trkpt lat="38.4058" lon="16.4091117"><ele>123.0</ele><time>2026-04-09T09:19:47.231Z</time></trkpt><trkpt lat="38.405875" lon="16.4090983"><ele>124.85714285714288</ele><time>2026-04-09T09:19:48.231Z</time></trkpt><trkpt lat="38.4059533" lon="16.4091"><ele>126.71428571428572</ele><time>2026-04-09T09:19:49.231Z</time></trkpt><trkpt lat="38.4060333" lon="16.4091083"><ele>128.57142857142856</ele><time>2026-04-09T09:19:50.231Z</time></trkpt><trkpt lat="38.4061067" lon="16.4091083"><ele>130.42857142857144</ele><time>2026-04-09T09:19:51.231Z</time></trkpt><trkpt lat="38.4061833" lon="16.4091117"><ele>132.28571428571428</ele><time>2026-04-09T09:19:52.231Z</time></trkpt><trkpt lat="38.4062467" lon="16.4090817"><ele>134.14285714285714</ele><time>2026-04-09T09:19:53.231Z</time></trkpt><trkpt lat="38.406295" lon="16.40902"><ele>136.0</ele><time>2026-04-09T09:19:54.231Z</time></trkpt><trkpt lat="38.4063217" lon="16.4089317"><ele>136.5</ele><time>2026-04-09T09:19:55.23Z</time></trkpt><trkpt lat="38.4063367" lon="16.408835"><ele>137.0</ele><time>2026-04-09T09:19:56.231Z</time></trkpt><trkpt lat="38.4063433" lon="16.4087283"><ele>137.5</ele><time>2026-04-09T09:19:57.23Z</time></trkpt><trkpt lat="38.4063583" lon="16.40862"><ele>138.0</ele><time>2026-04-09T09:19:58.23Z</time></trkpt><trkpt lat="38.4063717" lon="16.4085083"><ele>138.5</ele><time>2026-04-09T09:19:59.231Z</time></trkpt><trkpt lat="38.4063983" lon="16.4084017"><ele>139.0</ele><time>2026-04-09T09:20:00.231Z</time></trkpt><trkpt lat="38.4064517" lon="16.4082967"><ele>139.0</ele><time>2026-04-09T09:20:01.23Z</time></trkpt><trkpt lat="38.4065233" lon="16.4082117"><ele>139.0</ele><time>2026-04-09T09:20:02.231Z</time></trkpt><trkpt lat="38.406615" lon="16.40815"><ele>139.0</ele><time>2026-04-09T09:20:03.23Z</time></trkpt><trkpt lat="38.4067183" lon="16.4081117"><ele>139.0</ele><time>2026-04-09T09:20:04.23Z</time></trkpt><trkpt lat="38.406815" lon="16.4080717"><ele>139.0</ele><time>2026-04-09T09:20:05.231Z</time></trkpt><trkpt lat="38.4069067" lon="16.4080633"><ele>139.0</ele><time>2026-04-09T09:20:06.231Z</time></trkpt><trkpt lat="38.4069983" lon="16.408065"><ele>139.0</ele><time>2026-04-09T09:20:07.231Z</time></trkpt><trkpt lat="38.4070867" lon="16.4080817"><ele>139.0</ele><time>2026-04-09T09:20:08.231Z</time></trkpt><trkpt lat="38.4071717" lon="16.4081267"><ele>139.0</ele><time>2026-04-09T09:20:09.231Z</time></trkpt><trkpt lat="38.4072633" lon="16.408185"><ele>139.0</ele><time>2026-04-09T09:20:10.231Z</time></trkpt><trkpt lat="38.4073467" lon="16.40825"><ele>141.0</ele><time>2026-04-09T09:20:11.231Z</time></trkpt><trkpt lat="38.4074283" lon="16.408295"><ele>143.0</ele><time>2026-04-09T09:20:12.231Z</time></trkpt><trkpt lat="38.407515" lon="16.4083083"><ele>145.0</ele><time>2026-04-09T09:20:13.231Z</time></trkpt><trkpt lat="38.4075983" lon="16.408285"><ele>147.0</ele><time>2026-04-09T09:20:14.231Z</time></trkpt><trkpt lat="38.4076733" lon="16.4082367"><ele>149.0</ele><time>2026-04-09T09:20:15.231Z</time></trkpt><trkpt lat="38.4077417" lon="16.4081667"><ele>151.0</ele><time>2026-04-09T09:20:16.231Z</time></trkpt><trkpt lat="38.4078067" lon="16.408085"><ele>151.0</ele><time>2026-04-09T09:20:17.231Z</time></trkpt><trkpt lat="38.407865" lon="16.408"><ele>151.0</ele><time>2026-04-09T09:20:18.231Z</time></trkpt><trkpt lat="38.4079333" lon="16.4079217"><ele>151.0</ele><time>2026-04-09T09:20:19.231Z</time></trkpt><trkpt lat="38.4080033" lon="16.407845"><ele>151.0</ele><time>2026-04-09T09:20:20.23Z</time></trkpt><trkpt lat="38.4080767" lon="16.407765"><ele>151.0</ele><time>2026-04-09T09:20:21.231Z</time></trkpt><trkpt lat="38.4081417" lon="16.4076883"><ele>153.33333333333334</ele><time>2026-04-09T09:20:22.23Z</time></trkpt><trkpt lat="38.40821" lon="16.4076117"><ele>155.66666666666669</ele><time>2026-04-09T09:20:23.231Z</time></trkpt><trkpt lat="38.4082767" lon="16.4075333"><ele>158.0</ele><time>2026-04-09T09:20:24.231Z</time></trkpt><trkpt lat="38.40834" lon="16.40746"><ele>160.33333333333334</ele><time>2026-04-09T09:20:25.231Z</time></trkpt><trkpt lat="38.4084033" lon="16.40739"><ele>162.66666666666666</ele><time>2026-04-09T09:20:26.231Z</time></trkpt><trkpt lat="38.40847" lon="16.407315"><ele>165.0</ele><time>2026-04-09T09:20:27.231Z</time></trkpt><trkpt lat="38.408525" lon="16.4072233"><ele>166.2</ele><time>2026-04-09T09:20:28.231Z</time></trkpt><trkpt lat="38.4085633" lon="16.40712"><ele>167.4</ele><time>2026-04-09T09:20:29.231Z</time></trkpt><trkpt lat="38.4085933" lon="16.4070083"><ele>168.60000000000002</ele><time>2026-04-09T09:20:30.231Z</time></trkpt><trkpt lat="38.40862" lon="16.4068867"><ele>169.8</ele><time>2026-04-09T09:20:31.23Z</time></trkpt><trkpt lat="38.4086433" lon="16.4067683"><ele>171.0</ele><time>2026-04-09T09:20:32.231Z</time></trkpt><trkpt lat="38.4086567" lon="16.4066583"><ele>171.0</ele><time>2026-04-09T09:20:33.231Z</time></trkpt><trkpt lat="38.4086467" lon="16.406555"><ele>171.0</ele><time>2026-04-09T09:20:34.23Z</time></trkpt><trkpt lat="38.408615" lon="16.4064567"><ele>171.0</ele><time>2026-04-09T09:20:35.231Z</time></trkpt><trkpt lat="38.4085583" lon="16.40638"><ele>171.0</ele><time>2026-04-09T09:20:36.231Z</time></trkpt><trkpt lat="38.40847" lon="16.40633"><ele>171.0</ele><time>2026-04-09T09:20:37.231Z</time></trkpt><trkpt lat="38.40837" lon="16.40628"><ele>171.8</ele><time>2026-04-09T09:20:38.231Z</time></trkpt><trkpt lat="38.4082733" lon="16.4062383"><ele>172.60000000000002</ele><time>2026-04-09T09:20:39.231Z</time></trkpt><trkpt lat="38.4081783" lon="16.4061967"><ele>173.4</ele><time>2026-04-09T09:20:40.231Z</time></trkpt><trkpt lat="38.408085" lon="16.4061517"><ele>174.2</ele><time>2026-04-09T09:20:41.231Z</time></trkpt><trkpt lat="38.4079967" lon="16.4061117"><ele>175.0</ele><time>2026-04-09T09:20:42.231Z</time></trkpt><trkpt lat="38.4079233" lon="16.4060733"><ele>175.0</ele><time>2026-04-09T09:20:43.231Z</time></trkpt><trkpt lat="38.4078617" lon="16.406025"><ele>175.0</ele><time>2026-04-09T09:20:44.231Z</time></trkpt><trkpt lat="38.407805" lon="16.4059267"><ele>175.0</ele><time>2026-04-09T09:20:46.231Z</time></trkpt><trkpt lat="38.40787" lon="16.4058467"><ele>175.0</ele><time>2026-04-09T09:20:48.231Z</time></trkpt><trkpt lat="38.4079467" lon="16.4058583"><ele>175.0</ele><time>2026-04-09T09:20:49.231Z</time></trkpt><trkpt lat="38.4080167" lon="16.405895"><ele>175.0</ele><time>2026-04-09T09:20:50.231Z</time></trkpt><trkpt lat="38.40813" lon="16.4059683"><ele>177.83333333333334</ele><time>2026-04-09T09:20:52.231Z</time></trkpt><trkpt lat="38.408195" lon="16.4060067"><ele>180.66666666666669</ele><time>2026-04-09T09:20:53.231Z</time></trkpt><trkpt lat="38.4082667" lon="16.4060433"><ele>183.5</ele><time>2026-04-09T09:20:54.231Z</time></trkpt><trkpt lat="38.4083433" lon="16.4060833"><ele>186.33333333333334</ele><time>2026-04-09T09:20:55.231Z</time></trkpt><trkpt lat="38.4084217" lon="16.4061133"><ele>189.16666666666666</ele><time>2026-04-09T09:20:56.231Z</time></trkpt><trkpt lat="38.40851" lon="16.406135"><ele>192.0</ele><time>2026-04-09T09:20:57.231Z</time></trkpt><trkpt lat="38.4086" lon="16.4061383"><ele>192.0</ele><time>2026-04-09T09:20:58.231Z</time></trkpt><trkpt lat="38.40869" lon="16.4061217"><ele>192.0</ele><time>2026-04-09T09:20:59.231Z</time></trkpt><trkpt lat="38.408775" lon="16.40609"><ele>192.0</ele><time>2026-04-09T09:21:00.231Z</time></trkpt><trkpt lat="38.40886" lon="16.4060417"><ele>192.0</ele><time>2026-04-09T09:21:01.231Z</time></trkpt><trkpt lat="38.4089467" lon="16.4059833"><ele>192.0</ele><time>2026-04-09T09:21:02.231Z</time></trkpt><trkpt lat="38.4090283" lon="16.4059233"><ele>193.57142857142856</ele><time>2026-04-09T09:21:03.231Z</time></trkpt><trkpt lat="38.4091033" lon="16.4058817"><ele>195.14285714285714</ele><time>2026-04-09T09:21:04.231Z</time></trkpt><trkpt lat="38.4091683" lon="16.4058517"><ele>196.71428571428572</ele><time>2026-04-09T09:21:05.231Z</time></trkpt><trkpt lat="38.409235" lon="16.4058267"><ele>198.28571428571428</ele><time>2026-04-09T09:21:06.231Z</time></trkpt><trkpt lat="38.4093083" lon="16.4058183"><ele>199.85714285714286</ele><time>2026-04-09T09:21:07.231Z</time></trkpt><trkpt lat="38.409375" lon="16.40585"><ele>201.42857142857142</ele><time>2026-04-09T09:21:08.231Z</time></trkpt><trkpt lat="38.40943" lon="16.4059033"><ele>203.0</ele><time>2026-04-09T09:21:09.231Z</time></trkpt><trkpt lat="38.409465" lon="16.405975"><ele>203.00000000000003</ele><time>2026-04-09T09:21:10.231Z</time></trkpt><trkpt lat="38.4094833" lon="16.4060683"><ele>203.0</ele><time>2026-04-09T09:21:11.231Z</time></trkpt><trkpt lat="38.409495" lon="16.4061717"><ele>203.0</ele><time>2026-04-09T09:21:12.231Z</time></trkpt><trkpt lat="38.4095" lon="16.406285"><ele>203.0</ele><time>2026-04-09T09:21:13.231Z</time></trkpt><trkpt lat="38.4095033" lon="16.40641"><ele>203.00000000000003</ele><time>2026-04-09T09:21:14.23Z</time></trkpt><trkpt lat="38.4095133" lon="16.40653"><ele>203.0</ele><time>2026-04-09T09:21:15.231Z</time></trkpt><trkpt lat="38.4095583" lon="16.4066433"><ele>204.8</ele><time>2026-04-09T09:21:16.231Z</time></trkpt><trkpt lat="38.4096283" lon="16.4067333"><ele>206.60000000000002</ele><time>2026-04-09T09:21:17.231Z</time></trkpt><trkpt lat="38.4097183" lon="16.4068"><ele>208.39999999999998</ele><time>2026-04-09T09:21:18.231Z</time></trkpt><trkpt lat="38.4098167" lon="16.406855"><ele>210.2</ele><time>2026-04-09T09:21:19.23Z</time></trkpt><trkpt lat="38.4099217" lon="16.406895"><ele>212.0</ele><time>2026-04-09T09:21:20.231Z</time></trkpt><trkpt lat="38.410025" lon="16.4069383"><ele>212.0</ele><time>2026-04-09T09:21:21.231Z</time></trkpt><trkpt lat="38.4101267" lon="16.4069817"><ele>212.0</ele><time>2026-04-09T09:21:22.231Z</time></trkpt><trkpt lat="38.410225" lon="16.4070183"><ele>212.0</ele><time>2026-04-09T09:21:23.23Z</time></trkpt><trkpt lat="38.4103217" lon="16.407045"><ele>212.0</ele><time>2026-04-09T09:21:24.231Z</time></trkpt><trkpt lat="38.4104217" lon="16.4070733"><ele>212.0</ele><time>2026-04-09T09:21:25.231Z</time></trkpt><trkpt lat="38.4105233" lon="16.407105"><ele>211.6</ele><time>2026-04-09T09:21:26.23Z</time></trkpt><trkpt lat="38.4106233" lon="16.40713"><ele>211.2</ele><time>2026-04-09T09:21:27.231Z</time></trkpt><trkpt lat="38.4107217" lon="16.40716"><ele>210.8</ele><time>2026-04-09T09:21:28.231Z</time></trkpt><trkpt lat="38.4108217" lon="16.4071933"><ele>210.4</ele><time>2026-04-09T09:21:29.231Z</time></trkpt><trkpt lat="38.4109183" lon="16.4072383"><ele>210.0</ele><time>2026-04-09T09:21:30.231Z</time></trkpt><trkpt lat="38.4110117" lon="16.4072817"><ele>210.0</ele><time>2026-04-09T09:21:31.231Z</time></trkpt><trkpt lat="38.411095" lon="16.40731"><ele>210.0</ele><time>2026-04-09T09:21:32.231Z</time></trkpt><trkpt lat="38.4111683" lon="16.4073167"><ele>210.0</ele><time>2026-04-09T09:21:33.23Z</time></trkpt><trkpt lat="38.4112333" lon="16.407295"><ele>210.0</ele><time>2026-04-09T09:21:34.231Z</time></trkpt><trkpt lat="38.411285" lon="16.4072433"><ele>210.0</ele><time>2026-04-09T09:21:35.23Z</time></trkpt><trkpt lat="38.4112933" lon="16.4070767"><ele>210.0</ele><time>2026-04-09T09:21:37.231Z</time></trkpt><trkpt lat="38.411245" lon="16.407005"><ele>214.0</ele><time>2026-04-09T09:21:38.231Z</time></trkpt><trkpt lat="38.41117" lon="16.40695"><ele>218.0</ele><time>2026-04-09T09:21:39.231Z</time></trkpt><trkpt lat="38.4110617" lon="16.406925"><ele>222.0</ele><time>2026-04-09T09:21:40.23Z</time></trkpt><trkpt lat="38.4109517" lon="16.406915"><ele>226.0</ele><time>2026-04-09T09:21:41.231Z</time></trkpt><trkpt lat="38.4108567" lon="16.4068883"><ele>230.0</ele><time>2026-04-09T09:21:42.231Z</time></trkpt><trkpt lat="38.4107717" lon="16.40685"><ele>230.0</ele><time>2026-04-09T09:21:43.231Z</time></trkpt><trkpt lat="38.4106967" lon="16.4067817"><ele>230.0</ele><time>2026-04-09T09:21:44.231Z</time></trkpt><trkpt lat="38.4106283" lon="16.406705"><ele>230.0</ele><time>2026-04-09T09:21:45.231Z</time></trkpt><trkpt lat="38.4105583" lon="16.406625"><ele>230.0</ele><time>2026-04-09T09:21:46.231Z</time></trkpt><trkpt lat="38.41049" lon="16.4065217"><ele>230.0</ele><time>2026-04-09T09:21:47.231Z</time></trkpt><trkpt lat="38.4104267" lon="16.4064283"><ele>229.8</ele><time>2026-04-09T09:21:48.231Z</time></trkpt><trkpt lat="38.41037" lon="16.40633"><ele>229.6</ele><time>2026-04-09T09:21:49.231Z</time></trkpt><trkpt lat="38.4103083" lon="16.4062417"><ele>229.39999999999998</ele><time>2026-04-09T09:21:50.231Z</time></trkpt><trkpt lat="38.4102567" lon="16.4061483"><ele>229.2</ele><time>2026-04-09T09:21:51.231Z</time></trkpt><trkpt lat="38.410205" lon="16.406055"><ele>229.0</ele><time>2026-04-09T09:21:52.231Z</time></trkpt><trkpt lat="38.410165" lon="16.4059533"><ele>229.0</ele><time>2026-04-09T09:21:53.231Z</time></trkpt><trkpt lat="38.410135" lon="16.40584"><ele>228.99999999999997</ele><time>2026-04-09T09:21:54.231Z</time></trkpt><trkpt lat="38.4100933" lon="16.40571"><ele>228.99999999999997</ele><time>2026-04-09T09:21:55.231Z</time></trkpt><trkpt lat="38.410055" lon="16.405585"><ele>229.0</ele><time>2026-04-09T09:21:56.23Z</time></trkpt><trkpt lat="38.41003" lon="16.4054567"><ele>229.0</ele><time>2026-04-09T09:21:57.23Z</time></trkpt><trkpt lat="38.4099917" lon="16.4053233"><ele>232.5</ele><time>2026-04-09T09:21:58.231Z</time></trkpt><trkpt lat="38.40996" lon="16.4051867"><ele>236.0</ele><time>2026-04-09T09:21:59.231Z</time></trkpt><trkpt lat="38.4099233" lon="16.405045"><ele>239.5</ele><time>2026-04-09T09:22:00.231Z</time></trkpt><trkpt lat="38.409875" lon="16.404905"><ele>243.0</ele><time>2026-04-09T09:22:01.231Z</time></trkpt><trkpt lat="38.4098067" lon="16.4047833"><ele>243.0</ele><time>2026-04-09T09:22:02.231Z</time></trkpt><trkpt lat="38.4097167" lon="16.4046683"><ele>243.0</ele><time>2026-04-09T09:22:03.23Z</time></trkpt><trkpt lat="38.40961" lon="16.4045767"><ele>243.0</ele><time>2026-04-09T09:22:04.23Z</time></trkpt><trkpt lat="38.4095" lon="16.4045017"><ele>243.0</ele><time>2026-04-09T09:22:05.231Z</time></trkpt><trkpt lat="38.4093917" lon="16.404435"><ele>243.8</ele><time>2026-04-09T09:22:06.231Z</time></trkpt><trkpt lat="38.4092967" lon="16.404395"><ele>244.60000000000002</ele><time>2026-04-09T09:22:07.231Z</time></trkpt><trkpt lat="38.4091967" lon="16.4043483"><ele>245.39999999999998</ele><time>2026-04-09T09:22:08.231Z</time></trkpt><trkpt lat="38.4091033" lon="16.40429"><ele>246.2</ele><time>2026-04-09T09:22:09.231Z</time></trkpt><trkpt lat="38.4090117" lon="16.4042217"><ele>247.0</ele><time>2026-04-09T09:22:10.231Z</time></trkpt><trkpt lat="38.408925" lon="16.4041417"><ele>247.0</ele><time>2026-04-09T09:22:11.231Z</time></trkpt><trkpt lat="38.408855" lon="16.404055"><ele>247.0</ele><time>2026-04-09T09:22:12.231Z</time></trkpt><trkpt lat="38.4088017" lon="16.4039683"><ele>247.0</ele><time>2026-04-09T09:22:13.23Z</time></trkpt><trkpt lat="38.4087467" lon="16.4038533"><ele>247.0</ele><time>2026-04-09T09:22:14.231Z</time></trkpt><trkpt lat="38.4086967" lon="16.4037417"><ele>247.0</ele><time>2026-04-09T09:22:15.231Z</time></trkpt><trkpt lat="38.40865" lon="16.4036167"><ele>246.39999999999998</ele><time>2026-04-09T09:22:16.231Z</time></trkpt><trkpt lat="38.4086083" lon="16.40349"><ele>245.79999999999998</ele><time>2026-04-09T09:22:17.231Z</time></trkpt><trkpt lat="38.4085717" lon="16.403355"><ele>245.2</ele><time>2026-04-09T09:22:18.231Z</time></trkpt><trkpt lat="38.4085317" lon="16.4032133"><ele>244.6</ele><time>2026-04-09T09:22:19.231Z</time></trkpt><trkpt lat="38.4084817" lon="16.403095"><ele>244.0</ele><time>2026-04-09T09:22:20.231Z</time></trkpt><trkpt lat="38.40844" lon="16.4029717"><ele>247.5</ele><time>2026-04-09T09:22:21.231Z</time></trkpt><trkpt lat="38.4083833" lon="16.4028517"><ele>251.0</ele><time>2026-04-09T09:22:22.23Z</time></trkpt><trkpt lat="38.4083083" lon="16.4027483"><ele>254.5</ele><time>2026-04-09T09:22:23.231Z</time></trkpt><trkpt lat="38.40822" lon="16.4026517"><ele>258.0</ele><time>2026-04-09T09:22:24.231Z</time></trkpt><trkpt lat="38.4081267" lon="16.4025667"><ele>258.0</ele><time>2026-04-09T09:22:25.231Z</time></trkpt><trkpt lat="38.4080333" lon="16.4024867"><ele>258.0</ele><time>2026-04-09T09:22:26.231Z</time></trkpt><trkpt lat="38.4079433" lon="16.4024067"><ele>258.0</ele><time>2026-04-09T09:22:27.231Z</time></trkpt><trkpt lat="38.4078717" lon="16.40231"><ele>258.0</ele><time>2026-04-09T09:22:28.231Z</time></trkpt><trkpt lat="38.407815" lon="16.4022"><ele>258.0</ele><time>2026-04-09T09:22:29.231Z</time></trkpt><trkpt lat="38.407775" lon="16.4020783"><ele>256.2</ele><time>2026-04-09T09:22:30.231Z</time></trkpt><trkpt lat="38.407755" lon="16.4019467"><ele>254.4</ele><time>2026-04-09T09:22:31.231Z</time></trkpt><trkpt lat="38.4077367" lon="16.4018133"><ele>252.59999999999997</ele><time>2026-04-09T09:22:32.23Z</time></trkpt><trkpt lat="38.40772" lon="16.4016867"><ele>250.79999999999998</ele><time>2026-04-09T09:22:33.231Z</time></trkpt><trkpt lat="38.4077017" lon="16.401565"><ele>249.0</ele><time>2026-04-09T09:22:34.231Z</time></trkpt><trkpt lat="38.4076867" lon="16.4014517"><ele>249.0</ele><time>2026-04-09T09:22:35.231Z</time></trkpt><trkpt lat="38.4076667" lon="16.4013433"><ele>249.0</ele><time>2026-04-09T09:22:36.231Z</time></trkpt><trkpt lat="38.4076433" lon="16.40123"><ele>249.0</ele><time>2026-04-09T09:22:37.231Z</time></trkpt><trkpt lat="38.407615" lon="16.4011033"><ele>249.0</ele><time>2026-04-09T09:22:38.231Z</time></trkpt><trkpt lat="38.4075967" lon="16.4010017"><ele>249.0</ele><time>2026-04-09T09:22:39.231Z</time></trkpt><trkpt lat="38.4075867" lon="16.4009017"><ele>249.0</ele><time>2026-04-09T09:22:40.231Z</time></trkpt><trkpt lat="38.4076483" lon="16.4007717"><ele>250.0</ele><time>2026-04-09T09:22:42.231Z</time></trkpt><trkpt lat="38.4077517" lon="16.4007533"><ele>250.99999999999997</ele><time>2026-04-09T09:22:44.231Z</time></trkpt><trkpt lat="38.4078117" lon="16.400805"><ele>251.99999999999997</ele><time>2026-04-09T09:22:45.231Z</time></trkpt><trkpt lat="38.40788" lon="16.4008917"><ele>253.0</ele><time>2026-04-09T09:22:46.231Z</time></trkpt><trkpt lat="38.4079417" lon="16.4010033"><ele>254.0</ele><time>2026-04-09T09:22:47.231Z</time></trkpt><trkpt lat="38.4080117" lon="16.40111"><ele>257.59999999999997</ele><time>2026-04-09T09:22:48.231Z</time></trkpt><trkpt lat="38.4080833" lon="16.40121"><ele>261.2</ele><time>2026-04-09T09:22:49.231Z</time></trkpt><trkpt lat="38.4081467" lon="16.40131"><ele>264.79999999999995</ele><time>2026-04-09T09:22:50.231Z</time></trkpt><trkpt lat="38.4082117" lon="16.4014167"><ele>268.4</ele><time>2026-04-09T09:22:51.231Z</time></trkpt><trkpt lat="38.4082767" lon="16.4015167"><ele>272.0</ele><time>2026-04-09T09:22:52.231Z</time></trkpt><trkpt lat="38.408345" lon="16.40162"><ele>272.0</ele><time>2026-04-09T09:22:53.231Z</time></trkpt><trkpt lat="38.40842" lon="16.4017183"><ele>272.0</ele><time>2026-04-09T09:22:54.231Z</time></trkpt><trkpt lat="38.408485" lon="16.4017983"><ele>272.0</ele><time>2026-04-09T09:22:55.231Z</time></trkpt><trkpt lat="38.4085583" lon="16.4018733"><ele>272.0</ele><time>2026-04-09T09:22:56.231Z</time></trkpt><trkpt lat="38.4086483" lon="16.40194"><ele>272.0</ele><time>2026-04-09T09:22:57.231Z</time></trkpt><trkpt lat="38.4087433" lon="16.40199"><ele>275.6</ele><time>2026-04-09T09:22:58.231Z</time></trkpt><trkpt lat="38.4088483" lon="16.402015"><ele>279.2</ele><time>2026-04-09T09:22:59.231Z</time></trkpt><trkpt lat="38.4089617" lon="16.4020183"><ele>282.8</ele><time>2026-04-09T09:23:00.231Z</time></trkpt><trkpt lat="38.40907" lon="16.4020183"><ele>286.4</ele><time>2026-04-09T09:23:01.231Z</time></trkpt><trkpt lat="38.4091667" lon="16.4020267"><ele>290.0</ele><time>2026-04-09T09:23:02.23Z</time></trkpt><trkpt lat="38.4092583" lon="16.4020633"><ele>290.0</ele><time>2026-04-09T09:23:03.231Z</time></trkpt><trkpt lat="38.4093383" lon="16.4021383"><ele>290.0</ele><time>2026-04-09T09:23:04.231Z</time></trkpt><trkpt lat="38.4093867" lon="16.4022517"><ele>290.0</ele><time>2026-04-09T09:23:05.231Z</time></trkpt><trkpt lat="38.4094167" lon="16.4023817"><ele>290.0</ele><time>2026-04-09T09:23:06.23Z</time></trkpt><trkpt lat="38.4094567" lon="16.4024883"><ele>290.0</ele><time>2026-04-09T09:23:07.231Z</time></trkpt><trkpt lat="38.4095017" lon="16.4025683"><ele>292.4</ele><time>2026-04-09T09:23:08.231Z</time></trkpt><trkpt lat="38.409565" lon="16.4026517"><ele>294.8</ele><time>2026-04-09T09:23:09.231Z</time></trkpt><trkpt lat="38.40964" lon="16.4027067"><ele>297.2</ele><time>2026-04-09T09:23:10.231Z</time></trkpt><trkpt lat="38.4097267" lon="16.40274"><ele>299.6</ele><time>2026-04-09T09:23:11.231Z</time></trkpt><trkpt lat="38.4098117" lon="16.4027717"><ele>302.0</ele><time>2026-04-09T09:23:12.231Z</time></trkpt><trkpt lat="38.4099033" lon="16.4028067"><ele>302.0</ele><time>2026-04-09T09:23:13.23Z</time></trkpt><trkpt lat="38.4099833" lon="16.4028783"><ele>302.0</ele><time>2026-04-09T09:23:14.23Z</time></trkpt><trkpt lat="38.4100633" lon="16.402965"><ele>302.0</ele><time>2026-04-09T09:23:15.231Z</time></trkpt><trkpt lat="38.4101317" lon="16.403055"><ele>302.0</ele><time>2026-04-09T09:23:16.231Z</time></trkpt><trkpt lat="38.4102033" lon="16.4031533"><ele>302.0</ele><time>2026-04-09T09:23:17.231Z</time></trkpt><trkpt lat="38.4102617" lon="16.4032417"><ele>303.6</ele><time>2026-04-09T09:23:18.231Z</time></trkpt><trkpt lat="38.4103217" lon="16.403325"><ele>305.2</ele><time>2026-04-09T09:23:19.231Z</time></trkpt><trkpt lat="38.4103933" lon="16.4034033"><ele>306.8</ele><time>2026-04-09T09:23:20.231Z</time></trkpt><trkpt lat="38.4104717" lon="16.4034683"><ele>308.4</ele><time>2026-04-09T09:23:21.231Z</time></trkpt><trkpt lat="38.41056" lon="16.4035267"><ele>310.0</ele><time>2026-04-09T09:23:22.231Z</time></trkpt><trkpt lat="38.4106533" lon="16.4035867"><ele>310.0</ele><time>2026-04-09T09:23:23.231Z</time></trkpt><trkpt lat="38.410745" lon="16.4036433"><ele>310.0</ele><time>2026-04-09T09:23:24.231Z</time></trkpt><trkpt lat="38.4108333" lon="16.4037233"><ele>310.0</ele><time>2026-04-09T09:23:25.231Z</time></trkpt><trkpt lat="38.4109067" lon="16.4038183"><ele>310.0</ele><time>2026-04-09T09:23:26.231Z</time></trkpt><trkpt lat="38.4109917" lon="16.4039117"><ele>310.0</ele><time>2026-04-09T09:23:27.231Z</time></trkpt><trkpt lat="38.4110833" lon="16.4039983"><ele>309.5</ele><time>2026-04-09T09:23:28.231Z</time></trkpt><trkpt lat="38.4111867" lon="16.4040733"><ele>309.0</ele><time>2026-04-09T09:23:29.231Z</time></trkpt><trkpt lat="38.4113017" lon="16.4041367"><ele>308.5</ele><time>2026-04-09T09:23:30.231Z</time></trkpt><trkpt lat="38.4114217" lon="16.4041933"><ele>308.0</ele><time>2026-04-09T09:23:31.231Z</time></trkpt><trkpt lat="38.41154" lon="16.4042517"><ele>308.0</ele><time>2026-04-09T09:23:32.231Z</time></trkpt><trkpt lat="38.411655" lon="16.40431"><ele>308.0</ele><time>2026-04-09T09:23:33.231Z</time></trkpt><trkpt lat="38.411765" lon="16.4043633"><ele>308.0</ele><time>2026-04-09T09:23:34.23Z</time></trkpt><trkpt lat="38.4118817" lon="16.4044217"><ele>308.0</ele><time>2026-04-09T09:23:35.231Z</time></trkpt><trkpt lat="38.411995" lon="16.4044717"><ele>308.0</ele><time>2026-04-09T09:23:36.231Z</time></trkpt><trkpt lat="38.41211" lon="16.4045233"><ele>308.0</ele><time>2026-04-09T09:23:37.231Z</time></trkpt><trkpt lat="38.4122083" lon="16.4045667"><ele>308.0</ele><time>2026-04-09T09:23:38.231Z</time></trkpt><trkpt lat="38.4122867" lon="16.4046167"><ele>308.0</ele><time>2026-04-09T09:23:39.231Z</time></trkpt><trkpt lat="38.4123617" lon="16.404665"><ele>308.0</ele><time>2026-04-09T09:23:40.231Z</time></trkpt><trkpt lat="38.4124367" lon="16.4046783"><ele>306.0</ele><time>2026-04-09T09:23:41.231Z</time></trkpt><trkpt lat="38.4125017" lon="16.4046717"><ele>304.0</ele><time>2026-04-09T09:23:42.231Z</time></trkpt><trkpt lat="38.4125933" lon="16.40457"><ele>302.0</ele><time>2026-04-09T09:23:44.231Z</time></trkpt><trkpt lat="38.412585" lon="16.4044067"><ele>300.0</ele><time>2026-04-09T09:23:46.231Z</time></trkpt><trkpt lat="38.412525" lon="16.4043133"><ele>298.0</ele><time>2026-04-09T09:23:47.231Z</time></trkpt><trkpt lat="38.41245" lon="16.40424"><ele>300.0</ele><time>2026-04-09T09:23:48.231Z</time></trkpt><trkpt lat="38.4123617" lon="16.4041633"><ele>302.0</ele><time>2026-04-09T09:23:49.231Z</time></trkpt><trkpt lat="38.4122667" lon="16.4040983"><ele>304.0</ele><time>2026-04-09T09:23:50.231Z</time></trkpt><trkpt lat="38.412165" lon="16.4040283"><ele>306.0</ele><time>2026-04-09T09:23:51.231Z</time></trkpt><trkpt lat="38.4120733" lon="16.4039567"><ele>308.0</ele><time>2026-04-09T09:23:52.231Z</time></trkpt><trkpt lat="38.4119833" lon="16.4038783"><ele>311.6</ele><time>2026-04-09T09:23:53.231Z</time></trkpt><trkpt lat="38.4118983" lon="16.4038067"><ele>315.20000000000005</ele><time>2026-04-09T09:23:54.231Z</time></trkpt><trkpt lat="38.4118133" lon="16.4037267"><ele>318.8</ele><time>2026-04-09T09:23:55.231Z</time></trkpt><trkpt lat="38.411725" lon="16.4036517"><ele>322.40000000000003</ele><time>2026-04-09T09:23:56.231Z</time></trkpt><trkpt lat="38.4116483" lon="16.4035717"><ele>326.0</ele><time>2026-04-09T09:23:57.231Z</time></trkpt><trkpt lat="38.41157" lon="16.4034933"><ele>326.0</ele><time>2026-04-09T09:23:58.231Z</time></trkpt><trkpt lat="38.4114883" lon="16.40341"><ele>326.0</ele><time>2026-04-09T09:23:59.231Z</time></trkpt><trkpt lat="38.4114117" lon="16.40331"><ele>326.0</ele><time>2026-04-09T09:24:00.23Z</time></trkpt><trkpt lat="38.4113383" lon="16.4032033"><ele>326.0</ele><time>2026-04-09T09:24:01.231Z</time></trkpt><trkpt lat="38.41128" lon="16.4030717"><ele>326.0</ele><time>2026-04-09T09:24:02.23Z</time></trkpt><trkpt lat="38.411225" lon="16.4029367"><ele>325.75</ele><time>2026-04-09T09:24:03.231Z</time></trkpt><trkpt lat="38.4111683" lon="16.402795"><ele>325.5</ele><time>2026-04-09T09:24:04.231Z</time></trkpt><trkpt lat="38.41109" lon="16.4026567"><ele>325.25</ele><time>2026-04-09T09:24:05.231Z</time></trkpt><trkpt lat="38.4110217" lon="16.4025383"><ele>325.0</ele><time>2026-04-09T09:24:06.231Z</time></trkpt><trkpt lat="38.4109383" lon="16.4024117"><ele>325.0</ele><time>2026-04-09T09:24:07.231Z</time></trkpt><trkpt lat="38.4108583" lon="16.4022917"><ele>325.0</ele><time>2026-04-09T09:24:08.231Z</time></trkpt><trkpt lat="38.4107967" lon="16.40218"><ele>325.0</ele><time>2026-04-09T09:24:09.23Z</time></trkpt><trkpt lat="38.4107267" lon="16.4020717"><ele>325.0</ele><time>2026-04-09T09:24:10.231Z</time></trkpt><trkpt lat="38.4106567" lon="16.401965"><ele>328.2</ele><time>2026-04-09T09:24:11.23Z</time></trkpt><trkpt lat="38.4105967" lon="16.401875"><ele>331.4</ele><time>2026-04-09T09:24:12.231Z</time></trkpt><trkpt lat="38.4105483" lon="16.4017667"><ele>334.6</ele><time>2026-04-09T09:24:13.231Z</time></trkpt><trkpt lat="38.410525" lon="16.4016533"><ele>337.8</ele><time>2026-04-09T09:24:14.231Z</time></trkpt><trkpt lat="38.4105233" lon="16.401525"><ele>341.0</ele><time>2026-04-09T09:24:15.231Z</time></trkpt><trkpt lat="38.4105367" lon="16.4014017"><ele>338.8</ele><time>2026-04-09T09:24:16.231Z</time></trkpt><trkpt lat="38.4105467" lon="16.401265"><ele>336.6</ele><time>2026-04-09T09:24:17.231Z</time></trkpt><trkpt lat="38.4105533" lon="16.401135"><ele>334.4</ele><time>2026-04-09T09:24:18.231Z</time></trkpt><trkpt lat="38.4105417" lon="16.4009983"><ele>332.2</ele><time>2026-04-09T09:24:19.231Z</time></trkpt><trkpt lat="38.410515" lon="16.400865"><ele>330.0</ele><time>2026-04-09T09:24:20.231Z</time></trkpt><trkpt lat="38.41047" lon="16.4007383"><ele>330.0</ele><time>2026-04-09T09:24:21.231Z</time></trkpt><trkpt lat="38.4104017" lon="16.4006167"><ele>330.0</ele><time>2026-04-09T09:24:22.231Z</time></trkpt><trkpt lat="38.41033" lon="16.400495"><ele>330.0</ele><time>2026-04-09T09:24:23.231Z</time></trkpt><trkpt lat="38.4102467" lon="16.4003817"><ele>330.0</ele><time>2026-04-09T09:24:24.231Z</time></trkpt><trkpt lat="38.4101783" lon="16.4002583"><ele>333.75</ele><time>2026-04-09T09:24:25.231Z</time></trkpt><trkpt lat="38.4101" lon="16.4001133"><ele>337.5</ele><time>2026-04-09T09:24:26.231Z</time></trkpt><trkpt lat="38.4100183" lon="16.3999567"><ele>341.25</ele><time>2026-04-09T09:24:27.231Z</time></trkpt><trkpt lat="38.409945" lon="16.39979"><ele>345.0</ele><time>2026-04-09T09:24:28.231Z</time></trkpt><trkpt lat="38.409865" lon="16.3996383"><ele>343.5</ele><time>2026-04-09T09:24:29.231Z</time></trkpt><trkpt lat="38.4097833" lon="16.3995"><ele>342.0</ele><time>2026-04-09T09:24:30.231Z</time></trkpt><trkpt lat="38.4096983" lon="16.399365"><ele>340.5</ele><time>2026-04-09T09:24:31.231Z</time></trkpt><trkpt lat="38.4096283" lon="16.3992233"><ele>339.0</ele><time>2026-04-09T09:24:32.231Z</time></trkpt><trkpt lat="38.409565" lon="16.3990917"><ele>339.0</ele><time>2026-04-09T09:24:33.231Z</time></trkpt><trkpt lat="38.40951" lon="16.3989567"><ele>339.0</ele><time>2026-04-09T09:24:34.231Z</time></trkpt><trkpt lat="38.409455" lon="16.3988183"><ele>339.0</ele><time>2026-04-09T09:24:35.231Z</time></trkpt><trkpt lat="38.4094083" lon="16.3986967"><ele>339.0</ele><time>2026-04-09T09:24:36.23Z</time></trkpt><trkpt lat="38.4093817" lon="16.3985783"><ele>339.0</ele><time>2026-04-09T09:24:37.231Z</time></trkpt><trkpt lat="38.4093733" lon="16.3984617"><ele>340.0</ele><time>2026-04-09T09:24:38.231Z</time></trkpt><trkpt lat="38.4093767" lon="16.3983267"><ele>341.0</ele><time>2026-04-09T09:24:39.231Z</time></trkpt><trkpt lat="38.4093883" lon="16.398195"><ele>342.0</ele><time>2026-04-09T09:24:40.231Z</time></trkpt><trkpt lat="38.4094033" lon="16.3980667"><ele>343.0</ele><time>2026-04-09T09:24:41.231Z</time></trkpt><trkpt lat="38.409425" lon="16.397945"><ele>344.0</ele><time>2026-04-09T09:24:42.231Z</time></trkpt><trkpt lat="38.4094417" lon="16.3978267"><ele>344.0</ele><time>2026-04-09T09:24:43.231Z</time></trkpt><trkpt lat="38.4094617" lon="16.3977167"><ele>344.0</ele><time>2026-04-09T09:24:44.231Z</time></trkpt><trkpt lat="38.4094883" lon="16.3976083"><ele>344.0</ele><time>2026-04-09T09:24:45.231Z</time></trkpt><trkpt lat="38.4095183" lon="16.3975033"><ele>344.0</ele><time>2026-04-09T09:24:46.231Z</time></trkpt><trkpt lat="38.4095483" lon="16.3974167"><ele>344.0</ele><time>2026-04-09T09:24:47.231Z</time></trkpt><trkpt lat="38.4095917" lon="16.3973567"><ele>344.0</ele><time>2026-04-09T09:24:48.23Z</time></trkpt><trkpt lat="38.4097" lon="16.39735"><ele>353.0</ele><time>2026-04-09T09:24:50.231Z</time></trkpt><trkpt lat="38.4097467" lon="16.3974067"><ele>362.0</ele><time>2026-04-09T09:24:51.231Z</time></trkpt><trkpt lat="38.40978" lon="16.3975067"><ele>371.0</ele><time>2026-04-09T09:24:52.231Z</time></trkpt><trkpt lat="38.4097717" lon="16.3976333"><ele>380.0</ele><time>2026-04-09T09:24:53.231Z</time></trkpt><trkpt lat="38.4097417" lon="16.397775"><ele>389.0</ele><time>2026-04-09T09:24:54.231Z</time></trkpt><trkpt lat="38.4097217" lon="16.3978933"><ele>388.3333333333333</ele><time>2026-04-09T09:24:55.231Z</time></trkpt><trkpt lat="38.4097033" lon="16.39801"><ele>387.66666666666663</ele><time>2026-04-09T09:24:56.231Z</time></trkpt><trkpt lat="38.409705" lon="16.3981167"><ele>387.0</ele><time>2026-04-09T09:24:57.231Z</time></trkpt><trkpt lat="38.4097117" lon="16.3982183"><ele>386.33333333333337</ele><time>2026-04-09T09:24:58.231Z</time></trkpt><trkpt lat="38.4097483" lon="16.3983283"><ele>385.6666666666667</ele><time>2026-04-09T09:24:59.231Z</time></trkpt><trkpt lat="38.409795" lon="16.3984333"><ele>385.0</ele><time>2026-04-09T09:25:00.231Z</time></trkpt><trkpt lat="38.4098533" lon="16.3985283"><ele>385.0</ele><time>2026-04-09T09:25:01.231Z</time></trkpt><trkpt lat="38.4099267" lon="16.39862"><ele>385.0</ele><time>2026-04-09T09:25:02.23Z</time></trkpt><trkpt lat="38.4099967" lon="16.3987233"><ele>385.0</ele><time>2026-04-09T09:25:03.231Z</time></trkpt><trkpt lat="38.4100633" lon="16.39882"><ele>385.0</ele><time>2026-04-09T09:25:04.231Z</time></trkpt><trkpt lat="38.410135" lon="16.3989117"><ele>385.0</ele><time>2026-04-09T09:25:05.231Z</time></trkpt><trkpt lat="38.4102067" lon="16.398995"><ele>387.0</ele><time>2026-04-09T09:25:06.231Z</time></trkpt><trkpt lat="38.4102867" lon="16.3990633"><ele>389.0</ele><time>2026-04-09T09:25:07.231Z</time></trkpt><trkpt lat="38.410375" lon="16.399135"><ele>391.0</ele><time>2026-04-09T09:25:08.231Z</time></trkpt><trkpt lat="38.4104733" lon="16.3991833"><ele>393.0</ele><time>2026-04-09T09:25:09.231Z</time></trkpt><trkpt lat="38.41056" lon="16.3992333"><ele>395.0</ele><time>2026-04-09T09:25:10.231Z</time></trkpt><trkpt lat="38.410645" lon="16.399265"><ele>395.0</ele><time>2026-04-09T09:25:11.231Z</time></trkpt><trkpt lat="38.4107283" lon="16.399295"><ele>395.0</ele><time>2026-04-09T09:25:12.231Z</time></trkpt><trkpt lat="38.4108183" lon="16.3993083"><ele>395.0</ele><time>2026-04-09T09:25:13.231Z</time></trkpt><trkpt lat="38.4109117" lon="16.3993183"><ele>395.0</ele><time>2026-04-09T09:25:14.231Z</time></trkpt><trkpt lat="38.411015" lon="16.3993133"><ele>395.0</ele><time>2026-04-09T09:25:15.231Z</time></trkpt><trkpt lat="38.4111117" lon="16.3993067"><ele>394.99999999999994</ele><time>2026-04-09T09:25:16.231Z</time></trkpt><trkpt lat="38.411205" lon="16.3993167"><ele>395.0</ele><time>2026-04-09T09:25:17.231Z</time></trkpt><trkpt lat="38.411285" lon="16.39933"><ele>395.0</ele><time>2026-04-09T09:25:18.231Z</time></trkpt><trkpt lat="38.4113633" lon="16.3993533"><ele>395.0</ele><time>2026-04-09T09:25:19.231Z</time></trkpt><trkpt lat="38.4114383" lon="16.3994083"><ele>394.99999999999994</ele><time>2026-04-09T09:25:20.231Z</time></trkpt><trkpt lat="38.4115117" lon="16.3994767"><ele>395.0</ele><time>2026-04-09T09:25:21.231Z</time></trkpt><trkpt lat="38.4115767" lon="16.3995667"><ele>395.4</ele><time>2026-04-09T09:25:22.231Z</time></trkpt><trkpt lat="38.4116367" lon="16.399665"><ele>395.8</ele><time>2026-04-09T09:25:23.231Z</time></trkpt><trkpt lat="38.41169" lon="16.3997717"><ele>396.20000000000005</ele><time>2026-04-09T09:25:24.231Z</time></trkpt><trkpt lat="38.41174" lon="16.3998817"><ele>396.6</ele><time>2026-04-09T09:25:25.231Z</time></trkpt><trkpt lat="38.4117883" lon="16.4"><ele>397.0</ele><time>2026-04-09T09:25:26.231Z</time></trkpt><trkpt lat="38.4118317" lon="16.4001183"><ele>397.0</ele><time>2026-04-09T09:25:27.231Z</time></trkpt><trkpt lat="38.4118733" lon="16.40024"><ele>397.0</ele><time>2026-04-09T09:25:28.231Z</time></trkpt><trkpt lat="38.4119167" lon="16.4003567"><ele>397.0</ele><time>2026-04-09T09:25:29.23Z</time></trkpt><trkpt lat="38.4119683" lon="16.400475"><ele>397.0</ele><time>2026-04-09T09:25:30.231Z</time></trkpt><trkpt lat="38.4120283" lon="16.4005783"><ele>397.0</ele><time>2026-04-09T09:25:31.231Z</time></trkpt><trkpt lat="38.4121083" lon="16.4006633"><ele>400.0</ele><time>2026-04-09T09:25:32.231Z</time></trkpt><trkpt lat="38.4122033" lon="16.4007283"><ele>403.0</ele><time>2026-04-09T09:25:33.231Z</time></trkpt><trkpt lat="38.4122967" lon="16.400795"><ele>406.0</ele><time>2026-04-09T09:25:34.231Z</time></trkpt><trkpt lat="38.41239" lon="16.4008583"><ele>409.0</ele><time>2026-04-09T09:25:35.231Z</time></trkpt><trkpt lat="38.4124933" lon="16.4009033"><ele>412.0</ele><time>2026-04-09T09:25:36.231Z</time></trkpt><trkpt lat="38.4126" lon="16.4009417"><ele>412.0</ele><time>2026-04-09T09:25:37.231Z</time></trkpt><trkpt lat="38.4127" lon="16.4009817"><ele>412.0</ele><time>2026-04-09T09:25:38.23Z</time></trkpt><trkpt lat="38.412805" lon="16.4010317"><ele>412.0</ele><time>2026-04-09T09:25:39.231Z</time></trkpt><trkpt lat="38.4129133" lon="16.40106"><ele>412.0</ele><time>2026-04-09T09:25:40.231Z</time></trkpt><trkpt lat="38.4130217" lon="16.4010983"><ele>412.0</ele><time>2026-04-09T09:25:41.231Z</time></trkpt><trkpt lat="38.413125" lon="16.40113"><ele>414.6</ele><time>2026-04-09T09:25:42.23Z</time></trkpt><trkpt lat="38.4132267" lon="16.4011617"><ele>417.20000000000005</ele><time>2026-04-09T09:25:43.231Z</time></trkpt><trkpt lat="38.4133267" lon="16.4011867"><ele>419.8</ele><time>2026-04-09T09:25:44.23Z</time></trkpt><trkpt lat="38.4134317" lon="16.4012283"><ele>422.4</ele><time>2026-04-09T09:25:45.231Z</time></trkpt><trkpt lat="38.4135317" lon="16.4012483"><ele>425.0</ele><time>2026-04-09T09:25:46.23Z</time></trkpt><trkpt lat="38.41363" lon="16.4012633"><ele>425.0</ele><time>2026-04-09T09:25:47.23Z</time></trkpt><trkpt lat="38.4137217" lon="16.401275"><ele>425.0</ele><time>2026-04-09T09:25:48.231Z</time></trkpt><trkpt lat="38.4138067" lon="16.4012783"><ele>425.0</ele><time>2026-04-09T09:25:49.231Z</time></trkpt><trkpt lat="38.4138883" lon="16.401275"><ele>425.0</ele><time>2026-04-09T09:25:50.23Z</time></trkpt><trkpt lat="38.4140067" lon="16.4012433"><ele>425.0</ele><time>2026-04-09T09:25:52.231Z</time></trkpt><trkpt lat="38.414085" lon="16.40114"><ele>425.0</ele><time>2026-04-09T09:25:54.231Z</time></trkpt><trkpt lat="38.41408" lon="16.4009783"><ele>425.0</ele><time>2026-04-09T09:25:56.231Z</time></trkpt><trkpt lat="38.41398" lon="16.4008833"><ele>425.0</ele><time>2026-04-09T09:25:58.23Z</time></trkpt><trkpt lat="38.413905" lon="16.400855"><ele>425.0</ele><time>2026-04-09T09:25:59.231Z</time></trkpt><trkpt lat="38.4138283" lon="16.4008317"><ele>425.0</ele><time>2026-04-09T09:26:00.231Z</time></trkpt><trkpt lat="38.4137433" lon="16.4008083"><ele>425.0</ele><time>2026-04-09T09:26:01.23Z</time></trkpt><trkpt lat="38.4136583" lon="16.4007733"><ele>425.0</ele><time>2026-04-09T09:26:02.231Z</time></trkpt><trkpt lat="38.4135733" lon="16.4007317"><ele>425.0</ele><time>2026-04-09T09:26:03.231Z</time></trkpt><trkpt lat="38.4134883" lon="16.4006967"><ele>425.0</ele><time>2026-04-09T09:26:04.231Z</time></trkpt><trkpt lat="38.4133983" lon="16.4006567"><ele>425.0</ele><time>2026-04-09T09:26:05.231Z</time></trkpt><trkpt lat="38.41331" lon="16.40061"><ele>425.0</ele><time>2026-04-09T09:26:06.231Z</time></trkpt><trkpt lat="38.4132233" lon="16.4005533"><ele>425.0</ele><time>2026-04-09T09:26:07.231Z</time></trkpt><trkpt lat="38.41313" lon="16.4004883"><ele>425.0</ele><time>2026-04-09T09:26:08.231Z</time></trkpt><trkpt lat="38.41305" lon="16.4004317"><ele>425.0</ele><time>2026-04-09T09:26:09.231Z</time></trkpt><trkpt lat="38.4129683" lon="16.4003633"><ele>425.0</ele><time>2026-04-09T09:26:10.23Z</time></trkpt><trkpt lat="38.41289" lon="16.4002867"><ele>426.4</ele><time>2026-04-09T09:26:11.231Z</time></trkpt><trkpt lat="38.4128217" lon="16.4001917"><ele>427.8</ele><time>2026-04-09T09:26:12.231Z</time></trkpt><trkpt lat="38.4127517" lon="16.400085"><ele>429.20000000000005</ele><time>2026-04-09T09:26:13.231Z</time></trkpt><trkpt lat="38.41268" lon="16.399975"><ele>430.6</ele><time>2026-04-09T09:26:14.231Z</time></trkpt><trkpt lat="38.4126183" lon="16.39986"><ele>432.0</ele><time>2026-04-09T09:26:15.231Z</time></trkpt><trkpt lat="38.4125633" lon="16.399745"><ele>435.0</ele><time>2026-04-09T09:26:16.231Z</time></trkpt><trkpt lat="38.4125067" lon="16.3996283"><ele>438.00000000000006</ele><time>2026-04-09T09:26:17.231Z</time></trkpt><trkpt lat="38.4124417" lon="16.39952"><ele>441.00000000000006</ele><time>2026-04-09T09:26:18.231Z</time></trkpt><trkpt lat="38.4123883" lon="16.3994"><ele>444.0</ele><time>2026-04-09T09:26:19.231Z</time></trkpt><trkpt lat="38.4123317" lon="16.399285"><ele>447.0</ele><time>2026-04-09T09:26:20.231Z</time></trkpt><trkpt lat="38.41229" lon="16.39918"><ele>447.0</ele><time>2026-04-09T09:26:21.231Z</time></trkpt><trkpt lat="38.4122683" lon="16.3990833"><ele>447.0</ele><time>2026-04-09T09:26:22.231Z</time></trkpt><trkpt lat="38.4122433" lon="16.3989867"><ele>447.0</ele><time>2026-04-09T09:26:23.231Z</time></trkpt><trkpt lat="38.4122167" lon="16.3988683"><ele>447.0</ele><time>2026-04-09T09:26:25.231Z</time></trkpt><trkpt lat="38.4122017" lon="16.39876"><ele>447.0</ele><time>2026-04-09T09:26:29.231Z</time></trkpt><trkpt lat="38.4122717" lon="16.398725"><ele>447.0</ele><time>2026-04-09T09:26:32.231Z</time></trkpt><trkpt lat="38.4123367" lon="16.3987717"><ele>447.0</ele><time>2026-04-09T09:26:35.231Z</time></trkpt><trkpt lat="38.4122667" lon="16.39873"><ele>447.0</ele><time>2026-04-09T09:26:46.231Z</time></trkpt><trkpt lat="38.412195" lon="16.3987017"><ele>447.0</ele><time>2026-04-09T09:26:49.231Z</time></trkpt><trkpt lat="38.41228" lon="16.3987233"><ele>447.0</ele><time>2026-04-09T09:26:58.23Z</time></trkpt><trkpt lat="38.4123383" lon="16.3987833"><ele>447.0</ele><time>2026-04-09T09:27:02.231Z</time></trkpt><trkpt lat="38.412385" lon="16.39885"><ele>447.0</ele><time>2026-04-09T09:27:14.23Z</time></trkpt><trkpt lat="38.4124083" lon="16.398945"><ele>447.0</ele><time>2026-04-09T09:27:16.231Z</time></trkpt><trkpt lat="38.4124467" lon="16.3990683"><ele>447.00000000000006</ele><time>2026-04-09T09:27:18.231Z</time></trkpt><trkpt lat="38.4125" lon="16.3991683"><ele>447.00000000000006</ele><time>2026-04-09T09:27:20.231Z</time></trkpt><trkpt lat="38.41257" lon="16.3992767"><ele>447.0</ele><time>2026-04-09T09:27:22.231Z</time></trkpt><trkpt lat="38.4126233" lon="16.3993733"><ele>447.0</ele><time>2026-04-09T09:27:24.231Z</time></trkpt><trkpt lat="38.4126833" lon="16.3994517"><ele>447.0</ele><time>2026-04-09T09:27:26.231Z</time></trkpt><trkpt lat="38.412745" lon="16.399515"><ele>447.00000000000006</ele><time>2026-04-09T09:27:28.231Z</time></trkpt><trkpt lat="38.4128283" lon="16.399575"><ele>447.00000000000006</ele><time>2026-04-09T09:27:30.231Z</time></trkpt><trkpt lat="38.4129167" lon="16.3996717"><ele>447.0</ele><time>2026-04-09T09:27:32.231Z</time></trkpt><trkpt lat="38.4129817" lon="16.3997717"><ele>447.0</ele><time>2026-04-09T09:27:34.231Z</time></trkpt><trkpt lat="38.4130717" lon="16.3998567"><ele>447.8</ele><time>2026-04-09T09:27:36.231Z</time></trkpt><trkpt lat="38.4131633" lon="16.3999317"><ele>448.6</ele><time>2026-04-09T09:27:38.231Z</time></trkpt><trkpt lat="38.4132583" lon="16.4000083"><ele>449.40000000000003</ele><time>2026-04-09T09:27:40.231Z</time></trkpt><trkpt lat="38.4133433" lon="16.4000617"><ele>450.20000000000005</ele><time>2026-04-09T09:27:42.231Z</time></trkpt><trkpt lat="38.4134383" lon="16.40012"><ele>451.0</ele><time>2026-04-09T09:27:44.23Z</time></trkpt><trkpt lat="38.4135333" lon="16.400195"><ele>451.0</ele><time>2026-04-09T09:27:46.231Z</time></trkpt><trkpt lat="38.4136067" lon="16.4002783"><ele>451.0</ele><time>2026-04-09T09:27:48.231Z</time></trkpt><trkpt lat="38.4136967" lon="16.40036"><ele>451.0</ele><time>2026-04-09T09:27:50.231Z</time></trkpt><trkpt lat="38.413785" lon="16.40043"><ele>451.0</ele><time>2026-04-09T09:27:52.231Z</time></trkpt><trkpt lat="38.4138483" lon="16.4004817"><ele>451.0</ele><time>2026-04-09T09:27:54.231Z</time></trkpt><trkpt lat="38.4139217" lon="16.400545"><ele>447.8</ele><time>2026-04-09T09:27:56.23Z</time></trkpt><trkpt lat="38.4140067" lon="16.40062"><ele>444.6</ele><time>2026-04-09T09:27:58.231Z</time></trkpt><trkpt lat="38.414115" lon="16.400685"><ele>441.4</ele><time>2026-04-09T09:28:00.231Z</time></trkpt><trkpt lat="38.4142083" lon="16.400705"><ele>438.2</ele><time>2026-04-09T09:28:02.231Z</time></trkpt><trkpt lat="38.414305" lon="16.40071"><ele>435.0</ele><time>2026-04-09T09:28:04.23Z</time></trkpt><trkpt lat="38.41438" lon="16.4007233"><ele>435.0</ele><time>2026-04-09T09:28:06.231Z</time></trkpt><trkpt lat="38.4144733" lon="16.400745"><ele>435.0</ele><time>2026-04-09T09:28:08.231Z</time></trkpt><trkpt lat="38.41456" lon="16.4007617"><ele>435.0</ele><time>2026-04-09T09:28:10.231Z</time></trkpt><trkpt lat="38.4146583" lon="16.40078"><ele>435.0</ele><time>2026-04-09T09:28:12.231Z</time></trkpt><trkpt lat="38.4147617" lon="16.400765"><ele>435.0</ele><time>2026-04-09T09:28:14.231Z</time></trkpt><trkpt lat="38.4148667" lon="16.400705"><ele>435.8</ele><time>2026-04-09T09:28:16.231Z</time></trkpt><trkpt lat="38.4149567" lon="16.4006567"><ele>436.6</ele><time>2026-04-09T09:28:18.231Z</time></trkpt><trkpt lat="38.415065" lon="16.4006467"><ele>437.4</ele><time>2026-04-09T09:28:20.231Z</time></trkpt><trkpt lat="38.4151317" lon="16.4006417"><ele>438.2</ele><time>2026-04-09T09:28:21.231Z</time></trkpt><trkpt lat="38.4152683" lon="16.400655"><ele>439.0</ele><time>2026-04-09T09:28:23.231Z</time></trkpt><trkpt lat="38.41534" lon="16.4006517"><ele>439.00000000000006</ele><time>2026-04-09T09:28:24.231Z</time></trkpt><trkpt lat="38.415415" lon="16.400645"><ele>439.0</ele><time>2026-04-09T09:28:25.23Z</time></trkpt><trkpt lat="38.4154933" lon="16.40064"><ele>439.0</ele><time>2026-04-09T09:28:26.23Z</time></trkpt><trkpt lat="38.4155567" lon="16.4006233"><ele>439.0</ele><time>2026-04-09T09:28:27.23Z</time></trkpt><trkpt lat="38.4156383" lon="16.40063"><ele>439.00000000000006</ele><time>2026-04-09T09:28:29.23Z</time></trkpt><trkpt lat="38.415655" lon="16.4007167"><ele>439.0</ele><time>2026-04-09T09:28:33.23Z</time></trkpt><trkpt lat="38.415565" lon="16.4007517"><ele>439.0</ele><time>2026-04-09T09:28:35.23Z</time></trkpt><trkpt lat="38.4155017" lon="16.400785"><ele>439.0</ele><time>2026-04-09T09:28:36.23Z</time></trkpt><trkpt lat="38.41542" lon="16.4008217"><ele>439.0</ele><time>2026-04-09T09:28:37.23Z</time></trkpt><trkpt lat="38.4153467" lon="16.4008567"><ele>439.0</ele><time>2026-04-09T09:28:38.23Z</time></trkpt><trkpt lat="38.4152817" lon="16.4008733"><ele>439.0</ele><time>2026-04-09T09:28:39.23Z</time></trkpt><trkpt lat="38.4152217" lon="16.400905"><ele>439.0</ele><time>2026-04-09T09:28:40.23Z</time></trkpt><trkpt lat="38.41516" lon="16.4009367"><ele>439.0</ele><time>2026-04-09T09:28:41.23Z</time></trkpt><trkpt lat="38.4150383" lon="16.4010033"><ele>439.00000000000006</ele><time>2026-04-09T09:28:43.23Z</time></trkpt><trkpt lat="38.4149283" lon="16.401065"><ele>439.0</ele><time>2026-04-09T09:28:45.229Z</time></trkpt><trkpt lat="38.4148667" lon="16.4011183"><ele>439.0</ele><time>2026-04-09T09:28:46.23Z</time></trkpt><trkpt lat="38.4148067" lon="16.401175"><ele>439.0</ele><time>2026-04-09T09:28:47.23Z</time></trkpt><trkpt lat="38.414755" lon="16.4012533"><ele>439.00000000000006</ele><time>2026-04-09T09:28:48.23Z</time></trkpt><trkpt lat="38.4147017" lon="16.4013467"><ele>439.0</ele><time>2026-04-09T09:28:49.23Z</time></trkpt><trkpt lat="38.4146533" lon="16.401405"><ele>435.00000000000006</ele><time>2026-04-09T09:28:50.229Z</time></trkpt><trkpt lat="38.4145967" lon="16.4014417"><ele>431.0</ele><time>2026-04-09T09:28:51.229Z</time></trkpt><trkpt lat="38.4145333" lon="16.401465"><ele>427.0</ele><time>2026-04-09T09:28:52.23Z</time></trkpt><trkpt lat="38.41446" lon="16.4014667"><ele>423.0</ele><time>2026-04-09T09:28:53.229Z</time></trkpt><trkpt lat="38.414375" lon="16.4014433"><ele>419.00000000000006</ele><time>2026-04-09T09:28:54.23Z</time></trkpt><trkpt lat="38.4142833" lon="16.4014217"><ele>415.0</ele><time>2026-04-09T09:28:55.23Z</time></trkpt><trkpt lat="38.4141983" lon="16.4013983"><ele>415.00000000000006</ele><time>2026-04-09T09:28:56.23Z</time></trkpt><trkpt lat="38.4141233" lon="16.4013667"><ele>415.0</ele><time>2026-04-09T09:28:57.229Z</time></trkpt><trkpt lat="38.4140567" lon="16.401355"><ele>415.0</ele><time>2026-04-09T09:28:58.229Z</time></trkpt><trkpt lat="38.4139467" lon="16.4013567"><ele>415.0</ele><time>2026-04-09T09:29:00.23Z</time></trkpt><trkpt lat="38.413885" lon="16.4013783"><ele>415.00000000000006</ele><time>2026-04-09T09:29:01.23Z</time></trkpt><trkpt lat="38.4138183" lon="16.4013833"><ele>415.0</ele><time>2026-04-09T09:29:02.23Z</time></trkpt><trkpt lat="38.413745" lon="16.401375"><ele>413.0</ele><time>2026-04-09T09:29:03.23Z</time></trkpt><trkpt lat="38.4136383" lon="16.4013333"><ele>411.0</ele><time>2026-04-09T09:29:05.23Z</time></trkpt><trkpt lat="38.41359" lon="16.40128"><ele>409.0</ele><time>2026-04-09T09:29:07.23Z</time></trkpt><trkpt lat="38.4136767" lon="16.4012483"><ele>407.0</ele><time>2026-04-09T09:29:12.23Z</time></trkpt><trkpt lat="38.4137833" lon="16.4012817"><ele>405.0</ele><time>2026-04-09T09:29:14.23Z</time></trkpt><trkpt lat="38.4138883" lon="16.401275"><ele>411.0</ele><time>2026-04-09T09:29:16.23Z</time></trkpt><trkpt lat="38.4139933" lon="16.40123"><ele>417.0</ele><time>2026-04-09T09:29:18.23Z</time></trkpt><trkpt lat="38.414065" lon="16.40112"><ele>423.0</ele><time>2026-04-09T09:29:20.23Z</time></trkpt><trkpt lat="38.41408" lon="16.4010417"><ele>429.0</ele><time>2026-04-09T09:29:21.23Z</time></trkpt><trkpt lat="38.414015" lon="16.4008983"><ele>435.0</ele><time>2026-04-09T09:29:23.23Z</time></trkpt><trkpt lat="38.4139433" lon="16.4008483"><ele>435.0</ele><time>2026-04-09T09:29:24.23Z</time></trkpt><trkpt lat="38.4138317" lon="16.400815"><ele>435.0</ele><time>2026-04-09T09:29:25.23Z</time></trkpt><trkpt lat="38.413705" lon="16.4007617"><ele>435.0</ele><time>2026-04-09T09:29:26.23Z</time></trkpt><trkpt lat="38.4135533" lon="16.400685"><ele>435.0</ele><time>2026-04-09T09:29:27.23Z</time></trkpt><trkpt lat="38.4134" lon="16.4006133"><ele>434.25</ele><time>2026-04-09T09:29:28.23Z</time></trkpt><trkpt lat="38.4132517" lon="16.400545"><ele>433.5</ele><time>2026-04-09T09:29:29.23Z</time></trkpt><trkpt lat="38.4131333" lon="16.4004783"><ele>432.75</ele><time>2026-04-09T09:29:30.229Z</time></trkpt><trkpt lat="38.4130283" lon="16.4004083"><ele>432.0</ele><time>2026-04-09T09:29:31.23Z</time></trkpt><trkpt lat="38.4129317" lon="16.4003333"><ele>432.0</ele><time>2026-04-09T09:29:32.23Z</time></trkpt><trkpt lat="38.4128533" lon="16.400245"><ele>432.00000000000006</ele><time>2026-04-09T09:29:33.23Z</time></trkpt><trkpt lat="38.4127833" lon="16.40015"><ele>432.00000000000006</ele><time>2026-04-09T09:29:34.23Z</time></trkpt><trkpt lat="38.41272" lon="16.4000483"><ele>432.0</ele><time>2026-04-09T09:29:35.229Z</time></trkpt><trkpt lat="38.4126617" lon="16.3999467"><ele>432.0</ele><time>2026-04-09T09:29:36.23Z</time></trkpt><trkpt lat="38.4126233" lon="16.3998433"><ele>432.0</ele><time>2026-04-09T09:29:37.23Z</time></trkpt><trkpt lat="38.41258" lon="16.3997417"><ele>432.0</ele><time>2026-04-09T09:29:38.23Z</time></trkpt><trkpt lat="38.4125367" lon="16.3996567"><ele>432.0</ele><time>2026-04-09T09:29:39.23Z</time></trkpt><trkpt lat="38.4124867" lon="16.3995667"><ele>432.0</ele><time>2026-04-09T09:29:40.23Z</time></trkpt><trkpt lat="38.4124467" lon="16.399485"><ele>432.0</ele><time>2026-04-09T09:29:41.23Z</time></trkpt><trkpt lat="38.4123983" lon="16.3994067"><ele>432.0</ele><time>2026-04-09T09:29:42.23Z</time></trkpt><trkpt lat="38.4123567" lon="16.3993217"><ele>434.5</ele><time>2026-04-09T09:29:43.23Z</time></trkpt><trkpt lat="38.4123267" lon="16.399235"><ele>437.0</ele><time>2026-04-09T09:29:44.23Z</time></trkpt><trkpt lat="38.4123033" lon="16.3991417"><ele>439.5</ele><time>2026-04-09T09:29:45.23Z</time></trkpt><trkpt lat="38.41228" lon="16.39905"><ele>442.0</ele><time>2026-04-09T09:29:46.23Z</time></trkpt><trkpt lat="38.412265" lon="16.398965"><ele>444.5</ele><time>2026-04-09T09:29:47.23Z</time></trkpt><trkpt lat="38.4122417" lon="16.3988817"><ele>447.0</ele><time>2026-04-09T09:29:48.23Z</time></trkpt><trkpt lat="38.4121983" lon="16.3987683"><ele>445.0</ele><time>2026-04-09T09:29:50.23Z</time></trkpt><trkpt lat="38.4121417" lon="16.3986917"><ele>443.00000000000006</ele><time>2026-04-09T09:30:27.23Z</time></trkpt><trkpt lat="38.4120867" lon="16.3985583"><ele>441.00000000000006</ele><time>2026-04-09T09:30:29.23Z</time></trkpt><trkpt lat="38.4120417" lon="16.398465"><ele>439.0</ele><time>2026-04-09T09:30:30.229Z</time></trkpt><trkpt lat="38.4119917" lon="16.3983433"><ele>437.0</ele><time>2026-04-09T09:30:31.23Z</time></trkpt><trkpt lat="38.4119383" lon="16.3982067"><ele>437.0</ele><time>2026-04-09T09:30:32.23Z</time></trkpt><trkpt lat="38.4118983" lon="16.3980717"><ele>437.00000000000006</ele><time>2026-04-09T09:30:33.229Z</time></trkpt><trkpt lat="38.41187" lon="16.39794"><ele>437.00000000000006</ele><time>2026-04-09T09:30:34.23Z</time></trkpt><trkpt lat="38.41187" lon="16.3978083"><ele>437.0</ele><time>2026-04-09T09:30:35.23Z</time></trkpt><trkpt lat="38.41189" lon="16.39767"><ele>437.0</ele><time>2026-04-09T09:30:36.229Z</time></trkpt><trkpt lat="38.4119283" lon="16.3975483"><ele>439.0</ele><time>2026-04-09T09:30:37.23Z</time></trkpt><trkpt lat="38.4119733" lon="16.39742"><ele>441.0</ele><time>2026-04-09T09:30:38.23Z</time></trkpt><trkpt lat="38.4120233" lon="16.3972933"><ele>443.0</ele><time>2026-04-09T09:30:39.23Z</time></trkpt><trkpt lat="38.4120617" lon="16.397155"><ele>445.0</ele><time>2026-04-09T09:30:40.23Z</time></trkpt><trkpt lat="38.4121133" lon="16.39702"><ele>449.2</ele><time>2026-04-09T09:30:41.23Z</time></trkpt><trkpt lat="38.4121683" lon="16.3969033"><ele>453.4</ele><time>2026-04-09T09:30:42.23Z</time></trkpt><trkpt lat="38.412205" lon="16.3967967"><ele>457.6</ele><time>2026-04-09T09:30:43.23Z</time></trkpt><trkpt lat="38.4122367" lon="16.3967117"><ele>461.8</ele><time>2026-04-09T09:30:44.23Z</time></trkpt><trkpt lat="38.4123267" lon="16.396645"><ele>466.0</ele><time>2026-04-09T09:30:46.23Z</time></trkpt><trkpt lat="38.4124183" lon="16.3966917"><ele>466.0</ele><time>2026-04-09T09:30:48.23Z</time></trkpt><trkpt lat="38.41248" lon="16.3968233"><ele>466.0</ele><time>2026-04-09T09:30:50.23Z</time></trkpt><trkpt lat="38.4125217" lon="16.396915"><ele>466.0</ele><time>2026-04-09T09:30:51.23Z</time></trkpt><trkpt lat="38.4125783" lon="16.397025"><ele>466.0</ele><time>2026-04-09T09:30:52.23Z</time></trkpt><trkpt lat="38.4126433" lon="16.397165"><ele>466.0</ele><time>2026-04-09T09:30:53.23Z</time></trkpt><trkpt lat="38.412715" lon="16.39731"><ele>467.75</ele><time>2026-04-09T09:30:54.23Z</time></trkpt><trkpt lat="38.4127867" lon="16.3974433"><ele>469.5</ele><time>2026-04-09T09:30:55.23Z</time></trkpt><trkpt lat="38.41285" lon="16.3975817"><ele>471.25</ele><time>2026-04-09T09:30:56.23Z</time></trkpt><trkpt lat="38.4129083" lon="16.3977083"><ele>473.0</ele><time>2026-04-09T09:30:57.229Z</time></trkpt><trkpt lat="38.412965" lon="16.3978167"><ele>474.59999999999997</ele><time>2026-04-09T09:30:58.23Z</time></trkpt><trkpt lat="38.41304" lon="16.3979183"><ele>476.19999999999993</ele><time>2026-04-09T09:30:59.23Z</time></trkpt><trkpt lat="38.4131183" lon="16.3980167"><ele>477.8</ele><time>2026-04-09T09:31:00.23Z</time></trkpt><trkpt lat="38.4132017" lon="16.398095"><ele>479.4</ele><time>2026-04-09T09:31:01.23Z</time></trkpt><trkpt lat="38.4132817" lon="16.398145"><ele>481.0</ele><time>2026-04-09T09:31:02.23Z</time></trkpt><trkpt lat="38.4133567" lon="16.39817"><ele>481.00000000000006</ele><time>2026-04-09T09:31:03.23Z</time></trkpt><trkpt lat="38.4134233" lon="16.398155"><ele>481.0</ele><time>2026-04-09T09:31:04.23Z</time></trkpt><trkpt lat="38.41348" lon="16.39812"><ele>481.0</ele><time>2026-04-09T09:31:05.23Z</time></trkpt><trkpt lat="38.413515" lon="16.39803"><ele>481.0</ele><time>2026-04-09T09:31:06.23Z</time></trkpt><trkpt lat="38.4135217" lon="16.397925"><ele>481.00000000000006</ele><time>2026-04-09T09:31:07.23Z</time></trkpt><trkpt lat="38.413505" lon="16.397805"><ele>481.0</ele><time>2026-04-09T09:31:08.23Z</time></trkpt><trkpt lat="38.4134783" lon="16.39766"><ele>480.20000000000005</ele><time>2026-04-09T09:31:09.23Z</time></trkpt><trkpt lat="38.413465" lon="16.3975083"><ele>479.40000000000003</ele><time>2026-04-09T09:31:10.23Z</time></trkpt><trkpt lat="38.4134717" lon="16.397355"><ele>478.6</ele><time>2026-04-09T09:31:11.229Z</time></trkpt><trkpt lat="38.4134817" lon="16.3972233"><ele>477.8</ele><time>2026-04-09T09:31:12.23Z</time></trkpt><trkpt lat="38.4134917" lon="16.3971183"><ele>477.0</ele><time>2026-04-09T09:31:13.23Z</time></trkpt><trkpt lat="38.41355" lon="16.396985"><ele>477.0</ele><time>2026-04-09T09:31:15.23Z</time></trkpt><trkpt lat="38.4136517" lon="16.3969383"><ele>477.00000000000006</ele><time>2026-04-09T09:31:17.23Z</time></trkpt><trkpt lat="38.4137233" lon="16.396955"><ele>477.00000000000006</ele><time>2026-04-09T09:31:18.23Z</time></trkpt><trkpt lat="38.4137917" lon="16.3969917"><ele>477.0</ele><time>2026-04-09T09:31:19.23Z</time></trkpt><trkpt lat="38.4138467" lon="16.3970633"><ele>477.0</ele><time>2026-04-09T09:31:20.23Z</time></trkpt><trkpt lat="38.41389" lon="16.3972033"><ele>483.6</ele><time>2026-04-09T09:31:22.23Z</time></trkpt><trkpt lat="38.4138817" lon="16.3973"><ele>490.20000000000005</ele><time>2026-04-09T09:31:23.23Z</time></trkpt><trkpt lat="38.4138667" lon="16.3974183"><ele>496.8</ele><time>2026-04-09T09:31:24.229Z</time></trkpt><trkpt lat="38.4138517" lon="16.3975617"><ele>503.4</ele><time>2026-04-09T09:31:25.23Z</time></trkpt><trkpt lat="38.4138433" lon="16.3977017"><ele>510.0</ele><time>2026-04-09T09:31:26.23Z</time></trkpt><trkpt lat="38.413835" lon="16.39785"><ele>510.0</ele><time>2026-04-09T09:31:27.23Z</time></trkpt><trkpt lat="38.4138367" lon="16.3979783"><ele>510.0</ele><time>2026-04-09T09:31:28.23Z</time></trkpt><trkpt lat="38.413845" lon="16.3981"><ele>510.0</ele><time>2026-04-09T09:31:29.23Z</time></trkpt><trkpt lat="38.41388" lon="16.398215"><ele>510.0</ele><time>2026-04-09T09:31:30.23Z</time></trkpt><trkpt lat="38.4139233" lon="16.398295"><ele>510.0</ele><time>2026-04-09T09:31:31.23Z</time></trkpt><trkpt lat="38.4139867" lon="16.3983583"><ele>509.2</ele><time>2026-04-09T09:31:32.23Z</time></trkpt><trkpt lat="38.4140617" lon="16.3983867"><ele>508.4</ele><time>2026-04-09T09:31:33.23Z</time></trkpt><trkpt lat="38.41415" lon="16.3983817"><ele>507.6</ele><time>2026-04-09T09:31:34.23Z</time></trkpt><trkpt lat="38.4142567" lon="16.398365"><ele>506.8</ele><time>2026-04-09T09:31:35.23Z</time></trkpt><trkpt lat="38.414375" lon="16.39835"><ele>506.0</ele><time>2026-04-09T09:31:36.229Z</time></trkpt><trkpt lat="38.4145067" lon="16.3983517"><ele>506.0</ele><time>2026-04-09T09:31:37.23Z</time></trkpt><trkpt lat="38.4146317" lon="16.398355"><ele>506.0</ele><time>2026-04-09T09:31:38.23Z</time></trkpt><trkpt lat="38.4147467" lon="16.3983567"><ele>506.0</ele><time>2026-04-09T09:31:39.23Z</time></trkpt><trkpt lat="38.4148567" lon="16.3983783"><ele>506.0</ele><time>2026-04-09T09:31:40.23Z</time></trkpt><trkpt lat="38.4149617" lon="16.3983933"><ele>508.6</ele><time>2026-04-09T09:31:41.23Z</time></trkpt><trkpt lat="38.41507" lon="16.3984133"><ele>511.20000000000005</ele><time>2026-04-09T09:31:42.23Z</time></trkpt><trkpt lat="38.415175" lon="16.3984367"><ele>513.8</ele><time>2026-04-09T09:31:43.23Z</time></trkpt><trkpt lat="38.41527" lon="16.3984533"><ele>516.4</ele><time>2026-04-09T09:31:44.23Z</time></trkpt><trkpt lat="38.4153583" lon="16.3984583"><ele>519.0</ele><time>2026-04-09T09:31:45.229Z</time></trkpt><trkpt lat="38.4154567" lon="16.39844"><ele>519.75</ele><time>2026-04-09T09:31:46.23Z</time></trkpt><trkpt lat="38.4155517" lon="16.39839"><ele>520.5</ele><time>2026-04-09T09:31:47.23Z</time></trkpt><trkpt lat="38.41566" lon="16.39834"><ele>521.25</ele><time>2026-04-09T09:31:48.23Z</time></trkpt><trkpt lat="38.4157767" lon="16.3982833"><ele>522.0</ele><time>2026-04-09T09:31:49.23Z</time></trkpt><trkpt lat="38.4158833" lon="16.3982267"><ele>522.0</ele><time>2026-04-09T09:31:50.23Z</time></trkpt><trkpt lat="38.4159883" lon="16.3981733"><ele>522.0</ele><time>2026-04-09T09:31:51.23Z</time></trkpt><trkpt lat="38.4160867" lon="16.3981317"><ele>522.0</ele><time>2026-04-09T09:31:52.23Z</time></trkpt><trkpt lat="38.41618" lon="16.398085"><ele>522.0</ele><time>2026-04-09T09:31:53.23Z</time></trkpt><trkpt lat="38.416265" lon="16.39805"><ele>522.0</ele><time>2026-04-09T09:31:54.23Z</time></trkpt><trkpt lat="38.4163333" lon="16.3980267"><ele>523.8000000000001</ele><time>2026-04-09T09:31:55.23Z</time></trkpt><trkpt lat="38.4164133" lon="16.3979817"><ele>525.6</ele><time>2026-04-09T09:31:57.23Z</time></trkpt><trkpt lat="38.416475" lon="16.3979383"><ele>527.4000000000001</ele><time>2026-04-09T09:32:31.23Z</time></trkpt><trkpt lat="38.41656" lon="16.3978633"><ele>529.2</ele><time>2026-04-09T09:32:33.23Z</time></trkpt><trkpt lat="38.41666" lon="16.3977667"><ele>531.0</ele><time>2026-04-09T09:32:35.23Z</time></trkpt><trkpt lat="38.416705" lon="16.3976967"><ele>531.0</ele><time>2026-04-09T09:32:36.23Z</time></trkpt><trkpt lat="38.4167567" lon="16.3976267"><ele>531.0</ele><time>2026-04-09T09:32:37.23Z</time></trkpt><trkpt lat="38.4168133" lon="16.3975533"><ele>531.0</ele><time>2026-04-09T09:32:38.23Z</time></trkpt><trkpt lat="38.4168617" lon="16.39748"><ele>531.0</ele><time>2026-04-09T09:32:39.23Z</time></trkpt><trkpt lat="38.416915" lon="16.3974183"><ele>531.0</ele><time>2026-04-09T09:32:40.23Z</time></trkpt><trkpt lat="38.4169717" lon="16.397355"><ele>531.0</ele><time>2026-04-09T09:32:41.23Z</time></trkpt><trkpt lat="38.41702" lon="16.397285"><ele>531.0</ele><time>2026-04-09T09:32:42.229Z</time></trkpt><trkpt lat="38.417075" lon="16.3972267"><ele>531.0</ele><time>2026-04-09T09:32:43.229Z</time></trkpt><trkpt lat="38.417135" lon="16.3971783"><ele>531.0</ele><time>2026-04-09T09:32:44.23Z</time></trkpt><trkpt lat="38.4172017" lon="16.3971417"><ele>531.0</ele><time>2026-04-09T09:32:45.23Z</time></trkpt><trkpt lat="38.4172783" lon="16.39712"><ele>531.0</ele><time>2026-04-09T09:32:46.23Z</time></trkpt><trkpt lat="38.4173583" lon="16.3971183"><ele>531.0</ele><time>2026-04-09T09:32:47.23Z</time></trkpt><trkpt lat="38.4174433" lon="16.397125"><ele>528.5</ele><time>2026-04-09T09:32:48.23Z</time></trkpt><trkpt lat="38.4175283" lon="16.3971417"><ele>526.0</ele><time>2026-04-09T09:32:49.23Z</time></trkpt><trkpt lat="38.4176167" lon="16.3971483"><ele>523.5</ele><time>2026-04-09T09:32:50.23Z</time></trkpt><trkpt lat="38.4176967" lon="16.39716"><ele>521.0</ele><time>2026-04-09T09:32:51.23Z</time></trkpt><trkpt lat="38.4177683" lon="16.3971617"><ele>518.5</ele><time>2026-04-09T09:32:52.23Z</time></trkpt><trkpt lat="38.41784" lon="16.3971583"><ele>516.0</ele><time>2026-04-09T09:32:53.23Z</time></trkpt><trkpt lat="38.41791" lon="16.3971533"><ele>516.0</ele><time>2026-04-09T09:32:54.23Z</time></trkpt><trkpt lat="38.4179817" lon="16.3971483"><ele>516.0</ele><time>2026-04-09T09:32:55.23Z</time></trkpt><trkpt lat="38.41805" lon="16.397145"><ele>516.0</ele><time>2026-04-09T09:32:56.23Z</time></trkpt><trkpt lat="38.4181383" lon="16.3971483"><ele>516.0</ele><time>2026-04-09T09:32:58.23Z</time></trkpt><trkpt lat="38.41824" lon="16.3971567"><ele>516.0</ele><time>2026-04-09T09:33:58.23Z</time></trkpt><trkpt lat="38.4183017" lon="16.3971733"><ele>516.0</ele><time>2026-04-09T09:33:59.229Z</time></trkpt><trkpt lat="38.41837" lon="16.397195"><ele>519.8</ele><time>2026-04-09T09:34:00.23Z</time></trkpt><trkpt lat="38.4184467" lon="16.3972217"><ele>523.6</ele><time>2026-04-09T09:34:01.23Z</time></trkpt><trkpt lat="38.4185233" lon="16.3972533"><ele>527.4</ele><time>2026-04-09T09:34:02.23Z</time></trkpt><trkpt lat="38.41861" lon="16.3972867"><ele>531.2</ele><time>2026-04-09T09:34:03.23Z</time></trkpt><trkpt lat="38.4187567" lon="16.3973583"><ele>535.0</ele><time>2026-04-09T09:34:05.23Z</time></trkpt><trkpt lat="38.4188217" lon="16.3973983"><ele>533.0</ele><time>2026-04-09T09:34:06.23Z</time></trkpt><trkpt lat="38.4189233" lon="16.3974033"><ele>531.0</ele><time>2026-04-09T09:34:08.23Z</time></trkpt><trkpt lat="38.4189633" lon="16.3973"><ele>529.0</ele><time>2026-04-09T09:34:10.23Z</time></trkpt><trkpt lat="38.4188167" lon="16.3971467"><ele>527.0</ele><time>2026-04-09T09:34:13.23Z</time></trkpt><trkpt lat="38.4186883" lon="16.3970833"><ele>527.0</ele><time>2026-04-09T09:34:15.23Z</time></trkpt><trkpt lat="38.4186733" lon="16.3969183"><ele>527.0</ele><time>2026-04-09T09:34:18.23Z</time></trkpt><trkpt lat="38.4187717" lon="16.3968567"><ele>527.0</ele><time>2026-04-09T09:34:20.23Z</time></trkpt><trkpt lat="38.41884" lon="16.39686"><ele>527.0</ele><time>2026-04-09T09:34:21.23Z</time></trkpt><trkpt lat="38.4189033" lon="16.3969017"><ele>527.0</ele><time>2026-04-09T09:34:22.23Z</time></trkpt><trkpt lat="38.41896" lon="16.396965"><ele>531.5</ele><time>2026-04-09T09:34:23.23Z</time></trkpt><trkpt lat="38.4190183" lon="16.3970317"><ele>536.0</ele><time>2026-04-09T09:34:24.23Z</time></trkpt><trkpt lat="38.419075" lon="16.397095"><ele>540.5</ele><time>2026-04-09T09:34:25.23Z</time></trkpt><trkpt lat="38.419145" lon="16.397155"><ele>545.0</ele><time>2026-04-09T09:34:26.23Z</time></trkpt><trkpt lat="38.419225" lon="16.39719"><ele>549.5</ele><time>2026-04-09T09:34:27.23Z</time></trkpt><trkpt lat="38.419305" lon="16.3972183"><ele>554.0</ele><time>2026-04-09T09:34:28.23Z</time></trkpt><trkpt lat="38.419395" lon="16.3972417"><ele>554.0</ele><time>2026-04-09T09:34:29.23Z</time></trkpt><trkpt lat="38.4194817" lon="16.39727"><ele>554.0</ele><time>2026-04-09T09:34:30.23Z</time></trkpt><trkpt lat="38.419575" lon="16.3973017"><ele>554.0</ele><time>2026-04-09T09:34:31.23Z</time></trkpt><trkpt lat="38.4196667" lon="16.3973333"><ele>554.0</ele><time>2026-04-09T09:34:32.23Z</time></trkpt><trkpt lat="38.4197617" lon="16.3973733"><ele>554.0</ele><time>2026-04-09T09:34:33.23Z</time></trkpt><trkpt lat="38.4198517" lon="16.39742"><ele>558.0</ele><time>2026-04-09T09:34:34.23Z</time></trkpt><trkpt lat="38.41994" lon="16.397485"><ele>562.0</ele><time>2026-04-09T09:34:35.23Z</time></trkpt><trkpt lat="38.4200233" lon="16.3975583"><ele>566.0</ele><time>2026-04-09T09:34:36.23Z</time></trkpt><trkpt lat="38.420105" lon="16.3976417"><ele>570.0</ele><time>2026-04-09T09:34:37.23Z</time></trkpt><trkpt lat="38.4201783" lon="16.39772"><ele>574.0</ele><time>2026-04-09T09:34:38.23Z</time></trkpt><trkpt lat="38.42026" lon="16.3978033"><ele>574.0</ele><time>2026-04-09T09:34:39.23Z</time></trkpt><trkpt lat="38.4203483" lon="16.397875"><ele>574.0</ele><time>2026-04-09T09:34:40.23Z</time></trkpt><trkpt lat="38.42044" lon="16.3979383"><ele>574.0</ele><time>2026-04-09T09:34:41.23Z</time></trkpt><trkpt lat="38.42053" lon="16.39799"><ele>574.0</ele><time>2026-04-09T09:34:42.23Z</time></trkpt><trkpt lat="38.4206217" lon="16.398035"><ele>574.0</ele><time>2026-04-09T09:34:43.23Z</time></trkpt><trkpt lat="38.420785" lon="16.3981267"><ele>575.6666666666667</ele><time>2026-04-09T09:34:45.23Z</time></trkpt><trkpt lat="38.4209333" lon="16.39825"><ele>577.3333333333334</ele><time>2026-04-09T09:34:47.23Z</time></trkpt><trkpt lat="38.4210783" lon="16.3983733"><ele>579.0</ele><time>2026-04-09T09:34:49.23Z</time></trkpt><trkpt lat="38.4212333" lon="16.3985317"><ele>579.0</ele><time>2026-04-09T09:34:51.229Z</time></trkpt><trkpt lat="38.4213117" lon="16.39862"><ele>579.0</ele><time>2026-04-09T09:34:52.23Z</time></trkpt><trkpt lat="38.4213917" lon="16.3986933"><ele>579.0</ele><time>2026-04-09T09:34:53.229Z</time></trkpt><trkpt lat="38.4214683" lon="16.3987883"><ele>579.0</ele><time>2026-04-09T09:34:54.23Z</time></trkpt><trkpt lat="38.4215417" lon="16.3988883"><ele>579.0</ele><time>2026-04-09T09:34:55.23Z</time></trkpt><trkpt lat="38.4216067" lon="16.3990083"><ele>579.5</ele><time>2026-04-09T09:34:56.23Z</time></trkpt><trkpt lat="38.4216683" lon="16.399125"><ele>580.0</ele><time>2026-04-09T09:34:57.23Z</time></trkpt><trkpt lat="38.4217283" lon="16.3992567"><ele>580.5</ele><time>2026-04-09T09:34:58.23Z</time></trkpt><trkpt lat="38.4217933" lon="16.3993933"><ele>581.0</ele><time>2026-04-09T09:34:59.23Z</time></trkpt><trkpt lat="38.42186" lon="16.3995333"><ele>581.0</ele><time>2026-04-09T09:35:00.23Z</time></trkpt><trkpt lat="38.4219283" lon="16.399665"><ele>581.0</ele><time>2026-04-09T09:35:01.23Z</time></trkpt><trkpt lat="38.4219983" lon="16.3997917"><ele>581.0</ele><time>2026-04-09T09:35:02.23Z</time></trkpt><trkpt lat="38.422075" lon="16.3999117"><ele>581.0</ele><time>2026-04-09T09:35:03.23Z</time></trkpt><trkpt lat="38.4221517" lon="16.40003"><ele>583.2</ele><time>2026-04-09T09:35:04.229Z</time></trkpt><trkpt lat="38.42223" lon="16.4001367"><ele>585.4000000000001</ele><time>2026-04-09T09:35:05.23Z</time></trkpt><trkpt lat="38.4223017" lon="16.4002517"><ele>587.6</ele><time>2026-04-09T09:35:06.23Z</time></trkpt><trkpt lat="38.4223617" lon="16.40037"><ele>589.8000000000001</ele><time>2026-04-09T09:35:07.23Z</time></trkpt><trkpt lat="38.4223917" lon="16.4004933"><ele>592.0</ele><time>2026-04-09T09:35:08.23Z</time></trkpt><trkpt lat="38.4224117" lon="16.4006217"><ele>594.6</ele><time>2026-04-09T09:35:09.23Z</time></trkpt><trkpt lat="38.4224083" lon="16.4007517"><ele>597.2</ele><time>2026-04-09T09:35:10.229Z</time></trkpt><trkpt lat="38.42238" lon="16.40089"><ele>599.8</ele><time>2026-04-09T09:35:11.23Z</time></trkpt><trkpt lat="38.422355" lon="16.4010317"><ele>602.4</ele><time>2026-04-09T09:35:12.23Z</time></trkpt><trkpt lat="38.4223283" lon="16.4011817"><ele>605.0</ele><time>2026-04-09T09:35:13.23Z</time></trkpt><trkpt lat="38.4222983" lon="16.40133"><ele>608.75</ele><time>2026-04-09T09:35:14.23Z</time></trkpt><trkpt lat="38.422265" lon="16.4014817"><ele>612.5</ele><time>2026-04-09T09:35:15.23Z</time></trkpt><trkpt lat="38.4222367" lon="16.40163"><ele>616.25</ele><time>2026-04-09T09:35:16.23Z</time></trkpt><trkpt lat="38.4222267" lon="16.4017867"><ele>620.0</ele><time>2026-04-09T09:35:17.23Z</time></trkpt><trkpt lat="38.4222317" lon="16.4019533"><ele>620.0</ele><time>2026-04-09T09:35:18.23Z</time></trkpt><trkpt lat="38.42225" lon="16.4021167"><ele>620.0</ele><time>2026-04-09T09:35:19.23Z</time></trkpt><trkpt lat="38.422275" lon="16.4022833"><ele>620.0</ele><time>2026-04-09T09:35:20.23Z</time></trkpt><trkpt lat="38.422295" lon="16.4024633"><ele>620.0</ele><time>2026-04-09T09:35:21.23Z</time></trkpt><trkpt lat="38.4223" lon="16.40264"><ele>620.75</ele><time>2026-04-09T09:35:22.23Z</time></trkpt><trkpt lat="38.422275" lon="16.40281"><ele>621.5</ele><time>2026-04-09T09:35:23.23Z</time></trkpt><trkpt lat="38.4222617" lon="16.4029683"><ele>622.25</ele><time>2026-04-09T09:35:24.23Z</time></trkpt><trkpt lat="38.422245" lon="16.40311"><ele>623.0</ele><time>2026-04-09T09:35:25.23Z</time></trkpt><trkpt lat="38.4222367" lon="16.403225"><ele>623.0</ele><time>2026-04-09T09:35:26.23Z</time></trkpt><trkpt lat="38.4222733" lon="16.4033183"><ele>623.0</ele><time>2026-04-09T09:35:27.23Z</time></trkpt><trkpt lat="38.42233" lon="16.40339"><ele>623.0</ele><time>2026-04-09T09:35:28.229Z</time></trkpt><trkpt lat="38.42241" lon="16.4034083"><ele>623.0</ele><time>2026-04-09T09:35:29.23Z</time></trkpt><trkpt lat="38.4224967" lon="16.4033667"><ele>623.0</ele><time>2026-04-09T09:35:30.23Z</time></trkpt><trkpt lat="38.4225833" lon="16.4032867"><ele>623.0</ele><time>2026-04-09T09:35:31.23Z</time></trkpt><trkpt lat="38.4226717" lon="16.4032033"><ele>623.0</ele><time>2026-04-09T09:35:32.23Z</time></trkpt><trkpt lat="38.4227617" lon="16.4031367"><ele>623.0</ele><time>2026-04-09T09:35:33.23Z</time></trkpt><trkpt lat="38.4228283" lon="16.40313"><ele>623.0</ele><time>2026-04-09T09:35:34.229Z</time></trkpt><trkpt lat="38.42289" lon="16.4031567"><ele>623.0</ele><time>2026-04-09T09:35:35.23Z</time></trkpt><trkpt lat="38.42295" lon="16.4032867"><ele>623.0</ele><time>2026-04-09T09:35:37.23Z</time></trkpt><trkpt lat="38.4229283" lon="16.4034067"><ele>623.0</ele><time>2026-04-09T09:35:38.23Z</time></trkpt><trkpt lat="38.4229017" lon="16.4035383"><ele>623.0</ele><time>2026-04-09T09:35:39.23Z</time></trkpt><trkpt lat="38.4228767" lon="16.4036833"><ele>623.0</ele><time>2026-04-09T09:35:40.23Z</time></trkpt><trkpt lat="38.4228717" lon="16.4038267"><ele>623.0</ele><time>2026-04-09T09:35:41.23Z</time></trkpt><trkpt lat="38.42287" lon="16.4039567"><ele>623.0</ele><time>2026-04-09T09:35:42.23Z</time></trkpt><trkpt lat="38.4228833" lon="16.40407"><ele>622.3333333333333</ele><time>2026-04-09T09:35:43.23Z</time></trkpt><trkpt lat="38.4229167" lon="16.40418"><ele>621.6666666666666</ele><time>2026-04-09T09:35:44.23Z</time></trkpt><trkpt lat="38.4229667" lon="16.4042783"><ele>621.0</ele><time>2026-04-09T09:35:45.23Z</time></trkpt><trkpt lat="38.4230167" lon="16.4043683"><ele>620.3333333333334</ele><time>2026-04-09T09:35:46.23Z</time></trkpt><trkpt lat="38.4230717" lon="16.404455"><ele>619.6666666666667</ele><time>2026-04-09T09:35:47.23Z</time></trkpt><trkpt lat="38.4231183" lon="16.4045417"><ele>619.0</ele><time>2026-04-09T09:35:48.23Z</time></trkpt><trkpt lat="38.4231533" lon="16.4046383"><ele>623.1666666666667</ele><time>2026-04-09T09:35:49.23Z</time></trkpt><trkpt lat="38.4231633" lon="16.40474"><ele>627.3333333333334</ele><time>2026-04-09T09:35:50.23Z</time></trkpt><trkpt lat="38.4231517" lon="16.40483"><ele>631.5</ele><time>2026-04-09T09:35:51.23Z</time></trkpt><trkpt lat="38.4231183" lon="16.4049417"><ele>635.6666666666666</ele><time>2026-04-09T09:35:52.23Z</time></trkpt><trkpt lat="38.4230867" lon="16.4050533"><ele>639.8333333333333</ele><time>2026-04-09T09:35:53.23Z</time></trkpt><trkpt lat="38.4230617" lon="16.4051667"><ele>644.0</ele><time>2026-04-09T09:35:54.23Z</time></trkpt><trkpt lat="38.423045" lon="16.40528"><ele>644.0</ele><time>2026-04-09T09:35:55.23Z</time></trkpt><trkpt lat="38.4230517" lon="16.405405"><ele>644.0</ele><time>2026-04-09T09:35:56.23Z</time></trkpt><trkpt lat="38.4230867" lon="16.405535"><ele>644.0</ele><time>2026-04-09T09:35:57.23Z</time></trkpt><trkpt lat="38.423125" lon="16.40567"><ele>644.0</ele><time>2026-04-09T09:35:58.23Z</time></trkpt><trkpt lat="38.42315" lon="16.4057967"><ele>644.0</ele><time>2026-04-09T09:35:59.23Z</time></trkpt><trkpt lat="38.4231733" lon="16.4059317"><ele>643.8000000000001</ele><time>2026-04-09T09:36:00.23Z</time></trkpt><trkpt lat="38.4232017" lon="16.4060583"><ele>643.6</ele><time>2026-04-09T09:36:01.23Z</time></trkpt><trkpt lat="38.423235" lon="16.406175"><ele>643.4</ele><time>2026-04-09T09:36:02.23Z</time></trkpt><trkpt lat="38.4232533" lon="16.40628"><ele>643.2</ele><time>2026-04-09T09:36:03.23Z</time></trkpt><trkpt lat="38.4232767" lon="16.4063883"><ele>643.0</ele><time>2026-04-09T09:36:04.23Z</time></trkpt><trkpt lat="38.4233117" lon="16.406485"><ele>642.0</ele><time>2026-04-09T09:36:05.23Z</time></trkpt><trkpt lat="38.4233617" lon="16.40658"><ele>641.0</ele><time>2026-04-09T09:36:06.23Z</time></trkpt><trkpt lat="38.423425" lon="16.4066583"><ele>640.0</ele><time>2026-04-09T09:36:07.23Z</time></trkpt><trkpt lat="38.4235067" lon="16.40671"><ele>639.0</ele><time>2026-04-09T09:36:08.229Z</time></trkpt><trkpt lat="38.4236033" lon="16.4067367"><ele>638.0</ele><time>2026-04-09T09:36:09.23Z</time></trkpt><trkpt lat="38.4236967" lon="16.4067433"><ele>638.0</ele><time>2026-04-09T09:36:10.23Z</time></trkpt><trkpt lat="38.4237983" lon="16.40674"><ele>638.0</ele><time>2026-04-09T09:36:11.23Z</time></trkpt><trkpt lat="38.4239067" lon="16.4067367"><ele>638.0</ele><time>2026-04-09T09:36:12.23Z</time></trkpt><trkpt lat="38.4240167" lon="16.4067383"><ele>638.0</ele><time>2026-04-09T09:36:13.23Z</time></trkpt><trkpt lat="38.4241367" lon="16.406735"><ele>638.0</ele><time>2026-04-09T09:36:14.23Z</time></trkpt><trkpt lat="38.4242517" lon="16.4067333"><ele>638.8</ele><time>2026-04-09T09:36:15.23Z</time></trkpt><trkpt lat="38.424365" lon="16.4067383"><ele>639.5999999999999</ele><time>2026-04-09T09:36:16.23Z</time></trkpt><trkpt lat="38.4244683" lon="16.4067467"><ele>640.4000000000001</ele><time>2026-04-09T09:36:17.23Z</time></trkpt><trkpt lat="38.4245783" lon="16.4067467"><ele>641.2</ele><time>2026-04-09T09:36:18.23Z</time></trkpt><trkpt lat="38.4246817" lon="16.4067467"><ele>642.0</ele><time>2026-04-09T09:36:19.23Z</time></trkpt><trkpt lat="38.42478" lon="16.406735"><ele>642.0</ele><time>2026-04-09T09:36:20.23Z</time></trkpt><trkpt lat="38.42487" lon="16.4067017"><ele>642.0</ele><time>2026-04-09T09:36:21.229Z</time></trkpt><trkpt lat="38.4249617" lon="16.40666"><ele>642.0</ele><time>2026-04-09T09:36:22.23Z</time></trkpt><trkpt lat="38.425045" lon="16.4065933"><ele>642.0</ele><time>2026-04-09T09:36:23.229Z</time></trkpt><trkpt lat="38.4251267" lon="16.406525"><ele>642.0</ele><time>2026-04-09T09:36:24.23Z</time></trkpt><trkpt lat="38.4252133" lon="16.40646"><ele>642.0</ele><time>2026-04-09T09:36:25.23Z</time></trkpt><trkpt lat="38.4254117" lon="16.4063317"><ele>642.0</ele><time>2026-04-09T09:36:27.23Z</time></trkpt><trkpt lat="38.4256233" lon="16.406185"><ele>644.6666666666666</ele><time>2026-04-09T09:36:29.23Z</time></trkpt><trkpt lat="38.4257333" lon="16.4060967"><ele>647.3333333333333</ele><time>2026-04-09T09:36:30.229Z</time></trkpt><trkpt lat="38.4259933" lon="16.40593"><ele>650.0</ele><time>2026-04-09T09:36:32.23Z</time></trkpt><trkpt lat="38.4261317" lon="16.40584"><ele>650.0</ele><time>2026-04-09T09:36:33.23Z</time></trkpt><trkpt lat="38.4262667" lon="16.4057417"><ele>650.0</ele><time>2026-04-09T09:36:34.23Z</time></trkpt><trkpt lat="38.4263933" lon="16.40563"><ele>650.0</ele><time>2026-04-09T09:36:35.23Z</time></trkpt><trkpt lat="38.4265217" lon="16.4055133"><ele>649.6666666666666</ele><time>2026-04-09T09:36:36.23Z</time></trkpt><trkpt lat="38.4267417" lon="16.40529"><ele>649.3333333333334</ele><time>2026-04-09T09:36:38.23Z</time></trkpt><trkpt lat="38.4268367" lon="16.4051967"><ele>649.0</ele><time>2026-04-09T09:36:39.23Z</time></trkpt><trkpt lat="38.4269183" lon="16.4051117"><ele>649.0</ele><time>2026-04-09T09:36:40.229Z</time></trkpt><trkpt lat="38.42699" lon="16.4050317"><ele>649.0</ele><time>2026-04-09T09:36:41.23Z</time></trkpt><trkpt lat="38.4270617" lon="16.4049533"><ele>649.0</ele><time>2026-04-09T09:36:42.23Z</time></trkpt><trkpt lat="38.4271383" lon="16.4048717"><ele>649.0</ele><time>2026-04-09T09:36:43.23Z</time></trkpt><trkpt lat="38.4272267" lon="16.4047833"><ele>649.0</ele><time>2026-04-09T09:36:44.23Z</time></trkpt><trkpt lat="38.427395" lon="16.4046233"><ele>647.0</ele><time>2026-04-09T09:36:46.23Z</time></trkpt><trkpt lat="38.427475" lon="16.4045483"><ele>645.0</ele><time>2026-04-09T09:36:47.23Z</time></trkpt><trkpt lat="38.42756" lon="16.4044833"><ele>643.0</ele><time>2026-04-09T09:36:48.23Z</time></trkpt><trkpt lat="38.4276417" lon="16.4044317"><ele>641.0</ele><time>2026-04-09T09:36:49.23Z</time></trkpt><trkpt lat="38.427715" lon="16.4043933"><ele>639.0</ele><time>2026-04-09T09:36:50.229Z</time></trkpt><trkpt lat="38.4277867" lon="16.4043683"><ele>637.0</ele><time>2026-04-09T09:36:51.23Z</time></trkpt><trkpt lat="38.4279467" lon="16.404355"><ele>635.2</ele><time>2026-04-09T09:36:55.23Z</time></trkpt><trkpt lat="38.42802" lon="16.4043717"><ele>633.4000000000001</ele><time>2026-04-09T09:36:57.229Z</time></trkpt><trkpt lat="38.428135" lon="16.404415"><ele>631.5999999999999</ele><time>2026-04-09T09:36:59.23Z</time></trkpt><trkpt lat="38.4282167" lon="16.40446"><ele>629.8</ele><time>2026-04-09T09:37:00.23Z</time></trkpt><trkpt lat="38.4283067" lon="16.4045067"><ele>628.0</ele><time>2026-04-09T09:37:01.23Z</time></trkpt><trkpt lat="38.4283983" lon="16.4045533"><ele>628.0</ele><time>2026-04-09T09:37:02.23Z</time></trkpt><trkpt lat="38.4285133" lon="16.4045933"><ele>628.0</ele><time>2026-04-09T09:37:03.23Z</time></trkpt><trkpt lat="38.4286317" lon="16.404615"><ele>628.0</ele><time>2026-04-09T09:37:04.229Z</time></trkpt><trkpt lat="38.4287517" lon="16.4046217"><ele>628.0</ele><time>2026-04-09T09:37:05.229Z</time></trkpt><trkpt lat="38.4288767" lon="16.404615"><ele>623.5</ele><time>2026-04-09T09:37:06.23Z</time></trkpt><trkpt lat="38.4290017" lon="16.4046133"><ele>619.0</ele><time>2026-04-09T09:37:07.23Z</time></trkpt><trkpt lat="38.42913" lon="16.4046133"><ele>614.5</ele><time>2026-04-09T09:37:08.23Z</time></trkpt><trkpt lat="38.429245" lon="16.404625"><ele>610.0</ele><time>2026-04-09T09:37:09.23Z</time></trkpt><trkpt lat="38.4293517" lon="16.4046617"><ele>613.1666666666667</ele><time>2026-04-09T09:37:10.229Z</time></trkpt><trkpt lat="38.4294567" lon="16.4046983"><ele>616.3333333333334</ele><time>2026-04-09T09:37:11.23Z</time></trkpt><trkpt lat="38.4295433" lon="16.4047267"><ele>619.5</ele><time>2026-04-09T09:37:12.23Z</time></trkpt><trkpt lat="38.4296183" lon="16.4047667"><ele>622.6666666666666</ele><time>2026-04-09T09:37:13.229Z</time></trkpt><trkpt lat="38.4296833" lon="16.4048133"><ele>625.8333333333333</ele><time>2026-04-09T09:37:14.229Z</time></trkpt><trkpt lat="38.429745" lon="16.40486"><ele>629.0</ele><time>2026-04-09T09:37:15.23Z</time></trkpt><trkpt lat="38.4298083" lon="16.4049017"><ele>629.0</ele><time>2026-04-09T09:37:16.23Z</time></trkpt><trkpt lat="38.4299133" lon="16.404965"><ele>629.0</ele><time>2026-04-09T09:37:18.23Z</time></trkpt><trkpt lat="38.4299967" lon="16.4050233"><ele>629.0</ele><time>2026-04-09T09:37:20.23Z</time></trkpt><trkpt lat="38.4300767" lon="16.4050533"><ele>629.0</ele><time>2026-04-09T09:37:23.23Z</time></trkpt><trkpt lat="38.430145" lon="16.4050817"><ele>629.0</ele><time>2026-04-09T09:37:26.23Z</time></trkpt><trkpt lat="38.430225" lon="16.4050967"><ele>629.0</ele><time>2026-04-09T09:37:45.23Z</time></trkpt><trkpt lat="38.4302933" lon="16.4051167"><ele>629.0</ele><time>2026-04-09T09:37:47.23Z</time></trkpt><trkpt lat="38.4303617" lon="16.4051533"><ele>629.0</ele><time>2026-04-09T09:37:49.23Z</time></trkpt><trkpt lat="38.4304367" lon="16.40519"><ele>629.0</ele><time>2026-04-09T09:38:07.23Z</time></trkpt><trkpt lat="38.4305133" lon="16.40521"><ele>629.0</ele><time>2026-04-09T09:38:10.23Z</time></trkpt><trkpt lat="38.430595" lon="16.4052267"><ele>629.0</ele><time>2026-04-09T09:38:12.23Z</time></trkpt><trkpt lat="38.4306767" lon="16.4052533"><ele>629.0</ele><time>2026-04-09T09:38:14.23Z</time></trkpt><trkpt lat="38.43076" lon="16.4052867"><ele>627.3333333333333</ele><time>2026-04-09T09:38:16.229Z</time></trkpt><trkpt lat="38.430845" lon="16.4053317"><ele>625.6666666666666</ele><time>2026-04-09T09:38:19.23Z</time></trkpt><trkpt lat="38.4309117" lon="16.4053717"><ele>624.0</ele><time>2026-04-09T09:38:37.23Z</time></trkpt><trkpt lat="38.4309817" lon="16.4053767"><ele>622.3333333333334</ele><time>2026-04-09T09:38:39.23Z</time></trkpt><trkpt lat="38.4310667" lon="16.405375"><ele>620.6666666666667</ele><time>2026-04-09T09:38:42.23Z</time></trkpt><trkpt lat="38.431125" lon="16.4053183"><ele>619.0</ele><time>2026-04-09T09:38:44.23Z</time></trkpt><trkpt lat="38.431175" lon="16.40526"><ele>619.0</ele><time>2026-04-09T09:38:46.23Z</time></trkpt><trkpt lat="38.43122" lon="16.4052"><ele>619.0</ele><time>2026-04-09T09:38:49.23Z</time></trkpt><trkpt lat="38.4312817" lon="16.4050967"><ele>619.0</ele><time>2026-04-09T09:38:52.23Z</time></trkpt><trkpt lat="38.4313167" lon="16.4050083"><ele>619.0</ele><time>2026-04-09T09:38:54.23Z</time></trkpt><trkpt lat="38.4313633" lon="16.4049033"><ele>619.0</ele><time>2026-04-09T09:38:56.23Z</time></trkpt><trkpt lat="38.4314133" lon="16.4048017"><ele>619.0</ele><time>2026-04-09T09:38:58.23Z</time></trkpt><trkpt lat="38.4314717" lon="16.4047"><ele>614.8333333333334</ele><time>2026-04-09T09:39:00.23Z</time></trkpt><trkpt lat="38.43157" lon="16.40462"><ele>610.6666666666667</ele><time>2026-04-09T09:39:02.229Z</time></trkpt><trkpt lat="38.4316367" lon="16.4045733"><ele>606.5</ele><time>2026-04-09T09:39:03.23Z</time></trkpt><trkpt lat="38.43171" lon="16.4045267"><ele>602.3333333333334</ele><time>2026-04-09T09:39:04.23Z</time></trkpt><trkpt lat="38.4317833" lon="16.4044883"><ele>598.1666666666666</ele><time>2026-04-09T09:39:05.23Z</time></trkpt><trkpt lat="38.4318517" lon="16.404455"><ele>594.0</ele><time>2026-04-09T09:39:06.229Z</time></trkpt><trkpt lat="38.43195" lon="16.4044267"><ele>594.0</ele><time>2026-04-09T09:39:08.23Z</time></trkpt><trkpt lat="38.4320383" lon="16.404415"><ele>594.0</ele><time>2026-04-09T09:39:10.23Z</time></trkpt><trkpt lat="38.4321433" lon="16.4044017"><ele>594.0</ele><time>2026-04-09T09:39:12.23Z</time></trkpt><trkpt lat="38.4322533" lon="16.4043867"><ele>594.0</ele><time>2026-04-09T09:39:14.23Z</time></trkpt><trkpt lat="38.4323567" lon="16.4043667"><ele>594.0</ele><time>2026-04-09T09:39:16.23Z</time></trkpt><trkpt lat="38.432425" lon="16.4043583"><ele>595.8333333333334</ele><time>2026-04-09T09:39:17.23Z</time></trkpt><trkpt lat="38.4324983" lon="16.4043367"><ele>597.6666666666666</ele><time>2026-04-09T09:39:18.23Z</time></trkpt><trkpt lat="38.4325783" lon="16.4043083"><ele>599.5</ele><time>2026-04-09T09:39:19.23Z</time></trkpt><trkpt lat="38.432655" lon="16.404285"><ele>601.3333333333333</ele><time>2026-04-09T09:39:20.23Z</time></trkpt><trkpt lat="38.4327283" lon="16.40426"><ele>603.1666666666666</ele><time>2026-04-09T09:39:21.23Z</time></trkpt><trkpt lat="38.4328" lon="16.4042283"><ele>605.0</ele><time>2026-04-09T09:39:22.23Z</time></trkpt><trkpt lat="38.43287" lon="16.4041883"><ele>605.0</ele><time>2026-04-09T09:39:23.23Z</time></trkpt><trkpt lat="38.4329683" lon="16.4041167"><ele>605.0</ele><time>2026-04-09T09:39:25.23Z</time></trkpt><trkpt lat="38.4330367" lon="16.4039983"><ele>605.0</ele><time>2026-04-09T09:39:27.229Z</time></trkpt><trkpt lat="38.43303" lon="16.403855"><ele>605.0</ele><time>2026-04-09T09:39:29.229Z</time></trkpt><trkpt lat="38.432935" lon="16.4037917"><ele>605.0</ele><time>2026-04-09T09:39:31.229Z</time></trkpt><trkpt lat="38.4328617" lon="16.403795"><ele>605.0</ele><time>2026-04-09T09:39:32.229Z</time></trkpt><trkpt lat="38.4327867" lon="16.4038133"><ele>605.0</ele><time>2026-04-09T09:39:33.229Z</time></trkpt><trkpt lat="38.4327117" lon="16.403825"><ele>605.0</ele><time>2026-04-09T09:39:34.229Z</time></trkpt><trkpt lat="38.4326367" lon="16.403835"><ele>605.0</ele><time>2026-04-09T09:39:35.229Z</time></trkpt><trkpt lat="38.432555" lon="16.403845"><ele>605.0</ele><time>2026-04-09T09:39:36.229Z</time></trkpt><trkpt lat="38.432475" lon="16.4038517"><ele>605.0</ele><time>2026-04-09T09:39:37.228Z</time></trkpt><trkpt lat="38.432385" lon="16.4038667"><ele>605.0</ele><time>2026-04-09T09:39:38.229Z</time></trkpt><trkpt lat="38.4322933" lon="16.40388"><ele>605.0</ele><time>2026-04-09T09:39:39.229Z</time></trkpt><trkpt lat="38.4321983" lon="16.403905"><ele>605.0</ele><time>2026-04-09T09:39:40.228Z</time></trkpt><trkpt lat="38.4321033" lon="16.403935"><ele>605.0</ele><time>2026-04-09T09:39:41.229Z</time></trkpt><trkpt lat="38.4320083" lon="16.40396"><ele>605.0</ele><time>2026-04-09T09:39:42.229Z</time></trkpt><trkpt lat="38.43192" lon="16.4039783"><ele>602.8</ele><time>2026-04-09T09:39:43.229Z</time></trkpt><trkpt lat="38.4318483" lon="16.4039933"><ele>600.6</ele><time>2026-04-09T09:39:44.229Z</time></trkpt><trkpt lat="38.43174" lon="16.403995"><ele>598.4</ele><time>2026-04-09T09:39:46.229Z</time></trkpt><trkpt lat="38.43168" lon="16.4039617"><ele>596.2</ele><time>2026-04-09T09:39:48.229Z</time></trkpt><trkpt lat="38.4317" lon="16.4038483"><ele>594.0</ele><time>2026-04-09T09:39:50.228Z</time></trkpt><trkpt lat="38.4317833" lon="16.4037383"><ele>591.0</ele><time>2026-04-09T09:39:52.229Z</time></trkpt><trkpt lat="38.4318533" lon="16.4037083"><ele>588.0</ele><time>2026-04-09T09:39:53.229Z</time></trkpt><trkpt lat="38.431935" lon="16.4036833"><ele>585.0</ele><time>2026-04-09T09:39:54.229Z</time></trkpt><trkpt lat="38.43201" lon="16.403665"><ele>582.0</ele><time>2026-04-09T09:39:55.229Z</time></trkpt><trkpt lat="38.4320767" lon="16.4036533"><ele>579.0</ele><time>2026-04-09T09:39:56.229Z</time></trkpt><trkpt lat="38.43214" lon="16.4036283"><ele>576.0</ele><time>2026-04-09T09:39:57.229Z</time></trkpt><trkpt lat="38.4322017" lon="16.4036033"><ele>573.0</ele><time>2026-04-09T09:39:58.228Z</time></trkpt><trkpt lat="38.4322633" lon="16.4035733"><ele>573.0</ele><time>2026-04-09T09:39:59.229Z</time></trkpt><trkpt lat="38.4323267" lon="16.4035467"><ele>573.0</ele><time>2026-04-09T09:40:00.229Z</time></trkpt><trkpt lat="38.4323867" lon="16.4035217"><ele>573.0</ele><time>2026-04-09T09:40:01.229Z</time></trkpt><trkpt lat="38.4324867" lon="16.4034683"><ele>573.0</ele><time>2026-04-09T09:40:03.229Z</time></trkpt><trkpt lat="38.4325783" lon="16.4034083"><ele>573.0</ele><time>2026-04-09T09:40:05.229Z</time></trkpt><trkpt lat="38.4326767" lon="16.40334"><ele>573.0</ele><time>2026-04-09T09:40:07.229Z</time></trkpt><trkpt lat="38.4327333" lon="16.403295"><ele>573.0</ele><time>2026-04-09T09:40:08.229Z</time></trkpt><trkpt lat="38.43279" lon="16.40325"><ele>573.0</ele><time>2026-04-09T09:40:09.229Z</time></trkpt><trkpt lat="38.432845" lon="16.4032067"><ele>573.0</ele><time>2026-04-09T09:40:10.229Z</time></trkpt><trkpt lat="38.432955" lon="16.403115"><ele>573.0</ele><time>2026-04-09T09:40:12.229Z</time></trkpt><trkpt lat="38.4330133" lon="16.4030633"><ele>573.0</ele><time>2026-04-09T09:40:13.229Z</time></trkpt><trkpt lat="38.4331217" lon="16.4030583"><ele>571.6</ele><time>2026-04-09T09:40:15.229Z</time></trkpt><trkpt lat="38.43321" lon="16.403165"><ele>570.1999999999999</ele><time>2026-04-09T09:40:17.229Z</time></trkpt><trkpt lat="38.43325" lon="16.4032533"><ele>568.8</ele><time>2026-04-09T09:40:18.229Z</time></trkpt><trkpt lat="38.433285" lon="16.40336"><ele>567.4</ele><time>2026-04-09T09:40:19.228Z</time></trkpt><trkpt lat="38.4333233" lon="16.4034633"><ele>566.0</ele><time>2026-04-09T09:40:20.229Z</time></trkpt><trkpt lat="38.433365" lon="16.4035667"><ele>566.0</ele><time>2026-04-09T09:40:21.229Z</time></trkpt><trkpt lat="38.433415" lon="16.4036617"><ele>566.0</ele><time>2026-04-09T09:40:22.228Z</time></trkpt><trkpt lat="38.433465" lon="16.4037517"><ele>566.0</ele><time>2026-04-09T09:40:23.229Z</time></trkpt><trkpt lat="38.433515" lon="16.4038383"><ele>566.0</ele><time>2026-04-09T09:40:24.228Z</time></trkpt><trkpt lat="38.43357" lon="16.4039117"><ele>566.0</ele><time>2026-04-09T09:40:25.229Z</time></trkpt><trkpt lat="38.43367" lon="16.404005"><ele>567.1666666666666</ele><time>2026-04-09T09:40:27.228Z</time></trkpt><trkpt lat="38.433735" lon="16.4040283"><ele>568.3333333333333</ele><time>2026-04-09T09:40:28.229Z</time></trkpt><trkpt lat="38.4338067" lon="16.404045"><ele>569.5</ele><time>2026-04-09T09:40:29.229Z</time></trkpt><trkpt lat="38.4338783" lon="16.40405"><ele>570.6666666666666</ele><time>2026-04-09T09:40:30.228Z</time></trkpt><trkpt lat="38.4339583" lon="16.404025"><ele>571.8333333333334</ele><time>2026-04-09T09:40:31.229Z</time></trkpt><trkpt lat="38.434035" lon="16.4039783"><ele>573.0</ele><time>2026-04-09T09:40:32.229Z</time></trkpt><trkpt lat="38.4341133" lon="16.40392"><ele>573.0</ele><time>2026-04-09T09:40:33.229Z</time></trkpt><trkpt lat="38.4341867" lon="16.4038517"><ele>573.0</ele><time>2026-04-09T09:40:34.229Z</time></trkpt><trkpt lat="38.434265" lon="16.4037883"><ele>573.0</ele><time>2026-04-09T09:40:35.228Z</time></trkpt><trkpt lat="38.4343483" lon="16.4037167"><ele>573.0</ele><time>2026-04-09T09:40:36.229Z</time></trkpt><trkpt lat="38.4344333" lon="16.4036467"><ele>573.0</ele><time>2026-04-09T09:40:37.229Z</time></trkpt><trkpt lat="38.434515" lon="16.4035983"><ele>568.0</ele><time>2026-04-09T09:40:38.229Z</time></trkpt><trkpt lat="38.4346067" lon="16.4035667"><ele>563.0</ele><time>2026-04-09T09:40:39.229Z</time></trkpt><trkpt lat="38.4346967" lon="16.4035517"><ele>558.0</ele><time>2026-04-09T09:40:40.229Z</time></trkpt><trkpt lat="38.4347817" lon="16.403545"><ele>553.0</ele><time>2026-04-09T09:40:41.229Z</time></trkpt><trkpt lat="38.4348667" lon="16.403535"><ele>548.0</ele><time>2026-04-09T09:40:42.229Z</time></trkpt><trkpt lat="38.434945" lon="16.4035417"><ele>543.0</ele><time>2026-04-09T09:40:43.229Z</time></trkpt><trkpt lat="38.4350167" lon="16.4035717"><ele>542.0</ele><time>2026-04-09T09:40:44.229Z</time></trkpt><trkpt lat="38.4350767" lon="16.403625"><ele>541.0</ele><time>2026-04-09T09:40:45.229Z</time></trkpt><trkpt lat="38.4351317" lon="16.403685"><ele>540.0</ele><time>2026-04-09T09:40:46.229Z</time></trkpt><trkpt lat="38.435195" lon="16.403745"><ele>539.0</ele><time>2026-04-09T09:40:47.229Z</time></trkpt><trkpt lat="38.4352617" lon="16.4038033"><ele>538.0</ele><time>2026-04-09T09:40:48.228Z</time></trkpt><trkpt lat="38.4353317" lon="16.403845"><ele>537.0</ele><time>2026-04-09T09:40:49.229Z</time></trkpt><trkpt lat="38.4353983" lon="16.403885"><ele>539.0</ele><time>2026-04-09T09:40:50.229Z</time></trkpt><trkpt lat="38.43547" lon="16.4038983"><ele>541.0</ele><time>2026-04-09T09:40:51.229Z</time></trkpt><trkpt lat="38.4355867" lon="16.4038933"><ele>543.0</ele><time>2026-04-09T09:40:53.229Z</time></trkpt><trkpt lat="38.4356733" lon="16.403895"><ele>545.0</ele><time>2026-04-09T09:40:55.229Z</time></trkpt><trkpt lat="38.4357433" lon="16.4038917"><ele>547.0</ele><time>2026-04-09T09:40:57.229Z</time></trkpt><trkpt lat="38.4358683" lon="16.4038733"><ele>547.0</ele><time>2026-04-09T09:41:52.229Z</time></trkpt><trkpt lat="38.4359667" lon="16.40386"><ele>547.0</ele><time>2026-04-09T09:41:55.228Z</time></trkpt><trkpt lat="38.4360533" lon="16.4038267"><ele>547.0</ele><time>2026-04-09T09:41:57.229Z</time></trkpt><trkpt lat="38.4361633" lon="16.4037767"><ele>547.0</ele><time>2026-04-09T09:41:59.228Z</time></trkpt><trkpt lat="38.4362867" lon="16.4037133"><ele>547.0</ele><time>2026-04-09T09:42:01.229Z</time></trkpt><trkpt lat="38.4363483" lon="16.4036733"><ele>543.5</ele><time>2026-04-09T09:42:02.229Z</time></trkpt><trkpt lat="38.436405" lon="16.403635"><ele>540.0</ele><time>2026-04-09T09:42:03.229Z</time></trkpt><trkpt lat="38.4364967" lon="16.4035667"><ele>536.5</ele><time>2026-04-09T09:42:05.229Z</time></trkpt><trkpt lat="38.4365483" lon="16.4035167"><ele>533.0</ele><time>2026-04-09T09:42:07.229Z</time></trkpt><trkpt lat="38.4366183" lon="16.40339"><ele>529.5</ele><time>2026-04-09T09:42:18.229Z</time></trkpt><trkpt lat="38.4366533" lon="16.4033033"><ele>526.0</ele><time>2026-04-09T09:42:19.229Z</time></trkpt><trkpt lat="38.4366833" lon="16.4032117"><ele>526.0</ele><time>2026-04-09T09:42:20.228Z</time></trkpt><trkpt lat="38.436705" lon="16.4031067"><ele>526.0</ele><time>2026-04-09T09:42:21.229Z</time></trkpt><trkpt lat="38.4367217" lon="16.4029983"><ele>526.0</ele><time>2026-04-09T09:42:22.229Z</time></trkpt><trkpt lat="38.4367467" lon="16.40289"><ele>526.0</ele><time>2026-04-09T09:42:23.228Z</time></trkpt><trkpt lat="38.4367783" lon="16.40279"><ele>526.0</ele><time>2026-04-09T09:42:24.229Z</time></trkpt><trkpt lat="38.4368317" lon="16.4027133"><ele>526.0</ele><time>2026-04-09T09:42:25.229Z</time></trkpt><trkpt lat="38.436895" lon="16.40265"><ele>526.8</ele><time>2026-04-09T09:42:26.229Z</time></trkpt><trkpt lat="38.436975" lon="16.4026"><ele>527.6</ele><time>2026-04-09T09:42:27.229Z</time></trkpt><trkpt lat="38.4370483" lon="16.402545"><ele>528.4</ele><time>2026-04-09T09:42:28.229Z</time></trkpt><trkpt lat="38.4371267" lon="16.4024783"><ele>529.2</ele><time>2026-04-09T09:42:29.229Z</time></trkpt><trkpt lat="38.437195" lon="16.4023883"><ele>530.0</ele><time>2026-04-09T09:42:30.229Z</time></trkpt><trkpt lat="38.4372633" lon="16.4022933"><ele>530.0</ele><time>2026-04-09T09:42:31.229Z</time></trkpt><trkpt lat="38.437325" lon="16.4022033"><ele>530.0</ele><time>2026-04-09T09:42:32.229Z</time></trkpt><trkpt lat="38.4373783" lon="16.4021183"><ele>530.0</ele><time>2026-04-09T09:42:33.229Z</time></trkpt><trkpt lat="38.4374383" lon="16.40204"><ele>530.0</ele><time>2026-04-09T09:42:34.229Z</time></trkpt><trkpt lat="38.437475" lon="16.4019633"><ele>530.0</ele><time>2026-04-09T09:42:35.228Z</time></trkpt><trkpt lat="38.4375267" lon="16.401885"><ele>530.0</ele><time>2026-04-09T09:42:36.229Z</time></trkpt><trkpt lat="38.4375883" lon="16.4018033"><ele>530.2</ele><time>2026-04-09T09:42:37.229Z</time></trkpt><trkpt lat="38.4376533" lon="16.4017267"><ele>530.4</ele><time>2026-04-09T09:42:38.229Z</time></trkpt><trkpt lat="38.437705" lon="16.4016433"><ele>530.6</ele><time>2026-04-09T09:42:39.229Z</time></trkpt><trkpt lat="38.4377683" lon="16.4015567"><ele>530.8</ele><time>2026-04-09T09:42:40.229Z</time></trkpt><trkpt lat="38.4378283" lon="16.4014667"><ele>531.0</ele><time>2026-04-09T09:42:41.229Z</time></trkpt><trkpt lat="38.4378967" lon="16.40137"><ele>532.8</ele><time>2026-04-09T09:42:42.229Z</time></trkpt><trkpt lat="38.4379667" lon="16.4012633"><ele>534.6</ele><time>2026-04-09T09:42:43.229Z</time></trkpt><trkpt lat="38.438035" lon="16.4011567"><ele>536.4</ele><time>2026-04-09T09:42:44.229Z</time></trkpt><trkpt lat="38.4381083" lon="16.4010517"><ele>538.2</ele><time>2026-04-09T09:42:45.229Z</time></trkpt><trkpt lat="38.4381883" lon="16.4009617"><ele>540.0</ele><time>2026-04-09T09:42:46.229Z</time></trkpt><trkpt lat="38.4382783" lon="16.40088"><ele>540.0</ele><time>2026-04-09T09:42:47.229Z</time></trkpt><trkpt lat="38.4383683" lon="16.4008067"><ele>540.0</ele><time>2026-04-09T09:42:48.229Z</time></trkpt><trkpt lat="38.4384733" lon="16.40074"><ele>540.0</ele><time>2026-04-09T09:42:49.229Z</time></trkpt><trkpt lat="38.4385733" lon="16.4006667"><ele>540.0</ele><time>2026-04-09T09:42:50.229Z</time></trkpt><trkpt lat="38.4386783" lon="16.4005733"><ele>540.2</ele><time>2026-04-09T09:42:51.229Z</time></trkpt><trkpt lat="38.4387783" lon="16.4004783"><ele>540.4</ele><time>2026-04-09T09:42:52.228Z</time></trkpt><trkpt lat="38.43887" lon="16.4003867"><ele>540.6</ele><time>2026-04-09T09:42:53.229Z</time></trkpt><trkpt lat="38.4389533" lon="16.4003083"><ele>540.8</ele><time>2026-04-09T09:42:54.229Z</time></trkpt><trkpt lat="38.4390333" lon="16.4002383"><ele>541.0</ele><time>2026-04-09T09:42:55.229Z</time></trkpt><trkpt lat="38.4391067" lon="16.4001717"><ele>541.0</ele><time>2026-04-09T09:42:56.229Z</time></trkpt><trkpt lat="38.4391883" lon="16.400085"><ele>541.0</ele><time>2026-04-09T09:42:57.228Z</time></trkpt><trkpt lat="38.4392683" lon="16.3999867"><ele>541.0</ele><time>2026-04-09T09:42:58.229Z</time></trkpt><trkpt lat="38.4393317" lon="16.39988"><ele>541.0</ele><time>2026-04-09T09:42:59.229Z</time></trkpt><trkpt lat="38.43938" lon="16.3997667"><ele>541.0</ele><time>2026-04-09T09:43:00.229Z</time></trkpt><trkpt lat="38.4394233" lon="16.3996367"><ele>542.8</ele><time>2026-04-09T09:43:01.229Z</time></trkpt><trkpt lat="38.4394433" lon="16.3995067"><ele>544.6</ele><time>2026-04-09T09:43:02.229Z</time></trkpt><trkpt lat="38.439425" lon="16.3993717"><ele>546.4</ele><time>2026-04-09T09:43:03.228Z</time></trkpt><trkpt lat="38.43938" lon="16.399255"><ele>548.2</ele><time>2026-04-09T09:43:04.229Z</time></trkpt><trkpt lat="38.43934" lon="16.3991433"><ele>550.0</ele><time>2026-04-09T09:43:05.229Z</time></trkpt><trkpt lat="38.439315" lon="16.399035"><ele>550.0</ele><time>2026-04-09T09:43:06.229Z</time></trkpt><trkpt lat="38.4393017" lon="16.398915"><ele>550.0</ele><time>2026-04-09T09:43:07.229Z</time></trkpt><trkpt lat="38.4392917" lon="16.39881"><ele>550.0</ele><time>2026-04-09T09:43:08.229Z</time></trkpt><trkpt lat="38.4392833" lon="16.3987117"><ele>550.0</ele><time>2026-04-09T09:43:09.229Z</time></trkpt><trkpt lat="38.439275" lon="16.3986267"><ele>550.0</ele><time>2026-04-09T09:43:10.229Z</time></trkpt><trkpt lat="38.4392983" lon="16.3984933"><ele>550.0</ele><time>2026-04-09T09:43:12.229Z</time></trkpt><trkpt lat="38.4393717" lon="16.3984783"><ele>550.0</ele><time>2026-04-09T09:43:14.229Z</time></trkpt><trkpt lat="38.43944" lon="16.39862"><ele>550.0</ele><time>2026-04-09T09:43:16.229Z</time></trkpt><trkpt lat="38.43946" lon="16.3987267"><ele>550.0</ele><time>2026-04-09T09:43:17.229Z</time></trkpt><trkpt lat="38.439475" lon="16.3988333"><ele>550.0</ele><time>2026-04-09T09:43:18.229Z</time></trkpt><trkpt lat="38.439495" lon="16.3989367"><ele>550.0</ele><time>2026-04-09T09:43:19.229Z</time></trkpt><trkpt lat="38.4395233" lon="16.3990117"><ele>550.0</ele><time>2026-04-09T09:43:20.229Z</time></trkpt><trkpt lat="38.439625" lon="16.3990883"><ele>550.0</ele><time>2026-04-09T09:43:22.229Z</time></trkpt><trkpt lat="38.4396917" lon="16.3990867"><ele>550.0</ele><time>2026-04-09T09:43:23.229Z</time></trkpt><trkpt lat="38.43976" lon="16.3990533"><ele>550.0</ele><time>2026-04-09T09:43:24.229Z</time></trkpt><trkpt lat="38.4398283" lon="16.399005"><ele>550.0</ele><time>2026-04-09T09:43:25.229Z</time></trkpt><trkpt lat="38.4398783" lon="16.3989433"><ele>550.0</ele><time>2026-04-09T09:43:26.229Z</time></trkpt><trkpt lat="38.439895" lon="16.398865"><ele>553.1666666666667</ele><time>2026-04-09T09:43:27.229Z</time></trkpt><trkpt lat="38.4398967" lon="16.3987833"><ele>556.3333333333334</ele><time>2026-04-09T09:43:28.229Z</time></trkpt><trkpt lat="38.4398683" lon="16.3986933"><ele>559.5</ele><time>2026-04-09T09:43:29.229Z</time></trkpt><trkpt lat="38.43983" lon="16.3985967"><ele>562.6666666666666</ele><time>2026-04-09T09:43:30.229Z</time></trkpt><trkpt lat="38.4397917" lon="16.3984933"><ele>565.8333333333333</ele><time>2026-04-09T09:43:31.229Z</time></trkpt><trkpt lat="38.4397533" lon="16.3983867"><ele>569.0</ele><time>2026-04-09T09:43:32.229Z</time></trkpt><trkpt lat="38.4397183" lon="16.3982833"><ele>569.0</ele><time>2026-04-09T09:43:33.229Z</time></trkpt><trkpt lat="38.4396983" lon="16.39818"><ele>569.0</ele><time>2026-04-09T09:43:34.229Z</time></trkpt><trkpt lat="38.4396783" lon="16.3980817"><ele>569.0</ele><time>2026-04-09T09:43:35.229Z</time></trkpt><trkpt lat="38.439665" lon="16.3979867"><ele>569.0</ele><time>2026-04-09T09:43:36.229Z</time></trkpt><trkpt lat="38.4396567" lon="16.3978917"><ele>569.0</ele><time>2026-04-09T09:43:37.229Z</time></trkpt><trkpt lat="38.4396533" lon="16.3977967"><ele>569.0</ele><time>2026-04-09T09:43:38.229Z</time></trkpt><trkpt lat="38.4396517" lon="16.39769"><ele>569.8333333333333</ele><time>2026-04-09T09:43:39.229Z</time></trkpt><trkpt lat="38.4396483" lon="16.397585"><ele>570.6666666666666</ele><time>2026-04-09T09:43:40.229Z</time></trkpt><trkpt lat="38.4396483" lon="16.3974817"><ele>571.5</ele><time>2026-04-09T09:43:41.229Z</time></trkpt><trkpt lat="38.4396417" lon="16.3973783"><ele>572.3333333333334</ele><time>2026-04-09T09:43:42.228Z</time></trkpt><trkpt lat="38.4396433" lon="16.39727"><ele>573.1666666666667</ele><time>2026-04-09T09:43:43.229Z</time></trkpt><trkpt lat="38.43965" lon="16.3971517"><ele>574.0</ele><time>2026-04-09T09:43:44.229Z</time></trkpt><trkpt lat="38.4396483" lon="16.3970183"><ele>574.6</ele><time>2026-04-09T09:43:45.229Z</time></trkpt><trkpt lat="38.439645" lon="16.3968733"><ele>575.2</ele><time>2026-04-09T09:43:46.229Z</time></trkpt><trkpt lat="38.439625" lon="16.39673"><ele>575.8000000000001</ele><time>2026-04-09T09:43:47.229Z</time></trkpt><trkpt lat="38.439605" lon="16.3965917"><ele>576.4</ele><time>2026-04-09T09:43:48.228Z</time></trkpt><trkpt lat="38.4395733" lon="16.396455"><ele>577.0</ele><time>2026-04-09T09:43:49.229Z</time></trkpt><trkpt lat="38.43954" lon="16.3963167"><ele>579.2</ele><time>2026-04-09T09:43:50.228Z</time></trkpt><trkpt lat="38.4395017" lon="16.3961833"><ele>581.4000000000001</ele><time>2026-04-09T09:43:51.229Z</time></trkpt><trkpt lat="38.4394633" lon="16.3960583"><ele>583.5999999999999</ele><time>2026-04-09T09:43:52.229Z</time></trkpt><trkpt lat="38.4394317" lon="16.3959333"><ele>585.8</ele><time>2026-04-09T09:43:53.229Z</time></trkpt><trkpt lat="38.4394083" lon="16.395805"><ele>588.0</ele><time>2026-04-09T09:43:54.229Z</time></trkpt><trkpt lat="38.439395" lon="16.395675"><ele>588.0</ele><time>2026-04-09T09:43:55.229Z</time></trkpt><trkpt lat="38.4393867" lon="16.395535"><ele>588.0</ele><time>2026-04-09T09:43:56.229Z</time></trkpt><trkpt lat="38.439375" lon="16.3953967"><ele>588.0</ele><time>2026-04-09T09:43:57.229Z</time></trkpt><trkpt lat="38.4393667" lon="16.39525"><ele>588.0</ele><time>2026-04-09T09:43:58.229Z</time></trkpt><trkpt lat="38.43936" lon="16.3951033"><ele>588.0</ele><time>2026-04-09T09:43:59.229Z</time></trkpt><trkpt lat="38.4393483" lon="16.3949567"><ele>591.1999999999999</ele><time>2026-04-09T09:44:00.229Z</time></trkpt><trkpt lat="38.439345" lon="16.394825"><ele>594.4</ele><time>2026-04-09T09:44:01.229Z</time></trkpt><trkpt lat="38.43935" lon="16.39471"><ele>597.5999999999999</ele><time>2026-04-09T09:44:02.229Z</time></trkpt><trkpt lat="38.439365" lon="16.39459"><ele>600.8</ele><time>2026-04-09T09:44:03.229Z</time></trkpt><trkpt lat="38.4393917" lon="16.39447"><ele>604.0</ele><time>2026-04-09T09:44:04.228Z</time></trkpt><trkpt lat="38.4394183" lon="16.394345"><ele>606.6</ele><time>2026-04-09T09:44:05.229Z</time></trkpt><trkpt lat="38.43944" lon="16.3942133"><ele>609.2</ele><time>2026-04-09T09:44:06.229Z</time></trkpt><trkpt lat="38.43946" lon="16.3940783"><ele>611.8000000000001</ele><time>2026-04-09T09:44:07.229Z</time></trkpt><trkpt lat="38.4394733" lon="16.3939467"><ele>614.4</ele><time>2026-04-09T09:44:08.229Z</time></trkpt><trkpt lat="38.43949" lon="16.3938183"><ele>617.0</ele><time>2026-04-09T09:44:09.229Z</time></trkpt><trkpt lat="38.439515" lon="16.3936967"><ele>617.1666666666666</ele><time>2026-04-09T09:44:10.229Z</time></trkpt><trkpt lat="38.4395417" lon="16.3935833"><ele>617.3333333333333</ele><time>2026-04-09T09:44:11.229Z</time></trkpt><trkpt lat="38.4395833" lon="16.3934783"><ele>617.5</ele><time>2026-04-09T09:44:12.229Z</time></trkpt><trkpt lat="38.4396267" lon="16.3933783"><ele>617.6666666666666</ele><time>2026-04-09T09:44:13.228Z</time></trkpt><trkpt lat="38.4396783" lon="16.3932933"><ele>617.8333333333334</ele><time>2026-04-09T09:44:14.229Z</time></trkpt><trkpt lat="38.4397333" lon="16.39322"><ele>618.0</ele><time>2026-04-09T09:44:15.228Z</time></trkpt><trkpt lat="38.4397967" lon="16.3931583"><ele>618.0</ele><time>2026-04-09T09:44:16.229Z</time></trkpt><trkpt lat="38.43987" lon="16.39312"><ele>618.0</ele><time>2026-04-09T09:44:17.229Z</time></trkpt><trkpt lat="38.4399633" lon="16.393115"><ele>618.0</ele><time>2026-04-09T09:44:18.229Z</time></trkpt><trkpt lat="38.44005" lon="16.3931117"><ele>618.0</ele><time>2026-04-09T09:44:19.229Z</time></trkpt><trkpt lat="38.4401367" lon="16.3930967"><ele>618.0</ele><time>2026-04-09T09:44:20.229Z</time></trkpt><trkpt lat="38.4402217" lon="16.3930567"><ele>618.0</ele><time>2026-04-09T09:44:21.228Z</time></trkpt><trkpt lat="38.440295" lon="16.393"><ele>621.3333333333334</ele><time>2026-04-09T09:44:22.229Z</time></trkpt><trkpt lat="38.4403567" lon="16.392935"><ele>624.6666666666666</ele><time>2026-04-09T09:44:23.229Z</time></trkpt><trkpt lat="38.440395" lon="16.3928683"><ele>628.0</ele><time>2026-04-09T09:44:24.229Z</time></trkpt><trkpt lat="38.4404467" lon="16.3927267"><ele>631.3333333333333</ele><time>2026-04-09T09:44:26.229Z</time></trkpt><trkpt lat="38.4404567" lon="16.3926383"><ele>634.6666666666666</ele><time>2026-04-09T09:44:27.229Z</time></trkpt><trkpt lat="38.4404633" lon="16.39255"><ele>638.0</ele><time>2026-04-09T09:44:28.229Z</time></trkpt><trkpt lat="38.44046" lon="16.392455"><ele>638.0</ele><time>2026-04-09T09:44:29.229Z</time></trkpt><trkpt lat="38.4404517" lon="16.3923633"><ele>638.0</ele><time>2026-04-09T09:44:30.229Z</time></trkpt><trkpt lat="38.440435" lon="16.39228"><ele>638.0</ele><time>2026-04-09T09:44:31.228Z</time></trkpt><trkpt lat="38.4404117" lon="16.3921967"><ele>638.0</ele><time>2026-04-09T09:44:32.229Z</time></trkpt><trkpt lat="38.4403583" lon="16.3920617"><ele>638.0</ele><time>2026-04-09T09:44:34.228Z</time></trkpt><trkpt lat="38.4403083" lon="16.3920117"><ele>638.0</ele><time>2026-04-09T09:44:35.229Z</time></trkpt><trkpt lat="38.44025" lon="16.391975"><ele>636.0</ele><time>2026-04-09T09:44:36.229Z</time></trkpt><trkpt lat="38.4401867" lon="16.3919583"><ele>634.0</ele><time>2026-04-09T09:44:37.229Z</time></trkpt><trkpt lat="38.4401133" lon="16.39196"><ele>632.0</ele><time>2026-04-09T09:44:38.228Z</time></trkpt><trkpt lat="38.44004" lon="16.3919617"><ele>630.0</ele><time>2026-04-09T09:44:39.229Z</time></trkpt><trkpt lat="38.4399667" lon="16.39196"><ele>628.0</ele><time>2026-04-09T09:44:40.229Z</time></trkpt><trkpt lat="38.4398983" lon="16.3919517"><ele>626.0</ele><time>2026-04-09T09:44:41.229Z</time></trkpt><trkpt lat="38.43983" lon="16.39194"><ele>624.0</ele><time>2026-04-09T09:44:42.228Z</time></trkpt><trkpt lat="38.4397667" lon="16.39191"><ele>624.0</ele><time>2026-04-09T09:44:43.229Z</time></trkpt><trkpt lat="38.43971" lon="16.3918583"><ele>624.0</ele><time>2026-04-09T09:44:44.229Z</time></trkpt><trkpt lat="38.4397067" lon="16.3917583"><ele>624.0</ele><time>2026-04-09T09:44:45.229Z</time></trkpt><trkpt lat="38.439675" lon="16.3916717"><ele>624.0</ele><time>2026-04-09T09:44:46.228Z</time></trkpt><trkpt lat="38.4396483" lon="16.391565"><ele>624.0</ele><time>2026-04-09T09:44:47.229Z</time></trkpt><trkpt lat="38.43963" lon="16.3914633"><ele>624.0</ele><time>2026-04-09T09:44:48.228Z</time></trkpt><trkpt lat="38.43961" lon="16.3913783"><ele>621.8571428571429</ele><time>2026-04-09T09:44:49.229Z</time></trkpt><trkpt lat="38.4395883" lon="16.3912833"><ele>619.7142857142857</ele><time>2026-04-09T09:44:50.229Z</time></trkpt><trkpt lat="38.43956" lon="16.3911983"><ele>617.5714285714286</ele><time>2026-04-09T09:44:51.229Z</time></trkpt><trkpt lat="38.4395317" lon="16.3911067"><ele>615.4285714285714</ele><time>2026-04-09T09:44:52.229Z</time></trkpt><trkpt lat="38.4395033" lon="16.3910217"><ele>613.2857142857142</ele><time>2026-04-09T09:44:53.229Z</time></trkpt><trkpt lat="38.4394767" lon="16.390935"><ele>611.1428571428571</ele><time>2026-04-09T09:44:54.229Z</time></trkpt><trkpt lat="38.4394633" lon="16.3908517"><ele>609.0</ele><time>2026-04-09T09:44:55.229Z</time></trkpt><trkpt lat="38.439455" lon="16.390745"><ele>609.0</ele><time>2026-04-09T09:44:56.229Z</time></trkpt><trkpt lat="38.43946" lon="16.3906483"><ele>609.0</ele><time>2026-04-09T09:44:57.229Z</time></trkpt><trkpt lat="38.439465" lon="16.3905383"><ele>609.0</ele><time>2026-04-09T09:44:58.229Z</time></trkpt><trkpt lat="38.4394683" lon="16.39043"><ele>609.0</ele><time>2026-04-09T09:44:59.229Z</time></trkpt><trkpt lat="38.4394633" lon="16.3903083"><ele>609.0</ele><time>2026-04-09T09:45:00.229Z</time></trkpt><trkpt lat="38.439465" lon="16.3901883"><ele>609.0</ele><time>2026-04-09T09:45:01.228Z</time></trkpt><trkpt lat="38.439465" lon="16.39007"><ele>610.3333333333334</ele><time>2026-04-09T09:45:02.229Z</time></trkpt><trkpt lat="38.43947" lon="16.389955"><ele>611.6666666666666</ele><time>2026-04-09T09:45:03.229Z</time></trkpt><trkpt lat="38.43948" lon="16.389835"><ele>613.0</ele><time>2026-04-09T09:45:04.229Z</time></trkpt><trkpt lat="38.4395" lon="16.3897283"><ele>614.3333333333333</ele><time>2026-04-09T09:45:05.229Z</time></trkpt><trkpt lat="38.43952" lon="16.3896317"><ele>615.6666666666666</ele><time>2026-04-09T09:45:06.229Z</time></trkpt><trkpt lat="38.43955" lon="16.38954"><ele>617.0</ele><time>2026-04-09T09:45:07.229Z</time></trkpt><trkpt lat="38.439585" lon="16.3894567"><ele>621.1666666666666</ele><time>2026-04-09T09:45:08.229Z</time></trkpt><trkpt lat="38.439645" lon="16.3893867"><ele>625.3333333333333</ele><time>2026-04-09T09:45:09.229Z</time></trkpt><trkpt lat="38.4397133" lon="16.3893233"><ele>629.5</ele><time>2026-04-09T09:45:10.229Z</time></trkpt><trkpt lat="38.4397833" lon="16.3892633"><ele>633.6666666666666</ele><time>2026-04-09T09:45:11.228Z</time></trkpt><trkpt lat="38.4398517" lon="16.3892017"><ele>637.8333333333334</ele><time>2026-04-09T09:45:12.229Z</time></trkpt><trkpt lat="38.4399183" lon="16.3891433"><ele>642.0</ele><time>2026-04-09T09:45:13.229Z</time></trkpt><trkpt lat="38.439995" lon="16.389085"><ele>642.0</ele><time>2026-04-09T09:45:14.229Z</time></trkpt><trkpt lat="38.44007" lon="16.3890217"><ele>642.0</ele><time>2026-04-09T09:45:15.228Z</time></trkpt><trkpt lat="38.4401583" lon="16.3889533"><ele>642.0</ele><time>2026-04-09T09:45:16.229Z</time></trkpt><trkpt lat="38.4402433" lon="16.3888733"><ele>642.0</ele><time>2026-04-09T09:45:17.229Z</time></trkpt><trkpt lat="38.4403083" lon="16.3887783"><ele>642.0</ele><time>2026-04-09T09:45:18.229Z</time></trkpt><trkpt lat="38.4403567" lon="16.388675"><ele>646.8333333333334</ele><time>2026-04-09T09:45:19.229Z</time></trkpt><trkpt lat="38.44038" lon="16.3885683"><ele>651.6666666666666</ele><time>2026-04-09T09:45:20.228Z</time></trkpt><trkpt lat="38.4403883" lon="16.3884533"><ele>656.5</ele><time>2026-04-09T09:45:21.228Z</time></trkpt><trkpt lat="38.4403867" lon="16.388345"><ele>661.3333333333333</ele><time>2026-04-09T09:45:22.229Z</time></trkpt><trkpt lat="38.440375" lon="16.388235"><ele>666.1666666666666</ele><time>2026-04-09T09:45:23.229Z</time></trkpt><trkpt lat="38.44037" lon="16.3881267"><ele>671.0</ele><time>2026-04-09T09:45:24.229Z</time></trkpt><trkpt lat="38.4403767" lon="16.388015"><ele>673.5</ele><time>2026-04-09T09:45:25.229Z</time></trkpt><trkpt lat="38.44039" lon="16.3879083"><ele>676.0</ele><time>2026-04-09T09:45:26.229Z</time></trkpt><trkpt lat="38.4404317" lon="16.3878117"><ele>678.5</ele><time>2026-04-09T09:45:27.229Z</time></trkpt><trkpt lat="38.44049" lon="16.3877333"><ele>681.0</ele><time>2026-04-09T09:45:28.229Z</time></trkpt><trkpt lat="38.4405433" lon="16.3876683"><ele>683.5</ele><time>2026-04-09T09:45:29.229Z</time></trkpt><trkpt lat="38.4406067" lon="16.3875967"><ele>686.0</ele><time>2026-04-09T09:45:30.229Z</time></trkpt><trkpt lat="38.4406583" lon="16.3875217"><ele>681.4</ele><time>2026-04-09T09:45:31.229Z</time></trkpt><trkpt lat="38.4407133" lon="16.387445"><ele>676.8</ele><time>2026-04-09T09:45:32.229Z</time></trkpt><trkpt lat="38.440755" lon="16.3873683"><ele>672.1999999999999</ele><time>2026-04-09T09:45:33.229Z</time></trkpt><trkpt lat="38.4407983" lon="16.3872267"><ele>667.5999999999999</ele><time>2026-04-09T09:45:35.229Z</time></trkpt><trkpt lat="38.4407833" lon="16.3870817"><ele>663.0</ele><time>2026-04-09T09:45:37.228Z</time></trkpt><trkpt lat="38.4407667" lon="16.3870017"><ele>663.0</ele><time>2026-04-09T09:45:38.229Z</time></trkpt><trkpt lat="38.4407417" lon="16.3869267"><ele>663.0</ele><time>2026-04-09T09:45:39.228Z</time></trkpt><trkpt lat="38.4407167" lon="16.3868467"><ele>663.0</ele><time>2026-04-09T09:45:40.229Z</time></trkpt><trkpt lat="38.44069" lon="16.38676"><ele>663.0</ele><time>2026-04-09T09:45:41.228Z</time></trkpt><trkpt lat="38.44067" lon="16.3866567"><ele>663.0</ele><time>2026-04-09T09:45:42.229Z</time></trkpt><trkpt lat="38.44065" lon="16.386545"><ele>663.0</ele><time>2026-04-09T09:45:43.229Z</time></trkpt><trkpt lat="38.4406283" lon="16.38644"><ele>661.6666666666666</ele><time>2026-04-09T09:45:44.229Z</time></trkpt><trkpt lat="38.4406083" lon="16.386325"><ele>660.3333333333334</ele><time>2026-04-09T09:45:45.229Z</time></trkpt><trkpt lat="38.4405833" lon="16.3862217"><ele>659.0</ele><time>2026-04-09T09:45:46.229Z</time></trkpt><trkpt lat="38.440585" lon="16.38611"><ele>657.6666666666667</ele><time>2026-04-09T09:45:47.229Z</time></trkpt><trkpt lat="38.4405933" lon="16.3860067"><ele>656.3333333333334</ele><time>2026-04-09T09:45:48.229Z</time></trkpt><trkpt lat="38.4406083" lon="16.3858833"><ele>655.0</ele><time>2026-04-09T09:45:49.228Z</time></trkpt><trkpt lat="38.4406267" lon="16.3857667"><ele>655.0</ele><time>2026-04-09T09:45:50.229Z</time></trkpt><trkpt lat="38.4406267" lon="16.3856383"><ele>655.0</ele><time>2026-04-09T09:45:51.229Z</time></trkpt><trkpt lat="38.440605" lon="16.3855067"><ele>655.0</ele><time>2026-04-09T09:45:52.229Z</time></trkpt><trkpt lat="38.4405817" lon="16.3853767"><ele>655.0</ele><time>2026-04-09T09:45:53.228Z</time></trkpt><trkpt lat="38.440565" lon="16.3852383"><ele>655.0</ele><time>2026-04-09T09:45:54.229Z</time></trkpt><trkpt lat="38.4405517" lon="16.385095"><ele>656.4</ele><time>2026-04-09T09:45:55.229Z</time></trkpt><trkpt lat="38.44054" lon="16.38495"><ele>657.8</ele><time>2026-04-09T09:45:56.229Z</time></trkpt><trkpt lat="38.4405467" lon="16.38481"><ele>659.2</ele><time>2026-04-09T09:45:57.229Z</time></trkpt><trkpt lat="38.440545" lon="16.384675"><ele>660.6</ele><time>2026-04-09T09:45:58.229Z</time></trkpt><trkpt lat="38.44056" lon="16.3845333"><ele>662.0</ele><time>2026-04-09T09:45:59.229Z</time></trkpt><trkpt lat="38.4405733" lon="16.3843967"><ele>663.2</ele><time>2026-04-09T09:46:00.228Z</time></trkpt><trkpt lat="38.4405717" lon="16.384255"><ele>664.4000000000001</ele><time>2026-04-09T09:46:01.229Z</time></trkpt><trkpt lat="38.44058" lon="16.3841183"><ele>665.5999999999999</ele><time>2026-04-09T09:46:02.229Z</time></trkpt><trkpt lat="38.4405933" lon="16.3839817"><ele>666.8</ele><time>2026-04-09T09:46:03.229Z</time></trkpt><trkpt lat="38.4406267" lon="16.3838533"><ele>668.0</ele><time>2026-04-09T09:46:04.228Z</time></trkpt><trkpt lat="38.440645" lon="16.3837233"><ele>668.2</ele><time>2026-04-09T09:46:05.229Z</time></trkpt><trkpt lat="38.4406483" lon="16.383595"><ele>668.4</ele><time>2026-04-09T09:46:06.229Z</time></trkpt><trkpt lat="38.44065" lon="16.38347"><ele>668.6</ele><time>2026-04-09T09:46:07.229Z</time></trkpt><trkpt lat="38.440645" lon="16.3833417"><ele>668.8000000000001</ele><time>2026-04-09T09:46:08.228Z</time></trkpt><trkpt lat="38.4406483" lon="16.3832267"><ele>669.0</ele><time>2026-04-09T09:46:09.229Z</time></trkpt><trkpt lat="38.4406433" lon="16.3831133"><ele>670.8333333333334</ele><time>2026-04-09T09:46:10.229Z</time></trkpt><trkpt lat="38.44063" lon="16.3829967"><ele>672.6666666666666</ele><time>2026-04-09T09:46:11.229Z</time></trkpt><trkpt lat="38.4406167" lon="16.38288"><ele>674.5</ele><time>2026-04-09T09:46:12.229Z</time></trkpt><trkpt lat="38.4406167" lon="16.3827733"><ele>676.3333333333333</ele><time>2026-04-09T09:46:13.229Z</time></trkpt><trkpt lat="38.4406267" lon="16.382675"><ele>678.1666666666666</ele><time>2026-04-09T09:46:14.229Z</time></trkpt><trkpt lat="38.4406567" lon="16.3825817"><ele>680.0</ele><time>2026-04-09T09:46:15.229Z</time></trkpt><trkpt lat="38.440695" lon="16.3825"><ele>680.0</ele><time>2026-04-09T09:46:16.229Z</time></trkpt><trkpt lat="38.4407617" lon="16.3824133"><ele>680.0</ele><time>2026-04-09T09:46:17.229Z</time></trkpt><trkpt lat="38.4408083" lon="16.3823267"><ele>680.0</ele><time>2026-04-09T09:46:18.229Z</time></trkpt><trkpt lat="38.4408583" lon="16.3822367"><ele>680.0</ele><time>2026-04-09T09:46:19.229Z</time></trkpt><trkpt lat="38.4408933" lon="16.3821533"><ele>680.0</ele><time>2026-04-09T09:46:20.228Z</time></trkpt><trkpt lat="38.4409233" lon="16.38207"><ele>680.0</ele><time>2026-04-09T09:46:21.229Z</time></trkpt><trkpt lat="38.44096" lon="16.3819917"><ele>683.0</ele><time>2026-04-09T09:46:22.229Z</time></trkpt><trkpt lat="38.441" lon="16.3819167"><ele>686.0</ele><time>2026-04-09T09:46:23.229Z</time></trkpt><trkpt lat="38.4410583" lon="16.3818467"><ele>689.0</ele><time>2026-04-09T09:46:24.229Z</time></trkpt><trkpt lat="38.4411183" lon="16.3817717"><ele>692.0</ele><time>2026-04-09T09:46:25.229Z</time></trkpt><trkpt lat="38.44118" lon="16.381705"><ele>695.0</ele><time>2026-04-09T09:46:26.229Z</time></trkpt><trkpt lat="38.4412333" lon="16.381645"><ele>698.0</ele><time>2026-04-09T09:46:27.229Z</time></trkpt><trkpt lat="38.441275" lon="16.38158"><ele>697.5714285714286</ele><time>2026-04-09T09:46:28.229Z</time></trkpt><trkpt lat="38.4413017" lon="16.3815033"><ele>697.1428571428571</ele><time>2026-04-09T09:46:29.229Z</time></trkpt><trkpt lat="38.441305" lon="16.3814167"><ele>696.7142857142858</ele><time>2026-04-09T09:46:30.229Z</time></trkpt><trkpt lat="38.4412767" lon="16.3813333"><ele>696.2857142857142</ele><time>2026-04-09T09:46:31.229Z</time></trkpt><trkpt lat="38.441235" lon="16.381255"><ele>695.8571428571429</ele><time>2026-04-09T09:46:32.228Z</time></trkpt><trkpt lat="38.4411883" lon="16.3811883"><ele>695.4285714285714</ele><time>2026-04-09T09:46:33.229Z</time></trkpt><trkpt lat="38.4411367" lon="16.3811233"><ele>695.0</ele><time>2026-04-09T09:46:34.228Z</time></trkpt><trkpt lat="38.4410633" lon="16.380975"><ele>695.0</ele><time>2026-04-09T09:46:36.229Z</time></trkpt><trkpt lat="38.441045" lon="16.3808817"><ele>695.0</ele><time>2026-04-09T09:46:37.229Z</time></trkpt><trkpt lat="38.4410683" lon="16.3807317"><ele>695.0</ele><time>2026-04-09T09:46:39.228Z</time></trkpt><trkpt lat="38.4411017" lon="16.38066"><ele>695.0</ele><time>2026-04-09T09:46:40.228Z</time></trkpt><trkpt lat="38.4411483" lon="16.3805717"><ele>695.0</ele><time>2026-04-09T09:46:41.229Z</time></trkpt><trkpt lat="38.4411833" lon="16.3804717"><ele>695.0</ele><time>2026-04-09T09:46:42.229Z</time></trkpt><trkpt lat="38.44121" lon="16.3803717"><ele>692.8333333333333</ele><time>2026-04-09T09:46:43.229Z</time></trkpt><trkpt lat="38.4412267" lon="16.3802917"><ele>690.6666666666666</ele><time>2026-04-09T09:46:44.229Z</time></trkpt><trkpt lat="38.4412283" lon="16.3801567"><ele>688.5</ele><time>2026-04-09T09:46:46.229Z</time></trkpt><trkpt lat="38.4411717" lon="16.3800317"><ele>686.3333333333334</ele><time>2026-04-09T09:46:48.229Z</time></trkpt><trkpt lat="38.4411067" lon="16.3799833"><ele>684.1666666666667</ele><time>2026-04-09T09:46:49.228Z</time></trkpt><trkpt lat="38.4410367" lon="16.3799383"><ele>682.0</ele><time>2026-04-09T09:46:50.229Z</time></trkpt><trkpt lat="38.4409683" lon="16.37988"><ele>682.0</ele><time>2026-04-09T09:46:51.229Z</time></trkpt><trkpt lat="38.440905" lon="16.379805"><ele>682.0</ele><time>2026-04-09T09:46:52.229Z</time></trkpt><trkpt lat="38.44085" lon="16.3797217"><ele>682.0</ele><time>2026-04-09T09:46:53.229Z</time></trkpt><trkpt lat="38.4408083" lon="16.37963"><ele>682.0</ele><time>2026-04-09T09:46:54.228Z</time></trkpt><trkpt lat="38.440775" lon="16.3795417"><ele>682.0</ele><time>2026-04-09T09:46:55.229Z</time></trkpt><trkpt lat="38.440765" lon="16.3794433"><ele>682.0</ele><time>2026-04-09T09:46:56.229Z</time></trkpt><trkpt lat="38.440765" lon="16.3793467"><ele>679.8333333333334</ele><time>2026-04-09T09:46:57.229Z</time></trkpt><trkpt lat="38.4407783" lon="16.37925"><ele>677.6666666666667</ele><time>2026-04-09T09:46:58.229Z</time></trkpt><trkpt lat="38.4407933" lon="16.379165"><ele>675.5</ele><time>2026-04-09T09:46:59.228Z</time></trkpt><trkpt lat="38.4408367" lon="16.3790783"><ele>673.3333333333334</ele><time>2026-04-09T09:47:00.229Z</time></trkpt><trkpt lat="38.4408933" lon="16.379"><ele>671.1666666666666</ele><time>2026-04-09T09:47:01.229Z</time></trkpt><trkpt lat="38.440935" lon="16.3789133"><ele>669.0</ele><time>2026-04-09T09:47:02.229Z</time></trkpt><trkpt lat="38.440955" lon="16.3788133"><ele>668.4285714285714</ele><time>2026-04-09T09:47:03.228Z</time></trkpt><trkpt lat="38.440965" lon="16.3787133"><ele>667.8571428571429</ele><time>2026-04-09T09:47:04.229Z</time></trkpt><trkpt lat="38.4409567" lon="16.37862"><ele>667.2857142857142</ele><time>2026-04-09T09:47:05.229Z</time></trkpt><trkpt lat="38.4409483" lon="16.3785317"><ele>666.7142857142858</ele><time>2026-04-09T09:47:06.228Z</time></trkpt><trkpt lat="38.44094" lon="16.37844"><ele>666.1428571428571</ele><time>2026-04-09T09:47:07.229Z</time></trkpt><trkpt lat="38.4409367" lon="16.3783467"><ele>665.5714285714286</ele><time>2026-04-09T09:47:08.229Z</time></trkpt><trkpt lat="38.440925" lon="16.37826"><ele>665.0</ele><time>2026-04-09T09:47:09.229Z</time></trkpt><trkpt lat="38.440895" lon="16.37818"><ele>665.0</ele><time>2026-04-09T09:47:10.229Z</time></trkpt><trkpt lat="38.4408583" lon="16.3781"><ele>665.0</ele><time>2026-04-09T09:47:11.229Z</time></trkpt><trkpt lat="38.44082" lon="16.3780217"><ele>665.0</ele><time>2026-04-09T09:47:12.229Z</time></trkpt><trkpt lat="38.4407833" lon="16.377945"><ele>665.0</ele><time>2026-04-09T09:47:13.229Z</time></trkpt><trkpt lat="38.44075" lon="16.37786"><ele>665.0</ele><time>2026-04-09T09:47:14.229Z</time></trkpt><trkpt lat="38.4407217" lon="16.3777633"><ele>665.0</ele><time>2026-04-09T09:47:15.229Z</time></trkpt><trkpt lat="38.44069" lon="16.37767"><ele>661.3333333333333</ele><time>2026-04-09T09:47:16.229Z</time></trkpt><trkpt lat="38.4406583" lon="16.3775717"><ele>657.6666666666666</ele><time>2026-04-09T09:47:17.229Z</time></trkpt><trkpt lat="38.44063" lon="16.3774767"><ele>654.0</ele><time>2026-04-09T09:47:18.229Z</time></trkpt><trkpt lat="38.4406083" lon="16.3773683"><ele>650.3333333333334</ele><time>2026-04-09T09:47:19.229Z</time></trkpt><trkpt lat="38.4405967" lon="16.37726"><ele>646.6666666666667</ele><time>2026-04-09T09:47:20.229Z</time></trkpt><trkpt lat="38.4405967" lon="16.377155"><ele>643.0</ele><time>2026-04-09T09:47:21.229Z</time></trkpt><trkpt lat="38.4406133" lon="16.377055"><ele>641.3333333333334</ele><time>2026-04-09T09:47:22.229Z</time></trkpt><trkpt lat="38.4406383" lon="16.376955"><ele>639.6666666666667</ele><time>2026-04-09T09:47:23.229Z</time></trkpt><trkpt lat="38.4406733" lon="16.3768633"><ele>638.0</ele><time>2026-04-09T09:47:24.229Z</time></trkpt><trkpt lat="38.4407167" lon="16.3767767"><ele>636.3333333333334</ele><time>2026-04-09T09:47:25.228Z</time></trkpt><trkpt lat="38.4407467" lon="16.3766933"><ele>634.6666666666666</ele><time>2026-04-09T09:47:26.229Z</time></trkpt><trkpt lat="38.4408083" lon="16.3766217"><ele>633.0</ele><time>2026-04-09T09:47:27.229Z</time></trkpt><trkpt lat="38.440875" lon="16.3765433"><ele>633.0</ele><time>2026-04-09T09:47:28.228Z</time></trkpt><trkpt lat="38.4409433" lon="16.37647"><ele>633.0</ele><time>2026-04-09T09:47:29.228Z</time></trkpt><trkpt lat="38.4410033" lon="16.3763833"><ele>633.0</ele><time>2026-04-09T09:47:30.229Z</time></trkpt><trkpt lat="38.4410483" lon="16.3762933"><ele>633.0</ele><time>2026-04-09T09:47:31.229Z</time></trkpt><trkpt lat="38.4410917" lon="16.3761917"><ele>633.0</ele><time>2026-04-09T09:47:32.229Z</time></trkpt><trkpt lat="38.4411367" lon="16.3760983"><ele>633.0</ele><time>2026-04-09T09:47:33.229Z</time></trkpt><trkpt lat="38.441175" lon="16.3760067"><ele>630.1666666666666</ele><time>2026-04-09T09:47:34.229Z</time></trkpt><trkpt lat="38.4412167" lon="16.3759317"><ele>627.3333333333334</ele><time>2026-04-09T09:47:35.229Z</time></trkpt><trkpt lat="38.4412833" lon="16.3757933"><ele>624.5</ele><time>2026-04-09T09:47:37.229Z</time></trkpt><trkpt lat="38.4413367" lon="16.3757317"><ele>621.6666666666667</ele><time>2026-04-09T09:47:38.229Z</time></trkpt><trkpt lat="38.441405" lon="16.3756783"><ele>618.8333333333334</ele><time>2026-04-09T09:47:39.229Z</time></trkpt><trkpt lat="38.4414867" lon="16.375625"><ele>616.0</ele><time>2026-04-09T09:47:40.229Z</time></trkpt><trkpt lat="38.44157" lon="16.375575"><ele>615.6666666666667</ele><time>2026-04-09T09:47:41.229Z</time></trkpt><trkpt lat="38.4416467" lon="16.3755117"><ele>615.3333333333334</ele><time>2026-04-09T09:47:42.229Z</time></trkpt><trkpt lat="38.441695" lon="16.3754183"><ele>615.0</ele><time>2026-04-09T09:47:43.229Z</time></trkpt><trkpt lat="38.4417217" lon="16.3753083"><ele>614.6666666666666</ele><time>2026-04-09T09:47:44.229Z</time></trkpt><trkpt lat="38.4417467" lon="16.3752033"><ele>614.3333333333333</ele><time>2026-04-09T09:47:45.229Z</time></trkpt><trkpt lat="38.4417783" lon="16.3751133"><ele>614.0</ele><time>2026-04-09T09:47:46.229Z</time></trkpt><trkpt lat="38.4418117" lon="16.3750367"><ele>614.0</ele><time>2026-04-09T09:47:47.229Z</time></trkpt><trkpt lat="38.44186" lon="16.3749733"><ele>614.0</ele><time>2026-04-09T09:47:48.228Z</time></trkpt><trkpt lat="38.4419" lon="16.3749"><ele>614.0</ele><time>2026-04-09T09:47:49.229Z</time></trkpt><trkpt lat="38.4419483" lon="16.374825"><ele>614.0</ele><time>2026-04-09T09:47:50.229Z</time></trkpt><trkpt lat="38.4420033" lon="16.3747533"><ele>614.0</ele><time>2026-04-09T09:47:51.229Z</time></trkpt><trkpt lat="38.4420567" lon="16.3746883"><ele>614.0</ele><time>2026-04-09T09:47:52.229Z</time></trkpt><trkpt lat="38.44215" lon="16.37454"><ele>615.6666666666666</ele><time>2026-04-09T09:47:54.229Z</time></trkpt><trkpt lat="38.44217" lon="16.374455"><ele>617.3333333333333</ele><time>2026-04-09T09:47:55.229Z</time></trkpt><trkpt lat="38.4421767" lon="16.3743567"><ele>619.0</ele><time>2026-04-09T09:47:56.229Z</time></trkpt><trkpt lat="38.4421567" lon="16.374265"><ele>620.6666666666666</ele><time>2026-04-09T09:47:57.229Z</time></trkpt><trkpt lat="38.4421267" lon="16.37418"><ele>622.3333333333334</ele><time>2026-04-09T09:47:58.229Z</time></trkpt><trkpt lat="38.4420983" lon="16.3741067"><ele>624.0</ele><time>2026-04-09T09:47:59.229Z</time></trkpt><trkpt lat="38.4420583" lon="16.373955"><ele>622.8</ele><time>2026-04-09T09:48:01.228Z</time></trkpt><trkpt lat="38.4420717" lon="16.3738117"><ele>621.5999999999999</ele><time>2026-04-09T09:48:03.228Z</time></trkpt><trkpt lat="38.4421517" lon="16.373725"><ele>620.4</ele><time>2026-04-09T09:48:05.229Z</time></trkpt><trkpt lat="38.4422267" lon="16.3737083"><ele>619.1999999999999</ele><time>2026-04-09T09:48:06.229Z</time></trkpt><trkpt lat="38.44232" lon="16.3736817"><ele>618.0</ele><time>2026-04-09T09:48:07.229Z</time></trkpt><trkpt lat="38.4424217" lon="16.3736333"><ele>618.0</ele><time>2026-04-09T09:48:08.229Z</time></trkpt><trkpt lat="38.442495" lon="16.3735567"><ele>618.0</ele><time>2026-04-09T09:48:09.229Z</time></trkpt><trkpt lat="38.44256" lon="16.3734683"><ele>618.0</ele><time>2026-04-09T09:48:10.229Z</time></trkpt><trkpt lat="38.44262" lon="16.37338"><ele>618.0</ele><time>2026-04-09T09:48:11.228Z</time></trkpt><trkpt lat="38.4426833" lon="16.3733083"><ele>618.0</ele><time>2026-04-09T09:48:12.228Z</time></trkpt><trkpt lat="38.442765" lon="16.37322"><ele>618.0</ele><time>2026-04-09T09:48:14.229Z</time></trkpt><trkpt lat="38.4428433" lon="16.3731483"><ele>618.0</ele><time>2026-04-09T09:48:16.229Z</time></trkpt><trkpt lat="38.4428933" lon="16.373085"><ele>618.0</ele><time>2026-04-09T09:48:17.229Z</time></trkpt><trkpt lat="38.4429283" lon="16.3730067"><ele>618.0</ele><time>2026-04-09T09:48:18.229Z</time></trkpt><trkpt lat="38.4429667" lon="16.3729233"><ele>618.0</ele><time>2026-04-09T09:48:19.229Z</time></trkpt><trkpt lat="38.442995" lon="16.37283"><ele>618.0</ele><time>2026-04-09T09:48:20.229Z</time></trkpt><trkpt lat="38.4430133" lon="16.3727417"><ele>618.5</ele><time>2026-04-09T09:48:21.229Z</time></trkpt><trkpt lat="38.4430167" lon="16.3726467"><ele>619.0</ele><time>2026-04-09T09:48:22.229Z</time></trkpt><trkpt lat="38.4430033" lon="16.3725617"><ele>619.5</ele><time>2026-04-09T09:48:23.229Z</time></trkpt><trkpt lat="38.442975" lon="16.3724667"><ele>620.0</ele><time>2026-04-09T09:48:24.229Z</time></trkpt><trkpt lat="38.4429667" lon="16.3723583"><ele>620.5</ele><time>2026-04-09T09:48:25.229Z</time></trkpt><trkpt lat="38.44296" lon="16.3722433"><ele>621.0</ele><time>2026-04-09T09:48:26.229Z</time></trkpt><trkpt lat="38.442955" lon="16.37212"><ele>621.0</ele><time>2026-04-09T09:48:27.229Z</time></trkpt><trkpt lat="38.4429417" lon="16.37199"><ele>621.0</ele><time>2026-04-09T09:48:28.229Z</time></trkpt><trkpt lat="38.4429233" lon="16.3718583"><ele>621.0</ele><time>2026-04-09T09:48:29.229Z</time></trkpt><trkpt lat="38.4429083" lon="16.3717233"><ele>621.0</ele><time>2026-04-09T09:48:30.229Z</time></trkpt><trkpt lat="38.4429133" lon="16.3715867"><ele>621.0</ele><time>2026-04-09T09:48:31.229Z</time></trkpt><trkpt lat="38.4429417" lon="16.3714483"><ele>631.2</ele><time>2026-04-09T09:48:32.228Z</time></trkpt><trkpt lat="38.4429833" lon="16.371325"><ele>641.4000000000001</ele><time>2026-04-09T09:48:33.229Z</time></trkpt><trkpt lat="38.4430333" lon="16.3712133"><ele>651.6</ele><time>2026-04-09T09:48:34.229Z</time></trkpt><trkpt lat="38.443075" lon="16.3711017"><ele>661.8000000000001</ele><time>2026-04-09T09:48:35.229Z</time></trkpt><trkpt lat="38.4431" lon="16.3709883"><ele>672.0</ele><time>2026-04-09T09:48:36.229Z</time></trkpt><trkpt lat="38.4431017" lon="16.3708767"><ele>672.0</ele><time>2026-04-09T09:48:37.229Z</time></trkpt><trkpt lat="38.4430917" lon="16.37077"><ele>672.0</ele><time>2026-04-09T09:48:38.229Z</time></trkpt><trkpt lat="38.4430717" lon="16.3706717"><ele>672.0</ele><time>2026-04-09T09:48:39.229Z</time></trkpt><trkpt lat="38.443035" lon="16.37058"><ele>672.0</ele><time>2026-04-09T09:48:40.229Z</time></trkpt><trkpt lat="38.4429783" lon="16.370475"><ele>672.0</ele><time>2026-04-09T09:48:42.228Z</time></trkpt><trkpt lat="38.443005" lon="16.3703833"><ele>672.0</ele><time>2026-04-09T09:48:45.229Z</time></trkpt><trkpt lat="38.44309" lon="16.370435"><ele>672.0</ele><time>2026-04-09T09:48:47.229Z</time></trkpt><trkpt lat="38.4431283" lon="16.370505"><ele>672.0</ele><time>2026-04-09T09:48:48.229Z</time></trkpt><trkpt lat="38.4431717" lon="16.3706"><ele>672.0</ele><time>2026-04-09T09:48:49.229Z</time></trkpt><trkpt lat="38.443215" lon="16.3707033"><ele>672.0</ele><time>2026-04-09T09:48:50.228Z</time></trkpt><trkpt lat="38.4432517" lon="16.370805"><ele>672.0</ele><time>2026-04-09T09:48:51.228Z</time></trkpt><trkpt lat="38.4432817" lon="16.37089"><ele>672.0</ele><time>2026-04-09T09:48:52.228Z</time></trkpt><trkpt lat="38.4433233" lon="16.3709867"><ele>672.0</ele><time>2026-04-09T09:48:54.228Z</time></trkpt><trkpt lat="38.4434317" lon="16.3709683"><ele>672.0</ele><time>2026-04-09T09:48:57.228Z</time></trkpt><trkpt lat="38.443495" lon="16.3709417"><ele>672.0</ele><time>2026-04-09T09:48:58.228Z</time></trkpt><trkpt lat="38.4435583" lon="16.370905"><ele>672.0</ele><time>2026-04-09T09:48:59.228Z</time></trkpt><trkpt lat="38.4436217" lon="16.3708733"><ele>672.0</ele><time>2026-04-09T09:49:00.228Z</time></trkpt><trkpt lat="38.44369" lon="16.370845"><ele>672.0</ele><time>2026-04-09T09:49:01.227Z</time></trkpt><trkpt lat="38.4437583" lon="16.370825"><ele>674.2</ele><time>2026-04-09T09:49:02.228Z</time></trkpt><trkpt lat="38.4438233" lon="16.3708233"><ele>676.4000000000001</ele><time>2026-04-09T09:49:03.228Z</time></trkpt><trkpt lat="38.443945" lon="16.370845"><ele>678.5999999999999</ele><time>2026-04-09T09:49:05.228Z</time></trkpt><trkpt lat="38.4440633" lon="16.370825"><ele>680.8</ele><time>2026-04-09T09:49:07.228Z</time></trkpt><trkpt lat="38.444125" lon="16.3707833"><ele>683.0</ele><time>2026-04-09T09:49:08.228Z</time></trkpt><trkpt lat="38.44418" lon="16.3707183"><ele>683.0</ele><time>2026-04-09T09:49:09.228Z</time></trkpt><trkpt lat="38.4442317" lon="16.37065"><ele>683.0</ele><time>2026-04-09T09:49:10.228Z</time></trkpt><trkpt lat="38.444285" lon="16.37059"><ele>683.0</ele><time>2026-04-09T09:49:11.228Z</time></trkpt><trkpt lat="38.444335" lon="16.370525"><ele>683.0</ele><time>2026-04-09T09:49:12.228Z</time></trkpt><trkpt lat="38.44439" lon="16.3704667"><ele>683.0</ele><time>2026-04-09T09:49:13.228Z</time></trkpt><trkpt lat="38.4444483" lon="16.37041"><ele>683.0</ele><time>2026-04-09T09:49:14.228Z</time></trkpt><trkpt lat="38.4445067" lon="16.3703467"><ele>683.0</ele><time>2026-04-09T09:49:15.228Z</time></trkpt><trkpt lat="38.44456" lon="16.3702733"><ele>687.6666666666666</ele><time>2026-04-09T09:49:16.228Z</time></trkpt><trkpt lat="38.4445917" lon="16.3701917"><ele>692.3333333333333</ele><time>2026-04-09T09:49:17.228Z</time></trkpt><trkpt lat="38.4445433" lon="16.3700617"><ele>697.0</ele><time>2026-04-09T09:49:19.228Z</time></trkpt><trkpt lat="38.4444333" lon="16.3700533"><ele>701.6666666666666</ele><time>2026-04-09T09:49:21.228Z</time></trkpt><trkpt lat="38.44435" lon="16.3700633"><ele>706.3333333333334</ele><time>2026-04-09T09:49:23.228Z</time></trkpt><trkpt lat="38.44434" lon="16.36998"><ele>711.0</ele><time>2026-04-09T09:49:26.228Z</time></trkpt><trkpt lat="38.444395" lon="16.369905"><ele>711.0</ele><time>2026-04-09T09:49:28.228Z</time></trkpt><trkpt lat="38.4444467" lon="16.3698517"><ele>711.0</ele><time>2026-04-09T09:49:29.228Z</time></trkpt><trkpt lat="38.4444933" lon="16.3697917"><ele>711.0</ele><time>2026-04-09T09:49:30.228Z</time></trkpt><trkpt lat="38.4445683" lon="16.369675"><ele>711.0</ele><time>2026-04-09T09:49:32.228Z</time></trkpt><trkpt lat="38.44461" lon="16.369585"><ele>711.0</ele><time>2026-04-09T09:49:34.228Z</time></trkpt><trkpt lat="38.4446017" lon="16.369495"><ele>711.0</ele><time>2026-04-09T09:49:36.228Z</time></trkpt><trkpt lat="38.4445333" lon="16.369455"><ele>714.8</ele><time>2026-04-09T09:49:38.228Z</time></trkpt><trkpt lat="38.444415" lon="16.369535"><ele>718.5999999999999</ele><time>2026-04-09T09:49:40.228Z</time></trkpt><trkpt lat="38.4443367" lon="16.3696017"><ele>722.4</ele><time>2026-04-09T09:49:41.228Z</time></trkpt><trkpt lat="38.444265" lon="16.3696533"><ele>726.2</ele><time>2026-04-09T09:49:42.228Z</time></trkpt><trkpt lat="38.4441617" lon="16.3696917"><ele>730.0</ele><time>2026-04-09T09:49:44.228Z</time></trkpt><trkpt lat="38.444085" lon="16.3696333"><ele>730.0</ele><time>2026-04-09T09:49:46.228Z</time></trkpt><trkpt lat="38.444115" lon="16.3694967"><ele>730.0</ele><time>2026-04-09T09:49:48.228Z</time></trkpt><trkpt lat="38.4441683" lon="16.3694167"><ele>730.0</ele><time>2026-04-09T09:49:49.228Z</time></trkpt><trkpt lat="38.4442117" lon="16.3693383"><ele>730.0</ele><time>2026-04-09T09:49:50.228Z</time></trkpt><trkpt lat="38.4442433" lon="16.369265"><ele>730.0</ele><time>2026-04-09T09:49:51.228Z</time></trkpt><trkpt lat="38.444295" lon="16.3691667"><ele>730.0</ele><time>2026-04-09T09:49:53.228Z</time></trkpt><trkpt lat="38.4443283" lon="16.3690733"><ele>730.0</ele><time>2026-04-09T09:49:55.228Z</time></trkpt><trkpt lat="38.4443683" lon="16.3689867"><ele>730.0</ele><time>2026-04-09T09:49:57.227Z</time></trkpt><trkpt lat="38.4444183" lon="16.3688867"><ele>730.0</ele><time>2026-04-09T09:49:59.228Z</time></trkpt><trkpt lat="38.44447" lon="16.3687617"><ele>730.0</ele><time>2026-04-09T09:50:01.228Z</time></trkpt><trkpt lat="38.4445283" lon="16.3686317"><ele>730.0</ele><time>2026-04-09T09:50:03.228Z</time></trkpt><trkpt lat="38.4445883" lon="16.36853"><ele>736.8</ele><time>2026-04-09T09:50:05.228Z</time></trkpt><trkpt lat="38.4446917" lon="16.36847"><ele>743.6</ele><time>2026-04-09T09:50:07.228Z</time></trkpt><trkpt lat="38.4447917" lon="16.3684833"><ele>750.4000000000001</ele><time>2026-04-09T09:50:08.228Z</time></trkpt><trkpt lat="38.4449" lon="16.368515"><ele>757.2</ele><time>2026-04-09T09:50:09.228Z</time></trkpt><trkpt lat="38.4449933" lon="16.3685283"><ele>764.0</ele><time>2026-04-09T09:50:10.228Z</time></trkpt><trkpt lat="38.445055" lon="16.3684583"><ele>764.0</ele><time>2026-04-09T09:50:12.228Z</time></trkpt><trkpt lat="38.4449617" lon="16.368345"><ele>764.0</ele><time>2026-04-09T09:50:14.228Z</time></trkpt><trkpt lat="38.4448533" lon="16.3682817"><ele>764.0</ele><time>2026-04-09T09:50:15.227Z</time></trkpt><trkpt lat="38.4447367" lon="16.368235"><ele>764.0</ele><time>2026-04-09T09:50:16.228Z</time></trkpt><trkpt lat="38.4446183" lon="16.3682333"><ele>763.4000000000001</ele><time>2026-04-09T09:50:17.227Z</time></trkpt><trkpt lat="38.4445067" lon="16.3682617"><ele>762.8</ele><time>2026-04-09T09:50:18.228Z</time></trkpt><trkpt lat="38.4443967" lon="16.368335"><ele>762.2</ele><time>2026-04-09T09:50:19.228Z</time></trkpt><trkpt lat="38.4443367" lon="16.368445"><ele>761.5999999999999</ele><time>2026-04-09T09:50:20.228Z</time></trkpt><trkpt lat="38.4442767" lon="16.3685067"><ele>761.0</ele><time>2026-04-09T09:50:21.227Z</time></trkpt><trkpt lat="38.4441883" lon="16.36849"><ele>761.0</ele><time>2026-04-09T09:50:23.228Z</time></trkpt><trkpt lat="38.4442067" lon="16.36834"><ele>761.0</ele><time>2026-04-09T09:50:25.228Z</time></trkpt><trkpt lat="38.4442883" lon="16.3682167"><ele>761.0</ele><time>2026-04-09T09:50:26.228Z</time></trkpt><trkpt lat="38.44438" lon="16.3680833"><ele>761.0</ele><time>2026-04-09T09:50:27.228Z</time></trkpt><trkpt lat="38.4444983" lon="16.3679383"><ele>765.4</ele><time>2026-04-09T09:50:28.228Z</time></trkpt><trkpt lat="38.4446033" lon="16.3678467"><ele>769.8</ele><time>2026-04-09T09:50:29.228Z</time></trkpt><trkpt lat="38.444715" lon="16.367785"><ele>774.1999999999999</ele><time>2026-04-09T09:50:30.228Z</time></trkpt><trkpt lat="38.4447833" lon="16.3677333"><ele>778.5999999999999</ele><time>2026-04-09T09:50:31.228Z</time></trkpt><trkpt lat="38.444805" lon="16.3675983"><ele>783.0</ele><time>2026-04-09T09:50:33.228Z</time></trkpt><trkpt lat="38.4446983" lon="16.36757"><ele>783.0</ele><time>2026-04-09T09:50:35.228Z</time></trkpt><trkpt lat="38.44459" lon="16.3676233"><ele>783.0</ele><time>2026-04-09T09:50:36.228Z</time></trkpt><trkpt lat="38.444455" lon="16.367675"><ele>783.0</ele><time>2026-04-09T09:50:37.228Z</time></trkpt><trkpt lat="38.4443233" lon="16.367685"><ele>783.0</ele><time>2026-04-09T09:50:38.228Z</time></trkpt><trkpt lat="38.4441917" lon="16.367665"><ele>783.0</ele><time>2026-04-09T09:50:39.228Z</time></trkpt><trkpt lat="38.444095" lon="16.3675983"><ele>783.0</ele><time>2026-04-09T09:50:40.228Z</time></trkpt><trkpt lat="38.444035" lon="16.3674883"><ele>783.0</ele><time>2026-04-09T09:50:41.228Z</time></trkpt><trkpt lat="38.4440167" lon="16.36737"><ele>783.0</ele><time>2026-04-09T09:50:42.228Z</time></trkpt><trkpt lat="38.4440333" lon="16.3672567"><ele>783.0</ele><time>2026-04-09T09:50:43.228Z</time></trkpt><trkpt lat="38.4440883" lon="16.3671317"><ele>783.1666666666666</ele><time>2026-04-09T09:50:44.228Z</time></trkpt><trkpt lat="38.444155" lon="16.367025"><ele>783.3333333333333</ele><time>2026-04-09T09:50:45.228Z</time></trkpt><trkpt lat="38.4442017" lon="16.3669167"><ele>783.5</ele><time>2026-04-09T09:50:46.228Z</time></trkpt><trkpt lat="38.44423" lon="16.36684"><ele>783.6666666666666</ele><time>2026-04-09T09:50:47.228Z</time></trkpt><trkpt lat="38.4442683" lon="16.3667317"><ele>783.8333333333333</ele><time>2026-04-09T09:50:49.228Z</time></trkpt><trkpt lat="38.4443117" lon="16.3668083"><ele>784.0</ele><time>2026-04-09T09:50:55.227Z</time></trkpt><trkpt lat="38.4442833" lon="16.366905"><ele>783.9999999999999</ele><time>2026-04-09T09:50:58.228Z</time></trkpt><trkpt lat="38.4442683" lon="16.3670283"><ele>784.0</ele><time>2026-04-09T09:51:01.228Z</time></trkpt><trkpt lat="38.4442683" lon="16.367125"><ele>784.0</ele><time>2026-04-09T09:51:03.227Z</time></trkpt><trkpt lat="38.4442933" lon="16.3672117"><ele>784.0</ele><time>2026-04-09T09:51:05.227Z</time></trkpt><trkpt lat="38.4443617" lon="16.36729"><ele>783.9999999999999</ele><time>2026-04-09T09:51:07.227Z</time></trkpt><trkpt lat="38.4444617" lon="16.3672733"><ele>784.0</ele><time>2026-04-09T09:51:09.228Z</time></trkpt><trkpt lat="38.44452" lon="16.3672217"><ele>783.9999999999999</ele><time>2026-04-09T09:51:10.227Z</time></trkpt><trkpt lat="38.4445817" lon="16.3671383"><ele>784.0</ele><time>2026-04-09T09:51:11.228Z</time></trkpt><trkpt lat="38.4446433" lon="16.36706"><ele>784.0</ele><time>2026-04-09T09:51:12.228Z</time></trkpt><trkpt lat="38.4447117" lon="16.366995"><ele>784.0</ele><time>2026-04-09T09:51:13.228Z</time></trkpt><trkpt lat="38.4447883" lon="16.36694"><ele>783.9999999999999</ele><time>2026-04-09T09:51:14.228Z</time></trkpt><trkpt lat="38.4448683" lon="16.366935"><ele>784.0</ele><time>2026-04-09T09:51:15.228Z</time></trkpt><trkpt lat="38.4449583" lon="16.3669583"><ele>791.2</ele><time>2026-04-09T09:51:16.228Z</time></trkpt><trkpt lat="38.445055" lon="16.36702"><ele>798.4000000000001</ele><time>2026-04-09T09:51:17.228Z</time></trkpt><trkpt lat="38.4451467" lon="16.36707"><ele>805.6</ele><time>2026-04-09T09:51:18.228Z</time></trkpt><trkpt lat="38.445235" lon="16.367065"><ele>812.8</ele><time>2026-04-09T09:51:19.228Z</time></trkpt><trkpt lat="38.4453233" lon="16.3670233"><ele>820.0</ele><time>2026-04-09T09:51:20.228Z</time></trkpt><trkpt lat="38.445405" lon="16.36695"><ele>821.2</ele><time>2026-04-09T09:51:21.228Z</time></trkpt><trkpt lat="38.4454867" lon="16.3668567"><ele>822.4</ele><time>2026-04-09T09:51:22.228Z</time></trkpt><trkpt lat="38.445555" lon="16.366755"><ele>823.5999999999999</ele><time>2026-04-09T09:51:23.228Z</time></trkpt><trkpt lat="38.4456233" lon="16.3666617"><ele>824.8</ele><time>2026-04-09T09:51:24.228Z</time></trkpt><trkpt lat="38.4456917" lon="16.3665717"><ele>826.0</ele><time>2026-04-09T09:51:25.228Z</time></trkpt><trkpt lat="38.4457567" lon="16.366485"><ele>826.0</ele><time>2026-04-09T09:51:26.227Z</time></trkpt><trkpt lat="38.4458267" lon="16.3663883"><ele>826.0</ele><time>2026-04-09T09:51:27.228Z</time></trkpt><trkpt lat="38.4458933" lon="16.3663067"><ele>826.0</ele><time>2026-04-09T09:51:28.228Z</time></trkpt><trkpt lat="38.4459767" lon="16.3662233"><ele>826.0</ele><time>2026-04-09T09:51:29.228Z</time></trkpt><trkpt lat="38.4460617" lon="16.366155"><ele>826.0</ele><time>2026-04-09T09:51:30.228Z</time></trkpt><trkpt lat="38.4461383" lon="16.366095"><ele>830.0</ele><time>2026-04-09T09:51:31.228Z</time></trkpt><trkpt lat="38.446225" lon="16.3660317"><ele>834.0</ele><time>2026-04-09T09:51:32.228Z</time></trkpt><trkpt lat="38.4463067" lon="16.365965"><ele>838.0</ele><time>2026-04-09T09:51:33.228Z</time></trkpt><trkpt lat="38.4463683" lon="16.3659267"><ele>842.0</ele><time>2026-04-09T09:51:34.228Z</time></trkpt><trkpt lat="38.4464883" lon="16.365895"><ele>846.0</ele><time>2026-04-09T09:51:36.228Z</time></trkpt><trkpt lat="38.446545" lon="16.3659367"><ele>846.0</ele><time>2026-04-09T09:51:37.228Z</time></trkpt><trkpt lat="38.44663" lon="16.3660217"><ele>846.0</ele><time>2026-04-09T09:51:38.227Z</time></trkpt><trkpt lat="38.44671" lon="16.3661083"><ele>846.0</ele><time>2026-04-09T09:51:39.227Z</time></trkpt><trkpt lat="38.4467967" lon="16.366175"><ele>846.0</ele><time>2026-04-09T09:51:40.228Z</time></trkpt><trkpt lat="38.446875" lon="16.3662083"><ele>846.0</ele><time>2026-04-09T09:51:41.228Z</time></trkpt><trkpt lat="38.4469567" lon="16.3661983"><ele>846.0</ele><time>2026-04-09T09:51:42.228Z</time></trkpt><trkpt lat="38.4470367" lon="16.3661433"><ele>846.0</ele><time>2026-04-09T09:51:43.228Z</time></trkpt><trkpt lat="38.4471267" lon="16.3660767"><ele>846.0</ele><time>2026-04-09T09:51:44.228Z</time></trkpt><trkpt lat="38.4472283" lon="16.3660133"><ele>846.0</ele><time>2026-04-09T09:51:45.228Z</time></trkpt><trkpt lat="38.4473417" lon="16.3659733"><ele>846.0</ele><time>2026-04-09T09:51:46.228Z</time></trkpt><trkpt lat="38.4474583" lon="16.3659617"><ele>848.5</ele><time>2026-04-09T09:51:47.227Z</time></trkpt><trkpt lat="38.4475733" lon="16.3659683"><ele>851.0</ele><time>2026-04-09T09:51:48.227Z</time></trkpt><trkpt lat="38.447685" lon="16.3659633"><ele>853.5</ele><time>2026-04-09T09:51:49.228Z</time></trkpt><trkpt lat="38.4477983" lon="16.3659267"><ele>856.0</ele><time>2026-04-09T09:51:50.228Z</time></trkpt><trkpt lat="38.4479183" lon="16.3658683"><ele>857.1999999999999</ele><time>2026-04-09T09:51:51.228Z</time></trkpt><trkpt lat="38.44803" lon="16.3658117"><ele>858.3999999999999</ele><time>2026-04-09T09:51:52.228Z</time></trkpt><trkpt lat="38.4481417" lon="16.3657383"><ele>859.6</ele><time>2026-04-09T09:51:53.228Z</time></trkpt><trkpt lat="38.4482317" lon="16.3656967"><ele>860.8</ele><time>2026-04-09T09:51:54.228Z</time></trkpt><trkpt lat="38.4483167" lon="16.3656617"><ele>862.0</ele><time>2026-04-09T09:51:55.228Z</time></trkpt><trkpt lat="38.44839" lon="16.3656417"><ele>862.0</ele><time>2026-04-09T09:51:56.228Z</time></trkpt><trkpt lat="38.4484617" lon="16.3656183"><ele>862.0</ele><time>2026-04-09T09:51:57.228Z</time></trkpt><trkpt lat="38.448545" lon="16.3655883"><ele>862.0</ele><time>2026-04-09T09:51:58.228Z</time></trkpt><trkpt lat="38.4486317" lon="16.3655533"><ele>862.0</ele><time>2026-04-09T09:51:59.228Z</time></trkpt><trkpt lat="38.448705" lon="16.3655067"><ele>862.0</ele><time>2026-04-09T09:52:00.228Z</time></trkpt><trkpt lat="38.448805" lon="16.3654267"><ele>867.0</ele><time>2026-04-09T09:52:01.228Z</time></trkpt><trkpt lat="38.44891" lon="16.3653183"><ele>872.0</ele><time>2026-04-09T09:52:02.228Z</time></trkpt><trkpt lat="38.4490033" lon="16.3652"><ele>877.0</ele><time>2026-04-09T09:52:03.228Z</time></trkpt><trkpt lat="38.449095" lon="16.365085"><ele>882.0</ele><time>2026-04-09T09:52:04.228Z</time></trkpt><trkpt lat="38.4491983" lon="16.3649833"><ele>882.0</ele><time>2026-04-09T09:52:05.227Z</time></trkpt><trkpt lat="38.4493" lon="16.3648867"><ele>882.0</ele><time>2026-04-09T09:52:06.227Z</time></trkpt><trkpt lat="38.4494" lon="16.3647933"><ele>882.0</ele><time>2026-04-09T09:52:07.228Z</time></trkpt><trkpt lat="38.4495" lon="16.364705"><ele>882.0</ele><time>2026-04-09T09:52:08.228Z</time></trkpt><trkpt lat="38.44959" lon="16.3646133"><ele>885.5</ele><time>2026-04-09T09:52:09.228Z</time></trkpt><trkpt lat="38.4496833" lon="16.3644967"><ele>889.0</ele><time>2026-04-09T09:52:10.227Z</time></trkpt><trkpt lat="38.4497467" lon="16.364375"><ele>892.5</ele><time>2026-04-09T09:52:11.228Z</time></trkpt><trkpt lat="38.449815" lon="16.3642567"><ele>896.0</ele><time>2026-04-09T09:52:12.228Z</time></trkpt><trkpt lat="38.4498733" lon="16.3641367"><ele>896.0</ele><time>2026-04-09T09:52:13.228Z</time></trkpt><trkpt lat="38.4499417" lon="16.3640383"><ele>895.9999999999999</ele><time>2026-04-09T09:52:14.228Z</time></trkpt><trkpt lat="38.4500267" lon="16.36401"><ele>895.9999999999999</ele><time>2026-04-09T09:52:15.228Z</time></trkpt><trkpt lat="38.4501217" lon="16.3640167"><ele>896.0</ele><time>2026-04-09T09:52:16.228Z</time></trkpt><trkpt lat="38.450215" lon="16.3640617"><ele>896.0</ele><time>2026-04-09T09:52:17.228Z</time></trkpt><trkpt lat="38.4503067" lon="16.3641217"><ele>896.0</ele><time>2026-04-09T09:52:18.228Z</time></trkpt><trkpt lat="38.4504" lon="16.364185"><ele>895.9999999999999</ele><time>2026-04-09T09:52:19.228Z</time></trkpt><trkpt lat="38.4505" lon="16.3642383"><ele>895.9999999999999</ele><time>2026-04-09T09:52:20.228Z</time></trkpt><trkpt lat="38.45061" lon="16.3642717"><ele>896.0</ele><time>2026-04-09T09:52:21.227Z</time></trkpt><trkpt lat="38.4507233" lon="16.364275"><ele>896.0</ele><time>2026-04-09T09:52:22.228Z</time></trkpt><trkpt lat="38.4508383" lon="16.364255"><ele>898.0</ele><time>2026-04-09T09:52:23.228Z</time></trkpt><trkpt lat="38.45095" lon="16.36424"><ele>900.0</ele><time>2026-04-09T09:52:24.228Z</time></trkpt><trkpt lat="38.451065" lon="16.3642083"><ele>902.0</ele><time>2026-04-09T09:52:25.228Z</time></trkpt><trkpt lat="38.4511783" lon="16.3641917"><ele>904.0</ele><time>2026-04-09T09:52:26.228Z</time></trkpt><trkpt lat="38.451295" lon="16.3641867"><ele>906.25</ele><time>2026-04-09T09:52:27.228Z</time></trkpt><trkpt lat="38.4514117" lon="16.364205"><ele>908.5</ele><time>2026-04-09T09:52:28.228Z</time></trkpt><trkpt lat="38.45153" lon="16.36422"><ele>910.75</ele><time>2026-04-09T09:52:29.228Z</time></trkpt><trkpt lat="38.4516483" lon="16.3642317"><ele>913.0</ele><time>2026-04-09T09:52:30.228Z</time></trkpt><trkpt lat="38.4517717" lon="16.3642483"><ele>913.0</ele><time>2026-04-09T09:52:31.228Z</time></trkpt><trkpt lat="38.451895" lon="16.3642617"><ele>913.0</ele><time>2026-04-09T09:52:32.228Z</time></trkpt><trkpt lat="38.4520167" lon="16.36426"><ele>913.0</ele><time>2026-04-09T09:52:33.228Z</time></trkpt><trkpt lat="38.452125" lon="16.3642567"><ele>913.0</ele><time>2026-04-09T09:52:34.228Z</time></trkpt><trkpt lat="38.4522283" lon="16.36424"><ele>913.4</ele><time>2026-04-09T09:52:35.228Z</time></trkpt><trkpt lat="38.4523117" lon="16.3641867"><ele>913.8</ele><time>2026-04-09T09:52:36.227Z</time></trkpt><trkpt lat="38.452385" lon="16.3641067"><ele>914.2</ele><time>2026-04-09T09:52:37.228Z</time></trkpt><trkpt lat="38.452445" lon="16.364"><ele>914.6</ele><time>2026-04-09T09:52:38.228Z</time></trkpt><trkpt lat="38.452495" lon="16.3638817"><ele>915.0</ele><time>2026-04-09T09:52:39.228Z</time></trkpt><trkpt lat="38.452535" lon="16.3637517"><ele>920.25</ele><time>2026-04-09T09:52:40.228Z</time></trkpt><trkpt lat="38.452575" lon="16.36362"><ele>925.5</ele><time>2026-04-09T09:52:41.228Z</time></trkpt><trkpt lat="38.4526267" lon="16.36348"><ele>930.75</ele><time>2026-04-09T09:52:42.228Z</time></trkpt><trkpt lat="38.4526783" lon="16.3633383"><ele>936.0</ele><time>2026-04-09T09:52:43.228Z</time></trkpt><trkpt lat="38.45275" lon="16.3632067"><ele>936.0</ele><time>2026-04-09T09:52:44.228Z</time></trkpt><trkpt lat="38.4528283" lon="16.363075"><ele>936.0</ele><time>2026-04-09T09:52:45.227Z</time></trkpt><trkpt lat="38.4528833" lon="16.3629517"><ele>936.0</ele><time>2026-04-09T09:52:46.228Z</time></trkpt><trkpt lat="38.4529933" lon="16.3628467"><ele>936.0</ele><time>2026-04-09T09:52:47.228Z</time></trkpt><trkpt lat="38.45311" lon="16.362765"><ele>932.0</ele><time>2026-04-09T09:52:48.228Z</time></trkpt><trkpt lat="38.4532383" lon="16.3627083"><ele>928.0</ele><time>2026-04-09T09:52:49.228Z</time></trkpt><trkpt lat="38.45336" lon="16.362675"><ele>924.0</ele><time>2026-04-09T09:52:50.228Z</time></trkpt><trkpt lat="38.4535" lon="16.3626417"><ele>920.0</ele><time>2026-04-09T09:52:51.228Z</time></trkpt><trkpt lat="38.4536217" lon="16.362595"><ele>920.0</ele><time>2026-04-09T09:52:52.228Z</time></trkpt><trkpt lat="38.4537383" lon="16.3625367"><ele>920.0</ele><time>2026-04-09T09:52:53.227Z</time></trkpt><trkpt lat="38.45384" lon="16.3624867"><ele>920.0</ele><time>2026-04-09T09:52:54.228Z</time></trkpt><trkpt lat="38.4539417" lon="16.362445"><ele>920.0</ele><time>2026-04-09T09:52:55.228Z</time></trkpt><trkpt lat="38.4540183" lon="16.3624"><ele>920.0</ele><time>2026-04-09T09:52:56.228Z</time></trkpt><trkpt lat="38.4541" lon="16.36236"><ele>919.8333333333334</ele><time>2026-04-09T09:52:57.228Z</time></trkpt><trkpt lat="38.4541767" lon="16.3623383"><ele>919.6666666666667</ele><time>2026-04-09T09:52:58.227Z</time></trkpt><trkpt lat="38.4542583" lon="16.36232"><ele>919.5</ele><time>2026-04-09T09:52:59.228Z</time></trkpt><trkpt lat="38.4543217" lon="16.362315"><ele>919.3333333333333</ele><time>2026-04-09T09:53:00.228Z</time></trkpt><trkpt lat="38.454405" lon="16.3623"><ele>919.1666666666666</ele><time>2026-04-09T09:53:01.228Z</time></trkpt><trkpt lat="38.4544867" lon="16.3622883"><ele>919.0</ele><time>2026-04-09T09:53:02.228Z</time></trkpt><trkpt lat="38.4545767" lon="16.3622667"><ele>917.8000000000001</ele><time>2026-04-09T09:53:03.228Z</time></trkpt><trkpt lat="38.454665" lon="16.36224"><ele>916.6000000000001</ele><time>2026-04-09T09:53:04.228Z</time></trkpt><trkpt lat="38.4547583" lon="16.3622167"><ele>915.4</ele><time>2026-04-09T09:53:05.228Z</time></trkpt><trkpt lat="38.4548383" lon="16.3621983"><ele>914.2</ele><time>2026-04-09T09:53:06.228Z</time></trkpt><trkpt lat="38.4549367" lon="16.3621917"><ele>913.0</ele><time>2026-04-09T09:53:07.228Z</time></trkpt><trkpt lat="38.4550233" lon="16.3621783"><ele>911.9999999999999</ele><time>2026-04-09T09:53:08.228Z</time></trkpt><trkpt lat="38.4551" lon="16.3621683"><ele>911.0</ele><time>2026-04-09T09:53:09.228Z</time></trkpt><trkpt lat="38.455185" lon="16.3621533"><ele>910.0</ele><time>2026-04-09T09:53:10.228Z</time></trkpt><trkpt lat="38.4552667" lon="16.3621267"><ele>909.0</ele><time>2026-04-09T09:53:11.228Z</time></trkpt><trkpt lat="38.4553317" lon="16.3620883"><ele>907.9999999999999</ele><time>2026-04-09T09:53:12.228Z</time></trkpt><trkpt lat="38.4553917" lon="16.3620233"><ele>907.0</ele><time>2026-04-09T09:53:13.228Z</time></trkpt><trkpt lat="38.4554317" lon="16.3619417"><ele>907.6666666666666</ele><time>2026-04-09T09:53:14.227Z</time></trkpt><trkpt lat="38.4554633" lon="16.361845"><ele>908.3333333333333</ele><time>2026-04-09T09:53:15.227Z</time></trkpt><trkpt lat="38.4555" lon="16.36174"><ele>909.0</ele><time>2026-04-09T09:53:16.228Z</time></trkpt><trkpt lat="38.4555383" lon="16.3616383"><ele>909.6666666666667</ele><time>2026-04-09T09:53:17.228Z</time></trkpt><trkpt lat="38.45559" lon="16.361565"><ele>910.3333333333334</ele><time>2026-04-09T09:53:18.228Z</time></trkpt><trkpt lat="38.455655" lon="16.3615017"><ele>911.0</ele><time>2026-04-09T09:53:19.228Z</time></trkpt><trkpt lat="38.4557183" lon="16.3614583"><ele>911.0000000000001</ele><time>2026-04-09T09:53:20.228Z</time></trkpt><trkpt lat="38.4557883" lon="16.3614333"><ele>911.0</ele><time>2026-04-09T09:53:21.228Z</time></trkpt><trkpt lat="38.4558617" lon="16.3614367"><ele>911.0</ele><time>2026-04-09T09:53:22.228Z</time></trkpt><trkpt lat="38.4559583" lon="16.361445"><ele>911.0</ele><time>2026-04-09T09:53:23.227Z</time></trkpt><trkpt lat="38.45605" lon="16.3614517"><ele>911.0000000000001</ele><time>2026-04-09T09:53:24.228Z</time></trkpt><trkpt lat="38.4561383" lon="16.36144"><ele>911.0</ele><time>2026-04-09T09:53:25.228Z</time></trkpt><trkpt lat="38.4563033" lon="16.361335"><ele>913.75</ele><time>2026-04-09T09:53:27.228Z</time></trkpt><trkpt lat="38.4564067" lon="16.3612483"><ele>916.5</ele><time>2026-04-09T09:53:28.228Z</time></trkpt><trkpt lat="38.4565033" lon="16.36114"><ele>919.25</ele><time>2026-04-09T09:53:29.228Z</time></trkpt><trkpt lat="38.4566" lon="16.3610383"><ele>922.0</ele><time>2026-04-09T09:53:30.228Z</time></trkpt><trkpt lat="38.4567" lon="16.36094"><ele>922.0</ele><time>2026-04-09T09:53:31.228Z</time></trkpt><trkpt lat="38.4567967" lon="16.36086"><ele>922.0</ele><time>2026-04-09T09:53:32.228Z</time></trkpt><trkpt lat="38.4568817" lon="16.3607933"><ele>922.0</ele><time>2026-04-09T09:53:33.228Z</time></trkpt><trkpt lat="38.4569717" lon="16.3607367"><ele>922.0</ele><time>2026-04-09T09:53:34.228Z</time></trkpt><trkpt lat="38.4570617" lon="16.3606867"><ele>922.0</ele><time>2026-04-09T09:53:35.227Z</time></trkpt><trkpt lat="38.4571467" lon="16.36064"><ele>920.0</ele><time>2026-04-09T09:53:36.228Z</time></trkpt><trkpt lat="38.457225" lon="16.3605883"><ele>918.0</ele><time>2026-04-09T09:53:37.228Z</time></trkpt><trkpt lat="38.4573017" lon="16.3604983"><ele>916.0</ele><time>2026-04-09T09:53:38.228Z</time></trkpt><trkpt lat="38.457385" lon="16.3603833"><ele>914.0</ele><time>2026-04-09T09:53:39.228Z</time></trkpt><trkpt lat="38.45748" lon="16.3602683"><ele>912.0</ele><time>2026-04-09T09:53:40.228Z</time></trkpt><trkpt lat="38.4575583" lon="16.3601567"><ele>912.0</ele><time>2026-04-09T09:53:41.228Z</time></trkpt><trkpt lat="38.4576633" lon="16.3600683"><ele>912.0</ele><time>2026-04-09T09:53:42.228Z</time></trkpt><trkpt lat="38.4577717" lon="16.3599733"><ele>912.0</ele><time>2026-04-09T09:53:43.228Z</time></trkpt><trkpt lat="38.4578633" lon="16.3598733"><ele>912.0</ele><time>2026-04-09T09:53:44.228Z</time></trkpt><trkpt lat="38.4579583" lon="16.3597483"><ele>909.25</ele><time>2026-04-09T09:53:45.228Z</time></trkpt><trkpt lat="38.4580567" lon="16.3596317"><ele>906.5</ele><time>2026-04-09T09:53:46.228Z</time></trkpt><trkpt lat="38.4581533" lon="16.3595383"><ele>903.75</ele><time>2026-04-09T09:53:47.228Z</time></trkpt><trkpt lat="38.4582633" lon="16.3594617"><ele>901.0</ele><time>2026-04-09T09:53:48.228Z</time></trkpt><trkpt lat="38.458385" lon="16.3593867"><ele>901.0</ele><time>2026-04-09T09:53:49.228Z</time></trkpt><trkpt lat="38.4585167" lon="16.3593217"><ele>901.0</ele><time>2026-04-09T09:53:50.228Z</time></trkpt><trkpt lat="38.458635" lon="16.359235"><ele>901.0</ele><time>2026-04-09T09:53:51.228Z</time></trkpt><trkpt lat="38.4587533" lon="16.3591333"><ele>901.0</ele><time>2026-04-09T09:53:52.228Z</time></trkpt><trkpt lat="38.4588717" lon="16.359"><ele>902.75</ele><time>2026-04-09T09:53:53.228Z</time></trkpt><trkpt lat="38.4590017" lon="16.358885"><ele>904.5</ele><time>2026-04-09T09:53:54.228Z</time></trkpt><trkpt lat="38.4591083" lon="16.358795"><ele>906.25</ele><time>2026-04-09T09:53:55.228Z</time></trkpt><trkpt lat="38.4591967" lon="16.3586783"><ele>908.0</ele><time>2026-04-09T09:53:56.228Z</time></trkpt><trkpt lat="38.4592433" lon="16.358525"><ele>909.5999999999999</ele><time>2026-04-09T09:53:57.228Z</time></trkpt><trkpt lat="38.4592633" lon="16.3583733"><ele>911.1999999999999</ele><time>2026-04-09T09:53:58.228Z</time></trkpt><trkpt lat="38.45929" lon="16.35824"><ele>912.8</ele><time>2026-04-09T09:53:59.228Z</time></trkpt><trkpt lat="38.45933" lon="16.35813"><ele>914.4</ele><time>2026-04-09T09:54:00.228Z</time></trkpt><trkpt lat="38.4593867" lon="16.3580633"><ele>916.0</ele><time>2026-04-09T09:54:01.228Z</time></trkpt><trkpt lat="38.4594717" lon="16.3580533"><ele>916.0</ele><time>2026-04-09T09:54:02.228Z</time></trkpt><trkpt lat="38.459575" lon="16.3580767"><ele>916.0</ele><time>2026-04-09T09:54:03.228Z</time></trkpt><trkpt lat="38.4597067" lon="16.3581267"><ele>916.0</ele><time>2026-04-09T09:54:04.228Z</time></trkpt><trkpt lat="38.4598583" lon="16.35822"><ele>916.0</ele><time>2026-04-09T09:54:05.228Z</time></trkpt><trkpt lat="38.4600317" lon="16.3583117"><ele>922.3333333333333</ele><time>2026-04-09T09:54:06.228Z</time></trkpt><trkpt lat="38.460205" lon="16.3583317"><ele>928.6666666666667</ele><time>2026-04-09T09:54:07.228Z</time></trkpt><trkpt lat="38.460365" lon="16.3583067"><ele>935.0</ele><time>2026-04-09T09:54:08.228Z</time></trkpt><trkpt lat="38.4604967" lon="16.3582683"><ele>935.25</ele><time>2026-04-09T09:54:09.228Z</time></trkpt><trkpt lat="38.4606017" lon="16.3581833"><ele>935.5</ele><time>2026-04-09T09:54:10.228Z</time></trkpt><trkpt lat="38.4606733" lon="16.3580717"><ele>935.75</ele><time>2026-04-09T09:54:11.228Z</time></trkpt><trkpt lat="38.4607533" lon="16.3579633"><ele>936.0</ele><time>2026-04-09T09:54:12.228Z</time></trkpt><trkpt lat="38.46084" lon="16.35787"><ele>943.5</ele><time>2026-04-09T09:54:13.228Z</time></trkpt><trkpt lat="38.46091" lon="16.35782"><ele>951.0</ele><time>2026-04-09T09:54:14.228Z</time></trkpt><trkpt lat="38.461025" lon="16.357805"><ele>958.5</ele><time>2026-04-09T09:54:15.228Z</time></trkpt><trkpt lat="38.4611533" lon="16.3578183"><ele>966.0</ele><time>2026-04-09T09:54:16.228Z</time></trkpt><trkpt lat="38.461295" lon="16.3578483"><ele>966.0</ele><time>2026-04-09T09:54:17.228Z</time></trkpt><trkpt lat="38.4614283" lon="16.3578983"><ele>966.0</ele><time>2026-04-09T09:54:18.228Z</time></trkpt><trkpt lat="38.4615567" lon="16.3579567"><ele>966.0</ele><time>2026-04-09T09:54:19.228Z</time></trkpt><trkpt lat="38.4616633" lon="16.35801"><ele>966.0</ele><time>2026-04-09T09:54:20.228Z</time></trkpt><trkpt lat="38.4617717" lon="16.3580467"><ele>966.0</ele><time>2026-04-09T09:54:21.228Z</time></trkpt><trkpt lat="38.4618733" lon="16.35806"><ele>965.9999999999999</ele><time>2026-04-09T09:54:22.228Z</time></trkpt><trkpt lat="38.4619633" lon="16.3580317"><ele>965.9999999999999</ele><time>2026-04-09T09:54:23.227Z</time></trkpt><trkpt lat="38.4620483" lon="16.3579867"><ele>966.0</ele><time>2026-04-09T09:54:24.228Z</time></trkpt><trkpt lat="38.4621267" lon="16.3579267"><ele>966.0</ele><time>2026-04-09T09:54:25.228Z</time></trkpt><trkpt lat="38.4621683" lon="16.3578333"><ele>966.0</ele><time>2026-04-09T09:54:26.228Z</time></trkpt><trkpt lat="38.4621867" lon="16.3577217"><ele>965.9999999999999</ele><time>2026-04-09T09:54:27.228Z</time></trkpt><trkpt lat="38.4621883" lon="16.357605"><ele>965.9999999999999</ele><time>2026-04-09T09:54:28.228Z</time></trkpt><trkpt lat="38.462175" lon="16.3575033"><ele>966.0</ele><time>2026-04-09T09:54:29.228Z</time></trkpt><trkpt lat="38.4621333" lon="16.3573983"><ele>966.0</ele><time>2026-04-09T09:54:30.228Z</time></trkpt><trkpt lat="38.4620633" lon="16.3572983"><ele>966.0</ele><time>2026-04-09T09:54:31.227Z</time></trkpt><trkpt lat="38.461985" lon="16.3572333"><ele>965.9999999999999</ele><time>2026-04-09T09:54:32.227Z</time></trkpt><trkpt lat="38.4618783" lon="16.3571967"><ele>965.9999999999999</ele><time>2026-04-09T09:54:33.228Z</time></trkpt><trkpt lat="38.461785" lon="16.35713"><ele>966.0</ele><time>2026-04-09T09:54:34.228Z</time></trkpt><trkpt lat="38.4616833" lon="16.3570617"><ele>966.0</ele><time>2026-04-09T09:54:35.228Z</time></trkpt><trkpt lat="38.4615933" lon="16.3569883"><ele>965.8</ele><time>2026-04-09T09:54:36.227Z</time></trkpt><trkpt lat="38.4615583" lon="16.3568733"><ele>965.5999999999999</ele><time>2026-04-09T09:54:37.228Z</time></trkpt><trkpt lat="38.46155" lon="16.3567333"><ele>965.4</ele><time>2026-04-09T09:54:38.228Z</time></trkpt><trkpt lat="38.4615667" lon="16.3566"><ele>965.2</ele><time>2026-04-09T09:54:39.228Z</time></trkpt><trkpt lat="38.4615883" lon="16.3564717"><ele>965.0</ele><time>2026-04-09T09:54:40.228Z</time></trkpt><trkpt lat="38.4616267" lon="16.356345"><ele>965.0</ele><time>2026-04-09T09:54:41.228Z</time></trkpt><trkpt lat="38.4616617" lon="16.3562133"><ele>965.0</ele><time>2026-04-09T09:54:42.228Z</time></trkpt><trkpt lat="38.4616883" lon="16.356085"><ele>965.0</ele><time>2026-04-09T09:54:43.228Z</time></trkpt><trkpt lat="38.4616883" lon="16.355975"><ele>965.0</ele><time>2026-04-09T09:54:44.228Z</time></trkpt><trkpt lat="38.4616833" lon="16.35586"><ele>965.0</ele><time>2026-04-09T09:54:45.227Z</time></trkpt><trkpt lat="38.4616867" lon="16.355755"><ele>965.0000000000001</ele><time>2026-04-09T09:54:46.228Z</time></trkpt><trkpt lat="38.461705" lon="16.35565"><ele>965.0</ele><time>2026-04-09T09:54:47.228Z</time></trkpt><trkpt lat="38.4617333" lon="16.3555483"><ele>965.0</ele><time>2026-04-09T09:54:48.228Z</time></trkpt><trkpt lat="38.46178" lon="16.3554567"><ele>965.0</ele><time>2026-04-09T09:54:49.228Z</time></trkpt><trkpt lat="38.461835" lon="16.355385"><ele>965.0000000000001</ele><time>2026-04-09T09:54:50.228Z</time></trkpt><trkpt lat="38.4619033" lon="16.3553433"><ele>965.0</ele><time>2026-04-09T09:54:51.228Z</time></trkpt><trkpt lat="38.4619667" lon="16.3553083"><ele>964.8333333333334</ele><time>2026-04-09T09:54:52.228Z</time></trkpt><trkpt lat="38.4620317" lon="16.3552733"><ele>964.6666666666667</ele><time>2026-04-09T09:54:53.228Z</time></trkpt><trkpt lat="38.4621017" lon="16.3552217"><ele>964.5</ele><time>2026-04-09T09:54:54.228Z</time></trkpt><trkpt lat="38.4621683" lon="16.3551667"><ele>964.3333333333333</ele><time>2026-04-09T09:54:55.228Z</time></trkpt><trkpt lat="38.462235" lon="16.3551083"><ele>964.1666666666666</ele><time>2026-04-09T09:54:56.227Z</time></trkpt><trkpt lat="38.4623067" lon="16.355045"><ele>964.0</ele><time>2026-04-09T09:54:57.228Z</time></trkpt><trkpt lat="38.4623817" lon="16.3549867"><ele>965.8333333333333</ele><time>2026-04-09T09:54:58.228Z</time></trkpt><trkpt lat="38.46245" lon="16.3549367"><ele>967.6666666666666</ele><time>2026-04-09T09:54:59.228Z</time></trkpt><trkpt lat="38.4625117" lon="16.3548783"><ele>969.5</ele><time>2026-04-09T09:55:00.228Z</time></trkpt><trkpt lat="38.4625683" lon="16.3548067"><ele>971.3333333333333</ele><time>2026-04-09T09:55:01.228Z</time></trkpt><trkpt lat="38.4626117" lon="16.3547267"><ele>973.1666666666666</ele><time>2026-04-09T09:55:02.228Z</time></trkpt><trkpt lat="38.462645" lon="16.3546217"><ele>975.0</ele><time>2026-04-09T09:55:03.228Z</time></trkpt><trkpt lat="38.462675" lon="16.35451"><ele>977.1666666666666</ele><time>2026-04-09T09:55:04.228Z</time></trkpt><trkpt lat="38.4626967" lon="16.3543983"><ele>979.3333333333333</ele><time>2026-04-09T09:55:05.228Z</time></trkpt><trkpt lat="38.4627167" lon="16.35429"><ele>981.5</ele><time>2026-04-09T09:55:06.228Z</time></trkpt><trkpt lat="38.4627333" lon="16.3541967"><ele>983.6666666666666</ele><time>2026-04-09T09:55:07.228Z</time></trkpt><trkpt lat="38.4627483" lon="16.354075"><ele>985.8333333333333</ele><time>2026-04-09T09:55:09.228Z</time></trkpt><trkpt lat="38.462775" lon="16.3539767"><ele>988.0</ele><time>2026-04-09T09:55:11.228Z</time></trkpt><trkpt lat="38.4628133" lon="16.35387"><ele>987.9999999999999</ele><time>2026-04-09T09:55:13.228Z</time></trkpt><trkpt lat="38.4628233" lon="16.3537733"><ele>988.0</ele><time>2026-04-09T09:55:16.228Z</time></trkpt><trkpt lat="38.4627733" lon="16.353835"><ele>988.0</ele><time>2026-04-09T09:55:20.228Z</time></trkpt><trkpt lat="38.4627267" lon="16.3539017"><ele>988.0</ele><time>2026-04-09T09:55:22.228Z</time></trkpt><trkpt lat="38.4626833" lon="16.3539683"><ele>987.9999999999999</ele><time>2026-04-09T09:55:24.228Z</time></trkpt><trkpt lat="38.4625967" lon="16.3540633"><ele>988.0</ele><time>2026-04-09T09:55:26.228Z</time></trkpt><trkpt lat="38.4625467" lon="16.3541267"><ele>987.9999999999999</ele><time>2026-04-09T09:55:27.227Z</time></trkpt><trkpt lat="38.4624833" lon="16.3542133"><ele>988.0</ele><time>2026-04-09T09:55:28.228Z</time></trkpt><trkpt lat="38.4624033" lon="16.3542933"><ele>988.0</ele><time>2026-04-09T09:55:29.228Z</time></trkpt><trkpt lat="38.4623517" lon="16.3543433"><ele>988.0</ele><time>2026-04-09T09:55:30.228Z</time></trkpt><trkpt lat="38.462265" lon="16.35436"><ele>987.9999999999999</ele><time>2026-04-09T09:55:32.228Z</time></trkpt><trkpt lat="38.4622417" lon="16.3542733"><ele>988.0</ele><time>2026-04-09T09:55:34.228Z</time></trkpt><trkpt lat="38.4622683" lon="16.35419"><ele>988.0</ele><time>2026-04-09T09:55:49.228Z</time></trkpt><trkpt lat="38.4622833" lon="16.3540767"><ele>988.0</ele><time>2026-04-09T09:55:51.228Z</time></trkpt><trkpt lat="38.4622967" lon="16.35392"><ele>988.0</ele><time>2026-04-09T09:55:53.228Z</time></trkpt><trkpt lat="38.4623067" lon="16.353835"><ele>988.0</ele><time>2026-04-09T09:55:54.228Z</time></trkpt><trkpt lat="38.46232" lon="16.353735"><ele>988.0</ele><time>2026-04-09T09:55:55.228Z</time></trkpt><trkpt lat="38.462325" lon="16.353615"><ele>990.8</ele><time>2026-04-09T09:55:56.228Z</time></trkpt><trkpt lat="38.4623167" lon="16.353485"><ele>993.5999999999999</ele><time>2026-04-09T09:55:57.228Z</time></trkpt><trkpt lat="38.4622983" lon="16.3533567"><ele>996.4000000000001</ele><time>2026-04-09T09:55:58.228Z</time></trkpt><trkpt lat="38.462275" lon="16.35323"><ele>999.2</ele><time>2026-04-09T09:55:59.228Z</time></trkpt><trkpt lat="38.4622567" lon="16.3531067"><ele>1002.0</ele><time>2026-04-09T09:56:00.228Z</time></trkpt><trkpt lat="38.4622483" lon="16.3529717"><ele>1003.6</ele><time>2026-04-09T09:56:01.228Z</time></trkpt><trkpt lat="38.4622533" lon="16.352835"><ele>1005.2</ele><time>2026-04-09T09:56:02.228Z</time></trkpt><trkpt lat="38.4622683" lon="16.3526983"><ele>1006.8</ele><time>2026-04-09T09:56:03.228Z</time></trkpt><trkpt lat="38.462285" lon="16.3525717"><ele>1008.4</ele><time>2026-04-09T09:56:04.228Z</time></trkpt><trkpt lat="38.4623" lon="16.3524667"><ele>1010.0</ele><time>2026-04-09T09:56:05.228Z</time></trkpt><trkpt lat="38.4623133" lon="16.3523733"><ele>1010.0000000000001</ele><time>2026-04-09T09:56:06.228Z</time></trkpt><trkpt lat="38.4623383" lon="16.352295"><ele>1010.0</ele><time>2026-04-09T09:56:07.228Z</time></trkpt><trkpt lat="38.4623883" lon="16.352195"><ele>1010.0</ele><time>2026-04-09T09:56:09.228Z</time></trkpt><trkpt lat="38.4624283" lon="16.35205"><ele>1010.0</ele><time>2026-04-09T09:56:11.228Z</time></trkpt><trkpt lat="38.46245" lon="16.35196"><ele>1010.0000000000001</ele><time>2026-04-09T09:56:12.228Z</time></trkpt><trkpt lat="38.4624733" lon="16.3518533"><ele>1010.0</ele><time>2026-04-09T09:56:13.228Z</time></trkpt><trkpt lat="38.4624883" lon="16.3517383"><ele>1010.0</ele><time>2026-04-09T09:56:14.228Z</time></trkpt><trkpt lat="38.4624983" lon="16.3516233"><ele>1010.0</ele><time>2026-04-09T09:56:15.228Z</time></trkpt><trkpt lat="38.4625067" lon="16.3515033"><ele>1010.0</ele><time>2026-04-09T09:56:16.228Z</time></trkpt><trkpt lat="38.4625067" lon="16.3513967"><ele>1010.0</ele><time>2026-04-09T09:56:17.228Z</time></trkpt><trkpt lat="38.4625" lon="16.3512833"><ele>1010.0</ele><time>2026-04-09T09:56:18.228Z</time></trkpt><trkpt lat="38.4624833" lon="16.351165"><ele>1012.0</ele><time>2026-04-09T09:56:19.228Z</time></trkpt><trkpt lat="38.4624567" lon="16.3510517"><ele>1014.0</ele><time>2026-04-09T09:56:20.227Z</time></trkpt><trkpt lat="38.46243" lon="16.35093"><ele>1016.0</ele><time>2026-04-09T09:56:21.228Z</time></trkpt><trkpt lat="38.46241" lon="16.3508183"><ele>1018.0</ele><time>2026-04-09T09:56:22.228Z</time></trkpt><trkpt lat="38.4623883" lon="16.3507067"><ele>1020.0</ele><time>2026-04-09T09:56:23.228Z</time></trkpt><trkpt lat="38.4623667" lon="16.350605"><ele>1022.1666666666666</ele><time>2026-04-09T09:56:24.228Z</time></trkpt><trkpt lat="38.4623333" lon="16.350505"><ele>1024.3333333333333</ele><time>2026-04-09T09:56:25.228Z</time></trkpt><trkpt lat="38.4622933" lon="16.350405"><ele>1026.5</ele><time>2026-04-09T09:56:26.228Z</time></trkpt><trkpt lat="38.4622483" lon="16.3503133"><ele>1028.6666666666665</ele><time>2026-04-09T09:56:27.228Z</time></trkpt><trkpt lat="38.4621867" lon="16.3502383"><ele>1030.8333333333333</ele><time>2026-04-09T09:56:28.228Z</time></trkpt><trkpt lat="38.4621" lon="16.3501883"><ele>1033.0</ele><time>2026-04-09T09:56:29.228Z</time></trkpt><trkpt lat="38.461985" lon="16.3501567"><ele>1024.25</ele><time>2026-04-09T09:56:30.228Z</time></trkpt><trkpt lat="38.461875" lon="16.3501167"><ele>1015.5</ele><time>2026-04-09T09:56:31.228Z</time></trkpt><trkpt lat="38.4617633" lon="16.3500483"><ele>1006.75</ele><time>2026-04-09T09:56:32.228Z</time></trkpt><trkpt lat="38.4616483" lon="16.3499733"><ele>998.0</ele><time>2026-04-09T09:56:33.228Z</time></trkpt><trkpt lat="38.461525" lon="16.349895"><ele>998.0</ele><time>2026-04-09T09:56:34.228Z</time></trkpt><trkpt lat="38.4614083" lon="16.34981"><ele>998.0</ele><time>2026-04-09T09:56:35.228Z</time></trkpt><trkpt lat="38.4612933" lon="16.3497267"><ele>998.0</ele><time>2026-04-09T09:56:36.228Z</time></trkpt><trkpt lat="38.4611783" lon="16.3496433"><ele>998.0</ele><time>2026-04-09T09:56:37.228Z</time></trkpt><trkpt lat="38.461075" lon="16.3495833"><ele>995.75</ele><time>2026-04-09T09:56:38.228Z</time></trkpt><trkpt lat="38.4609633" lon="16.3495283"><ele>993.5</ele><time>2026-04-09T09:56:39.227Z</time></trkpt><trkpt lat="38.46085" lon="16.3494833"><ele>991.25</ele><time>2026-04-09T09:56:40.228Z</time></trkpt><trkpt lat="38.4607333" lon="16.3494483"><ele>989.0</ele><time>2026-04-09T09:56:41.228Z</time></trkpt><trkpt lat="38.460625" lon="16.3493933"><ele>989.0</ele><time>2026-04-09T09:56:42.228Z</time></trkpt><trkpt lat="38.4605367" lon="16.3493067"><ele>989.0000000000001</ele><time>2026-04-09T09:56:43.228Z</time></trkpt><trkpt lat="38.4604533" lon="16.349195"><ele>989.0000000000001</ele><time>2026-04-09T09:56:44.228Z</time></trkpt><trkpt lat="38.4603767" lon="16.349085"><ele>989.0</ele><time>2026-04-09T09:56:45.228Z</time></trkpt><trkpt lat="38.4603167" lon="16.349"><ele>989.0</ele><time>2026-04-09T09:56:46.227Z</time></trkpt><trkpt lat="38.460265" lon="16.3489417"><ele>983.4000000000001</ele><time>2026-04-09T09:56:47.228Z</time></trkpt><trkpt lat="38.4601667" lon="16.3489233"><ele>977.8000000000001</ele><time>2026-04-09T09:56:49.227Z</time></trkpt><trkpt lat="38.4601167" lon="16.3490183"><ele>972.1999999999999</ele><time>2026-04-09T09:56:51.228Z</time></trkpt><trkpt lat="38.4601733" lon="16.349175"><ele>966.5999999999999</ele><time>2026-04-09T09:56:53.228Z</time></trkpt><trkpt lat="38.4602133" lon="16.3492633"><ele>961.0</ele><time>2026-04-09T09:56:54.228Z</time></trkpt><trkpt lat="38.4602333" lon="16.3493733"><ele>961.0</ele><time>2026-04-09T09:56:55.228Z</time></trkpt><trkpt lat="38.4602233" lon="16.3494833"><ele>960.9999999999999</ele><time>2026-04-09T09:56:56.228Z</time></trkpt><trkpt lat="38.4601833" lon="16.3495967"><ele>960.9999999999999</ele><time>2026-04-09T09:56:57.228Z</time></trkpt><trkpt lat="38.4601617" lon="16.3497233"><ele>961.0</ele><time>2026-04-09T09:56:58.228Z</time></trkpt><trkpt lat="38.46017" lon="16.3498567"><ele>961.0</ele><time>2026-04-09T09:56:59.228Z</time></trkpt><trkpt lat="38.4602033" lon="16.34996"><ele>959.9999999999999</ele><time>2026-04-09T09:57:00.227Z</time></trkpt><trkpt lat="38.4602567" lon="16.3500517"><ele>959.0</ele><time>2026-04-09T09:57:01.228Z</time></trkpt><trkpt lat="38.460285" lon="16.350175"><ele>958.0</ele><time>2026-04-09T09:57:03.228Z</time></trkpt><trkpt lat="38.4601983" lon="16.35022"><ele>957.0</ele><time>2026-04-09T09:57:06.227Z</time></trkpt><trkpt lat="38.460145" lon="16.35017"><ele>955.9999999999999</ele><time>2026-04-09T09:57:07.228Z</time></trkpt><trkpt lat="38.4600783" lon="16.3500867"><ele>955.0</ele><time>2026-04-09T09:57:08.228Z</time></trkpt><trkpt lat="38.4600033" lon="16.3500067"><ele>954.9999999999999</ele><time>2026-04-09T09:57:09.227Z</time></trkpt><trkpt lat="38.4599417" lon="16.3499283"><ele>955.0</ele><time>2026-04-09T09:57:10.228Z</time></trkpt><trkpt lat="38.459895" lon="16.349835"><ele>955.0</ele><time>2026-04-09T09:57:11.228Z</time></trkpt><trkpt lat="38.4598583" lon="16.3497317"><ele>955.0</ele><time>2026-04-09T09:57:12.228Z</time></trkpt><trkpt lat="38.4598433" lon="16.349645"><ele>954.9999999999999</ele><time>2026-04-09T09:57:13.228Z</time></trkpt><trkpt lat="38.4598483" lon="16.3495567"><ele>955.0</ele><time>2026-04-09T09:57:14.227Z</time></trkpt><trkpt lat="38.4598633" lon="16.34947"><ele>956.2</ele><time>2026-04-09T09:57:15.228Z</time></trkpt><trkpt lat="38.4598717" lon="16.34938"><ele>957.4</ele><time>2026-04-09T09:57:16.228Z</time></trkpt><trkpt lat="38.4598133" lon="16.3492767"><ele>958.5999999999999</ele><time>2026-04-09T09:57:18.228Z</time></trkpt><trkpt lat="38.4597117" lon="16.3493067"><ele>959.8</ele><time>2026-04-09T09:57:20.228Z</time></trkpt><trkpt lat="38.4596367" lon="16.349455"><ele>961.0</ele><time>2026-04-09T09:57:22.228Z</time></trkpt><trkpt lat="38.4596133" lon="16.349565"><ele>952.8</ele><time>2026-04-09T09:57:23.228Z</time></trkpt><trkpt lat="38.459595" lon="16.3496817"><ele>944.5999999999999</ele><time>2026-04-09T09:57:24.228Z</time></trkpt><trkpt lat="38.45958" lon="16.3497917"><ele>936.4</ele><time>2026-04-09T09:57:25.228Z</time></trkpt><trkpt lat="38.45957" lon="16.3499117"><ele>928.2</ele><time>2026-04-09T09:57:26.228Z</time></trkpt><trkpt lat="38.4595783" lon="16.350035"><ele>920.0</ele><time>2026-04-09T09:57:27.228Z</time></trkpt><trkpt lat="38.4595933" lon="16.3501483"><ele>920.0000000000001</ele><time>2026-04-09T09:57:28.228Z</time></trkpt><trkpt lat="38.459605" lon="16.35025"><ele>920.0</ele><time>2026-04-09T09:57:29.228Z</time></trkpt><trkpt lat="38.4596033" lon="16.350345"><ele>920.0</ele><time>2026-04-09T09:57:30.228Z</time></trkpt><trkpt lat="38.4595533" lon="16.3504567"><ele>920.0</ele><time>2026-04-09T09:57:32.228Z</time></trkpt><trkpt lat="38.4594417" lon="16.3504117"><ele>920.0000000000001</ele><time>2026-04-09T09:57:34.228Z</time></trkpt><trkpt lat="38.4593883" lon="16.3503417"><ele>920.0</ele><time>2026-04-09T09:57:35.228Z</time></trkpt><trkpt lat="38.4593767" lon="16.350235"><ele>920.0</ele><time>2026-04-09T09:57:36.228Z</time></trkpt><trkpt lat="38.4593967" lon="16.3501117"><ele>920.0</ele><time>2026-04-09T09:57:37.227Z</time></trkpt><trkpt lat="38.4594233" lon="16.3499883"><ele>920.0</ele><time>2026-04-09T09:57:38.227Z</time></trkpt><trkpt lat="38.4594433" lon="16.3498633"><ele>920.0</ele><time>2026-04-09T09:57:39.228Z</time></trkpt><trkpt lat="38.45945" lon="16.3497233"><ele>920.0</ele><time>2026-04-09T09:57:40.228Z</time></trkpt><trkpt lat="38.459445" lon="16.3495983"><ele>919.1666666666667</ele><time>2026-04-09T09:57:41.228Z</time></trkpt><trkpt lat="38.4594433" lon="16.349495"><ele>918.3333333333334</ele><time>2026-04-09T09:57:42.228Z</time></trkpt><trkpt lat="38.459455" lon="16.3493933"><ele>917.5</ele><time>2026-04-09T09:57:43.228Z</time></trkpt><trkpt lat="38.4594767" lon="16.3492967"><ele>916.6666666666667</ele><time>2026-04-09T09:57:44.228Z</time></trkpt><trkpt lat="38.45949" lon="16.3491983"><ele>915.8333333333334</ele><time>2026-04-09T09:57:45.228Z</time></trkpt><trkpt lat="38.4594983" lon="16.3490917"><ele>915.0</ele><time>2026-04-09T09:57:46.227Z</time></trkpt><trkpt lat="38.45949" lon="16.348985"><ele>915.0</ele><time>2026-04-09T09:57:47.228Z</time></trkpt><trkpt lat="38.4594733" lon="16.3488883"><ele>915.0</ele><time>2026-04-09T09:57:48.228Z</time></trkpt><trkpt lat="38.459455" lon="16.3487967"><ele>915.0</ele><time>2026-04-09T09:57:49.228Z</time></trkpt><trkpt lat="38.4594167" lon="16.3487067"><ele>915.0</ele><time>2026-04-09T09:57:50.228Z</time></trkpt><trkpt lat="38.4593567" lon="16.34864"><ele>915.0</ele><time>2026-04-09T09:57:51.228Z</time></trkpt><trkpt lat="38.4592817" lon="16.3485717"><ele>915.0</ele><time>2026-04-09T09:57:52.228Z</time></trkpt><trkpt lat="38.4592" lon="16.3485117"><ele>912.8</ele><time>2026-04-09T09:57:53.228Z</time></trkpt><trkpt lat="38.4591117" lon="16.3484533"><ele>910.6</ele><time>2026-04-09T09:57:54.228Z</time></trkpt><trkpt lat="38.45902" lon="16.3484117"><ele>908.4000000000001</ele><time>2026-04-09T09:57:55.228Z</time></trkpt><trkpt lat="38.458915" lon="16.3483683"><ele>906.2</ele><time>2026-04-09T09:57:56.228Z</time></trkpt><trkpt lat="38.4588017" lon="16.348335"><ele>904.0</ele><time>2026-04-09T09:57:57.228Z</time></trkpt><trkpt lat="38.4586833" lon="16.3483017"><ele>904.0</ele><time>2026-04-09T09:57:58.228Z</time></trkpt><trkpt lat="38.45857" lon="16.3482667"><ele>904.0</ele><time>2026-04-09T09:57:59.228Z</time></trkpt><trkpt lat="38.45846" lon="16.3482383"><ele>904.0</ele><time>2026-04-09T09:58:00.228Z</time></trkpt><trkpt lat="38.4583417" lon="16.348225"><ele>904.0</ele><time>2026-04-09T09:58:01.228Z</time></trkpt><trkpt lat="38.4582433" lon="16.3481867"><ele>904.0</ele><time>2026-04-09T09:58:02.227Z</time></trkpt><trkpt lat="38.4581533" lon="16.3481283"><ele>904.0000000000001</ele><time>2026-04-09T09:58:03.228Z</time></trkpt><trkpt lat="38.4580683" lon="16.348075"><ele>904.0000000000001</ele><time>2026-04-09T09:58:04.228Z</time></trkpt><trkpt lat="38.4579883" lon="16.348055"><ele>904.0</ele><time>2026-04-09T09:58:05.228Z</time></trkpt><trkpt lat="38.4578983" lon="16.3480483"><ele>904.0</ele><time>2026-04-09T09:58:06.228Z</time></trkpt><trkpt lat="38.457805" lon="16.348055"><ele>902.2</ele><time>2026-04-09T09:58:07.228Z</time></trkpt><trkpt lat="38.4577117" lon="16.3480533"><ele>900.4000000000001</ele><time>2026-04-09T09:58:08.227Z</time></trkpt><trkpt lat="38.4576383" lon="16.34804"><ele>898.6</ele><time>2026-04-09T09:58:09.227Z</time></trkpt><trkpt lat="38.4575767" lon="16.3480083"><ele>896.8</ele><time>2026-04-09T09:58:10.228Z</time></trkpt><trkpt lat="38.457515" lon="16.3478867"><ele>895.0</ele><time>2026-04-09T09:58:12.228Z</time></trkpt><trkpt lat="38.457525" lon="16.3477383"><ele>895.0</ele><time>2026-04-09T09:58:14.228Z</time></trkpt><trkpt lat="38.4575617" lon="16.347655"><ele>895.0</ele><time>2026-04-09T09:58:15.228Z</time></trkpt><trkpt lat="38.4575883" lon="16.34758"><ele>895.0</ele><time>2026-04-09T09:58:16.228Z</time></trkpt><trkpt lat="38.457575" lon="16.347475"><ele>895.0</ele><time>2026-04-09T09:58:18.227Z</time></trkpt><trkpt lat="38.4575117" lon="16.3475"><ele>895.0</ele><time>2026-04-09T09:58:20.228Z</time></trkpt><trkpt lat="38.4574817" lon="16.3475717"><ele>895.0</ele><time>2026-04-09T09:58:21.228Z</time></trkpt><trkpt lat="38.4574617" lon="16.3476683"><ele>895.0</ele><time>2026-04-09T09:58:22.228Z</time></trkpt><trkpt lat="38.4574483" lon="16.3477683"><ele>895.0</ele><time>2026-04-09T09:58:23.228Z</time></trkpt><trkpt lat="38.4574383" lon="16.3478683"><ele>895.0</ele><time>2026-04-09T09:58:24.228Z</time></trkpt><trkpt lat="38.457445" lon="16.3479683"><ele>895.0</ele><time>2026-04-09T09:58:25.228Z</time></trkpt><trkpt lat="38.4574583" lon="16.3480517"><ele>895.0</ele><time>2026-04-09T09:58:26.228Z</time></trkpt><trkpt lat="38.4574733" lon="16.3481333"><ele>895.0</ele><time>2026-04-09T09:58:27.228Z</time></trkpt><trkpt lat="38.4574517" lon="16.34823"><ele>895.0</ele><time>2026-04-09T09:58:29.228Z</time></trkpt><trkpt lat="38.4573817" lon="16.3482033"><ele>895.0</ele><time>2026-04-09T09:58:31.228Z</time></trkpt><trkpt lat="38.4573467" lon="16.34805"><ele>895.0</ele><time>2026-04-09T09:58:33.228Z</time></trkpt><trkpt lat="38.4573483" lon="16.34796"><ele>895.0</ele><time>2026-04-09T09:58:34.228Z</time></trkpt><trkpt lat="38.4573617" lon="16.3478733"><ele>895.0</ele><time>2026-04-09T09:58:35.228Z</time></trkpt><trkpt lat="38.4573667" lon="16.3477783"><ele>895.0</ele><time>2026-04-09T09:58:36.228Z</time></trkpt><trkpt lat="38.4573667" lon="16.3476833"><ele>895.0</ele><time>2026-04-09T09:58:37.228Z</time></trkpt><trkpt lat="38.457355" lon="16.34759"><ele>895.0</ele><time>2026-04-09T09:58:38.227Z</time></trkpt><trkpt lat="38.45734" lon="16.3474983"><ele>895.0</ele><time>2026-04-09T09:58:39.228Z</time></trkpt><trkpt lat="38.4573217" lon="16.3474133"><ele>894.9999999999999</ele><time>2026-04-09T09:58:40.227Z</time></trkpt><trkpt lat="38.4573017" lon="16.3473367"><ele>895.0</ele><time>2026-04-09T09:58:41.228Z</time></trkpt><trkpt lat="38.4572217" lon="16.3472783"><ele>895.0</ele><time>2026-04-09T09:58:43.228Z</time></trkpt><trkpt lat="38.45717" lon="16.3473467"><ele>895.0</ele><time>2026-04-09T09:58:45.228Z</time></trkpt><trkpt lat="38.4571967" lon="16.3475083"><ele>894.9999999999999</ele><time>2026-04-09T09:58:47.228Z</time></trkpt><trkpt lat="38.45722" lon="16.3476033"><ele>895.0</ele><time>2026-04-09T09:58:48.228Z</time></trkpt><trkpt lat="38.457225" lon="16.3477033"><ele>894.9999999999999</ele><time>2026-04-09T09:58:49.228Z</time></trkpt><trkpt lat="38.4572167" lon="16.3478033"><ele>895.0</ele><time>2026-04-09T09:58:50.228Z</time></trkpt><trkpt lat="38.4571983" lon="16.3479083"><ele>895.0</ele><time>2026-04-09T09:58:51.228Z</time></trkpt><trkpt lat="38.4571683" lon="16.3480167"><ele>895.0</ele><time>2026-04-09T09:58:52.228Z</time></trkpt><trkpt lat="38.4571283" lon="16.3481217"><ele>894.9999999999999</ele><time>2026-04-09T09:58:53.228Z</time></trkpt><trkpt lat="38.4570817" lon="16.3482367"><ele>895.0</ele><time>2026-04-09T09:58:54.228Z</time></trkpt><trkpt lat="38.4570433" lon="16.348355"><ele>887.6666666666666</ele><time>2026-04-09T09:58:55.228Z</time></trkpt><trkpt lat="38.45702" lon="16.348475"><ele>880.3333333333333</ele><time>2026-04-09T09:58:56.227Z</time></trkpt><trkpt lat="38.4570067" lon="16.34858"><ele>873.0</ele><time>2026-04-09T09:58:57.228Z</time></trkpt><trkpt lat="38.4569933" lon="16.3486683"><ele>865.6666666666667</ele><time>2026-04-09T09:58:58.228Z</time></trkpt><trkpt lat="38.4569233" lon="16.34878"><ele>858.3333333333334</ele><time>2026-04-09T09:59:00.227Z</time></trkpt><trkpt lat="38.4568483" lon="16.348745"><ele>851.0</ele><time>2026-04-09T09:59:02.228Z</time></trkpt><trkpt lat="38.456825" lon="16.3485917"><ele>851.0</ele><time>2026-04-09T09:59:04.228Z</time></trkpt><trkpt lat="38.4568483" lon="16.348485"><ele>851.0</ele><time>2026-04-09T09:59:05.228Z</time></trkpt><trkpt lat="38.4568733" lon="16.34838"><ele>851.0</ele><time>2026-04-09T09:59:06.228Z</time></trkpt><trkpt lat="38.4569133" lon="16.34827"><ele>851.0</ele><time>2026-04-09T09:59:07.228Z</time></trkpt><trkpt lat="38.4569417" lon="16.3481483"><ele>851.0</ele><time>2026-04-09T09:59:08.228Z</time></trkpt><trkpt lat="38.4569617" lon="16.348035"><ele>850.8333333333334</ele><time>2026-04-09T09:59:09.228Z</time></trkpt><trkpt lat="38.4569717" lon="16.34793"><ele>850.6666666666667</ele><time>2026-04-09T09:59:10.227Z</time></trkpt><trkpt lat="38.4569633" lon="16.3478283"><ele>850.5</ele><time>2026-04-09T09:59:11.228Z</time></trkpt><trkpt lat="38.456935" lon="16.3477167"><ele>850.3333333333333</ele><time>2026-04-09T09:59:12.228Z</time></trkpt><trkpt lat="38.456885" lon="16.3476233"><ele>850.1666666666666</ele><time>2026-04-09T09:59:13.228Z</time></trkpt><trkpt lat="38.4568383" lon="16.3475217"><ele>850.0</ele><time>2026-04-09T09:59:14.228Z</time></trkpt><trkpt lat="38.4567983" lon="16.347415"><ele>850.0</ele><time>2026-04-09T09:59:15.228Z</time></trkpt><trkpt lat="38.4567567" lon="16.3473033"><ele>850.0</ele><time>2026-04-09T09:59:16.228Z</time></trkpt><trkpt lat="38.4567083" lon="16.3471917"><ele>850.0</ele><time>2026-04-09T09:59:17.227Z</time></trkpt><trkpt lat="38.456655" lon="16.3470817"><ele>850.0</ele><time>2026-04-09T09:59:18.228Z</time></trkpt><trkpt lat="38.4566017" lon="16.34698"><ele>850.0</ele><time>2026-04-09T09:59:19.228Z</time></trkpt><trkpt lat="38.4565567" lon="16.3468633"><ele>850.4</ele><time>2026-04-09T09:59:20.228Z</time></trkpt><trkpt lat="38.4565017" lon="16.34676"><ele>850.8</ele><time>2026-04-09T09:59:21.228Z</time></trkpt><trkpt lat="38.4564467" lon="16.34666"><ele>851.2</ele><time>2026-04-09T09:59:22.228Z</time></trkpt><trkpt lat="38.4563917" lon="16.34656"><ele>851.6</ele><time>2026-04-09T09:59:23.228Z</time></trkpt><trkpt lat="38.45634" lon="16.34645"><ele>852.0</ele><time>2026-04-09T09:59:24.228Z</time></trkpt><trkpt lat="38.4562833" lon="16.34635"><ele>847.8</ele><time>2026-04-09T09:59:25.228Z</time></trkpt><trkpt lat="38.456225" lon="16.34625"><ele>843.6</ele><time>2026-04-09T09:59:26.228Z</time></trkpt><trkpt lat="38.4561717" lon="16.3461533"><ele>839.4</ele><time>2026-04-09T09:59:27.227Z</time></trkpt><trkpt lat="38.456105" lon="16.3460617"><ele>835.1999999999999</ele><time>2026-04-09T09:59:28.228Z</time></trkpt><trkpt lat="38.456035" lon="16.3459717"><ele>831.0</ele><time>2026-04-09T09:59:29.227Z</time></trkpt><trkpt lat="38.4559633" lon="16.3458733"><ele>831.0</ele><time>2026-04-09T09:59:30.228Z</time></trkpt><trkpt lat="38.4558917" lon="16.3457867"><ele>831.0</ele><time>2026-04-09T09:59:31.228Z</time></trkpt><trkpt lat="38.4558067" lon="16.34572"><ele>831.0</ele><time>2026-04-09T09:59:32.227Z</time></trkpt><trkpt lat="38.4557083" lon="16.3456667"><ele>831.0</ele><time>2026-04-09T09:59:33.228Z</time></trkpt><trkpt lat="38.4556233" lon="16.345625"><ele>831.0</ele><time>2026-04-09T09:59:34.228Z</time></trkpt><trkpt lat="38.455535" lon="16.345585"><ele>828.1666666666666</ele><time>2026-04-09T09:59:35.228Z</time></trkpt><trkpt lat="38.4554433" lon="16.3455733"><ele>825.3333333333333</ele><time>2026-04-09T09:59:36.227Z</time></trkpt><trkpt lat="38.4553467" lon="16.3455983"><ele>822.5</ele><time>2026-04-09T09:59:37.228Z</time></trkpt><trkpt lat="38.4552733" lon="16.345615"><ele>819.6666666666666</ele><time>2026-04-09T09:59:38.227Z</time></trkpt><trkpt lat="38.4552083" lon="16.345645"><ele>816.8333333333333</ele><time>2026-04-09T09:59:39.228Z</time></trkpt><trkpt lat="38.4551383" lon="16.345755"><ele>814.0</ele><time>2026-04-09T09:59:41.228Z</time></trkpt><trkpt lat="38.4551917" lon="16.345905"><ele>813.9999999999999</ele><time>2026-04-09T09:59:43.228Z</time></trkpt><trkpt lat="38.4552383" lon="16.3459767"><ele>814.0</ele><time>2026-04-09T09:59:44.228Z</time></trkpt><trkpt lat="38.45527" lon="16.3460967"><ele>814.0</ele><time>2026-04-09T09:59:46.227Z</time></trkpt><trkpt lat="38.455185" lon="16.346125"><ele>814.0</ele><time>2026-04-09T09:59:49.228Z</time></trkpt><trkpt lat="38.4551283" lon="16.3460667"><ele>813.9999999999999</ele><time>2026-04-09T09:59:50.228Z</time></trkpt><trkpt lat="38.4550767" lon="16.3459883"><ele>814.0</ele><time>2026-04-09T09:59:51.228Z</time></trkpt><trkpt lat="38.45504" lon="16.345905"><ele>814.0</ele><time>2026-04-09T09:59:52.228Z</time></trkpt><trkpt lat="38.4549983" lon="16.3458283"><ele>814.0</ele><time>2026-04-09T09:59:53.228Z</time></trkpt><trkpt lat="38.45496" lon="16.345755"><ele>814.0</ele><time>2026-04-09T09:59:54.228Z</time></trkpt><trkpt lat="38.45487" lon="16.3457117"><ele>814.0</ele><time>2026-04-09T09:59:56.228Z</time></trkpt><trkpt lat="38.45481" lon="16.3457867"><ele>814.0</ele><time>2026-04-09T09:59:58.227Z</time></trkpt><trkpt lat="38.4548733" lon="16.34593"><ele>813.9999999999999</ele><time>2026-04-09T10:00:00.228Z</time></trkpt><trkpt lat="38.4549467" lon="16.3459983"><ele>814.0</ele><time>2026-04-09T10:00:01.228Z</time></trkpt><trkpt lat="38.4550117" lon="16.346075"><ele>814.0</ele><time>2026-04-09T10:00:02.228Z</time></trkpt><trkpt lat="38.4550667" lon="16.3461517"><ele>814.0</ele><time>2026-04-09T10:00:03.228Z</time></trkpt><trkpt lat="38.4551167" lon="16.3462267"><ele>813.9999999999999</ele><time>2026-04-09T10:00:04.228Z</time></trkpt><trkpt lat="38.4551617" lon="16.3463017"><ele>814.0</ele><time>2026-04-09T10:00:05.228Z</time></trkpt><trkpt lat="38.455215" lon="16.346375"><ele>816.4000000000001</ele><time>2026-04-09T10:00:06.228Z</time></trkpt><trkpt lat="38.4552883" lon="16.3464333"><ele>818.8</ele><time>2026-04-09T10:00:07.228Z</time></trkpt><trkpt lat="38.4553683" lon="16.3464933"><ele>821.2</ele><time>2026-04-09T10:00:08.228Z</time></trkpt><trkpt lat="38.4554567" lon="16.34654"><ele>823.5999999999999</ele><time>2026-04-09T10:00:09.228Z</time></trkpt><trkpt lat="38.455545" lon="16.3465867"><ele>826.0</ele><time>2026-04-09T10:00:10.228Z</time></trkpt><trkpt lat="38.4556267" lon="16.346645"><ele>826.0</ele><time>2026-04-09T10:00:11.228Z</time></trkpt><trkpt lat="38.4556883" lon="16.3467317"><ele>826.0</ele><time>2026-04-09T10:00:12.228Z</time></trkpt><trkpt lat="38.4557267" lon="16.34683"><ele>826.0</ele><time>2026-04-09T10:00:13.228Z</time></trkpt><trkpt lat="38.4557583" lon="16.3469317"><ele>826.0</ele><time>2026-04-09T10:00:14.228Z</time></trkpt><trkpt lat="38.45577" lon="16.3470667"><ele>826.0</ele><time>2026-04-09T10:00:15.228Z</time></trkpt><trkpt lat="38.4557733" lon="16.3472283"><ele>822.1999999999999</ele><time>2026-04-09T10:00:16.228Z</time></trkpt><trkpt lat="38.4557933" lon="16.3473817"><ele>818.4</ele><time>2026-04-09T10:00:17.228Z</time></trkpt><trkpt lat="38.4558167" lon="16.3475233"><ele>814.6</ele><time>2026-04-09T10:00:18.228Z</time></trkpt><trkpt lat="38.4558517" lon="16.34763"><ele>810.8</ele><time>2026-04-09T10:00:19.228Z</time></trkpt><trkpt lat="38.4558933" lon="16.3477217"><ele>807.0</ele><time>2026-04-09T10:00:20.228Z</time></trkpt><trkpt lat="38.45593" lon="16.3477917"><ele>807.0</ele><time>2026-04-09T10:00:21.228Z</time></trkpt><trkpt lat="38.4559367" lon="16.3478917"><ele>807.0</ele><time>2026-04-09T10:00:23.228Z</time></trkpt><trkpt lat="38.4558317" lon="16.3478417"><ele>807.0</ele><time>2026-04-09T10:00:26.228Z</time></trkpt><trkpt lat="38.45578" lon="16.3477633"><ele>807.0</ele><time>2026-04-09T10:00:27.228Z</time></trkpt><trkpt lat="38.4557333" lon="16.34767"><ele>807.0</ele><time>2026-04-09T10:00:28.228Z</time></trkpt><trkpt lat="38.4556817" lon="16.347565"><ele>807.0</ele><time>2026-04-09T10:00:29.228Z</time></trkpt><trkpt lat="38.4556383" lon="16.34746"><ele>807.0</ele><time>2026-04-09T10:00:30.228Z</time></trkpt><trkpt lat="38.4556" lon="16.34735"><ele>807.0</ele><time>2026-04-09T10:00:31.228Z</time></trkpt><trkpt lat="38.45557" lon="16.34723"><ele>807.0</ele><time>2026-04-09T10:00:32.228Z</time></trkpt><trkpt lat="38.4555367" lon="16.347125"><ele>807.0</ele><time>2026-04-09T10:00:33.228Z</time></trkpt><trkpt lat="38.4554917" lon="16.3470467"><ele>805.1666666666666</ele><time>2026-04-09T10:00:34.228Z</time></trkpt><trkpt lat="38.4554417" lon="16.346985"><ele>803.3333333333333</ele><time>2026-04-09T10:00:35.228Z</time></trkpt><trkpt lat="38.4553817" lon="16.3469417"><ele>801.5</ele><time>2026-04-09T10:00:36.228Z</time></trkpt><trkpt lat="38.45531" lon="16.3469133"><ele>799.6666666666666</ele><time>2026-04-09T10:00:37.228Z</time></trkpt><trkpt lat="38.4552283" lon="16.3469167"><ele>797.8333333333333</ele><time>2026-04-09T10:00:38.228Z</time></trkpt><trkpt lat="38.4551317" lon="16.346945"><ele>796.0</ele><time>2026-04-09T10:00:39.228Z</time></trkpt><trkpt lat="38.45504" lon="16.3469683"><ele>795.9999999999999</ele><time>2026-04-09T10:00:40.227Z</time></trkpt><trkpt lat="38.4549417" lon="16.3469867"><ele>796.0</ele><time>2026-04-09T10:00:41.228Z</time></trkpt><trkpt lat="38.4548533" lon="16.346955"><ele>796.0</ele><time>2026-04-09T10:00:42.228Z</time></trkpt><trkpt lat="38.4547733" lon="16.3469117"><ele>796.0</ele><time>2026-04-09T10:00:43.227Z</time></trkpt><trkpt lat="38.454715" lon="16.3468383"><ele>795.9999999999999</ele><time>2026-04-09T10:00:44.228Z</time></trkpt><trkpt lat="38.4546783" lon="16.3467483"><ele>796.0</ele><time>2026-04-09T10:00:45.228Z</time></trkpt><trkpt lat="38.454645" lon="16.346655"><ele>790.1666666666666</ele><time>2026-04-09T10:00:46.228Z</time></trkpt><trkpt lat="38.4545983" lon="16.3465783"><ele>784.3333333333333</ele><time>2026-04-09T10:00:47.228Z</time></trkpt><trkpt lat="38.45454" lon="16.3465217"><ele>778.5</ele><time>2026-04-09T10:00:48.228Z</time></trkpt><trkpt lat="38.4544783" lon="16.34648"><ele>772.6666666666666</ele><time>2026-04-09T10:00:49.228Z</time></trkpt><trkpt lat="38.4543983" lon="16.3464717"><ele>766.8333333333333</ele><time>2026-04-09T10:00:50.227Z</time></trkpt><trkpt lat="38.4542933" lon="16.3464883"><ele>761.0</ele><time>2026-04-09T10:00:51.228Z</time></trkpt><trkpt lat="38.454195" lon="16.3464867"><ele>761.0</ele><time>2026-04-09T10:00:52.228Z</time></trkpt><trkpt lat="38.45411" lon="16.3464517"><ele>761.0</ele><time>2026-04-09T10:00:53.228Z</time></trkpt><trkpt lat="38.4540367" lon="16.3463833"><ele>761.0</ele><time>2026-04-09T10:00:54.228Z</time></trkpt><trkpt lat="38.4539667" lon="16.346315"><ele>761.0</ele><time>2026-04-09T10:00:55.228Z</time></trkpt><trkpt lat="38.4538933" lon="16.3462567"><ele>761.0</ele><time>2026-04-09T10:00:56.228Z</time></trkpt><trkpt lat="38.4538183" lon="16.3462133"><ele>761.0</ele><time>2026-04-09T10:00:57.228Z</time></trkpt><trkpt lat="38.45373" lon="16.3461733"><ele>761.8</ele><time>2026-04-09T10:00:58.228Z</time></trkpt><trkpt lat="38.45364" lon="16.3461433"><ele>762.5999999999999</ele><time>2026-04-09T10:00:59.228Z</time></trkpt><trkpt lat="38.4535517" lon="16.3461083"><ele>763.4</ele><time>2026-04-09T10:01:00.228Z</time></trkpt><trkpt lat="38.4534617" lon="16.3460867"><ele>764.2</ele><time>2026-04-09T10:01:01.228Z</time></trkpt><trkpt lat="38.4533683" lon="16.3460667"><ele>765.0</ele><time>2026-04-09T10:01:02.228Z</time></trkpt><trkpt lat="38.4532667" lon="16.3460683"><ele>765.0</ele><time>2026-04-09T10:01:03.228Z</time></trkpt><trkpt lat="38.4531633" lon="16.346075"><ele>765.0</ele><time>2026-04-09T10:01:04.228Z</time></trkpt><trkpt lat="38.45306" lon="16.346095"><ele>765.0</ele><time>2026-04-09T10:01:05.228Z</time></trkpt><trkpt lat="38.4529767" lon="16.3461383"><ele>765.0</ele><time>2026-04-09T10:01:06.228Z</time></trkpt><trkpt lat="38.4528917" lon="16.3461883"><ele>765.0</ele><time>2026-04-09T10:01:07.228Z</time></trkpt><trkpt lat="38.4527983" lon="16.34624"><ele>765.1666666666666</ele><time>2026-04-09T10:01:08.228Z</time></trkpt><trkpt lat="38.4527133" lon="16.3462867"><ele>765.3333333333334</ele><time>2026-04-09T10:01:09.228Z</time></trkpt><trkpt lat="38.4526283" lon="16.34633"><ele>765.5</ele><time>2026-04-09T10:01:10.228Z</time></trkpt><trkpt lat="38.452545" lon="16.3463667"><ele>765.6666666666667</ele><time>2026-04-09T10:01:11.228Z</time></trkpt><trkpt lat="38.4524667" lon="16.3464033"><ele>765.8333333333334</ele><time>2026-04-09T10:01:12.228Z</time></trkpt><trkpt lat="38.4523817" lon="16.34644"><ele>766.0</ele><time>2026-04-09T10:01:13.228Z</time></trkpt><trkpt lat="38.452285" lon="16.346495"><ele>763.1999999999999</ele><time>2026-04-09T10:01:14.228Z</time></trkpt><trkpt lat="38.4521967" lon="16.3465517"><ele>760.4</ele><time>2026-04-09T10:01:15.227Z</time></trkpt><trkpt lat="38.4521117" lon="16.3466133"><ele>757.6</ele><time>2026-04-09T10:01:16.227Z</time></trkpt><trkpt lat="38.452025" lon="16.34668"><ele>754.8</ele><time>2026-04-09T10:01:17.228Z</time></trkpt><trkpt lat="38.4519367" lon="16.3467517"><ele>752.0</ele><time>2026-04-09T10:01:18.228Z</time></trkpt><trkpt lat="38.4518467" lon="16.3468033"><ele>752.0</ele><time>2026-04-09T10:01:19.228Z</time></trkpt><trkpt lat="38.4517617" lon="16.3468733"><ele>752.0</ele><time>2026-04-09T10:01:20.228Z</time></trkpt><trkpt lat="38.45168" lon="16.346935"><ele>752.0</ele><time>2026-04-09T10:01:21.228Z</time></trkpt><trkpt lat="38.4515983" lon="16.346995"><ele>752.0</ele><time>2026-04-09T10:01:22.228Z</time></trkpt><trkpt lat="38.45152" lon="16.3470433"><ele>752.0</ele><time>2026-04-09T10:01:23.228Z</time></trkpt><trkpt lat="38.451445" lon="16.3470883"><ele>752.0</ele><time>2026-04-09T10:01:24.227Z</time></trkpt><trkpt lat="38.4513883" lon="16.3471383"><ele>752.0</ele><time>2026-04-09T10:01:25.228Z</time></trkpt><trkpt lat="38.4513467" lon="16.3472483"><ele>752.0</ele><time>2026-04-09T10:01:27.228Z</time></trkpt><trkpt lat="38.4514383" lon="16.3473367"><ele>752.0</ele><time>2026-04-09T10:01:29.228Z</time></trkpt><trkpt lat="38.4515067" lon="16.3473333"><ele>752.0</ele><time>2026-04-09T10:01:30.228Z</time></trkpt><trkpt lat="38.4516383" lon="16.3472817"><ele>752.0</ele><time>2026-04-09T10:01:32.228Z</time></trkpt><trkpt lat="38.4517067" lon="16.3472567"><ele>752.0</ele><time>2026-04-09T10:01:33.228Z</time></trkpt><trkpt lat="38.4517667" lon="16.34723"><ele>752.0</ele><time>2026-04-09T10:01:34.228Z</time></trkpt><trkpt lat="38.4518733" lon="16.34717"><ele>752.0</ele><time>2026-04-09T10:01:36.228Z</time></trkpt><trkpt lat="38.451985" lon="16.3471033"><ele>752.0</ele><time>2026-04-09T10:01:38.228Z</time></trkpt><trkpt lat="38.4520467" lon="16.3470767"><ele>752.0</ele><time>2026-04-09T10:01:39.228Z</time></trkpt><trkpt lat="38.4521717" lon="16.3470433"><ele>750.8333333333333</ele><time>2026-04-09T10:01:41.227Z</time></trkpt><trkpt lat="38.4522417" lon="16.3470233"><ele>749.6666666666666</ele><time>2026-04-09T10:01:42.228Z</time></trkpt><trkpt lat="38.4523233" lon="16.3470117"><ele>748.5</ele><time>2026-04-09T10:01:43.228Z</time></trkpt><trkpt lat="38.4524083" lon="16.3470017"><ele>747.3333333333334</ele><time>2026-04-09T10:01:44.228Z</time></trkpt><trkpt lat="38.452495" lon="16.3469833"><ele>746.1666666666667</ele><time>2026-04-09T10:01:45.228Z</time></trkpt><trkpt lat="38.4525783" lon="16.346965"><ele>745.0</ele><time>2026-04-09T10:01:46.228Z</time></trkpt><trkpt lat="38.4526467" lon="16.3469467"><ele>745.0</ele><time>2026-04-09T10:01:47.228Z</time></trkpt><trkpt lat="38.4527583" lon="16.346915"><ele>745.0</ele><time>2026-04-09T10:01:49.228Z</time></trkpt><trkpt lat="38.4528383" lon="16.34693"><ele>745.0</ele><time>2026-04-09T10:01:51.228Z</time></trkpt><trkpt lat="38.4528583" lon="16.347015"><ele>745.0</ele><time>2026-04-09T10:01:53.228Z</time></trkpt><trkpt lat="38.452815" lon="16.34715"><ele>745.0</ele><time>2026-04-09T10:01:55.228Z</time></trkpt><trkpt lat="38.4527617" lon="16.3472417"><ele>740.2</ele><time>2026-04-09T10:01:56.228Z</time></trkpt><trkpt lat="38.4527083" lon="16.3473383"><ele>735.4</ele><time>2026-04-09T10:01:57.228Z</time></trkpt><trkpt lat="38.4526383" lon="16.34744"><ele>730.5999999999999</ele><time>2026-04-09T10:01:58.227Z</time></trkpt><trkpt lat="38.4525567" lon="16.3475317"><ele>725.8</ele><time>2026-04-09T10:01:59.228Z</time></trkpt><trkpt lat="38.4524867" lon="16.347625"><ele>721.0</ele><time>2026-04-09T10:02:00.228Z</time></trkpt><trkpt lat="38.4524183" lon="16.3477117"><ele>721.0</ele><time>2026-04-09T10:02:01.228Z</time></trkpt><trkpt lat="38.4523617" lon="16.3477817"><ele>721.0</ele><time>2026-04-09T10:02:02.228Z</time></trkpt><trkpt lat="38.4522633" lon="16.3478567"><ele>721.0</ele><time>2026-04-09T10:02:04.228Z</time></trkpt><trkpt lat="38.4522017" lon="16.3478733"><ele>721.0</ele><time>2026-04-09T10:02:05.228Z</time></trkpt><trkpt lat="38.452135" lon="16.3478733"><ele>721.0</ele><time>2026-04-09T10:02:06.228Z</time></trkpt><trkpt lat="38.4520633" lon="16.34788"><ele>721.0</ele><time>2026-04-09T10:02:07.228Z</time></trkpt><trkpt lat="38.4519933" lon="16.3478883"><ele>722.6666666666667</ele><time>2026-04-09T10:02:08.228Z</time></trkpt><trkpt lat="38.4519217" lon="16.3478967"><ele>724.3333333333334</ele><time>2026-04-09T10:02:09.228Z</time></trkpt><trkpt lat="38.4518567" lon="16.3479133"><ele>726.0</ele><time>2026-04-09T10:02:10.228Z</time></trkpt><trkpt lat="38.45179" lon="16.3479383"><ele>727.6666666666666</ele><time>2026-04-09T10:02:11.228Z</time></trkpt><trkpt lat="38.4517217" lon="16.3479667"><ele>729.3333333333333</ele><time>2026-04-09T10:02:12.228Z</time></trkpt><trkpt lat="38.4516517" lon="16.347995"><ele>731.0</ele><time>2026-04-09T10:02:13.228Z</time></trkpt><trkpt lat="38.4515417" lon="16.34803"><ele>725.8333333333333</ele><time>2026-04-09T10:02:15.228Z</time></trkpt><trkpt lat="38.4514833" lon="16.3480933"><ele>720.6666666666666</ele><time>2026-04-09T10:02:17.228Z</time></trkpt><trkpt lat="38.4515317" lon="16.34816"><ele>715.5</ele><time>2026-04-09T10:02:19.228Z</time></trkpt><trkpt lat="38.4516333" lon="16.3481733"><ele>710.3333333333334</ele><time>2026-04-09T10:02:21.228Z</time></trkpt><trkpt lat="38.4516967" lon="16.3481633"><ele>705.1666666666667</ele><time>2026-04-09T10:02:22.228Z</time></trkpt><trkpt lat="38.45177" lon="16.34815"><ele>700.0</ele><time>2026-04-09T10:02:23.228Z</time></trkpt><trkpt lat="38.451845" lon="16.34815"><ele>700.0</ele><time>2026-04-09T10:02:24.228Z</time></trkpt><trkpt lat="38.4519183" lon="16.3481667"><ele>700.0</ele><time>2026-04-09T10:02:25.228Z</time></trkpt><trkpt lat="38.4519867" lon="16.3482033"><ele>700.0</ele><time>2026-04-09T10:02:26.228Z</time></trkpt><trkpt lat="38.4520583" lon="16.348245"><ele>700.0</ele><time>2026-04-09T10:02:27.228Z</time></trkpt><trkpt lat="38.4521317" lon="16.3483367"><ele>700.0</ele><time>2026-04-09T10:02:29.228Z</time></trkpt><trkpt lat="38.4521133" lon="16.3484417"><ele>700.0</ele><time>2026-04-09T10:02:31.228Z</time></trkpt><trkpt lat="38.45205" lon="16.3484917"><ele>700.0</ele><time>2026-04-09T10:02:32.228Z</time></trkpt><trkpt lat="38.45196" lon="16.348535"><ele>700.0</ele><time>2026-04-09T10:02:33.228Z</time></trkpt><trkpt lat="38.45187" lon="16.34857"><ele>700.0</ele><time>2026-04-09T10:02:34.227Z</time></trkpt><trkpt lat="38.4517783" lon="16.3486133"><ele>700.0</ele><time>2026-04-09T10:02:35.227Z</time></trkpt><trkpt lat="38.4516867" lon="16.3486617"><ele>700.0</ele><time>2026-04-09T10:02:36.228Z</time></trkpt><trkpt lat="38.4515967" lon="16.3487067"><ele>700.0</ele><time>2026-04-09T10:02:37.228Z</time></trkpt><trkpt lat="38.4514933" lon="16.3487383"><ele>700.0</ele><time>2026-04-09T10:02:38.228Z</time></trkpt><trkpt lat="38.4514183" lon="16.348765"><ele>700.0</ele><time>2026-04-09T10:02:39.228Z</time></trkpt><trkpt lat="38.4513333" lon="16.348765"><ele>700.0</ele><time>2026-04-09T10:02:40.228Z</time></trkpt><trkpt lat="38.4512567" lon="16.348755"><ele>700.0</ele><time>2026-04-09T10:02:41.228Z</time></trkpt><trkpt lat="38.451185" lon="16.3487233"><ele>700.0</ele><time>2026-04-09T10:02:42.228Z</time></trkpt><trkpt lat="38.4511183" lon="16.348675"><ele>697.0</ele><time>2026-04-09T10:02:43.227Z</time></trkpt><trkpt lat="38.45104" lon="16.3486133"><ele>694.0</ele><time>2026-04-09T10:02:44.228Z</time></trkpt><trkpt lat="38.450965" lon="16.3485417"><ele>691.0</ele><time>2026-04-09T10:02:45.228Z</time></trkpt><trkpt lat="38.4508917" lon="16.3484667"><ele>688.0</ele><time>2026-04-09T10:02:46.228Z</time></trkpt><trkpt lat="38.4508167" lon="16.3484083"><ele>685.0</ele><time>2026-04-09T10:02:47.228Z</time></trkpt><trkpt lat="38.4507367" lon="16.34835"><ele>685.0</ele><time>2026-04-09T10:02:48.228Z</time></trkpt><trkpt lat="38.4506483" lon="16.348305"><ele>685.0</ele><time>2026-04-09T10:02:49.228Z</time></trkpt><trkpt lat="38.45055" lon="16.348255"><ele>685.0</ele><time>2026-04-09T10:02:50.228Z</time></trkpt><trkpt lat="38.450455" lon="16.348215"><ele>685.0</ele><time>2026-04-09T10:02:51.228Z</time></trkpt><trkpt lat="38.4503567" lon="16.3481733"><ele>685.0</ele><time>2026-04-09T10:02:52.228Z</time></trkpt><trkpt lat="38.45027" lon="16.3481117"><ele>686.0</ele><time>2026-04-09T10:02:53.228Z</time></trkpt><trkpt lat="38.4501883" lon="16.3480483"><ele>687.0</ele><time>2026-04-09T10:02:54.228Z</time></trkpt><trkpt lat="38.4501083" lon="16.347985"><ele>688.0</ele><time>2026-04-09T10:02:55.227Z</time></trkpt><trkpt lat="38.45003" lon="16.3479367"><ele>689.0</ele><time>2026-04-09T10:02:56.228Z</time></trkpt><trkpt lat="38.4499367" lon="16.3479083"><ele>690.0</ele><time>2026-04-09T10:02:57.228Z</time></trkpt><trkpt lat="38.449855" lon="16.3478983"><ele>690.0</ele><time>2026-04-09T10:02:58.228Z</time></trkpt><trkpt lat="38.4497633" lon="16.3479067"><ele>690.0</ele><time>2026-04-09T10:02:59.228Z</time></trkpt><trkpt lat="38.44967" lon="16.3479067"><ele>690.0</ele><time>2026-04-09T10:03:00.227Z</time></trkpt><trkpt lat="38.4495917" lon="16.347895"><ele>690.0</ele><time>2026-04-09T10:03:01.228Z</time></trkpt><trkpt lat="38.4495267" lon="16.3478667"><ele>690.0</ele><time>2026-04-09T10:03:02.227Z</time></trkpt><trkpt lat="38.4494467" lon="16.3477367"><ele>680.4</ele><time>2026-04-09T10:03:04.228Z</time></trkpt><trkpt lat="38.4494317" lon="16.34763"><ele>670.8</ele><time>2026-04-09T10:03:05.228Z</time></trkpt><trkpt lat="38.4494233" lon="16.3475033"><ele>661.2</ele><time>2026-04-09T10:03:06.228Z</time></trkpt><trkpt lat="38.4493967" lon="16.3473833"><ele>651.6</ele><time>2026-04-09T10:03:07.228Z</time></trkpt><trkpt lat="38.4493633" lon="16.3472683"><ele>642.0</ele><time>2026-04-09T10:03:08.228Z</time></trkpt><trkpt lat="38.44931" lon="16.34716"><ele>641.8333333333334</ele><time>2026-04-09T10:03:09.228Z</time></trkpt><trkpt lat="38.4492517" lon="16.3470533"><ele>641.6666666666666</ele><time>2026-04-09T10:03:10.228Z</time></trkpt><trkpt lat="38.4492017" lon="16.3469567"><ele>641.5</ele><time>2026-04-09T10:03:11.227Z</time></trkpt><trkpt lat="38.4491383" lon="16.3468683"><ele>641.3333333333333</ele><time>2026-04-09T10:03:12.228Z</time></trkpt><trkpt lat="38.4490733" lon="16.3468"><ele>641.1666666666666</ele><time>2026-04-09T10:03:13.228Z</time></trkpt><trkpt lat="38.44901" lon="16.3467517"><ele>641.0</ele><time>2026-04-09T10:03:14.227Z</time></trkpt><trkpt lat="38.4489383" lon="16.3467317"><ele>641.0</ele><time>2026-04-09T10:03:15.227Z</time></trkpt><trkpt lat="38.4488633" lon="16.346735"><ele>641.0</ele><time>2026-04-09T10:03:16.227Z</time></trkpt><trkpt lat="38.4487817" lon="16.3467517"><ele>641.0</ele><time>2026-04-09T10:03:17.227Z</time></trkpt><trkpt lat="38.4486933" lon="16.3467717"><ele>641.0</ele><time>2026-04-09T10:03:18.227Z</time></trkpt><trkpt lat="38.448605" lon="16.3468083"><ele>641.0</ele><time>2026-04-09T10:03:19.227Z</time></trkpt><trkpt lat="38.4485067" lon="16.3468367"><ele>641.0</ele><time>2026-04-09T10:03:20.227Z</time></trkpt><trkpt lat="38.448405" lon="16.34687"><ele>637.4</ele><time>2026-04-09T10:03:21.226Z</time></trkpt><trkpt lat="38.4482967" lon="16.3468867"><ele>633.8</ele><time>2026-04-09T10:03:22.227Z</time></trkpt><trkpt lat="38.4482017" lon="16.3469067"><ele>630.1999999999999</ele><time>2026-04-09T10:03:23.227Z</time></trkpt><trkpt lat="38.4481017" lon="16.3469017"><ele>626.5999999999999</ele><time>2026-04-09T10:03:24.227Z</time></trkpt><trkpt lat="38.4480033" lon="16.3469067"><ele>623.0</ele><time>2026-04-09T10:03:25.226Z</time></trkpt><trkpt lat="38.4478967" lon="16.346895"><ele>620.0</ele><time>2026-04-09T10:03:26.227Z</time></trkpt><trkpt lat="38.44779" lon="16.34689"><ele>617.0</ele><time>2026-04-09T10:03:27.227Z</time></trkpt><trkpt lat="38.447685" lon="16.346885"><ele>614.0</ele><time>2026-04-09T10:03:28.226Z</time></trkpt><trkpt lat="38.4475883" lon="16.3468783"><ele>611.0</ele><time>2026-04-09T10:03:29.227Z</time></trkpt><trkpt lat="38.4474917" lon="16.346865"><ele>608.0</ele><time>2026-04-09T10:03:30.227Z</time></trkpt><trkpt lat="38.4474" lon="16.3468517"><ele>608.0</ele><time>2026-04-09T10:03:31.227Z</time></trkpt><trkpt lat="38.4473217" lon="16.346855"><ele>608.0</ele><time>2026-04-09T10:03:32.227Z</time></trkpt><trkpt lat="38.4472417" lon="16.34685"><ele>608.0</ele><time>2026-04-09T10:03:33.227Z</time></trkpt><trkpt lat="38.44713" lon="16.3468533"><ele>608.0</ele><time>2026-04-09T10:03:35.227Z</time></trkpt><trkpt lat="38.4470467" lon="16.3468783"><ele>608.0</ele><time>2026-04-09T10:03:37.227Z</time></trkpt><trkpt lat="38.4469817" lon="16.3469167"><ele>608.0</ele><time>2026-04-09T10:03:39.227Z</time></trkpt><trkpt lat="38.446905" lon="16.34693"><ele>605.8333333333333</ele><time>2026-04-09T10:03:41.227Z</time></trkpt><trkpt lat="38.4468317" lon="16.3469583"><ele>603.6666666666666</ele><time>2026-04-09T10:03:52.226Z</time></trkpt><trkpt lat="38.446765" lon="16.3469783"><ele>601.5</ele><time>2026-04-09T10:03:54.227Z</time></trkpt><trkpt lat="38.4466867" lon="16.3470067"><ele>599.3333333333334</ele><time>2026-04-09T10:03:56.227Z</time></trkpt><trkpt lat="38.446595" lon="16.3470467"><ele>597.1666666666667</ele><time>2026-04-09T10:03:58.227Z</time></trkpt><trkpt lat="38.4464983" lon="16.3470917"><ele>595.0</ele><time>2026-04-09T10:04:00.227Z</time></trkpt><trkpt lat="38.446415" lon="16.3471467"><ele>595.0</ele><time>2026-04-09T10:04:02.227Z</time></trkpt><trkpt lat="38.446335" lon="16.3471717"><ele>595.0</ele><time>2026-04-09T10:04:04.227Z</time></trkpt><trkpt lat="38.4462533" lon="16.3472"><ele>595.0</ele><time>2026-04-09T10:04:06.226Z</time></trkpt><trkpt lat="38.4461917" lon="16.3472283"><ele>595.0</ele><time>2026-04-09T10:04:08.226Z</time></trkpt><trkpt lat="38.4461417" lon="16.3472833"><ele>595.0</ele><time>2026-04-09T10:04:10.227Z</time></trkpt><trkpt lat="38.4460783" lon="16.34735"><ele>595.0</ele><time>2026-04-09T10:04:12.227Z</time></trkpt><trkpt lat="38.446005" lon="16.3474133"><ele>595.8333333333334</ele><time>2026-04-09T10:04:14.227Z</time></trkpt><trkpt lat="38.4459433" lon="16.3474867"><ele>596.6666666666667</ele><time>2026-04-09T10:04:16.227Z</time></trkpt><trkpt lat="38.4458867" lon="16.3475617"><ele>597.5</ele><time>2026-04-09T10:04:18.227Z</time></trkpt><trkpt lat="38.4458217" lon="16.3476267"><ele>598.3333333333334</ele><time>2026-04-09T10:04:20.227Z</time></trkpt><trkpt lat="38.4457567" lon="16.3476783"><ele>599.1666666666666</ele><time>2026-04-09T10:04:22.226Z</time></trkpt><trkpt lat="38.4456917" lon="16.3477433"><ele>600.0</ele><time>2026-04-09T10:04:24.227Z</time></trkpt><trkpt lat="38.4456367" lon="16.3477983"><ele>600.0</ele><time>2026-04-09T10:04:26.227Z</time></trkpt><trkpt lat="38.44557" lon="16.3478383"><ele>600.0</ele><time>2026-04-09T10:04:30.227Z</time></trkpt><trkpt lat="38.44548" lon="16.3479067"><ele>600.0</ele><time>2026-04-09T10:05:08.227Z</time></trkpt><trkpt lat="38.4454167" lon="16.3479667"><ele>600.0</ele><time>2026-04-09T10:05:10.227Z</time></trkpt><trkpt lat="38.4453483" lon="16.3480267"><ele>600.0</ele><time>2026-04-09T10:05:12.227Z</time></trkpt><trkpt lat="38.44528" lon="16.348045"><ele>600.0</ele><time>2026-04-09T10:05:15.227Z</time></trkpt><trkpt lat="38.4453267" lon="16.348115"><ele>599.9999999999999</ele><time>2026-04-09T10:05:18.227Z</time></trkpt><trkpt lat="38.4454" lon="16.3481167"><ele>600.0</ele><time>2026-04-09T10:05:21.227Z</time></trkpt><trkpt lat="38.4454633" lon="16.3480983"><ele>600.0</ele><time>2026-04-09T10:05:23.227Z</time></trkpt><trkpt lat="38.44553" lon="16.3480533"><ele>600.0</ele><time>2026-04-09T10:05:26.227Z</time></trkpt><trkpt lat="38.4455817" lon="16.34798"><ele>600.0</ele><time>2026-04-09T10:05:28.226Z</time></trkpt><trkpt lat="38.44558" lon="16.3478883"><ele>599.9999999999999</ele><time>2026-04-09T10:12:13.227Z</time></trkpt><trkpt lat="38.4456483" lon="16.3478367"><ele>600.0</ele><time>2026-04-09T10:12:16.227Z</time></trkpt><trkpt lat="38.44571" lon="16.3477833"><ele>600.0</ele><time>2026-04-09T10:12:18.227Z</time></trkpt><trkpt lat="38.4457867" lon="16.347715"><ele>600.0</ele><time>2026-04-09T10:12:20.227Z</time></trkpt><trkpt lat="38.4458633" lon="16.3476483"><ele>600.0</ele><time>2026-04-09T10:12:22.227Z</time></trkpt><trkpt lat="38.44595" lon="16.3475733"><ele>600.0</ele><time>2026-04-09T10:12:24.227Z</time></trkpt><trkpt lat="38.4460333" lon="16.3474767"><ele>600.0</ele><time>2026-04-09T10:12:26.227Z</time></trkpt><trkpt lat="38.4461083" lon="16.34739"><ele>600.0</ele><time>2026-04-09T10:12:28.227Z</time></trkpt><trkpt lat="38.4461833" lon="16.3473317"><ele>600.0</ele><time>2026-04-09T10:12:30.227Z</time></trkpt><trkpt lat="38.4462383" lon="16.34725"><ele>600.0</ele><time>2026-04-09T10:12:33.227Z</time></trkpt><trkpt lat="38.4462917" lon="16.3472"><ele>600.0</ele><time>2026-04-09T10:12:35.227Z</time></trkpt><trkpt lat="38.44636" lon="16.34716"><ele>600.0</ele><time>2026-04-09T10:12:37.227Z</time></trkpt><trkpt lat="38.44643" lon="16.3471117"><ele>600.0</ele><time>2026-04-09T10:12:39.227Z</time></trkpt><trkpt lat="38.4465033" lon="16.3470767"><ele>600.1666666666666</ele><time>2026-04-09T10:12:41.227Z</time></trkpt><trkpt lat="38.44658" lon="16.3470533"><ele>600.3333333333334</ele><time>2026-04-09T10:12:43.227Z</time></trkpt><trkpt lat="38.4466467" lon="16.3470233"><ele>600.5</ele><time>2026-04-09T10:12:46.227Z</time></trkpt><trkpt lat="38.4467017" lon="16.3470633"><ele>600.6666666666667</ele><time>2026-04-09T10:12:59.227Z</time></trkpt><trkpt lat="38.4467617" lon="16.347155"><ele>600.8333333333334</ele><time>2026-04-09T10:13:01.227Z</time></trkpt><trkpt lat="38.4468117" lon="16.3472683"><ele>601.0</ele><time>2026-04-09T10:13:03.227Z</time></trkpt><trkpt lat="38.4468667" lon="16.3473717"><ele>601.0</ele><time>2026-04-09T10:13:05.227Z</time></trkpt><trkpt lat="38.4469217" lon="16.347485"><ele>601.0</ele><time>2026-04-09T10:13:07.227Z</time></trkpt><trkpt lat="38.446985" lon="16.34759"><ele>601.0</ele><time>2026-04-09T10:13:09.227Z</time></trkpt><trkpt lat="38.4470417" lon="16.3477017"><ele>601.0</ele><time>2026-04-09T10:13:11.227Z</time></trkpt><trkpt lat="38.4471017" lon="16.34782"><ele>601.0</ele><time>2026-04-09T10:13:13.227Z</time></trkpt><trkpt lat="38.447185" lon="16.347905"><ele>604.0</ele><time>2026-04-09T10:13:15.227Z</time></trkpt><trkpt lat="38.4472967" lon="16.347935"><ele>607.0</ele><time>2026-04-09T10:13:17.227Z</time></trkpt><trkpt lat="38.44742" lon="16.347925"><ele>610.0</ele><time>2026-04-09T10:13:19.226Z</time></trkpt><trkpt lat="38.447555" lon="16.347915"><ele>613.0</ele><time>2026-04-09T10:13:21.227Z</time></trkpt><trkpt lat="38.4476233" lon="16.347905"><ele>616.0</ele><time>2026-04-09T10:13:22.226Z</time></trkpt><trkpt lat="38.4477017" lon="16.3479"><ele>616.0</ele><time>2026-04-09T10:13:23.227Z</time></trkpt><trkpt lat="38.4477733" lon="16.3478883"><ele>616.0</ele><time>2026-04-09T10:13:24.227Z</time></trkpt><trkpt lat="38.4478467" lon="16.3478683"><ele>616.0</ele><time>2026-04-09T10:13:25.227Z</time></trkpt><trkpt lat="38.4479167" lon="16.3478417"><ele>616.0</ele><time>2026-04-09T10:13:26.226Z</time></trkpt><trkpt lat="38.447985" lon="16.3478133"><ele>616.0</ele><time>2026-04-09T10:13:27.227Z</time></trkpt><trkpt lat="38.4480533" lon="16.347805"><ele>616.0</ele><time>2026-04-09T10:13:28.226Z</time></trkpt><trkpt lat="38.4481767" lon="16.3477967"><ele>617.25</ele><time>2026-04-09T10:13:30.227Z</time></trkpt><trkpt lat="38.4482917" lon="16.347825"><ele>618.5</ele><time>2026-04-09T10:13:32.226Z</time></trkpt><trkpt lat="38.4483833" lon="16.347895"><ele>619.75</ele><time>2026-04-09T10:13:34.226Z</time></trkpt><trkpt lat="38.4484633" lon="16.347995"><ele>621.0</ele><time>2026-04-09T10:13:36.227Z</time></trkpt><trkpt lat="38.4484983" lon="16.3481417"><ele>615.4</ele><time>2026-04-09T10:13:38.227Z</time></trkpt><trkpt lat="38.4484883" lon="16.348295"><ele>609.8</ele><time>2026-04-09T10:13:40.227Z</time></trkpt><trkpt lat="38.448465" lon="16.3484033"><ele>604.1999999999999</ele><time>2026-04-09T10:13:42.227Z</time></trkpt><trkpt lat="38.4484117" lon="16.3482967"><ele>598.6</ele><time>2026-04-09T10:13:47.227Z</time></trkpt><trkpt lat="38.4484267" lon="16.3481967"><ele>593.0</ele><time>2026-04-09T10:13:48.226Z</time></trkpt><trkpt lat="38.4484317" lon="16.3481117"><ele>598.6</ele><time>2026-04-09T10:13:49.227Z</time></trkpt><trkpt lat="38.4484033" lon="16.3480083"><ele>604.1999999999999</ele><time>2026-04-09T10:13:51.227Z</time></trkpt><trkpt lat="38.4483117" lon="16.3479517"><ele>609.8</ele><time>2026-04-09T10:13:53.227Z</time></trkpt><trkpt lat="38.448185" lon="16.3479517"><ele>615.4</ele><time>2026-04-09T10:13:55.227Z</time></trkpt><trkpt lat="38.4481117" lon="16.347965"><ele>621.0</ele><time>2026-04-09T10:13:56.227Z</time></trkpt><trkpt lat="38.4480433" lon="16.3479817"><ele>620.9999999999999</ele><time>2026-04-09T10:13:57.227Z</time></trkpt><trkpt lat="38.44797" lon="16.3479983"><ele>621.0</ele><time>2026-04-09T10:13:58.227Z</time></trkpt><trkpt lat="38.44791" lon="16.34803"><ele>621.0</ele><time>2026-04-09T10:13:59.227Z</time></trkpt><trkpt lat="38.4478367" lon="16.3480717"><ele>621.0</ele><time>2026-04-09T10:14:00.227Z</time></trkpt><trkpt lat="38.4477667" lon="16.3481133"><ele>621.0</ele><time>2026-04-09T10:14:01.227Z</time></trkpt><trkpt lat="38.4476983" lon="16.348145"><ele>620.9999999999999</ele><time>2026-04-09T10:14:02.227Z</time></trkpt><trkpt lat="38.4476317" lon="16.3481783"><ele>621.0</ele><time>2026-04-09T10:14:03.227Z</time></trkpt><trkpt lat="38.4475533" lon="16.348195"><ele>614.9999999999999</ele><time>2026-04-09T10:14:04.227Z</time></trkpt><trkpt lat="38.44747" lon="16.34821"><ele>609.0</ele><time>2026-04-09T10:14:05.227Z</time></trkpt><trkpt lat="38.447395" lon="16.3482317"><ele>603.0</ele><time>2026-04-09T10:14:06.227Z</time></trkpt><trkpt lat="38.4473283" lon="16.3482533"><ele>597.0</ele><time>2026-04-09T10:14:07.227Z</time></trkpt><trkpt lat="38.447265" lon="16.3482783"><ele>591.0</ele><time>2026-04-09T10:14:08.227Z</time></trkpt><trkpt lat="38.447195" lon="16.3483083"><ele>584.9999999999999</ele><time>2026-04-09T10:14:09.226Z</time></trkpt><trkpt lat="38.4471267" lon="16.34834"><ele>579.0</ele><time>2026-04-09T10:14:10.227Z</time></trkpt><trkpt lat="38.4470633" lon="16.348355"><ele>576.2</ele><time>2026-04-09T10:14:11.226Z</time></trkpt><trkpt lat="38.4469583" lon="16.34833"><ele>573.4</ele><time>2026-04-09T10:14:13.227Z</time></trkpt><trkpt lat="38.4468667" lon="16.3482467"><ele>570.6</ele><time>2026-04-09T10:14:15.227Z</time></trkpt><trkpt lat="38.44682" lon="16.3481917"><ele>567.8</ele><time>2026-04-09T10:14:16.226Z</time></trkpt><trkpt lat="38.4467417" lon="16.3481033"><ele>565.0</ele><time>2026-04-09T10:14:18.227Z</time></trkpt><trkpt lat="38.4466667" lon="16.3480317"><ele>565.0</ele><time>2026-04-09T10:14:20.227Z</time></trkpt><trkpt lat="38.4465867" lon="16.3479867"><ele>565.0</ele><time>2026-04-09T10:14:22.227Z</time></trkpt><trkpt lat="38.4464983" lon="16.3479917"><ele>565.0</ele><time>2026-04-09T10:14:24.227Z</time></trkpt><trkpt lat="38.4463933" lon="16.3480517"><ele>565.0</ele><time>2026-04-09T10:14:26.227Z</time></trkpt><trkpt lat="38.446335" lon="16.34811"><ele>565.0</ele><time>2026-04-09T10:14:27.227Z</time></trkpt><trkpt lat="38.4462717" lon="16.348175"><ele>565.0</ele><time>2026-04-09T10:14:28.227Z</time></trkpt><trkpt lat="38.4462033" lon="16.3482367"><ele>566.8333333333334</ele><time>2026-04-09T10:14:29.227Z</time></trkpt><trkpt lat="38.4461383" lon="16.3483"><ele>568.6666666666667</ele><time>2026-04-09T10:14:30.227Z</time></trkpt><trkpt lat="38.4460717" lon="16.3483767"><ele>570.5</ele><time>2026-04-09T10:14:31.227Z</time></trkpt><trkpt lat="38.4459933" lon="16.3484533"><ele>572.3333333333334</ele><time>2026-04-09T10:14:32.227Z</time></trkpt><trkpt lat="38.4459217" lon="16.3485217"><ele>574.1666666666666</ele><time>2026-04-09T10:14:33.227Z</time></trkpt><trkpt lat="38.4458567" lon="16.3485833"><ele>576.0</ele><time>2026-04-09T10:14:34.227Z</time></trkpt><trkpt lat="38.4457967" lon="16.3486367"><ele>576.0</ele><time>2026-04-09T10:14:35.227Z</time></trkpt><trkpt lat="38.4457217" lon="16.3486883"><ele>576.0</ele><time>2026-04-09T10:14:36.227Z</time></trkpt><trkpt lat="38.4456433" lon="16.3487417"><ele>576.0</ele><time>2026-04-09T10:14:37.227Z</time></trkpt><trkpt lat="38.44556" lon="16.3487917"><ele>576.0</ele><time>2026-04-09T10:14:38.227Z</time></trkpt><trkpt lat="38.4454817" lon="16.3488333"><ele>576.0</ele><time>2026-04-09T10:14:39.227Z</time></trkpt><trkpt lat="38.4454" lon="16.3488833"><ele>576.0</ele><time>2026-04-09T10:14:40.227Z</time></trkpt><trkpt lat="38.445325" lon="16.3489483"><ele>571.5</ele><time>2026-04-09T10:14:41.227Z</time></trkpt><trkpt lat="38.445255" lon="16.3490117"><ele>567.0</ele><time>2026-04-09T10:14:42.227Z</time></trkpt><trkpt lat="38.4451833" lon="16.3490517"><ele>562.5</ele><time>2026-04-09T10:14:43.227Z</time></trkpt><trkpt lat="38.445105" lon="16.34908"><ele>558.0</ele><time>2026-04-09T10:14:44.227Z</time></trkpt><trkpt lat="38.4450183" lon="16.3490967"><ele>553.5</ele><time>2026-04-09T10:14:45.226Z</time></trkpt><trkpt lat="38.4449267" lon="16.3491167"><ele>549.0</ele><time>2026-04-09T10:14:46.227Z</time></trkpt><trkpt lat="38.4448433" lon="16.3491483"><ele>549.0</ele><time>2026-04-09T10:14:47.226Z</time></trkpt><trkpt lat="38.4447567" lon="16.3491783"><ele>549.0</ele><time>2026-04-09T10:14:48.226Z</time></trkpt><trkpt lat="38.4446683" lon="16.3491983"><ele>549.0</ele><time>2026-04-09T10:14:49.226Z</time></trkpt><trkpt lat="38.4445767" lon="16.349225"><ele>549.0</ele><time>2026-04-09T10:14:50.226Z</time></trkpt><trkpt lat="38.4444967" lon="16.3492383"><ele>549.0</ele><time>2026-04-09T10:14:51.226Z</time></trkpt><trkpt lat="38.4444233" lon="16.3492533"><ele>549.0</ele><time>2026-04-09T10:14:52.226Z</time></trkpt><trkpt lat="38.44434" lon="16.3492767"><ele>550.1666666666666</ele><time>2026-04-09T10:14:53.226Z</time></trkpt><trkpt lat="38.4442717" lon="16.349315"><ele>551.3333333333334</ele><time>2026-04-09T10:14:54.226Z</time></trkpt><trkpt lat="38.4442017" lon="16.3493733"><ele>552.5</ele><time>2026-04-09T10:14:55.226Z</time></trkpt><trkpt lat="38.4441317" lon="16.3494383"><ele>553.6666666666667</ele><time>2026-04-09T10:14:56.226Z</time></trkpt><trkpt lat="38.4440633" lon="16.34951"><ele>554.8333333333334</ele><time>2026-04-09T10:14:57.226Z</time></trkpt><trkpt lat="38.4440033" lon="16.3495917"><ele>556.0</ele><time>2026-04-09T10:14:58.226Z</time></trkpt><trkpt lat="38.4439533" lon="16.34967"><ele>553.5</ele><time>2026-04-09T10:14:59.226Z</time></trkpt><trkpt lat="38.4439033" lon="16.349745"><ele>551.0</ele><time>2026-04-09T10:15:00.226Z</time></trkpt><trkpt lat="38.4438533" lon="16.3498267"><ele>548.5</ele><time>2026-04-09T10:15:01.226Z</time></trkpt><trkpt lat="38.443815" lon="16.3499117"><ele>546.0</ele><time>2026-04-09T10:15:02.225Z</time></trkpt><trkpt lat="38.443775" lon="16.3499983"><ele>543.5</ele><time>2026-04-09T10:15:03.226Z</time></trkpt><trkpt lat="38.4437483" lon="16.350085"><ele>541.0</ele><time>2026-04-09T10:15:04.226Z</time></trkpt><trkpt lat="38.443725" lon="16.35019"><ele>541.0</ele><time>2026-04-09T10:15:05.225Z</time></trkpt><trkpt lat="38.4437117" lon="16.3502967"><ele>541.0</ele><time>2026-04-09T10:15:06.225Z</time></trkpt><trkpt lat="38.4436967" lon="16.35039"><ele>541.0</ele><time>2026-04-09T10:15:07.226Z</time></trkpt><trkpt lat="38.4436833" lon="16.3504783"><ele>541.0</ele><time>2026-04-09T10:15:08.225Z</time></trkpt><trkpt lat="38.4436733" lon="16.3505667"><ele>541.0</ele><time>2026-04-09T10:15:09.226Z</time></trkpt><trkpt lat="38.4436517" lon="16.3507267"><ele>541.0</ele><time>2026-04-09T10:15:11.226Z</time></trkpt><trkpt lat="38.443625" lon="16.3508783"><ele>539.2</ele><time>2026-04-09T10:15:13.225Z</time></trkpt><trkpt lat="38.4435767" lon="16.351015"><ele>537.4000000000001</ele><time>2026-04-09T10:15:15.226Z</time></trkpt><trkpt lat="38.44348" lon="16.3511017"><ele>535.6</ele><time>2026-04-09T10:15:17.226Z</time></trkpt><trkpt lat="38.4434167" lon="16.3511317"><ele>533.8000000000001</ele><time>2026-04-09T10:15:18.226Z</time></trkpt><trkpt lat="38.4433367" lon="16.35115"><ele>532.0</ele><time>2026-04-09T10:15:19.226Z</time></trkpt><trkpt lat="38.4432583" lon="16.3511583"><ele>532.0</ele><time>2026-04-09T10:15:20.226Z</time></trkpt><trkpt lat="38.4431333" lon="16.3511267"><ele>532.0</ele><time>2026-04-09T10:15:22.226Z</time></trkpt><trkpt lat="38.4430367" lon="16.3510417"><ele>532.0</ele><time>2026-04-09T10:15:24.226Z</time></trkpt><trkpt lat="38.442975" lon="16.3509183"><ele>532.0</ele><time>2026-04-09T10:15:26.226Z</time></trkpt><trkpt lat="38.442935" lon="16.350835"><ele>532.0</ele><time>2026-04-09T10:15:27.226Z</time></trkpt><trkpt lat="38.4428867" lon="16.3507367"><ele>526.5</ele><time>2026-04-09T10:15:28.226Z</time></trkpt><trkpt lat="38.44282" lon="16.3506333"><ele>521.0</ele><time>2026-04-09T10:15:29.226Z</time></trkpt><trkpt lat="38.4427433" lon="16.3505067"><ele>515.5</ele><time>2026-04-09T10:15:30.226Z</time></trkpt><trkpt lat="38.4426667" lon="16.3503833"><ele>510.0</ele><time>2026-04-09T10:15:31.226Z</time></trkpt><trkpt lat="38.4425883" lon="16.3502133"><ele>510.0</ele><time>2026-04-09T10:15:33.226Z</time></trkpt><trkpt lat="38.442555" lon="16.3500733"><ele>510.0</ele><time>2026-04-09T10:15:35.225Z</time></trkpt><trkpt lat="38.4425567" lon="16.349945"><ele>510.0</ele><time>2026-04-09T10:15:37.226Z</time></trkpt><trkpt lat="38.4425983" lon="16.3497983"><ele>510.0</ele><time>2026-04-09T10:15:39.226Z</time></trkpt><trkpt lat="38.4426233" lon="16.34971"><ele>510.0</ele><time>2026-04-09T10:15:40.226Z</time></trkpt><trkpt lat="38.4426433" lon="16.349615"><ele>507.8571428571429</ele><time>2026-04-09T10:15:41.226Z</time></trkpt><trkpt lat="38.4426667" lon="16.3495267"><ele>505.7142857142858</ele><time>2026-04-09T10:15:42.225Z</time></trkpt><trkpt lat="38.44269" lon="16.349435"><ele>503.57142857142856</ele><time>2026-04-09T10:15:43.226Z</time></trkpt><trkpt lat="38.4427167" lon="16.349345"><ele>501.42857142857144</ele><time>2026-04-09T10:15:44.226Z</time></trkpt><trkpt lat="38.4427483" lon="16.349265"><ele>499.2857142857143</ele><time>2026-04-09T10:15:45.225Z</time></trkpt><trkpt lat="38.4427783" lon="16.3491883"><ele>497.1428571428571</ele><time>2026-04-09T10:15:46.226Z</time></trkpt><trkpt lat="38.4428017" lon="16.3491"><ele>494.99999999999994</ele><time>2026-04-09T10:15:47.226Z</time></trkpt><trkpt lat="38.4427967" lon="16.3490133"><ele>495.0</ele><time>2026-04-09T10:15:48.226Z</time></trkpt><trkpt lat="38.4427733" lon="16.3489233"><ele>495.0</ele><time>2026-04-09T10:15:49.226Z</time></trkpt><trkpt lat="38.44274" lon="16.34884"><ele>495.0</ele><time>2026-04-09T10:15:50.226Z</time></trkpt><trkpt lat="38.4426933" lon="16.348755"><ele>495.0</ele><time>2026-04-09T10:15:51.225Z</time></trkpt><trkpt lat="38.442665" lon="16.3486767"><ele>495.0</ele><time>2026-04-09T10:15:52.226Z</time></trkpt><trkpt lat="38.4426533" lon="16.3485367"><ele>495.0</ele><time>2026-04-09T10:15:54.226Z</time></trkpt><trkpt lat="38.442675" lon="16.3484583"><ele>492.8</ele><time>2026-04-09T10:15:55.226Z</time></trkpt><trkpt lat="38.4426967" lon="16.3483783"><ele>490.6</ele><time>2026-04-09T10:15:56.225Z</time></trkpt><trkpt lat="38.4427167" lon="16.3483017"><ele>488.4</ele><time>2026-04-09T10:15:57.226Z</time></trkpt><trkpt lat="38.4427383" lon="16.3481383"><ele>486.2</ele><time>2026-04-09T10:15:59.226Z</time></trkpt><trkpt lat="38.4427317" lon="16.3480483"><ele>484.0</ele><time>2026-04-09T10:16:00.226Z</time></trkpt><trkpt lat="38.4426733" lon="16.347875"><ele>480.79999999999995</ele><time>2026-04-09T10:16:02.226Z</time></trkpt><trkpt lat="38.4426383" lon="16.3477967"><ele>477.59999999999997</ele><time>2026-04-09T10:16:03.226Z</time></trkpt><trkpt lat="38.4426" lon="16.3476467"><ele>474.4</ele><time>2026-04-09T10:16:05.226Z</time></trkpt><trkpt lat="38.4425967" lon="16.347565"><ele>471.2</ele><time>2026-04-09T10:16:06.226Z</time></trkpt><trkpt lat="38.442635" lon="16.3474167"><ele>468.0</ele><time>2026-04-09T10:16:08.225Z</time></trkpt><trkpt lat="38.4426783" lon="16.3473467"><ele>468.0</ele><time>2026-04-09T10:16:09.226Z</time></trkpt><trkpt lat="38.4427317" lon="16.3472883"><ele>468.0</ele><time>2026-04-09T10:16:10.226Z</time></trkpt><trkpt lat="38.442795" lon="16.34726"><ele>468.0</ele><time>2026-04-09T10:16:11.225Z</time></trkpt><trkpt lat="38.44287" lon="16.3472467"><ele>468.0</ele><time>2026-04-09T10:16:12.225Z</time></trkpt><trkpt lat="38.4429533" lon="16.3472283"><ele>468.0</ele><time>2026-04-09T10:16:13.226Z</time></trkpt><trkpt lat="38.4430333" lon="16.3471933"><ele>468.0</ele><time>2026-04-09T10:16:14.226Z</time></trkpt><trkpt lat="38.44311" lon="16.3471633"><ele>469.6666666666667</ele><time>2026-04-09T10:16:15.226Z</time></trkpt><trkpt lat="38.4431717" lon="16.3471217"><ele>471.33333333333337</ele><time>2026-04-09T10:16:16.226Z</time></trkpt><trkpt lat="38.4432283" lon="16.3470667"><ele>473.0</ele><time>2026-04-09T10:16:17.226Z</time></trkpt><trkpt lat="38.4432683" lon="16.347"><ele>474.6666666666667</ele><time>2026-04-09T10:16:18.226Z</time></trkpt><trkpt lat="38.4432933" lon="16.3469183"><ele>476.33333333333337</ele><time>2026-04-09T10:16:19.226Z</time></trkpt><trkpt lat="38.4433217" lon="16.34678"><ele>478.0</ele><time>2026-04-09T10:16:21.226Z</time></trkpt><trkpt lat="38.4433733" lon="16.346715"><ele>478.0</ele><time>2026-04-09T10:16:22.226Z</time></trkpt><trkpt lat="38.4434433" lon="16.3466483"><ele>477.99999999999994</ele><time>2026-04-09T10:16:23.226Z</time></trkpt><trkpt lat="38.4435283" lon="16.3465833"><ele>477.99999999999994</ele><time>2026-04-09T10:16:24.226Z</time></trkpt><trkpt lat="38.4436133" lon="16.346505"><ele>478.0</ele><time>2026-04-09T10:16:25.226Z</time></trkpt><trkpt lat="38.4436833" lon="16.3464183"><ele>478.0</ele><time>2026-04-09T10:16:26.226Z</time></trkpt><trkpt lat="38.4437483" lon="16.3463367"><ele>478.8571428571429</ele><time>2026-04-09T10:16:27.226Z</time></trkpt><trkpt lat="38.4437967" lon="16.346275"><ele>479.7142857142857</ele><time>2026-04-09T10:16:28.226Z</time></trkpt><trkpt lat="38.4438433" lon="16.34622"><ele>480.57142857142856</ele><time>2026-04-09T10:16:29.226Z</time></trkpt><trkpt lat="38.4438933" lon="16.3461567"><ele>481.42857142857144</ele><time>2026-04-09T10:16:31.226Z</time></trkpt><trkpt lat="38.4439417" lon="16.3460567"><ele>482.2857142857142</ele><time>2026-04-09T10:16:34.226Z</time></trkpt><trkpt lat="38.4439717" lon="16.3459833"><ele>483.1428571428571</ele><time>2026-04-09T10:16:36.226Z</time></trkpt><trkpt lat="38.4440067" lon="16.3458867"><ele>484.0</ele><time>2026-04-09T10:16:38.225Z</time></trkpt><trkpt lat="38.4440367" lon="16.3457867"><ele>484.0</ele><time>2026-04-09T10:16:40.226Z</time></trkpt><trkpt lat="38.4440817" lon="16.34567"><ele>484.0</ele><time>2026-04-09T10:16:42.226Z</time></trkpt><trkpt lat="38.4441133" lon="16.3456"><ele>484.0</ele><time>2026-04-09T10:16:43.226Z</time></trkpt><trkpt lat="38.4441767" lon="16.3454733"><ele>484.0</ele><time>2026-04-09T10:16:45.226Z</time></trkpt><trkpt lat="38.4441817" lon="16.3453267"><ele>484.0</ele><time>2026-04-09T10:16:47.226Z</time></trkpt><trkpt lat="38.4441717" lon="16.3452433"><ele>481.83333333333337</ele><time>2026-04-09T10:16:48.226Z</time></trkpt><trkpt lat="38.444155" lon="16.345165"><ele>479.6666666666667</ele><time>2026-04-09T10:16:49.226Z</time></trkpt><trkpt lat="38.444135" lon="16.3450883"><ele>477.5</ele><time>2026-04-09T10:16:50.226Z</time></trkpt><trkpt lat="38.4441117" lon="16.34495"><ele>475.33333333333337</ele><time>2026-04-09T10:16:52.226Z</time></trkpt><trkpt lat="38.4441333" lon="16.3448283"><ele>473.1666666666667</ele><time>2026-04-09T10:16:54.226Z</time></trkpt><trkpt lat="38.444185" lon="16.34471"><ele>471.0</ele><time>2026-04-09T10:16:56.226Z</time></trkpt><trkpt lat="38.444265" lon="16.3445883"><ele>468.1666666666667</ele><time>2026-04-09T10:16:58.226Z</time></trkpt><trkpt lat="38.4443383" lon="16.3444633"><ele>465.33333333333337</ele><time>2026-04-09T10:17:00.226Z</time></trkpt><trkpt lat="38.4443817" lon="16.34439"><ele>462.5</ele><time>2026-04-09T10:17:01.226Z</time></trkpt><trkpt lat="38.4444233" lon="16.3443083"><ele>459.6666666666667</ele><time>2026-04-09T10:17:02.225Z</time></trkpt><trkpt lat="38.4444633" lon="16.344215"><ele>456.83333333333337</ele><time>2026-04-09T10:17:03.226Z</time></trkpt><trkpt lat="38.444495" lon="16.3441233"><ele>454.0</ele><time>2026-04-09T10:17:04.226Z</time></trkpt><trkpt lat="38.4445183" lon="16.3440233"><ele>454.0</ele><time>2026-04-09T10:17:05.226Z</time></trkpt><trkpt lat="38.444545" lon="16.34393"><ele>454.0</ele><time>2026-04-09T10:17:06.226Z</time></trkpt><trkpt lat="38.4445617" lon="16.3438317"><ele>454.0</ele><time>2026-04-09T10:17:07.226Z</time></trkpt><trkpt lat="38.44456" lon="16.3437067"><ele>454.0</ele><time>2026-04-09T10:17:08.226Z</time></trkpt><trkpt lat="38.44455" lon="16.3435667"><ele>454.0</ele><time>2026-04-09T10:17:09.226Z</time></trkpt><trkpt lat="38.4445533" lon="16.3434533"><ele>450.4</ele><time>2026-04-09T10:17:10.226Z</time></trkpt><trkpt lat="38.4445283" lon="16.3433333"><ele>446.79999999999995</ele><time>2026-04-09T10:17:11.226Z</time></trkpt><trkpt lat="38.4445183" lon="16.3432117"><ele>443.20000000000005</ele><time>2026-04-09T10:17:12.226Z</time></trkpt><trkpt lat="38.4445017" lon="16.3430933"><ele>439.6</ele><time>2026-04-09T10:17:13.226Z</time></trkpt><trkpt lat="38.4444767" lon="16.34299"><ele>436.0</ele><time>2026-04-09T10:17:14.226Z</time></trkpt><trkpt lat="38.4444567" lon="16.3428883"><ele>436.6666666666667</ele><time>2026-04-09T10:17:15.226Z</time></trkpt><trkpt lat="38.4444667" lon="16.3427383"><ele>437.33333333333337</ele><time>2026-04-09T10:17:17.226Z</time></trkpt><trkpt lat="38.4445083" lon="16.3426667"><ele>438.0</ele><time>2026-04-09T10:17:18.226Z</time></trkpt><trkpt lat="38.4445667" lon="16.342595"><ele>438.66666666666663</ele><time>2026-04-09T10:17:19.226Z</time></trkpt><trkpt lat="38.444625" lon="16.342515"><ele>439.3333333333333</ele><time>2026-04-09T10:17:20.226Z</time></trkpt><trkpt lat="38.4446933" lon="16.3424317"><ele>440.0</ele><time>2026-04-09T10:17:21.226Z</time></trkpt><trkpt lat="38.4447583" lon="16.34235"><ele>439.99999999999994</ele><time>2026-04-09T10:17:22.226Z</time></trkpt><trkpt lat="38.444825" lon="16.3422833"><ele>440.0</ele><time>2026-04-09T10:17:23.226Z</time></trkpt><trkpt lat="38.4448967" lon="16.3422517"><ele>440.0</ele><time>2026-04-09T10:17:24.226Z</time></trkpt><trkpt lat="38.4449817" lon="16.342245"><ele>440.0</ele><time>2026-04-09T10:17:25.226Z</time></trkpt><trkpt lat="38.4450467" lon="16.3422517"><ele>439.99999999999994</ele><time>2026-04-09T10:17:26.226Z</time></trkpt><trkpt lat="38.4451083" lon="16.3422883"><ele>440.0</ele><time>2026-04-09T10:17:27.226Z</time></trkpt><trkpt lat="38.445175" lon="16.3423483"><ele>439.99999999999994</ele><time>2026-04-09T10:17:28.225Z</time></trkpt><trkpt lat="38.4452267" lon="16.3424117"><ele>440.0</ele><time>2026-04-09T10:17:29.226Z</time></trkpt><trkpt lat="38.4452533" lon="16.3425067"><ele>440.0</ele><time>2026-04-09T10:17:30.226Z</time></trkpt><trkpt lat="38.4452867" lon="16.34259"><ele>440.0</ele><time>2026-04-09T10:17:31.226Z</time></trkpt><trkpt lat="38.4453433" lon="16.3426833"><ele>439.99999999999994</ele><time>2026-04-09T10:17:33.226Z</time></trkpt><trkpt lat="38.4453117" lon="16.3426117"><ele>440.0</ele><time>2026-04-09T10:18:25.226Z</time></trkpt><trkpt lat="38.4452583" lon="16.342445"><ele>440.0</ele><time>2026-04-09T10:18:27.226Z</time></trkpt><trkpt lat="38.445215" lon="16.34233"><ele>440.0</ele><time>2026-04-09T10:18:28.226Z</time></trkpt><trkpt lat="38.44516" lon="16.3422067"><ele>440.0</ele><time>2026-04-09T10:18:29.226Z</time></trkpt><trkpt lat="38.4451033" lon="16.3420983"><ele>440.0</ele><time>2026-04-09T10:18:30.226Z</time></trkpt><trkpt lat="38.44504" lon="16.34203"><ele>440.0</ele><time>2026-04-09T10:18:31.226Z</time></trkpt><trkpt lat="38.4449633" lon="16.3419233"><ele>438.66666666666663</ele><time>2026-04-09T10:18:33.226Z</time></trkpt><trkpt lat="38.4449817" lon="16.341845"><ele>437.3333333333333</ele><time>2026-04-09T10:18:35.226Z</time></trkpt><trkpt lat="38.44508" lon="16.3418867"><ele>436.0</ele><time>2026-04-09T10:18:37.226Z</time></trkpt><trkpt lat="38.4451567" lon="16.3419583"><ele>434.66666666666663</ele><time>2026-04-09T10:18:38.226Z</time></trkpt><trkpt lat="38.4452133" lon="16.3419983"><ele>433.3333333333333</ele><time>2026-04-09T10:18:39.226Z</time></trkpt><trkpt lat="38.4453017" lon="16.34198"><ele>432.0</ele><time>2026-04-09T10:18:41.226Z</time></trkpt><trkpt lat="38.44539" lon="16.3419333"><ele>432.6</ele><time>2026-04-09T10:19:37.225Z</time></trkpt><trkpt lat="38.4454767" lon="16.3419"><ele>433.20000000000005</ele><time>2026-04-09T10:19:39.226Z</time></trkpt><trkpt lat="38.4455483" lon="16.3419183"><ele>433.8</ele><time>2026-04-09T10:19:41.226Z</time></trkpt><trkpt lat="38.44562" lon="16.3419883"><ele>434.4</ele><time>2026-04-09T10:19:43.226Z</time></trkpt><trkpt lat="38.4457133" lon="16.34206"><ele>435.0</ele><time>2026-04-09T10:19:45.226Z</time></trkpt><trkpt lat="38.4458167" lon="16.3420383"><ele>435.0</ele><time>2026-04-09T10:19:47.226Z</time></trkpt><trkpt lat="38.445815" lon="16.3419367"><ele>435.0</ele><time>2026-04-09T10:19:49.226Z</time></trkpt><trkpt lat="38.445765" lon="16.3418583"><ele>435.0</ele><time>2026-04-09T10:19:50.225Z</time></trkpt><trkpt lat="38.4456933" lon="16.3417683"><ele>435.0</ele><time>2026-04-09T10:19:51.226Z</time></trkpt><trkpt lat="38.445625" lon="16.34167"><ele>435.0</ele><time>2026-04-09T10:19:52.226Z</time></trkpt><trkpt lat="38.4455567" lon="16.3415533"><ele>435.0</ele><time>2026-04-09T10:19:53.226Z</time></trkpt><trkpt lat="38.4454933" lon="16.341445"><ele>435.0</ele><time>2026-04-09T10:19:54.226Z</time></trkpt><trkpt lat="38.445445" lon="16.3413533"><ele>435.0</ele><time>2026-04-09T10:19:55.226Z</time></trkpt><trkpt lat="38.44539" lon="16.3412833"><ele>435.0</ele><time>2026-04-09T10:19:56.226Z</time></trkpt><trkpt lat="38.4453233" lon="16.3412333"><ele>435.0</ele><time>2026-04-09T10:19:57.226Z</time></trkpt><trkpt lat="38.4452467" lon="16.3411933"><ele>435.0</ele><time>2026-04-09T10:19:58.226Z</time></trkpt><trkpt lat="38.4451533" lon="16.341185"><ele>440.8333333333333</ele><time>2026-04-09T10:19:59.226Z</time></trkpt><trkpt lat="38.4450733" lon="16.3411683"><ele>446.66666666666663</ele><time>2026-04-09T10:20:00.226Z</time></trkpt><trkpt lat="38.445" lon="16.3411467"><ele>452.5</ele><time>2026-04-09T10:20:01.226Z</time></trkpt><trkpt lat="38.4449183" lon="16.3411"><ele>458.3333333333333</ele><time>2026-04-09T10:20:03.226Z</time></trkpt><trkpt lat="38.444975" lon="16.341065"><ele>464.16666666666663</ele><time>2026-04-09T10:20:05.226Z</time></trkpt><trkpt lat="38.4450433" lon="16.34109"><ele>470.0</ele><time>2026-04-09T10:20:06.226Z</time></trkpt><trkpt lat="38.4451183" lon="16.34107"><ele>470.0</ele><time>2026-04-09T10:20:07.226Z</time></trkpt><trkpt lat="38.4452033" lon="16.341025"><ele>470.0</ele><time>2026-04-09T10:20:08.226Z</time></trkpt><trkpt lat="38.4453267" lon="16.34096"><ele>470.0</ele><time>2026-04-09T10:20:09.226Z</time></trkpt><trkpt lat="38.4454517" lon="16.34091"><ele>470.0</ele><time>2026-04-09T10:20:10.226Z</time></trkpt><trkpt lat="38.4455683" lon="16.3409017"><ele>467.75</ele><time>2026-04-09T10:20:11.226Z</time></trkpt><trkpt lat="38.4456933" lon="16.3408983"><ele>465.5</ele><time>2026-04-09T10:20:12.225Z</time></trkpt><trkpt lat="38.4458167" lon="16.3408783"><ele>463.25</ele><time>2026-04-09T10:20:13.226Z</time></trkpt><trkpt lat="38.4459583" lon="16.3408083"><ele>461.0</ele><time>2026-04-09T10:20:14.226Z</time></trkpt><trkpt lat="38.4460817" lon="16.3407567"><ele>461.0</ele><time>2026-04-09T10:20:15.226Z</time></trkpt><trkpt lat="38.4461667" lon="16.3406983"><ele>461.0</ele><time>2026-04-09T10:20:16.226Z</time></trkpt><trkpt lat="38.4462167" lon="16.3406433"><ele>461.0</ele><time>2026-04-09T10:20:17.226Z</time></trkpt><trkpt lat="38.4462267" lon="16.3405517"><ele>461.0</ele><time>2026-04-09T10:20:19.226Z</time></trkpt><trkpt lat="38.446095" lon="16.3405"><ele>461.0</ele><time>2026-04-09T10:20:21.226Z</time></trkpt><trkpt lat="38.4459783" lon="16.340475"><ele>472.3333333333333</ele><time>2026-04-09T10:20:22.226Z</time></trkpt><trkpt lat="38.4457967" lon="16.34045"><ele>483.66666666666663</ele><time>2026-04-09T10:20:23.226Z</time></trkpt><trkpt lat="38.4456333" lon="16.3404383"><ele>495.0</ele><time>2026-04-09T10:20:24.226Z</time></trkpt><trkpt lat="38.445475" lon="16.340465"><ele>500.5</ele><time>2026-04-09T10:20:25.226Z</time></trkpt><trkpt lat="38.445345" lon="16.340525"><ele>506.0</ele><time>2026-04-09T10:20:26.225Z</time></trkpt><trkpt lat="38.4452217" lon="16.3406267"><ele>511.5</ele><time>2026-04-09T10:20:27.226Z</time></trkpt><trkpt lat="38.4451033" lon="16.340725"><ele>517.0</ele><time>2026-04-09T10:20:28.226Z</time></trkpt><trkpt lat="38.4449917" lon="16.3408017"><ele>509.25</ele><time>2026-04-09T10:20:29.226Z</time></trkpt><trkpt lat="38.4448833" lon="16.340835"><ele>501.5</ele><time>2026-04-09T10:20:30.226Z</time></trkpt><trkpt lat="38.444775" lon="16.3408317"><ele>493.75</ele><time>2026-04-09T10:20:31.225Z</time></trkpt><trkpt lat="38.4446517" lon="16.34079"><ele>486.0</ele><time>2026-04-09T10:20:32.225Z</time></trkpt><trkpt lat="38.4445117" lon="16.340735"><ele>486.0</ele><time>2026-04-09T10:20:33.226Z</time></trkpt><trkpt lat="38.444355" lon="16.34069"><ele>486.0</ele><time>2026-04-09T10:20:34.226Z</time></trkpt><trkpt lat="38.44419" lon="16.34067"><ele>486.0</ele><time>2026-04-09T10:20:35.226Z</time></trkpt><trkpt lat="38.44405" lon="16.3406667"><ele>486.0</ele><time>2026-04-09T10:20:36.226Z</time></trkpt><trkpt lat="38.443945" lon="16.3406583"><ele>486.0</ele><time>2026-04-09T10:20:37.226Z</time></trkpt><trkpt lat="38.44386" lon="16.34064"><ele>486.0</ele><time>2026-04-09T10:20:38.226Z</time></trkpt><trkpt lat="38.4437733" lon="16.3406083"><ele>486.0</ele><time>2026-04-09T10:20:40.226Z</time></trkpt><trkpt lat="38.443845" lon="16.340545"><ele>486.0</ele><time>2026-04-09T10:20:55.226Z</time></trkpt><trkpt lat="38.4439267" lon="16.34054"><ele>493.8333333333333</ele><time>2026-04-09T10:20:57.226Z</time></trkpt><trkpt lat="38.44402" lon="16.3405167"><ele>501.66666666666663</ele><time>2026-04-09T10:20:59.226Z</time></trkpt><trkpt lat="38.4441167" lon="16.3404933"><ele>509.5</ele><time>2026-04-09T10:21:01.226Z</time></trkpt><trkpt lat="38.4441967" lon="16.3404883"><ele>517.3333333333333</ele><time>2026-04-09T10:21:03.226Z</time></trkpt><trkpt lat="38.4442633" lon="16.340475"><ele>525.1666666666666</ele><time>2026-04-09T10:21:05.226Z</time></trkpt><trkpt lat="38.44436" lon="16.3404767"><ele>533.0</ele><time>2026-04-09T10:21:33.226Z</time></trkpt><trkpt lat="38.4444617" lon="16.3404817"><ele>529.8</ele><time>2026-04-09T10:21:36.226Z</time></trkpt><trkpt lat="38.4446417" lon="16.340505"><ele>526.5999999999999</ele><time>2026-04-09T10:21:39.226Z</time></trkpt><trkpt lat="38.4447133" lon="16.3404867"><ele>523.4000000000001</ele><time>2026-04-09T10:21:40.226Z</time></trkpt><trkpt lat="38.4447783" lon="16.3404367"><ele>520.2</ele><time>2026-04-09T10:21:41.226Z</time></trkpt><trkpt lat="38.4448217" lon="16.340355"><ele>517.0</ele><time>2026-04-09T10:21:42.226Z</time></trkpt><trkpt lat="38.44485" lon="16.340265"><ele>517.0</ele><time>2026-04-09T10:21:43.226Z</time></trkpt><trkpt lat="38.444855" lon="16.340165"><ele>517.0</ele><time>2026-04-09T10:21:44.226Z</time></trkpt><trkpt lat="38.4448467" lon="16.3400733"><ele>517.0</ele><time>2026-04-09T10:21:45.226Z</time></trkpt><trkpt lat="38.4448283" lon="16.3399833"><ele>517.0</ele><time>2026-04-09T10:21:46.226Z</time></trkpt><trkpt lat="38.4448067" lon="16.3398983"><ele>517.0</ele><time>2026-04-09T10:21:47.226Z</time></trkpt><trkpt lat="38.4447817" lon="16.3397617"><ele>517.0</ele><time>2026-04-09T10:21:49.226Z</time></trkpt><trkpt lat="38.44478" lon="16.3396683"><ele>521.2</ele><time>2026-04-09T10:21:51.226Z</time></trkpt><trkpt lat="38.4449467" lon="16.3396633"><ele>525.4000000000001</ele><time>2026-04-09T10:21:55.226Z</time></trkpt><trkpt lat="38.4450433" lon="16.3396317"><ele>529.5999999999999</ele><time>2026-04-09T10:21:57.225Z</time></trkpt><trkpt lat="38.4451067" lon="16.3395933"><ele>533.8</ele><time>2026-04-09T10:21:58.226Z</time></trkpt><trkpt lat="38.44517" lon="16.33955"><ele>538.0</ele><time>2026-04-09T10:21:59.226Z</time></trkpt><trkpt lat="38.44528" lon="16.3394333"><ele>538.0</ele><time>2026-04-09T10:22:01.226Z</time></trkpt><trkpt lat="38.445325" lon="16.3393667"><ele>538.0</ele><time>2026-04-09T10:22:02.226Z</time></trkpt><trkpt lat="38.4453633" lon="16.339275"><ele>538.0</ele><time>2026-04-09T10:22:04.226Z</time></trkpt><trkpt lat="38.44529" lon="16.33925"><ele>538.0</ele><time>2026-04-09T10:22:07.226Z</time></trkpt><trkpt lat="38.4452083" lon="16.3393117"><ele>538.0</ele><time>2026-04-09T10:22:09.226Z</time></trkpt><trkpt lat="38.44513" lon="16.339365"><ele>538.0</ele><time>2026-04-09T10:22:11.226Z</time></trkpt><trkpt lat="38.4450217" lon="16.3393917"><ele>538.0</ele><time>2026-04-09T10:22:14.226Z</time></trkpt><trkpt lat="38.4449617" lon="16.3393567"><ele>538.0</ele><time>2026-04-09T10:22:17.226Z</time></trkpt><trkpt lat="38.4450167" lon="16.3392517"><ele>538.0</ele><time>2026-04-09T10:22:20.226Z</time></trkpt><trkpt lat="38.4450867" lon="16.3391117"><ele>538.0</ele><time>2026-04-09T10:22:23.226Z</time></trkpt><trkpt lat="38.4451183" lon="16.3389817"><ele>538.0</ele><time>2026-04-09T10:22:25.226Z</time></trkpt><trkpt lat="38.44513" lon="16.3388267"><ele>538.0</ele><time>2026-04-09T10:22:27.226Z</time></trkpt><trkpt lat="38.44511" lon="16.3387417"><ele>538.0</ele><time>2026-04-09T10:22:29.226Z</time></trkpt><trkpt lat="38.4450417" lon="16.3387567"><ele>538.0</ele><time>2026-04-09T10:22:32.226Z</time></trkpt><trkpt lat="38.4449983" lon="16.3388317"><ele>538.0</ele><time>2026-04-09T10:22:34.226Z</time></trkpt><trkpt lat="38.444955" lon="16.3389133"><ele>538.0</ele><time>2026-04-09T10:22:36.226Z</time></trkpt><trkpt lat="38.4448917" lon="16.338895"><ele>538.0</ele><time>2026-04-09T10:22:41.226Z</time></trkpt><trkpt lat="38.444915" lon="16.3388067"><ele>538.0</ele><time>2026-04-09T10:22:43.226Z</time></trkpt><trkpt lat="38.4449367" lon="16.33868"><ele>542.6666666666667</ele><time>2026-04-09T10:22:45.226Z</time></trkpt><trkpt lat="38.444965" lon="16.3385933"><ele>547.3333333333334</ele><time>2026-04-09T10:22:47.226Z</time></trkpt><trkpt lat="38.4449967" lon="16.33849"><ele>552.0</ele><time>2026-04-09T10:22:50.226Z</time></trkpt><trkpt lat="38.4450083" lon="16.338405"><ele>556.6666666666666</ele><time>2026-04-09T10:22:52.226Z</time></trkpt><trkpt lat="38.4450117" lon="16.3383"><ele>561.3333333333333</ele><time>2026-04-09T10:22:54.226Z</time></trkpt><trkpt lat="38.4450033" lon="16.3381883"><ele>566.0</ele><time>2026-04-09T10:22:56.226Z</time></trkpt><trkpt lat="38.4450183" lon="16.338095"><ele>570.6666666666666</ele><time>2026-04-09T10:22:58.225Z</time></trkpt><trkpt lat="38.4450567" lon="16.3380117"><ele>575.3333333333333</ele><time>2026-04-09T10:23:00.225Z</time></trkpt><trkpt lat="38.445115" lon="16.3379317"><ele>580.0</ele><time>2026-04-09T10:23:02.225Z</time></trkpt><trkpt lat="38.4451033" lon="16.3378433"><ele>584.6666666666666</ele><time>2026-04-09T10:23:04.225Z</time></trkpt><trkpt lat="38.4450167" lon="16.3378433"><ele>589.3333333333334</ele><time>2026-04-09T10:23:08.225Z</time></trkpt><trkpt lat="38.4449467" lon="16.3379017"><ele>594.0</ele><time>2026-04-09T10:23:10.225Z</time></trkpt><trkpt lat="38.4448767" lon="16.3379833"><ele>594.2</ele><time>2026-04-09T10:23:12.225Z</time></trkpt><trkpt lat="38.444815" lon="16.3380983"><ele>594.4</ele><time>2026-04-09T10:23:14.224Z</time></trkpt><trkpt lat="38.4447683" lon="16.338215"><ele>594.6</ele><time>2026-04-09T10:23:16.225Z</time></trkpt><trkpt lat="38.4447133" lon="16.33831"><ele>594.8</ele><time>2026-04-09T10:23:18.225Z</time></trkpt><trkpt lat="38.444625" lon="16.3383533"><ele>595.0</ele><time>2026-04-09T10:23:20.225Z</time></trkpt><trkpt lat="38.4445383" lon="16.338335"><ele>595.0</ele><time>2026-04-09T10:23:22.225Z</time></trkpt><trkpt lat="38.444545" lon="16.33822"><ele>595.0</ele><time>2026-04-09T10:23:25.225Z</time></trkpt><trkpt lat="38.4445767" lon="16.3381267"><ele>595.0</ele><time>2026-04-09T10:23:27.225Z</time></trkpt><trkpt lat="38.444615" lon="16.3379967"><ele>595.0</ele><time>2026-04-09T10:23:29.225Z</time></trkpt><trkpt lat="38.4446567" lon="16.3378267"><ele>595.0</ele><time>2026-04-09T10:23:31.225Z</time></trkpt><trkpt lat="38.4446817" lon="16.3377517"><ele>594.8571428571429</ele><time>2026-04-09T10:23:32.225Z</time></trkpt><trkpt lat="38.4447167" lon="16.33768"><ele>594.7142857142858</ele><time>2026-04-09T10:23:33.225Z</time></trkpt><trkpt lat="38.4447533" lon="16.3376117"><ele>594.5714285714286</ele><time>2026-04-09T10:23:34.225Z</time></trkpt><trkpt lat="38.444795" lon="16.3375483"><ele>594.4285714285714</ele><time>2026-04-09T10:23:35.225Z</time></trkpt><trkpt lat="38.4448417" lon="16.3374733"><ele>594.2857142857143</ele><time>2026-04-09T10:23:36.225Z</time></trkpt><trkpt lat="38.4448783" lon="16.337395"><ele>594.1428571428571</ele><time>2026-04-09T10:23:37.225Z</time></trkpt><trkpt lat="38.4449217" lon="16.3373017"><ele>594.0</ele><time>2026-04-09T10:23:38.225Z</time></trkpt><trkpt lat="38.4449883" lon="16.3371267"><ele>597.2</ele><time>2026-04-09T10:23:40.224Z</time></trkpt><trkpt lat="38.44501" lon="16.3370317"><ele>600.4</ele><time>2026-04-09T10:23:41.225Z</time></trkpt><trkpt lat="38.4450317" lon="16.33692"><ele>603.6</ele><time>2026-04-09T10:23:42.225Z</time></trkpt><trkpt lat="38.445035" lon="16.33679"><ele>606.8</ele><time>2026-04-09T10:23:43.225Z</time></trkpt><trkpt lat="38.4450317" lon="16.3366667"><ele>610.0</ele><time>2026-04-09T10:23:44.225Z</time></trkpt><trkpt lat="38.4450183" lon="16.3364283"><ele>609.0</ele><time>2026-04-09T10:23:46.225Z</time></trkpt><trkpt lat="38.44502" lon="16.33633"><ele>608.0</ele><time>2026-04-09T10:23:47.225Z</time></trkpt><trkpt lat="38.445015" lon="16.33624"><ele>607.0</ele><time>2026-04-09T10:23:48.225Z</time></trkpt><trkpt lat="38.4449917" lon="16.336065"><ele>606.0</ele><time>2026-04-09T10:23:51.225Z</time></trkpt><trkpt lat="38.44493" lon="16.3361683"><ele>605.0</ele><time>2026-04-09T10:23:55.225Z</time></trkpt><trkpt lat="38.444895" lon="16.3363317"><ele>606.25</ele><time>2026-04-09T10:23:57.225Z</time></trkpt><trkpt lat="38.4448517" lon="16.3365417"><ele>607.5</ele><time>2026-04-09T10:23:59.225Z</time></trkpt><trkpt lat="38.4448317" lon="16.3366367"><ele>608.75</ele><time>2026-04-09T10:24:00.225Z</time></trkpt><trkpt lat="38.4447867" lon="16.33678"><ele>610.0</ele><time>2026-04-09T10:24:02.225Z</time></trkpt><trkpt lat="38.44473" lon="16.336905"><ele>610.0</ele><time>2026-04-09T10:24:04.225Z</time></trkpt><trkpt lat="38.44465" lon="16.3370233"><ele>610.0</ele><time>2026-04-09T10:24:06.225Z</time></trkpt><trkpt lat="38.4445983" lon="16.337085"><ele>610.0</ele><time>2026-04-09T10:24:07.225Z</time></trkpt><trkpt lat="38.4445433" lon="16.33715"><ele>610.0</ele><time>2026-04-09T10:24:08.225Z</time></trkpt><trkpt lat="38.4444833" lon="16.33721"><ele>610.0</ele><time>2026-04-09T10:24:09.225Z</time></trkpt><trkpt lat="38.4444133" lon="16.3372717"><ele>610.0</ele><time>2026-04-09T10:24:10.225Z</time></trkpt><trkpt lat="38.4443" lon="16.3373783"><ele>615.0</ele><time>2026-04-09T10:24:12.225Z</time></trkpt><trkpt lat="38.4442283" lon="16.33741"><ele>620.0</ele><time>2026-04-09T10:24:13.225Z</time></trkpt><trkpt lat="38.4441533" lon="16.33744"><ele>625.0</ele><time>2026-04-09T10:24:14.225Z</time></trkpt><trkpt lat="38.4439833" lon="16.33748"><ele>630.0</ele><time>2026-04-09T10:24:16.225Z</time></trkpt><trkpt lat="38.4438867" lon="16.3374967"><ele>635.0</ele><time>2026-04-09T10:24:17.225Z</time></trkpt><trkpt lat="38.44379" lon="16.3375183"><ele>642.0</ele><time>2026-04-09T10:24:18.225Z</time></trkpt><trkpt lat="38.4435883" lon="16.3375583"><ele>649.0</ele><time>2026-04-09T10:24:20.225Z</time></trkpt><trkpt lat="38.4435" lon="16.33757"><ele>656.0</ele><time>2026-04-09T10:24:21.224Z</time></trkpt><trkpt lat="38.4434067" lon="16.3376017"><ele>663.0</ele><time>2026-04-09T10:24:22.225Z</time></trkpt><trkpt lat="38.4432367" lon="16.3377183"><ele>663.0</ele><time>2026-04-09T10:24:24.225Z</time></trkpt><trkpt lat="38.4430867" lon="16.33783"><ele>663.0</ele><time>2026-04-09T10:24:26.225Z</time></trkpt><trkpt lat="38.44302" lon="16.3378817"><ele>663.0</ele><time>2026-04-09T10:24:27.225Z</time></trkpt><trkpt lat="38.4429717" lon="16.337945"><ele>663.0</ele><time>2026-04-09T10:24:28.225Z</time></trkpt><trkpt lat="38.4429133" lon="16.3380767"><ele>663.0</ele><time>2026-04-09T10:24:30.225Z</time></trkpt><trkpt lat="38.44289" lon="16.3381633"><ele>666.0</ele><time>2026-04-09T10:24:31.225Z</time></trkpt><trkpt lat="38.4429067" lon="16.3382733"><ele>669.0</ele><time>2026-04-09T10:24:32.225Z</time></trkpt><trkpt lat="38.442915" lon="16.33837"><ele>672.0</ele><time>2026-04-09T10:24:33.224Z</time></trkpt><trkpt lat="38.44291" lon="16.338455"><ele>675.0</ele><time>2026-04-09T10:24:34.224Z</time></trkpt><trkpt lat="38.44291" lon="16.3385367"><ele>678.0</ele><time>2026-04-09T10:24:35.225Z</time></trkpt><trkpt lat="38.4428667" lon="16.3386233"><ele>681.0</ele><time>2026-04-09T10:24:37.224Z</time></trkpt><trkpt lat="38.4427833" lon="16.3387"><ele>681.0</ele><time>2026-04-09T10:24:39.225Z</time></trkpt><trkpt lat="38.44267" lon="16.338765"><ele>681.0</ele><time>2026-04-09T10:24:41.225Z</time></trkpt><trkpt lat="38.4425983" lon="16.338805"><ele>681.0</ele><time>2026-04-09T10:24:42.225Z</time></trkpt><trkpt lat="38.4425183" lon="16.3388533"><ele>681.0</ele><time>2026-04-09T10:24:43.225Z</time></trkpt><trkpt lat="38.4424417" lon="16.3388967"><ele>681.0</ele><time>2026-04-09T10:24:44.225Z</time></trkpt><trkpt lat="38.4423633" lon="16.3389517"><ele>682.75</ele><time>2026-04-09T10:24:45.225Z</time></trkpt><trkpt lat="38.4422833" lon="16.3390233"><ele>684.5</ele><time>2026-04-09T10:24:46.225Z</time></trkpt><trkpt lat="38.4422217" lon="16.33911"><ele>686.25</ele><time>2026-04-09T10:24:47.225Z</time></trkpt><trkpt lat="38.4421467" lon="16.3391883"><ele>688.0</ele><time>2026-04-09T10:24:48.225Z</time></trkpt><trkpt lat="38.442005" lon="16.3393083"><ele>688.0</ele><time>2026-04-09T10:24:50.225Z</time></trkpt><trkpt lat="38.4419433" lon="16.3393333"><ele>688.0</ele><time>2026-04-09T10:24:51.225Z</time></trkpt><trkpt lat="38.4418167" lon="16.33945"><ele>688.0</ele><time>2026-04-09T10:24:54.225Z</time></trkpt><trkpt lat="38.4417533" lon="16.33953"><ele>688.0</ele><time>2026-04-09T10:24:56.225Z</time></trkpt><trkpt lat="38.4417017" lon="16.339625"><ele>688.0</ele><time>2026-04-09T10:24:58.225Z</time></trkpt><trkpt lat="38.4416667" lon="16.3397"><ele>680.5999999999999</ele><time>2026-04-09T10:24:59.225Z</time></trkpt><trkpt lat="38.4416217" lon="16.3397917"><ele>673.1999999999999</ele><time>2026-04-09T10:25:00.225Z</time></trkpt><trkpt lat="38.4415167" lon="16.339965"><ele>665.8</ele><time>2026-04-09T10:25:02.224Z</time></trkpt><trkpt lat="38.441465" lon="16.3400517"><ele>658.4</ele><time>2026-04-09T10:25:03.225Z</time></trkpt><trkpt lat="38.44141" lon="16.3401267"><ele>651.0</ele><time>2026-04-09T10:25:04.225Z</time></trkpt><trkpt lat="38.44136" lon="16.3401967"><ele>651.0</ele><time>2026-04-09T10:25:05.225Z</time></trkpt><trkpt lat="38.4413067" lon="16.3402417"><ele>651.0</ele><time>2026-04-09T10:25:06.225Z</time></trkpt><trkpt lat="38.4411867" lon="16.34022"><ele>651.0</ele><time>2026-04-09T10:25:08.225Z</time></trkpt><trkpt lat="38.44112" lon="16.3401617"><ele>651.0</ele><time>2026-04-09T10:25:09.225Z</time></trkpt><trkpt lat="38.4410583" lon="16.3401017"><ele>651.0</ele><time>2026-04-09T10:25:10.224Z</time></trkpt><trkpt lat="38.441" lon="16.3400433"><ele>651.0</ele><time>2026-04-09T10:25:11.225Z</time></trkpt><trkpt lat="38.44095" lon="16.339985"><ele>650.6666666666666</ele><time>2026-04-09T10:25:12.225Z</time></trkpt><trkpt lat="38.44091" lon="16.3399183"><ele>650.3333333333334</ele><time>2026-04-09T10:25:13.225Z</time></trkpt><trkpt lat="38.440875" lon="16.3398383"><ele>650.0</ele><time>2026-04-09T10:25:14.224Z</time></trkpt><trkpt lat="38.440825" lon="16.3396717"><ele>649.6666666666667</ele><time>2026-04-09T10:25:16.225Z</time></trkpt><trkpt lat="38.4407883" lon="16.339595"><ele>649.3333333333334</ele><time>2026-04-09T10:25:17.225Z</time></trkpt><trkpt lat="38.4407517" lon="16.3395233"><ele>649.0</ele><time>2026-04-09T10:25:18.225Z</time></trkpt><trkpt lat="38.4407067" lon="16.3394567"><ele>656.2</ele><time>2026-04-09T10:25:19.225Z</time></trkpt><trkpt lat="38.4406617" lon="16.3393967"><ele>663.4000000000001</ele><time>2026-04-09T10:25:20.225Z</time></trkpt><trkpt lat="38.4405767" lon="16.339315"><ele>670.6</ele><time>2026-04-09T10:25:22.225Z</time></trkpt><trkpt lat="38.440505" lon="16.339305"><ele>677.8</ele><time>2026-04-09T10:25:24.225Z</time></trkpt><trkpt lat="38.4404317" lon="16.339365"><ele>685.0</ele><time>2026-04-09T10:25:26.225Z</time></trkpt><trkpt lat="38.4403367" lon="16.3394667"><ele>685.0</ele><time>2026-04-09T10:25:28.225Z</time></trkpt><trkpt lat="38.4402783" lon="16.3395017"><ele>685.0</ele><time>2026-04-09T10:25:29.225Z</time></trkpt><trkpt lat="38.4402117" lon="16.3395217"><ele>685.0</ele><time>2026-04-09T10:25:30.225Z</time></trkpt><trkpt lat="38.4401417" lon="16.3395317"><ele>685.0</ele><time>2026-04-09T10:25:31.225Z</time></trkpt><trkpt lat="38.4400667" lon="16.3395283"><ele>685.0</ele><time>2026-04-09T10:25:32.225Z</time></trkpt><trkpt lat="38.439985" lon="16.3395183"><ele>685.0</ele><time>2026-04-09T10:25:33.225Z</time></trkpt><trkpt lat="38.4399017" lon="16.3394967"><ele>685.0</ele><time>2026-04-09T10:25:34.224Z</time></trkpt><trkpt lat="38.4398283" lon="16.3394517"><ele>685.0</ele><time>2026-04-09T10:25:35.225Z</time></trkpt><trkpt lat="38.4396867" lon="16.33932"><ele>685.0</ele><time>2026-04-09T10:25:37.225Z</time></trkpt><trkpt lat="38.439615" lon="16.33925"><ele>685.0</ele><time>2026-04-09T10:25:38.224Z</time></trkpt><trkpt lat="38.4395383" lon="16.3391983"><ele>685.0</ele><time>2026-04-09T10:25:39.225Z</time></trkpt><trkpt lat="38.4394567" lon="16.3391467"><ele>685.0</ele><time>2026-04-09T10:25:40.225Z</time></trkpt><trkpt lat="38.4393667" lon="16.3391217"><ele>684.5</ele><time>2026-04-09T10:25:41.225Z</time></trkpt><trkpt lat="38.4392683" lon="16.3390867"><ele>684.0</ele><time>2026-04-09T10:25:42.225Z</time></trkpt><trkpt lat="38.4390783" lon="16.3390483"><ele>683.5</ele><time>2026-04-09T10:25:44.225Z</time></trkpt><trkpt lat="38.438985" lon="16.3390533"><ele>683.0</ele><time>2026-04-09T10:25:45.225Z</time></trkpt><trkpt lat="38.438815" lon="16.339075"><ele>679.5999999999999</ele><time>2026-04-09T10:25:47.225Z</time></trkpt><trkpt lat="38.438735" lon="16.3390917"><ele>676.1999999999999</ele><time>2026-04-09T10:25:48.225Z</time></trkpt><trkpt lat="38.4386567" lon="16.3391017"><ele>672.8</ele><time>2026-04-09T10:25:49.225Z</time></trkpt><trkpt lat="38.4385867" lon="16.3390883"><ele>669.4</ele><time>2026-04-09T10:25:50.225Z</time></trkpt><trkpt lat="38.4384917" lon="16.3390283"><ele>666.0</ele><time>2026-04-09T10:25:52.224Z</time></trkpt><trkpt lat="38.4384333" lon="16.3388817"><ele>675.0</ele><time>2026-04-09T10:25:54.225Z</time></trkpt><trkpt lat="38.4384183" lon="16.3387717"><ele>684.0</ele><time>2026-04-09T10:25:55.225Z</time></trkpt><trkpt lat="38.4384" lon="16.338655"><ele>693.0</ele><time>2026-04-09T10:25:56.224Z</time></trkpt><trkpt lat="38.43836" lon="16.3384117"><ele>702.0</ele><time>2026-04-09T10:25:58.225Z</time></trkpt><trkpt lat="38.4383217" lon="16.3382817"><ele>702.0</ele><time>2026-04-09T10:25:59.225Z</time></trkpt><trkpt lat="38.4383033" lon="16.338165"><ele>702.0</ele><time>2026-04-09T10:26:00.225Z</time></trkpt><trkpt lat="38.438295" lon="16.338055"><ele>702.0</ele><time>2026-04-09T10:26:01.225Z</time></trkpt><trkpt lat="38.4382767" lon="16.3379583"><ele>702.0</ele><time>2026-04-09T10:26:02.225Z</time></trkpt><trkpt lat="38.4382533" lon="16.3378767"><ele>702.0</ele><time>2026-04-09T10:26:03.225Z</time></trkpt><trkpt lat="38.4382167" lon="16.3377967"><ele>702.0</ele><time>2026-04-09T10:26:05.225Z</time></trkpt><trkpt lat="38.4381267" lon="16.3378033"><ele>701.3333333333334</ele><time>2026-04-09T10:26:07.225Z</time></trkpt><trkpt lat="38.4380767" lon="16.337855"><ele>700.6666666666666</ele><time>2026-04-09T10:26:08.225Z</time></trkpt><trkpt lat="38.4380167" lon="16.33792"><ele>700.0</ele><time>2026-04-09T10:26:09.225Z</time></trkpt><trkpt lat="38.4379467" lon="16.338"><ele>699.3333333333333</ele><time>2026-04-09T10:26:10.225Z</time></trkpt><trkpt lat="38.4378817" lon="16.3380717"><ele>698.6666666666666</ele><time>2026-04-09T10:26:11.225Z</time></trkpt><trkpt lat="38.437815" lon="16.3381333"><ele>698.0</ele><time>2026-04-09T10:26:12.225Z</time></trkpt><trkpt lat="38.4377483" lon="16.338195"><ele>698.0</ele><time>2026-04-09T10:26:13.225Z</time></trkpt><trkpt lat="38.4376883" lon="16.338255"><ele>698.0</ele><time>2026-04-09T10:26:14.225Z</time></trkpt><trkpt lat="38.4376333" lon="16.338325"><ele>698.0</ele><time>2026-04-09T10:26:15.225Z</time></trkpt><trkpt lat="38.4375417" lon="16.3384267"><ele>698.0</ele><time>2026-04-09T10:26:17.225Z</time></trkpt><trkpt lat="38.4374317" lon="16.3384383"><ele>698.0</ele><time>2026-04-09T10:26:19.225Z</time></trkpt><trkpt lat="38.43737" lon="16.3384117"><ele>698.0</ele><time>2026-04-09T10:26:20.225Z</time></trkpt><trkpt lat="38.4373083" lon="16.3383633"><ele>698.0</ele><time>2026-04-09T10:26:21.225Z</time></trkpt><trkpt lat="38.4372417" lon="16.33828"><ele>698.0</ele><time>2026-04-09T10:26:22.225Z</time></trkpt><trkpt lat="38.43718" lon="16.3381783"><ele>698.0</ele><time>2026-04-09T10:26:23.225Z</time></trkpt><trkpt lat="38.4371167" lon="16.33807"><ele>698.0</ele><time>2026-04-09T10:26:24.225Z</time></trkpt><trkpt lat="38.4370433" lon="16.3379683"><ele>697.6666666666666</ele><time>2026-04-09T10:26:25.225Z</time></trkpt><trkpt lat="38.4369867" lon="16.3378767"><ele>697.3333333333333</ele><time>2026-04-09T10:26:26.225Z</time></trkpt><trkpt lat="38.4369383" lon="16.3377867"><ele>697.0</ele><time>2026-04-09T10:26:27.225Z</time></trkpt><trkpt lat="38.4368983" lon="16.337685"><ele>696.6666666666666</ele><time>2026-04-09T10:26:28.225Z</time></trkpt><trkpt lat="38.436885" lon="16.3375783"><ele>696.3333333333334</ele><time>2026-04-09T10:26:29.224Z</time></trkpt><trkpt lat="38.4368717" lon="16.3374633"><ele>696.0</ele><time>2026-04-09T10:26:30.225Z</time></trkpt><trkpt lat="38.4368417" lon="16.33736"><ele>696.0</ele><time>2026-04-09T10:26:31.225Z</time></trkpt><trkpt lat="38.4368133" lon="16.3372467"><ele>696.0</ele><time>2026-04-09T10:26:32.225Z</time></trkpt><trkpt lat="38.4367517" lon="16.3370167"><ele>696.0</ele><time>2026-04-09T10:26:34.225Z</time></trkpt><trkpt lat="38.4367217" lon="16.336905"><ele>696.0</ele><time>2026-04-09T10:26:35.224Z</time></trkpt><trkpt lat="38.4366983" lon="16.3368"><ele>700.8</ele><time>2026-04-09T10:26:36.225Z</time></trkpt><trkpt lat="38.4366767" lon="16.3367017"><ele>705.5999999999999</ele><time>2026-04-09T10:26:37.224Z</time></trkpt><trkpt lat="38.436585" lon="16.3365433"><ele>710.4</ele><time>2026-04-09T10:26:39.225Z</time></trkpt><trkpt lat="38.4365183" lon="16.3364917"><ele>715.2</ele><time>2026-04-09T10:26:40.225Z</time></trkpt><trkpt lat="38.4364367" lon="16.336435"><ele>720.0</ele><time>2026-04-09T10:26:41.225Z</time></trkpt><trkpt lat="38.4363633" lon="16.336365"><ele>723.6666666666666</ele><time>2026-04-09T10:26:42.225Z</time></trkpt><trkpt lat="38.4363017" lon="16.33629"><ele>727.3333333333334</ele><time>2026-04-09T10:26:43.225Z</time></trkpt><trkpt lat="38.43624" lon="16.3362133"><ele>731.0</ele><time>2026-04-09T10:26:44.225Z</time></trkpt><trkpt lat="38.4361733" lon="16.3361517"><ele>734.6666666666667</ele><time>2026-04-09T10:26:45.225Z</time></trkpt><trkpt lat="38.4361033" lon="16.33611"><ele>738.3333333333334</ele><time>2026-04-09T10:26:46.225Z</time></trkpt><trkpt lat="38.43602" lon="16.3360917"><ele>742.0</ele><time>2026-04-09T10:26:47.225Z</time></trkpt><trkpt lat="38.4359367" lon="16.3360867"><ele>698.0</ele><time>2026-04-09T10:26:48.225Z</time></trkpt><trkpt lat="38.4374317" lon="16.3384383"><ele>698.0</ele><time>2026-04-09T10:26:19.225Z</time></trkpt><trkpt lat="38.43737" lon="16.3384117"><ele>698.0</ele><time>2026-04-09T10:26:20.225Z</time></trkpt><trkpt lat="38.4373083" lon="16.3383633"><ele>698.0</ele><time>2026-04-09T10:26:21.225Z</time></trkpt><trkpt lat="38.4372417" lon="16.33828"><ele>698.0</ele><time>2026-04-09T10:26:22.225Z</time></trkpt><trkpt lat="38.43718" lon="16.3381783"><ele>698.0</ele><time>2026-04-09T10:26:23.225Z</time></trkpt><trkpt lat="38.4371167" lon="16.33807"><ele>698.0</ele><time>2026-04-09T10:26:24.225Z</time></trkpt><trkpt lat="38.4370433" lon="16.3379683"><ele>697.6666666666666</ele><time>2026-04-09T10:26:25.225Z</time></trkpt><trkpt lat="38.4369867" lon="16.3378767"><ele>697.3333333333333</ele><time>2026-04-09T10:26:26.225Z</time></trkpt><trkpt lat="38.4369383" lon="16.3377867"><ele>697.0</ele><time>2026-04-09T10:26:27.225Z</time></trkpt><trkpt lat="38.4368983" lon="16.337685"><ele>696.6666666666666</ele><time>2026-04-09T10:26:28.225Z</time></trkpt><trkpt lat="38.436885" lon="16.3375783"><ele>696.3333333333334</ele><time>2026-04-09T10:26:29.224Z</time></trkpt><trkpt lat="38.4368717" lon="16.3374633"><ele>696.0</ele><time>2026-04-09T10:26:30.225Z</time></trkpt><trkpt lat="38.4368417" lon="16.33736"><ele>696.0</ele><time>2026-04-09T10:26:31.225Z</time></trkpt><trkpt lat="38.4368133" lon="16.3372467"><ele>696.0</ele><time>2026-04-09T10:26:32.225Z</time></trkpt><trkpt lat="38.4367517" lon="16.3370167"><ele>696.0</ele><time>2026-04-09T10:26:34.225Z</time></trkpt><trkpt lat="38.4367217" lon="16.336905"><ele>696.0</ele><time>2026-04-09T10:26:35.224Z</time></trkpt><trkpt lat="38.4366983" lon="16.3368"><ele>700.8</ele><time>2026-04-09T10:26:36.225Z</time></trkpt><trkpt lat="38.4366767" lon="16.3367017"><ele>705.5999999999999</ele><time>2026-04-09T10:26:37.224Z</time></trkpt><trkpt lat="38.436585" lon="16.3365433"><ele>710.4</ele><time>2026-04-09T10:26:39.225Z</time></trkpt><trkpt lat="38.4365183" lon="16.3364917"><ele>715.2</ele><time>2026-04-09T10:26:40.225Z</time></trkpt><trkpt lat="38.4364367" lon="16.336435"><ele>720.0</ele><time>2026-04-09T10:26:41.225Z</time></trkpt><trkpt lat="38.4363633" lon="16.336365"><ele>723.6666666666666</ele><time>2026-04-09T10:26:42.225Z</time></trkpt><trkpt lat="38.4363017" lon="16.33629"><ele>727.3333333333334</ele><time>2026-04-09T10:26:43.225Z</time></trkpt><trkpt lat="38.43624" lon="16.3362133"><ele>731.0</ele><time>2026-04-09T10:26:44.225Z</time></trkpt><trkpt lat="38.4361733" lon="16.3361517"><ele>734.6666666666667</ele><time>2026-04-09T10:26:45.225Z</time></trkpt><trkpt lat="38.4361033" lon="16.33611"><ele>738.3333333333334</ele><time>2026-04-09T10:26:46.225Z</time></trkpt><trkpt lat="38.43602" lon="16.3360917"><ele>742.0</ele><time>2026-04-09T10:26:47.225Z</time></trkpt><trkpt lat="38.4359367" lon="16.3360867"><ele>742.0</ele><time>2026-04-09T10:26:48.225Z</time></trkpt><trkpt lat="38.4358633" lon="16.33611"><ele>742.0</ele><time>2026-04-09T10:26:49.225Z</time></trkpt><trkpt lat="38.4357883" lon="16.3361683"><ele>742.0</ele><time>2026-04-09T10:26:50.225Z</time></trkpt><trkpt lat="38.4357417" lon="16.33625"><ele>742.0</ele><time>2026-04-09T10:26:51.225Z</time></trkpt><trkpt lat="38.4357283" lon="16.33635"><ele>742.0</ele><time>2026-04-09T10:26:52.225Z</time></trkpt><trkpt lat="38.4357583" lon="16.33659"><ele>736.75</ele><time>2026-04-09T10:26:54.225Z</time></trkpt><trkpt lat="38.4357933" lon="16.336855"><ele>731.5</ele><time>2026-04-09T10:26:56.225Z</time></trkpt><trkpt lat="38.4357967" lon="16.3369917"><ele>726.25</ele><time>2026-04-09T10:26:57.225Z</time></trkpt><trkpt lat="38.4358" lon="16.337125"><ele>721.0</ele><time>2026-04-09T10:26:58.225Z</time></trkpt><trkpt lat="38.4358017" lon="16.33724"><ele>721.0</ele><time>2026-04-09T10:26:59.225Z</time></trkpt><trkpt lat="38.4357967" lon="16.3373467"><ele>721.0</ele><time>2026-04-09T10:27:00.225Z</time></trkpt><trkpt lat="38.4357817" lon="16.3374567"><ele>721.0</ele><time>2026-04-09T10:27:01.225Z</time></trkpt><trkpt lat="38.43572" lon="16.337665"><ele>721.0</ele><time>2026-04-09T10:27:03.224Z</time></trkpt><trkpt lat="38.4356733" lon="16.3377633"><ele>721.0</ele><time>2026-04-09T10:27:04.225Z</time></trkpt><trkpt lat="38.4356267" lon="16.3378667"><ele>721.0</ele><time>2026-04-09T10:27:05.225Z</time></trkpt><trkpt lat="38.435575" lon="16.3379733"><ele>721.0</ele><time>2026-04-09T10:27:06.225Z</time></trkpt><trkpt lat="38.4355133" lon="16.3380933"><ele>721.0</ele><time>2026-04-09T10:27:07.225Z</time></trkpt><trkpt lat="38.435465" lon="16.3381933"><ele>721.0</ele><time>2026-04-09T10:27:08.225Z</time></trkpt><trkpt lat="38.4353783" lon="16.3384217"><ele>729.0</ele><time>2026-04-09T10:27:10.225Z</time></trkpt><trkpt lat="38.4353533" lon="16.3385367"><ele>737.0</ele><time>2026-04-09T10:27:11.224Z</time></trkpt><trkpt lat="38.43532" lon="16.3386333"><ele>745.0</ele><time>2026-04-09T10:27:12.225Z</time></trkpt><trkpt lat="38.4351383" lon="16.3387083"><ele>753.0</ele><time>2026-04-09T10:27:15.225Z</time></trkpt><trkpt lat="38.4350467" lon="16.3386867"><ele>753.0</ele><time>2026-04-09T10:27:16.225Z</time></trkpt><trkpt lat="38.434945" lon="16.33865"><ele>753.0</ele><time>2026-04-09T10:27:17.225Z</time></trkpt><trkpt lat="38.4348467" lon="16.3386133"><ele>753.0</ele><time>2026-04-09T10:27:18.224Z</time></trkpt><trkpt lat="38.43466" lon="16.33853"><ele>753.0</ele><time>2026-04-09T10:27:20.224Z</time></trkpt><trkpt lat="38.4345817" lon="16.338495"><ele>756.5</ele><time>2026-04-09T10:27:21.225Z</time></trkpt><trkpt lat="38.4345183" lon="16.3384667"><ele>760.0</ele><time>2026-04-09T10:27:22.225Z</time></trkpt><trkpt lat="38.4344483" lon="16.3384617"><ele>763.5</ele><time>2026-04-09T10:27:23.225Z</time></trkpt><trkpt lat="38.4343833" lon="16.3384817"><ele>767.0</ele><time>2026-04-09T10:27:24.225Z</time></trkpt><trkpt lat="38.4343183" lon="16.3385417"><ele>770.5</ele><time>2026-04-09T10:27:25.225Z</time></trkpt><trkpt lat="38.4342767" lon="16.338635"><ele>774.0</ele><time>2026-04-09T10:27:26.225Z</time></trkpt><trkpt lat="38.4342667" lon="16.3387417"><ele>774.0</ele><time>2026-04-09T10:27:27.225Z</time></trkpt><trkpt lat="38.43426" lon="16.3388417"><ele>774.0</ele><time>2026-04-09T10:27:28.225Z</time></trkpt><trkpt lat="38.4342317" lon="16.3389317"><ele>774.0</ele><time>2026-04-09T10:27:29.225Z</time></trkpt><trkpt lat="38.434175" lon="16.3390433"><ele>774.0</ele><time>2026-04-09T10:27:31.224Z</time></trkpt><trkpt lat="38.4341083" lon="16.339215"><ele>774.0</ele><time>2026-04-09T10:27:34.225Z</time></trkpt><trkpt lat="38.4341083" lon="16.339365"><ele>769.6666666666666</ele><time>2026-04-09T10:27:36.225Z</time></trkpt><trkpt lat="38.4341167" lon="16.3394583"><ele>765.3333333333333</ele><time>2026-04-09T10:27:37.225Z</time></trkpt><trkpt lat="38.4341783" lon="16.339675"><ele>761.0</ele><time>2026-04-09T10:27:39.225Z</time></trkpt><trkpt lat="38.43426" lon="16.3399367"><ele>761.0</ele><time>2026-04-09T10:27:41.225Z</time></trkpt><trkpt lat="38.4342883" lon="16.340075"><ele>761.0</ele><time>2026-04-09T10:27:42.224Z</time></trkpt><trkpt lat="38.434305" lon="16.3402067"><ele>761.0</ele><time>2026-04-09T10:27:43.225Z</time></trkpt><trkpt lat="38.4343083" lon="16.3403383"><ele>761.0</ele><time>2026-04-09T10:27:44.224Z</time></trkpt><trkpt lat="38.4343183" lon="16.3405967"><ele>762.8</ele><time>2026-04-09T10:27:46.225Z</time></trkpt><trkpt lat="38.4343283" lon="16.34083"><ele>764.5999999999999</ele><time>2026-04-09T10:27:48.225Z</time></trkpt><trkpt lat="38.4343333" lon="16.3409367"><ele>766.4</ele><time>2026-04-09T10:27:49.225Z</time></trkpt><trkpt lat="38.434335" lon="16.3410417"><ele>768.2</ele><time>2026-04-09T10:27:50.225Z</time></trkpt><trkpt lat="38.43434" lon="16.3411533"><ele>770.0</ele><time>2026-04-09T10:27:51.225Z</time></trkpt><trkpt lat="38.4343467" lon="16.3412633"><ele>770.0000000000001</ele><time>2026-04-09T10:27:52.225Z</time></trkpt><trkpt lat="38.4343617" lon="16.3413733"><ele>770.0</ele><time>2026-04-09T10:27:53.225Z</time></trkpt><trkpt lat="38.4343667" lon="16.341475"><ele>770.0</ele><time>2026-04-09T10:27:54.225Z</time></trkpt><trkpt lat="38.4343583" lon="16.3415717"><ele>770.0</ele><time>2026-04-09T10:27:55.225Z</time></trkpt><trkpt lat="38.4343183" lon="16.3416583"><ele>770.0000000000001</ele><time>2026-04-09T10:27:56.225Z</time></trkpt><trkpt lat="38.4342567" lon="16.3417217"><ele>770.0</ele><time>2026-04-09T10:27:57.225Z</time></trkpt><trkpt lat="38.434185" lon="16.3417917"><ele>767.25</ele><time>2026-04-09T10:27:58.225Z</time></trkpt><trkpt lat="38.4340783" lon="16.3418633"><ele>764.5</ele><time>2026-04-09T10:27:59.225Z</time></trkpt><trkpt lat="38.4339533" lon="16.341935"><ele>761.75</ele><time>2026-04-09T10:28:00.225Z</time></trkpt><trkpt lat="38.4338317" lon="16.34201"><ele>759.0</ele><time>2026-04-09T10:28:01.225Z</time></trkpt><trkpt lat="38.433715" lon="16.3421"><ele>765.0</ele><time>2026-04-09T10:28:02.225Z</time></trkpt><trkpt lat="38.433605" lon="16.342195"><ele>771.0</ele><time>2026-04-09T10:28:03.225Z</time></trkpt><trkpt lat="38.433505" lon="16.3422967"><ele>777.0</ele><time>2026-04-09T10:28:04.225Z</time></trkpt><trkpt lat="38.4334233" lon="16.34239"><ele>783.0</ele><time>2026-04-09T10:28:05.225Z</time></trkpt><trkpt lat="38.4333583" lon="16.34248"><ele>783.0</ele><time>2026-04-09T10:28:06.225Z</time></trkpt><trkpt lat="38.4332617" lon="16.3426333"><ele>783.0</ele><time>2026-04-09T10:28:08.225Z</time></trkpt><trkpt lat="38.433235" lon="16.3427217"><ele>783.0</ele><time>2026-04-09T10:28:09.225Z</time></trkpt><trkpt lat="38.4332533" lon="16.3428167"><ele>783.0</ele><time>2026-04-09T10:28:10.225Z</time></trkpt><trkpt lat="38.4333033" lon="16.3429"><ele>783.0</ele><time>2026-04-09T10:28:11.225Z</time></trkpt><trkpt lat="38.433395" lon="16.3429983"><ele>787.0</ele><time>2026-04-09T10:28:12.225Z</time></trkpt><trkpt lat="38.4336483" lon="16.34316"><ele>791.0</ele><time>2026-04-09T10:28:14.225Z</time></trkpt><trkpt lat="38.43379" lon="16.343225"><ele>795.0</ele><time>2026-04-09T10:28:15.225Z</time></trkpt><trkpt lat="38.4339167" lon="16.3433"><ele>780.6666666666666</ele><time>2026-04-09T10:28:16.225Z</time></trkpt><trkpt lat="38.43404" lon="16.3433767"><ele>766.3333333333333</ele><time>2026-04-09T10:28:17.225Z</time></trkpt><trkpt lat="38.4342533" lon="16.3435567"><ele>752.0</ele><time>2026-04-09T10:28:19.225Z</time></trkpt><trkpt lat="38.434315" lon="16.343655"><ele>752.0</ele><time>2026-04-09T10:28:20.225Z</time></trkpt><trkpt lat="38.434385" lon="16.343735"><ele>752.0</ele><time>2026-04-09T10:28:21.225Z</time></trkpt><trkpt lat="38.43446" lon="16.3438017"><ele>752.0</ele><time>2026-04-09T10:28:22.225Z</time></trkpt><trkpt lat="38.434525" lon="16.3439583"><ele>752.0</ele><time>2026-04-09T10:28:24.225Z</time></trkpt><trkpt lat="38.4345133" lon="16.3440417"><ele>752.0</ele><time>2026-04-09T10:28:25.225Z</time></trkpt><trkpt lat="38.4344817" lon="16.34412"><ele>756.3333333333333</ele><time>2026-04-09T10:28:26.225Z</time></trkpt><trkpt lat="38.4344167" lon="16.3441783"><ele>760.6666666666666</ele><time>2026-04-09T10:28:27.225Z</time></trkpt><trkpt lat="38.43422" lon="16.344265"><ele>765.0</ele><time>2026-04-09T10:28:29.225Z</time></trkpt><trkpt lat="38.434015" lon="16.3443767"><ele>765.0</ele><time>2026-04-09T10:28:31.224Z</time></trkpt><trkpt lat="38.4339217" lon="16.3444283"><ele>765.0</ele><time>2026-04-09T10:28:32.225Z</time></trkpt><trkpt lat="38.433835" lon="16.3444767"><ele>765.0</ele><time>2026-04-09T10:28:33.225Z</time></trkpt><trkpt lat="38.433745" lon="16.3445317"><ele>765.0</ele><time>2026-04-09T10:28:34.225Z</time></trkpt><trkpt lat="38.433665" lon="16.3445733"><ele>765.0</ele><time>2026-04-09T10:28:35.224Z</time></trkpt><trkpt lat="38.4335317" lon="16.3446633"><ele>775.0</ele><time>2026-04-09T10:28:37.225Z</time></trkpt><trkpt lat="38.4334483" lon="16.3447767"><ele>785.0</ele><time>2026-04-09T10:28:39.224Z</time></trkpt><trkpt lat="38.4334333" lon="16.3448633"><ele>795.0</ele><time>2026-04-09T10:28:40.225Z</time></trkpt><trkpt lat="38.4334383" lon="16.3449567"><ele>805.0</ele><time>2026-04-09T10:28:41.225Z</time></trkpt><trkpt lat="38.4334733" lon="16.34519"><ele>805.0</ele><time>2026-04-09T10:28:43.225Z</time></trkpt><trkpt lat="38.433485" lon="16.34532"><ele>805.0</ele><time>2026-04-09T10:28:44.225Z</time></trkpt><trkpt lat="38.433505" lon="16.345445"><ele>805.0</ele><time>2026-04-09T10:28:45.225Z</time></trkpt><trkpt lat="38.4335467" lon="16.3456783"><ele>805.0</ele><time>2026-04-09T10:28:47.225Z</time></trkpt><trkpt lat="38.43358" lon="16.345805"><ele>803.6666666666666</ele><time>2026-04-09T10:28:48.224Z</time></trkpt><trkpt lat="38.433615" lon="16.345925"><ele>802.3333333333333</ele><time>2026-04-09T10:28:49.224Z</time></trkpt><trkpt lat="38.4336517" lon="16.3460483"><ele>801.0</ele><time>2026-04-09T10:28:50.225Z</time></trkpt><trkpt lat="38.433665" lon="16.3461583"><ele>799.6666666666667</ele><time>2026-04-09T10:28:51.225Z</time></trkpt><trkpt lat="38.4336783" lon="16.3462617"><ele>798.3333333333334</ele><time>2026-04-09T10:28:52.225Z</time></trkpt><trkpt lat="38.4336717" lon="16.3463467"><ele>797.0</ele><time>2026-04-09T10:28:53.225Z</time></trkpt><trkpt lat="38.4336217" lon="16.3464317"><ele>797.0</ele><time>2026-04-09T10:28:55.225Z</time></trkpt><trkpt lat="38.4334917" lon="16.3463717"><ele>797.0</ele><time>2026-04-09T10:28:58.225Z</time></trkpt><trkpt lat="38.4334167" lon="16.346345"><ele>797.0</ele><time>2026-04-09T10:28:59.225Z</time></trkpt><trkpt lat="38.4333217" lon="16.3463167"><ele>797.0</ele><time>2026-04-09T10:29:00.225Z</time></trkpt><trkpt lat="38.43311" lon="16.34623"><ele>797.0</ele><time>2026-04-09T10:29:02.225Z</time></trkpt><trkpt lat="38.43301" lon="16.346195"><ele>797.0</ele><time>2026-04-09T10:29:03.225Z</time></trkpt><trkpt lat="38.4329033" lon="16.346175"><ele>797.0</ele><time>2026-04-09T10:29:04.224Z</time></trkpt><trkpt lat="38.432725" lon="16.3461667"><ele>797.0</ele><time>2026-04-09T10:29:06.225Z</time></trkpt><trkpt lat="38.4326483" lon="16.346165"><ele>798.6</ele><time>2026-04-09T10:29:07.225Z</time></trkpt><trkpt lat="38.4325767" lon="16.3461483"><ele>800.2</ele><time>2026-04-09T10:29:08.225Z</time></trkpt><trkpt lat="38.432505" lon="16.3460983"><ele>801.8</ele><time>2026-04-09T10:29:09.225Z</time></trkpt><trkpt lat="38.4324417" lon="16.3460317"><ele>803.4</ele><time>2026-04-09T10:29:10.224Z</time></trkpt><trkpt lat="38.4322833" lon="16.3459017"><ele>805.0</ele><time>2026-04-09T10:29:12.225Z</time></trkpt><trkpt lat="38.4321967" lon="16.3458483"><ele>802.8333333333333</ele><time>2026-04-09T10:29:13.224Z</time></trkpt><trkpt lat="38.4321067" lon="16.3457983"><ele>800.6666666666666</ele><time>2026-04-09T10:29:14.225Z</time></trkpt><trkpt lat="38.4320333" lon="16.3457317"><ele>798.5</ele><time>2026-04-09T10:29:15.224Z</time></trkpt><trkpt lat="38.4319867" lon="16.34565"><ele>796.3333333333333</ele><time>2026-04-09T10:29:16.225Z</time></trkpt><trkpt lat="38.4319583" lon="16.3455583"><ele>794.1666666666666</ele><time>2026-04-09T10:29:17.225Z</time></trkpt><trkpt lat="38.4319583" lon="16.3454567"><ele>792.0</ele><time>2026-04-09T10:29:18.225Z</time></trkpt><trkpt lat="38.4319783" lon="16.3453467"><ele>792.0</ele><time>2026-04-09T10:29:19.225Z</time></trkpt><trkpt lat="38.4320067" lon="16.3452333"><ele>792.0</ele><time>2026-04-09T10:29:20.225Z</time></trkpt><trkpt lat="38.432015" lon="16.34513"><ele>792.0</ele><time>2026-04-09T10:29:21.225Z</time></trkpt><trkpt lat="38.4319967" lon="16.3450417"><ele>792.0</ele><time>2026-04-09T10:29:22.225Z</time></trkpt><trkpt lat="38.431955" lon="16.3449633"><ele>792.0</ele><time>2026-04-09T10:29:23.225Z</time></trkpt><trkpt lat="38.4318317" lon="16.344835"><ele>792.0</ele><time>2026-04-09T10:29:25.224Z</time></trkpt><trkpt lat="38.4317683" lon="16.3447667"><ele>792.0</ele><time>2026-04-09T10:29:26.225Z</time></trkpt><trkpt lat="38.4317067" lon="16.344585"><ele>792.0</ele><time>2026-04-09T10:29:28.224Z</time></trkpt><trkpt lat="38.4317017" lon="16.344475"><ele>792.0</ele><time>2026-04-09T10:29:29.225Z</time></trkpt><trkpt lat="38.43171" lon="16.3443767"><ele>792.0</ele><time>2026-04-09T10:29:30.225Z</time></trkpt><trkpt lat="38.4317267" lon="16.34429"><ele>795.0</ele><time>2026-04-09T10:29:31.224Z</time></trkpt><trkpt lat="38.431745" lon="16.3441817"><ele>798.0</ele><time>2026-04-09T10:29:33.225Z</time></trkpt><trkpt lat="38.4317817" lon="16.3440567"><ele>801.0</ele><time>2026-04-09T10:29:55.225Z</time></trkpt><trkpt lat="38.4317733" lon="16.34394"><ele>804.0</ele><time>2026-04-09T10:29:57.225Z</time></trkpt><trkpt lat="38.4317017" lon="16.3438483"><ele>807.0</ele><time>2026-04-09T10:29:59.225Z</time></trkpt><trkpt lat="38.4316383" lon="16.343815"><ele>808.75</ele><time>2026-04-09T10:30:00.225Z</time></trkpt><trkpt lat="38.4315567" lon="16.3437933"><ele>810.5</ele><time>2026-04-09T10:30:01.225Z</time></trkpt><trkpt lat="38.4314667" lon="16.3437783"><ele>812.25</ele><time>2026-04-09T10:30:02.225Z</time></trkpt><trkpt lat="38.43137" lon="16.3437667"><ele>814.0</ele><time>2026-04-09T10:30:03.225Z</time></trkpt><trkpt lat="38.431155" lon="16.3437433"><ele>814.0</ele><time>2026-04-09T10:30:05.225Z</time></trkpt><trkpt lat="38.4310433" lon="16.3437333"><ele>814.0</ele><time>2026-04-09T10:30:06.225Z</time></trkpt><trkpt lat="38.4309317" lon="16.343725"><ele>814.0</ele><time>2026-04-09T10:30:07.225Z</time></trkpt><trkpt lat="38.4307567" lon="16.3436783"><ele>814.0</ele><time>2026-04-09T10:30:09.225Z</time></trkpt><trkpt lat="38.430675" lon="16.343635"><ele>813.9999999999999</ele><time>2026-04-09T10:30:10.225Z</time></trkpt><trkpt lat="38.4306" lon="16.3435883"><ele>814.0</ele><time>2026-04-09T10:30:11.225Z</time></trkpt><trkpt lat="38.4305583" lon="16.34352"><ele>814.0</ele><time>2026-04-09T10:30:12.225Z</time></trkpt><trkpt lat="38.4305333" lon="16.3434417"><ele>814.0</ele><time>2026-04-09T10:30:13.225Z</time></trkpt><trkpt lat="38.4305283" lon="16.3433433"><ele>813.9999999999999</ele><time>2026-04-09T10:30:14.225Z</time></trkpt><trkpt lat="38.4305433" lon="16.3432317"><ele>814.0</ele><time>2026-04-09T10:30:15.224Z</time></trkpt><trkpt lat="38.4306133" lon="16.3429867"><ele>816.0</ele><time>2026-04-09T10:30:17.224Z</time></trkpt><trkpt lat="38.430665" lon="16.3428783"><ele>818.0</ele><time>2026-04-09T10:30:18.225Z</time></trkpt><trkpt lat="38.4307167" lon="16.3427833"><ele>820.0</ele><time>2026-04-09T10:30:19.225Z</time></trkpt><trkpt lat="38.4307467" lon="16.3426917"><ele>822.0</ele><time>2026-04-09T10:30:20.225Z</time></trkpt><trkpt lat="38.4307467" lon="16.3425133"><ele>824.0</ele><time>2026-04-09T10:30:22.225Z</time></trkpt><trkpt lat="38.4307283" lon="16.342435"><ele>824.0000000000001</ele><time>2026-04-09T10:30:23.225Z</time></trkpt><trkpt lat="38.4307017" lon="16.3423433"><ele>824.0</ele><time>2026-04-09T10:30:24.225Z</time></trkpt><trkpt lat="38.4306983" lon="16.3422567"><ele>824.0</ele><time>2026-04-09T10:30:25.225Z</time></trkpt><trkpt lat="38.43071" lon="16.3421767"><ele>824.0</ele><time>2026-04-09T10:30:26.224Z</time></trkpt><trkpt lat="38.4307917" lon="16.3420417"><ele>824.0000000000001</ele><time>2026-04-09T10:30:28.225Z</time></trkpt><trkpt lat="38.4308383" lon="16.341965"><ele>824.0</ele><time>2026-04-09T10:30:29.224Z</time></trkpt><trkpt lat="38.430885" lon="16.34189"><ele>825.75</ele><time>2026-04-09T10:30:30.225Z</time></trkpt><trkpt lat="38.430915" lon="16.3418133"><ele>827.5</ele><time>2026-04-09T10:30:31.225Z</time></trkpt><trkpt lat="38.4309333" lon="16.3415733"><ele>829.25</ele><time>2026-04-09T10:30:34.225Z</time></trkpt><trkpt lat="38.4308267" lon="16.3414433"><ele>831.0</ele><time>2026-04-09T10:30:36.225Z</time></trkpt><trkpt lat="38.4307317" lon="16.34143"><ele>831.0</ele><time>2026-04-09T10:30:37.225Z</time></trkpt><trkpt lat="38.4306217" lon="16.34142"><ele>831.0</ele><time>2026-04-09T10:30:38.225Z</time></trkpt><trkpt lat="38.430515" lon="16.3414167"><ele>831.0</ele><time>2026-04-09T10:30:39.225Z</time></trkpt><trkpt lat="38.43033" lon="16.3413783"><ele>831.0</ele><time>2026-04-09T10:30:41.225Z</time></trkpt><trkpt lat="38.4302533" lon="16.3413533"><ele>829.5</ele><time>2026-04-09T10:30:42.225Z</time></trkpt><trkpt lat="38.4301567" lon="16.3413233"><ele>828.0</ele><time>2026-04-09T10:30:43.225Z</time></trkpt><trkpt lat="38.430055" lon="16.3413433"><ele>826.5</ele><time>2026-04-09T10:30:44.225Z</time></trkpt><trkpt lat="38.4298633" lon="16.34137"><ele>825.0</ele><time>2026-04-09T10:30:46.225Z</time></trkpt><trkpt lat="38.42977" lon="16.3413867"><ele>825.0</ele><time>2026-04-09T10:30:47.225Z</time></trkpt><trkpt lat="38.4296683" lon="16.3414067"><ele>825.0</ele><time>2026-04-09T10:30:48.225Z</time></trkpt><trkpt lat="38.42957" lon="16.3414233"><ele>825.0</ele><time>2026-04-09T10:30:49.225Z</time></trkpt><trkpt lat="38.4293817" lon="16.34145"><ele>825.0</ele><time>2026-04-09T10:30:51.224Z</time></trkpt><trkpt lat="38.4292267" lon="16.3414217"><ele>826.2</ele><time>2026-04-09T10:30:53.225Z</time></trkpt><trkpt lat="38.42915" lon="16.3413417"><ele>827.4</ele><time>2026-04-09T10:30:54.225Z</time></trkpt><trkpt lat="38.4290883" lon="16.3412733"><ele>828.5999999999999</ele><time>2026-04-09T10:30:55.225Z</time></trkpt><trkpt lat="38.4289817" lon="16.3411133"><ele>829.8</ele><time>2026-04-09T10:30:57.225Z</time></trkpt><trkpt lat="38.4289367" lon="16.34103"><ele>831.0</ele><time>2026-04-09T10:30:58.224Z</time></trkpt><trkpt lat="38.4288033" lon="16.3409017"><ele>831.0</ele><time>2026-04-09T10:31:00.225Z</time></trkpt><trkpt lat="38.428695" lon="16.3408717"><ele>831.0</ele><time>2026-04-09T10:31:02.225Z</time></trkpt><trkpt lat="38.42866" lon="16.3407833"><ele>831.0</ele><time>2026-04-09T10:31:06.225Z</time></trkpt><trkpt lat="38.4287283" lon="16.3407267"><ele>831.0</ele><time>2026-04-09T10:31:08.225Z</time></trkpt><trkpt lat="38.428825" lon="16.34069"><ele>831.0</ele><time>2026-04-09T10:31:10.225Z</time></trkpt><trkpt lat="38.42895" lon="16.3407483"><ele>834.5</ele><time>2026-04-09T10:31:12.225Z</time></trkpt><trkpt lat="38.429" lon="16.3408117"><ele>838.0</ele><time>2026-04-09T10:31:13.225Z</time></trkpt><trkpt lat="38.42905" lon="16.34088"><ele>841.5</ele><time>2026-04-09T10:31:14.225Z</time></trkpt><trkpt lat="38.4291033" lon="16.3409533"><ele>845.0</ele><time>2026-04-09T10:31:15.225Z</time></trkpt><trkpt lat="38.4291567" lon="16.3410167"><ele>848.5</ele><time>2026-04-09T10:31:16.225Z</time></trkpt><trkpt lat="38.429215" lon="16.3410717"><ele>852.0</ele><time>2026-04-09T10:31:17.225Z</time></trkpt><trkpt lat="38.4292867" lon="16.3411267"><ele>852.0</ele><time>2026-04-09T10:31:18.224Z</time></trkpt><trkpt lat="38.4293667" lon="16.3411567"><ele>852.0</ele><time>2026-04-09T10:31:19.225Z</time></trkpt><trkpt lat="38.4294517" lon="16.3411733"><ele>852.0</ele><time>2026-04-09T10:31:20.225Z</time></trkpt><trkpt lat="38.4295417" lon="16.34114"><ele>852.0</ele><time>2026-04-09T10:31:21.224Z</time></trkpt><trkpt lat="38.4296333" lon="16.3410667"><ele>852.0</ele><time>2026-04-09T10:31:22.225Z</time></trkpt><trkpt lat="38.429805" lon="16.340915"><ele>855.2</ele><time>2026-04-09T10:31:24.225Z</time></trkpt><trkpt lat="38.4298933" lon="16.3408583"><ele>858.4000000000001</ele><time>2026-04-09T10:31:25.225Z</time></trkpt><trkpt lat="38.4299767" lon="16.3408017"><ele>861.5999999999999</ele><time>2026-04-09T10:31:26.225Z</time></trkpt><trkpt lat="38.4301317" lon="16.34073"><ele>864.8</ele><time>2026-04-09T10:31:28.225Z</time></trkpt><trkpt lat="38.4302083" lon="16.340725"><ele>868.0</ele><time>2026-04-09T10:31:29.225Z</time></trkpt><trkpt lat="38.4302933" lon="16.340725"><ele>867.9999999999999</ele><time>2026-04-09T10:31:30.224Z</time></trkpt><trkpt lat="38.4303733" lon="16.3407233"><ele>868.0</ele><time>2026-04-09T10:31:31.225Z</time></trkpt><trkpt lat="38.4304383" lon="16.340715"><ele>868.0</ele><time>2026-04-09T10:31:32.224Z</time></trkpt><trkpt lat="38.4305" lon="16.34068"><ele>868.0</ele><time>2026-04-09T10:31:33.225Z</time></trkpt><trkpt lat="38.4305333" lon="16.3405867"><ele>867.9999999999999</ele><time>2026-04-09T10:31:35.225Z</time></trkpt><trkpt lat="38.4304267" lon="16.3405233"><ele>868.0</ele><time>2026-04-09T10:31:37.225Z</time></trkpt><trkpt lat="38.430325" lon="16.3405283"><ele>868.0</ele><time>2026-04-09T10:31:38.225Z</time></trkpt><trkpt lat="38.4302117" lon="16.3405467"><ele>868.0</ele><time>2026-04-09T10:31:39.224Z</time></trkpt><trkpt lat="38.4301017" lon="16.34057"><ele>868.0</ele><time>2026-04-09T10:31:40.225Z</time></trkpt><trkpt lat="38.4299917" lon="16.34059"><ele>868.0</ele><time>2026-04-09T10:31:41.225Z</time></trkpt><trkpt lat="38.42988" lon="16.34061"><ele>867.9999999999999</ele><time>2026-04-09T10:31:42.225Z</time></trkpt><trkpt lat="38.4297833" lon="16.3406317"><ele>868.0</ele><time>2026-04-09T10:31:43.225Z</time></trkpt><trkpt lat="38.4296867" lon="16.3406417"><ele>868.0</ele><time>2026-04-09T10:31:44.224Z</time></trkpt><trkpt lat="38.4295983" lon="16.3406667"><ele>868.0</ele><time>2026-04-09T10:31:45.225Z</time></trkpt><trkpt lat="38.4295317" lon="16.3406533"><ele>867.9999999999999</ele><time>2026-04-09T10:31:46.225Z</time></trkpt><trkpt lat="38.4294667" lon="16.340575"><ele>868.0</ele><time>2026-04-09T10:31:48.224Z</time></trkpt><trkpt lat="38.4294733" lon="16.3404283"><ele>871.2</ele><time>2026-04-09T10:31:50.223Z</time></trkpt><trkpt lat="38.429525" lon="16.3403433"><ele>874.4</ele><time>2026-04-09T10:31:51.224Z</time></trkpt><trkpt lat="38.4295967" lon="16.34026"><ele>877.6000000000001</ele><time>2026-04-09T10:31:52.224Z</time></trkpt><trkpt lat="38.4296717" lon="16.3401783"><ele>880.8000000000001</ele><time>2026-04-09T10:31:53.224Z</time></trkpt><trkpt lat="38.4297467" lon="16.340095"><ele>884.0</ele><time>2026-04-09T10:31:54.224Z</time></trkpt><trkpt lat="38.4298183" lon="16.340015"><ele>884.0</ele><time>2026-04-09T10:31:55.224Z</time></trkpt><trkpt lat="38.4298883" lon="16.3399317"><ele>884.0000000000001</ele><time>2026-04-09T10:31:56.224Z</time></trkpt><trkpt lat="38.4299733" lon="16.3398433"><ele>884.0000000000001</ele><time>2026-04-09T10:31:57.224Z</time></trkpt><trkpt lat="38.4300617" lon="16.33977"><ele>884.0</ele><time>2026-04-09T10:31:58.223Z</time></trkpt><trkpt lat="38.4301517" lon="16.339695"><ele>884.0</ele><time>2026-04-09T10:31:59.224Z</time></trkpt><trkpt lat="38.4302517" lon="16.3396283"><ele>887.6</ele><time>2026-04-09T10:32:00.224Z</time></trkpt><trkpt lat="38.43035" lon="16.3395583"><ele>891.2</ele><time>2026-04-09T10:32:01.224Z</time></trkpt><trkpt lat="38.4304417" lon="16.3394833"><ele>894.8000000000001</ele><time>2026-04-09T10:32:02.224Z</time></trkpt><trkpt lat="38.430525" lon="16.339405"><ele>898.4000000000001</ele><time>2026-04-09T10:32:03.224Z</time></trkpt><trkpt lat="38.4306017" lon="16.33934"><ele>902.0</ele><time>2026-04-09T10:32:04.224Z</time></trkpt><trkpt lat="38.4306717" lon="16.339295"><ele>902.0000000000001</ele><time>2026-04-09T10:32:05.224Z</time></trkpt><trkpt lat="38.4307317" lon="16.339255"><ele>902.0</ele><time>2026-04-09T10:32:06.224Z</time></trkpt><trkpt lat="38.4308283" lon="16.33927"><ele>902.0</ele><time>2026-04-09T10:32:08.223Z</time></trkpt><trkpt lat="38.4308367" lon="16.3393833"><ele>902.0</ele><time>2026-04-09T10:32:10.223Z</time></trkpt><trkpt lat="38.4307833" lon="16.3394433"><ele>902.0000000000001</ele><time>2026-04-09T10:32:11.224Z</time></trkpt><trkpt lat="38.4307117" lon="16.3395083"><ele>902.0</ele><time>2026-04-09T10:32:12.224Z</time></trkpt><trkpt lat="38.430625" lon="16.33957"><ele>902.0</ele><time>2026-04-09T10:32:13.224Z</time></trkpt><trkpt lat="38.430525" lon="16.339625"><ele>902.0</ele><time>2026-04-09T10:32:14.224Z</time></trkpt><trkpt lat="38.4304367" lon="16.33968"><ele>902.0</ele><time>2026-04-09T10:32:15.224Z</time></trkpt><trkpt lat="38.4303683" lon="16.339745"><ele>902.0</ele><time>2026-04-09T10:32:16.224Z</time></trkpt><trkpt lat="38.4303117" lon="16.339815"><ele>902.0</ele><time>2026-04-09T10:32:17.224Z</time></trkpt><trkpt lat="38.4302833" lon="16.339945"><ele>902.0</ele><time>2026-04-09T10:32:19.224Z</time></trkpt><trkpt lat="38.4303883" lon="16.3400017"><ele>902.0</ele><time>2026-04-09T10:32:21.224Z</time></trkpt><trkpt lat="38.430465" lon="16.3399817"><ele>902.0</ele><time>2026-04-09T10:32:22.223Z</time></trkpt><trkpt lat="38.4305417" lon="16.3399367"><ele>902.0</ele><time>2026-04-09T10:32:23.224Z</time></trkpt><trkpt lat="38.4306233" lon="16.3398967"><ele>902.0</ele><time>2026-04-09T10:32:24.224Z</time></trkpt><trkpt lat="38.43071" lon="16.3398733"><ele>902.0</ele><time>2026-04-09T10:32:25.224Z</time></trkpt><trkpt lat="38.4307933" lon="16.33985"><ele>902.0</ele><time>2026-04-09T10:32:26.224Z</time></trkpt><trkpt lat="38.4308833" lon="16.339835"><ele>902.0</ele><time>2026-04-09T10:32:27.224Z</time></trkpt><trkpt lat="38.4309783" lon="16.3398417"><ele>902.0</ele><time>2026-04-09T10:32:28.223Z</time></trkpt><trkpt lat="38.43107" lon="16.3398533"><ele>902.0</ele><time>2026-04-09T10:32:29.224Z</time></trkpt><trkpt lat="38.431175" lon="16.3398733"><ele>902.0000000000001</ele><time>2026-04-09T10:32:30.224Z</time></trkpt><trkpt lat="38.4312717" lon="16.3399067"><ele>902.0</ele><time>2026-04-09T10:32:31.224Z</time></trkpt><trkpt lat="38.4313567" lon="16.3399433"><ele>902.0</ele><time>2026-04-09T10:32:32.224Z</time></trkpt><trkpt lat="38.4314267" lon="16.3399767"><ele>902.0</ele><time>2026-04-09T10:32:33.224Z</time></trkpt><trkpt lat="38.431505" lon="16.3399867"><ele>902.0000000000001</ele><time>2026-04-09T10:32:34.224Z</time></trkpt><trkpt lat="38.4315767" lon="16.3399467"><ele>902.0</ele><time>2026-04-09T10:32:35.224Z</time></trkpt><trkpt lat="38.4316233" lon="16.3398633"><ele>903.6</ele><time>2026-04-09T10:32:36.224Z</time></trkpt><trkpt lat="38.4316333" lon="16.3397583"><ele>905.2</ele><time>2026-04-09T10:32:37.224Z</time></trkpt><trkpt lat="38.4316017" lon="16.3396317"><ele>906.8</ele><time>2026-04-09T10:32:38.224Z</time></trkpt><trkpt lat="38.4315567" lon="16.33949"><ele>908.4</ele><time>2026-04-09T10:32:39.224Z</time></trkpt><trkpt lat="38.4315183" lon="16.33935"><ele>910.0</ele><time>2026-04-09T10:32:40.224Z</time></trkpt><trkpt lat="38.4315017" lon="16.3392167"><ele>911.4</ele><time>2026-04-09T10:32:41.224Z</time></trkpt><trkpt lat="38.4314883" lon="16.3390817"><ele>912.8</ele><time>2026-04-09T10:32:42.224Z</time></trkpt><trkpt lat="38.43149" lon="16.3389367"><ele>914.2</ele><time>2026-04-09T10:32:43.224Z</time></trkpt><trkpt lat="38.4314867" lon="16.338795"><ele>915.6</ele><time>2026-04-09T10:32:44.224Z</time></trkpt><trkpt lat="38.4314917" lon="16.33865"><ele>917.0</ele><time>2026-04-09T10:32:45.224Z</time></trkpt><trkpt lat="38.4314983" lon="16.3385033"><ele>919.0</ele><time>2026-04-09T10:32:46.224Z</time></trkpt><trkpt lat="38.4315017" lon="16.3383567"><ele>921.0</ele><time>2026-04-09T10:32:47.224Z</time></trkpt><trkpt lat="38.4315083" lon="16.33821"><ele>923.0</ele><time>2026-04-09T10:32:48.224Z</time></trkpt><trkpt lat="38.4315117" lon="16.338065"><ele>925.0</ele><time>2026-04-09T10:32:49.224Z</time></trkpt><trkpt lat="38.4315167" lon="16.3379167"><ele>926.8</ele><time>2026-04-09T10:32:50.224Z</time></trkpt><trkpt lat="38.43152" lon="16.3377683"><ele>928.6</ele><time>2026-04-09T10:32:51.224Z</time></trkpt><trkpt lat="38.4315217" lon="16.3376283"><ele>930.4000000000001</ele><time>2026-04-09T10:32:52.224Z</time></trkpt><trkpt lat="38.4315233" lon="16.33749"><ele>932.2</ele><time>2026-04-09T10:32:53.224Z</time></trkpt><trkpt lat="38.4315217" lon="16.3373567"><ele>934.0</ele><time>2026-04-09T10:32:54.224Z</time></trkpt><trkpt lat="38.43152" lon="16.3372183"><ele>935.1666666666666</ele><time>2026-04-09T10:32:55.223Z</time></trkpt><trkpt lat="38.4315133" lon="16.3370933"><ele>936.3333333333333</ele><time>2026-04-09T10:32:56.224Z</time></trkpt><trkpt lat="38.4315183" lon="16.3369733"><ele>937.5</ele><time>2026-04-09T10:32:57.224Z</time></trkpt><trkpt lat="38.4315217" lon="16.3368667"><ele>938.6666666666667</ele><time>2026-04-09T10:32:58.224Z</time></trkpt><trkpt lat="38.43153" lon="16.33675"><ele>939.8333333333334</ele><time>2026-04-09T10:32:59.224Z</time></trkpt><trkpt lat="38.4315333" lon="16.33665"><ele>941.0</ele><time>2026-04-09T10:33:00.224Z</time></trkpt><trkpt lat="38.431535" lon="16.3365617"><ele>941.0000000000001</ele><time>2026-04-09T10:33:01.224Z</time></trkpt><trkpt lat="38.4315483" lon="16.3364267"><ele>941.0</ele><time>2026-04-09T10:33:03.224Z</time></trkpt><trkpt lat="38.4315683" lon="16.3363217"><ele>941.0</ele><time>2026-04-09T10:33:05.224Z</time></trkpt><trkpt lat="38.431575" lon="16.336215"><ele>941.0</ele><time>2026-04-09T10:33:08.224Z</time></trkpt><trkpt lat="38.4315767" lon="16.3361283"><ele>941.0000000000001</ele><time>2026-04-09T10:33:10.224Z</time></trkpt><trkpt lat="38.4315717" lon="16.336045"><ele>941.0</ele><time>2026-04-09T10:33:12.224Z</time></trkpt><trkpt lat="38.4315817" lon="16.3359267"><ele>943.1666666666667</ele><time>2026-04-09T10:33:15.224Z</time></trkpt><trkpt lat="38.4315833" lon="16.3358083"><ele>945.3333333333334</ele><time>2026-04-09T10:33:17.224Z</time></trkpt><trkpt lat="38.431585" lon="16.3357217"><ele>947.5</ele><time>2026-04-09T10:33:18.223Z</time></trkpt><trkpt lat="38.4315867" lon="16.33564"><ele>949.6666666666667</ele><time>2026-04-09T10:33:19.224Z</time></trkpt><trkpt lat="38.431585" lon="16.3354733"><ele>951.8333333333334</ele><time>2026-04-09T10:33:21.224Z</time></trkpt><trkpt lat="38.4315883" lon="16.33537"><ele>954.0</ele><time>2026-04-09T10:33:22.224Z</time></trkpt><trkpt lat="38.4315967" lon="16.3352717"><ele>955.0</ele><time>2026-04-09T10:33:23.224Z</time></trkpt><trkpt lat="38.431605" lon="16.3351767"><ele>956.0</ele><time>2026-04-09T10:33:24.224Z</time></trkpt><trkpt lat="38.4316117" lon="16.335075"><ele>957.0</ele><time>2026-04-09T10:33:25.224Z</time></trkpt><trkpt lat="38.4316133" lon="16.3349683"><ele>958.0</ele><time>2026-04-09T10:33:26.224Z</time></trkpt><trkpt lat="38.4316067" lon="16.3348517"><ele>959.0</ele><time>2026-04-09T10:33:27.224Z</time></trkpt><trkpt lat="38.4315983" lon="16.3347383"><ele>960.0</ele><time>2026-04-09T10:33:28.224Z</time></trkpt><trkpt lat="38.4315867" lon="16.334635"><ele>961.8333333333334</ele><time>2026-04-09T10:33:29.224Z</time></trkpt><trkpt lat="38.431585" lon="16.3345217"><ele>963.6666666666667</ele><time>2026-04-09T10:33:30.224Z</time></trkpt><trkpt lat="38.431575" lon="16.334415"><ele>965.5</ele><time>2026-04-09T10:33:31.224Z</time></trkpt><trkpt lat="38.4315667" lon="16.334305"><ele>967.3333333333334</ele><time>2026-04-09T10:33:32.224Z</time></trkpt><trkpt lat="38.431555" lon="16.33419"><ele>969.1666666666667</ele><time>2026-04-09T10:33:33.224Z</time></trkpt><trkpt lat="38.4315483" lon="16.3340833"><ele>971.0</ele><time>2026-04-09T10:33:34.224Z</time></trkpt><trkpt lat="38.43155" lon="16.3339683"><ele>971.8571428571429</ele><time>2026-04-09T10:33:35.224Z</time></trkpt><trkpt lat="38.43156" lon="16.33388"><ele>972.7142857142858</ele><time>2026-04-09T10:33:36.224Z</time></trkpt><trkpt lat="38.4315883" lon="16.3338033"><ele>973.5714285714287</ele><time>2026-04-09T10:33:37.224Z</time></trkpt><trkpt lat="38.43162" lon="16.33372"><ele>974.4285714285716</ele><time>2026-04-09T10:33:38.223Z</time></trkpt><trkpt lat="38.4316617" lon="16.3336417"><ele>975.2857142857143</ele><time>2026-04-09T10:33:39.224Z</time></trkpt><trkpt lat="38.4316983" lon="16.333575"><ele>976.1428571428573</ele><time>2026-04-09T10:33:40.224Z</time></trkpt><trkpt lat="38.4317467" lon="16.3335067"><ele>977.0000000000001</ele><time>2026-04-09T10:33:41.224Z</time></trkpt><trkpt lat="38.4317967" lon="16.33343"><ele>977.0000000000001</ele><time>2026-04-09T10:33:42.224Z</time></trkpt><trkpt lat="38.43185" lon="16.3333483"><ele>977.0</ele><time>2026-04-09T10:33:43.224Z</time></trkpt><trkpt lat="38.4318983" lon="16.33325"><ele>977.0</ele><time>2026-04-09T10:33:44.224Z</time></trkpt><trkpt lat="38.4319333" lon="16.3331433"><ele>977.0</ele><time>2026-04-09T10:33:45.224Z</time></trkpt><trkpt lat="38.4319467" lon="16.333035"><ele>977.0000000000001</ele><time>2026-04-09T10:33:46.224Z</time></trkpt><trkpt lat="38.4319467" lon="16.3329267"><ele>977.0</ele><time>2026-04-09T10:33:47.224Z</time></trkpt><trkpt lat="38.431935" lon="16.3328133"><ele>978.5000000000001</ele><time>2026-04-09T10:33:48.224Z</time></trkpt><trkpt lat="38.431905" lon="16.3327133"><ele>980.0</ele><time>2026-04-09T10:33:49.224Z</time></trkpt><trkpt lat="38.43186" lon="16.3326167"><ele>981.5</ele><time>2026-04-09T10:33:50.224Z</time></trkpt><trkpt lat="38.4318067" lon="16.3325183"><ele>983.0</ele><time>2026-04-09T10:33:51.224Z</time></trkpt><trkpt lat="38.43175" lon="16.3324317"><ele>984.5000000000001</ele><time>2026-04-09T10:33:52.224Z</time></trkpt><trkpt lat="38.431695" lon="16.3323433"><ele>986.0</ele><time>2026-04-09T10:33:53.224Z</time></trkpt><trkpt lat="38.4316483" lon="16.3322617"><ele>987.4</ele><time>2026-04-09T10:33:54.224Z</time></trkpt><trkpt lat="38.4316067" lon="16.33219"><ele>988.8</ele><time>2026-04-09T10:33:55.223Z</time></trkpt><trkpt lat="38.43157" lon="16.332075"><ele>990.1999999999999</ele><time>2026-04-09T10:33:57.224Z</time></trkpt><trkpt lat="38.4316033" lon="16.3319933"><ele>991.5999999999999</ele><time>2026-04-09T10:33:59.224Z</time></trkpt><trkpt lat="38.4316883" lon="16.3320017"><ele>993.0</ele><time>2026-04-09T10:34:01.224Z</time></trkpt><trkpt lat="38.4317717" lon="16.332135"><ele>993.0</ele><time>2026-04-09T10:34:03.224Z</time></trkpt><trkpt lat="38.4318117" lon="16.3322283"><ele>993.0</ele><time>2026-04-09T10:34:04.223Z</time></trkpt><trkpt lat="38.4318617" lon="16.3323"><ele>993.0</ele><time>2026-04-09T10:34:05.224Z</time></trkpt><trkpt lat="38.43192" lon="16.3323467"><ele>993.0</ele><time>2026-04-09T10:34:06.224Z</time></trkpt><trkpt lat="38.431985" lon="16.3323483"><ele>993.0</ele><time>2026-04-09T10:34:07.224Z</time></trkpt><trkpt lat="38.43205" lon="16.3323133"><ele>993.0</ele><time>2026-04-09T10:34:08.224Z</time></trkpt><trkpt lat="38.4320917" lon="16.3322467"><ele>993.0</ele><time>2026-04-09T10:34:09.223Z</time></trkpt><trkpt lat="38.432115" lon="16.3321583"><ele>993.0</ele><time>2026-04-09T10:34:10.224Z</time></trkpt><trkpt lat="38.4321183" lon="16.332065"><ele>993.0</ele><time>2026-04-09T10:34:11.224Z</time></trkpt><trkpt lat="38.4321183" lon="16.3319683"><ele>993.0</ele><time>2026-04-09T10:34:12.224Z</time></trkpt><trkpt lat="38.4321167" lon="16.33188"><ele>993.0</ele><time>2026-04-09T10:34:13.224Z</time></trkpt><trkpt lat="38.4321183" lon="16.3317967"><ele>993.0</ele><time>2026-04-09T10:34:14.224Z</time></trkpt><trkpt lat="38.4321133" lon="16.331715"><ele>993.0</ele><time>2026-04-09T10:34:15.224Z</time></trkpt><trkpt lat="38.4321033" lon="16.3316283"><ele>993.0</ele><time>2026-04-09T10:34:16.224Z</time></trkpt><trkpt lat="38.432085" lon="16.3315433"><ele>993.0</ele><time>2026-04-09T10:34:17.224Z</time></trkpt><trkpt lat="38.4320717" lon="16.33146"><ele>993.0</ele><time>2026-04-09T10:34:18.224Z</time></trkpt><trkpt lat="38.4320517" lon="16.331375"><ele>993.0</ele><time>2026-04-09T10:34:19.224Z</time></trkpt><trkpt lat="38.4320217" lon="16.33129"><ele>993.0</ele><time>2026-04-09T10:34:20.224Z</time></trkpt><trkpt lat="38.431995" lon="16.331215"><ele>993.0</ele><time>2026-04-09T10:34:21.224Z</time></trkpt><trkpt lat="38.431985" lon="16.3310667"><ele>993.0</ele><time>2026-04-09T10:34:23.223Z</time></trkpt><trkpt lat="38.432035" lon="16.3309517"><ele>995.8571428571429</ele><time>2026-04-09T10:34:25.223Z</time></trkpt><trkpt lat="38.43213" lon="16.3309167"><ele>998.7142857142858</ele><time>2026-04-09T10:34:27.224Z</time></trkpt><trkpt lat="38.4321917" lon="16.3309333"><ele>1001.5714285714287</ele><time>2026-04-09T10:34:28.224Z</time></trkpt><trkpt lat="38.432255" lon="16.33096"><ele>1004.4285714285714</ele><time>2026-04-09T10:34:29.224Z</time></trkpt><trkpt lat="38.4323267" lon="16.3309917"><ele>1007.2857142857144</ele><time>2026-04-09T10:34:30.224Z</time></trkpt><trkpt lat="38.4323933" lon="16.33103"><ele>1010.1428571428572</ele><time>2026-04-09T10:34:31.223Z</time></trkpt><trkpt lat="38.4324617" lon="16.3310583"><ele>1013.0</ele><time>2026-04-09T10:34:32.223Z</time></trkpt><trkpt lat="38.4325283" lon="16.3310833"><ele>1015.8333333333334</ele><time>2026-04-09T10:34:33.224Z</time></trkpt><trkpt lat="38.4326" lon="16.3310933"><ele>1018.6666666666667</ele><time>2026-04-09T10:34:34.224Z</time></trkpt><trkpt lat="38.4326717" lon="16.331085"><ele>1021.5</ele><time>2026-04-09T10:34:35.224Z</time></trkpt><trkpt lat="38.432745" lon="16.3310667"><ele>1024.3333333333333</ele><time>2026-04-09T10:34:36.224Z</time></trkpt><trkpt lat="38.432825" lon="16.3310283"><ele>1027.1666666666665</ele><time>2026-04-09T10:34:37.224Z</time></trkpt><trkpt lat="38.4328983" lon="16.330985"><ele>1030.0</ele><time>2026-04-09T10:34:38.224Z</time></trkpt><trkpt lat="38.43298" lon="16.3309517"><ele>1030.0</ele><time>2026-04-09T10:34:39.224Z</time></trkpt><trkpt lat="38.4330583" lon="16.330915"><ele>1030.0</ele><time>2026-04-09T10:34:40.224Z</time></trkpt><trkpt lat="38.433135" lon="16.33087"><ele>1030.0</ele><time>2026-04-09T10:34:41.224Z</time></trkpt><trkpt lat="38.4331983" lon="16.330815"><ele>1030.0</ele><time>2026-04-09T10:34:42.223Z</time></trkpt><trkpt lat="38.4332533" lon="16.3307517"><ele>1030.0</ele><time>2026-04-09T10:34:43.224Z</time></trkpt><trkpt lat="38.433295" lon="16.3306883"><ele>1030.0</ele><time>2026-04-09T10:34:44.224Z</time></trkpt><trkpt lat="38.433345" lon="16.33059"><ele>1037.8</ele><time>2026-04-09T10:34:46.224Z</time></trkpt><trkpt lat="38.43341" lon="16.3305067"><ele>1045.6</ele><time>2026-04-09T10:34:48.224Z</time></trkpt><trkpt lat="38.4334917" lon="16.33043"><ele>1053.4</ele><time>2026-04-09T10:34:50.224Z</time></trkpt><trkpt lat="38.4336233" lon="16.33041"><ele>1061.2</ele><time>2026-04-09T10:34:52.224Z</time></trkpt><trkpt lat="38.4337083" lon="16.3304117"><ele>1069.0</ele><time>2026-04-09T10:34:53.224Z</time></trkpt><trkpt lat="38.4337917" lon="16.3304133"><ele>1066.8333333333333</ele><time>2026-04-09T10:34:54.224Z</time></trkpt><trkpt lat="38.4338767" lon="16.3304183"><ele>1064.6666666666665</ele><time>2026-04-09T10:34:55.224Z</time></trkpt><trkpt lat="38.4339467" lon="16.3304317"><ele>1062.5</ele><time>2026-04-09T10:34:56.224Z</time></trkpt><trkpt lat="38.4340183" lon="16.33042"><ele>1060.3333333333333</ele><time>2026-04-09T10:34:57.224Z</time></trkpt><trkpt lat="38.43409" lon="16.3303933"><ele>1058.1666666666667</ele><time>2026-04-09T10:34:58.224Z</time></trkpt><trkpt lat="38.4341483" lon="16.3303417"><ele>1056.0</ele><time>2026-04-09T10:34:59.224Z</time></trkpt><trkpt lat="38.4341967" lon="16.3302667"><ele>1056.0</ele><time>2026-04-09T10:35:00.224Z</time></trkpt><trkpt lat="38.4342383" lon="16.3301667"><ele>1056.0</ele><time>2026-04-09T10:35:01.224Z</time></trkpt><trkpt lat="38.43428" lon="16.3300733"><ele>1056.0</ele><time>2026-04-09T10:35:02.224Z</time></trkpt><trkpt lat="38.4343233" lon="16.3299717"><ele>1056.0</ele><time>2026-04-09T10:35:03.224Z</time></trkpt><trkpt lat="38.4343783" lon="16.3298833"><ele>1056.0</ele><time>2026-04-09T10:35:04.224Z</time></trkpt><trkpt lat="38.4344267" lon="16.3298217"><ele>1056.0</ele><time>2026-04-09T10:35:05.224Z</time></trkpt><trkpt lat="38.4344967" lon="16.32979"><ele>1056.0</ele><time>2026-04-09T10:35:06.224Z</time></trkpt><trkpt lat="38.434575" lon="16.32976"><ele>1056.0</ele><time>2026-04-09T10:35:07.224Z</time></trkpt><trkpt lat="38.434645" lon="16.3297167"><ele>1056.0</ele><time>2026-04-09T10:35:08.223Z</time></trkpt><trkpt lat="38.4347083" lon="16.3296267"><ele>1056.0</ele><time>2026-04-09T10:35:10.224Z</time></trkpt><trkpt lat="38.4346633" lon="16.3295417"><ele>1056.0</ele><time>2026-04-09T10:35:12.224Z</time></trkpt><trkpt lat="38.43455" lon="16.3295567"><ele>1056.0</ele><time>2026-04-09T10:35:14.224Z</time></trkpt><trkpt lat="38.434475" lon="16.3296033"><ele>1056.0</ele><time>2026-04-09T10:35:15.224Z</time></trkpt><trkpt lat="38.4343933" lon="16.3296617"><ele>1056.0</ele><time>2026-04-09T10:35:16.224Z</time></trkpt><trkpt lat="38.434305" lon="16.3297217"><ele>1056.0</ele><time>2026-04-09T10:35:17.224Z</time></trkpt><trkpt lat="38.434225" lon="16.3297817"><ele>1056.0</ele><time>2026-04-09T10:35:18.224Z</time></trkpt><trkpt lat="38.4341533" lon="16.3298383"><ele>1056.0</ele><time>2026-04-09T10:35:19.224Z</time></trkpt><trkpt lat="38.4340833" lon="16.3298867"><ele>1056.0</ele><time>2026-04-09T10:35:20.224Z</time></trkpt><trkpt lat="38.43401" lon="16.329935"><ele>1056.0</ele><time>2026-04-09T10:35:21.224Z</time></trkpt><trkpt lat="38.4339317" lon="16.3299683"><ele>1056.0</ele><time>2026-04-09T10:35:22.224Z</time></trkpt><trkpt lat="38.4338433" lon="16.32999"><ele>1056.0</ele><time>2026-04-09T10:35:23.224Z</time></trkpt><trkpt lat="38.4337617" lon="16.3299967"><ele>1056.0</ele><time>2026-04-09T10:35:24.224Z</time></trkpt><trkpt lat="38.4336717" lon="16.3299883"><ele>1056.0</ele><time>2026-04-09T10:35:25.224Z</time></trkpt><trkpt lat="38.4335817" lon="16.32997"><ele>1058.6</ele><time>2026-04-09T10:35:26.224Z</time></trkpt><trkpt lat="38.43349" lon="16.3299517"><ele>1061.1999999999998</ele><time>2026-04-09T10:35:27.223Z</time></trkpt><trkpt lat="38.4334" lon="16.3299367"><ele>1063.8000000000002</ele><time>2026-04-09T10:35:28.224Z</time></trkpt><trkpt lat="38.4333017" lon="16.3299567"><ele>1066.4</ele><time>2026-04-09T10:35:29.224Z</time></trkpt><trkpt lat="38.4332083" lon="16.329995"><ele>1069.0</ele><time>2026-04-09T10:35:30.224Z</time></trkpt><trkpt lat="38.4331233" lon="16.330045"><ele>1069.0</ele><time>2026-04-09T10:35:31.224Z</time></trkpt><trkpt lat="38.4330467" lon="16.3300833"><ele>1069.0</ele><time>2026-04-09T10:35:32.224Z</time></trkpt><trkpt lat="38.4329833" lon="16.330105"><ele>1069.0</ele><time>2026-04-09T10:35:33.224Z</time></trkpt><trkpt lat="38.4329083" lon="16.3300967"><ele>1069.0</ele><time>2026-04-09T10:35:34.224Z</time></trkpt><trkpt lat="38.432835" lon="16.3300633"><ele>1069.0</ele><time>2026-04-09T10:35:35.223Z</time></trkpt><trkpt lat="38.4327783" lon="16.33"><ele>1069.0</ele><time>2026-04-09T10:35:36.224Z</time></trkpt><trkpt lat="38.432725" lon="16.329905"><ele>1071.2</ele><time>2026-04-09T10:35:37.224Z</time></trkpt><trkpt lat="38.43268" lon="16.3297767"><ele>1073.4</ele><time>2026-04-09T10:35:38.224Z</time></trkpt><trkpt lat="38.4326483" lon="16.32963"><ele>1075.6</ele><time>2026-04-09T10:35:39.224Z</time></trkpt><trkpt lat="38.4326067" lon="16.3294917"><ele>1077.8</ele><time>2026-04-09T10:35:40.224Z</time></trkpt><trkpt lat="38.432565" lon="16.3293883"><ele>1080.0</ele><time>2026-04-09T10:35:41.224Z</time></trkpt><trkpt lat="38.4325217" lon="16.3293017"><ele>1080.0</ele><time>2026-04-09T10:35:42.224Z</time></trkpt><trkpt lat="38.4324983" lon="16.3292267"><ele>1080.0</ele><time>2026-04-09T10:35:43.224Z</time></trkpt><trkpt lat="38.43253" lon="16.329135"><ele>1080.0</ele><time>2026-04-09T10:35:45.224Z</time></trkpt><trkpt lat="38.4325917" lon="16.3291733"><ele>1080.0</ele><time>2026-04-09T10:35:47.224Z</time></trkpt><trkpt lat="38.4326383" lon="16.3292533"><ele>1080.0</ele><time>2026-04-09T10:35:48.224Z</time></trkpt><trkpt lat="38.4327" lon="16.3293617"><ele>1080.0</ele><time>2026-04-09T10:35:49.224Z</time></trkpt><trkpt lat="38.4327683" lon="16.3294817"><ele>1080.0</ele><time>2026-04-09T10:35:50.224Z</time></trkpt><trkpt lat="38.432825" lon="16.3295817"><ele>1080.0</ele><time>2026-04-09T10:35:51.223Z</time></trkpt><trkpt lat="38.43288" lon="16.3296567"><ele>1080.0</ele><time>2026-04-09T10:35:52.224Z</time></trkpt><trkpt lat="38.4329367" lon="16.32972"><ele>1080.0</ele><time>2026-04-09T10:35:53.223Z</time></trkpt><trkpt lat="38.4329933" lon="16.3297733"><ele>1080.0</ele><time>2026-04-09T10:35:54.223Z</time></trkpt><trkpt lat="38.433115" lon="16.3297983"><ele>1080.0</ele><time>2026-04-09T10:35:56.224Z</time></trkpt><trkpt lat="38.433185" lon="16.3297633"><ele>1082.6666666666667</ele><time>2026-04-09T10:35:57.223Z</time></trkpt><trkpt lat="38.4332567" lon="16.3297183"><ele>1085.3333333333333</ele><time>2026-04-09T10:35:58.224Z</time></trkpt><trkpt lat="38.433335" lon="16.329675"><ele>1088.0</ele><time>2026-04-09T10:35:59.224Z</time></trkpt><trkpt lat="38.4334117" lon="16.32964"><ele>1090.6666666666665</ele><time>2026-04-09T10:36:00.224Z</time></trkpt><trkpt lat="38.4334883" lon="16.3295933"><ele>1093.3333333333333</ele><time>2026-04-09T10:36:01.224Z</time></trkpt><trkpt lat="38.43356" lon="16.3295433"><ele>1096.0</ele><time>2026-04-09T10:36:02.224Z</time></trkpt><trkpt lat="38.4336283" lon="16.3295067"><ele>1096.0</ele><time>2026-04-09T10:36:03.224Z</time></trkpt><trkpt lat="38.4337083" lon="16.3294817"><ele>1096.0</ele><time>2026-04-09T10:36:04.224Z</time></trkpt><trkpt lat="38.43378" lon="16.3294567"><ele>1096.0</ele><time>2026-04-09T10:36:05.224Z</time></trkpt><trkpt lat="38.433885" lon="16.3293883"><ele>1096.0</ele><time>2026-04-09T10:36:07.224Z</time></trkpt><trkpt lat="38.43397" lon="16.329305"><ele>1096.0</ele><time>2026-04-09T10:36:09.224Z</time></trkpt><trkpt lat="38.4339783" lon="16.3291667"><ele>1096.0</ele><time>2026-04-09T10:36:11.224Z</time></trkpt><trkpt lat="38.4338917" lon="16.329095"><ele>1096.0</ele><time>2026-04-09T10:36:13.224Z</time></trkpt><trkpt lat="38.433825" lon="16.3291067"><ele>1096.0</ele><time>2026-04-09T10:36:14.224Z</time></trkpt><trkpt lat="38.43375" lon="16.32912"><ele>1096.0</ele><time>2026-04-09T10:36:15.224Z</time></trkpt><trkpt lat="38.4336667" lon="16.329145"><ele>1096.0</ele><time>2026-04-09T10:36:16.224Z</time></trkpt><trkpt lat="38.433575" lon="16.3291617"><ele>1096.0</ele><time>2026-04-09T10:36:17.224Z</time></trkpt><trkpt lat="38.4334833" lon="16.3291783"><ele>1096.0</ele><time>2026-04-09T10:36:18.223Z</time></trkpt><trkpt lat="38.433395" lon="16.3291967"><ele>1096.0</ele><time>2026-04-09T10:36:19.224Z</time></trkpt><trkpt lat="38.4333083" lon="16.3292133"><ele>1096.0</ele><time>2026-04-09T10:36:20.224Z</time></trkpt><trkpt lat="38.433225" lon="16.3292233"><ele>1096.0</ele><time>2026-04-09T10:36:21.224Z</time></trkpt><trkpt lat="38.4331467" lon="16.3292167"><ele>1096.0</ele><time>2026-04-09T10:36:22.224Z</time></trkpt><trkpt lat="38.4330733" lon="16.3291967"><ele>1096.0</ele><time>2026-04-09T10:36:23.224Z</time></trkpt><trkpt lat="38.4330017" lon="16.3291717"><ele>1097.8333333333333</ele><time>2026-04-09T10:36:24.224Z</time></trkpt><trkpt lat="38.4329317" lon="16.3291167"><ele>1099.6666666666665</ele><time>2026-04-09T10:36:25.224Z</time></trkpt><trkpt lat="38.4328733" lon="16.3290483"><ele>1101.5</ele><time>2026-04-09T10:36:26.224Z</time></trkpt><trkpt lat="38.4328183" lon="16.3289633"><ele>1103.3333333333333</ele><time>2026-04-09T10:36:27.224Z</time></trkpt><trkpt lat="38.43277" lon="16.3288817"><ele>1105.1666666666667</ele><time>2026-04-09T10:36:28.224Z</time></trkpt><trkpt lat="38.4327233" lon="16.3288017"><ele>1107.0</ele><time>2026-04-09T10:36:29.224Z</time></trkpt><trkpt lat="38.43268" lon="16.3287167"><ele>1107.0</ele><time>2026-04-09T10:36:30.224Z</time></trkpt><trkpt lat="38.4326433" lon="16.3286317"><ele>1107.0</ele><time>2026-04-09T10:36:31.224Z</time></trkpt><trkpt lat="38.4326117" lon="16.32855"><ele>1107.0</ele><time>2026-04-09T10:36:32.223Z</time></trkpt><trkpt lat="38.4325983" lon="16.32847"><ele>1107.0</ele><time>2026-04-09T10:36:33.224Z</time></trkpt><trkpt lat="38.4326067" lon="16.32832"><ele>1107.0</ele><time>2026-04-09T10:36:35.224Z</time></trkpt><trkpt lat="38.4326133" lon="16.3281733"><ele>1107.0</ele><time>2026-04-09T10:36:37.223Z</time></trkpt><trkpt lat="38.4326033" lon="16.3280833"><ele>1110.0</ele><time>2026-04-09T10:36:38.224Z</time></trkpt><trkpt lat="38.43259" lon="16.3279917"><ele>1113.0</ele><time>2026-04-09T10:36:39.224Z</time></trkpt><trkpt lat="38.43258" lon="16.3279"><ele>1116.0</ele><time>2026-04-09T10:36:40.224Z</time></trkpt><trkpt lat="38.43255" lon="16.327815"><ele>1119.0</ele><time>2026-04-09T10:36:41.224Z</time></trkpt><trkpt lat="38.43249" lon="16.327685"><ele>1122.0</ele><time>2026-04-09T10:36:43.224Z</time></trkpt><trkpt lat="38.432405" lon="16.3276133"><ele>1125.0</ele><time>2026-04-09T10:36:45.224Z</time></trkpt><trkpt lat="38.4323317" lon="16.3276283"><ele>1125.0</ele><time>2026-04-09T10:36:46.223Z</time></trkpt><trkpt lat="38.4322633" lon="16.32766"><ele>1125.0</ele><time>2026-04-09T10:36:47.224Z</time></trkpt><trkpt lat="38.432185" lon="16.3277133"><ele>1125.0</ele><time>2026-04-09T10:36:48.224Z</time></trkpt><trkpt lat="38.4321" lon="16.3277717"><ele>1125.0</ele><time>2026-04-09T10:36:49.224Z</time></trkpt><trkpt lat="38.4319867" lon="16.3278333"><ele>1125.0</ele><time>2026-04-09T10:36:50.224Z</time></trkpt><trkpt lat="38.4318817" lon="16.3278983"><ele>1122.75</ele><time>2026-04-09T10:36:51.224Z</time></trkpt><trkpt lat="38.4317767" lon="16.3279583"><ele>1120.5</ele><time>2026-04-09T10:36:52.224Z</time></trkpt><trkpt lat="38.43167" lon="16.328015"><ele>1118.25</ele><time>2026-04-09T10:36:53.224Z</time></trkpt><trkpt lat="38.431575" lon="16.3280783"><ele>1116.0</ele><time>2026-04-09T10:36:54.224Z</time></trkpt><trkpt lat="38.431475" lon="16.3281483"><ele>1116.0</ele><time>2026-04-09T10:36:55.224Z</time></trkpt><trkpt lat="38.4313883" lon="16.3282083"><ele>1116.0</ele><time>2026-04-09T10:36:56.224Z</time></trkpt><trkpt lat="38.4313" lon="16.3282567"><ele>1116.0</ele><time>2026-04-09T10:36:57.224Z</time></trkpt><trkpt lat="38.431205" lon="16.3282933"><ele>1116.0</ele><time>2026-04-09T10:36:58.224Z</time></trkpt><trkpt lat="38.4311183" lon="16.3283083"><ele>1116.0</ele><time>2026-04-09T10:36:59.224Z</time></trkpt><trkpt lat="38.4310267" lon="16.3283167"><ele>1117.8</ele><time>2026-04-09T10:37:00.224Z</time></trkpt><trkpt lat="38.430925" lon="16.32833"><ele>1119.6</ele><time>2026-04-09T10:37:01.224Z</time></trkpt><trkpt lat="38.4308283" lon="16.3283333"><ele>1121.4</ele><time>2026-04-09T10:37:02.224Z</time></trkpt><trkpt lat="38.4307467" lon="16.3283417"><ele>1123.2</ele><time>2026-04-09T10:37:03.224Z</time></trkpt><trkpt lat="38.43067" lon="16.3283317"><ele>1125.0</ele><time>2026-04-09T10:37:04.223Z</time></trkpt><trkpt lat="38.4305767" lon="16.3282533"><ele>1125.0</ele><time>2026-04-09T10:37:06.224Z</time></trkpt><trkpt lat="38.43055" lon="16.3281767"><ele>1125.0</ele><time>2026-04-09T10:37:07.224Z</time></trkpt><trkpt lat="38.4305367" lon="16.32808"><ele>1125.0</ele><time>2026-04-09T10:37:08.224Z</time></trkpt><trkpt lat="38.430535" lon="16.3279733"><ele>1125.0</ele><time>2026-04-09T10:37:09.224Z</time></trkpt><trkpt lat="38.43056" lon="16.32784"><ele>1125.0</ele><time>2026-04-09T10:37:10.224Z</time></trkpt><trkpt lat="38.4306017" lon="16.32771"><ele>1125.0</ele><time>2026-04-09T10:37:11.224Z</time></trkpt><trkpt lat="38.4306617" lon="16.3275933"><ele>1127.6</ele><time>2026-04-09T10:37:12.224Z</time></trkpt><trkpt lat="38.4307267" lon="16.3274683"><ele>1130.2</ele><time>2026-04-09T10:37:13.224Z</time></trkpt><trkpt lat="38.4307867" lon="16.3273517"><ele>1132.8</ele><time>2026-04-09T10:37:14.224Z</time></trkpt><trkpt lat="38.4308533" lon="16.327245"><ele>1135.4</ele><time>2026-04-09T10:37:15.224Z</time></trkpt><trkpt lat="38.4308967" lon="16.32716"><ele>1138.0</ele><time>2026-04-09T10:37:16.224Z</time></trkpt><trkpt lat="38.430935" lon="16.327075"><ele>1139.8333333333333</ele><time>2026-04-09T10:37:17.224Z</time></trkpt><trkpt lat="38.43097" lon="16.3269917"><ele>1141.6666666666665</ele><time>2026-04-09T10:37:18.224Z</time></trkpt><trkpt lat="38.4310017" lon="16.3269133"><ele>1143.5</ele><time>2026-04-09T10:37:19.224Z</time></trkpt><trkpt lat="38.4310433" lon="16.3268217"><ele>1145.3333333333333</ele><time>2026-04-09T10:37:20.224Z</time></trkpt><trkpt lat="38.431085" lon="16.3267367"><ele>1147.1666666666667</ele><time>2026-04-09T10:37:21.223Z</time></trkpt><trkpt lat="38.43116" lon="16.3265867"><ele>1149.0</ele><time>2026-04-09T10:37:23.224Z</time></trkpt><trkpt lat="38.4311917" lon="16.326495"><ele>1149.0</ele><time>2026-04-09T10:37:24.224Z</time></trkpt><trkpt lat="38.4312233" lon="16.3264033"><ele>1149.0</ele><time>2026-04-09T10:37:25.224Z</time></trkpt><trkpt lat="38.4312517" lon="16.326315"><ele>1149.0</ele><time>2026-04-09T10:37:26.224Z</time></trkpt><trkpt lat="38.43128" lon="16.3262167"><ele>1149.0</ele><time>2026-04-09T10:37:27.224Z</time></trkpt><trkpt lat="38.4313033" lon="16.3261233"><ele>1149.0</ele><time>2026-04-09T10:37:28.224Z</time></trkpt><trkpt lat="38.431345" lon="16.325975"><ele>1149.0</ele><time>2026-04-09T10:37:30.224Z</time></trkpt><trkpt lat="38.4313783" lon="16.32588"><ele>1151.8333333333333</ele><time>2026-04-09T10:37:31.223Z</time></trkpt><trkpt lat="38.4314033" lon="16.3257817"><ele>1154.6666666666667</ele><time>2026-04-09T10:37:32.224Z</time></trkpt><trkpt lat="38.4314267" lon="16.3256833"><ele>1157.5</ele><time>2026-04-09T10:37:33.224Z</time></trkpt><trkpt lat="38.431445" lon="16.3255967"><ele>1160.3333333333335</ele><time>2026-04-09T10:37:34.224Z</time></trkpt><trkpt lat="38.43146" lon="16.325445"><ele>1163.1666666666667</ele><time>2026-04-09T10:37:36.223Z</time></trkpt><trkpt lat="38.431455" lon="16.3253583"><ele>1166.0</ele><time>2026-04-09T10:37:37.224Z</time></trkpt><trkpt lat="38.4314383" lon="16.3252717"><ele>1166.0</ele><time>2026-04-09T10:37:38.224Z</time></trkpt><trkpt lat="38.4314083" lon="16.32518"><ele>1166.0</ele><time>2026-04-09T10:37:39.223Z</time></trkpt><trkpt lat="38.4313583" lon="16.32506"><ele>1166.0</ele><time>2026-04-09T10:37:40.224Z</time></trkpt><trkpt lat="38.4313017" lon="16.32494"><ele>1166.0</ele><time>2026-04-09T10:37:41.224Z</time></trkpt><trkpt lat="38.4312317" lon="16.3247983"><ele>1166.0</ele><time>2026-04-09T10:37:42.224Z</time></trkpt><trkpt lat="38.4311467" lon="16.3246483"><ele>1166.0</ele><time>2026-04-09T10:37:43.224Z</time></trkpt><trkpt lat="38.4310617" lon="16.3245133"><ele>1166.0</ele><time>2026-04-09T10:37:44.224Z</time></trkpt><trkpt lat="38.430965" lon="16.3243167"><ele>1166.0</ele><time>2026-04-09T10:37:45.224Z</time></trkpt><trkpt lat="38.4308633" lon="16.3240933"><ele>1167.0</ele><time>2026-04-09T10:37:46.223Z</time></trkpt><trkpt lat="38.4307683" lon="16.323845"><ele>1168.0</ele><time>2026-04-09T10:37:47.224Z</time></trkpt><trkpt lat="38.4306917" lon="16.3235817"><ele>1169.0</ele><time>2026-04-09T10:37:48.224Z</time></trkpt><trkpt lat="38.43062" lon="16.3233367"><ele>1169.0</ele><time>2026-04-09T10:37:49.224Z</time></trkpt><trkpt lat="38.4305617" lon="16.3231217"><ele>1169.0</ele><time>2026-04-09T10:37:50.224Z</time></trkpt><trkpt lat="38.4305233" lon="16.32295"><ele>1169.0</ele><time>2026-04-09T10:37:51.224Z</time></trkpt><trkpt lat="38.4305" lon="16.322805"><ele>1169.0</ele><time>2026-04-09T10:37:52.224Z</time></trkpt><trkpt lat="38.4304883" lon="16.32267"><ele>1168.5</ele><time>2026-04-09T10:37:53.224Z</time></trkpt><trkpt lat="38.4305067" lon="16.3225517"><ele>1168.0</ele><time>2026-04-09T10:37:54.224Z</time></trkpt><trkpt lat="38.43055" lon="16.3224183"><ele>1167.5</ele><time>2026-04-09T10:37:55.223Z</time></trkpt><trkpt lat="38.4306033" lon="16.3222767"><ele>1167.0</ele><time>2026-04-09T10:37:56.224Z</time></trkpt><trkpt lat="38.4306567" lon="16.3221283"><ele>1165.75</ele><time>2026-04-09T10:37:57.224Z</time></trkpt><trkpt lat="38.430705" lon="16.321985"><ele>1164.5</ele><time>2026-04-09T10:37:58.224Z</time></trkpt><trkpt lat="38.4307533" lon="16.321845"><ele>1163.25</ele><time>2026-04-09T10:37:59.224Z</time></trkpt><trkpt lat="38.4307933" lon="16.3217017"><ele>1162.0</ele><time>2026-04-09T10:38:00.224Z</time></trkpt><trkpt lat="38.4308383" lon="16.321555"><ele>1162.0</ele><time>2026-04-09T10:38:01.224Z</time></trkpt><trkpt lat="38.4308883" lon="16.3214"><ele>1162.0</ele><time>2026-04-09T10:38:02.224Z</time></trkpt><trkpt lat="38.4309533" lon="16.3212483"><ele>1162.0</ele><time>2026-04-09T10:38:03.223Z</time></trkpt><trkpt lat="38.4310117" lon="16.3210917"><ele>1162.0</ele><time>2026-04-09T10:38:04.224Z</time></trkpt><trkpt lat="38.43107" lon="16.3209367"><ele>1160.25</ele><time>2026-04-09T10:38:05.224Z</time></trkpt><trkpt lat="38.4311117" lon="16.3207767"><ele>1158.5</ele><time>2026-04-09T10:38:06.224Z</time></trkpt><trkpt lat="38.4311467" lon="16.320635"><ele>1156.75</ele><time>2026-04-09T10:38:07.224Z</time></trkpt><trkpt lat="38.431185" lon="16.3204867"><ele>1155.0</ele><time>2026-04-09T10:38:08.224Z</time></trkpt><trkpt lat="38.4312383" lon="16.3203467"><ele>1157.5</ele><time>2026-04-09T10:38:09.224Z</time></trkpt><trkpt lat="38.43131" lon="16.32021"><ele>1160.0</ele><time>2026-04-09T10:38:10.224Z</time></trkpt><trkpt lat="38.4313833" lon="16.3200767"><ele>1162.5</ele><time>2026-04-09T10:38:11.224Z</time></trkpt><trkpt lat="38.43146" lon="16.31995"><ele>1165.0</ele><time>2026-04-09T10:38:12.224Z</time></trkpt><trkpt lat="38.431525" lon="16.3198367"><ele>1165.4</ele><time>2026-04-09T10:38:13.224Z</time></trkpt><trkpt lat="38.4315867" lon="16.3197183"><ele>1165.8</ele><time>2026-04-09T10:38:14.224Z</time></trkpt><trkpt lat="38.4316517" lon="16.319605"><ele>1166.2</ele><time>2026-04-09T10:38:15.224Z</time></trkpt><trkpt lat="38.4317017" lon="16.3195083"><ele>1166.6</ele><time>2026-04-09T10:38:16.223Z</time></trkpt><trkpt lat="38.43175" lon="16.319415"><ele>1167.0</ele><time>2026-04-09T10:38:17.224Z</time></trkpt><trkpt lat="38.4318067" lon="16.3193217"><ele>1167.0</ele><time>2026-04-09T10:38:18.224Z</time></trkpt><trkpt lat="38.4318533" lon="16.3192167"><ele>1167.0</ele><time>2026-04-09T10:38:19.224Z</time></trkpt><trkpt lat="38.4319117" lon="16.319105"><ele>1167.0</ele><time>2026-04-09T10:38:20.224Z</time></trkpt><trkpt lat="38.43195" lon="16.3189867"><ele>1167.0</ele><time>2026-04-09T10:38:21.224Z</time></trkpt><trkpt lat="38.431975" lon="16.3188583"><ele>1167.0</ele><time>2026-04-09T10:38:22.224Z</time></trkpt><trkpt lat="38.431995" lon="16.3187267"><ele>1168.0</ele><time>2026-04-09T10:38:23.224Z</time></trkpt><trkpt lat="38.43201" lon="16.3185983"><ele>1169.0</ele><time>2026-04-09T10:38:24.224Z</time></trkpt><trkpt lat="38.4320233" lon="16.3184733"><ele>1170.0</ele><time>2026-04-09T10:38:25.224Z</time></trkpt><trkpt lat="38.4320283" lon="16.31835"><ele>1171.0</ele><time>2026-04-09T10:38:26.224Z</time></trkpt><trkpt lat="38.4320383" lon="16.31823"><ele>1172.0</ele><time>2026-04-09T10:38:27.223Z</time></trkpt><trkpt lat="38.4320467" lon="16.318105"><ele>1172.8333333333335</ele><time>2026-04-09T10:38:28.224Z</time></trkpt><trkpt lat="38.4320533" lon="16.3179783"><ele>1173.6666666666667</ele><time>2026-04-09T10:38:29.224Z</time></trkpt><trkpt lat="38.4320667" lon="16.3178683"><ele>1174.5</ele><time>2026-04-09T10:38:30.224Z</time></trkpt><trkpt lat="38.4320817" lon="16.3177667"><ele>1175.3333333333333</ele><time>2026-04-09T10:38:31.224Z</time></trkpt><trkpt lat="38.4321083" lon="16.3176717"><ele>1176.1666666666665</ele><time>2026-04-09T10:38:32.224Z</time></trkpt><trkpt lat="38.43215" lon="16.3176083"><ele>1177.0</ele><time>2026-04-09T10:38:33.224Z</time></trkpt><trkpt lat="38.432195" lon="16.31754"><ele>1175.1666666666665</ele><time>2026-04-09T10:38:34.224Z</time></trkpt><trkpt lat="38.43224" lon="16.3174617"><ele>1173.3333333333333</ele><time>2026-04-09T10:38:35.224Z</time></trkpt><trkpt lat="38.4322683" lon="16.3173617"><ele>1171.5</ele><time>2026-04-09T10:38:36.223Z</time></trkpt><trkpt lat="38.43229" lon="16.31725"><ele>1169.6666666666667</ele><time>2026-04-09T10:38:37.224Z</time></trkpt><trkpt lat="38.4322817" lon="16.3171367"><ele>1167.8333333333335</ele><time>2026-04-09T10:38:38.224Z</time></trkpt><trkpt lat="38.4322683" lon="16.3170267"><ele>1166.0</ele><time>2026-04-09T10:38:39.224Z</time></trkpt><trkpt lat="38.43226" lon="16.3169383"><ele>1166.0</ele><time>2026-04-09T10:38:40.224Z</time></trkpt><trkpt lat="38.4322733" lon="16.316775"><ele>1166.0</ele><time>2026-04-09T10:38:42.224Z</time></trkpt><trkpt lat="38.4323017" lon="16.3166967"><ele>1166.0</ele><time>2026-04-09T10:38:43.223Z</time></trkpt><trkpt lat="38.432345" lon="16.3166133"><ele>1166.0</ele><time>2026-04-09T10:38:44.223Z</time></trkpt><trkpt lat="38.43239" lon="16.3165233"><ele>1166.0</ele><time>2026-04-09T10:38:45.224Z</time></trkpt><trkpt lat="38.4324283" lon="16.3164317"><ele>1166.0</ele><time>2026-04-09T10:38:46.224Z</time></trkpt><trkpt lat="38.4324633" lon="16.3163367"><ele>1167.8333333333335</ele><time>2026-04-09T10:38:47.224Z</time></trkpt><trkpt lat="38.432505" lon="16.3162417"><ele>1169.6666666666667</ele><time>2026-04-09T10:38:48.223Z</time></trkpt><trkpt lat="38.4325483" lon="16.3161483"><ele>1171.5</ele><time>2026-04-09T10:38:49.224Z</time></trkpt><trkpt lat="38.432595" lon="16.3160617"><ele>1173.3333333333333</ele><time>2026-04-09T10:38:50.224Z</time></trkpt><trkpt lat="38.4326567" lon="16.3159633"><ele>1175.1666666666665</ele><time>2026-04-09T10:38:51.224Z</time></trkpt><trkpt lat="38.432725" lon="16.315875"><ele>1177.0</ele><time>2026-04-09T10:38:52.224Z</time></trkpt><trkpt lat="38.4327783" lon="16.3158017"><ele>1177.0</ele><time>2026-04-09T10:38:53.224Z</time></trkpt><trkpt lat="38.432835" lon="16.31573"><ele>1177.0</ele><time>2026-04-09T10:38:54.224Z</time></trkpt><trkpt lat="38.4328917" lon="16.3156517"><ele>1177.0</ele><time>2026-04-09T10:38:55.224Z</time></trkpt><trkpt lat="38.4329467" lon="16.3155733"><ele>1177.0</ele><time>2026-04-09T10:38:56.224Z</time></trkpt><trkpt lat="38.4329917" lon="16.3154967"><ele>1177.0</ele><time>2026-04-09T10:38:57.224Z</time></trkpt><trkpt lat="38.43304" lon="16.3154233"><ele>1177.0</ele><time>2026-04-09T10:38:58.223Z</time></trkpt><trkpt lat="38.4330933" lon="16.3153367"><ele>1178.2</ele><time>2026-04-09T10:38:59.224Z</time></trkpt><trkpt lat="38.43315" lon="16.3152517"><ele>1179.4</ele><time>2026-04-09T10:39:00.224Z</time></trkpt><trkpt lat="38.4332083" lon="16.315165"><ele>1180.6</ele><time>2026-04-09T10:39:01.224Z</time></trkpt><trkpt lat="38.4332717" lon="16.315075"><ele>1181.8</ele><time>2026-04-09T10:39:02.224Z</time></trkpt><trkpt lat="38.433335" lon="16.31498"><ele>1183.0</ele><time>2026-04-09T10:39:03.223Z</time></trkpt><trkpt lat="38.4333883" lon="16.314895"><ele>1183.0</ele><time>2026-04-09T10:39:04.224Z</time></trkpt><trkpt lat="38.4334317" lon="16.3148083"><ele>1183.0</ele><time>2026-04-09T10:39:05.224Z</time></trkpt><trkpt lat="38.4334667" lon="16.31471"><ele>1183.0</ele><time>2026-04-09T10:39:06.224Z</time></trkpt><trkpt lat="38.433495" lon="16.3146067"><ele>1183.0</ele><time>2026-04-09T10:39:07.223Z</time></trkpt><trkpt lat="38.43352" lon="16.3145"><ele>1183.0</ele><time>2026-04-09T10:39:08.224Z</time></trkpt><trkpt lat="38.4335483" lon="16.31439"><ele>1183.0</ele><time>2026-04-09T10:39:09.224Z</time></trkpt><trkpt lat="38.4335817" lon="16.31428"><ele>1185.6</ele><time>2026-04-09T10:39:10.224Z</time></trkpt><trkpt lat="38.433615" lon="16.3141683"><ele>1188.1999999999998</ele><time>2026-04-09T10:39:11.224Z</time></trkpt><trkpt lat="38.4336517" lon="16.3140683"><ele>1190.8</ele><time>2026-04-09T10:39:12.223Z</time></trkpt><trkpt lat="38.433695" lon="16.3139717"><ele>1193.3999999999999</ele><time>2026-04-09T10:39:13.224Z</time></trkpt><trkpt lat="38.4337417" lon="16.3138783"><ele>1196.0</ele><time>2026-04-09T10:39:14.224Z</time></trkpt><trkpt lat="38.4337933" lon="16.3137717"><ele>1194.2</ele><time>2026-04-09T10:39:15.224Z</time></trkpt><trkpt lat="38.4338617" lon="16.3136583"><ele>1192.3999999999999</ele><time>2026-04-09T10:39:16.223Z</time></trkpt><trkpt lat="38.4339217" lon="16.3135517"><ele>1190.6</ele><time>2026-04-09T10:39:17.224Z</time></trkpt><trkpt lat="38.434" lon="16.31344"><ele>1188.8</ele><time>2026-04-09T10:39:18.224Z</time></trkpt><trkpt lat="38.4340633" lon="16.3133333"><ele>1187.0</ele><time>2026-04-09T10:39:19.224Z</time></trkpt><trkpt lat="38.4341167" lon="16.3132317"><ele>1187.0</ele><time>2026-04-09T10:39:20.224Z</time></trkpt><trkpt lat="38.43416" lon="16.3131367"><ele>1187.0</ele><time>2026-04-09T10:39:21.224Z</time></trkpt><trkpt lat="38.434195" lon="16.31304"><ele>1187.0</ele><time>2026-04-09T10:39:22.223Z</time></trkpt><trkpt lat="38.4342083" lon="16.3129583"><ele>1187.0</ele><time>2026-04-09T10:39:23.224Z</time></trkpt><trkpt lat="38.434215" lon="16.3128133"><ele>1187.0</ele><time>2026-04-09T10:39:25.224Z</time></trkpt><trkpt lat="38.43421" lon="16.312675"><ele>1187.0</ele><time>2026-04-09T10:39:27.224Z</time></trkpt><trkpt lat="38.4341667" lon="16.3125817"><ele>1187.0</ele><time>2026-04-09T10:39:29.224Z</time></trkpt><trkpt lat="38.4341033" lon="16.312555"><ele>1187.0</ele><time>2026-04-09T10:39:30.224Z</time></trkpt><trkpt lat="38.434025" lon="16.31255"><ele>1187.0</ele><time>2026-04-09T10:39:31.224Z</time></trkpt><trkpt lat="38.4339417" lon="16.312565"><ele>1187.0</ele><time>2026-04-09T10:39:32.224Z</time></trkpt><trkpt lat="38.433845" lon="16.3125967"><ele>1187.0</ele><time>2026-04-09T10:39:33.224Z</time></trkpt><trkpt lat="38.4337517" lon="16.3126533"><ele>1188.5</ele><time>2026-04-09T10:39:34.224Z</time></trkpt><trkpt lat="38.4336733" lon="16.3127217"><ele>1190.0</ele><time>2026-04-09T10:39:35.223Z</time></trkpt><trkpt lat="38.43359" lon="16.312755"><ele>1191.5</ele><time>2026-04-09T10:39:36.224Z</time></trkpt><trkpt lat="38.4335233" lon="16.3127817"><ele>1193.0</ele><time>2026-04-09T10:39:37.223Z</time></trkpt><trkpt lat="38.4334583" lon="16.3127933"><ele>1194.5</ele><time>2026-04-09T10:39:38.224Z</time></trkpt><trkpt lat="38.4333883" lon="16.3127867"><ele>1196.0</ele><time>2026-04-09T10:39:39.224Z</time></trkpt><trkpt lat="38.4332583" lon="16.3127283"><ele>1196.0</ele><time>2026-04-09T10:39:41.224Z</time></trkpt><trkpt lat="38.4331917" lon="16.31267"><ele>1196.0</ele><time>2026-04-09T10:39:42.224Z</time></trkpt><trkpt lat="38.4331383" lon="16.31259"><ele>1196.0</ele><time>2026-04-09T10:39:43.223Z</time></trkpt><trkpt lat="38.4330883" lon="16.3124967"><ele>1196.0</ele><time>2026-04-09T10:39:44.224Z</time></trkpt><trkpt lat="38.4330633" lon="16.3123783"><ele>1196.0</ele><time>2026-04-09T10:39:45.224Z</time></trkpt><trkpt lat="38.4330383" lon="16.3122567"><ele>1196.0</ele><time>2026-04-09T10:39:46.224Z</time></trkpt><trkpt lat="38.43301" lon="16.3121483"><ele>1196.0</ele><time>2026-04-09T10:39:47.223Z</time></trkpt><trkpt lat="38.4329733" lon="16.3120317"><ele>1196.0</ele><time>2026-04-09T10:39:48.224Z</time></trkpt><trkpt lat="38.43293" lon="16.3119133"><ele>1196.0</ele><time>2026-04-09T10:39:49.224Z</time></trkpt><trkpt lat="38.4328767" lon="16.311815"><ele>1196.0</ele><time>2026-04-09T10:39:50.223Z</time></trkpt><trkpt lat="38.432805" lon="16.3117433"><ele>1196.0</ele><time>2026-04-09T10:39:51.224Z</time></trkpt><trkpt lat="38.432715" lon="16.3116917"><ele>1196.0</ele><time>2026-04-09T10:39:52.224Z</time></trkpt><trkpt lat="38.4326267" lon="16.3116367"><ele>1196.0</ele><time>2026-04-09T10:39:53.224Z</time></trkpt><trkpt lat="38.4325317" lon="16.31158"><ele>1196.0</ele><time>2026-04-09T10:39:54.224Z</time></trkpt><trkpt lat="38.4324367" lon="16.3115333"><ele>1196.0</ele><time>2026-04-09T10:39:55.224Z</time></trkpt><trkpt lat="38.4323467" lon="16.31149"><ele>1196.0</ele><time>2026-04-09T10:39:56.224Z</time></trkpt><trkpt lat="38.4322583" lon="16.3114417"><ele>1193.75</ele><time>2026-04-09T10:39:57.224Z</time></trkpt><trkpt lat="38.43216" lon="16.3113867"><ele>1191.5</ele><time>2026-04-09T10:39:58.224Z</time></trkpt><trkpt lat="38.4320567" lon="16.3113367"><ele>1189.25</ele><time>2026-04-09T10:39:59.224Z</time></trkpt><trkpt lat="38.4319467" lon="16.311285"><ele>1187.0</ele><time>2026-04-09T10:40:00.224Z</time></trkpt><trkpt lat="38.431835" lon="16.3112367"><ele>1187.0</ele><time>2026-04-09T10:40:01.224Z</time></trkpt><trkpt lat="38.4317233" lon="16.31119"><ele>1187.0</ele><time>2026-04-09T10:40:02.224Z</time></trkpt><trkpt lat="38.4316233" lon="16.3111533"><ele>1187.0</ele><time>2026-04-09T10:40:03.224Z</time></trkpt><trkpt lat="38.431525" lon="16.3111267"><ele>1187.0</ele><time>2026-04-09T10:40:04.224Z</time></trkpt><trkpt lat="38.431415" lon="16.31108"><ele>1187.0</ele><time>2026-04-09T10:40:05.224Z</time></trkpt><trkpt lat="38.4313067" lon="16.311015"><ele>1187.75</ele><time>2026-04-09T10:40:06.224Z</time></trkpt><trkpt lat="38.43121" lon="16.3109233"><ele>1188.5</ele><time>2026-04-09T10:40:07.224Z</time></trkpt><trkpt lat="38.4311267" lon="16.3108033"><ele>1189.25</ele><time>2026-04-09T10:40:08.224Z</time></trkpt><trkpt lat="38.4310617" lon="16.3106683"><ele>1190.0</ele><time>2026-04-09T10:40:09.224Z</time></trkpt><trkpt lat="38.4310167" lon="16.310515"><ele>1187.75</ele><time>2026-04-09T10:40:10.224Z</time></trkpt><trkpt lat="38.4310083" lon="16.3103633"><ele>1185.5</ele><time>2026-04-09T10:40:11.224Z</time></trkpt><trkpt lat="38.4310183" lon="16.3101733"><ele>1183.25</ele><time>2026-04-09T10:40:12.224Z</time></trkpt><trkpt lat="38.4310217" lon="16.30997"><ele>1181.0</ele><time>2026-04-09T10:40:13.224Z</time></trkpt><trkpt lat="38.4310233" lon="16.3097817"><ele>1178.75</ele><time>2026-04-09T10:40:14.223Z</time></trkpt><trkpt lat="38.4310267" lon="16.3096033"><ele>1176.5</ele><time>2026-04-09T10:40:15.223Z</time></trkpt><trkpt lat="38.4310233" lon="16.3094383"><ele>1174.25</ele><time>2026-04-09T10:40:16.224Z</time></trkpt><trkpt lat="38.4310383" lon="16.309275"><ele>1172.0</ele><time>2026-04-09T10:40:17.224Z</time></trkpt><trkpt lat="38.4310483" lon="16.3091267"><ele>1172.0</ele><time>2026-04-09T10:40:18.224Z</time></trkpt><trkpt lat="38.4310533" lon="16.3089683"><ele>1172.0</ele><time>2026-04-09T10:40:19.224Z</time></trkpt><trkpt lat="38.43104" lon="16.308825"><ele>1172.0</ele><time>2026-04-09T10:40:20.224Z</time></trkpt><trkpt lat="38.4310133" lon="16.3087033"><ele>1172.0</ele><time>2026-04-09T10:40:21.224Z</time></trkpt><trkpt lat="38.4309633" lon="16.308585"><ele>1172.0</ele><time>2026-04-09T10:40:22.224Z</time></trkpt><trkpt lat="38.430905" lon="16.30849"><ele>1172.0</ele><time>2026-04-09T10:40:23.224Z</time></trkpt><trkpt lat="38.4308483" lon="16.3083983"><ele>1172.0</ele><time>2026-04-09T10:40:24.224Z</time></trkpt><trkpt lat="38.4307883" lon="16.3083033"><ele>1172.0</ele><time>2026-04-09T10:40:25.224Z</time></trkpt><trkpt lat="38.4307467" lon="16.3082017"><ele>1172.0</ele><time>2026-04-09T10:40:26.223Z</time></trkpt><trkpt lat="38.43072" lon="16.308095"><ele>1172.0</ele><time>2026-04-09T10:40:27.224Z</time></trkpt><trkpt lat="38.43072" lon="16.3079933"><ele>1172.0</ele><time>2026-04-09T10:40:28.224Z</time></trkpt><trkpt lat="38.4307367" lon="16.3079033"><ele>1172.5</ele><time>2026-04-09T10:40:29.224Z</time></trkpt><trkpt lat="38.4307617" lon="16.307825"><ele>1173.0</ele><time>2026-04-09T10:40:30.224Z</time></trkpt><trkpt lat="38.4307817" lon="16.30774"><ele>1173.5</ele><time>2026-04-09T10:40:31.224Z</time></trkpt><trkpt lat="38.4308133" lon="16.3076533"><ele>1174.0</ele><time>2026-04-09T10:40:32.224Z</time></trkpt><trkpt lat="38.4308467" lon="16.307575"><ele>1174.5</ele><time>2026-04-09T10:40:33.224Z</time></trkpt><trkpt lat="38.43088" lon="16.3074383"><ele>1175.0</ele><time>2026-04-09T10:40:35.224Z</time></trkpt><trkpt lat="38.4308533" lon="16.3073017"><ele>1175.1666666666667</ele><time>2026-04-09T10:40:37.223Z</time></trkpt><trkpt lat="38.43084" lon="16.3072217"><ele>1175.3333333333335</ele><time>2026-04-09T10:40:38.224Z</time></trkpt><trkpt lat="38.4308267" lon="16.3071317"><ele>1175.5</ele><time>2026-04-09T10:40:39.224Z</time></trkpt><trkpt lat="38.4308083" lon="16.307045"><ele>1175.6666666666667</ele><time>2026-04-09T10:40:40.224Z</time></trkpt><trkpt lat="38.4308" lon="16.306945"><ele>1175.8333333333333</ele><time>2026-04-09T10:40:41.224Z</time></trkpt><trkpt lat="38.430795" lon="16.3068167"><ele>1176.0</ele><time>2026-04-09T10:40:42.224Z</time></trkpt><trkpt lat="38.4307983" lon="16.3066983"><ele>1176.0</ele><time>2026-04-09T10:40:43.223Z</time></trkpt><trkpt lat="38.4308033" lon="16.30657"><ele>1176.0</ele><time>2026-04-09T10:40:44.224Z</time></trkpt><trkpt lat="38.4308283" lon="16.30643"><ele>1176.0</ele><time>2026-04-09T10:40:45.224Z</time></trkpt><trkpt lat="38.4308567" lon="16.306285"><ele>1176.0</ele><time>2026-04-09T10:40:46.224Z</time></trkpt><trkpt lat="38.4308933" lon="16.306165"><ele>1176.0</ele><time>2026-04-09T10:40:47.224Z</time></trkpt><trkpt lat="38.4309217" lon="16.3060567"><ele>1175.0</ele><time>2026-04-09T10:40:48.224Z</time></trkpt><trkpt lat="38.4309333" lon="16.305955"><ele>1174.0</ele><time>2026-04-09T10:40:49.224Z</time></trkpt><trkpt lat="38.4309417" lon="16.3058683"><ele>1173.0</ele><time>2026-04-09T10:40:50.224Z</time></trkpt><trkpt lat="38.4309383" lon="16.305785"><ele>1172.0</ele><time>2026-04-09T10:40:51.224Z</time></trkpt><trkpt lat="38.4308383" lon="16.3056567"><ele>1171.0</ele><time>2026-04-09T10:40:53.223Z</time></trkpt><trkpt lat="38.4307633" lon="16.3056383"><ele>1170.0</ele><time>2026-04-09T10:40:54.224Z</time></trkpt><trkpt lat="38.4306783" lon="16.3056233"><ele>1170.0</ele><time>2026-04-09T10:40:55.224Z</time></trkpt><trkpt lat="38.4305717" lon="16.3056217"><ele>1170.0</ele><time>2026-04-09T10:40:56.224Z</time></trkpt><trkpt lat="38.43046" lon="16.3056417"><ele>1170.0</ele><time>2026-04-09T10:40:57.224Z</time></trkpt><trkpt lat="38.4303517" lon="16.3056617"><ele>1170.0</ele><time>2026-04-09T10:40:58.224Z</time></trkpt><trkpt lat="38.430255" lon="16.3056783"><ele>1170.0</ele><time>2026-04-09T10:40:59.224Z</time></trkpt><trkpt lat="38.4301617" lon="16.305685"><ele>1165.0</ele><time>2026-04-09T10:41:00.224Z</time></trkpt><trkpt lat="38.4300917" lon="16.3056733"><ele>1160.0</ele><time>2026-04-09T10:41:01.224Z</time></trkpt><trkpt lat="38.4300283" lon="16.3055533"><ele>1155.0</ele><time>2026-04-09T10:41:03.224Z</time></trkpt><trkpt lat="38.4300483" lon="16.3054217"><ele>1150.0</ele><time>2026-04-09T10:41:05.224Z</time></trkpt><trkpt lat="38.43012" lon="16.3052983"><ele>1145.0</ele><time>2026-04-09T10:41:07.223Z</time></trkpt><trkpt lat="38.4301983" lon="16.3051817"><ele>1144.0</ele><time>2026-04-09T10:41:09.224Z</time></trkpt><trkpt lat="38.43026" lon="16.3050617"><ele>1143.0</ele><time>2026-04-09T10:41:11.223Z</time></trkpt><trkpt lat="38.430295" lon="16.3049133"><ele>1142.0</ele><time>2026-04-09T10:41:13.224Z</time></trkpt><trkpt lat="38.4303067" lon="16.3047417"><ele>1141.0</ele><time>2026-04-09T10:41:15.224Z</time></trkpt><trkpt lat="38.430285" lon="16.3046467"><ele>1140.0</ele><time>2026-04-09T10:41:16.224Z</time></trkpt><trkpt lat="38.4302533" lon="16.3045717"><ele>1139.8</ele><time>2026-04-09T10:41:17.224Z</time></trkpt><trkpt lat="38.4302083" lon="16.3044883"><ele>1139.6</ele><time>2026-04-09T10:41:18.224Z</time></trkpt><trkpt lat="38.4301617" lon="16.3043867"><ele>1139.4</ele><time>2026-04-09T10:41:19.224Z</time></trkpt><trkpt lat="38.4301167" lon="16.3042767"><ele>1139.2</ele><time>2026-04-09T10:41:20.223Z</time></trkpt><trkpt lat="38.4300733" lon="16.3041617"><ele>1139.0</ele><time>2026-04-09T10:41:21.224Z</time></trkpt><trkpt lat="38.4300333" lon="16.3040567"><ele>1139.0</ele><time>2026-04-09T10:41:22.224Z</time></trkpt><trkpt lat="38.4299817" lon="16.30395"><ele>1139.0</ele><time>2026-04-09T10:41:23.224Z</time></trkpt><trkpt lat="38.4299267" lon="16.303845"><ele>1139.0</ele><time>2026-04-09T10:41:24.224Z</time></trkpt><trkpt lat="38.4298617" lon="16.3037517"><ele>1139.0</ele><time>2026-04-09T10:41:25.224Z</time></trkpt><trkpt lat="38.429785" lon="16.3036733"><ele>1139.0</ele><time>2026-04-09T10:41:26.224Z</time></trkpt><trkpt lat="38.4296933" lon="16.30359"><ele>1136.5</ele><time>2026-04-09T10:41:27.223Z</time></trkpt><trkpt lat="38.4296167" lon="16.3035117"><ele>1134.0</ele><time>2026-04-09T10:41:28.224Z</time></trkpt><trkpt lat="38.4295433" lon="16.303435"><ele>1131.5</ele><time>2026-04-09T10:41:29.224Z</time></trkpt><trkpt lat="38.4294733" lon="16.3033583"><ele>1129.0</ele><time>2026-04-09T10:41:30.224Z</time></trkpt><trkpt lat="38.4294183" lon="16.3032717"><ele>1126.5</ele><time>2026-04-09T10:41:31.224Z</time></trkpt><trkpt lat="38.4293717" lon="16.303195"><ele>1124.0</ele><time>2026-04-09T10:41:32.224Z</time></trkpt><trkpt lat="38.4293383" lon="16.3031167"><ele>1124.0</ele><time>2026-04-09T10:41:33.224Z</time></trkpt><trkpt lat="38.4293267" lon="16.303025"><ele>1124.0</ele><time>2026-04-09T10:41:34.224Z</time></trkpt><trkpt lat="38.4293333" lon="16.3029367"><ele>1124.0</ele><time>2026-04-09T10:41:35.224Z</time></trkpt><trkpt lat="38.4293517" lon="16.3028583"><ele>1124.0</ele><time>2026-04-09T10:41:36.224Z</time></trkpt><trkpt lat="38.4293883" lon="16.30279"><ele>1124.0</ele><time>2026-04-09T10:41:37.224Z</time></trkpt><trkpt lat="38.4294817" lon="16.302685"><ele>1124.0</ele><time>2026-04-09T10:41:39.224Z</time></trkpt><trkpt lat="38.42954" lon="16.3026383"><ele>1124.0</ele><time>2026-04-09T10:41:40.224Z</time></trkpt><trkpt lat="38.4296017" lon="16.3025917"><ele>1124.0</ele><time>2026-04-09T10:41:41.223Z</time></trkpt><trkpt lat="38.42972" lon="16.3025433"><ele>1124.0</ele><time>2026-04-09T10:41:43.224Z</time></trkpt><trkpt lat="38.4297833" lon="16.3025483"><ele>1124.0</ele><time>2026-04-09T10:41:44.224Z</time></trkpt><trkpt lat="38.4298517" lon="16.3025633"><ele>1124.0</ele><time>2026-04-09T10:41:45.224Z</time></trkpt><trkpt lat="38.4299183" lon="16.30259"><ele>1124.0</ele><time>2026-04-09T10:41:46.224Z</time></trkpt><trkpt lat="38.4299783" lon="16.3026233"><ele>1124.8333333333335</ele><time>2026-04-09T10:41:47.224Z</time></trkpt><trkpt lat="38.4300433" lon="16.3026533"><ele>1125.6666666666667</ele><time>2026-04-09T10:41:48.224Z</time></trkpt><trkpt lat="38.4301017" lon="16.3026867"><ele>1126.5</ele><time>2026-04-09T10:41:49.223Z</time></trkpt><trkpt lat="38.4302067" lon="16.302735"><ele>1127.3333333333333</ele><time>2026-04-09T10:41:51.224Z</time></trkpt><trkpt lat="38.4303267" lon="16.3027733"><ele>1128.1666666666665</ele><time>2026-04-09T10:41:53.224Z</time></trkpt><trkpt lat="38.4303867" lon="16.3027983"><ele>1129.0</ele><time>2026-04-09T10:41:54.224Z</time></trkpt><trkpt lat="38.43045" lon="16.3028283"><ele>1129.0</ele><time>2026-04-09T10:41:55.224Z</time></trkpt><trkpt lat="38.4305283" lon="16.30288"><ele>1129.0</ele><time>2026-04-09T10:41:56.224Z</time></trkpt><trkpt lat="38.4306417" lon="16.3028533"><ele>1129.0</ele><time>2026-04-09T10:41:58.223Z</time></trkpt><trkpt lat="38.430695" lon="16.3027317"><ele>1129.0</ele><time>2026-04-09T10:42:00.224Z</time></trkpt><trkpt lat="38.4307117" lon="16.3026367"><ele>1129.0</ele><time>2026-04-09T10:42:01.224Z</time></trkpt><trkpt lat="38.43072" lon="16.302535"><ele>1129.0</ele><time>2026-04-09T10:42:02.224Z</time></trkpt><trkpt lat="38.4307283" lon="16.302415"><ele>1129.0</ele><time>2026-04-09T10:42:03.224Z</time></trkpt><trkpt lat="38.4307367" lon="16.3022717"><ele>1129.0</ele><time>2026-04-09T10:42:04.224Z</time></trkpt><trkpt lat="38.4307467" lon="16.3021233"><ele>1129.0</ele><time>2026-04-09T10:42:05.224Z</time></trkpt><trkpt lat="38.4307417" lon="16.3019933"><ele>1129.0</ele><time>2026-04-09T10:42:06.224Z</time></trkpt><trkpt lat="38.4307417" lon="16.3018533"><ele>1127.4</ele><time>2026-04-09T10:42:07.224Z</time></trkpt><trkpt lat="38.430745" lon="16.3017183"><ele>1125.8000000000002</ele><time>2026-04-09T10:42:08.224Z</time></trkpt><trkpt lat="38.4307417" lon="16.3015767"><ele>1124.1999999999998</ele><time>2026-04-09T10:42:09.224Z</time></trkpt><trkpt lat="38.4307383" lon="16.301435"><ele>1122.6</ele><time>2026-04-09T10:42:10.224Z</time></trkpt><trkpt lat="38.4307333" lon="16.3012933"><ele>1121.0</ele><time>2026-04-09T10:42:11.224Z</time></trkpt><trkpt lat="38.4307317" lon="16.301155"><ele>1119.8</ele><time>2026-04-09T10:42:12.223Z</time></trkpt><trkpt lat="38.43073" lon="16.3010267"><ele>1118.6</ele><time>2026-04-09T10:42:13.224Z</time></trkpt><trkpt lat="38.4307067" lon="16.3009117"><ele>1117.4</ele><time>2026-04-09T10:42:14.224Z</time></trkpt><trkpt lat="38.430715" lon="16.3008183"><ele>1116.2</ele><time>2026-04-09T10:42:15.224Z</time></trkpt><trkpt lat="38.4307367" lon="16.300735"><ele>1115.0</ele><time>2026-04-09T10:42:16.224Z</time></trkpt><trkpt lat="38.4308417" lon="16.3006417"><ele>1115.0</ele><time>2026-04-09T10:42:18.224Z</time></trkpt><trkpt lat="38.4309183" lon="16.3005983"><ele>1115.0</ele><time>2026-04-09T10:42:19.224Z</time></trkpt><trkpt lat="38.430995" lon="16.3005517"><ele>1115.0</ele><time>2026-04-09T10:42:20.224Z</time></trkpt><trkpt lat="38.4310817" lon="16.3005183"><ele>1115.0</ele><time>2026-04-09T10:42:21.224Z</time></trkpt><trkpt lat="38.4311667" lon="16.3004867"><ele>1115.0</ele><time>2026-04-09T10:42:22.224Z</time></trkpt><trkpt lat="38.4312483" lon="16.300455"><ele>1115.0</ele><time>2026-04-09T10:42:23.224Z</time></trkpt><trkpt lat="38.43135" lon="16.3004317"><ele>1118.5</ele><time>2026-04-09T10:42:24.223Z</time></trkpt><trkpt lat="38.43146" lon="16.3004067"><ele>1122.0</ele><time>2026-04-09T10:42:25.224Z</time></trkpt><trkpt lat="38.4315733" lon="16.3003783"><ele>1125.5</ele><time>2026-04-09T10:42:26.224Z</time></trkpt><trkpt lat="38.43169" lon="16.3003583"><ele>1129.0</ele><time>2026-04-09T10:42:27.224Z</time></trkpt><trkpt lat="38.4317983" lon="16.3003267"><ele>1129.0</ele><time>2026-04-09T10:42:28.224Z</time></trkpt><trkpt lat="38.4319017" lon="16.3002817"><ele>1129.0</ele><time>2026-04-09T10:42:29.224Z</time></trkpt><trkpt lat="38.431985" lon="16.3002183"><ele>1129.0</ele><time>2026-04-09T10:42:30.224Z</time></trkpt><trkpt lat="38.4320617" lon="16.3001433"><ele>1129.0</ele><time>2026-04-09T10:42:31.224Z</time></trkpt><trkpt lat="38.43214" lon="16.3000533"><ele>1129.0</ele><time>2026-04-09T10:42:32.224Z</time></trkpt><trkpt lat="38.4322083" lon="16.2999533"><ele>1128.5</ele><time>2026-04-09T10:42:33.224Z</time></trkpt><trkpt lat="38.4322783" lon="16.29985"><ele>1128.0</ele><time>2026-04-09T10:42:34.223Z</time></trkpt><trkpt lat="38.43235" lon="16.29974"><ele>1127.5</ele><time>2026-04-09T10:42:35.224Z</time></trkpt><trkpt lat="38.43243" lon="16.29964"><ele>1127.0</ele><time>2026-04-09T10:42:36.223Z</time></trkpt><trkpt lat="38.4325217" lon="16.299535"><ele>1127.0</ele><time>2026-04-09T10:42:37.224Z</time></trkpt><trkpt lat="38.4326133" lon="16.29943"><ele>1127.0</ele><time>2026-04-09T10:42:38.224Z</time></trkpt><trkpt lat="38.432715" lon="16.299325"><ele>1127.0</ele><time>2026-04-09T10:42:39.224Z</time></trkpt><trkpt lat="38.4328167" lon="16.29923"><ele>1127.0</ele><time>2026-04-09T10:42:40.224Z</time></trkpt><trkpt lat="38.4329283" lon="16.2991433"><ele>1126.0</ele><time>2026-04-09T10:42:41.224Z</time></trkpt><trkpt lat="38.433045" lon="16.29905"><ele>1125.0</ele><time>2026-04-09T10:42:42.224Z</time></trkpt><trkpt lat="38.4331683" lon="16.29896"><ele>1124.0</ele><time>2026-04-09T10:42:43.224Z</time></trkpt><trkpt lat="38.4332983" lon="16.2988617"><ele>1123.0</ele><time>2026-04-09T10:42:44.224Z</time></trkpt><trkpt lat="38.433425" lon="16.29877"><ele>1122.5</ele><time>2026-04-09T10:42:45.223Z</time></trkpt><trkpt lat="38.433545" lon="16.2986717"><ele>1122.0</ele><time>2026-04-09T10:42:46.223Z</time></trkpt><trkpt lat="38.4336717" lon="16.2985717"><ele>1121.5</ele><time>2026-04-09T10:42:47.224Z</time></trkpt><trkpt lat="38.43379" lon="16.2984783"><ele>1121.0</ele><time>2026-04-09T10:42:48.223Z</time></trkpt><trkpt lat="38.4338983" lon="16.2983917"><ele>1121.0</ele><time>2026-04-09T10:42:49.224Z</time></trkpt><trkpt lat="38.4339983" lon="16.2983133"><ele>1121.0</ele><time>2026-04-09T10:42:50.224Z</time></trkpt><trkpt lat="38.4340867" lon="16.298235"><ele>1121.0</ele><time>2026-04-09T10:42:51.224Z</time></trkpt><trkpt lat="38.4341583" lon="16.2981483"><ele>1121.0</ele><time>2026-04-09T10:42:52.224Z</time></trkpt><trkpt lat="38.434225" lon="16.2980483"><ele>1121.0</ele><time>2026-04-09T10:42:53.223Z</time></trkpt><trkpt lat="38.4342767" lon="16.29793"><ele>1119.5</ele><time>2026-04-09T10:42:54.224Z</time></trkpt><trkpt lat="38.4343167" lon="16.2978033"><ele>1118.0</ele><time>2026-04-09T10:42:55.224Z</time></trkpt><trkpt lat="38.4343517" lon="16.2976567"><ele>1116.5</ele><time>2026-04-09T10:42:56.224Z</time></trkpt><trkpt lat="38.4343817" lon="16.2975183"><ele>1115.0</ele><time>2026-04-09T10:42:57.224Z</time></trkpt><trkpt lat="38.434415" lon="16.2973733"><ele>1115.0</ele><time>2026-04-09T10:42:58.224Z</time></trkpt><trkpt lat="38.4344483" lon="16.2972533"><ele>1115.0</ele><time>2026-04-09T10:42:59.224Z</time></trkpt><trkpt lat="38.43449" lon="16.2971417"><ele>1115.0</ele><time>2026-04-09T10:43:00.224Z</time></trkpt><trkpt lat="38.4345267" lon="16.2970183"><ele>1115.0</ele><time>2026-04-09T10:43:01.223Z</time></trkpt><trkpt lat="38.4345633" lon="16.2969083"><ele>1115.0</ele><time>2026-04-09T10:43:02.224Z</time></trkpt><trkpt lat="38.434595" lon="16.296805"><ele>1114.5</ele><time>2026-04-09T10:43:03.224Z</time></trkpt><trkpt lat="38.434635" lon="16.2967067"><ele>1114.0</ele><time>2026-04-09T10:43:04.224Z</time></trkpt><trkpt lat="38.4346783" lon="16.29661"><ele>1113.5</ele><time>2026-04-09T10:43:05.224Z</time></trkpt><trkpt lat="38.43473" lon="16.2965283"><ele>1113.0</ele><time>2026-04-09T10:43:06.224Z</time></trkpt><trkpt lat="38.43479" lon="16.2964533"><ele>1112.5</ele><time>2026-04-09T10:43:07.224Z</time></trkpt><trkpt lat="38.4348517" lon="16.29638"><ele>1112.0</ele><time>2026-04-09T10:43:08.224Z</time></trkpt><trkpt lat="38.4349283" lon="16.2963183"><ele>1114.25</ele><time>2026-04-09T10:43:09.224Z</time></trkpt><trkpt lat="38.435015" lon="16.29625"><ele>1116.5</ele><time>2026-04-09T10:43:10.224Z</time></trkpt><trkpt lat="38.435115" lon="16.2961883"><ele>1118.75</ele><time>2026-04-09T10:43:11.224Z</time></trkpt><trkpt lat="38.4352117" lon="16.2961117"><ele>1121.0</ele><time>2026-04-09T10:43:12.224Z</time></trkpt><trkpt lat="38.4353267" lon="16.296035"><ele>1121.0</ele><time>2026-04-09T10:43:13.224Z</time></trkpt><trkpt lat="38.4354383" lon="16.2959467"><ele>1121.0</ele><time>2026-04-09T10:43:14.224Z</time></trkpt><trkpt lat="38.43555" lon="16.2958633"><ele>1121.0</ele><time>2026-04-09T10:43:15.224Z</time></trkpt><trkpt lat="38.4356567" lon="16.29578"><ele>1121.0</ele><time>2026-04-09T10:43:16.224Z</time></trkpt><trkpt lat="38.4357733" lon="16.295695"><ele>1121.0</ele><time>2026-04-09T10:43:17.224Z</time></trkpt><trkpt lat="38.435885" lon="16.295615"><ele>1121.0</ele><time>2026-04-09T10:43:18.224Z</time></trkpt><trkpt lat="38.4360033" lon="16.2955283"><ele>1121.0</ele><time>2026-04-09T10:43:19.224Z</time></trkpt><trkpt lat="38.4361083" lon="16.29545"><ele>1121.0</ele><time>2026-04-09T10:43:20.224Z</time></trkpt><trkpt lat="38.4362083" lon="16.2953783"><ele>1122.6</ele><time>2026-04-09T10:43:21.224Z</time></trkpt><trkpt lat="38.4363067" lon="16.295305"><ele>1124.1999999999998</ele><time>2026-04-09T10:43:22.224Z</time></trkpt><trkpt lat="38.4363867" lon="16.2952417"><ele>1125.8000000000002</ele><time>2026-04-09T10:43:23.224Z</time></trkpt><trkpt lat="38.43646" lon="16.2951833"><ele>1127.4</ele><time>2026-04-09T10:43:24.224Z</time></trkpt><trkpt lat="38.4365267" lon="16.2951317"><ele>1129.0</ele><time>2026-04-09T10:43:25.224Z</time></trkpt><trkpt lat="38.4365983" lon="16.2950883"><ele>1129.0</ele><time>2026-04-09T10:43:26.224Z</time></trkpt><trkpt lat="38.4366717" lon="16.2950533"><ele>1129.0</ele><time>2026-04-09T10:43:27.224Z</time></trkpt><trkpt lat="38.4367483" lon="16.2950267"><ele>1129.0</ele><time>2026-04-09T10:43:28.224Z</time></trkpt><trkpt lat="38.4368233" lon="16.295015"><ele>1129.0</ele><time>2026-04-09T10:43:29.224Z</time></trkpt><trkpt lat="38.4368983" lon="16.2950067"><ele>1129.0</ele><time>2026-04-09T10:43:30.223Z</time></trkpt><trkpt lat="38.4369783" lon="16.295"><ele>1129.0</ele><time>2026-04-09T10:43:31.223Z</time></trkpt><trkpt lat="38.4370467" lon="16.2949933"><ele>1129.0</ele><time>2026-04-09T10:43:32.224Z</time></trkpt><trkpt lat="38.4371267" lon="16.2949833"><ele>1129.0</ele><time>2026-04-09T10:43:33.224Z</time></trkpt><trkpt lat="38.4372133" lon="16.2949733"><ele>1129.0</ele><time>2026-04-09T10:43:34.224Z</time></trkpt><trkpt lat="38.4372967" lon="16.294965"><ele>1129.0</ele><time>2026-04-09T10:43:35.224Z</time></trkpt><trkpt lat="38.4373933" lon="16.2949633"><ele>1129.0</ele><time>2026-04-09T10:43:36.224Z</time></trkpt><trkpt lat="38.4374833" lon="16.2949567"><ele>1129.0</ele><time>2026-04-09T10:43:37.223Z</time></trkpt><trkpt lat="38.4375817" lon="16.2949383"><ele>1130.6000000000001</ele><time>2026-04-09T10:43:38.224Z</time></trkpt><trkpt lat="38.4376967" lon="16.2949233"><ele>1132.2</ele><time>2026-04-09T10:43:39.224Z</time></trkpt><trkpt lat="38.4377983" lon="16.2948983"><ele>1133.8000000000002</ele><time>2026-04-09T10:43:40.224Z</time></trkpt><trkpt lat="38.4379067" lon="16.2948567"><ele>1135.4</ele><time>2026-04-09T10:43:41.223Z</time></trkpt><trkpt lat="38.4379883" lon="16.2948117"><ele>1137.0</ele><time>2026-04-09T10:43:42.224Z</time></trkpt><trkpt lat="38.438065" lon="16.29475"><ele>1137.0</ele><time>2026-04-09T10:43:43.224Z</time></trkpt><trkpt lat="38.438135" lon="16.2946667"><ele>1137.0</ele><time>2026-04-09T10:43:44.224Z</time></trkpt><trkpt lat="38.4381967" lon="16.2945883"><ele>1137.0</ele><time>2026-04-09T10:43:45.224Z</time></trkpt><trkpt lat="38.4382517" lon="16.2945"><ele>1137.0</ele><time>2026-04-09T10:43:46.224Z</time></trkpt><trkpt lat="38.4383067" lon="16.294405"><ele>1137.0</ele><time>2026-04-09T10:43:47.224Z</time></trkpt><trkpt lat="38.4383717" lon="16.29431"><ele>1137.0</ele><time>2026-04-09T10:43:48.224Z</time></trkpt><trkpt lat="38.43844" lon="16.294205"><ele>1137.0</ele><time>2026-04-09T10:43:49.224Z</time></trkpt><trkpt lat="38.4385" lon="16.29409"><ele>1137.0</ele><time>2026-04-09T10:43:50.224Z</time></trkpt><trkpt lat="38.4385467" lon="16.2939683"><ele>1137.0</ele><time>2026-04-09T10:43:51.224Z</time></trkpt><trkpt lat="38.4385783" lon="16.2938533"><ele>1137.0</ele><time>2026-04-09T10:43:52.224Z</time></trkpt><trkpt lat="38.4385933" lon="16.2937367"><ele>1138.0</ele><time>2026-04-09T10:43:53.224Z</time></trkpt><trkpt lat="38.4385917" lon="16.2936183"><ele>1139.0</ele><time>2026-04-09T10:43:54.224Z</time></trkpt><trkpt lat="38.4385883" lon="16.2934967"><ele>1140.0</ele><time>2026-04-09T10:43:55.224Z</time></trkpt><trkpt lat="38.4385783" lon="16.2933883"><ele>1141.0</ele><time>2026-04-09T10:43:56.224Z</time></trkpt><trkpt lat="38.4385767" lon="16.293285"><ele>1142.0</ele><time>2026-04-09T10:43:57.224Z</time></trkpt><trkpt lat="38.4385783" lon="16.2931817"><ele>1143.0</ele><time>2026-04-09T10:43:58.224Z</time></trkpt><trkpt lat="38.4385783" lon="16.293085"><ele>1143.5714285714284</ele><time>2026-04-09T10:43:59.224Z</time></trkpt><trkpt lat="38.4385767" lon="16.292995"><ele>1144.142857142857</ele><time>2026-04-09T10:44:00.224Z</time></trkpt><trkpt lat="38.43857" lon="16.2929067"><ele>1144.7142857142858</ele><time>2026-04-09T10:44:01.224Z</time></trkpt><trkpt lat="38.43856" lon="16.2928233"><ele>1145.2857142857142</ele><time>2026-04-09T10:44:02.223Z</time></trkpt><trkpt lat="38.4385483" lon="16.292735"><ele>1145.857142857143</ele><time>2026-04-09T10:44:03.224Z</time></trkpt><trkpt lat="38.4385433" lon="16.2926417"><ele>1146.4285714285713</ele><time>2026-04-09T10:44:04.224Z</time></trkpt><trkpt lat="38.4385417" lon="16.2925267"><ele>1147.0</ele><time>2026-04-09T10:44:05.224Z</time></trkpt><trkpt lat="38.4385433" lon="16.29239"><ele>1147.6</ele><time>2026-04-09T10:44:06.224Z</time></trkpt><trkpt lat="38.4385433" lon="16.2922517"><ele>1148.2</ele><time>2026-04-09T10:44:07.224Z</time></trkpt><trkpt lat="38.43854" lon="16.29211"><ele>1148.8</ele><time>2026-04-09T10:44:08.224Z</time></trkpt><trkpt lat="38.4385383" lon="16.2919717"><ele>1149.4</ele><time>2026-04-09T10:44:09.224Z</time></trkpt><trkpt lat="38.43854" lon="16.2918533"><ele>1150.0</ele><time>2026-04-09T10:44:10.224Z</time></trkpt><trkpt lat="38.4385383" lon="16.2917383"><ele>1150.0</ele><time>2026-04-09T10:44:11.223Z</time></trkpt><trkpt lat="38.4385367" lon="16.2916333"><ele>1150.0</ele><time>2026-04-09T10:44:12.224Z</time></trkpt><trkpt lat="38.4385333" lon="16.29153"><ele>1150.0</ele><time>2026-04-09T10:44:13.223Z</time></trkpt><trkpt lat="38.43853" lon="16.2914433"><ele>1150.0</ele><time>2026-04-09T10:44:14.224Z</time></trkpt><trkpt lat="38.438535" lon="16.291305"><ele>1150.0</ele><time>2026-04-09T10:44:16.224Z</time></trkpt><trkpt lat="38.4385633" lon="16.2911733"><ele>1150.0</ele><time>2026-04-09T10:44:18.224Z</time></trkpt><trkpt lat="38.438595" lon="16.29103"><ele>1150.5</ele><time>2026-04-09T10:44:20.224Z</time></trkpt><trkpt lat="38.4386333" lon="16.2908917"><ele>1151.0</ele><time>2026-04-09T10:44:22.224Z</time></trkpt><trkpt lat="38.4386817" lon="16.29074"><ele>1151.5</ele><time>2026-04-09T10:44:24.224Z</time></trkpt><trkpt lat="38.4387217" lon="16.2905917"><ele>1152.0</ele><time>2026-04-09T10:44:26.224Z</time></trkpt><trkpt lat="38.43875" lon="16.2904467"><ele>1152.5</ele><time>2026-04-09T10:44:28.224Z</time></trkpt><trkpt lat="38.4387683" lon="16.29036"><ele>1153.0</ele><time>2026-04-09T10:44:29.224Z</time></trkpt><trkpt lat="38.43879" lon="16.2902517"><ele>1153.5</ele><time>2026-04-09T10:44:30.224Z</time></trkpt><trkpt lat="38.43881" lon="16.2901467"><ele>1154.0</ele><time>2026-04-09T10:44:31.224Z</time></trkpt><trkpt lat="38.438845" lon="16.2900433"><ele>1154.5</ele><time>2026-04-09T10:44:32.224Z</time></trkpt><trkpt lat="38.4388867" lon="16.2899283"><ele>1155.0</ele><time>2026-04-09T10:44:33.223Z</time></trkpt><trkpt lat="38.4389367" lon="16.2898483"><ele>1155.5</ele><time>2026-04-09T10:44:34.224Z</time></trkpt><trkpt lat="38.4389933" lon="16.2897833"><ele>1156.0</ele><time>2026-04-09T10:44:35.224Z</time></trkpt><trkpt lat="38.4390483" lon="16.2897217"><ele>1156.5</ele><time>2026-04-09T10:44:36.224Z</time></trkpt><trkpt lat="38.4391017" lon="16.2896567"><ele>1157.0</ele><time>2026-04-09T10:44:37.224Z</time></trkpt><trkpt lat="38.43915" lon="16.2896017"><ele>1157.5</ele><time>2026-04-09T10:44:38.224Z</time></trkpt><trkpt lat="38.439245" lon="16.289455"><ele>1158.0</ele><time>2026-04-09T10:44:40.224Z</time></trkpt><trkpt lat="38.4393033" lon="16.2893633"><ele>1158.2</ele><time>2026-04-09T10:44:41.224Z</time></trkpt><trkpt lat="38.4393533" lon="16.289275"><ele>1158.4</ele><time>2026-04-09T10:44:42.223Z</time></trkpt><trkpt lat="38.4393983" lon="16.2891833"><ele>1158.6000000000001</ele><time>2026-04-09T10:44:43.224Z</time></trkpt><trkpt lat="38.4394467" lon="16.2890817"><ele>1158.8</ele><time>2026-04-09T10:44:44.224Z</time></trkpt><trkpt lat="38.4394917" lon="16.2889733"><ele>1159.0</ele><time>2026-04-09T10:44:45.224Z</time></trkpt><trkpt lat="38.4395267" lon="16.288855"><ele>1157.2</ele><time>2026-04-09T10:44:46.224Z</time></trkpt><trkpt lat="38.4395567" lon="16.28874"><ele>1155.4</ele><time>2026-04-09T10:44:47.224Z</time></trkpt><trkpt lat="38.4395767" lon="16.288625"><ele>1153.6</ele><time>2026-04-09T10:44:48.224Z</time></trkpt><trkpt lat="38.4395917" lon="16.28851"><ele>1151.8</ele><time>2026-04-09T10:44:49.224Z</time></trkpt><trkpt lat="38.439595" lon="16.2883967"><ele>1150.0</ele><time>2026-04-09T10:44:50.224Z</time></trkpt><trkpt lat="38.4395917" lon="16.28829"><ele>1150.0</ele><time>2026-04-09T10:44:51.224Z</time></trkpt><trkpt lat="38.4395833" lon="16.288185"><ele>1150.0</ele><time>2026-04-09T10:44:52.224Z</time></trkpt><trkpt lat="38.4395767" lon="16.2880683"><ele>1150.0</ele><time>2026-04-09T10:44:53.223Z</time></trkpt><trkpt lat="38.4395683" lon="16.287955"><ele>1150.0</ele><time>2026-04-09T10:44:54.224Z</time></trkpt><trkpt lat="38.4395567" lon="16.287845"><ele>1150.0</ele><time>2026-04-09T10:44:55.224Z</time></trkpt><trkpt lat="38.4395433" lon="16.2877367"><ele>1150.0</ele><time>2026-04-09T10:44:56.223Z</time></trkpt><trkpt lat="38.4395317" lon="16.2876367"><ele>1150.1666666666665</ele><time>2026-04-09T10:44:57.224Z</time></trkpt><trkpt lat="38.4395017" lon="16.2875417"><ele>1150.3333333333333</ele><time>2026-04-09T10:44:58.224Z</time></trkpt><trkpt lat="38.4394633" lon="16.2874367"><ele>1150.5</ele><time>2026-04-09T10:44:59.224Z</time></trkpt><trkpt lat="38.4394267" lon="16.2873533"><ele>1150.6666666666667</ele><time>2026-04-09T10:45:00.224Z</time></trkpt><trkpt lat="38.4394" lon="16.28728"><ele>1150.8333333333335</ele><time>2026-04-09T10:45:01.224Z</time></trkpt><trkpt lat="38.4393767" lon="16.2872"><ele>1151.0</ele><time>2026-04-09T10:45:02.224Z</time></trkpt><trkpt lat="38.43935" lon="16.2871083"><ele>1150.7142857142856</ele><time>2026-04-09T10:45:03.224Z</time></trkpt><trkpt lat="38.439325" lon="16.2870167"><ele>1150.4285714285713</ele><time>2026-04-09T10:45:04.224Z</time></trkpt><trkpt lat="38.4393133" lon="16.2869283"><ele>1150.142857142857</ele><time>2026-04-09T10:45:05.224Z</time></trkpt><trkpt lat="38.4393083" lon="16.2868383"><ele>1149.8571428571427</ele><time>2026-04-09T10:45:06.223Z</time></trkpt><trkpt lat="38.439315" lon="16.286755"><ele>1149.5714285714284</ele><time>2026-04-09T10:45:07.224Z</time></trkpt><trkpt lat="38.4393383" lon="16.2866783"><ele>1149.2857142857142</ele><time>2026-04-09T10:45:08.224Z</time></trkpt><trkpt lat="38.4393817" lon="16.286605"><ele>1149.0</ele><time>2026-04-09T10:45:09.224Z</time></trkpt><trkpt lat="38.4394283" lon="16.2865283"><ele>1149.0</ele><time>2026-04-09T10:45:10.224Z</time></trkpt><trkpt lat="38.43949" lon="16.2864567"><ele>1149.0</ele><time>2026-04-09T10:45:11.224Z</time></trkpt><trkpt lat="38.4395483" lon="16.2863833"><ele>1149.0</ele><time>2026-04-09T10:45:12.224Z</time></trkpt><trkpt lat="38.4396017" lon="16.2863133"><ele>1149.0</ele><time>2026-04-09T10:45:13.224Z</time></trkpt><trkpt lat="38.4396567" lon="16.28624"><ele>1149.0</ele><time>2026-04-09T10:45:14.224Z</time></trkpt><trkpt lat="38.4397" lon="16.2861767"><ele>1149.0</ele><time>2026-04-09T10:45:15.224Z</time></trkpt><trkpt lat="38.439745" lon="16.2860317"><ele>1149.4</ele><time>2026-04-09T10:45:17.224Z</time></trkpt><trkpt lat="38.4397633" lon="16.2858717"><ele>1149.8000000000002</ele><time>2026-04-09T10:45:19.224Z</time></trkpt><trkpt lat="38.439775" lon="16.2857867"><ele>1150.1999999999998</ele><time>2026-04-09T10:45:20.224Z</time></trkpt><trkpt lat="38.4398" lon="16.2856833"><ele>1150.6</ele><time>2026-04-09T10:45:21.224Z</time></trkpt><trkpt lat="38.4398217" lon="16.28555"><ele>1151.0</ele><time>2026-04-09T10:45:22.224Z</time></trkpt><trkpt lat="38.4398533" lon="16.28542"><ele>1151.0</ele><time>2026-04-09T10:45:23.224Z</time></trkpt><trkpt lat="38.4398933" lon="16.2853"><ele>1151.0</ele><time>2026-04-09T10:45:24.224Z</time></trkpt><trkpt lat="38.43994" lon="16.285185"><ele>1151.0</ele><time>2026-04-09T10:45:25.224Z</time></trkpt><trkpt lat="38.43999" lon="16.2850817"><ele>1151.0</ele><time>2026-04-09T10:45:26.224Z</time></trkpt><trkpt lat="38.4400483" lon="16.2849883"><ele>1151.0</ele><time>2026-04-09T10:45:27.224Z</time></trkpt><trkpt lat="38.440105" lon="16.2848983"><ele>1151.0</ele><time>2026-04-09T10:45:28.224Z</time></trkpt><trkpt lat="38.440155" lon="16.2848067"><ele>1151.0</ele><time>2026-04-09T10:45:29.224Z</time></trkpt><trkpt lat="38.4401867" lon="16.28469"><ele>1151.0</ele><time>2026-04-09T10:45:30.223Z</time></trkpt><trkpt lat="38.4401967" lon="16.2845333"><ele>1151.0</ele><time>2026-04-09T10:45:31.224Z</time></trkpt><trkpt lat="38.44019" lon="16.2843433"><ele>1150.0</ele><time>2026-04-09T10:45:32.224Z</time></trkpt><trkpt lat="38.4401667" lon="16.2841433"><ele>1149.0</ele><time>2026-04-09T10:45:33.224Z</time></trkpt><trkpt lat="38.440125" lon="16.2839233"><ele>1148.0</ele><time>2026-04-09T10:45:34.224Z</time></trkpt><trkpt lat="38.4400667" lon="16.2836983"><ele>1147.6666666666667</ele><time>2026-04-09T10:45:35.224Z</time></trkpt><trkpt lat="38.4400067" lon="16.2834517"><ele>1147.3333333333333</ele><time>2026-04-09T10:45:36.224Z</time></trkpt><trkpt lat="38.4399317" lon="16.28319"><ele>1147.0</ele><time>2026-04-09T10:45:37.224Z</time></trkpt><trkpt lat="38.4398467" lon="16.282925"><ele>1147.0</ele><time>2026-04-09T10:45:38.224Z</time></trkpt><trkpt lat="38.4397583" lon="16.2826833"><ele>1147.0</ele><time>2026-04-09T10:45:39.224Z</time></trkpt><trkpt lat="38.4396667" lon="16.2824567"><ele>1147.0</ele><time>2026-04-09T10:45:40.224Z</time></trkpt><trkpt lat="38.4395617" lon="16.282235"><ele>1150.5</ele><time>2026-04-09T10:45:41.224Z</time></trkpt><trkpt lat="38.4394967" lon="16.2820267"><ele>1154.0</ele><time>2026-04-09T10:45:42.224Z</time></trkpt><trkpt lat="38.439465" lon="16.2818733"><ele>1157.5</ele><time>2026-04-09T10:45:43.224Z</time></trkpt><trkpt lat="38.4394617" lon="16.2817433"><ele>1161.0</ele><time>2026-04-09T10:45:44.224Z</time></trkpt><trkpt lat="38.43948" lon="16.2816267"><ele>1161.0</ele><time>2026-04-09T10:45:45.224Z</time></trkpt><trkpt lat="38.4395233" lon="16.28151"><ele>1161.0</ele><time>2026-04-09T10:45:46.224Z</time></trkpt><trkpt lat="38.4395733" lon="16.2813967"><ele>1161.0</ele><time>2026-04-09T10:45:47.224Z</time></trkpt><trkpt lat="38.43963" lon="16.2812883"><ele>1161.0</ele><time>2026-04-09T10:45:48.224Z</time></trkpt><trkpt lat="38.4396917" lon="16.2811683"><ele>1161.0</ele><time>2026-04-09T10:45:49.224Z</time></trkpt><trkpt lat="38.4397367" lon="16.2810517"><ele>1161.3999999999999</ele><time>2026-04-09T10:45:50.224Z</time></trkpt><trkpt lat="38.4397767" lon="16.2809383"><ele>1161.8</ele><time>2026-04-09T10:45:51.223Z</time></trkpt><trkpt lat="38.4398117" lon="16.2808183"><ele>1162.1999999999998</ele><time>2026-04-09T10:45:52.224Z</time></trkpt><trkpt lat="38.4398517" lon="16.2806967"><ele>1162.6</ele><time>2026-04-09T10:45:53.224Z</time></trkpt><trkpt lat="38.4398967" lon="16.2805717"><ele>1163.0</ele><time>2026-04-09T10:45:54.223Z</time></trkpt><trkpt lat="38.4399433" lon="16.280445"><ele>1163.0</ele><time>2026-04-09T10:45:55.223Z</time></trkpt><trkpt lat="38.4399783" lon="16.2803083"><ele>1163.0</ele><time>2026-04-09T10:45:56.223Z</time></trkpt><trkpt lat="38.4400017" lon="16.2801767"><ele>1163.0</ele><time>2026-04-09T10:45:57.224Z</time></trkpt><trkpt lat="38.4400133" lon="16.280065"><ele>1163.0</ele><time>2026-04-09T10:45:58.223Z</time></trkpt><trkpt lat="38.44001" lon="16.279965"><ele>1163.0</ele><time>2026-04-09T10:45:59.224Z</time></trkpt><trkpt lat="38.4399767" lon="16.279865"><ele>1163.0</ele><time>2026-04-09T10:46:00.224Z</time></trkpt><trkpt lat="38.4399183" lon="16.279775"><ele>1163.0</ele><time>2026-04-09T10:46:01.223Z</time></trkpt><trkpt lat="38.4398617" lon="16.279675"><ele>1163.0</ele><time>2026-04-09T10:46:02.224Z</time></trkpt><trkpt lat="38.43982" lon="16.2795617"><ele>1163.0</ele><time>2026-04-09T10:46:03.224Z</time></trkpt><trkpt lat="38.4397967" lon="16.2794533"><ele>1163.0</ele><time>2026-04-09T10:46:04.224Z</time></trkpt><trkpt lat="38.43979" lon="16.279335"><ele>1162.4</ele><time>2026-04-09T10:46:05.224Z</time></trkpt><trkpt lat="38.4397917" lon="16.2792167"><ele>1161.8</ele><time>2026-04-09T10:46:06.224Z</time></trkpt><trkpt lat="38.4398133" lon="16.27908"><ele>1161.2</ele><time>2026-04-09T10:46:07.224Z</time></trkpt><trkpt lat="38.4398433" lon="16.2789533"><ele>1160.6</ele><time>2026-04-09T10:46:08.224Z</time></trkpt><trkpt lat="38.4398867" lon="16.2788367"><ele>1160.0</ele><time>2026-04-09T10:46:09.224Z</time></trkpt><trkpt lat="38.439945" lon="16.2787283"><ele>1161.5</ele><time>2026-04-09T10:46:10.224Z</time></trkpt><trkpt lat="38.4400133" lon="16.27865"><ele>1163.0</ele><time>2026-04-09T10:46:11.224Z</time></trkpt><trkpt lat="38.4400783" lon="16.2785867"><ele>1164.5</ele><time>2026-04-09T10:46:12.223Z</time></trkpt><trkpt lat="38.4401433" lon="16.278535"><ele>1166.0</ele><time>2026-04-09T10:46:13.224Z</time></trkpt><trkpt lat="38.440215" lon="16.2785083"><ele>1167.5</ele><time>2026-04-09T10:46:14.224Z</time></trkpt><trkpt lat="38.440295" lon="16.2784983"><ele>1169.0</ele><time>2026-04-09T10:46:15.224Z</time></trkpt><trkpt lat="38.4403883" lon="16.2785"><ele>1166.2</ele><time>2026-04-09T10:46:16.224Z</time></trkpt><trkpt lat="38.4404883" lon="16.2785317"><ele>1163.4</ele><time>2026-04-09T10:46:17.224Z</time></trkpt><trkpt lat="38.440595" lon="16.2785567"><ele>1160.6</ele><time>2026-04-09T10:46:18.224Z</time></trkpt><trkpt lat="38.4407167" lon="16.2785817"><ele>1157.8</ele><time>2026-04-09T10:46:19.224Z</time></trkpt><trkpt lat="38.44082" lon="16.27858"><ele>1155.0</ele><time>2026-04-09T10:46:20.224Z</time></trkpt><trkpt lat="38.44092" lon="16.278525"><ele>1155.0</ele><time>2026-04-09T10:46:21.224Z</time></trkpt><trkpt lat="38.4410233" lon="16.278445"><ele>1155.0</ele><time>2026-04-09T10:46:22.224Z</time></trkpt><trkpt lat="38.4411033" lon="16.2783583"><ele>1155.0</ele><time>2026-04-09T10:46:23.223Z</time></trkpt><trkpt lat="38.4411833" lon="16.2782783"><ele>1155.0</ele><time>2026-04-09T10:46:24.224Z</time></trkpt><trkpt lat="38.44126" lon="16.2782"><ele>1155.0</ele><time>2026-04-09T10:46:25.224Z</time></trkpt><trkpt lat="38.4413433" lon="16.2781433"><ele>1153.0</ele><time>2026-04-09T10:46:26.224Z</time></trkpt><trkpt lat="38.441425" lon="16.2780867"><ele>1151.0</ele><time>2026-04-09T10:46:27.224Z</time></trkpt><trkpt lat="38.4415067" lon="16.2780267"><ele>1149.0</ele><time>2026-04-09T10:46:28.224Z</time></trkpt><trkpt lat="38.4415833" lon="16.2779617"><ele>1147.0</ele><time>2026-04-09T10:46:29.224Z</time></trkpt><trkpt lat="38.4416483" lon="16.2778883"><ele>1145.0</ele><time>2026-04-09T10:46:30.223Z</time></trkpt><trkpt lat="38.4417017" lon="16.2778033"><ele>1145.0</ele><time>2026-04-09T10:46:31.224Z</time></trkpt><trkpt lat="38.4417433" lon="16.2777"><ele>1145.0</ele><time>2026-04-09T10:46:32.224Z</time></trkpt><trkpt lat="38.441765" lon="16.27757"><ele>1145.0</ele><time>2026-04-09T10:46:33.224Z</time></trkpt><trkpt lat="38.4417417" lon="16.2774067"><ele>1145.0</ele><time>2026-04-09T10:46:34.224Z</time></trkpt><trkpt lat="38.441715" lon="16.2772667"><ele>1145.0</ele><time>2026-04-09T10:46:35.223Z</time></trkpt><trkpt lat="38.44168" lon="16.2771133"><ele>1143.8</ele><time>2026-04-09T10:46:36.224Z</time></trkpt><trkpt lat="38.44163" lon="16.27699"><ele>1142.6</ele><time>2026-04-09T10:46:37.224Z</time></trkpt><trkpt lat="38.4415617" lon="16.2768783"><ele>1141.4</ele><time>2026-04-09T10:46:38.224Z</time></trkpt><trkpt lat="38.4414817" lon="16.2767767"><ele>1140.2</ele><time>2026-04-09T10:46:39.224Z</time></trkpt><trkpt lat="38.4414067" lon="16.276695"><ele>1139.0</ele><time>2026-04-09T10:46:40.223Z</time></trkpt><trkpt lat="38.44131" lon="16.2766483"><ele>1141.0</ele><time>2026-04-09T10:46:41.224Z</time></trkpt><trkpt lat="38.4412267" lon="16.2766233"><ele>1143.0</ele><time>2026-04-09T10:46:42.224Z</time></trkpt><trkpt lat="38.4411467" lon="16.2766217"><ele>1145.0</ele><time>2026-04-09T10:46:43.224Z</time></trkpt><trkpt lat="38.4410667" lon="16.2766383"><ele>1147.0</ele><time>2026-04-09T10:46:44.224Z</time></trkpt><trkpt lat="38.44097" lon="16.2766233"><ele>1149.0</ele><time>2026-04-09T10:46:46.224Z</time></trkpt><trkpt lat="38.4409667" lon="16.2765133"><ele>1151.0</ele><time>2026-04-09T10:46:49.224Z</time></trkpt><trkpt lat="38.4410117" lon="16.2764517"><ele>1151.0</ele><time>2026-04-09T10:46:50.224Z</time></trkpt><trkpt lat="38.4410633" lon="16.2763867"><ele>1151.0</ele><time>2026-04-09T10:46:51.224Z</time></trkpt><trkpt lat="38.44112" lon="16.2763167"><ele>1151.0</ele><time>2026-04-09T10:46:52.224Z</time></trkpt><trkpt lat="38.44118" lon="16.276245"><ele>1151.0</ele><time>2026-04-09T10:46:53.224Z</time></trkpt><trkpt lat="38.441245" lon="16.276155"><ele>1151.0</ele><time>2026-04-09T10:46:54.224Z</time></trkpt><trkpt lat="38.4413083" lon="16.2760517"><ele>1151.0</ele><time>2026-04-09T10:46:55.224Z</time></trkpt><trkpt lat="38.4413633" lon="16.2759517"><ele>1147.2</ele><time>2026-04-09T10:46:56.223Z</time></trkpt><trkpt lat="38.4414167" lon="16.2758533"><ele>1143.3999999999999</ele><time>2026-04-09T10:46:57.223Z</time></trkpt><trkpt lat="38.441475" lon="16.2757533"><ele>1139.6</ele><time>2026-04-09T10:46:58.223Z</time></trkpt><trkpt lat="38.4415417" lon="16.2756417"><ele>1135.8</ele><time>2026-04-09T10:46:59.224Z</time></trkpt><trkpt lat="38.441595" lon="16.2755467"><ele>1132.0</ele><time>2026-04-09T10:47:00.224Z</time></trkpt><trkpt lat="38.441635" lon="16.2754533"><ele>1131.6</ele><time>2026-04-09T10:47:01.224Z</time></trkpt><trkpt lat="38.4416717" lon="16.2753517"><ele>1131.2</ele><time>2026-04-09T10:47:02.224Z</time></trkpt><trkpt lat="38.4417017" lon="16.2752483"><ele>1130.8</ele><time>2026-04-09T10:47:03.224Z</time></trkpt><trkpt lat="38.44172" lon="16.27513"><ele>1130.4</ele><time>2026-04-09T10:47:04.224Z</time></trkpt><trkpt lat="38.4417483" lon="16.2750167"><ele>1130.0</ele><time>2026-04-09T10:47:05.224Z</time></trkpt><trkpt lat="38.4417733" lon="16.2749033"><ele>1130.0</ele><time>2026-04-09T10:47:06.224Z</time></trkpt><trkpt lat="38.4418117" lon="16.2748033"><ele>1130.0</ele><time>2026-04-09T10:47:07.223Z</time></trkpt><trkpt lat="38.44187" lon="16.27471"><ele>1130.0</ele><time>2026-04-09T10:47:08.224Z</time></trkpt><trkpt lat="38.4419267" lon="16.2746267"><ele>1130.0</ele><time>2026-04-09T10:47:09.224Z</time></trkpt><trkpt lat="38.4419967" lon="16.27455"><ele>1130.0</ele><time>2026-04-09T10:47:10.224Z</time></trkpt><trkpt lat="38.4420733" lon="16.2744783"><ele>1126.8</ele><time>2026-04-09T10:47:11.224Z</time></trkpt><trkpt lat="38.44214" lon="16.27438"><ele>1123.6</ele><time>2026-04-09T10:47:12.224Z</time></trkpt><trkpt lat="38.4422" lon="16.27428"><ele>1120.4</ele><time>2026-04-09T10:47:13.224Z</time></trkpt><trkpt lat="38.4422667" lon="16.2741817"><ele>1117.2</ele><time>2026-04-09T10:47:14.224Z</time></trkpt><trkpt lat="38.44233" lon="16.274085"><ele>1114.0</ele><time>2026-04-09T10:47:15.224Z</time></trkpt><trkpt lat="38.442395" lon="16.2740017"><ele>1113.4</ele><time>2026-04-09T10:47:16.224Z</time></trkpt><trkpt lat="38.4424583" lon="16.273915"><ele>1112.8000000000002</ele><time>2026-04-09T10:47:17.223Z</time></trkpt><trkpt lat="38.44252" lon="16.2738183"><ele>1112.1999999999998</ele><time>2026-04-09T10:47:18.224Z</time></trkpt><trkpt lat="38.4425867" lon="16.2737217"><ele>1111.6</ele><time>2026-04-09T10:47:19.224Z</time></trkpt><trkpt lat="38.4426533" lon="16.27363"><ele>1111.0</ele><time>2026-04-09T10:47:20.223Z</time></trkpt><trkpt lat="38.442725" lon="16.2735367"><ele>1111.0</ele><time>2026-04-09T10:47:21.224Z</time></trkpt><trkpt lat="38.4427883" lon="16.2734417"><ele>1111.0</ele><time>2026-04-09T10:47:22.224Z</time></trkpt><trkpt lat="38.4428617" lon="16.2733433"><ele>1111.0</ele><time>2026-04-09T10:47:23.223Z</time></trkpt><trkpt lat="38.4429333" lon="16.2732617"><ele>1111.0</ele><time>2026-04-09T10:47:24.224Z</time></trkpt><trkpt lat="38.443" lon="16.273185"><ele>1111.0</ele><time>2026-04-09T10:47:25.224Z</time></trkpt><trkpt lat="38.4430533" lon="16.2731217"><ele>1110.0</ele><time>2026-04-09T10:47:26.224Z</time></trkpt><trkpt lat="38.4431133" lon="16.2729983"><ele>1109.0</ele><time>2026-04-09T10:47:28.224Z</time></trkpt><trkpt lat="38.443105" lon="16.27291"><ele>1108.0</ele><time>2026-04-09T10:47:30.224Z</time></trkpt><trkpt lat="38.443075" lon="16.2728033"><ele>1107.0</ele><time>2026-04-09T10:48:05.224Z</time></trkpt><trkpt lat="38.4431333" lon="16.2727367"><ele>1106.0</ele><time>2026-04-09T10:48:08.224Z</time></trkpt><trkpt lat="38.4431983" lon="16.2726633"><ele>1105.0</ele><time>2026-04-09T10:48:10.224Z</time></trkpt><trkpt lat="38.443255" lon="16.272625"><ele>1105.0</ele><time>2026-04-09T10:48:11.224Z</time></trkpt><trkpt lat="38.4433167" lon="16.272585"><ele>1105.0</ele><time>2026-04-09T10:48:12.224Z</time></trkpt><trkpt lat="38.4433867" lon="16.272535"><ele>1105.0</ele><time>2026-04-09T10:48:13.224Z</time></trkpt><trkpt lat="38.4434583" lon="16.272485"><ele>1105.0</ele><time>2026-04-09T10:48:14.224Z</time></trkpt><trkpt lat="38.4435217" lon="16.272445"><ele>1105.0</ele><time>2026-04-09T10:48:15.224Z</time></trkpt><trkpt lat="38.4435817" lon="16.2724183"><ele>1105.0</ele><time>2026-04-09T10:48:16.224Z</time></trkpt><trkpt lat="38.4436883" lon="16.2723617"><ele>1105.0</ele><time>2026-04-09T10:48:18.223Z</time></trkpt><trkpt lat="38.4437867" lon="16.2723183"><ele>1105.0</ele><time>2026-04-09T10:48:20.223Z</time></trkpt><trkpt lat="38.4438717" lon="16.27228"><ele>1105.0</ele><time>2026-04-09T10:48:22.223Z</time></trkpt><trkpt lat="38.4439633" lon="16.2722033"><ele>1105.0</ele><time>2026-04-09T10:48:24.223Z</time></trkpt><trkpt lat="38.4440083" lon="16.2721433"><ele>1105.0</ele><time>2026-04-09T10:48:25.223Z</time></trkpt><trkpt lat="38.4440567" lon="16.2720667"><ele>1105.0</ele><time>2026-04-09T10:48:26.223Z</time></trkpt><trkpt lat="38.4440967" lon="16.2719733"><ele>1105.6</ele><time>2026-04-09T10:48:27.223Z</time></trkpt><trkpt lat="38.4441217" lon="16.2718633"><ele>1106.2</ele><time>2026-04-09T10:48:28.222Z</time></trkpt><trkpt lat="38.4441483" lon="16.2717267"><ele>1106.8</ele><time>2026-04-09T10:48:29.223Z</time></trkpt><trkpt lat="38.4441617" lon="16.27157"><ele>1107.4</ele><time>2026-04-09T10:48:30.223Z</time></trkpt><trkpt lat="38.44419" lon="16.27142"><ele>1108.0</ele><time>2026-04-09T10:48:31.223Z</time></trkpt><trkpt lat="38.4442083" lon="16.271275"><ele>1108.6</ele><time>2026-04-09T10:48:32.223Z</time></trkpt><trkpt lat="38.4442233" lon="16.2711317"><ele>1109.1999999999998</ele><time>2026-04-09T10:48:33.223Z</time></trkpt><trkpt lat="38.4442367" lon="16.27099"><ele>1109.8</ele><time>2026-04-09T10:48:34.223Z</time></trkpt><trkpt lat="38.444245" lon="16.2708483"><ele>1110.3999999999999</ele><time>2026-04-09T10:48:35.223Z</time></trkpt><trkpt lat="38.4442617" lon="16.2707167"><ele>1111.0</ele><time>2026-04-09T10:48:36.223Z</time></trkpt><trkpt lat="38.444275" lon="16.270595"><ele>1112.1666666666665</ele><time>2026-04-09T10:48:37.223Z</time></trkpt><trkpt lat="38.4442967" lon="16.2704783"><ele>1113.3333333333333</ele><time>2026-04-09T10:48:38.222Z</time></trkpt><trkpt lat="38.4443283" lon="16.27039"><ele>1114.5</ele><time>2026-04-09T10:48:39.223Z</time></trkpt><trkpt lat="38.4443717" lon="16.2703183"><ele>1115.6666666666667</ele><time>2026-04-09T10:48:40.223Z</time></trkpt><trkpt lat="38.4444333" lon="16.27026"><ele>1116.8333333333335</ele><time>2026-04-09T10:48:41.223Z</time></trkpt><trkpt lat="38.4445" lon="16.2702217"><ele>1118.0</ele><time>2026-04-09T10:48:42.223Z</time></trkpt><trkpt lat="38.444575" lon="16.2702217"><ele>1116.2</ele><time>2026-04-09T10:48:43.223Z</time></trkpt><trkpt lat="38.44466" lon="16.2702367"><ele>1114.4</ele><time>2026-04-09T10:48:44.223Z</time></trkpt><trkpt lat="38.4447483" lon="16.270275"><ele>1112.6000000000001</ele><time>2026-04-09T10:48:45.223Z</time></trkpt><trkpt lat="38.4448333" lon="16.27034"><ele>1110.8</ele><time>2026-04-09T10:48:46.223Z</time></trkpt><trkpt lat="38.4449167" lon="16.2704083"><ele>1109.0</ele><time>2026-04-09T10:48:47.223Z</time></trkpt><trkpt lat="38.4449967" lon="16.270495"><ele>1109.0</ele><time>2026-04-09T10:48:48.223Z</time></trkpt><trkpt lat="38.4450733" lon="16.2705817"><ele>1109.0</ele><time>2026-04-09T10:48:49.223Z</time></trkpt><trkpt lat="38.4451417" lon="16.2706583"><ele>1109.0</ele><time>2026-04-09T10:48:50.223Z</time></trkpt><trkpt lat="38.4452017" lon="16.270735"><ele>1109.0</ele><time>2026-04-09T10:48:51.222Z</time></trkpt><trkpt lat="38.4452617" lon="16.2708"><ele>1109.0</ele><time>2026-04-09T10:48:52.223Z</time></trkpt><trkpt lat="38.4453317" lon="16.27084"><ele>1109.0</ele><time>2026-04-09T10:48:53.223Z</time></trkpt><trkpt lat="38.4454" lon="16.2708833"><ele>1107.5714285714284</ele><time>2026-04-09T10:48:54.223Z</time></trkpt><trkpt lat="38.4454683" lon="16.27091"><ele>1106.142857142857</ele><time>2026-04-09T10:48:55.223Z</time></trkpt><trkpt lat="38.4455333" lon="16.2709283"><ele>1104.7142857142858</ele><time>2026-04-09T10:48:56.223Z</time></trkpt><trkpt lat="38.4456017" lon="16.27094"><ele>1103.2857142857142</ele><time>2026-04-09T10:48:57.223Z</time></trkpt><trkpt lat="38.4456733" lon="16.270935"><ele>1101.857142857143</ele><time>2026-04-09T10:48:58.223Z</time></trkpt><trkpt lat="38.4457433" lon="16.2709017"><ele>1100.4285714285713</ele><time>2026-04-09T10:48:59.223Z</time></trkpt><trkpt lat="38.4458083" lon="16.2708467"><ele>1099.0</ele><time>2026-04-09T10:49:00.223Z</time></trkpt><trkpt lat="38.4458683" lon="16.2707717"><ele>1099.0</ele><time>2026-04-09T10:49:01.223Z</time></trkpt><trkpt lat="38.44593" lon="16.27069"><ele>1099.0</ele><time>2026-04-09T10:49:02.223Z</time></trkpt><trkpt lat="38.44599" lon="16.2705983"><ele>1099.0</ele><time>2026-04-09T10:49:03.222Z</time></trkpt><trkpt lat="38.4460467" lon="16.270515"><ele>1099.0</ele><time>2026-04-09T10:49:04.223Z</time></trkpt><trkpt lat="38.44612" lon="16.27044"><ele>1099.0</ele><time>2026-04-09T10:49:05.223Z</time></trkpt><trkpt lat="38.4462117" lon="16.2703733"><ele>1096.6000000000001</ele><time>2026-04-09T10:49:06.223Z</time></trkpt><trkpt lat="38.446305" lon="16.2703067"><ele>1094.2</ele><time>2026-04-09T10:49:07.223Z</time></trkpt><trkpt lat="38.4463967" lon="16.2702383"><ele>1091.8000000000002</ele><time>2026-04-09T10:49:08.222Z</time></trkpt><trkpt lat="38.4464517" lon="16.2701517"><ele>1089.4</ele><time>2026-04-09T10:49:09.223Z</time></trkpt><trkpt lat="38.4464967" lon="16.270055"><ele>1087.0</ele><time>2026-04-09T10:49:10.223Z</time></trkpt><trkpt lat="38.4465233" lon="16.2699517"><ele>1087.0</ele><time>2026-04-09T10:49:11.223Z</time></trkpt><trkpt lat="38.4465333" lon="16.2698633"><ele>1087.0</ele><time>2026-04-09T10:49:12.223Z</time></trkpt><trkpt lat="38.4465317" lon="16.269775"><ele>1087.0</ele><time>2026-04-09T10:49:13.223Z</time></trkpt><trkpt lat="38.4465017" lon="16.269695"><ele>1087.0</ele><time>2026-04-09T10:49:14.223Z</time></trkpt><trkpt lat="38.4464733" lon="16.26961"><ele>1087.0</ele><time>2026-04-09T10:49:15.223Z</time></trkpt><trkpt lat="38.4464417" lon="16.2695033"><ele>1087.0</ele><time>2026-04-09T10:49:16.223Z</time></trkpt><trkpt lat="38.4464083" lon="16.2693833"><ele>1087.6</ele><time>2026-04-09T10:49:17.223Z</time></trkpt><trkpt lat="38.44638" lon="16.2692617"><ele>1088.2</ele><time>2026-04-09T10:49:18.223Z</time></trkpt><trkpt lat="38.4463617" lon="16.2691483"><ele>1088.8</ele><time>2026-04-09T10:49:19.223Z</time></trkpt><trkpt lat="38.4463583" lon="16.2690533"><ele>1089.4</ele><time>2026-04-09T10:49:20.222Z</time></trkpt><trkpt lat="38.4463717" lon="16.26897"><ele>1090.0</ele><time>2026-04-09T10:49:21.223Z</time></trkpt><trkpt lat="38.44643" lon="16.2688217"><ele>1091.6</ele><time>2026-04-09T10:49:23.222Z</time></trkpt><trkpt lat="38.4465483" lon="16.2687233"><ele>1093.2</ele><time>2026-04-09T10:49:25.223Z</time></trkpt><trkpt lat="38.4466333" lon="16.2686917"><ele>1094.8</ele><time>2026-04-09T10:49:26.223Z</time></trkpt><trkpt lat="38.4467333" lon="16.2686967"><ele>1096.4</ele><time>2026-04-09T10:49:27.223Z</time></trkpt><trkpt lat="38.4468383" lon="16.2687167"><ele>1098.0</ele><time>2026-04-09T10:49:28.223Z</time></trkpt><trkpt lat="38.4469367" lon="16.268745"><ele>1098.0</ele><time>2026-04-09T10:49:29.223Z</time></trkpt><trkpt lat="38.447025" lon="16.26878"><ele>1098.0</ele><time>2026-04-09T10:49:30.223Z</time></trkpt><trkpt lat="38.4471" lon="16.2688233"><ele>1098.0</ele><time>2026-04-09T10:49:31.223Z</time></trkpt><trkpt lat="38.44717" lon="16.26885"><ele>1098.0</ele><time>2026-04-09T10:49:32.223Z</time></trkpt><trkpt lat="38.4472383" lon="16.2688667"><ele>1098.0</ele><time>2026-04-09T10:49:33.222Z</time></trkpt><trkpt lat="38.447305" lon="16.26886"><ele>1098.0</ele><time>2026-04-09T10:49:34.223Z</time></trkpt><trkpt lat="38.4473783" lon="16.2688267"><ele>1096.8333333333333</ele><time>2026-04-09T10:49:35.223Z</time></trkpt><trkpt lat="38.44745" lon="16.2687717"><ele>1095.6666666666667</ele><time>2026-04-09T10:49:36.223Z</time></trkpt><trkpt lat="38.4475167" lon="16.2687033"><ele>1094.5</ele><time>2026-04-09T10:49:37.223Z</time></trkpt><trkpt lat="38.4475683" lon="16.2686183"><ele>1093.3333333333335</ele><time>2026-04-09T10:49:38.222Z</time></trkpt><trkpt lat="38.447615" lon="16.2685267"><ele>1092.1666666666667</ele><time>2026-04-09T10:49:39.223Z</time></trkpt><trkpt lat="38.4476633" lon="16.2684333"><ele>1091.0</ele><time>2026-04-09T10:49:40.223Z</time></trkpt><trkpt lat="38.4477117" lon="16.2683517"><ele>1091.0</ele><time>2026-04-09T10:49:41.223Z</time></trkpt><trkpt lat="38.4477617" lon="16.2682783"><ele>1091.0</ele><time>2026-04-09T10:49:42.223Z</time></trkpt><trkpt lat="38.4478117" lon="16.2682233"><ele>1091.0</ele><time>2026-04-09T10:49:43.223Z</time></trkpt><trkpt lat="38.447915" lon="16.2681733"><ele>1091.0</ele><time>2026-04-09T10:49:45.223Z</time></trkpt><trkpt lat="38.448" lon="16.2682633"><ele>1091.0</ele><time>2026-04-09T10:49:47.223Z</time></trkpt><trkpt lat="38.44802" lon="16.2683467"><ele>1091.0</ele><time>2026-04-09T10:49:48.223Z</time></trkpt><trkpt lat="38.4480067" lon="16.26845"><ele>1089.3999999999999</ele><time>2026-04-09T10:49:49.223Z</time></trkpt><trkpt lat="38.4480133" lon="16.2685617"><ele>1087.8</ele><time>2026-04-09T10:49:50.223Z</time></trkpt><trkpt lat="38.4480017" lon="16.268705"><ele>1086.1999999999998</ele><time>2026-04-09T10:49:51.223Z</time></trkpt><trkpt lat="38.4480017" lon="16.2688483"><ele>1084.6</ele><time>2026-04-09T10:49:52.223Z</time></trkpt><trkpt lat="38.4480017" lon="16.26899"><ele>1083.0</ele><time>2026-04-09T10:49:53.222Z</time></trkpt><trkpt lat="38.448005" lon="16.2691367"><ele>1081.4</ele><time>2026-04-09T10:49:54.223Z</time></trkpt><trkpt lat="38.4480283" lon="16.2692717"><ele>1079.8</ele><time>2026-04-09T10:49:55.223Z</time></trkpt><trkpt lat="38.4480583" lon="16.269405"><ele>1078.2</ele><time>2026-04-09T10:49:56.223Z</time></trkpt><trkpt lat="38.4480883" lon="16.2695417"><ele>1076.6</ele><time>2026-04-09T10:49:57.223Z</time></trkpt><trkpt lat="38.44813" lon="16.2696617"><ele>1075.0</ele><time>2026-04-09T10:49:58.223Z</time></trkpt><trkpt lat="38.448175" lon="16.269785"><ele>1073.3333333333333</ele><time>2026-04-09T10:49:59.223Z</time></trkpt><trkpt lat="38.448225" lon="16.2698883"><ele>1071.6666666666665</ele><time>2026-04-09T10:50:00.223Z</time></trkpt><trkpt lat="38.44828" lon="16.26996"><ele>1070.0</ele><time>2026-04-09T10:50:01.223Z</time></trkpt><trkpt lat="38.4483417" lon="16.2700233"><ele>1068.3333333333333</ele><time>2026-04-09T10:50:02.223Z</time></trkpt><trkpt lat="38.4484083" lon="16.270055"><ele>1066.6666666666667</ele><time>2026-04-09T10:50:03.223Z</time></trkpt><trkpt lat="38.4484933" lon="16.270045"><ele>1065.0</ele><time>2026-04-09T10:50:04.223Z</time></trkpt><trkpt lat="38.4485817" lon="16.2700017"><ele>1065.0</ele><time>2026-04-09T10:50:05.222Z</time></trkpt><trkpt lat="38.44866" lon="16.2699117"><ele>1065.0</ele><time>2026-04-09T10:50:06.223Z</time></trkpt><trkpt lat="38.4487" lon="16.269805"><ele>1065.0</ele><time>2026-04-09T10:50:07.223Z</time></trkpt><trkpt lat="38.4487217" lon="16.2696867"><ele>1065.0</ele><time>2026-04-09T10:50:08.223Z</time></trkpt><trkpt lat="38.4487383" lon="16.2695583"><ele>1065.0</ele><time>2026-04-09T10:50:09.223Z</time></trkpt><trkpt lat="38.448755" lon="16.2694383"><ele>1065.5</ele><time>2026-04-09T10:50:10.223Z</time></trkpt><trkpt lat="38.44876" lon="16.2693233"><ele>1066.0</ele><time>2026-04-09T10:50:11.223Z</time></trkpt><trkpt lat="38.44877" lon="16.2692067"><ele>1066.5</ele><time>2026-04-09T10:50:12.223Z</time></trkpt><trkpt lat="38.4487917" lon="16.2690983"><ele>1067.0</ele><time>2026-04-09T10:50:13.223Z</time></trkpt><trkpt lat="38.448815" lon="16.268995"><ele>1067.5</ele><time>2026-04-09T10:50:14.223Z</time></trkpt><trkpt lat="38.44885" lon="16.2689033"><ele>1068.0</ele><time>2026-04-09T10:50:15.223Z</time></trkpt><trkpt lat="38.4488833" lon="16.26883"><ele>1068.0</ele><time>2026-04-09T10:50:16.222Z</time></trkpt><trkpt lat="38.4489767" lon="16.2687383"><ele>1068.0</ele><time>2026-04-09T10:50:18.223Z</time></trkpt><trkpt lat="38.4490433" lon="16.268735"><ele>1068.0</ele><time>2026-04-09T10:50:19.223Z</time></trkpt><trkpt lat="38.4491267" lon="16.2687533"><ele>1068.0</ele><time>2026-04-09T10:50:20.223Z</time></trkpt><trkpt lat="38.4492233" lon="16.2688"><ele>1068.0</ele><time>2026-04-09T10:50:21.223Z</time></trkpt><trkpt lat="38.4493433" lon="16.2688617"><ele>1068.0</ele><time>2026-04-09T10:50:22.223Z</time></trkpt><trkpt lat="38.4494817" lon="16.2689367"><ele>1068.0</ele><time>2026-04-09T10:50:23.223Z</time></trkpt><trkpt lat="38.44964" lon="16.2690117"><ele>1068.0</ele><time>2026-04-09T10:50:24.223Z</time></trkpt><trkpt lat="38.4497817" lon="16.269055"><ele>1065.0</ele><time>2026-04-09T10:50:25.223Z</time></trkpt><trkpt lat="38.449925" lon="16.26909"><ele>1062.0</ele><time>2026-04-09T10:50:26.223Z</time></trkpt><trkpt lat="38.4500517" lon="16.2690983"><ele>1059.0</ele><time>2026-04-09T10:50:27.223Z</time></trkpt><trkpt lat="38.4501433" lon="16.2690867"><ele>1056.0</ele><time>2026-04-09T10:50:28.223Z</time></trkpt><trkpt lat="38.450235" lon="16.2690367"><ele>1056.0</ele><time>2026-04-09T10:50:29.222Z</time></trkpt><trkpt lat="38.4503183" lon="16.2689633"><ele>1056.0</ele><time>2026-04-09T10:50:30.222Z</time></trkpt><trkpt lat="38.4503717" lon="16.26887"><ele>1056.0</ele><time>2026-04-09T10:50:31.223Z</time></trkpt><trkpt lat="38.4504217" lon="16.2687683"><ele>1056.0</ele><time>2026-04-09T10:50:32.223Z</time></trkpt><trkpt lat="38.450455" lon="16.26864"><ele>1056.0</ele><time>2026-04-09T10:50:33.223Z</time></trkpt><trkpt lat="38.45048" lon="16.2685"><ele>1055.6</ele><time>2026-04-09T10:50:34.223Z</time></trkpt><trkpt lat="38.4505033" lon="16.2683567"><ele>1055.1999999999998</ele><time>2026-04-09T10:50:35.223Z</time></trkpt><trkpt lat="38.4505167" lon="16.268215"><ele>1054.8000000000002</ele><time>2026-04-09T10:50:36.222Z</time></trkpt><trkpt lat="38.4505283" lon="16.268075"><ele>1054.4</ele><time>2026-04-09T10:50:37.223Z</time></trkpt><trkpt lat="38.4505283" lon="16.2679367"><ele>1054.0</ele><time>2026-04-09T10:50:38.223Z</time></trkpt><trkpt lat="38.4505167" lon="16.2678117"><ele>1054.0</ele><time>2026-04-09T10:50:39.222Z</time></trkpt><trkpt lat="38.4504983" lon="16.2676917"><ele>1054.0</ele><time>2026-04-09T10:50:40.223Z</time></trkpt><trkpt lat="38.45049" lon="16.2675817"><ele>1054.0</ele><time>2026-04-09T10:50:41.223Z</time></trkpt><trkpt lat="38.4504883" lon="16.2674867"><ele>1054.0</ele><time>2026-04-09T10:50:42.223Z</time></trkpt><trkpt lat="38.450505" lon="16.2674017"><ele>1054.0</ele><time>2026-04-09T10:50:43.222Z</time></trkpt><trkpt lat="38.4505283" lon="16.267325"><ele>1054.0</ele><time>2026-04-09T10:50:44.223Z</time></trkpt><trkpt lat="38.4506117" lon="16.26719"><ele>1054.1666666666665</ele><time>2026-04-09T10:50:46.223Z</time></trkpt><trkpt lat="38.4506733" lon="16.26714"><ele>1054.3333333333333</ele><time>2026-04-09T10:50:47.223Z</time></trkpt><trkpt lat="38.450735" lon="16.2671033"><ele>1054.5</ele><time>2026-04-09T10:50:48.223Z</time></trkpt><trkpt lat="38.450815" lon="16.2670867"><ele>1054.6666666666667</ele><time>2026-04-09T10:50:49.223Z</time></trkpt><trkpt lat="38.4509067" lon="16.267105"><ele>1054.8333333333335</ele><time>2026-04-09T10:50:50.223Z</time></trkpt><trkpt lat="38.4510067" lon="16.26715"><ele>1055.0</ele><time>2026-04-09T10:50:51.223Z</time></trkpt><trkpt lat="38.451115" lon="16.2672033"><ele>1055.0</ele><time>2026-04-09T10:50:52.223Z</time></trkpt><trkpt lat="38.4512217" lon="16.2672617"><ele>1055.0</ele><time>2026-04-09T10:50:53.223Z</time></trkpt><trkpt lat="38.4513133" lon="16.2673333"><ele>1055.0</ele><time>2026-04-09T10:50:54.223Z</time></trkpt><trkpt lat="38.4513933" lon="16.26741"><ele>1055.0</ele><time>2026-04-09T10:50:55.223Z</time></trkpt><trkpt lat="38.4514767" lon="16.2674983"><ele>1055.0</ele><time>2026-04-09T10:50:56.223Z</time></trkpt><trkpt lat="38.4515367" lon="16.2676"><ele>1054.4</ele><time>2026-04-09T10:50:57.223Z</time></trkpt><trkpt lat="38.451575" lon="16.267715"><ele>1053.8</ele><time>2026-04-09T10:50:58.223Z</time></trkpt><trkpt lat="38.4516083" lon="16.2678217"><ele>1053.2</ele><time>2026-04-09T10:50:59.223Z</time></trkpt><trkpt lat="38.4516333" lon="16.2679367"><ele>1052.6</ele><time>2026-04-09T10:51:00.223Z</time></trkpt><trkpt lat="38.4516633" lon="16.2680583"><ele>1052.0</ele><time>2026-04-09T10:51:01.223Z</time></trkpt><trkpt lat="38.4517017" lon="16.2682"><ele>1052.0</ele><time>2026-04-09T10:51:02.223Z</time></trkpt><trkpt lat="38.4517633" lon="16.2683217"><ele>1052.0</ele><time>2026-04-09T10:51:03.222Z</time></trkpt><trkpt lat="38.4518383" lon="16.2684217"><ele>1052.0</ele><time>2026-04-09T10:51:04.223Z</time></trkpt><trkpt lat="38.4519217" lon="16.2685133"><ele>1052.0</ele><time>2026-04-09T10:51:05.223Z</time></trkpt><trkpt lat="38.452015" lon="16.268595"><ele>1052.0</ele><time>2026-04-09T10:51:06.222Z</time></trkpt><trkpt lat="38.4521217" lon="16.2686733"><ele>1051.25</ele><time>2026-04-09T10:51:07.223Z</time></trkpt><trkpt lat="38.452245" lon="16.2687583"><ele>1050.5</ele><time>2026-04-09T10:51:08.223Z</time></trkpt><trkpt lat="38.4523867" lon="16.268845"><ele>1049.75</ele><time>2026-04-09T10:51:09.223Z</time></trkpt><trkpt lat="38.4525217" lon="16.2689317"><ele>1049.0</ele><time>2026-04-09T10:51:10.223Z</time></trkpt><trkpt lat="38.452675" lon="16.2690367"><ele>1049.0</ele><time>2026-04-09T10:51:11.223Z</time></trkpt><trkpt lat="38.4528317" lon="16.2691367"><ele>1049.0</ele><time>2026-04-09T10:51:12.223Z</time></trkpt><trkpt lat="38.4529917" lon="16.2692417"><ele>1049.0</ele><time>2026-04-09T10:51:13.223Z</time></trkpt><trkpt lat="38.4531383" lon="16.26934"><ele>1047.3333333333335</ele><time>2026-04-09T10:51:14.223Z</time></trkpt><trkpt lat="38.4532717" lon="16.2694383"><ele>1045.6666666666667</ele><time>2026-04-09T10:51:15.223Z</time></trkpt><trkpt lat="38.4534083" lon="16.2695017"><ele>1044.0</ele><time>2026-04-09T10:51:16.223Z</time></trkpt><trkpt lat="38.4535533" lon="16.2695633"><ele>1044.0</ele><time>2026-04-09T10:51:17.223Z</time></trkpt><trkpt lat="38.4537167" lon="16.26961"><ele>1044.0</ele><time>2026-04-09T10:51:18.223Z</time></trkpt><trkpt lat="38.45388" lon="16.2696283"><ele>1044.0</ele><time>2026-04-09T10:51:19.223Z</time></trkpt><trkpt lat="38.45405" lon="16.2696233"><ele>1044.3333333333333</ele><time>2026-04-09T10:51:20.223Z</time></trkpt><trkpt lat="38.45422" lon="16.26962"><ele>1044.6666666666665</ele><time>2026-04-09T10:51:21.223Z</time></trkpt><trkpt lat="38.4543933" lon="16.2696083"><ele>1045.0</ele><time>2026-04-09T10:51:22.223Z</time></trkpt><trkpt lat="38.4545633" lon="16.2696"><ele>1045.75</ele><time>2026-04-09T10:51:23.222Z</time></trkpt><trkpt lat="38.4547283" lon="16.2695933"><ele>1046.5</ele><time>2026-04-09T10:51:24.223Z</time></trkpt><trkpt lat="38.4548733" lon="16.2695733"><ele>1047.25</ele><time>2026-04-09T10:51:25.223Z</time></trkpt><trkpt lat="38.4549833" lon="16.2695383"><ele>1048.0</ele><time>2026-04-09T10:51:26.223Z</time></trkpt><trkpt lat="38.4551267" lon="16.269485"><ele>1048.0</ele><time>2026-04-09T10:51:27.222Z</time></trkpt><trkpt lat="38.455255" lon="16.269425"><ele>1048.0</ele><time>2026-04-09T10:51:28.222Z</time></trkpt><trkpt lat="38.455385" lon="16.2693567"><ele>1048.0</ele><time>2026-04-09T10:51:29.223Z</time></trkpt><trkpt lat="38.4555167" lon="16.2692933"><ele>1048.0</ele><time>2026-04-09T10:51:30.223Z</time></trkpt><trkpt lat="38.455625" lon="16.2692467"><ele>1047.2</ele><time>2026-04-09T10:51:31.223Z</time></trkpt><trkpt lat="38.4557367" lon="16.2692183"><ele>1046.4</ele><time>2026-04-09T10:51:32.223Z</time></trkpt><trkpt lat="38.4558417" lon="16.2692117"><ele>1045.6000000000001</ele><time>2026-04-09T10:51:33.223Z</time></trkpt><trkpt lat="38.4559517" lon="16.2692133"><ele>1044.8</ele><time>2026-04-09T10:51:34.223Z</time></trkpt><trkpt lat="38.4560567" lon="16.2692533"><ele>1044.0</ele><time>2026-04-09T10:51:35.223Z</time></trkpt><trkpt lat="38.456165" lon="16.2693133"><ele>1044.0</ele><time>2026-04-09T10:51:36.223Z</time></trkpt><trkpt lat="38.456275" lon="16.2693833"><ele>1044.0</ele><time>2026-04-09T10:51:37.223Z</time></trkpt><trkpt lat="38.45639" lon="16.2694717"><ele>1044.0</ele><time>2026-04-09T10:51:38.223Z</time></trkpt><trkpt lat="38.4565317" lon="16.2695883"><ele>1044.0</ele><time>2026-04-09T10:51:39.223Z</time></trkpt><trkpt lat="38.4566533" lon="16.26969"><ele>1043.6666666666667</ele><time>2026-04-09T10:51:40.223Z</time></trkpt><trkpt lat="38.45678" lon="16.2698"><ele>1043.3333333333335</ele><time>2026-04-09T10:51:41.223Z</time></trkpt><trkpt lat="38.4569083" lon="16.2699033"><ele>1043.0</ele><time>2026-04-09T10:51:42.223Z</time></trkpt><trkpt lat="38.4570333" lon="16.2700083"><ele>1043.5</ele><time>2026-04-09T10:51:43.223Z</time></trkpt><trkpt lat="38.45715" lon="16.2701"><ele>1044.0</ele><time>2026-04-09T10:51:44.223Z</time></trkpt><trkpt lat="38.45727" lon="16.2701717"><ele>1044.5</ele><time>2026-04-09T10:51:45.223Z</time></trkpt><trkpt lat="38.4574033" lon="16.2702483"><ele>1045.0</ele><time>2026-04-09T10:51:46.223Z</time></trkpt><trkpt lat="38.4575333" lon="16.2703233"><ele>1045.0</ele><time>2026-04-09T10:51:47.222Z</time></trkpt><trkpt lat="38.4576983" lon="16.270385"><ele>1045.0</ele><time>2026-04-09T10:51:48.223Z</time></trkpt><trkpt lat="38.4578633" lon="16.2704367"><ele>1045.0</ele><time>2026-04-09T10:51:49.223Z</time></trkpt><trkpt lat="38.4580317" lon="16.2704917"><ele>1044.6666666666665</ele><time>2026-04-09T10:51:50.223Z</time></trkpt><trkpt lat="38.4581983" lon="16.270565"><ele>1044.3333333333333</ele><time>2026-04-09T10:51:51.223Z</time></trkpt><trkpt lat="38.4583633" lon="16.2706367"><ele>1044.0</ele><time>2026-04-09T10:51:52.222Z</time></trkpt><trkpt lat="38.4585333" lon="16.27071"><ele>1042.0</ele><time>2026-04-09T10:51:53.223Z</time></trkpt><trkpt lat="38.4586933" lon="16.2707833"><ele>1040.0</ele><time>2026-04-09T10:51:54.223Z</time></trkpt><trkpt lat="38.4588333" lon="16.2708583"><ele>1038.0</ele><time>2026-04-09T10:51:55.223Z</time></trkpt><trkpt lat="38.4589617" lon="16.2709333"><ele>1038.0</ele><time>2026-04-09T10:51:56.223Z</time></trkpt><trkpt lat="38.4590883" lon="16.2710133"><ele>1038.0</ele><time>2026-04-09T10:51:57.223Z</time></trkpt><trkpt lat="38.4592117" lon="16.2711017"><ele>1038.0</ele><time>2026-04-09T10:51:58.223Z</time></trkpt><trkpt lat="38.459345" lon="16.271205"><ele>1038.0</ele><time>2026-04-09T10:51:59.223Z</time></trkpt><trkpt lat="38.4594767" lon="16.2713217"><ele>1038.0</ele><time>2026-04-09T10:52:00.223Z</time></trkpt><trkpt lat="38.4596133" lon="16.271435"><ele>1038.0</ele><time>2026-04-09T10:52:01.223Z</time></trkpt><trkpt lat="38.459745" lon="16.2715383"><ele>1038.0</ele><time>2026-04-09T10:52:02.223Z</time></trkpt><trkpt lat="38.459865" lon="16.271635"><ele>1037.0</ele><time>2026-04-09T10:52:03.223Z</time></trkpt><trkpt lat="38.45998" lon="16.2717317"><ele>1036.0</ele><time>2026-04-09T10:52:04.223Z</time></trkpt><trkpt lat="38.4600917" lon="16.27182"><ele>1035.0</ele><time>2026-04-09T10:52:05.223Z</time></trkpt><trkpt lat="38.4602" lon="16.2719083"><ele>1034.0</ele><time>2026-04-09T10:52:06.223Z</time></trkpt><trkpt lat="38.4603017" lon="16.27201"><ele>1034.0</ele><time>2026-04-09T10:52:07.223Z</time></trkpt><trkpt lat="38.460395" lon="16.2721167"><ele>1034.0</ele><time>2026-04-09T10:52:08.223Z</time></trkpt><trkpt lat="38.46047" lon="16.2722367"><ele>1034.0</ele><time>2026-04-09T10:52:09.223Z</time></trkpt><trkpt lat="38.4605283" lon="16.2723583"><ele>1034.0</ele><time>2026-04-09T10:52:10.223Z</time></trkpt><trkpt lat="38.4605717" lon="16.272485"><ele>1033.2</ele><time>2026-04-09T10:52:11.223Z</time></trkpt><trkpt lat="38.4606167" lon="16.2726067"><ele>1032.4</ele><time>2026-04-09T10:52:12.223Z</time></trkpt><trkpt lat="38.46065" lon="16.2727283"><ele>1031.6</ele><time>2026-04-09T10:52:13.222Z</time></trkpt><trkpt lat="38.4606317" lon="16.27285"><ele>1030.8</ele><time>2026-04-09T10:52:14.223Z</time></trkpt><trkpt lat="38.4605867" lon="16.2729817"><ele>1030.0</ele><time>2026-04-09T10:52:15.223Z</time></trkpt><trkpt lat="38.4605283" lon="16.2731033"><ele>1030.75</ele><time>2026-04-09T10:52:16.223Z</time></trkpt><trkpt lat="38.4604567" lon="16.273225"><ele>1031.5</ele><time>2026-04-09T10:52:17.223Z</time></trkpt><trkpt lat="38.460385" lon="16.2733617"><ele>1032.25</ele><time>2026-04-09T10:52:18.223Z</time></trkpt><trkpt lat="38.460305" lon="16.2735067"><ele>1033.0</ele><time>2026-04-09T10:52:19.223Z</time></trkpt><trkpt lat="38.4602533" lon="16.27363"><ele>1031.8333333333333</ele><time>2026-04-09T10:52:20.223Z</time></trkpt><trkpt lat="38.4602283" lon="16.2737367"><ele>1030.6666666666665</ele><time>2026-04-09T10:52:21.223Z</time></trkpt><trkpt lat="38.4602233" lon="16.2738383"><ele>1029.5</ele><time>2026-04-09T10:52:22.223Z</time></trkpt><trkpt lat="38.4602367" lon="16.2739517"><ele>1028.3333333333333</ele><time>2026-04-09T10:52:23.223Z</time></trkpt><trkpt lat="38.460265" lon="16.2740517"><ele>1027.1666666666667</ele><time>2026-04-09T10:52:24.223Z</time></trkpt><trkpt lat="38.46031" lon="16.27414"><ele>1026.0</ele><time>2026-04-09T10:52:25.223Z</time></trkpt><trkpt lat="38.4603667" lon="16.274215"><ele>1026.0</ele><time>2026-04-09T10:52:26.223Z</time></trkpt><trkpt lat="38.4604383" lon="16.2742783"><ele>1026.0</ele><time>2026-04-09T10:52:27.222Z</time></trkpt><trkpt lat="38.4605183" lon="16.2743233"><ele>1026.0</ele><time>2026-04-09T10:52:28.223Z</time></trkpt><trkpt lat="38.4606067" lon="16.2743433"><ele>1026.0</ele><time>2026-04-09T10:52:29.223Z</time></trkpt><trkpt lat="38.4607167" lon="16.27435"><ele>1026.0</ele><time>2026-04-09T10:52:30.223Z</time></trkpt><trkpt lat="38.4608317" lon="16.2743483"><ele>1028.0</ele><time>2026-04-09T10:52:31.223Z</time></trkpt><trkpt lat="38.460945" lon="16.27436"><ele>1030.0</ele><time>2026-04-09T10:52:32.223Z</time></trkpt><trkpt lat="38.4610667" lon="16.2743717"><ele>1032.0</ele><time>2026-04-09T10:52:33.223Z</time></trkpt><trkpt lat="38.4611783" lon="16.2744017"><ele>1034.0</ele><time>2026-04-09T10:52:34.223Z</time></trkpt><trkpt lat="38.4612917" lon="16.274435"><ele>1035.25</ele><time>2026-04-09T10:52:35.223Z</time></trkpt><trkpt lat="38.4614083" lon="16.2744783"><ele>1036.5</ele><time>2026-04-09T10:52:36.223Z</time></trkpt><trkpt lat="38.4615317" lon="16.2745267"><ele>1037.75</ele><time>2026-04-09T10:52:37.223Z</time></trkpt><trkpt lat="38.4616383" lon="16.2745783"><ele>1039.0</ele><time>2026-04-09T10:52:38.223Z</time></trkpt><trkpt lat="38.461765" lon="16.2746517"><ele>1039.0</ele><time>2026-04-09T10:52:39.223Z</time></trkpt><trkpt lat="38.46189" lon="16.2747283"><ele>1039.0</ele><time>2026-04-09T10:52:40.223Z</time></trkpt><trkpt lat="38.4619983" lon="16.27481"><ele>1039.0</ele><time>2026-04-09T10:52:41.223Z</time></trkpt><trkpt lat="38.46211" lon="16.274895"><ele>1039.0</ele><time>2026-04-09T10:52:42.223Z</time></trkpt><trkpt lat="38.4622283" lon="16.2749833"><ele>1037.0</ele><time>2026-04-09T10:52:43.223Z</time></trkpt><trkpt lat="38.46236" lon="16.2750667"><ele>1035.0</ele><time>2026-04-09T10:52:44.223Z</time></trkpt><trkpt lat="38.462495" lon="16.2751333"><ele>1033.0</ele><time>2026-04-09T10:52:45.223Z</time></trkpt><trkpt lat="38.462645" lon="16.2751967"><ele>1033.0</ele><time>2026-04-09T10:52:46.223Z</time></trkpt><trkpt lat="38.4628067" lon="16.2752383"><ele>1033.0</ele><time>2026-04-09T10:52:47.223Z</time></trkpt><trkpt lat="38.4629617" lon="16.2752933"><ele>1033.0</ele><time>2026-04-09T10:52:48.223Z</time></trkpt><trkpt lat="38.463105" lon="16.2753483"><ele>1032.0</ele><time>2026-04-09T10:52:49.223Z</time></trkpt><trkpt lat="38.4632383" lon="16.27541"><ele>1031.0</ele><time>2026-04-09T10:52:50.223Z</time></trkpt><trkpt lat="38.4633733" lon="16.2754867"><ele>1030.0</ele><time>2026-04-09T10:52:51.223Z</time></trkpt><trkpt lat="38.4634967" lon="16.275565"><ele>1029.0</ele><time>2026-04-09T10:52:52.223Z</time></trkpt><trkpt lat="38.4636167" lon="16.2756683"><ele>1028.0</ele><time>2026-04-09T10:52:53.223Z</time></trkpt><trkpt lat="38.4637467" lon="16.2757633"><ele>1027.0</ele><time>2026-04-09T10:52:54.223Z</time></trkpt><trkpt lat="38.4638783" lon="16.2758533"><ele>1026.0</ele><time>2026-04-09T10:52:55.222Z</time></trkpt><trkpt lat="38.4640183" lon="16.2759283"><ele>1025.5</ele><time>2026-04-09T10:52:56.223Z</time></trkpt><trkpt lat="38.464165" lon="16.275975"><ele>1025.0</ele><time>2026-04-09T10:52:57.223Z</time></trkpt><trkpt lat="38.4643083" lon="16.2759883"><ele>1024.5</ele><time>2026-04-09T10:52:58.223Z</time></trkpt><trkpt lat="38.4644367" lon="16.275985"><ele>1024.0</ele><time>2026-04-09T10:52:59.222Z</time></trkpt><trkpt lat="38.464555" lon="16.2759583"><ele>1023.5</ele><time>2026-04-09T10:53:00.223Z</time></trkpt><trkpt lat="38.4646667" lon="16.275885"><ele>1023.0</ele><time>2026-04-09T10:53:01.223Z</time></trkpt><trkpt lat="38.464775" lon="16.27579"><ele>1022.5</ele><time>2026-04-09T10:53:02.223Z</time></trkpt><trkpt lat="38.4648567" lon="16.275675"><ele>1022.0</ele><time>2026-04-09T10:53:03.223Z</time></trkpt><trkpt lat="38.4649267" lon="16.2755583"><ele>1022.0</ele><time>2026-04-09T10:53:04.223Z</time></trkpt><trkpt lat="38.464995" lon="16.2754283"><ele>1022.0</ele><time>2026-04-09T10:53:05.223Z</time></trkpt><trkpt lat="38.4650467" lon="16.2753083"><ele>1022.0</ele><time>2026-04-09T10:53:06.223Z</time></trkpt><trkpt lat="38.4650833" lon="16.2751683"><ele>1022.0</ele><time>2026-04-09T10:53:07.222Z</time></trkpt><trkpt lat="38.4651033" lon="16.2750183"><ele>1022.0</ele><time>2026-04-09T10:53:08.223Z</time></trkpt><trkpt lat="38.4651183" lon="16.274865"><ele>1022.0</ele><time>2026-04-09T10:53:09.223Z</time></trkpt><trkpt lat="38.465115" lon="16.2747217"><ele>1022.0</ele><time>2026-04-09T10:53:10.223Z</time></trkpt><trkpt lat="38.465085" lon="16.2745867"><ele>1022.0</ele><time>2026-04-09T10:53:11.223Z</time></trkpt><trkpt lat="38.4650517" lon="16.2744617"><ele>1022.0</ele><time>2026-04-09T10:53:12.223Z</time></trkpt><trkpt lat="38.46501" lon="16.2743433"><ele>1021.4000000000001</ele><time>2026-04-09T10:53:13.223Z</time></trkpt><trkpt lat="38.4649667" lon="16.2742183"><ele>1020.8000000000001</ele><time>2026-04-09T10:53:14.223Z</time></trkpt><trkpt lat="38.464915" lon="16.2740917"><ele>1020.2</ele><time>2026-04-09T10:53:15.223Z</time></trkpt><trkpt lat="38.4648783" lon="16.2739733"><ele>1019.6</ele><time>2026-04-09T10:53:16.223Z</time></trkpt><trkpt lat="38.4648383" lon="16.273855"><ele>1019.0</ele><time>2026-04-09T10:53:17.223Z</time></trkpt><trkpt lat="38.4648217" lon="16.273755"><ele>1018.75</ele><time>2026-04-09T10:53:18.223Z</time></trkpt><trkpt lat="38.4648233" lon="16.273595"><ele>1018.5</ele><time>2026-04-09T10:53:20.223Z</time></trkpt><trkpt lat="38.4649033" lon="16.2734733"><ele>1018.25</ele><time>2026-04-09T10:53:22.222Z</time></trkpt><trkpt lat="38.4650467" lon="16.2734933"><ele>1018.0</ele><time>2026-04-09T10:53:24.223Z</time></trkpt><trkpt lat="38.4651333" lon="16.2735283"><ele>1018.0</ele><time>2026-04-09T10:53:25.223Z</time></trkpt><trkpt lat="38.4652317" lon="16.273575"><ele>1018.0</ele><time>2026-04-09T10:53:26.223Z</time></trkpt><trkpt lat="38.465325" lon="16.2736283"><ele>1018.0</ele><time>2026-04-09T10:53:27.223Z</time></trkpt><trkpt lat="38.465425" lon="16.2736767"><ele>1018.0</ele><time>2026-04-09T10:53:28.223Z</time></trkpt><trkpt lat="38.4655483" lon="16.27372"><ele>1018.0</ele><time>2026-04-09T10:53:29.223Z</time></trkpt><trkpt lat="38.46568" lon="16.2737367"><ele>1016.5</ele><time>2026-04-09T10:53:30.223Z</time></trkpt><trkpt lat="38.4658167" lon="16.2737383"><ele>1015.0</ele><time>2026-04-09T10:53:31.223Z</time></trkpt><trkpt lat="38.46595" lon="16.27373"><ele>1013.5</ele><time>2026-04-09T10:53:32.222Z</time></trkpt><trkpt lat="38.4660883" lon="16.2737283"><ele>1012.0</ele><time>2026-04-09T10:53:33.222Z</time></trkpt><trkpt lat="38.4662117" lon="16.2737267"><ele>1012.0</ele><time>2026-04-09T10:53:34.223Z</time></trkpt><trkpt lat="38.4663333" lon="16.2737317"><ele>1012.0</ele><time>2026-04-09T10:53:35.223Z</time></trkpt><trkpt lat="38.4664417" lon="16.2737517"><ele>1012.0</ele><time>2026-04-09T10:53:36.223Z</time></trkpt><trkpt lat="38.4665467" lon="16.2737917"><ele>1012.0</ele><time>2026-04-09T10:53:37.223Z</time></trkpt><trkpt lat="38.4666433" lon="16.2738583"><ele>1012.0</ele><time>2026-04-09T10:53:38.223Z</time></trkpt><trkpt lat="38.4667333" lon="16.2739367"><ele>1012.0</ele><time>2026-04-09T10:53:39.223Z</time></trkpt><trkpt lat="38.4668133" lon="16.2740183"><ele>1012.0</ele><time>2026-04-09T10:53:40.222Z</time></trkpt><trkpt lat="38.4668667" lon="16.2740883"><ele>1012.0</ele><time>2026-04-09T10:53:41.222Z</time></trkpt><trkpt lat="38.4669167" lon="16.2741483"><ele>1012.0</ele><time>2026-04-09T10:53:42.223Z</time></trkpt><trkpt lat="38.4669517" lon="16.2742833"><ele>1012.0</ele><time>2026-04-09T10:53:44.222Z</time></trkpt><trkpt lat="38.4669383" lon="16.2744417"><ele>1012.0</ele><time>2026-04-09T10:53:46.223Z</time></trkpt><trkpt lat="38.4669033" lon="16.27454"><ele>1012.0</ele><time>2026-04-09T10:53:47.223Z</time></trkpt><trkpt lat="38.4668433" lon="16.274665"><ele>1012.0</ele><time>2026-04-09T10:53:48.223Z</time></trkpt><trkpt lat="38.4667667" lon="16.274805"><ele>1012.0</ele><time>2026-04-09T10:53:49.223Z</time></trkpt><trkpt lat="38.4666833" lon="16.2749683"><ele>1012.0</ele><time>2026-04-09T10:53:50.222Z</time></trkpt><trkpt lat="38.4666083" lon="16.2751233"><ele>1012.0</ele><time>2026-04-09T10:53:51.223Z</time></trkpt><trkpt lat="38.4665517" lon="16.2752683"><ele>1012.0</ele><time>2026-04-09T10:53:52.223Z</time></trkpt><trkpt lat="38.4665167" lon="16.2754133"><ele>1012.0</ele><time>2026-04-09T10:53:53.223Z</time></trkpt><trkpt lat="38.466505" lon="16.275585"><ele>1012.0</ele><time>2026-04-09T10:53:54.223Z</time></trkpt><trkpt lat="38.4665233" lon="16.2757433"><ele>1012.0</ele><time>2026-04-09T10:53:55.223Z</time></trkpt><trkpt lat="38.4665433" lon="16.2759033"><ele>1012.0</ele><time>2026-04-09T10:53:56.223Z</time></trkpt><trkpt lat="38.4665533" lon="16.276065"><ele>1013.5</ele><time>2026-04-09T10:53:57.223Z</time></trkpt><trkpt lat="38.4665617" lon="16.276235"><ele>1015.0</ele><time>2026-04-09T10:53:58.223Z</time></trkpt><trkpt lat="38.4665667" lon="16.2764217"><ele>1016.5</ele><time>2026-04-09T10:53:59.223Z</time></trkpt><trkpt lat="38.4665717" lon="16.2766"><ele>1018.0</ele><time>2026-04-09T10:54:00.223Z</time></trkpt><trkpt lat="38.4665633" lon="16.276775"><ele>1018.25</ele><time>2026-04-09T10:54:01.223Z</time></trkpt><trkpt lat="38.4665583" lon="16.2769383"><ele>1018.5</ele><time>2026-04-09T10:54:02.223Z</time></trkpt><trkpt lat="38.46656" lon="16.2771017"><ele>1018.75</ele><time>2026-04-09T10:54:03.223Z</time></trkpt><trkpt lat="38.4665667" lon="16.2772783"><ele>1019.0</ele><time>2026-04-09T10:54:04.223Z</time></trkpt><trkpt lat="38.46659" lon="16.27744"><ele>1019.0</ele><time>2026-04-09T10:54:05.223Z</time></trkpt><trkpt lat="38.4666533" lon="16.2775783"><ele>1019.0</ele><time>2026-04-09T10:54:06.223Z</time></trkpt><trkpt lat="38.466735" lon="16.2777183"><ele>1019.0</ele><time>2026-04-09T10:54:07.222Z</time></trkpt><trkpt lat="38.4668283" lon="16.2778433"><ele>1019.0</ele><time>2026-04-09T10:54:08.223Z</time></trkpt><trkpt lat="38.4669217" lon="16.27798"><ele>1018.0</ele><time>2026-04-09T10:54:09.223Z</time></trkpt><trkpt lat="38.467015" lon="16.2781133"><ele>1017.0</ele><time>2026-04-09T10:54:10.223Z</time></trkpt><trkpt lat="38.4671033" lon="16.2782483"><ele>1016.0</ele><time>2026-04-09T10:54:11.223Z</time></trkpt><trkpt lat="38.4672" lon="16.2783733"><ele>1015.0</ele><time>2026-04-09T10:54:12.223Z</time></trkpt><trkpt lat="38.467295" lon="16.278495"><ele>1014.25</ele><time>2026-04-09T10:54:13.223Z</time></trkpt><trkpt lat="38.4673767" lon="16.2786283"><ele>1013.5</ele><time>2026-04-09T10:54:14.223Z</time></trkpt><trkpt lat="38.46747" lon="16.2787583"><ele>1012.75</ele><time>2026-04-09T10:54:15.223Z</time></trkpt><trkpt lat="38.4675733" lon="16.2788633"><ele>1012.0</ele><time>2026-04-09T10:54:16.223Z</time></trkpt><trkpt lat="38.4676783" lon="16.27894"><ele>1012.0</ele><time>2026-04-09T10:54:17.223Z</time></trkpt><trkpt lat="38.4677767" lon="16.2789967"><ele>1012.0</ele><time>2026-04-09T10:54:18.223Z</time></trkpt><trkpt lat="38.4678817" lon="16.2790517"><ele>1012.0</ele><time>2026-04-09T10:54:19.223Z</time></trkpt><trkpt lat="38.4679867" lon="16.2791233"><ele>1012.0</ele><time>2026-04-09T10:54:20.223Z</time></trkpt><trkpt lat="38.46808" lon="16.2792"><ele>1014.0</ele><time>2026-04-09T10:54:21.222Z</time></trkpt><trkpt lat="38.46818" lon="16.2792567"><ele>1016.0</ele><time>2026-04-09T10:54:22.223Z</time></trkpt><trkpt lat="38.468265" lon="16.27933"><ele>1018.0</ele><time>2026-04-09T10:54:23.222Z</time></trkpt><trkpt lat="38.468325" lon="16.279435"><ele>1020.0</ele><time>2026-04-09T10:54:24.223Z</time></trkpt><trkpt lat="38.4683633" lon="16.27956"><ele>1022.0</ele><time>2026-04-09T10:54:25.223Z</time></trkpt><trkpt lat="38.4683783" lon="16.2797017"><ele>1021.4000000000001</ele><time>2026-04-09T10:54:26.223Z</time></trkpt><trkpt lat="38.4683883" lon="16.2798367"><ele>1020.8000000000001</ele><time>2026-04-09T10:54:27.222Z</time></trkpt><trkpt lat="38.4683883" lon="16.2799867"><ele>1020.2</ele><time>2026-04-09T10:54:28.223Z</time></trkpt><trkpt lat="38.4684" lon="16.28013"><ele>1019.6</ele><time>2026-04-09T10:54:29.223Z</time></trkpt><trkpt lat="38.468425" lon="16.280265"><ele>1019.0</ele><time>2026-04-09T10:54:30.222Z</time></trkpt><trkpt lat="38.4684767" lon="16.280375"><ele>1019.0</ele><time>2026-04-09T10:54:31.223Z</time></trkpt><trkpt lat="38.4685567" lon="16.28047"><ele>1019.0000000000001</ele><time>2026-04-09T10:54:32.223Z</time></trkpt><trkpt lat="38.4686467" lon="16.2805467"><ele>1019.0000000000001</ele><time>2026-04-09T10:54:33.223Z</time></trkpt><trkpt lat="38.4687283" lon="16.2806333"><ele>1019.0</ele><time>2026-04-09T10:54:34.223Z</time></trkpt><trkpt lat="38.4688" lon="16.280745"><ele>1019.0</ele><time>2026-04-09T10:54:35.223Z</time></trkpt><trkpt lat="38.4688467" lon="16.2808683"><ele>1021.6</ele><time>2026-04-09T10:54:36.223Z</time></trkpt><trkpt lat="38.4688667" lon="16.2810017"><ele>1024.2</ele><time>2026-04-09T10:54:37.223Z</time></trkpt><trkpt lat="38.4688717" lon="16.2811433"><ele>1026.8000000000002</ele><time>2026-04-09T10:54:38.223Z</time></trkpt><trkpt lat="38.4688583" lon="16.2812783"><ele>1029.4</ele><time>2026-04-09T10:54:39.222Z</time></trkpt><trkpt lat="38.4688383" lon="16.2814133"><ele>1032.0</ele><time>2026-04-09T10:54:40.223Z</time></trkpt><trkpt lat="38.4688083" lon="16.281555"><ele>1032.75</ele><time>2026-04-09T10:54:41.223Z</time></trkpt><trkpt lat="38.4687767" lon="16.2817033"><ele>1033.5</ele><time>2026-04-09T10:54:42.223Z</time></trkpt><trkpt lat="38.4687533" lon="16.281865"><ele>1034.25</ele><time>2026-04-09T10:54:43.223Z</time></trkpt><trkpt lat="38.46875" lon="16.28204"><ele>1035.0</ele><time>2026-04-09T10:54:44.223Z</time></trkpt><trkpt lat="38.46876" lon="16.28221"><ele>1035.5</ele><time>2026-04-09T10:54:45.223Z</time></trkpt><trkpt lat="38.4687817" lon="16.2823867"><ele>1036.0</ele><time>2026-04-09T10:54:46.223Z</time></trkpt><trkpt lat="38.468805" lon="16.2825733"><ele>1036.5</ele><time>2026-04-09T10:54:47.223Z</time></trkpt><trkpt lat="38.4688333" lon="16.282745"><ele>1037.0</ele><time>2026-04-09T10:54:48.223Z</time></trkpt><trkpt lat="38.4688483" lon="16.2829167"><ele>1037.0</ele><time>2026-04-09T10:54:49.223Z</time></trkpt><trkpt lat="38.4688667" lon="16.283085"><ele>1037.0</ele><time>2026-04-09T10:54:50.223Z</time></trkpt><trkpt lat="38.4688983" lon="16.2832433"><ele>1037.0</ele><time>2026-04-09T10:54:51.222Z</time></trkpt><trkpt lat="38.4689433" lon="16.283395"><ele>1037.0</ele><time>2026-04-09T10:54:52.223Z</time></trkpt><trkpt lat="38.4690033" lon="16.2835383"><ele>1036.5</ele><time>2026-04-09T10:54:53.223Z</time></trkpt><trkpt lat="38.4690533" lon="16.2836617"><ele>1036.0</ele><time>2026-04-09T10:54:54.223Z</time></trkpt><trkpt lat="38.4691183" lon="16.2837617"><ele>1035.5</ele><time>2026-04-09T10:54:55.223Z</time></trkpt><trkpt lat="38.46919" lon="16.283825"><ele>1035.0</ele><time>2026-04-09T10:54:56.223Z</time></trkpt><trkpt lat="38.4692617" lon="16.28385"><ele>1034.5</ele><time>2026-04-09T10:54:57.223Z</time></trkpt><trkpt lat="38.4693367" lon="16.2838617"><ele>1034.0</ele><time>2026-04-09T10:54:58.223Z</time></trkpt><trkpt lat="38.46942" lon="16.283835"><ele>1034.0</ele><time>2026-04-09T10:54:59.223Z</time></trkpt><trkpt lat="38.4695033" lon="16.2837733"><ele>1034.0</ele><time>2026-04-09T10:55:00.223Z</time></trkpt><trkpt lat="38.469585" lon="16.2836983"><ele>1034.0</ele><time>2026-04-09T10:55:01.223Z</time></trkpt><trkpt lat="38.469665" lon="16.28362"><ele>1034.0</ele><time>2026-04-09T10:55:02.223Z</time></trkpt><trkpt lat="38.4697333" lon="16.2835633"><ele>1034.0</ele><time>2026-04-09T10:55:03.223Z</time></trkpt><trkpt lat="38.4697933" lon="16.283515"><ele>1034.8</ele><time>2026-04-09T10:55:04.222Z</time></trkpt><trkpt lat="38.469915" lon="16.2834817"><ele>1035.6000000000001</ele><time>2026-04-09T10:55:06.223Z</time></trkpt><trkpt lat="38.4700233" lon="16.2835217"><ele>1036.4</ele><time>2026-04-09T10:55:08.223Z</time></trkpt><trkpt lat="38.4700783" lon="16.2835733"><ele>1037.2</ele><time>2026-04-09T10:55:09.223Z</time></trkpt><trkpt lat="38.4701183" lon="16.2836583"><ele>1038.0</ele><time>2026-04-09T10:55:10.223Z</time></trkpt><trkpt lat="38.4701317" lon="16.2837683"><ele>1038.0</ele><time>2026-04-09T10:55:11.223Z</time></trkpt><trkpt lat="38.4701167" lon="16.2839"><ele>1038.0</ele><time>2026-04-09T10:55:12.223Z</time></trkpt><trkpt lat="38.47008" lon="16.2840717"><ele>1038.0</ele><time>2026-04-09T10:55:13.223Z</time></trkpt><trkpt lat="38.4700533" lon="16.2842417"><ele>1038.0</ele><time>2026-04-09T10:55:14.223Z</time></trkpt><trkpt lat="38.47005" lon="16.28441"><ele>1034.6</ele><time>2026-04-09T10:55:15.223Z</time></trkpt><trkpt lat="38.4700683" lon="16.284555"><ele>1031.1999999999998</ele><time>2026-04-09T10:55:16.223Z</time></trkpt><trkpt lat="38.4701133" lon="16.2846717"><ele>1027.8</ele><time>2026-04-09T10:55:17.223Z</time></trkpt><trkpt lat="38.4701867" lon="16.284765"><ele>1024.3999999999999</ele><time>2026-04-09T10:55:18.222Z</time></trkpt><trkpt lat="38.4702817" lon="16.284805"><ele>1021.0</ele><time>2026-04-09T10:55:19.223Z</time></trkpt><trkpt lat="38.4703833" lon="16.2848167"><ele>1019.8</ele><time>2026-04-09T10:55:20.223Z</time></trkpt><trkpt lat="38.470485" lon="16.2847667"><ele>1018.5999999999999</ele><time>2026-04-09T10:55:21.223Z</time></trkpt><trkpt lat="38.470575" lon="16.2846983"><ele>1017.4</ele><time>2026-04-09T10:55:22.223Z</time></trkpt><trkpt lat="38.4706583" lon="16.284625"><ele>1016.2</ele><time>2026-04-09T10:55:23.223Z</time></trkpt><trkpt lat="38.4707317" lon="16.2845483"><ele>1015.0</ele><time>2026-04-09T10:55:24.223Z</time></trkpt><trkpt lat="38.4708183" lon="16.284455"><ele>1017.6</ele><time>2026-04-09T10:55:25.223Z</time></trkpt><trkpt lat="38.470895" lon="16.2843467"><ele>1020.2</ele><time>2026-04-09T10:55:26.223Z</time></trkpt><trkpt lat="38.4709467" lon="16.284215"><ele>1022.8</ele><time>2026-04-09T10:55:27.223Z</time></trkpt><trkpt lat="38.4709917" lon="16.2840883"><ele>1025.4</ele><time>2026-04-09T10:55:28.223Z</time></trkpt><trkpt lat="38.4710367" lon="16.283975"><ele>1028.0</ele><time>2026-04-09T10:55:29.222Z</time></trkpt><trkpt lat="38.471085" lon="16.2838717"><ele>1027.6666666666667</ele><time>2026-04-09T10:55:30.223Z</time></trkpt><trkpt lat="38.471145" lon="16.28378"><ele>1027.3333333333335</ele><time>2026-04-09T10:55:31.223Z</time></trkpt><trkpt lat="38.4711983" lon="16.2837117"><ele>1027.0</ele><time>2026-04-09T10:55:32.223Z</time></trkpt><trkpt lat="38.471285" lon="16.283665"><ele>1026.6666666666667</ele><time>2026-04-09T10:55:33.223Z</time></trkpt><trkpt lat="38.4713667" lon="16.283635"><ele>1026.3333333333333</ele><time>2026-04-09T10:55:34.223Z</time></trkpt><trkpt lat="38.47144" lon="16.28363"><ele>1026.0</ele><time>2026-04-09T10:55:35.222Z</time></trkpt><trkpt lat="38.4715067" lon="16.2836533"><ele>1026.0</ele><time>2026-04-09T10:55:36.223Z</time></trkpt><trkpt lat="38.4715983" lon="16.2836767"><ele>1026.0</ele><time>2026-04-09T10:55:37.222Z</time></trkpt><trkpt lat="38.4717083" lon="16.2837117"><ele>1026.0</ele><time>2026-04-09T10:55:38.222Z</time></trkpt><trkpt lat="38.4718317" lon="16.2837383"><ele>1026.0</ele><time>2026-04-09T10:55:39.223Z</time></trkpt><trkpt lat="38.471945" lon="16.2837433"><ele>1026.0</ele><time>2026-04-09T10:55:40.222Z</time></trkpt><trkpt lat="38.4720333" lon="16.28372"><ele>1021.4</ele><time>2026-04-09T10:55:41.223Z</time></trkpt><trkpt lat="38.4721383" lon="16.2836667"><ele>1016.8</ele><time>2026-04-09T10:55:42.223Z</time></trkpt><trkpt lat="38.4722367" lon="16.28358"><ele>1012.1999999999999</ele><time>2026-04-09T10:55:43.223Z</time></trkpt><trkpt lat="38.4723083" lon="16.2834733"><ele>1007.5999999999999</ele><time>2026-04-09T10:55:44.223Z</time></trkpt><trkpt lat="38.4723667" lon="16.2833617"><ele>1003.0</ele><time>2026-04-09T10:55:45.222Z</time></trkpt><trkpt lat="38.4724083" lon="16.28325"><ele>1003.0</ele><time>2026-04-09T10:55:46.223Z</time></trkpt><trkpt lat="38.472445" lon="16.283135"><ele>1003.0</ele><time>2026-04-09T10:55:47.223Z</time></trkpt><trkpt lat="38.472465" lon="16.2830133"><ele>1003.0</ele><time>2026-04-09T10:55:48.222Z</time></trkpt><trkpt lat="38.472485" lon="16.28288"><ele>1003.0</ele><time>2026-04-09T10:55:49.223Z</time></trkpt><trkpt lat="38.4724817" lon="16.2827467"><ele>1003.0</ele><time>2026-04-09T10:55:50.222Z</time></trkpt><trkpt lat="38.472495" lon="16.2826033"><ele>1004.25</ele><time>2026-04-09T10:55:51.222Z</time></trkpt><trkpt lat="38.4724933" lon="16.2824583"><ele>1005.5</ele><time>2026-04-09T10:55:52.223Z</time></trkpt><trkpt lat="38.4725" lon="16.2823083"><ele>1006.75</ele><time>2026-04-09T10:55:53.222Z</time></trkpt><trkpt lat="38.4724933" lon="16.28216"><ele>1008.0</ele><time>2026-04-09T10:55:54.223Z</time></trkpt><trkpt lat="38.472495" lon="16.2820133"><ele>1009.25</ele><time>2026-04-09T10:55:55.223Z</time></trkpt><trkpt lat="38.4724983" lon="16.28187"><ele>1010.5</ele><time>2026-04-09T10:55:56.223Z</time></trkpt><trkpt lat="38.4725133" lon="16.2817217"><ele>1011.75</ele><time>2026-04-09T10:55:57.223Z</time></trkpt><trkpt lat="38.4725267" lon="16.2815783"><ele>1013.0</ele><time>2026-04-09T10:55:58.223Z</time></trkpt><trkpt lat="38.4725367" lon="16.2814417"><ele>1012.8333333333334</ele><time>2026-04-09T10:55:59.222Z</time></trkpt><trkpt lat="38.47255" lon="16.2813133"><ele>1012.6666666666667</ele><time>2026-04-09T10:56:00.223Z</time></trkpt><trkpt lat="38.472575" lon="16.2812067"><ele>1012.5</ele><time>2026-04-09T10:56:01.223Z</time></trkpt><trkpt lat="38.4726117" lon="16.2811133"><ele>1012.3333333333333</ele><time>2026-04-09T10:56:02.223Z</time></trkpt><trkpt lat="38.4726367" lon="16.2810367"><ele>1012.1666666666666</ele><time>2026-04-09T10:56:03.222Z</time></trkpt><trkpt lat="38.4726833" lon="16.2809667"><ele>1012.0</ele><time>2026-04-09T10:56:05.223Z</time></trkpt><trkpt lat="38.4727833" lon="16.280975"><ele>1012.0</ele><time>2026-04-09T10:56:07.222Z</time></trkpt><trkpt lat="38.4728433" lon="16.2810017"><ele>1012.0</ele><time>2026-04-09T10:56:08.223Z</time></trkpt><trkpt lat="38.472925" lon="16.28105"><ele>1012.0</ele><time>2026-04-09T10:56:09.223Z</time></trkpt><trkpt lat="38.4730083" lon="16.28112"><ele>1012.0</ele><time>2026-04-09T10:56:10.223Z</time></trkpt><trkpt lat="38.4731067" lon="16.2812"><ele>1012.0</ele><time>2026-04-09T10:56:11.223Z</time></trkpt><trkpt lat="38.473195" lon="16.2812917"><ele>1010.25</ele><time>2026-04-09T10:56:12.223Z</time></trkpt><trkpt lat="38.473305" lon="16.28139"><ele>1008.5</ele><time>2026-04-09T10:56:13.222Z</time></trkpt><trkpt lat="38.47343" lon="16.2814867"><ele>1006.75</ele><time>2026-04-09T10:56:14.223Z</time></trkpt><trkpt lat="38.4735483" lon="16.2815817"><ele>1005.0</ele><time>2026-04-09T10:56:15.223Z</time></trkpt><trkpt lat="38.47369" lon="16.28169"><ele>1005.75</ele><time>2026-04-09T10:56:16.223Z</time></trkpt><trkpt lat="38.473815" lon="16.281795"><ele>1006.5</ele><time>2026-04-09T10:56:17.223Z</time></trkpt><trkpt lat="38.4739183" lon="16.2819083"><ele>1007.25</ele><time>2026-04-09T10:56:18.223Z</time></trkpt><trkpt lat="38.4740033" lon="16.2820317"><ele>1008.0</ele><time>2026-04-09T10:56:19.223Z</time></trkpt><trkpt lat="38.4740733" lon="16.28217"><ele>1007.25</ele><time>2026-04-09T10:56:20.223Z</time></trkpt><trkpt lat="38.4741233" lon="16.2823183"><ele>1006.5</ele><time>2026-04-09T10:56:21.223Z</time></trkpt><trkpt lat="38.4741433" lon="16.282505"><ele>1005.75</ele><time>2026-04-09T10:56:22.223Z</time></trkpt><trkpt lat="38.4741683" lon="16.2826933"><ele>1005.0</ele><time>2026-04-09T10:56:23.223Z</time></trkpt><trkpt lat="38.4742" lon="16.2828617"><ele>1005.0</ele><time>2026-04-09T10:56:24.223Z</time></trkpt><trkpt lat="38.4742333" lon="16.28302"><ele>1005.0</ele><time>2026-04-09T10:56:25.223Z</time></trkpt><trkpt lat="38.4742733" lon="16.283175"><ele>1005.0</ele><time>2026-04-09T10:56:26.223Z</time></trkpt><trkpt lat="38.4743283" lon="16.2833233"><ele>1005.0</ele><time>2026-04-09T10:56:27.223Z</time></trkpt><trkpt lat="38.47439" lon="16.2834583"><ele>1005.4</ele><time>2026-04-09T10:56:28.223Z</time></trkpt><trkpt lat="38.47444" lon="16.283575"><ele>1005.8</ele><time>2026-04-09T10:56:29.223Z</time></trkpt><trkpt lat="38.4745" lon="16.2836733"><ele>1006.2</ele><time>2026-04-09T10:56:30.223Z</time></trkpt><trkpt lat="38.4745783" lon="16.2837583"><ele>1006.6</ele><time>2026-04-09T10:56:31.223Z</time></trkpt><trkpt lat="38.4746683" lon="16.2838167"><ele>1007.0</ele><time>2026-04-09T10:56:32.223Z</time></trkpt><trkpt lat="38.4747533" lon="16.2838617"><ele>1007.0</ele><time>2026-04-09T10:56:33.223Z</time></trkpt><trkpt lat="38.4748633" lon="16.2839"><ele>1007.0</ele><time>2026-04-09T10:56:34.223Z</time></trkpt><trkpt lat="38.4749717" lon="16.2839067"><ele>1007.0</ele><time>2026-04-09T10:56:35.223Z</time></trkpt><trkpt lat="38.4750783" lon="16.2839"><ele>1007.0</ele><time>2026-04-09T10:56:36.223Z</time></trkpt><trkpt lat="38.4751883" lon="16.2838733"><ele>1007.0</ele><time>2026-04-09T10:56:37.222Z</time></trkpt><trkpt lat="38.4752983" lon="16.2838367"><ele>1007.0</ele><time>2026-04-09T10:56:38.223Z</time></trkpt><trkpt lat="38.4754" lon="16.2838033"><ele>1007.0</ele><time>2026-04-09T10:56:39.223Z</time></trkpt><trkpt lat="38.4755067" lon="16.2837683"><ele>1007.0</ele><time>2026-04-09T10:56:40.223Z</time></trkpt><trkpt lat="38.475605" lon="16.2837267"><ele>1007.0</ele><time>2026-04-09T10:56:41.223Z</time></trkpt><trkpt lat="38.4756983" lon="16.283675"><ele>1007.0</ele><time>2026-04-09T10:56:42.222Z</time></trkpt><trkpt lat="38.4757917" lon="16.283595"><ele>1004.5</ele><time>2026-04-09T10:56:43.223Z</time></trkpt><trkpt lat="38.4758783" lon="16.2834867"><ele>1002.0</ele><time>2026-04-09T10:56:44.223Z</time></trkpt><trkpt lat="38.4759583" lon="16.2833683"><ele>999.5</ele><time>2026-04-09T10:56:45.223Z</time></trkpt><trkpt lat="38.47604" lon="16.2832567"><ele>997.0</ele><time>2026-04-09T10:56:46.223Z</time></trkpt><trkpt lat="38.4761133" lon="16.283155"><ele>998.0</ele><time>2026-04-09T10:56:47.222Z</time></trkpt><trkpt lat="38.4761867" lon="16.2830483"><ele>999.0</ele><time>2026-04-09T10:56:48.223Z</time></trkpt><trkpt lat="38.47625" lon="16.28294"><ele>1000.0</ele><time>2026-04-09T10:56:49.223Z</time></trkpt><trkpt lat="38.4762867" lon="16.282815"><ele>1001.0</ele><time>2026-04-09T10:56:50.223Z</time></trkpt><trkpt lat="38.4763067" lon="16.2826867"><ele>1002.0</ele><time>2026-04-09T10:56:51.223Z</time></trkpt><trkpt lat="38.4763167" lon="16.28256"><ele>1003.6</ele><time>2026-04-09T10:56:52.223Z</time></trkpt><trkpt lat="38.4763083" lon="16.282415"><ele>1005.2</ele><time>2026-04-09T10:56:53.223Z</time></trkpt><trkpt lat="38.4762917" lon="16.2822783"><ele>1006.8</ele><time>2026-04-09T10:56:54.222Z</time></trkpt><trkpt lat="38.47628" lon="16.2821383"><ele>1008.4</ele><time>2026-04-09T10:56:55.223Z</time></trkpt><trkpt lat="38.4762717" lon="16.2819967"><ele>1010.0</ele><time>2026-04-09T10:56:56.223Z</time></trkpt><trkpt lat="38.4762683" lon="16.2818383"><ele>1006.5</ele><time>2026-04-09T10:56:57.223Z</time></trkpt><trkpt lat="38.4762933" lon="16.2816867"><ele>1003.0</ele><time>2026-04-09T10:56:58.223Z</time></trkpt><trkpt lat="38.4763517" lon="16.2815667"><ele>999.5</ele><time>2026-04-09T10:56:59.223Z</time></trkpt><trkpt lat="38.4764267" lon="16.2814483"><ele>996.0</ele><time>2026-04-09T10:57:00.223Z</time></trkpt><trkpt lat="38.4765133" lon="16.28135"><ele>996.0</ele><time>2026-04-09T10:57:01.223Z</time></trkpt><trkpt lat="38.4766017" lon="16.2812617"><ele>996.0</ele><time>2026-04-09T10:57:02.223Z</time></trkpt><trkpt lat="38.4766933" lon="16.281165"><ele>996.0</ele><time>2026-04-09T10:57:03.222Z</time></trkpt><trkpt lat="38.47678" lon="16.281055"><ele>996.0</ele><time>2026-04-09T10:57:04.223Z</time></trkpt><trkpt lat="38.476855" lon="16.2809417"><ele>996.0</ele><time>2026-04-09T10:57:05.223Z</time></trkpt><trkpt lat="38.4769117" lon="16.2808117"><ele>996.0</ele><time>2026-04-09T10:57:06.223Z</time></trkpt><trkpt lat="38.4769517" lon="16.280685"><ele>996.0</ele><time>2026-04-09T10:57:07.223Z</time></trkpt><trkpt lat="38.477015" lon="16.280545"><ele>996.0</ele><time>2026-04-09T10:57:08.223Z</time></trkpt><trkpt lat="38.4770833" lon="16.28041"><ele>992.5999999999999</ele><time>2026-04-09T10:57:09.222Z</time></trkpt><trkpt lat="38.4771583" lon="16.2802883"><ele>989.1999999999999</ele><time>2026-04-09T10:57:10.223Z</time></trkpt><trkpt lat="38.4772367" lon="16.2801767"><ele>985.8000000000001</ele><time>2026-04-09T10:57:11.223Z</time></trkpt><trkpt lat="38.477315" lon="16.28009"><ele>982.4000000000001</ele><time>2026-04-09T10:57:12.223Z</time></trkpt><trkpt lat="38.477395" lon="16.28002"><ele>979.0</ele><time>2026-04-09T10:57:13.223Z</time></trkpt><trkpt lat="38.4774767" lon="16.279985"><ele>978.9999999999999</ele><time>2026-04-09T10:57:14.223Z</time></trkpt><trkpt lat="38.4775583" lon="16.2799883"><ele>979.0</ele><time>2026-04-09T10:57:15.223Z</time></trkpt><trkpt lat="38.4776367" lon="16.2800317"><ele>979.0</ele><time>2026-04-09T10:57:16.223Z</time></trkpt><trkpt lat="38.4777183" lon="16.28008"><ele>979.0</ele><time>2026-04-09T10:57:17.223Z</time></trkpt><trkpt lat="38.4777967" lon="16.2801533"><ele>978.9999999999999</ele><time>2026-04-09T10:57:18.223Z</time></trkpt><trkpt lat="38.4778683" lon="16.2802317"><ele>979.0</ele><time>2026-04-09T10:57:19.223Z</time></trkpt><trkpt lat="38.4779267" lon="16.2803317"><ele>979.6</ele><time>2026-04-09T10:57:20.223Z</time></trkpt><trkpt lat="38.477965" lon="16.2804717"><ele>980.2</ele><time>2026-04-09T10:57:21.223Z</time></trkpt><trkpt lat="38.4779817" lon="16.2805917"><ele>980.8000000000001</ele><time>2026-04-09T10:57:22.223Z</time></trkpt><trkpt lat="38.4779983" lon="16.2807217"><ele>981.4000000000001</ele><time>2026-04-09T10:57:23.223Z</time></trkpt><trkpt lat="38.4779933" lon="16.280875"><ele>982.0</ele><time>2026-04-09T10:57:24.223Z</time></trkpt><trkpt lat="38.4780083" lon="16.2810083"><ele>982.25</ele><time>2026-04-09T10:57:25.223Z</time></trkpt><trkpt lat="38.4780383" lon="16.28116"><ele>982.5</ele><time>2026-04-09T10:57:26.223Z</time></trkpt><trkpt lat="38.4780883" lon="16.2813233"><ele>982.75</ele><time>2026-04-09T10:57:27.223Z</time></trkpt><trkpt lat="38.4781367" lon="16.2815067"><ele>983.0</ele><time>2026-04-09T10:57:28.223Z</time></trkpt><trkpt lat="38.4781983" lon="16.2816933"><ele>982.3333333333334</ele><time>2026-04-09T10:57:29.223Z</time></trkpt><trkpt lat="38.47827" lon="16.2818767"><ele>981.6666666666667</ele><time>2026-04-09T10:57:30.223Z</time></trkpt><trkpt lat="38.478345" lon="16.2820667"><ele>981.0</ele><time>2026-04-09T10:57:31.223Z</time></trkpt><trkpt lat="38.47844" lon="16.2822333"><ele>980.0</ele><time>2026-04-09T10:57:32.223Z</time></trkpt><trkpt lat="38.4785333" lon="16.2824033"><ele>979.0</ele><time>2026-04-09T10:57:33.223Z</time></trkpt><trkpt lat="38.4786183" lon="16.2825617"><ele>978.0</ele><time>2026-04-09T10:57:34.223Z</time></trkpt><trkpt lat="38.4786867" lon="16.2827067"><ele>977.0</ele><time>2026-04-09T10:57:35.223Z</time></trkpt><trkpt lat="38.478745" lon="16.2828267"><ele>977.8333333333334</ele><time>2026-04-09T10:57:36.223Z</time></trkpt><trkpt lat="38.4788017" lon="16.282925"><ele>978.6666666666667</ele><time>2026-04-09T10:57:37.223Z</time></trkpt><trkpt lat="38.4788683" lon="16.2829883"><ele>979.5</ele><time>2026-04-09T10:57:38.223Z</time></trkpt><trkpt lat="38.4789417" lon="16.2830367"><ele>980.3333333333333</ele><time>2026-04-09T10:57:39.223Z</time></trkpt><trkpt lat="38.479015" lon="16.2830633"><ele>981.1666666666666</ele><time>2026-04-09T10:57:40.223Z</time></trkpt><trkpt lat="38.4791" lon="16.2830817"><ele>982.0</ele><time>2026-04-09T10:57:41.222Z</time></trkpt><trkpt lat="38.4792017" lon="16.2830767"><ele>982.0</ele><time>2026-04-09T10:57:42.223Z</time></trkpt><trkpt lat="38.4793017" lon="16.2830517"><ele>982.0</ele><time>2026-04-09T10:57:43.223Z</time></trkpt><trkpt lat="38.4794117" lon="16.2830267"><ele>982.0</ele><time>2026-04-09T10:57:44.223Z</time></trkpt><trkpt lat="38.4795167" lon="16.2829883"><ele>982.0</ele><time>2026-04-09T10:57:45.223Z</time></trkpt><trkpt lat="38.4796167" lon="16.2829283"><ele>982.0</ele><time>2026-04-09T10:57:46.223Z</time></trkpt><trkpt lat="38.4797033" lon="16.2828533"><ele>980.8</ele><time>2026-04-09T10:57:47.223Z</time></trkpt><trkpt lat="38.4797767" lon="16.282755"><ele>979.6</ele><time>2026-04-09T10:57:48.223Z</time></trkpt><trkpt lat="38.4798467" lon="16.2826517"><ele>978.3999999999999</ele><time>2026-04-09T10:57:49.223Z</time></trkpt><trkpt lat="38.4799117" lon="16.282555"><ele>977.1999999999999</ele><time>2026-04-09T10:57:50.223Z</time></trkpt><trkpt lat="38.4799683" lon="16.28248"><ele>976.0</ele><time>2026-04-09T10:57:51.223Z</time></trkpt><trkpt lat="38.4800233" lon="16.2824217"><ele>975.9999999999999</ele><time>2026-04-09T10:57:52.223Z</time></trkpt><trkpt lat="38.4800917" lon="16.2823583"><ele>976.0</ele><time>2026-04-09T10:57:53.223Z</time></trkpt><trkpt lat="38.4801717" lon="16.2823217"><ele>976.0</ele><time>2026-04-09T10:57:54.223Z</time></trkpt><trkpt lat="38.4802467" lon="16.2822967"><ele>976.0</ele><time>2026-04-09T10:57:55.223Z</time></trkpt><trkpt lat="38.4803233" lon="16.282265"><ele>975.9999999999999</ele><time>2026-04-09T10:57:56.223Z</time></trkpt><trkpt lat="38.4804133" lon="16.2822167"><ele>976.0</ele><time>2026-04-09T10:57:57.223Z</time></trkpt><trkpt lat="38.4805183" lon="16.2821617"><ele>976.0</ele><time>2026-04-09T10:57:58.223Z</time></trkpt><trkpt lat="38.480625" lon="16.2821167"><ele>975.9999999999999</ele><time>2026-04-09T10:57:59.223Z</time></trkpt><trkpt lat="38.4807367" lon="16.2820717"><ele>975.9999999999999</ele><time>2026-04-09T10:58:00.223Z</time></trkpt><trkpt lat="38.4808433" lon="16.282045"><ele>976.0</ele><time>2026-04-09T10:58:01.223Z</time></trkpt><trkpt lat="38.4809533" lon="16.2820283"><ele>976.0</ele><time>2026-04-09T10:58:02.222Z</time></trkpt><trkpt lat="38.4810667" lon="16.282025"><ele>976.0</ele><time>2026-04-09T10:58:03.223Z</time></trkpt><trkpt lat="38.4811883" lon="16.2820383"><ele>976.0</ele><time>2026-04-09T10:58:04.223Z</time></trkpt><trkpt lat="38.4813183" lon="16.2820483"><ele>976.0</ele><time>2026-04-09T10:58:05.222Z</time></trkpt><trkpt lat="38.4814467" lon="16.28206"><ele>976.0</ele><time>2026-04-09T10:58:06.223Z</time></trkpt><trkpt lat="38.4815833" lon="16.2820767"><ele>976.25</ele><time>2026-04-09T10:58:07.223Z</time></trkpt><trkpt lat="38.4817083" lon="16.282115"><ele>976.5</ele><time>2026-04-09T10:58:08.223Z</time></trkpt><trkpt lat="38.48184" lon="16.282155"><ele>976.75</ele><time>2026-04-09T10:58:09.223Z</time></trkpt><trkpt lat="38.48195" lon="16.2822"><ele>977.0</ele><time>2026-04-09T10:58:10.223Z</time></trkpt><trkpt lat="38.4820633" lon="16.2822533"><ele>974.5000000000001</ele><time>2026-04-09T10:58:11.223Z</time></trkpt><trkpt lat="38.4821533" lon="16.282315"><ele>972.0</ele><time>2026-04-09T10:58:12.223Z</time></trkpt><trkpt lat="38.4822183" lon="16.282385"><ele>969.5</ele><time>2026-04-09T10:58:13.223Z</time></trkpt><trkpt lat="38.482275" lon="16.2824617"><ele>967.0</ele><time>2026-04-09T10:58:14.223Z</time></trkpt><trkpt lat="38.4823183" lon="16.2825417"><ele>964.5000000000001</ele><time>2026-04-09T10:58:15.223Z</time></trkpt><trkpt lat="38.4823567" lon="16.2826417"><ele>962.0</ele><time>2026-04-09T10:58:16.223Z</time></trkpt><trkpt lat="38.4824033" lon="16.2827617"><ele>962.0</ele><time>2026-04-09T10:58:17.223Z</time></trkpt><trkpt lat="38.4824517" lon="16.28289"><ele>962.0</ele><time>2026-04-09T10:58:18.223Z</time></trkpt><trkpt lat="38.4825017" lon="16.2830233"><ele>962.0</ele><time>2026-04-09T10:58:19.223Z</time></trkpt><trkpt lat="38.482555" lon="16.28316"><ele>962.0</ele><time>2026-04-09T10:58:20.223Z</time></trkpt><trkpt lat="38.4826067" lon="16.283275"><ele>960.5</ele><time>2026-04-09T10:58:21.223Z</time></trkpt><trkpt lat="38.4826667" lon="16.2834017"><ele>959.0</ele><time>2026-04-09T10:58:22.223Z</time></trkpt><trkpt lat="38.482735" lon="16.28352"><ele>957.5</ele><time>2026-04-09T10:58:23.223Z</time></trkpt><trkpt lat="38.48281" lon="16.2836383"><ele>956.0</ele><time>2026-04-09T10:58:24.223Z</time></trkpt><trkpt lat="38.4828817" lon="16.283745"><ele>956.5999999999999</ele><time>2026-04-09T10:58:25.222Z</time></trkpt><trkpt lat="38.48294" lon="16.28385"><ele>957.1999999999999</ele><time>2026-04-09T10:58:26.222Z</time></trkpt><trkpt lat="38.483" lon="16.2839667"><ele>957.8000000000001</ele><time>2026-04-09T10:58:27.223Z</time></trkpt><trkpt lat="38.48305" lon="16.2840833"><ele>958.4000000000001</ele><time>2026-04-09T10:58:28.223Z</time></trkpt><trkpt lat="38.4830883" lon="16.2841933"><ele>959.0</ele><time>2026-04-09T10:58:29.223Z</time></trkpt><trkpt lat="38.4831333" lon="16.2842883"><ele>959.0000000000001</ele><time>2026-04-09T10:58:30.223Z</time></trkpt><trkpt lat="38.4831783" lon="16.2843733"><ele>959.0</ele><time>2026-04-09T10:58:31.223Z</time></trkpt><trkpt lat="38.4832383" lon="16.2844417"><ele>959.0</ele><time>2026-04-09T10:58:32.223Z</time></trkpt><trkpt lat="38.4833017" lon="16.284505"><ele>959.0</ele><time>2026-04-09T10:58:33.223Z</time></trkpt><trkpt lat="38.48338" lon="16.2845533"><ele>959.0000000000001</ele><time>2026-04-09T10:58:34.223Z</time></trkpt><trkpt lat="38.4834633" lon="16.284585"><ele>959.0</ele><time>2026-04-09T10:58:35.223Z</time></trkpt><trkpt lat="38.483555" lon="16.28461"><ele>959.0</ele><time>2026-04-09T10:58:36.222Z</time></trkpt><trkpt lat="38.48366" lon="16.2846417"><ele>959.0</ele><time>2026-04-09T10:58:37.223Z</time></trkpt><trkpt lat="38.483775" lon="16.2846817"><ele>959.0</ele><time>2026-04-09T10:58:38.223Z</time></trkpt><trkpt lat="38.483895" lon="16.2847367"><ele>959.0</ele><time>2026-04-09T10:58:39.223Z</time></trkpt><trkpt lat="38.484015" lon="16.2848017"><ele>961.25</ele><time>2026-04-09T10:58:40.223Z</time></trkpt><trkpt lat="38.4841167" lon="16.2848717"><ele>963.5</ele><time>2026-04-09T10:58:41.223Z</time></trkpt><trkpt lat="38.4842217" lon="16.2849433"><ele>965.75</ele><time>2026-04-09T10:58:42.223Z</time></trkpt><trkpt lat="38.4843333" lon="16.2850083"><ele>968.0</ele><time>2026-04-09T10:58:43.223Z</time></trkpt><trkpt lat="38.4844467" lon="16.2850717"><ele>968.0</ele><time>2026-04-09T10:58:44.223Z</time></trkpt><trkpt lat="38.48458" lon="16.2851417"><ele>968.0</ele><time>2026-04-09T10:58:45.223Z</time></trkpt><trkpt lat="38.484725" lon="16.2852017"><ele>968.0</ele><time>2026-04-09T10:58:46.223Z</time></trkpt><trkpt lat="38.484855" lon="16.2852583"><ele>968.0</ele><time>2026-04-09T10:58:47.223Z</time></trkpt><trkpt lat="38.4849917" lon="16.2853133"><ele>967.4</ele><time>2026-04-09T10:58:48.223Z</time></trkpt><trkpt lat="38.4851033" lon="16.2853783"><ele>966.8</ele><time>2026-04-09T10:58:49.223Z</time></trkpt><trkpt lat="38.4852067" lon="16.28542"><ele>966.2</ele><time>2026-04-09T10:58:50.223Z</time></trkpt><trkpt lat="38.4853167" lon="16.2854517"><ele>965.6</ele><time>2026-04-09T10:58:51.222Z</time></trkpt><trkpt lat="38.4854217" lon="16.2854517"><ele>965.0</ele><time>2026-04-09T10:58:52.222Z</time></trkpt><trkpt lat="38.48553" lon="16.2854283"><ele>964.8</ele><time>2026-04-09T10:58:53.223Z</time></trkpt><trkpt lat="38.485645" lon="16.2853833"><ele>964.6</ele><time>2026-04-09T10:58:54.223Z</time></trkpt><trkpt lat="38.48576" lon="16.285345"><ele>964.4000000000001</ele><time>2026-04-09T10:58:55.223Z</time></trkpt><trkpt lat="38.4858583" lon="16.2853383"><ele>964.2</ele><time>2026-04-09T10:58:56.223Z</time></trkpt><trkpt lat="38.4859533" lon="16.285345"><ele>964.0</ele><time>2026-04-09T10:58:57.222Z</time></trkpt><trkpt lat="38.486045" lon="16.2853667"><ele>964.0</ele><time>2026-04-09T10:58:58.223Z</time></trkpt><trkpt lat="38.4861417" lon="16.28539"><ele>964.0000000000001</ele><time>2026-04-09T10:58:59.223Z</time></trkpt><trkpt lat="38.4862317" lon="16.285415"><ele>964.0000000000001</ele><time>2026-04-09T10:59:00.223Z</time></trkpt><trkpt lat="38.4863133" lon="16.28544"><ele>964.0</ele><time>2026-04-09T10:59:01.222Z</time></trkpt><trkpt lat="38.486405" lon="16.2854633"><ele>964.0</ele><time>2026-04-09T10:59:02.223Z</time></trkpt><trkpt lat="38.4864883" lon="16.2854967"><ele>964.4000000000001</ele><time>2026-04-09T10:59:03.223Z</time></trkpt><trkpt lat="38.4865733" lon="16.2855267"><ele>964.8000000000001</ele><time>2026-04-09T10:59:04.222Z</time></trkpt><trkpt lat="38.48666" lon="16.2855567"><ele>965.1999999999999</ele><time>2026-04-09T10:59:05.223Z</time></trkpt><trkpt lat="38.4867467" lon="16.2855933"><ele>965.5999999999999</ele><time>2026-04-09T10:59:06.223Z</time></trkpt><trkpt lat="38.48685" lon="16.285645"><ele>966.0</ele><time>2026-04-09T10:59:07.223Z</time></trkpt><trkpt lat="38.48696" lon="16.285695"><ele>966.0</ele><time>2026-04-09T10:59:08.222Z</time></trkpt><trkpt lat="38.4870783" lon="16.2857533"><ele>966.0</ele><time>2026-04-09T10:59:09.223Z</time></trkpt><trkpt lat="38.4871917" lon="16.2857983"><ele>966.0</ele><time>2026-04-09T10:59:10.223Z</time></trkpt><trkpt lat="38.4872933" lon="16.2858517"><ele>966.0</ele><time>2026-04-09T10:59:11.223Z</time></trkpt><trkpt lat="38.4873883" lon="16.2859183"><ele>965.0</ele><time>2026-04-09T10:59:12.223Z</time></trkpt><trkpt lat="38.48748" lon="16.2860017"><ele>963.9999999999999</ele><time>2026-04-09T10:59:13.223Z</time></trkpt><trkpt lat="38.4875583" lon="16.2860967"><ele>962.9999999999999</ele><time>2026-04-09T10:59:14.223Z</time></trkpt><trkpt lat="38.48763" lon="16.286205"><ele>962.0</ele><time>2026-04-09T10:59:15.223Z</time></trkpt><trkpt lat="38.487685" lon="16.28631"><ele>961.0</ele><time>2026-04-09T10:59:16.223Z</time></trkpt><trkpt lat="38.487725" lon="16.2864317"><ele>960.1999999999999</ele><time>2026-04-09T10:59:17.223Z</time></trkpt><trkpt lat="38.4877467" lon="16.28655"><ele>959.3999999999999</ele><time>2026-04-09T10:59:18.223Z</time></trkpt><trkpt lat="38.4877533" lon="16.2866783"><ele>958.6</ele><time>2026-04-09T10:59:19.223Z</time></trkpt><trkpt lat="38.4877467" lon="16.2868"><ele>957.8</ele><time>2026-04-09T10:59:20.223Z</time></trkpt><trkpt lat="38.487735" lon="16.286925"><ele>957.0</ele><time>2026-04-09T10:59:21.223Z</time></trkpt><trkpt lat="38.4877283" lon="16.2870517"><ele>957.0</ele><time>2026-04-09T10:59:22.223Z</time></trkpt><trkpt lat="38.4877167" lon="16.2871783"><ele>957.0</ele><time>2026-04-09T10:59:23.223Z</time></trkpt><trkpt lat="38.4877017" lon="16.2873083"><ele>957.0</ele><time>2026-04-09T10:59:24.223Z</time></trkpt><trkpt lat="38.4876833" lon="16.2874483"><ele>957.0</ele><time>2026-04-09T10:59:25.223Z</time></trkpt><trkpt lat="38.487655" lon="16.2876"><ele>957.0</ele><time>2026-04-09T10:59:26.223Z</time></trkpt><trkpt lat="38.487625" lon="16.2877517"><ele>956.75</ele><time>2026-04-09T10:59:27.223Z</time></trkpt><trkpt lat="38.4875933" lon="16.2879167"><ele>956.5</ele><time>2026-04-09T10:59:28.223Z</time></trkpt><trkpt lat="38.48756" lon="16.28808"><ele>956.25</ele><time>2026-04-09T10:59:29.223Z</time></trkpt><trkpt lat="38.487525" lon="16.28825"><ele>956.0</ele><time>2026-04-09T10:59:30.223Z</time></trkpt><trkpt lat="38.487475" lon="16.28842"><ele>956.25</ele><time>2026-04-09T10:59:31.223Z</time></trkpt><trkpt lat="38.4874267" lon="16.2885917"><ele>956.5</ele><time>2026-04-09T10:59:32.223Z</time></trkpt><trkpt lat="38.487385" lon="16.2887783"><ele>956.75</ele><time>2026-04-09T10:59:33.223Z</time></trkpt><trkpt lat="38.48734" lon="16.2889617"><ele>957.0</ele><time>2026-04-09T10:59:34.223Z</time></trkpt><trkpt lat="38.487295" lon="16.2891433"><ele>957.0</ele><time>2026-04-09T10:59:35.223Z</time></trkpt><trkpt lat="38.4872517" lon="16.2893267"><ele>957.0</ele><time>2026-04-09T10:59:36.223Z</time></trkpt><trkpt lat="38.4872067" lon="16.2895083"><ele>957.0</ele><time>2026-04-09T10:59:37.223Z</time></trkpt><trkpt lat="38.487165" lon="16.2896967"><ele>957.0</ele><time>2026-04-09T10:59:38.223Z</time></trkpt><trkpt lat="38.4871283" lon="16.2898833"><ele>957.0</ele><time>2026-04-09T10:59:39.223Z</time></trkpt><trkpt lat="38.4871167" lon="16.2900617"><ele>957.0</ele><time>2026-04-09T10:59:40.223Z</time></trkpt><trkpt lat="38.4871117" lon="16.2902333"><ele>957.0</ele><time>2026-04-09T10:59:41.223Z</time></trkpt><trkpt lat="38.4871067" lon="16.2904117"><ele>955.5</ele><time>2026-04-09T10:59:42.223Z</time></trkpt><trkpt lat="38.4870933" lon="16.2905867"><ele>954.0</ele><time>2026-04-09T10:59:43.223Z</time></trkpt><trkpt lat="38.487075" lon="16.29075"><ele>952.5</ele><time>2026-04-09T10:59:44.223Z</time></trkpt><trkpt lat="38.48705" lon="16.2909067"><ele>951.0</ele><time>2026-04-09T10:59:45.222Z</time></trkpt><trkpt lat="38.48703" lon="16.2910567"><ele>951.0</ele><time>2026-04-09T10:59:46.223Z</time></trkpt><trkpt lat="38.4870117" lon="16.2912133"><ele>951.0</ele><time>2026-04-09T10:59:47.223Z</time></trkpt><trkpt lat="38.4869933" lon="16.2913667"><ele>951.0</ele><time>2026-04-09T10:59:48.223Z</time></trkpt><trkpt lat="38.4869867" lon="16.2915183"><ele>951.0</ele><time>2026-04-09T10:59:49.223Z</time></trkpt><trkpt lat="38.4869833" lon="16.2916717"><ele>951.0</ele><time>2026-04-09T10:59:50.223Z</time></trkpt><trkpt lat="38.4869933" lon="16.2918133"><ele>950.9999999999999</ele><time>2026-04-09T10:59:51.222Z</time></trkpt><trkpt lat="38.4870067" lon="16.2919483"><ele>950.9999999999999</ele><time>2026-04-09T10:59:52.223Z</time></trkpt><trkpt lat="38.4870233" lon="16.2920783"><ele>951.0</ele><time>2026-04-09T10:59:53.223Z</time></trkpt><trkpt lat="38.4870717" lon="16.2922067"><ele>951.0</ele><time>2026-04-09T10:59:54.223Z</time></trkpt><trkpt lat="38.4871433" lon="16.2923267"><ele>950.5</ele><time>2026-04-09T10:59:55.223Z</time></trkpt><trkpt lat="38.487225" lon="16.2924517"><ele>950.0</ele><time>2026-04-09T10:59:56.223Z</time></trkpt><trkpt lat="38.487305" lon="16.2925733"><ele>949.5</ele><time>2026-04-09T10:59:57.223Z</time></trkpt><trkpt lat="38.48738" lon="16.29269"><ele>949.0</ele><time>2026-04-09T10:59:58.223Z</time></trkpt><trkpt lat="38.4874633" lon="16.2928033"><ele>949.0</ele><time>2026-04-09T10:59:59.223Z</time></trkpt><trkpt lat="38.4875633" lon="16.292885"><ele>949.0</ele><time>2026-04-09T11:00:00.223Z</time></trkpt><trkpt lat="38.4876733" lon="16.292955"><ele>949.0</ele><time>2026-04-09T11:00:01.223Z</time></trkpt><trkpt lat="38.4878" lon="16.292995"><ele>949.0</ele><time>2026-04-09T11:00:02.223Z</time></trkpt><trkpt lat="38.48793" lon="16.2930283"><ele>950.0</ele><time>2026-04-09T11:00:03.223Z</time></trkpt><trkpt lat="38.4880583" lon="16.293075"><ele>951.0</ele><time>2026-04-09T11:00:04.223Z</time></trkpt><trkpt lat="38.4881733" lon="16.2931333"><ele>952.0</ele><time>2026-04-09T11:00:05.222Z</time></trkpt><trkpt lat="38.48828" lon="16.293205"><ele>953.0</ele><time>2026-04-09T11:00:06.223Z</time></trkpt><trkpt lat="38.4883833" lon="16.29329"><ele>951.75</ele><time>2026-04-09T11:00:07.223Z</time></trkpt><trkpt lat="38.488485" lon="16.29338"><ele>950.5</ele><time>2026-04-09T11:00:08.222Z</time></trkpt><trkpt lat="38.48859" lon="16.29347"><ele>949.25</ele><time>2026-04-09T11:00:09.223Z</time></trkpt><trkpt lat="38.4886883" lon="16.2935633"><ele>948.0</ele><time>2026-04-09T11:00:10.223Z</time></trkpt><trkpt lat="38.4887867" lon="16.2936567"><ele>948.0</ele><time>2026-04-09T11:00:11.223Z</time></trkpt><trkpt lat="38.4888867" lon="16.293755"><ele>948.0</ele><time>2026-04-09T11:00:12.223Z</time></trkpt><trkpt lat="38.48898" lon="16.2938517"><ele>948.0</ele><time>2026-04-09T11:00:13.223Z</time></trkpt><trkpt lat="38.4890617" lon="16.2939467"><ele>948.0</ele><time>2026-04-09T11:00:14.223Z</time></trkpt><trkpt lat="38.4891217" lon="16.294065"><ele>946.0</ele><time>2026-04-09T11:00:15.223Z</time></trkpt><trkpt lat="38.4891733" lon="16.294195"><ele>944.0</ele><time>2026-04-09T11:00:16.223Z</time></trkpt><trkpt lat="38.4891967" lon="16.2943217"><ele>942.0</ele><time>2026-04-09T11:00:17.223Z</time></trkpt><trkpt lat="38.4892" lon="16.29443"><ele>940.0</ele><time>2026-04-09T11:00:18.223Z</time></trkpt><trkpt lat="38.489185" lon="16.2945317"><ele>938.0</ele><time>2026-04-09T11:00:19.223Z</time></trkpt><trkpt lat="38.4891517" lon="16.29462"><ele>938.0</ele><time>2026-04-09T11:00:20.222Z</time></trkpt><trkpt lat="38.4890933" lon="16.29468"><ele>938.0</ele><time>2026-04-09T11:00:21.223Z</time></trkpt><trkpt lat="38.489005" lon="16.2947167"><ele>938.0</ele><time>2026-04-09T11:00:22.223Z</time></trkpt><trkpt lat="38.4889083" lon="16.2947267"><ele>938.0</ele><time>2026-04-09T11:00:23.223Z</time></trkpt><trkpt lat="38.488805" lon="16.2947333"><ele>938.0</ele><time>2026-04-09T11:00:24.223Z</time></trkpt><trkpt lat="38.488705" lon="16.2947517"><ele>937.4</ele><time>2026-04-09T11:00:25.223Z</time></trkpt><trkpt lat="38.488605" lon="16.294785"><ele>936.8</ele><time>2026-04-09T11:00:26.223Z</time></trkpt><trkpt lat="38.4885167" lon="16.2948433"><ele>936.2</ele><time>2026-04-09T11:00:27.223Z</time></trkpt><trkpt lat="38.48843" lon="16.2949233"><ele>935.6</ele><time>2026-04-09T11:00:28.223Z</time></trkpt><trkpt lat="38.4883567" lon="16.2950217"><ele>935.0</ele><time>2026-04-09T11:00:29.223Z</time></trkpt><trkpt lat="38.4883233" lon="16.2951267"><ele>935.0</ele><time>2026-04-09T11:00:30.223Z</time></trkpt><trkpt lat="38.4883133" lon="16.29524"><ele>935.0</ele><time>2026-04-09T11:00:31.223Z</time></trkpt><trkpt lat="38.4883367" lon="16.2953467"><ele>935.0</ele><time>2026-04-09T11:00:32.223Z</time></trkpt><trkpt lat="38.4883717" lon="16.2954583"><ele>935.0</ele><time>2026-04-09T11:00:33.223Z</time></trkpt><trkpt lat="38.4884267" lon="16.2955633"><ele>935.0</ele><time>2026-04-09T11:00:34.223Z</time></trkpt><trkpt lat="38.4885" lon="16.2956683"><ele>936.0</ele><time>2026-04-09T11:00:35.223Z</time></trkpt><trkpt lat="38.4885683" lon="16.2957767"><ele>937.0</ele><time>2026-04-09T11:00:36.223Z</time></trkpt><trkpt lat="38.4886217" lon="16.295885"><ele>938.0</ele><time>2026-04-09T11:00:37.223Z</time></trkpt><trkpt lat="38.4886467" lon="16.2959917"><ele>939.0</ele><time>2026-04-09T11:00:38.223Z</time></trkpt><trkpt lat="38.4886467" lon="16.296095"><ele>940.0</ele><time>2026-04-09T11:00:39.223Z</time></trkpt><trkpt lat="38.4886283" lon="16.296185"><ele>939.9999999999999</ele><time>2026-04-09T11:00:40.223Z</time></trkpt><trkpt lat="38.488595" lon="16.2962567"><ele>940.0</ele><time>2026-04-09T11:00:41.223Z</time></trkpt><trkpt lat="38.4885317" lon="16.2963167"><ele>940.0</ele><time>2026-04-09T11:00:42.223Z</time></trkpt><trkpt lat="38.48844" lon="16.296355"><ele>940.0</ele><time>2026-04-09T11:00:43.223Z</time></trkpt><trkpt lat="38.4883417" lon="16.2963967"><ele>939.9999999999999</ele><time>2026-04-09T11:00:44.222Z</time></trkpt><trkpt lat="38.4882433" lon="16.2964367"><ele>940.0</ele><time>2026-04-09T11:00:45.223Z</time></trkpt><trkpt lat="38.4881417" lon="16.2964633"><ele>942.2</ele><time>2026-04-09T11:00:46.223Z</time></trkpt><trkpt lat="38.4880583" lon="16.2964867"><ele>944.4</ele><time>2026-04-09T11:00:47.223Z</time></trkpt><trkpt lat="38.4879717" lon="16.296515"><ele>946.5999999999999</ele><time>2026-04-09T11:00:48.223Z</time></trkpt><trkpt lat="38.4878833" lon="16.2965283"><ele>948.8</ele><time>2026-04-09T11:00:49.223Z</time></trkpt><trkpt lat="38.4877817" lon="16.29652"><ele>951.0</ele><time>2026-04-09T11:00:50.223Z</time></trkpt><trkpt lat="38.487685" lon="16.296505"><ele>951.4</ele><time>2026-04-09T11:00:51.223Z</time></trkpt><trkpt lat="38.4875833" lon="16.2964833"><ele>951.8</ele><time>2026-04-09T11:00:52.223Z</time></trkpt><trkpt lat="38.4874817" lon="16.296475"><ele>952.1999999999999</ele><time>2026-04-09T11:00:53.223Z</time></trkpt><trkpt lat="38.4873667" lon="16.296465"><ele>952.5999999999999</ele><time>2026-04-09T11:00:54.222Z</time></trkpt><trkpt lat="38.4872567" lon="16.2964533"><ele>953.0</ele><time>2026-04-09T11:00:55.223Z</time></trkpt><trkpt lat="38.487155" lon="16.2964517"><ele>953.0</ele><time>2026-04-09T11:00:56.223Z</time></trkpt><trkpt lat="38.487055" lon="16.29646"><ele>953.0</ele><time>2026-04-09T11:00:57.223Z</time></trkpt><trkpt lat="38.4869483" lon="16.2964917"><ele>953.0</ele><time>2026-04-09T11:00:58.223Z</time></trkpt><trkpt lat="38.4868483" lon="16.2965383"><ele>953.0</ele><time>2026-04-09T11:00:59.223Z</time></trkpt><trkpt lat="38.4867617" lon="16.2966233"><ele>953.0</ele><time>2026-04-09T11:01:00.223Z</time></trkpt><trkpt lat="38.48668" lon="16.29672"><ele>953.0</ele><time>2026-04-09T11:01:01.223Z</time></trkpt><trkpt lat="38.4866117" lon="16.2968383"><ele>953.0</ele><time>2026-04-09T11:01:02.223Z</time></trkpt><trkpt lat="38.4865533" lon="16.2969567"><ele>953.0</ele><time>2026-04-09T11:01:03.223Z</time></trkpt><trkpt lat="38.4864883" lon="16.29708"><ele>953.0</ele><time>2026-04-09T11:01:04.223Z</time></trkpt><trkpt lat="38.4864167" lon="16.2972067"><ele>952.5</ele><time>2026-04-09T11:01:05.223Z</time></trkpt><trkpt lat="38.4863417" lon="16.2973317"><ele>952.0</ele><time>2026-04-09T11:01:06.223Z</time></trkpt><trkpt lat="38.4862683" lon="16.2974717"><ele>951.5</ele><time>2026-04-09T11:01:07.222Z</time></trkpt><trkpt lat="38.486195" lon="16.297615"><ele>951.0</ele><time>2026-04-09T11:01:08.223Z</time></trkpt><trkpt lat="38.48611" lon="16.2977583"><ele>951.0</ele><time>2026-04-09T11:01:09.223Z</time></trkpt><trkpt lat="38.486035" lon="16.2979033"><ele>951.0</ele><time>2026-04-09T11:01:10.222Z</time></trkpt><trkpt lat="38.4859533" lon="16.2980383"><ele>951.0</ele><time>2026-04-09T11:01:11.223Z</time></trkpt><trkpt lat="38.48588" lon="16.2981717"><ele>951.0</ele><time>2026-04-09T11:01:12.223Z</time></trkpt><trkpt lat="38.48581" lon="16.2982833"><ele>952.0</ele><time>2026-04-09T11:01:13.223Z</time></trkpt><trkpt lat="38.48573" lon="16.298385"><ele>952.9999999999999</ele><time>2026-04-09T11:01:14.223Z</time></trkpt><trkpt lat="38.48565" lon="16.2984767"><ele>953.9999999999999</ele><time>2026-04-09T11:01:15.223Z</time></trkpt><trkpt lat="38.48557" lon="16.2985667"><ele>955.0</ele><time>2026-04-09T11:01:16.223Z</time></trkpt><trkpt lat="38.4854883" lon="16.2986583"><ele>956.0</ele><time>2026-04-09T11:01:17.223Z</time></trkpt><trkpt lat="38.4854033" lon="16.2987583"><ele>956.0</ele><time>2026-04-09T11:01:18.223Z</time></trkpt><trkpt lat="38.4853233" lon="16.2988583"><ele>955.9999999999999</ele><time>2026-04-09T11:01:19.222Z</time></trkpt><trkpt lat="38.4852417" lon="16.2989467"><ele>955.9999999999999</ele><time>2026-04-09T11:01:20.223Z</time></trkpt><trkpt lat="38.48516" lon="16.29905"><ele>956.0</ele><time>2026-04-09T11:01:21.223Z</time></trkpt><trkpt lat="38.4850767" lon="16.2991317"><ele>956.0</ele><time>2026-04-09T11:01:22.223Z</time></trkpt><trkpt lat="38.4849983" lon="16.2992183"><ele>957.0000000000001</ele><time>2026-04-09T11:01:23.223Z</time></trkpt><trkpt lat="38.4849233" lon="16.29929"><ele>958.0</ele><time>2026-04-09T11:01:24.223Z</time></trkpt><trkpt lat="38.4848583" lon="16.2993617"><ele>959.0</ele><time>2026-04-09T11:01:25.222Z</time></trkpt><trkpt lat="38.4848083" lon="16.299425"><ele>960.0</ele><time>2026-04-09T11:01:26.223Z</time></trkpt><trkpt lat="38.4847467" lon="16.2995133"><ele>961.0000000000001</ele><time>2026-04-09T11:01:28.223Z</time></trkpt><trkpt lat="38.4846833" lon="16.29952"><ele>962.0</ele><time>2026-04-09T11:01:30.223Z</time></trkpt><trkpt lat="38.4846183" lon="16.2994383"><ele>962.0000000000001</ele><time>2026-04-09T11:01:33.223Z</time></trkpt><trkpt lat="38.48457" lon="16.2995017"><ele>962.0</ele><time>2026-04-09T11:02:15.223Z</time></trkpt><trkpt lat="38.4845367" lon="16.2996117"><ele>962.0</ele><time>2026-04-09T11:02:27.223Z</time></trkpt><trkpt lat="38.4845883" lon="16.2996883"><ele>962.0</ele><time>2026-04-09T11:02:29.223Z</time></trkpt><trkpt lat="38.4846683" lon="16.299705"><ele>962.0000000000001</ele><time>2026-04-09T11:02:32.223Z</time></trkpt><trkpt lat="38.4847017" lon="16.2996117"><ele>962.0</ele><time>2026-04-09T11:02:34.222Z</time></trkpt><trkpt lat="38.48467" lon="16.2995083"><ele>961.9999999999999</ele><time>2026-04-09T11:02:36.223Z</time></trkpt><trkpt lat="38.4846283" lon="16.2994383"><ele>962.0</ele><time>2026-04-09T11:02:38.223Z</time></trkpt><trkpt lat="38.484625" lon="16.299335"><ele>961.9999999999999</ele><time>2026-04-09T11:02:41.223Z</time></trkpt><trkpt lat="38.484605" lon="16.29943"><ele>961.9999999999999</ele><time>2026-04-09T11:16:23.224Z</time></trkpt><trkpt lat="38.484565" lon="16.2995217"><ele>962.0</ele><time>2026-04-09T11:16:26.223Z</time></trkpt><trkpt lat="38.4845383" lon="16.2996017"><ele>961.9999999999999</ele><time>2026-04-09T11:16:29.224Z</time></trkpt><trkpt lat="38.48455" lon="16.2996817"><ele>961.9999999999999</ele><time>2026-04-09T11:16:38.224Z</time></trkpt><trkpt lat="38.4846217" lon="16.2997367"><ele>961.2857142857142</ele><time>2026-04-09T11:16:41.224Z</time></trkpt><trkpt lat="38.4845933" lon="16.2996617"><ele>960.5714285714286</ele><time>2026-04-09T11:16:46.224Z</time></trkpt><trkpt lat="38.4845117" lon="16.2996417"><ele>959.8571428571429</ele><time>2026-04-09T11:16:49.224Z</time></trkpt><trkpt lat="38.4844367" lon="16.2996133"><ele>959.1428571428571</ele><time>2026-04-09T11:16:52.224Z</time></trkpt><trkpt lat="38.48437" lon="16.2996267"><ele>958.4285714285716</ele><time>2026-04-09T11:16:55.224Z</time></trkpt><trkpt lat="38.4843217" lon="16.2997033"><ele>957.7142857142858</ele><time>2026-04-09T11:17:01.224Z</time></trkpt><trkpt lat="38.4842633" lon="16.299745"><ele>957.0</ele><time>2026-04-09T11:17:03.224Z</time></trkpt><trkpt lat="38.4841767" lon="16.299765"><ele>957.0</ele><time>2026-04-09T11:17:05.224Z</time></trkpt><trkpt lat="38.4840833" lon="16.2998183"><ele>957.0</ele><time>2026-04-09T11:17:07.224Z</time></trkpt><trkpt lat="38.484035" lon="16.29987"><ele>957.0</ele><time>2026-04-09T11:17:08.224Z</time></trkpt><trkpt lat="38.4839917" lon="16.299935"><ele>957.0</ele><time>2026-04-09T11:17:09.224Z</time></trkpt><trkpt lat="38.4839417" lon="16.30002"><ele>957.0</ele><time>2026-04-09T11:17:10.224Z</time></trkpt><trkpt lat="38.4838883" lon="16.300105"><ele>957.0</ele><time>2026-04-09T11:17:11.224Z</time></trkpt><trkpt lat="38.48383" lon="16.3002"><ele>957.0</ele><time>2026-04-09T11:17:12.224Z</time></trkpt><trkpt lat="38.48377" lon="16.300295"><ele>957.0</ele><time>2026-04-09T11:17:13.224Z</time></trkpt><trkpt lat="38.4837067" lon="16.30039"><ele>957.0</ele><time>2026-04-09T11:17:14.223Z</time></trkpt><trkpt lat="38.48365" lon="16.3004767"><ele>957.0</ele><time>2026-04-09T11:17:15.224Z</time></trkpt><trkpt lat="38.483605" lon="16.3005733"><ele>957.0</ele><time>2026-04-09T11:17:16.224Z</time></trkpt><trkpt lat="38.4835683" lon="16.3006667"><ele>954.8333333333334</ele><time>2026-04-09T11:17:17.224Z</time></trkpt><trkpt lat="38.4835183" lon="16.300755"><ele>952.6666666666667</ele><time>2026-04-09T11:17:18.224Z</time></trkpt><trkpt lat="38.483455" lon="16.3008333"><ele>950.5</ele><time>2026-04-09T11:17:19.224Z</time></trkpt><trkpt lat="38.4833733" lon="16.3008883"><ele>948.3333333333334</ele><time>2026-04-09T11:17:20.224Z</time></trkpt><trkpt lat="38.4832817" lon="16.3009133"><ele>946.1666666666667</ele><time>2026-04-09T11:17:21.224Z</time></trkpt><trkpt lat="38.4831933" lon="16.3009183"><ele>944.0</ele><time>2026-04-09T11:17:22.223Z</time></trkpt><trkpt lat="38.4831017" lon="16.300895"><ele>944.0</ele><time>2026-04-09T11:17:23.224Z</time></trkpt><trkpt lat="38.4830183" lon="16.3008367"><ele>944.0000000000001</ele><time>2026-04-09T11:17:24.223Z</time></trkpt><trkpt lat="38.4829367" lon="16.3007583"><ele>944.0000000000001</ele><time>2026-04-09T11:17:25.224Z</time></trkpt><trkpt lat="38.4828583" lon="16.3006733"><ele>944.0</ele><time>2026-04-09T11:17:26.224Z</time></trkpt><trkpt lat="38.48278" lon="16.3006133"><ele>944.0</ele><time>2026-04-09T11:17:27.224Z</time></trkpt><trkpt lat="38.4827017" lon="16.300575"><ele>945.0000000000001</ele><time>2026-04-09T11:17:28.224Z</time></trkpt><trkpt lat="38.4826117" lon="16.3005617"><ele>946.0</ele><time>2026-04-09T11:17:29.224Z</time></trkpt><trkpt lat="38.4825333" lon="16.3005767"><ele>947.0</ele><time>2026-04-09T11:17:30.224Z</time></trkpt><trkpt lat="38.4824567" lon="16.300615"><ele>948.0</ele><time>2026-04-09T11:17:31.224Z</time></trkpt><trkpt lat="38.4823833" lon="16.3006733"><ele>949.0000000000001</ele><time>2026-04-09T11:17:32.224Z</time></trkpt><trkpt lat="38.48232" lon="16.30074"><ele>950.0</ele><time>2026-04-09T11:17:33.224Z</time></trkpt><trkpt lat="38.4822583" lon="16.3008067"><ele>950.0000000000001</ele><time>2026-04-09T11:17:34.224Z</time></trkpt><trkpt lat="38.4821967" lon="16.3008633"><ele>950.0</ele><time>2026-04-09T11:17:35.224Z</time></trkpt><trkpt lat="38.48213" lon="16.30092"><ele>950.0</ele><time>2026-04-09T11:17:36.224Z</time></trkpt><trkpt lat="38.4820617" lon="16.300965"><ele>950.0</ele><time>2026-04-09T11:17:37.224Z</time></trkpt><trkpt lat="38.4819917" lon="16.30101"><ele>950.0000000000001</ele><time>2026-04-09T11:17:38.224Z</time></trkpt><trkpt lat="38.4819317" lon="16.30105"><ele>950.0</ele><time>2026-04-09T11:17:39.224Z</time></trkpt><trkpt lat="38.4818433" lon="16.30112"><ele>949.5000000000001</ele><time>2026-04-09T11:17:41.224Z</time></trkpt><trkpt lat="38.481755" lon="16.301205"><ele>949.0</ele><time>2026-04-09T11:17:43.224Z</time></trkpt><trkpt lat="38.4817033" lon="16.3012683"><ele>948.5</ele><time>2026-04-09T11:17:44.224Z</time></trkpt><trkpt lat="38.4816517" lon="16.3013417"><ele>948.0</ele><time>2026-04-09T11:17:45.224Z</time></trkpt><trkpt lat="38.4816" lon="16.3014317"><ele>947.5000000000001</ele><time>2026-04-09T11:17:46.224Z</time></trkpt><trkpt lat="38.4815533" lon="16.3015033"><ele>947.0</ele><time>2026-04-09T11:17:47.224Z</time></trkpt><trkpt lat="38.4815117" lon="16.30157"><ele>947.0000000000001</ele><time>2026-04-09T11:17:48.224Z</time></trkpt><trkpt lat="38.4814317" lon="16.3017067"><ele>947.0</ele><time>2026-04-09T11:17:50.224Z</time></trkpt><trkpt lat="38.48139" lon="16.30178"><ele>947.0</ele><time>2026-04-09T11:17:51.224Z</time></trkpt><trkpt lat="38.4813533" lon="16.3018633"><ele>947.0</ele><time>2026-04-09T11:17:52.224Z</time></trkpt><trkpt lat="38.481325" lon="16.3019517"><ele>947.0000000000001</ele><time>2026-04-09T11:17:53.224Z</time></trkpt><trkpt lat="38.4813083" lon="16.3020383"><ele>947.0</ele><time>2026-04-09T11:17:54.223Z</time></trkpt><trkpt lat="38.4812933" lon="16.30212"><ele>947.0000000000001</ele><time>2026-04-09T11:17:55.224Z</time></trkpt><trkpt lat="38.48129" lon="16.3022133"><ele>947.0</ele><time>2026-04-09T11:17:56.224Z</time></trkpt><trkpt lat="38.48129" lon="16.30231"><ele>947.0</ele><time>2026-04-09T11:17:57.223Z</time></trkpt><trkpt lat="38.4812917" lon="16.3024067"><ele>947.0</ele><time>2026-04-09T11:17:58.224Z</time></trkpt><trkpt lat="38.4812967" lon="16.30251"><ele>947.0000000000001</ele><time>2026-04-09T11:17:59.224Z</time></trkpt><trkpt lat="38.481295" lon="16.30261"><ele>947.0</ele><time>2026-04-09T11:18:00.224Z</time></trkpt><trkpt lat="38.4812967" lon="16.3027083"><ele>946.7142857142857</ele><time>2026-04-09T11:18:01.224Z</time></trkpt><trkpt lat="38.4812983" lon="16.3027983"><ele>946.4285714285713</ele><time>2026-04-09T11:18:02.224Z</time></trkpt><trkpt lat="38.481295" lon="16.3028883"><ele>946.1428571428571</ele><time>2026-04-09T11:18:03.224Z</time></trkpt><trkpt lat="38.481295" lon="16.3029783"><ele>945.8571428571429</ele><time>2026-04-09T11:18:04.224Z</time></trkpt><trkpt lat="38.4812967" lon="16.303075"><ele>945.5714285714286</ele><time>2026-04-09T11:18:05.224Z</time></trkpt><trkpt lat="38.481305" lon="16.3031717"><ele>945.2857142857142</ele><time>2026-04-09T11:18:06.224Z</time></trkpt><trkpt lat="38.4813167" lon="16.3032717"><ele>945.0</ele><time>2026-04-09T11:18:07.224Z</time></trkpt><trkpt lat="38.4813283" lon="16.303365"><ele>943.8333333333334</ele><time>2026-04-09T11:18:08.223Z</time></trkpt><trkpt lat="38.4813383" lon="16.303445"><ele>942.6666666666667</ele><time>2026-04-09T11:18:09.224Z</time></trkpt><trkpt lat="38.481355" lon="16.30356"><ele>941.5</ele><time>2026-04-09T11:18:11.224Z</time></trkpt><trkpt lat="38.4814117" lon="16.30362"><ele>940.3333333333334</ele><time>2026-04-09T11:18:13.224Z</time></trkpt><trkpt lat="38.481495" lon="16.303635"><ele>939.1666666666667</ele><time>2026-04-09T11:18:16.224Z</time></trkpt><trkpt lat="38.48156" lon="16.3035533"><ele>938.0</ele><time>2026-04-09T11:18:19.224Z</time></trkpt><trkpt lat="38.4815933" lon="16.3034483"><ele>938.0</ele><time>2026-04-09T11:18:21.224Z</time></trkpt><trkpt lat="38.48164" lon="16.3033333"><ele>938.0</ele><time>2026-04-09T11:18:23.224Z</time></trkpt><trkpt lat="38.4816783" lon="16.3032133"><ele>938.0</ele><time>2026-04-09T11:18:25.224Z</time></trkpt><trkpt lat="38.4817117" lon="16.3031067"><ele>938.0</ele><time>2026-04-09T11:18:27.224Z</time></trkpt><trkpt lat="38.48174" lon="16.3029817"><ele>938.0</ele><time>2026-04-09T11:18:29.224Z</time></trkpt><trkpt lat="38.481765" lon="16.30284"><ele>939.4</ele><time>2026-04-09T11:18:31.224Z</time></trkpt><trkpt lat="38.4817883" lon="16.3026883"><ele>940.8</ele><time>2026-04-09T11:18:33.224Z</time></trkpt><trkpt lat="38.4818083" lon="16.3025383"><ele>942.2</ele><time>2026-04-09T11:18:35.223Z</time></trkpt><trkpt lat="38.4818267" lon="16.3024317"><ele>943.6</ele><time>2026-04-09T11:18:37.224Z</time></trkpt><trkpt lat="38.4818317" lon="16.3023183"><ele>945.0</ele><time>2026-04-09T11:18:40.224Z</time></trkpt><trkpt lat="38.481785" lon="16.302235"><ele>945.3333333333334</ele><time>2026-04-09T11:18:42.224Z</time></trkpt><trkpt lat="38.4817717" lon="16.3021367"><ele>945.6666666666667</ele><time>2026-04-09T11:18:45.224Z</time></trkpt><trkpt lat="38.4817133" lon="16.3020533"><ele>946.0</ele><time>2026-04-09T11:18:56.224Z</time></trkpt><trkpt lat="38.48166" lon="16.3019967"><ele>946.3333333333334</ele><time>2026-04-09T11:18:58.225Z</time></trkpt><trkpt lat="38.481595" lon="16.30194"><ele>946.6666666666667</ele><time>2026-04-09T11:19:01.224Z</time></trkpt><trkpt lat="38.4815617" lon="16.3018483"><ele>947.0</ele><time>2026-04-09T11:19:31.225Z</time></trkpt><trkpt lat="38.481565" lon="16.3017633"><ele>947.0</ele><time>2026-04-09T11:19:32.224Z</time></trkpt><trkpt lat="38.4815867" lon="16.3016433"><ele>947.0</ele><time>2026-04-09T11:19:33.225Z</time></trkpt><trkpt lat="38.48162" lon="16.3015267"><ele>947.0</ele><time>2026-04-09T11:19:34.225Z</time></trkpt><trkpt lat="38.48167" lon="16.3014167"><ele>947.0</ele><time>2026-04-09T11:19:35.225Z</time></trkpt><trkpt lat="38.4817267" lon="16.3013167"><ele>947.0</ele><time>2026-04-09T11:19:36.225Z</time></trkpt><trkpt lat="38.481785" lon="16.301235"><ele>947.5000000000001</ele><time>2026-04-09T11:19:37.225Z</time></trkpt><trkpt lat="38.481845" lon="16.301165"><ele>948.0</ele><time>2026-04-09T11:19:38.225Z</time></trkpt><trkpt lat="38.4819467" lon="16.301095"><ele>948.5</ele><time>2026-04-09T11:19:40.225Z</time></trkpt><trkpt lat="38.482005" lon="16.3010583"><ele>949.0</ele><time>2026-04-09T11:19:41.225Z</time></trkpt><trkpt lat="38.482075" lon="16.3010083"><ele>949.5000000000001</ele><time>2026-04-09T11:19:42.224Z</time></trkpt><trkpt lat="38.4821533" lon="16.3009467"><ele>950.0</ele><time>2026-04-09T11:19:43.224Z</time></trkpt><trkpt lat="38.48224" lon="16.30088"><ele>950.0</ele><time>2026-04-09T11:19:44.225Z</time></trkpt><trkpt lat="38.4823133" lon="16.3008233"><ele>950.0</ele><time>2026-04-09T11:19:45.224Z</time></trkpt><trkpt lat="38.4824183" lon="16.30073"><ele>950.0</ele><time>2026-04-09T11:19:47.225Z</time></trkpt><trkpt lat="38.4824767" lon="16.3006833"><ele>950.0</ele><time>2026-04-09T11:19:48.225Z</time></trkpt><trkpt lat="38.4825367" lon="16.300635"><ele>950.0</ele><time>2026-04-09T11:19:49.225Z</time></trkpt><trkpt lat="38.4826467" lon="16.3005833"><ele>950.0000000000001</ele><time>2026-04-09T11:19:51.224Z</time></trkpt><trkpt lat="38.4827133" lon="16.3005883"><ele>950.0</ele><time>2026-04-09T11:19:52.225Z</time></trkpt><trkpt lat="38.482785" lon="16.3006167"><ele>950.0</ele><time>2026-04-09T11:19:53.225Z</time></trkpt><trkpt lat="38.482855" lon="16.3006733"><ele>950.0</ele><time>2026-04-09T11:19:54.225Z</time></trkpt><trkpt lat="38.482925" lon="16.3007433"><ele>950.0000000000001</ele><time>2026-04-09T11:19:55.225Z</time></trkpt><trkpt lat="38.483" lon="16.3008267"><ele>950.0</ele><time>2026-04-09T11:19:56.225Z</time></trkpt><trkpt lat="38.4830767" lon="16.3009033"><ele>949.0000000000001</ele><time>2026-04-09T11:19:57.225Z</time></trkpt><trkpt lat="38.48316" lon="16.3009483"><ele>948.0</ele><time>2026-04-09T11:19:58.225Z</time></trkpt><trkpt lat="38.48324" lon="16.3009683"><ele>947.0</ele><time>2026-04-09T11:19:59.225Z</time></trkpt><trkpt lat="38.4833233" lon="16.300955"><ele>946.0</ele><time>2026-04-09T11:20:00.225Z</time></trkpt><trkpt lat="38.4834083" lon="16.3009233"><ele>945.0000000000001</ele><time>2026-04-09T11:20:01.225Z</time></trkpt><trkpt lat="38.4834933" lon="16.300875"><ele>944.0</ele><time>2026-04-09T11:20:02.225Z</time></trkpt><trkpt lat="38.48357" lon="16.3007867"><ele>944.0</ele><time>2026-04-09T11:20:03.225Z</time></trkpt><trkpt lat="38.4836217" lon="16.3006817"><ele>944.0000000000001</ele><time>2026-04-09T11:20:04.225Z</time></trkpt><trkpt lat="38.483655" lon="16.30057"><ele>944.0000000000001</ele><time>2026-04-09T11:20:05.225Z</time></trkpt><trkpt lat="38.4837017" lon="16.3004633"><ele>944.0</ele><time>2026-04-09T11:20:06.225Z</time></trkpt><trkpt lat="38.4837583" lon="16.3003617"><ele>944.0</ele><time>2026-04-09T11:20:07.225Z</time></trkpt><trkpt lat="38.483825" lon="16.3002567"><ele>946.6</ele><time>2026-04-09T11:20:08.225Z</time></trkpt><trkpt lat="38.4838967" lon="16.3001483"><ele>949.2</ele><time>2026-04-09T11:20:09.225Z</time></trkpt><trkpt lat="38.483965" lon="16.3000367"><ele>951.8000000000001</ele><time>2026-04-09T11:20:10.225Z</time></trkpt><trkpt lat="38.4840383" lon="16.2999333"><ele>954.4000000000001</ele><time>2026-04-09T11:20:11.225Z</time></trkpt><trkpt lat="38.4841033" lon="16.2998517"><ele>957.0</ele><time>2026-04-09T11:20:12.225Z</time></trkpt><trkpt lat="38.4841567" lon="16.2998"><ele>958.0</ele><time>2026-04-09T11:20:13.224Z</time></trkpt><trkpt lat="38.484255" lon="16.2997483"><ele>959.0</ele><time>2026-04-09T11:20:15.225Z</time></trkpt><trkpt lat="38.4843667" lon="16.2997267"><ele>960.0</ele><time>2026-04-09T11:20:17.225Z</time></trkpt><trkpt lat="38.48443" lon="16.2996917"><ele>961.0</ele><time>2026-04-09T11:20:18.224Z</time></trkpt><trkpt lat="38.4845433" lon="16.2996733"><ele>962.0</ele><time>2026-04-09T11:20:20.224Z</time></trkpt><trkpt lat="38.4846217" lon="16.29971"><ele>962.0000000000001</ele><time>2026-04-09T11:20:22.225Z</time></trkpt><trkpt lat="38.48469" lon="16.2997017"><ele>962.0</ele><time>2026-04-09T11:20:27.225Z</time></trkpt><trkpt lat="38.484735" lon="16.2996233"><ele>962.0</ele><time>2026-04-09T11:20:29.224Z</time></trkpt><trkpt lat="38.4847983" lon="16.2995067"><ele>962.0</ele><time>2026-04-09T11:20:31.225Z</time></trkpt><trkpt lat="38.484845" lon="16.2994317"><ele>962.0000000000001</ele><time>2026-04-09T11:20:32.224Z</time></trkpt><trkpt lat="38.4849033" lon="16.29936"><ele>962.0</ele><time>2026-04-09T11:20:33.225Z</time></trkpt><trkpt lat="38.4849683" lon="16.2992867"><ele>962.0000000000001</ele><time>2026-04-09T11:20:34.225Z</time></trkpt><trkpt lat="38.48503" lon="16.299215"><ele>962.0</ele><time>2026-04-09T11:20:35.225Z</time></trkpt><trkpt lat="38.48509" lon="16.2991433"><ele>962.0</ele><time>2026-04-09T11:20:36.225Z</time></trkpt><trkpt lat="38.485145" lon="16.2990617"><ele>962.0</ele><time>2026-04-09T11:20:37.225Z</time></trkpt><trkpt lat="38.4852033" lon="16.299005"><ele>962.0000000000001</ele><time>2026-04-09T11:20:38.225Z</time></trkpt><trkpt lat="38.4852533" lon="16.2989333"><ele>962.0</ele><time>2026-04-09T11:20:39.225Z</time></trkpt><trkpt lat="38.4853067" lon="16.29886"><ele>962.4000000000001</ele><time>2026-04-09T11:20:40.224Z</time></trkpt><trkpt lat="38.4853667" lon="16.2987883"><ele>962.8000000000001</ele><time>2026-04-09T11:20:41.225Z</time></trkpt><trkpt lat="38.4854383" lon="16.29872"><ele>963.2</ele><time>2026-04-09T11:20:42.225Z</time></trkpt><trkpt lat="38.485515" lon="16.2986433"><ele>963.6</ele><time>2026-04-09T11:20:43.225Z</time></trkpt><trkpt lat="38.4855883" lon="16.2985567"><ele>964.0</ele><time>2026-04-09T11:20:44.224Z</time></trkpt><trkpt lat="38.485665" lon="16.298475"><ele>964.0</ele><time>2026-04-09T11:20:45.225Z</time></trkpt><trkpt lat="38.4857433" lon="16.2983883"><ele>964.0000000000001</ele><time>2026-04-09T11:20:46.225Z</time></trkpt><trkpt lat="38.4858167" lon="16.2982967"><ele>964.0000000000001</ele><time>2026-04-09T11:20:47.224Z</time></trkpt><trkpt lat="38.485885" lon="16.2981917"><ele>964.0</ele><time>2026-04-09T11:20:48.225Z</time></trkpt><trkpt lat="38.4859533" lon="16.29809"><ele>964.0</ele><time>2026-04-09T11:20:49.225Z</time></trkpt><trkpt lat="38.4860183" lon="16.29799"><ele>963.8000000000001</ele><time>2026-04-09T11:20:50.225Z</time></trkpt><trkpt lat="38.4860833" lon="16.2978817"><ele>963.6000000000001</ele><time>2026-04-09T11:20:51.225Z</time></trkpt><trkpt lat="38.4861433" lon="16.29778"><ele>963.4</ele><time>2026-04-09T11:20:52.225Z</time></trkpt><trkpt lat="38.4862017" lon="16.2976817"><ele>963.2</ele><time>2026-04-09T11:20:53.225Z</time></trkpt><trkpt lat="38.4862667" lon="16.297575"><ele>963.0</ele><time>2026-04-09T11:20:54.225Z</time></trkpt><trkpt lat="38.4863283" lon="16.297455"><ele>963.0</ele><time>2026-04-09T11:20:55.225Z</time></trkpt><trkpt lat="38.4863933" lon="16.2973433"><ele>963.0</ele><time>2026-04-09T11:20:56.224Z</time></trkpt><trkpt lat="38.4864533" lon="16.2972333"><ele>963.0</ele><time>2026-04-09T11:20:57.225Z</time></trkpt><trkpt lat="38.4865033" lon="16.297125"><ele>963.0</ele><time>2026-04-09T11:20:58.225Z</time></trkpt><trkpt lat="38.4865567" lon="16.2970317"><ele>963.0</ele><time>2026-04-09T11:20:59.225Z</time></trkpt><trkpt lat="38.4866067" lon="16.2969333"><ele>961.3333333333334</ele><time>2026-04-09T11:21:00.225Z</time></trkpt><trkpt lat="38.4866533" lon="16.29684"><ele>959.6666666666667</ele><time>2026-04-09T11:21:01.225Z</time></trkpt><trkpt lat="38.4866983" lon="16.2967483"><ele>958.0</ele><time>2026-04-09T11:21:02.225Z</time></trkpt><trkpt lat="38.48675" lon="16.2966633"><ele>956.3333333333334</ele><time>2026-04-09T11:21:03.225Z</time></trkpt><trkpt lat="38.486815" lon="16.2965917"><ele>954.6666666666667</ele><time>2026-04-09T11:21:04.225Z</time></trkpt><trkpt lat="38.4868817" lon="16.29653"><ele>953.0</ele><time>2026-04-09T11:21:05.225Z</time></trkpt><trkpt lat="38.4869617" lon="16.2964833"><ele>953.0</ele><time>2026-04-09T11:21:06.225Z</time></trkpt><trkpt lat="38.4870517" lon="16.2964617"><ele>953.0</ele><time>2026-04-09T11:21:07.225Z</time></trkpt><trkpt lat="38.48715" lon="16.2964617"><ele>953.0</ele><time>2026-04-09T11:21:08.225Z</time></trkpt><trkpt lat="38.4872417" lon="16.2964733"><ele>953.0</ele><time>2026-04-09T11:21:09.225Z</time></trkpt><trkpt lat="38.487335" lon="16.2964817"><ele>953.0</ele><time>2026-04-09T11:21:10.225Z</time></trkpt><trkpt lat="38.4874233" lon="16.29649"><ele>953.0</ele><time>2026-04-09T11:21:11.225Z</time></trkpt><trkpt lat="38.4875083" lon="16.2964883"><ele>953.0</ele><time>2026-04-09T11:21:12.225Z</time></trkpt><trkpt lat="38.4875833" lon="16.2964967"><ele>953.0</ele><time>2026-04-09T11:21:13.225Z</time></trkpt><trkpt lat="38.48765" lon="16.2965167"><ele>953.0</ele><time>2026-04-09T11:21:14.225Z</time></trkpt><trkpt lat="38.48772" lon="16.2965467"><ele>953.0</ele><time>2026-04-09T11:21:15.225Z</time></trkpt><trkpt lat="38.4877783" lon="16.29661"><ele>953.0</ele><time>2026-04-09T11:21:16.225Z</time></trkpt><trkpt lat="38.48782" lon="16.29668"><ele>953.0</ele><time>2026-04-09T11:21:17.224Z</time></trkpt><trkpt lat="38.4879117" lon="16.2967467"><ele>952.6666666666667</ele><time>2026-04-09T11:21:19.225Z</time></trkpt><trkpt lat="38.4879783" lon="16.2967017"><ele>952.3333333333334</ele><time>2026-04-09T11:21:21.224Z</time></trkpt><trkpt lat="38.488005" lon="16.2966017"><ele>952.0</ele><time>2026-04-09T11:21:23.225Z</time></trkpt><trkpt lat="38.4880567" lon="16.2965183"><ele>951.6666666666667</ele><time>2026-04-09T11:21:25.225Z</time></trkpt><trkpt lat="38.48816" lon="16.296455"><ele>951.3333333333334</ele><time>2026-04-09T11:21:27.225Z</time></trkpt><trkpt lat="38.48823" lon="16.2964217"><ele>951.0</ele><time>2026-04-09T11:21:28.225Z</time></trkpt><trkpt lat="38.48831" lon="16.29639"><ele>949.1666666666666</ele><time>2026-04-09T11:21:29.225Z</time></trkpt><trkpt lat="38.488395" lon="16.2963517"><ele>947.3333333333333</ele><time>2026-04-09T11:21:30.225Z</time></trkpt><trkpt lat="38.488485" lon="16.296305"><ele>945.5</ele><time>2026-04-09T11:21:31.225Z</time></trkpt><trkpt lat="38.4885667" lon="16.2962567"><ele>943.6666666666666</ele><time>2026-04-09T11:21:32.225Z</time></trkpt><trkpt lat="38.4886267" lon="16.2961917"><ele>941.8333333333333</ele><time>2026-04-09T11:21:33.225Z</time></trkpt><trkpt lat="38.4886633" lon="16.29612"><ele>940.0</ele><time>2026-04-09T11:21:34.225Z</time></trkpt><trkpt lat="38.4886767" lon="16.2960317"><ele>940.0</ele><time>2026-04-09T11:21:35.225Z</time></trkpt><trkpt lat="38.4886683" lon="16.2959267"><ele>940.0</ele><time>2026-04-09T11:21:36.225Z</time></trkpt><trkpt lat="38.4886367" lon="16.295815"><ele>940.0</ele><time>2026-04-09T11:21:37.225Z</time></trkpt><trkpt lat="38.4885833" lon="16.295705"><ele>940.0</ele><time>2026-04-09T11:21:38.225Z</time></trkpt><trkpt lat="38.4885167" lon="16.29559"><ele>940.0</ele><time>2026-04-09T11:21:39.225Z</time></trkpt><trkpt lat="38.488455" lon="16.2954717"><ele>939.1666666666666</ele><time>2026-04-09T11:21:40.225Z</time></trkpt><trkpt lat="38.48841" lon="16.29536"><ele>938.3333333333333</ele><time>2026-04-09T11:21:41.225Z</time></trkpt><trkpt lat="38.4883733" lon="16.295265"><ele>937.5</ele><time>2026-04-09T11:21:42.225Z</time></trkpt><trkpt lat="38.4883567" lon="16.2951683"><ele>936.6666666666667</ele><time>2026-04-09T11:21:43.225Z</time></trkpt><trkpt lat="38.4883733" lon="16.295075"><ele>935.8333333333334</ele><time>2026-04-09T11:21:44.225Z</time></trkpt><trkpt lat="38.4884117" lon="16.294985"><ele>935.0</ele><time>2026-04-09T11:21:45.225Z</time></trkpt><trkpt lat="38.4884733" lon="16.294905"><ele>935.0</ele><time>2026-04-09T11:21:46.225Z</time></trkpt><trkpt lat="38.488555" lon="16.294825"><ele>935.0</ele><time>2026-04-09T11:21:47.225Z</time></trkpt><trkpt lat="38.4886533" lon="16.29476"><ele>935.0</ele><time>2026-04-09T11:21:48.225Z</time></trkpt><trkpt lat="38.4887667" lon="16.2947217"><ele>935.0</ele><time>2026-04-09T11:21:49.225Z</time></trkpt><trkpt lat="38.4888867" lon="16.294695"><ele>935.6</ele><time>2026-04-09T11:21:50.225Z</time></trkpt><trkpt lat="38.4889917" lon="16.29468"><ele>936.2</ele><time>2026-04-09T11:21:51.225Z</time></trkpt><trkpt lat="38.4890833" lon="16.2946567"><ele>936.8</ele><time>2026-04-09T11:21:52.225Z</time></trkpt><trkpt lat="38.489155" lon="16.2946017"><ele>937.4</ele><time>2026-04-09T11:21:53.225Z</time></trkpt><trkpt lat="38.4892083" lon="16.29452"><ele>938.0</ele><time>2026-04-09T11:21:54.225Z</time></trkpt><trkpt lat="38.48923" lon="16.2943933"><ele>938.0</ele><time>2026-04-09T11:21:55.225Z</time></trkpt><trkpt lat="38.4892217" lon="16.2942617"><ele>938.0</ele><time>2026-04-09T11:21:56.225Z</time></trkpt><trkpt lat="38.4891933" lon="16.2941133"><ele>938.0</ele><time>2026-04-09T11:21:57.225Z</time></trkpt><trkpt lat="38.489145" lon="16.2939717"><ele>938.0</ele><time>2026-04-09T11:21:58.225Z</time></trkpt><trkpt lat="38.4890683" lon="16.2938433"><ele>939.0</ele><time>2026-04-09T11:21:59.225Z</time></trkpt><trkpt lat="38.488965" lon="16.2937183"><ele>940.0</ele><time>2026-04-09T11:22:00.225Z</time></trkpt><trkpt lat="38.488835" lon="16.2936033"><ele>941.0</ele><time>2026-04-09T11:22:01.225Z</time></trkpt><trkpt lat="38.4886917" lon="16.293485"><ele>941.0</ele><time>2026-04-09T11:22:02.224Z</time></trkpt><trkpt lat="38.4885383" lon="16.29335"><ele>941.0</ele><time>2026-04-09T11:22:03.225Z</time></trkpt><trkpt lat="38.48839" lon="16.29321"><ele>941.0</ele><time>2026-04-09T11:22:04.225Z</time></trkpt><trkpt lat="38.4882367" lon="16.293095"><ele>943.6666666666667</ele><time>2026-04-09T11:22:05.225Z</time></trkpt><trkpt lat="38.488075" lon="16.29301"><ele>946.3333333333333</ele><time>2026-04-09T11:22:06.225Z</time></trkpt><trkpt lat="38.4879" lon="16.2929617"><ele>949.0</ele><time>2026-04-09T11:22:07.225Z</time></trkpt><trkpt lat="38.4877517" lon="16.2929117"><ele>949.0</ele><time>2026-04-09T11:22:08.225Z</time></trkpt><trkpt lat="38.48761" lon="16.29285"><ele>949.0</ele><time>2026-04-09T11:22:09.225Z</time></trkpt><trkpt lat="38.48749" lon="16.292755"><ele>949.0</ele><time>2026-04-09T11:22:10.225Z</time></trkpt><trkpt lat="38.4873967" lon="16.292635"><ele>949.0</ele><time>2026-04-09T11:22:11.225Z</time></trkpt><trkpt lat="38.4873083" lon="16.2925067"><ele>949.0</ele><time>2026-04-09T11:22:12.225Z</time></trkpt><trkpt lat="38.4872267" lon="16.292375"><ele>949.0</ele><time>2026-04-09T11:22:13.225Z</time></trkpt><trkpt lat="38.487155" lon="16.2922517"><ele>949.0</ele><time>2026-04-09T11:22:14.225Z</time></trkpt><trkpt lat="38.4870917" lon="16.2921267"><ele>949.0</ele><time>2026-04-09T11:22:15.225Z</time></trkpt><trkpt lat="38.4870433" lon="16.2919983"><ele>949.5</ele><time>2026-04-09T11:22:16.225Z</time></trkpt><trkpt lat="38.48702" lon="16.2918567"><ele>950.0</ele><time>2026-04-09T11:22:17.225Z</time></trkpt><trkpt lat="38.4870167" lon="16.2917117"><ele>950.5</ele><time>2026-04-09T11:22:18.225Z</time></trkpt><trkpt lat="38.48702" lon="16.29157"><ele>951.0</ele><time>2026-04-09T11:22:19.225Z</time></trkpt><trkpt lat="38.4870283" lon="16.2914217"><ele>950.0</ele><time>2026-04-09T11:22:20.225Z</time></trkpt><trkpt lat="38.4870383" lon="16.291265"><ele>949.0</ele><time>2026-04-09T11:22:21.225Z</time></trkpt><trkpt lat="38.4870533" lon="16.2911083"><ele>948.0</ele><time>2026-04-09T11:22:22.225Z</time></trkpt><trkpt lat="38.4870717" lon="16.2909467"><ele>947.0</ele><time>2026-04-09T11:22:23.225Z</time></trkpt><trkpt lat="38.487085" lon="16.2907817"><ele>948.5</ele><time>2026-04-09T11:22:24.225Z</time></trkpt><trkpt lat="38.4871133" lon="16.290605"><ele>950.0</ele><time>2026-04-09T11:22:25.225Z</time></trkpt><trkpt lat="38.4871383" lon="16.2904183"><ele>951.5</ele><time>2026-04-09T11:22:26.225Z</time></trkpt><trkpt lat="38.4871617" lon="16.290225"><ele>953.0</ele><time>2026-04-09T11:22:27.225Z</time></trkpt><trkpt lat="38.4871817" lon="16.2900317"><ele>954.3333333333334</ele><time>2026-04-09T11:22:28.225Z</time></trkpt><trkpt lat="38.4872033" lon="16.289835"><ele>955.6666666666667</ele><time>2026-04-09T11:22:29.225Z</time></trkpt><trkpt lat="38.4872283" lon="16.2896383"><ele>957.0</ele><time>2026-04-09T11:22:30.225Z</time></trkpt><trkpt lat="38.4872633" lon="16.28944"><ele>957.0</ele><time>2026-04-09T11:22:31.225Z</time></trkpt><trkpt lat="38.4873083" lon="16.289245"><ele>957.0</ele><time>2026-04-09T11:22:32.225Z</time></trkpt><trkpt lat="38.4873533" lon="16.289055"><ele>957.0</ele><time>2026-04-09T11:22:33.225Z</time></trkpt><trkpt lat="38.487395" lon="16.2888683"><ele>957.25</ele><time>2026-04-09T11:22:34.225Z</time></trkpt><trkpt lat="38.48744" lon="16.288695"><ele>957.5</ele><time>2026-04-09T11:22:35.225Z</time></trkpt><trkpt lat="38.4874783" lon="16.288525"><ele>957.75</ele><time>2026-04-09T11:22:36.225Z</time></trkpt><trkpt lat="38.4875167" lon="16.2883517"><ele>958.0</ele><time>2026-04-09T11:22:37.225Z</time></trkpt><trkpt lat="38.48756" lon="16.28819"><ele>957.5</ele><time>2026-04-09T11:22:38.225Z</time></trkpt><trkpt lat="38.4876017" lon="16.2880283"><ele>957.0</ele><time>2026-04-09T11:22:39.225Z</time></trkpt><trkpt lat="38.487645" lon="16.287855"><ele>956.5</ele><time>2026-04-09T11:22:40.225Z</time></trkpt><trkpt lat="38.48769" lon="16.2876767"><ele>956.0</ele><time>2026-04-09T11:22:41.225Z</time></trkpt><trkpt lat="38.4877367" lon="16.2875117"><ele>956.0</ele><time>2026-04-09T11:22:42.225Z</time></trkpt><trkpt lat="38.48777" lon="16.2873567"><ele>956.0</ele><time>2026-04-09T11:22:43.225Z</time></trkpt><trkpt lat="38.4877817" lon="16.28719"><ele>956.0</ele><time>2026-04-09T11:22:44.225Z</time></trkpt><trkpt lat="38.4877867" lon="16.2870317"><ele>956.0</ele><time>2026-04-09T11:22:45.225Z</time></trkpt><trkpt lat="38.4877933" lon="16.2868883"><ele>956.25</ele><time>2026-04-09T11:22:46.225Z</time></trkpt><trkpt lat="38.4877917" lon="16.2867417"><ele>956.5</ele><time>2026-04-09T11:22:47.225Z</time></trkpt><trkpt lat="38.4877933" lon="16.2865933"><ele>956.75</ele><time>2026-04-09T11:22:48.225Z</time></trkpt><trkpt lat="38.48778" lon="16.2864533"><ele>957.0</ele><time>2026-04-09T11:22:49.225Z</time></trkpt><trkpt lat="38.48775" lon="16.28631"><ele>958.0</ele><time>2026-04-09T11:22:50.225Z</time></trkpt><trkpt lat="38.4876917" lon="16.286175"><ele>959.0</ele><time>2026-04-09T11:22:51.225Z</time></trkpt><trkpt lat="38.4876067" lon="16.2860617"><ele>960.0</ele><time>2026-04-09T11:22:52.225Z</time></trkpt><trkpt lat="38.4875167" lon="16.2859617"><ele>961.0</ele><time>2026-04-09T11:22:53.225Z</time></trkpt><trkpt lat="38.4874133" lon="16.2858867"><ele>961.0</ele><time>2026-04-09T11:22:54.225Z</time></trkpt><trkpt lat="38.4873067" lon="16.2858217"><ele>961.0</ele><time>2026-04-09T11:22:55.225Z</time></trkpt><trkpt lat="38.4871933" lon="16.285765"><ele>961.0</ele><time>2026-04-09T11:22:56.225Z</time></trkpt><trkpt lat="38.4870833" lon="16.2857067"><ele>961.0</ele><time>2026-04-09T11:22:57.225Z</time></trkpt><trkpt lat="38.4869733" lon="16.28567"><ele>962.0</ele><time>2026-04-09T11:22:58.225Z</time></trkpt><trkpt lat="38.4868783" lon="16.2856433"><ele>962.9999999999999</ele><time>2026-04-09T11:22:59.225Z</time></trkpt><trkpt lat="38.4867983" lon="16.2856117"><ele>963.9999999999999</ele><time>2026-04-09T11:23:00.225Z</time></trkpt><trkpt lat="38.4867217" lon="16.2855733"><ele>965.0</ele><time>2026-04-09T11:23:01.225Z</time></trkpt><trkpt lat="38.4866517" lon="16.2855333"><ele>966.0</ele><time>2026-04-09T11:23:02.225Z</time></trkpt><trkpt lat="38.4865783" lon="16.2854117"><ele>966.0</ele><time>2026-04-09T11:23:04.225Z</time></trkpt><trkpt lat="38.4865683" lon="16.2852483"><ele>966.0</ele><time>2026-04-09T11:23:06.225Z</time></trkpt><trkpt lat="38.486575" lon="16.2851533"><ele>966.0</ele><time>2026-04-09T11:23:07.225Z</time></trkpt><trkpt lat="38.4865917" lon="16.2850633"><ele>966.0</ele><time>2026-04-09T11:23:08.225Z</time></trkpt><trkpt lat="38.4866217" lon="16.2849883"><ele>966.0</ele><time>2026-04-09T11:23:09.225Z</time></trkpt><trkpt lat="38.4866617" lon="16.284915"><ele>966.0</ele><time>2026-04-09T11:23:10.225Z</time></trkpt><trkpt lat="38.4867167" lon="16.28485"><ele>966.0</ele><time>2026-04-09T11:23:11.225Z</time></trkpt><trkpt lat="38.486775" lon="16.2847883"><ele>966.0</ele><time>2026-04-09T11:23:12.225Z</time></trkpt><trkpt lat="38.4868317" lon="16.2847167"><ele>966.0</ele><time>2026-04-09T11:23:13.225Z</time></trkpt><trkpt lat="38.48689" lon="16.2846367"><ele>966.0</ele><time>2026-04-09T11:23:14.225Z</time></trkpt><trkpt lat="38.4869483" lon="16.2845533"><ele>966.0</ele><time>2026-04-09T11:23:15.225Z</time></trkpt><trkpt lat="38.48701" lon="16.284465"><ele>966.0</ele><time>2026-04-09T11:23:16.225Z</time></trkpt><trkpt lat="38.487075" lon="16.2843767"><ele>967.1666666666666</ele><time>2026-04-09T11:23:17.225Z</time></trkpt><trkpt lat="38.487135" lon="16.284295"><ele>968.3333333333333</ele><time>2026-04-09T11:23:18.225Z</time></trkpt><trkpt lat="38.4872017" lon="16.28422"><ele>969.5</ele><time>2026-04-09T11:23:19.224Z</time></trkpt><trkpt lat="38.4872767" lon="16.2841583"><ele>970.6666666666666</ele><time>2026-04-09T11:23:20.224Z</time></trkpt><trkpt lat="38.4873467" lon="16.28411"><ele>971.8333333333333</ele><time>2026-04-09T11:23:21.224Z</time></trkpt><trkpt lat="38.487415" lon="16.2840683"><ele>973.0</ele><time>2026-04-09T11:23:22.225Z</time></trkpt><trkpt lat="38.4874783" lon="16.2840333"><ele>973.0</ele><time>2026-04-09T11:23:23.225Z</time></trkpt><trkpt lat="38.4875683" lon="16.2840033"><ele>973.0</ele><time>2026-04-09T11:23:25.225Z</time></trkpt><trkpt lat="38.48764" lon="16.2839717"><ele>973.0</ele><time>2026-04-09T11:23:27.225Z</time></trkpt><trkpt lat="38.4877267" lon="16.2839283"><ele>973.0</ele><time>2026-04-09T11:23:29.224Z</time></trkpt><trkpt lat="38.48784" lon="16.2838733"><ele>973.0</ele><time>2026-04-09T11:23:31.225Z</time></trkpt><trkpt lat="38.487905" lon="16.2838333"><ele>973.3333333333333</ele><time>2026-04-09T11:23:32.225Z</time></trkpt><trkpt lat="38.487975" lon="16.2837933"><ele>973.6666666666666</ele><time>2026-04-09T11:23:33.225Z</time></trkpt><trkpt lat="38.4880417" lon="16.28374"><ele>974.0</ele><time>2026-04-09T11:23:34.225Z</time></trkpt><trkpt lat="38.4881183" lon="16.2836933"><ele>974.3333333333333</ele><time>2026-04-09T11:23:35.225Z</time></trkpt><trkpt lat="38.488205" lon="16.2836567"><ele>974.6666666666666</ele><time>2026-04-09T11:23:36.225Z</time></trkpt><trkpt lat="38.4883" lon="16.2836183"><ele>975.0</ele><time>2026-04-09T11:23:37.224Z</time></trkpt><trkpt lat="38.4883883" lon="16.28357"><ele>975.0</ele><time>2026-04-09T11:23:38.225Z</time></trkpt><trkpt lat="38.4884783" lon="16.2835183"><ele>975.0</ele><time>2026-04-09T11:23:39.225Z</time></trkpt><trkpt lat="38.4885633" lon="16.2834683"><ele>975.0</ele><time>2026-04-09T11:23:40.225Z</time></trkpt><trkpt lat="38.4886533" lon="16.2834167"><ele>975.0</ele><time>2026-04-09T11:23:41.225Z</time></trkpt><trkpt lat="38.488745" lon="16.2833683"><ele>975.0</ele><time>2026-04-09T11:23:42.224Z</time></trkpt><trkpt lat="38.4888383" lon="16.283315"><ele>975.0</ele><time>2026-04-09T11:23:43.225Z</time></trkpt><trkpt lat="38.488935" lon="16.2832617"><ele>975.0</ele><time>2026-04-09T11:23:44.225Z</time></trkpt><trkpt lat="38.4890367" lon="16.2832067"><ele>975.0</ele><time>2026-04-09T11:23:45.225Z</time></trkpt><trkpt lat="38.48914" lon="16.283155"><ele>975.0</ele><time>2026-04-09T11:23:46.225Z</time></trkpt><trkpt lat="38.4892317" lon="16.2831033"><ele>975.0</ele><time>2026-04-09T11:23:47.225Z</time></trkpt><trkpt lat="38.48933" lon="16.283055"><ele>975.0</ele><time>2026-04-09T11:23:48.225Z</time></trkpt><trkpt lat="38.4894367" lon="16.282995"><ele>975.0</ele><time>2026-04-09T11:23:49.225Z</time></trkpt><trkpt lat="38.48954" lon="16.2829333"><ele>975.0</ele><time>2026-04-09T11:23:50.225Z</time></trkpt><trkpt lat="38.4896433" lon="16.2828817"><ele>975.0</ele><time>2026-04-09T11:23:51.225Z</time></trkpt><trkpt lat="38.4897483" lon="16.2828417"><ele>975.3333333333334</ele><time>2026-04-09T11:23:52.225Z</time></trkpt><trkpt lat="38.48985" lon="16.2828017"><ele>975.6666666666667</ele><time>2026-04-09T11:23:53.225Z</time></trkpt><trkpt lat="38.48995" lon="16.28277"><ele>976.0</ele><time>2026-04-09T11:23:54.225Z</time></trkpt><trkpt lat="38.49004" lon="16.28274"><ele>976.3333333333334</ele><time>2026-04-09T11:23:55.225Z</time></trkpt><trkpt lat="38.490115" lon="16.28272"><ele>976.6666666666667</ele><time>2026-04-09T11:23:56.225Z</time></trkpt><trkpt lat="38.4901783" lon="16.282705"><ele>977.0</ele><time>2026-04-09T11:23:57.225Z</time></trkpt><trkpt lat="38.4902867" lon="16.28268"><ele>977.0000000000001</ele><time>2026-04-09T11:23:59.225Z</time></trkpt><trkpt lat="38.4903817" lon="16.2826717"><ele>977.0</ele><time>2026-04-09T11:24:26.225Z</time></trkpt><trkpt lat="38.4904467" lon="16.282645"><ele>977.0</ele><time>2026-04-09T11:24:27.225Z</time></trkpt><trkpt lat="38.4905233" lon="16.28262"><ele>977.0</ele><time>2026-04-09T11:24:28.225Z</time></trkpt><trkpt lat="38.49061" lon="16.2825933"><ele>977.0000000000001</ele><time>2026-04-09T11:24:29.225Z</time></trkpt><trkpt lat="38.4907067" lon="16.2825617"><ele>977.0</ele><time>2026-04-09T11:24:30.224Z</time></trkpt><trkpt lat="38.4908067" lon="16.2825267"><ele>977.5000000000001</ele><time>2026-04-09T11:24:31.225Z</time></trkpt><trkpt lat="38.4909033" lon="16.28249"><ele>978.0</ele><time>2026-04-09T11:24:32.225Z</time></trkpt><trkpt lat="38.4909867" lon="16.28246"><ele>978.5</ele><time>2026-04-09T11:24:33.225Z</time></trkpt><trkpt lat="38.491065" lon="16.28243"><ele>979.0</ele><time>2026-04-09T11:24:34.225Z</time></trkpt><trkpt lat="38.4911267" lon="16.2824017"><ele>979.5000000000001</ele><time>2026-04-09T11:24:35.225Z</time></trkpt><trkpt lat="38.4912217" lon="16.2823583"><ele>980.0</ele><time>2026-04-09T11:24:37.225Z</time></trkpt><trkpt lat="38.4912933" lon="16.28235"><ele>980.0000000000001</ele><time>2026-04-09T11:24:39.225Z</time></trkpt><trkpt lat="38.4912217" lon="16.2824333"><ele>980.0</ele><time>2026-04-09T11:31:47.225Z</time></trkpt><trkpt lat="38.4912067" lon="16.2825633"><ele>980.0</ele><time>2026-04-09T11:32:38.226Z</time></trkpt><trkpt lat="38.4911764" lon="16.2824782"><ele>980.0</ele><time>2026-04-09T11:33:05.226Z</time></trkpt><trkpt lat="38.4912104" lon="16.2823907"><ele>980.0000000000001</ele><time>2026-04-09T11:33:17.226Z</time></trkpt><trkpt lat="38.4913076" lon="16.2823818"><ele>980.0</ele><time>2026-04-09T11:35:01.226Z</time></trkpt><trkpt lat="38.491241" lon="16.2823496"><ele>980.0000000000001</ele><time>2026-04-09T12:57:07.237Z</time></trkpt><trkpt lat="38.4911724" lon="16.2823665"><ele>980.0</ele><time>2026-04-09T12:57:27.237Z</time></trkpt><trkpt lat="38.4910913" lon="16.2824145"><ele>980.0</ele><time>2026-04-09T12:57:30.237Z</time></trkpt><trkpt lat="38.4910203" lon="16.2824405"><ele>980.0</ele><time>2026-04-09T12:57:32.237Z</time></trkpt><trkpt lat="38.4909508" lon="16.2824676"><ele>980.0000000000001</ele><time>2026-04-09T12:57:34.237Z</time></trkpt><trkpt lat="38.490864" lon="16.2825063"><ele>980.0</ele><time>2026-04-09T12:57:36.237Z</time></trkpt><trkpt lat="38.4907671" lon="16.2825401"><ele>980.0</ele><time>2026-04-09T12:57:38.237Z</time></trkpt><trkpt lat="38.4906682" lon="16.282583"><ele>980.0</ele><time>2026-04-09T12:57:40.237Z</time></trkpt><trkpt lat="38.4905656" lon="16.2826228"><ele>980.0</ele><time>2026-04-09T12:57:42.237Z</time></trkpt><trkpt lat="38.4904631" lon="16.2826538"><ele>980.0</ele><time>2026-04-09T12:57:44.237Z</time></trkpt><trkpt lat="38.4903556" lon="16.2826727"><ele>980.0</ele><time>2026-04-09T12:57:46.237Z</time></trkpt><trkpt lat="38.4902433" lon="16.2827109"><ele>979.25</ele><time>2026-04-09T12:57:48.237Z</time></trkpt><trkpt lat="38.4901296" lon="16.2827523"><ele>978.5</ele><time>2026-04-09T12:57:50.237Z</time></trkpt><trkpt lat="38.4900196" lon="16.2827709"><ele>977.75</ele><time>2026-04-09T12:57:52.237Z</time></trkpt><trkpt lat="38.4899098" lon="16.2828074"><ele>977.0</ele><time>2026-04-09T12:57:54.236Z</time></trkpt><trkpt lat="38.4897913" lon="16.2828503"><ele>977.0</ele><time>2026-04-09T12:57:56.237Z</time></trkpt><trkpt lat="38.4897186" lon="16.2828759"><ele>977.0</ele><time>2026-04-09T12:57:57.237Z</time></trkpt><trkpt lat="38.4896335" lon="16.2829093"><ele>977.0</ele><time>2026-04-09T12:57:58.237Z</time></trkpt><trkpt lat="38.4895429" lon="16.2829557"><ele>977.0</ele><time>2026-04-09T12:57:59.237Z</time></trkpt><trkpt lat="38.4894396" lon="16.2830065"><ele>977.0</ele><time>2026-04-09T12:58:00.237Z</time></trkpt><trkpt lat="38.4893246" lon="16.2830646"><ele>976.75</ele><time>2026-04-09T12:58:01.237Z</time></trkpt><trkpt lat="38.4892058" lon="16.2831248"><ele>976.5</ele><time>2026-04-09T12:58:02.237Z</time></trkpt><trkpt lat="38.489081" lon="16.2831946"><ele>976.25</ele><time>2026-04-09T12:58:03.237Z</time></trkpt><trkpt lat="38.4889552" lon="16.2832609"><ele>976.0</ele><time>2026-04-09T12:58:04.237Z</time></trkpt><trkpt lat="38.488825" lon="16.2833317"><ele>975.75</ele><time>2026-04-09T12:58:05.236Z</time></trkpt><trkpt lat="38.4886889" lon="16.2834039"><ele>975.5</ele><time>2026-04-09T12:58:06.237Z</time></trkpt><trkpt lat="38.4885541" lon="16.2834788"><ele>975.25</ele><time>2026-04-09T12:58:07.237Z</time></trkpt><trkpt lat="38.4884222" lon="16.2835537"><ele>975.0</ele><time>2026-04-09T12:58:08.237Z</time></trkpt><trkpt lat="38.4882909" lon="16.2836313"><ele>975.0</ele><time>2026-04-09T12:58:09.237Z</time></trkpt><trkpt lat="38.4881615" lon="16.2837051"><ele>975.0</ele><time>2026-04-09T12:58:10.237Z</time></trkpt><trkpt lat="38.4880239" lon="16.2837698"><ele>975.0</ele><time>2026-04-09T12:58:11.237Z</time></trkpt><trkpt lat="38.4878955" lon="16.2838309"><ele>975.0</ele><time>2026-04-09T12:58:12.237Z</time></trkpt><trkpt lat="38.487772" lon="16.2838913"><ele>974.3333333333333</ele><time>2026-04-09T12:58:13.237Z</time></trkpt><trkpt lat="38.4876472" lon="16.2839573"><ele>973.6666666666666</ele><time>2026-04-09T12:58:14.237Z</time></trkpt><trkpt lat="38.4875225" lon="16.2840274"><ele>973.0</ele><time>2026-04-09T12:58:15.237Z</time></trkpt><trkpt lat="38.4872798" lon="16.2841582"><ele>973.0</ele><time>2026-04-09T12:58:17.237Z</time></trkpt><trkpt lat="38.4871768" lon="16.2842292"><ele>973.0</ele><time>2026-04-09T12:58:18.237Z</time></trkpt><trkpt lat="38.487084" lon="16.2843144"><ele>973.0</ele><time>2026-04-09T12:58:19.236Z</time></trkpt><trkpt lat="38.4870098" lon="16.2844159"><ele>973.0</ele><time>2026-04-09T12:58:20.237Z</time></trkpt><trkpt lat="38.486937" lon="16.2845264"><ele>971.25</ele><time>2026-04-09T12:58:21.237Z</time></trkpt><trkpt lat="38.4868611" lon="16.284644"><ele>969.5</ele><time>2026-04-09T12:58:22.236Z</time></trkpt><trkpt lat="38.4867817" lon="16.284759"><ele>967.75</ele><time>2026-04-09T12:58:23.237Z</time></trkpt><trkpt lat="38.4867095" lon="16.2848782"><ele>966.0</ele><time>2026-04-09T12:58:24.237Z</time></trkpt><trkpt lat="38.4866341" lon="16.2849847"><ele>966.0</ele><time>2026-04-09T12:58:25.237Z</time></trkpt><trkpt lat="38.4865701" lon="16.2850751"><ele>966.0</ele><time>2026-04-09T12:58:26.237Z</time></trkpt><trkpt lat="38.4865231" lon="16.2851656"><ele>966.0</ele><time>2026-04-09T12:58:27.237Z</time></trkpt><trkpt lat="38.4864832" lon="16.2852585"><ele>966.0</ele><time>2026-04-09T12:58:28.237Z</time></trkpt><trkpt lat="38.4864433" lon="16.2853341"><ele>966.0</ele><time>2026-04-09T12:58:29.237Z</time></trkpt><trkpt lat="38.4864281" lon="16.2854447"><ele>966.0</ele><time>2026-04-09T12:58:31.237Z</time></trkpt><trkpt lat="38.486481" lon="16.2855148"><ele>966.0</ele><time>2026-04-09T12:58:33.237Z</time></trkpt><trkpt lat="38.4865405" lon="16.2855466"><ele>965.9999999999999</ele><time>2026-04-09T12:58:34.237Z</time></trkpt><trkpt lat="38.4866252" lon="16.2855854"><ele>965.9999999999999</ele><time>2026-04-09T12:58:35.237Z</time></trkpt><trkpt lat="38.4867425" lon="16.2856338"><ele>966.0</ele><time>2026-04-09T12:58:36.237Z</time></trkpt><trkpt lat="38.4868751" lon="16.2856902"><ele>966.0</ele><time>2026-04-09T12:58:37.237Z</time></trkpt><trkpt lat="38.4870131" lon="16.2857474"><ele>964.75</ele><time>2026-04-09T12:58:38.237Z</time></trkpt><trkpt lat="38.4871497" lon="16.2857985"><ele>963.5</ele><time>2026-04-09T12:58:39.237Z</time></trkpt><trkpt lat="38.4872762" lon="16.2858453"><ele>962.25</ele><time>2026-04-09T12:58:40.237Z</time></trkpt><trkpt lat="38.4873959" lon="16.2859094"><ele>961.0</ele><time>2026-04-09T12:58:41.237Z</time></trkpt><trkpt lat="38.4875017" lon="16.2860036"><ele>961.0</ele><time>2026-04-09T12:58:42.237Z</time></trkpt><trkpt lat="38.487598" lon="16.2861187"><ele>961.0</ele><time>2026-04-09T12:58:43.237Z</time></trkpt><trkpt lat="38.4876745" lon="16.2862381"><ele>961.0</ele><time>2026-04-09T12:58:44.237Z</time></trkpt><trkpt lat="38.487733" lon="16.2863735"><ele>961.0</ele><time>2026-04-09T12:58:45.237Z</time></trkpt><trkpt lat="38.4877631" lon="16.2865209"><ele>960.0</ele><time>2026-04-09T12:58:46.237Z</time></trkpt><trkpt lat="38.4877699" lon="16.2866792"><ele>959.0</ele><time>2026-04-09T12:58:47.237Z</time></trkpt><trkpt lat="38.4877615" lon="16.286845"><ele>958.0</ele><time>2026-04-09T12:58:48.237Z</time></trkpt><trkpt lat="38.4877518" lon="16.287018"><ele>957.0</ele><time>2026-04-09T12:58:49.237Z</time></trkpt><trkpt lat="38.4877366" lon="16.2871953"><ele>956.75</ele><time>2026-04-09T12:58:50.237Z</time></trkpt><trkpt lat="38.4877133" lon="16.2873651"><ele>956.5</ele><time>2026-04-09T12:58:51.237Z</time></trkpt><trkpt lat="38.4876785" lon="16.2875429"><ele>956.25</ele><time>2026-04-09T12:58:52.237Z</time></trkpt><trkpt lat="38.4876435" lon="16.2877288"><ele>956.0</ele><time>2026-04-09T12:58:53.237Z</time></trkpt><trkpt lat="38.4876089" lon="16.2879231"><ele>956.6666666666667</ele><time>2026-04-09T12:58:54.237Z</time></trkpt><trkpt lat="38.4875611" lon="16.2881202"><ele>957.3333333333333</ele><time>2026-04-09T12:58:55.237Z</time></trkpt><trkpt lat="38.4875078" lon="16.2883213"><ele>958.0</ele><time>2026-04-09T12:58:56.236Z</time></trkpt><trkpt lat="38.4874511" lon="16.2885245"><ele>958.0</ele><time>2026-04-09T12:58:57.237Z</time></trkpt><trkpt lat="38.4873951" lon="16.2887315"><ele>958.0</ele><time>2026-04-09T12:58:58.237Z</time></trkpt><trkpt lat="38.4873394" lon="16.2889484"><ele>958.0</ele><time>2026-04-09T12:58:59.237Z</time></trkpt><trkpt lat="38.4872927" lon="16.2891496"><ele>957.75</ele><time>2026-04-09T12:59:00.237Z</time></trkpt><trkpt lat="38.4872482" lon="16.2893402"><ele>957.5</ele><time>2026-04-09T12:59:01.237Z</time></trkpt><trkpt lat="38.4872052" lon="16.2895199"><ele>957.25</ele><time>2026-04-09T12:59:02.236Z</time></trkpt><trkpt lat="38.4871793" lon="16.2896905"><ele>957.0</ele><time>2026-04-09T12:59:03.237Z</time></trkpt><trkpt lat="38.4871599" lon="16.289853"><ele>957.0</ele><time>2026-04-09T12:59:04.237Z</time></trkpt><trkpt lat="38.4871429" lon="16.2900052"><ele>957.0</ele><time>2026-04-09T12:59:05.237Z</time></trkpt><trkpt lat="38.4871357" lon="16.2901438"><ele>957.0</ele><time>2026-04-09T12:59:06.236Z</time></trkpt><trkpt lat="38.4871251" lon="16.2902934"><ele>957.0</ele><time>2026-04-09T12:59:07.237Z</time></trkpt><trkpt lat="38.4871065" lon="16.2904464"><ele>954.5</ele><time>2026-04-09T12:59:08.237Z</time></trkpt><trkpt lat="38.4870867" lon="16.2906028"><ele>952.0</ele><time>2026-04-09T12:59:09.237Z</time></trkpt><trkpt lat="38.4870646" lon="16.2907598"><ele>949.5</ele><time>2026-04-09T12:59:10.237Z</time></trkpt><trkpt lat="38.4870439" lon="16.2909242"><ele>947.0</ele><time>2026-04-09T12:59:11.237Z</time></trkpt><trkpt lat="38.4870252" lon="16.2910866"><ele>947.0</ele><time>2026-04-09T12:59:12.237Z</time></trkpt><trkpt lat="38.4870082" lon="16.2912455"><ele>947.0</ele><time>2026-04-09T12:59:13.237Z</time></trkpt><trkpt lat="38.4869888" lon="16.2913901"><ele>947.0</ele><time>2026-04-09T12:59:14.236Z</time></trkpt><trkpt lat="38.4869747" lon="16.2915321"><ele>947.0</ele><time>2026-04-09T12:59:15.236Z</time></trkpt><trkpt lat="38.4869663" lon="16.2916533"><ele>947.0</ele><time>2026-04-09T12:59:16.237Z</time></trkpt><trkpt lat="38.4869645" lon="16.2917416"><ele>947.4000000000001</ele><time>2026-04-09T12:59:17.237Z</time></trkpt><trkpt lat="38.4869692" lon="16.2918492"><ele>947.8000000000001</ele><time>2026-04-09T12:59:19.237Z</time></trkpt><trkpt lat="38.4869865" lon="16.2919315"><ele>948.2</ele><time>2026-04-09T12:59:22.237Z</time></trkpt><trkpt lat="38.4870292" lon="16.2920807"><ele>948.6</ele><time>2026-04-09T12:59:24.237Z</time></trkpt><trkpt lat="38.487072" lon="16.2921871"><ele>949.0</ele><time>2026-04-09T12:59:25.236Z</time></trkpt><trkpt lat="38.4871418" lon="16.2923259"><ele>949.0</ele><time>2026-04-09T12:59:26.237Z</time></trkpt><trkpt lat="38.4872241" lon="16.2924748"><ele>949.0</ele><time>2026-04-09T12:59:27.237Z</time></trkpt><trkpt lat="38.4873182" lon="16.2926231"><ele>949.0</ele><time>2026-04-09T12:59:28.237Z</time></trkpt><trkpt lat="38.4874111" lon="16.2927522"><ele>949.0</ele><time>2026-04-09T12:59:29.237Z</time></trkpt><trkpt lat="38.4875152" lon="16.2928645"><ele>949.0</ele><time>2026-04-09T12:59:30.237Z</time></trkpt><trkpt lat="38.4876355" lon="16.2929576"><ele>949.0</ele><time>2026-04-09T12:59:31.237Z</time></trkpt><trkpt lat="38.4877838" lon="16.2930206"><ele>949.0</ele><time>2026-04-09T12:59:32.237Z</time></trkpt><trkpt lat="38.4879341" lon="16.2930631"><ele>946.3333333333333</ele><time>2026-04-09T12:59:33.237Z</time></trkpt><trkpt lat="38.4880744" lon="16.2931043"><ele>943.6666666666667</ele><time>2026-04-09T12:59:34.237Z</time></trkpt><trkpt lat="38.4882152" lon="16.2931794"><ele>941.0</ele><time>2026-04-09T12:59:35.236Z</time></trkpt><trkpt lat="38.4883513" lon="16.2932863"><ele>941.0</ele><time>2026-04-09T12:59:36.237Z</time></trkpt><trkpt lat="38.488483" lon="16.2934109"><ele>941.0</ele><time>2026-04-09T12:59:37.237Z</time></trkpt><trkpt lat="38.4886108" lon="16.2935284"><ele>941.0</ele><time>2026-04-09T12:59:38.237Z</time></trkpt><trkpt lat="38.4887479" lon="16.2936526"><ele>940.0</ele><time>2026-04-09T12:59:39.236Z</time></trkpt><trkpt lat="38.488882" lon="16.2937728"><ele>939.0</ele><time>2026-04-09T12:59:40.237Z</time></trkpt><trkpt lat="38.4890044" lon="16.2938882"><ele>938.0</ele><time>2026-04-09T12:59:41.237Z</time></trkpt><trkpt lat="38.4891011" lon="16.294019"><ele>938.0</ele><time>2026-04-09T12:59:42.237Z</time></trkpt><trkpt lat="38.4891721" lon="16.2941619"><ele>938.0</ele><time>2026-04-09T12:59:43.237Z</time></trkpt><trkpt lat="38.4892058" lon="16.2943153"><ele>938.0</ele><time>2026-04-09T12:59:44.237Z</time></trkpt><trkpt lat="38.4892106" lon="16.2944568"><ele>938.0</ele><time>2026-04-09T12:59:45.237Z</time></trkpt><trkpt lat="38.489186" lon="16.2945723"><ele>938.0</ele><time>2026-04-09T12:59:46.237Z</time></trkpt><trkpt lat="38.4891427" lon="16.2946525"><ele>938.0</ele><time>2026-04-09T12:59:47.237Z</time></trkpt><trkpt lat="38.4890758" lon="16.2947166"><ele>938.0</ele><time>2026-04-09T12:59:48.237Z</time></trkpt><trkpt lat="38.4889831" lon="16.2947486"><ele>938.0</ele><time>2026-04-09T12:59:49.237Z</time></trkpt><trkpt lat="38.488871" lon="16.294767"><ele>938.0</ele><time>2026-04-09T12:59:50.237Z</time></trkpt><trkpt lat="38.4887405" lon="16.2947798"><ele>937.25</ele><time>2026-04-09T12:59:51.237Z</time></trkpt><trkpt lat="38.4886042" lon="16.2948053"><ele>936.5</ele><time>2026-04-09T12:59:52.237Z</time></trkpt><trkpt lat="38.4884785" lon="16.2948674"><ele>935.75</ele><time>2026-04-09T12:59:53.237Z</time></trkpt><trkpt lat="38.4883836" lon="16.294975"><ele>935.0</ele><time>2026-04-09T12:59:54.237Z</time></trkpt><trkpt lat="38.4883235" lon="16.2951016"><ele>935.0</ele><time>2026-04-09T12:59:55.237Z</time></trkpt><trkpt lat="38.4883007" lon="16.2952167"><ele>935.0</ele><time>2026-04-09T12:59:56.237Z</time></trkpt><trkpt lat="38.4883202" lon="16.2953313"><ele>935.0</ele><time>2026-04-09T12:59:57.237Z</time></trkpt><trkpt lat="38.4883715" lon="16.2954506"><ele>935.0</ele><time>2026-04-09T12:59:58.237Z</time></trkpt><trkpt lat="38.4884402" lon="16.2955723"><ele>935.0</ele><time>2026-04-09T12:59:59.237Z</time></trkpt><trkpt lat="38.4885144" lon="16.2956963"><ele>936.0</ele><time>2026-04-09T13:00:00.237Z</time></trkpt><trkpt lat="38.488583" lon="16.2958282"><ele>937.0</ele><time>2026-04-09T13:00:01.237Z</time></trkpt><trkpt lat="38.4886289" lon="16.2959523"><ele>938.0</ele><time>2026-04-09T13:00:02.237Z</time></trkpt><trkpt lat="38.4886398" lon="16.2960513"><ele>939.0</ele><time>2026-04-09T13:00:03.236Z</time></trkpt><trkpt lat="38.4886169" lon="16.2961356"><ele>940.0</ele><time>2026-04-09T13:00:04.237Z</time></trkpt><trkpt lat="38.4885787" lon="16.2962107"><ele>940.0</ele><time>2026-04-09T13:00:05.237Z</time></trkpt><trkpt lat="38.4885189" lon="16.2962815"><ele>940.0</ele><time>2026-04-09T13:00:06.237Z</time></trkpt><trkpt lat="38.4884368" lon="16.2963349"><ele>940.0</ele><time>2026-04-09T13:00:07.237Z</time></trkpt><trkpt lat="38.4883421" lon="16.2963764"><ele>940.0</ele><time>2026-04-09T13:00:08.237Z</time></trkpt><trkpt lat="38.488239" lon="16.296422"><ele>940.0</ele><time>2026-04-09T13:00:09.237Z</time></trkpt><trkpt lat="38.4881361" lon="16.2964611"><ele>942.2</ele><time>2026-04-09T13:00:10.237Z</time></trkpt><trkpt lat="38.4880367" lon="16.2964993"><ele>944.4</ele><time>2026-04-09T13:00:11.236Z</time></trkpt><trkpt lat="38.4879511" lon="16.2965373"><ele>946.5999999999999</ele><time>2026-04-09T13:00:12.236Z</time></trkpt><trkpt lat="38.4878592" lon="16.2965409"><ele>948.8</ele><time>2026-04-09T13:00:13.237Z</time></trkpt><trkpt lat="38.4877718" lon="16.2965309"><ele>951.0</ele><time>2026-04-09T13:00:14.237Z</time></trkpt><trkpt lat="38.4876818" lon="16.296509"><ele>951.4</ele><time>2026-04-09T13:00:15.237Z</time></trkpt><trkpt lat="38.4875855" lon="16.2964889"><ele>951.8</ele><time>2026-04-09T13:00:16.237Z</time></trkpt><trkpt lat="38.4874837" lon="16.2964779"><ele>952.1999999999999</ele><time>2026-04-09T13:00:17.237Z</time></trkpt><trkpt lat="38.4873797" lon="16.2964701"><ele>952.5999999999999</ele><time>2026-04-09T13:00:18.237Z</time></trkpt><trkpt lat="38.4872765" lon="16.2964651"><ele>953.0</ele><time>2026-04-09T13:00:19.237Z</time></trkpt><trkpt lat="38.4871733" lon="16.2964689"><ele>953.0</ele><time>2026-04-09T13:00:20.237Z</time></trkpt><trkpt lat="38.4870779" lon="16.2964677"><ele>953.0</ele><time>2026-04-09T13:00:21.237Z</time></trkpt><trkpt lat="38.486989" lon="16.2964838"><ele>953.0</ele><time>2026-04-09T13:00:22.237Z</time></trkpt><trkpt lat="38.4868912" lon="16.296525"><ele>953.0</ele><time>2026-04-09T13:00:24.237Z</time></trkpt><trkpt lat="38.4868254" lon="16.2965439"><ele>953.0</ele><time>2026-04-09T13:00:26.237Z</time></trkpt><trkpt lat="38.4867472" lon="16.2966391"><ele>953.0</ele><time>2026-04-09T13:00:28.237Z</time></trkpt><trkpt lat="38.4866928" lon="16.2967079"><ele>953.0</ele><time>2026-04-09T13:00:29.237Z</time></trkpt><trkpt lat="38.486633" lon="16.2967945"><ele>953.0</ele><time>2026-04-09T13:00:30.237Z</time></trkpt><trkpt lat="38.4865663" lon="16.2968987"><ele>953.0</ele><time>2026-04-09T13:00:31.237Z</time></trkpt><trkpt lat="38.4864988" lon="16.2970143"><ele>953.0</ele><time>2026-04-09T13:00:32.236Z</time></trkpt><trkpt lat="38.4864349" lon="16.2971562"><ele>952.5</ele><time>2026-04-09T13:00:33.237Z</time></trkpt><trkpt lat="38.4863652" lon="16.2973006"><ele>952.0</ele><time>2026-04-09T13:00:34.237Z</time></trkpt><trkpt lat="38.486288" lon="16.2974426"><ele>951.5</ele><time>2026-04-09T13:00:35.237Z</time></trkpt><trkpt lat="38.4862058" lon="16.2975941"><ele>951.0</ele><time>2026-04-09T13:00:36.237Z</time></trkpt><trkpt lat="38.4861207" lon="16.2977488"><ele>951.0</ele><time>2026-04-09T13:00:37.237Z</time></trkpt><trkpt lat="38.4860313" lon="16.2978929"><ele>951.0</ele><time>2026-04-09T13:00:38.237Z</time></trkpt><trkpt lat="38.4859505" lon="16.2980316"><ele>951.0</ele><time>2026-04-09T13:00:39.236Z</time></trkpt><trkpt lat="38.4858749" lon="16.2981569"><ele>951.0</ele><time>2026-04-09T13:00:40.237Z</time></trkpt><trkpt lat="38.4858118" lon="16.2982769"><ele>954.25</ele><time>2026-04-09T13:00:41.237Z</time></trkpt><trkpt lat="38.4857442" lon="16.2983914"><ele>957.5</ele><time>2026-04-09T13:00:42.237Z</time></trkpt><trkpt lat="38.4856632" lon="16.2985061"><ele>960.75</ele><time>2026-04-09T13:00:43.237Z</time></trkpt><trkpt lat="38.4855693" lon="16.2986142"><ele>964.0</ele><time>2026-04-09T13:00:44.237Z</time></trkpt><trkpt lat="38.4854622" lon="16.2987204"><ele>963.5</ele><time>2026-04-09T13:00:45.237Z</time></trkpt><trkpt lat="38.485355" lon="16.2988255"><ele>963.0</ele><time>2026-04-09T13:00:46.237Z</time></trkpt><trkpt lat="38.4852584" lon="16.2989316"><ele>962.5</ele><time>2026-04-09T13:00:47.237Z</time></trkpt><trkpt lat="38.4851742" lon="16.2990353"><ele>962.0</ele><time>2026-04-09T13:00:48.237Z</time></trkpt><trkpt lat="38.4850894" lon="16.2991144"><ele>962.0</ele><time>2026-04-09T13:00:49.237Z</time></trkpt><trkpt lat="38.4850198" lon="16.2991899"><ele>962.0</ele><time>2026-04-09T13:00:50.237Z</time></trkpt><trkpt lat="38.4849654" lon="16.2992581"><ele>962.0</ele><time>2026-04-09T13:00:51.237Z</time></trkpt><trkpt lat="38.4849131" lon="16.2993147"><ele>962.0</ele><time>2026-04-09T13:00:52.236Z</time></trkpt><trkpt lat="38.4848199" lon="16.2994201"><ele>962.0</ele><time>2026-04-09T13:00:54.237Z</time></trkpt><trkpt lat="38.4847415" lon="16.2995078"><ele>961.9999999999999</ele><time>2026-04-09T13:00:56.237Z</time></trkpt><trkpt lat="38.4846633" lon="16.2995257"><ele>962.0</ele><time>2026-04-09T13:00:58.237Z</time></trkpt><trkpt lat="38.4846137" lon="16.2994656"><ele>961.9999999999999</ele><time>2026-04-09T13:01:00.237Z</time></trkpt><trkpt lat="38.4845426" lon="16.2994616"><ele>961.9999999999999</ele><time>2026-04-09T13:01:03.237Z</time></trkpt><trkpt lat="38.4845472" lon="16.2995697"><ele>962.0</ele><time>2026-04-09T13:13:11.236Z</time></trkpt><trkpt lat="38.4845158" lon="16.2996464"><ele>961.9999999999999</ele><time>2026-04-09T13:13:13.237Z</time></trkpt><trkpt lat="38.4845655" lon="16.299716"><ele>961.9999999999999</ele><time>2026-04-09T13:13:16.237Z</time></trkpt><trkpt lat="38.484645" lon="16.2997143"><ele>962.0</ele><time>2026-04-09T13:13:46.237Z</time></trkpt><trkpt lat="38.4847138" lon="16.2996184"><ele>962.0</ele><time>2026-04-09T13:13:49.237Z</time></trkpt><trkpt lat="38.4847627" lon="16.2995262"><ele>962.0</ele><time>2026-04-09T13:13:51.237Z</time></trkpt><trkpt lat="38.4848271" lon="16.2994221"><ele>962.0</ele><time>2026-04-09T13:13:53.237Z</time></trkpt><trkpt lat="38.4849168" lon="16.2993137"><ele>962.0</ele><time>2026-04-09T13:13:55.237Z</time></trkpt><trkpt lat="38.4849701" lon="16.299249"><ele>962.0</ele><time>2026-04-09T13:13:56.237Z</time></trkpt><trkpt lat="38.4850241" lon="16.2991782"><ele>962.0</ele><time>2026-04-09T13:13:57.237Z</time></trkpt><trkpt lat="38.4850857" lon="16.2990999"><ele>962.0</ele><time>2026-04-09T13:13:58.237Z</time></trkpt><trkpt lat="38.4851554" lon="16.2990135"><ele>962.0</ele><time>2026-04-09T13:13:59.237Z</time></trkpt><trkpt lat="38.4852218" lon="16.2989189"><ele>962.0</ele><time>2026-04-09T13:14:00.237Z</time></trkpt><trkpt lat="38.4852976" lon="16.2988253"><ele>962.4000000000001</ele><time>2026-04-09T13:14:01.237Z</time></trkpt><trkpt lat="38.4853829" lon="16.2987324"><ele>962.8000000000001</ele><time>2026-04-09T13:14:02.237Z</time></trkpt><trkpt lat="38.4854643" lon="16.2986404"><ele>963.2</ele><time>2026-04-09T13:14:03.237Z</time></trkpt><trkpt lat="38.4855379" lon="16.2985498"><ele>963.6</ele><time>2026-04-09T13:14:04.237Z</time></trkpt><trkpt lat="38.4856138" lon="16.2984785"><ele>964.0</ele><time>2026-04-09T13:14:05.237Z</time></trkpt><trkpt lat="38.485686" lon="16.2984052"><ele>964.0</ele><time>2026-04-09T13:14:06.237Z</time></trkpt><trkpt lat="38.4857529" lon="16.2983339"><ele>964.0000000000001</ele><time>2026-04-09T13:14:07.237Z</time></trkpt><trkpt lat="38.4858179" lon="16.2982534"><ele>964.0000000000001</ele><time>2026-04-09T13:14:08.237Z</time></trkpt><trkpt lat="38.4858814" lon="16.2981636"><ele>964.0</ele><time>2026-04-09T13:14:09.236Z</time></trkpt><trkpt lat="38.4859432" lon="16.2980626"><ele>964.0</ele><time>2026-04-09T13:14:10.237Z</time></trkpt><trkpt lat="38.4860048" lon="16.2979551"><ele>963.75</ele><time>2026-04-09T13:14:11.237Z</time></trkpt><trkpt lat="38.4860697" lon="16.2978463"><ele>963.5</ele><time>2026-04-09T13:14:12.237Z</time></trkpt><trkpt lat="38.4861334" lon="16.2977326"><ele>963.25</ele><time>2026-04-09T13:14:13.237Z</time></trkpt><trkpt lat="38.4862043" lon="16.2976093"><ele>963.0</ele><time>2026-04-09T13:14:14.237Z</time></trkpt><trkpt lat="38.486275" lon="16.2974743"><ele>963.0</ele><time>2026-04-09T13:14:15.236Z</time></trkpt><trkpt lat="38.4863529" lon="16.2973346"><ele>963.0</ele><time>2026-04-09T13:14:16.237Z</time></trkpt><trkpt lat="38.4864353" lon="16.2971996"><ele>963.0</ele><time>2026-04-09T13:14:17.237Z</time></trkpt><trkpt lat="38.4865155" lon="16.2970748"><ele>963.0</ele><time>2026-04-09T13:14:18.237Z</time></trkpt><trkpt lat="38.486581" lon="16.2969409"><ele>961.0</ele><time>2026-04-09T13:14:19.237Z</time></trkpt><trkpt lat="38.4866426" lon="16.2968213"><ele>959.0</ele><time>2026-04-09T13:14:20.237Z</time></trkpt><trkpt lat="38.4866968" lon="16.2967056"><ele>957.0</ele><time>2026-04-09T13:14:21.237Z</time></trkpt><trkpt lat="38.4867517" lon="16.2966114"><ele>955.0</ele><time>2026-04-09T13:14:22.237Z</time></trkpt><trkpt lat="38.4868195" lon="16.2965288"><ele>953.0</ele><time>2026-04-09T13:14:23.237Z</time></trkpt><trkpt lat="38.4869047" lon="16.2964714"><ele>953.0</ele><time>2026-04-09T13:14:24.237Z</time></trkpt><trkpt lat="38.4870151" lon="16.2964416"><ele>953.0</ele><time>2026-04-09T13:14:25.237Z</time></trkpt><trkpt lat="38.4871344" lon="16.2964255"><ele>953.0</ele><time>2026-04-09T13:14:26.237Z</time></trkpt><trkpt lat="38.4872583" lon="16.2964311"><ele>953.0</ele><time>2026-04-09T13:14:27.237Z</time></trkpt><trkpt lat="38.4873715" lon="16.2964481"><ele>953.0</ele><time>2026-04-09T13:14:28.237Z</time></trkpt><trkpt lat="38.487472" lon="16.2964627"><ele>953.0</ele><time>2026-04-09T13:14:29.237Z</time></trkpt><trkpt lat="38.4875593" lon="16.2964846"><ele>953.0</ele><time>2026-04-09T13:14:30.237Z</time></trkpt><trkpt lat="38.4876325" lon="16.2965156"><ele>953.0</ele><time>2026-04-09T13:14:31.237Z</time></trkpt><trkpt lat="38.4876889" lon="16.2965579"><ele>953.0</ele><time>2026-04-09T13:14:32.237Z</time></trkpt><trkpt lat="38.4877769" lon="16.296679"><ele>953.0</ele><time>2026-04-09T13:14:34.237Z</time></trkpt><trkpt lat="38.4878264" lon="16.2967433"><ele>953.0</ele><time>2026-04-09T13:14:35.237Z</time></trkpt><trkpt lat="38.4879375" lon="16.2967933"><ele>953.0</ele><time>2026-04-09T13:14:37.237Z</time></trkpt><trkpt lat="38.4880467" lon="16.2967352"><ele>953.0</ele><time>2026-04-09T13:14:39.237Z</time></trkpt><trkpt lat="38.4881465" lon="16.2966596"><ele>953.0</ele><time>2026-04-09T13:14:41.237Z</time></trkpt><trkpt lat="38.4881976" lon="16.2966089"><ele>952.6666666666667</ele><time>2026-04-09T13:14:42.237Z</time></trkpt><trkpt lat="38.4882552" lon="16.2965742"><ele>952.3333333333334</ele><time>2026-04-09T13:14:43.237Z</time></trkpt><trkpt lat="38.4883277" lon="16.2965642"><ele>952.0</ele><time>2026-04-09T13:14:44.237Z</time></trkpt><trkpt lat="38.4884036" lon="16.2965646"><ele>951.6666666666667</ele><time>2026-04-09T13:14:45.237Z</time></trkpt><trkpt lat="38.4884886" lon="16.2965683"><ele>951.3333333333334</ele><time>2026-04-09T13:14:46.236Z</time></trkpt><trkpt lat="38.488582" lon="16.2965719"><ele>951.0</ele><time>2026-04-09T13:14:47.236Z</time></trkpt><trkpt lat="38.4886809" lon="16.2965711"><ele>951.4</ele><time>2026-04-09T13:14:48.237Z</time></trkpt><trkpt lat="38.4887843" lon="16.2965582"><ele>951.8</ele><time>2026-04-09T13:14:49.237Z</time></trkpt><trkpt lat="38.4888893" lon="16.2965365"><ele>952.1999999999999</ele><time>2026-04-09T13:14:50.237Z</time></trkpt><trkpt lat="38.4889974" lon="16.2965095"><ele>952.5999999999999</ele><time>2026-04-09T13:14:51.237Z</time></trkpt><trkpt lat="38.4891088" lon="16.2964725"><ele>953.0</ele><time>2026-04-09T13:14:52.237Z</time></trkpt><trkpt lat="38.4892212" lon="16.2964289"><ele>952.75</ele><time>2026-04-09T13:14:53.237Z</time></trkpt><trkpt lat="38.4893349" lon="16.2963841"><ele>952.5</ele><time>2026-04-09T13:14:54.236Z</time></trkpt><trkpt lat="38.4894483" lon="16.2963279"><ele>952.25</ele><time>2026-04-09T13:14:55.237Z</time></trkpt><trkpt lat="38.4895722" lon="16.2962663"><ele>952.0</ele><time>2026-04-09T13:14:56.237Z</time></trkpt><trkpt lat="38.4896962" lon="16.2962081"><ele>953.0</ele><time>2026-04-09T13:14:57.237Z</time></trkpt><trkpt lat="38.4898271" lon="16.2961378"><ele>954.0</ele><time>2026-04-09T13:14:58.237Z</time></trkpt><trkpt lat="38.489956" lon="16.2960775"><ele>955.0</ele><time>2026-04-09T13:14:59.237Z</time></trkpt><trkpt lat="38.4900862" lon="16.296021"><ele>956.0</ele><time>2026-04-09T13:15:00.237Z</time></trkpt><trkpt lat="38.4902165" lon="16.295961"><ele>956.0</ele><time>2026-04-09T13:15:01.236Z</time></trkpt><trkpt lat="38.4903524" lon="16.2958858"><ele>956.0</ele><time>2026-04-09T13:15:02.237Z</time></trkpt><trkpt lat="38.4904912" lon="16.2958179"><ele>956.0</ele><time>2026-04-09T13:15:03.237Z</time></trkpt><trkpt lat="38.4906313" lon="16.2957421"><ele>956.0</ele><time>2026-04-09T13:15:04.237Z</time></trkpt><trkpt lat="38.4907753" lon="16.2956697"><ele>956.0</ele><time>2026-04-09T13:15:05.236Z</time></trkpt><trkpt lat="38.4909164" lon="16.2955898"><ele>956.0</ele><time>2026-04-09T13:15:06.237Z</time></trkpt><trkpt lat="38.4910619" lon="16.2955136"><ele>956.0</ele><time>2026-04-09T13:15:07.237Z</time></trkpt><trkpt lat="38.4912041" lon="16.2954413"><ele>957.75</ele><time>2026-04-09T13:15:08.237Z</time></trkpt><trkpt lat="38.4913329" lon="16.295373"><ele>959.5</ele><time>2026-04-09T13:15:09.237Z</time></trkpt><trkpt lat="38.4914501" lon="16.295311"><ele>961.25</ele><time>2026-04-09T13:15:10.237Z</time></trkpt><trkpt lat="38.4915686" lon="16.2952494"><ele>963.0</ele><time>2026-04-09T13:15:11.237Z</time></trkpt><trkpt lat="38.4916866" lon="16.295187"><ele>963.0</ele><time>2026-04-09T13:15:12.236Z</time></trkpt><trkpt lat="38.4918015" lon="16.2951386"><ele>963.0</ele><time>2026-04-09T13:15:13.237Z</time></trkpt><trkpt lat="38.4919214" lon="16.2950998"><ele>963.0</ele><time>2026-04-09T13:15:14.237Z</time></trkpt><trkpt lat="38.4920435" lon="16.2950681"><ele>963.0</ele><time>2026-04-09T13:15:15.237Z</time></trkpt><trkpt lat="38.492173" lon="16.2950437"><ele>963.75</ele><time>2026-04-09T13:15:16.237Z</time></trkpt><trkpt lat="38.4923137" lon="16.295018"><ele>964.5</ele><time>2026-04-09T13:15:17.236Z</time></trkpt><trkpt lat="38.492459" lon="16.2949979"><ele>965.25</ele><time>2026-04-09T13:15:18.237Z</time></trkpt><trkpt lat="38.4925956" lon="16.2949869"><ele>966.0</ele><time>2026-04-09T13:15:19.237Z</time></trkpt><trkpt lat="38.4927249" lon="16.2949849"><ele>966.0</ele><time>2026-04-09T13:15:20.237Z</time></trkpt><trkpt lat="38.4928558" lon="16.2949779"><ele>966.0</ele><time>2026-04-09T13:15:21.237Z</time></trkpt><trkpt lat="38.4929758" lon="16.2949653"><ele>966.0</ele><time>2026-04-09T13:15:22.237Z</time></trkpt><trkpt lat="38.4930881" lon="16.2949479"><ele>966.0</ele><time>2026-04-09T13:15:23.237Z</time></trkpt><trkpt lat="38.4932133" lon="16.2949367"><ele>966.25</ele><time>2026-04-09T13:15:24.237Z</time></trkpt><trkpt lat="38.4933428" lon="16.2949231"><ele>966.5</ele><time>2026-04-09T13:15:25.236Z</time></trkpt><trkpt lat="38.4934752" lon="16.2949139"><ele>966.75</ele><time>2026-04-09T13:15:26.237Z</time></trkpt><trkpt lat="38.4936118" lon="16.2949045"><ele>967.0</ele><time>2026-04-09T13:15:27.237Z</time></trkpt><trkpt lat="38.4937544" lon="16.294896"><ele>967.0</ele><time>2026-04-09T13:15:28.237Z</time></trkpt><trkpt lat="38.4938995" lon="16.2948819"><ele>967.0</ele><time>2026-04-09T13:15:29.237Z</time></trkpt><trkpt lat="38.4940491" lon="16.2948679"><ele>967.0</ele><time>2026-04-09T13:15:30.237Z</time></trkpt><trkpt lat="38.4942017" lon="16.2948508"><ele>967.0</ele><time>2026-04-09T13:15:31.236Z</time></trkpt><trkpt lat="38.4943542" lon="16.294834"><ele>967.0</ele><time>2026-04-09T13:15:32.237Z</time></trkpt><trkpt lat="38.494503" lon="16.2948216"><ele>967.0</ele><time>2026-04-09T13:15:33.236Z</time></trkpt><trkpt lat="38.4946473" lon="16.2948036"><ele>967.0</ele><time>2026-04-09T13:15:34.236Z</time></trkpt><trkpt lat="38.49479" lon="16.2947849"><ele>967.0</ele><time>2026-04-09T13:15:35.237Z</time></trkpt><trkpt lat="38.4949243" lon="16.294768"><ele>967.0</ele><time>2026-04-09T13:15:36.237Z</time></trkpt><trkpt lat="38.4950619" lon="16.2947513"><ele>967.0</ele><time>2026-04-09T13:15:37.237Z</time></trkpt><trkpt lat="38.4951984" lon="16.2947347"><ele>967.0</ele><time>2026-04-09T13:15:38.237Z</time></trkpt><trkpt lat="38.4953348" lon="16.294718"><ele>967.0</ele><time>2026-04-09T13:15:39.237Z</time></trkpt><trkpt lat="38.4954753" lon="16.2947102"><ele>967.75</ele><time>2026-04-09T13:15:40.237Z</time></trkpt><trkpt lat="38.4956138" lon="16.2947038"><ele>968.5</ele><time>2026-04-09T13:15:41.237Z</time></trkpt><trkpt lat="38.4957601" lon="16.2946901"><ele>969.25</ele><time>2026-04-09T13:15:42.237Z</time></trkpt><trkpt lat="38.495914" lon="16.294672"><ele>970.0</ele><time>2026-04-09T13:15:43.236Z</time></trkpt><trkpt lat="38.4960746" lon="16.2946494"><ele>970.0</ele><time>2026-04-09T13:15:44.237Z</time></trkpt><trkpt lat="38.4962366" lon="16.2946247"><ele>970.0</ele><time>2026-04-09T13:15:45.237Z</time></trkpt><trkpt lat="38.4963962" lon="16.294609"><ele>970.0</ele><time>2026-04-09T13:15:46.237Z</time></trkpt><trkpt lat="38.4965505" lon="16.2946014"><ele>970.6666666666666</ele><time>2026-04-09T13:15:47.237Z</time></trkpt><trkpt lat="38.4967138" lon="16.2945863"><ele>971.3333333333333</ele><time>2026-04-09T13:15:48.237Z</time></trkpt><trkpt lat="38.4968673" lon="16.2945712"><ele>972.0</ele><time>2026-04-09T13:15:49.237Z</time></trkpt><trkpt lat="38.497008" lon="16.2945493"><ele>971.75</ele><time>2026-04-09T13:15:50.237Z</time></trkpt><trkpt lat="38.4971411" lon="16.2945348"><ele>971.5</ele><time>2026-04-09T13:15:51.237Z</time></trkpt><trkpt lat="38.497276" lon="16.2945224"><ele>971.25</ele><time>2026-04-09T13:15:52.237Z</time></trkpt><trkpt lat="38.4974007" lon="16.2945171"><ele>971.0</ele><time>2026-04-09T13:15:53.237Z</time></trkpt><trkpt lat="38.497523" lon="16.2945121"><ele>971.0</ele><time>2026-04-09T13:15:54.237Z</time></trkpt><trkpt lat="38.4976458" lon="16.2944973"><ele>971.0</ele><time>2026-04-09T13:15:55.237Z</time></trkpt><trkpt lat="38.4977687" lon="16.294482"><ele>971.0</ele><time>2026-04-09T13:15:56.237Z</time></trkpt><trkpt lat="38.4979042" lon="16.29447"><ele>971.0</ele><time>2026-04-09T13:15:57.237Z</time></trkpt><trkpt lat="38.4980439" lon="16.2944681"><ele>972.0</ele><time>2026-04-09T13:15:58.237Z</time></trkpt><trkpt lat="38.4981827" lon="16.2944696"><ele>973.0</ele><time>2026-04-09T13:15:59.237Z</time></trkpt><trkpt lat="38.4983337" lon="16.2944458"><ele>974.0</ele><time>2026-04-09T13:16:00.236Z</time></trkpt><trkpt lat="38.4984889" lon="16.2944129"><ele>975.0</ele><time>2026-04-09T13:16:01.237Z</time></trkpt><trkpt lat="38.4986505" lon="16.2943727"><ele>976.3333333333333</ele><time>2026-04-09T13:16:02.237Z</time></trkpt><trkpt lat="38.4988111" lon="16.2943162"><ele>977.6666666666666</ele><time>2026-04-09T13:16:03.236Z</time></trkpt><trkpt lat="38.4989669" lon="16.2942381"><ele>979.0</ele><time>2026-04-09T13:16:04.237Z</time></trkpt><trkpt lat="38.499132" lon="16.294146"><ele>979.0</ele><time>2026-04-09T13:16:05.237Z</time></trkpt><trkpt lat="38.4992921" lon="16.294045"><ele>979.0</ele><time>2026-04-09T13:16:06.237Z</time></trkpt><trkpt lat="38.4994418" lon="16.2939502"><ele>979.0</ele><time>2026-04-09T13:16:07.237Z</time></trkpt><trkpt lat="38.4995851" lon="16.2938553"><ele>981.3333333333333</ele><time>2026-04-09T13:16:08.237Z</time></trkpt><trkpt lat="38.4997226" lon="16.2937612"><ele>983.6666666666667</ele><time>2026-04-09T13:16:09.237Z</time></trkpt><trkpt lat="38.4998655" lon="16.2936666"><ele>986.0</ele><time>2026-04-09T13:16:10.237Z</time></trkpt><trkpt lat="38.5000146" lon="16.293575"><ele>986.0</ele><time>2026-04-09T13:16:11.237Z</time></trkpt><trkpt lat="38.5001524" lon="16.2934937"><ele>986.0</ele><time>2026-04-09T13:16:12.236Z</time></trkpt><trkpt lat="38.5002855" lon="16.2934273"><ele>986.0</ele><time>2026-04-09T13:16:13.237Z</time></trkpt><trkpt lat="38.5004124" lon="16.2933693"><ele>986.0</ele><time>2026-04-09T13:16:14.237Z</time></trkpt><trkpt lat="38.5005436" lon="16.2933105"><ele>986.5</ele><time>2026-04-09T13:16:15.237Z</time></trkpt><trkpt lat="38.5006831" lon="16.2932637"><ele>987.0</ele><time>2026-04-09T13:16:16.237Z</time></trkpt><trkpt lat="38.5008249" lon="16.2932287"><ele>987.5</ele><time>2026-04-09T13:16:17.237Z</time></trkpt><trkpt lat="38.5009575" lon="16.2932025"><ele>988.0</ele><time>2026-04-09T13:16:18.236Z</time></trkpt><trkpt lat="38.5010884" lon="16.2931938"><ele>988.0</ele><time>2026-04-09T13:16:19.237Z</time></trkpt><trkpt lat="38.5012273" lon="16.2931855"><ele>988.0</ele><time>2026-04-09T13:16:20.237Z</time></trkpt><trkpt lat="38.5013748" lon="16.2931818"><ele>988.0</ele><time>2026-04-09T13:16:21.237Z</time></trkpt><trkpt lat="38.5015266" lon="16.2931671"><ele>988.0</ele><time>2026-04-09T13:16:22.237Z</time></trkpt><trkpt lat="38.5016744" lon="16.2931563"><ele>990.0</ele><time>2026-04-09T13:16:23.237Z</time></trkpt><trkpt lat="38.50182" lon="16.2931169"><ele>992.0</ele><time>2026-04-09T13:16:24.237Z</time></trkpt><trkpt lat="38.5019635" lon="16.2930534"><ele>994.0</ele><time>2026-04-09T13:16:25.237Z</time></trkpt><trkpt lat="38.5021036" lon="16.2929701"><ele>997.0</ele><time>2026-04-09T13:16:26.237Z</time></trkpt><trkpt lat="38.5022337" lon="16.2928919"><ele>1000.0</ele><time>2026-04-09T13:16:27.237Z</time></trkpt><trkpt lat="38.5023479" lon="16.2928025"><ele>1003.0</ele><time>2026-04-09T13:16:28.237Z</time></trkpt><trkpt lat="38.5024476" lon="16.2926797"><ele>1006.0</ele><time>2026-04-09T13:16:29.237Z</time></trkpt><trkpt lat="38.5025302" lon="16.2925442"><ele>1006.0</ele><time>2026-04-09T13:16:30.237Z</time></trkpt><trkpt lat="38.5025896" lon="16.2923937"><ele>1006.0</ele><time>2026-04-09T13:16:31.237Z</time></trkpt><trkpt lat="38.502635" lon="16.2922332"><ele>1006.0</ele><time>2026-04-09T13:16:32.237Z</time></trkpt><trkpt lat="38.502671" lon="16.2920617"><ele>1006.0</ele><time>2026-04-09T13:16:33.237Z</time></trkpt><trkpt lat="38.5026935" lon="16.2918825"><ele>1008.5</ele><time>2026-04-09T13:16:34.237Z</time></trkpt><trkpt lat="38.5027064" lon="16.2916998"><ele>1011.0</ele><time>2026-04-09T13:16:35.237Z</time></trkpt><trkpt lat="38.5027175" lon="16.2915213"><ele>1013.5</ele><time>2026-04-09T13:16:36.237Z</time></trkpt><trkpt lat="38.5027345" lon="16.2913378"><ele>1016.0</ele><time>2026-04-09T13:16:37.236Z</time></trkpt><trkpt lat="38.502753" lon="16.2911559"><ele>1015.75</ele><time>2026-04-09T13:16:38.237Z</time></trkpt><trkpt lat="38.5027724" lon="16.2909812"><ele>1015.5</ele><time>2026-04-09T13:16:39.237Z</time></trkpt><trkpt lat="38.5027895" lon="16.290807"><ele>1015.25</ele><time>2026-04-09T13:16:40.237Z</time></trkpt><trkpt lat="38.5028125" lon="16.2906266"><ele>1015.0</ele><time>2026-04-09T13:16:41.237Z</time></trkpt><trkpt lat="38.5028395" lon="16.2904371"><ele>1015.0</ele><time>2026-04-09T13:16:42.237Z</time></trkpt><trkpt lat="38.5028734" lon="16.2902436"><ele>1015.0</ele><time>2026-04-09T13:16:43.237Z</time></trkpt><trkpt lat="38.5029158" lon="16.2900472"><ele>1015.0</ele><time>2026-04-09T13:16:44.237Z</time></trkpt><trkpt lat="38.5029681" lon="16.2898558"><ele>1016.75</ele><time>2026-04-09T13:16:45.237Z</time></trkpt><trkpt lat="38.5030235" lon="16.2896801"><ele>1018.5</ele><time>2026-04-09T13:16:46.237Z</time></trkpt><trkpt lat="38.5030832" lon="16.2895274"><ele>1020.25</ele><time>2026-04-09T13:16:47.237Z</time></trkpt><trkpt lat="38.5031469" lon="16.2894037"><ele>1022.0</ele><time>2026-04-09T13:16:48.237Z</time></trkpt><trkpt lat="38.5032154" lon="16.2893045"><ele>1022.0</ele><time>2026-04-09T13:16:49.237Z</time></trkpt><trkpt lat="38.5032994" lon="16.2892382"><ele>1022.0</ele><time>2026-04-09T13:16:50.237Z</time></trkpt><trkpt lat="38.5033882" lon="16.2891849"><ele>1022.0</ele><time>2026-04-09T13:16:51.236Z</time></trkpt><trkpt lat="38.5034853" lon="16.2891479"><ele>1022.0</ele><time>2026-04-09T13:16:52.237Z</time></trkpt><trkpt lat="38.5035872" lon="16.2891139"><ele>1022.0</ele><time>2026-04-09T13:16:53.237Z</time></trkpt><trkpt lat="38.5037004" lon="16.28909"><ele>1025.0</ele><time>2026-04-09T13:16:54.237Z</time></trkpt><trkpt lat="38.5038138" lon="16.2890693"><ele>1028.0</ele><time>2026-04-09T13:16:55.236Z</time></trkpt><trkpt lat="38.5039257" lon="16.2890253"><ele>1031.0</ele><time>2026-04-09T13:16:56.237Z</time></trkpt><trkpt lat="38.5040306" lon="16.2889513"><ele>1034.0</ele><time>2026-04-09T13:16:57.237Z</time></trkpt><trkpt lat="38.5041177" lon="16.2888556"><ele>1034.75</ele><time>2026-04-09T13:16:58.237Z</time></trkpt><trkpt lat="38.5042043" lon="16.2887433"><ele>1035.5</ele><time>2026-04-09T13:16:59.237Z</time></trkpt><trkpt lat="38.5042935" lon="16.2886301"><ele>1036.25</ele><time>2026-04-09T13:17:00.237Z</time></trkpt><trkpt lat="38.504375" lon="16.2885034"><ele>1037.0</ele><time>2026-04-09T13:17:01.237Z</time></trkpt><trkpt lat="38.5044539" lon="16.2883747"><ele>1037.0</ele><time>2026-04-09T13:17:02.237Z</time></trkpt><trkpt lat="38.504537" lon="16.288255"><ele>1037.0</ele><time>2026-04-09T13:17:03.237Z</time></trkpt><trkpt lat="38.5046075" lon="16.2881349"><ele>1037.0</ele><time>2026-04-09T13:17:04.236Z</time></trkpt><trkpt lat="38.5046603" lon="16.2880225"><ele>1037.0</ele><time>2026-04-09T13:17:05.237Z</time></trkpt><trkpt lat="38.5047086" lon="16.287911"><ele>1037.0</ele><time>2026-04-09T13:17:06.237Z</time></trkpt><trkpt lat="38.5047359" lon="16.2877903"><ele>1039.0</ele><time>2026-04-09T13:17:07.237Z</time></trkpt><trkpt lat="38.5047472" lon="16.2876645"><ele>1041.0</ele><time>2026-04-09T13:17:08.237Z</time></trkpt><trkpt lat="38.5047441" lon="16.2875367"><ele>1043.0</ele><time>2026-04-09T13:17:09.236Z</time></trkpt><trkpt lat="38.5047274" lon="16.2873846"><ele>1045.0</ele><time>2026-04-09T13:17:10.237Z</time></trkpt><trkpt lat="38.5047093" lon="16.2872384"><ele>1047.0</ele><time>2026-04-09T13:17:11.237Z</time></trkpt><trkpt lat="38.5046895" lon="16.2870917"><ele>1048.4</ele><time>2026-04-09T13:17:12.237Z</time></trkpt><trkpt lat="38.5046725" lon="16.2869522"><ele>1049.8000000000002</ele><time>2026-04-09T13:17:13.237Z</time></trkpt><trkpt lat="38.5046681" lon="16.2868125"><ele>1051.2</ele><time>2026-04-09T13:17:14.236Z</time></trkpt><trkpt lat="38.504683" lon="16.2866708"><ele>1052.6000000000001</ele><time>2026-04-09T13:17:15.236Z</time></trkpt><trkpt lat="38.5047144" lon="16.2865352"><ele>1054.0</ele><time>2026-04-09T13:17:16.237Z</time></trkpt><trkpt lat="38.5047652" lon="16.2864088"><ele>1054.0</ele><time>2026-04-09T13:17:17.237Z</time></trkpt><trkpt lat="38.5048296" lon="16.2862846"><ele>1054.0</ele><time>2026-04-09T13:17:18.237Z</time></trkpt><trkpt lat="38.5049001" lon="16.2861647"><ele>1054.0</ele><time>2026-04-09T13:17:19.237Z</time></trkpt><trkpt lat="38.5049791" lon="16.2860403"><ele>1054.0</ele><time>2026-04-09T13:17:20.237Z</time></trkpt><trkpt lat="38.5050648" lon="16.2859168"><ele>1054.0</ele><time>2026-04-09T13:17:21.236Z</time></trkpt><trkpt lat="38.5051548" lon="16.2858079"><ele>1054.0</ele><time>2026-04-09T13:17:22.236Z</time></trkpt><trkpt lat="38.5052623" lon="16.285713"><ele>1054.0</ele><time>2026-04-09T13:17:23.237Z</time></trkpt><trkpt lat="38.5053783" lon="16.2856131"><ele>1054.0</ele><time>2026-04-09T13:17:24.237Z</time></trkpt><trkpt lat="38.5055075" lon="16.2855117"><ele>1055.6666666666665</ele><time>2026-04-09T13:17:25.237Z</time></trkpt><trkpt lat="38.5056429" lon="16.2854056"><ele>1057.3333333333333</ele><time>2026-04-09T13:17:26.237Z</time></trkpt><trkpt lat="38.5057792" lon="16.2852972"><ele>1059.0</ele><time>2026-04-09T13:17:27.237Z</time></trkpt><trkpt lat="38.5059187" lon="16.2851791"><ele>1059.0</ele><time>2026-04-09T13:17:28.237Z</time></trkpt><trkpt lat="38.5060547" lon="16.2850548"><ele>1059.0</ele><time>2026-04-09T13:17:29.237Z</time></trkpt><trkpt lat="38.5061854" lon="16.2849295"><ele>1059.0</ele><time>2026-04-09T13:17:30.237Z</time></trkpt><trkpt lat="38.5063136" lon="16.2848022"><ele>1061.3333333333333</ele><time>2026-04-09T13:17:31.237Z</time></trkpt><trkpt lat="38.5064288" lon="16.2846623"><ele>1063.6666666666665</ele><time>2026-04-09T13:17:32.237Z</time></trkpt><trkpt lat="38.5065347" lon="16.2845253"><ele>1066.0</ele><time>2026-04-09T13:17:33.237Z</time></trkpt><trkpt lat="38.5066379" lon="16.2843979"><ele>1066.0</ele><time>2026-04-09T13:17:34.237Z</time></trkpt><trkpt lat="38.5067285" lon="16.2842746"><ele>1066.0</ele><time>2026-04-09T13:17:35.237Z</time></trkpt><trkpt lat="38.5068219" lon="16.2841436"><ele>1066.0</ele><time>2026-04-09T13:17:36.237Z</time></trkpt><trkpt lat="38.5069255" lon="16.2840087"><ele>1066.0</ele><time>2026-04-09T13:17:37.237Z</time></trkpt><trkpt lat="38.5070303" lon="16.2838744"><ele>1068.0</ele><time>2026-04-09T13:17:38.237Z</time></trkpt><trkpt lat="38.5071311" lon="16.283738"><ele>1070.0</ele><time>2026-04-09T13:17:39.237Z</time></trkpt><trkpt lat="38.5072325" lon="16.2836057"><ele>1072.0</ele><time>2026-04-09T13:17:40.237Z</time></trkpt><trkpt lat="38.5073375" lon="16.2834774"><ele>1074.0</ele><time>2026-04-09T13:17:41.237Z</time></trkpt><trkpt lat="38.5074429" lon="16.2833558"><ele>1074.0</ele><time>2026-04-09T13:17:42.237Z</time></trkpt><trkpt lat="38.507557" lon="16.2832381"><ele>1074.0</ele><time>2026-04-09T13:17:43.237Z</time></trkpt><trkpt lat="38.5076772" lon="16.2831257"><ele>1074.0</ele><time>2026-04-09T13:17:44.237Z</time></trkpt><trkpt lat="38.5077963" lon="16.2830162"><ele>1074.0</ele><time>2026-04-09T13:17:45.237Z</time></trkpt><trkpt lat="38.5079235" lon="16.2829185"><ele>1078.0</ele><time>2026-04-09T13:17:46.237Z</time></trkpt><trkpt lat="38.5080561" lon="16.2828331"><ele>1082.0</ele><time>2026-04-09T13:17:47.237Z</time></trkpt><trkpt lat="38.5081964" lon="16.2827534"><ele>1086.0</ele><time>2026-04-09T13:17:48.237Z</time></trkpt><trkpt lat="38.5083489" lon="16.2826802"><ele>1086.0</ele><time>2026-04-09T13:17:49.237Z</time></trkpt><trkpt lat="38.5085017" lon="16.282622"><ele>1086.0</ele><time>2026-04-09T13:17:50.236Z</time></trkpt><trkpt lat="38.5086536" lon="16.2825749"><ele>1086.0</ele><time>2026-04-09T13:17:51.237Z</time></trkpt><trkpt lat="38.5088073" lon="16.2825173"><ele>1087.0</ele><time>2026-04-09T13:17:52.237Z</time></trkpt><trkpt lat="38.5089641" lon="16.2824512"><ele>1088.0</ele><time>2026-04-09T13:17:53.237Z</time></trkpt><trkpt lat="38.5090999" lon="16.2823707"><ele>1089.0</ele><time>2026-04-09T13:17:54.237Z</time></trkpt><trkpt lat="38.5092296" lon="16.2822815"><ele>1089.6000000000001</ele><time>2026-04-09T13:17:55.237Z</time></trkpt><trkpt lat="38.509332" lon="16.2821854"><ele>1090.2</ele><time>2026-04-09T13:17:56.237Z</time></trkpt><trkpt lat="38.5094107" lon="16.2821001"><ele>1090.8000000000002</ele><time>2026-04-09T13:17:57.237Z</time></trkpt><trkpt lat="38.5094785" lon="16.2820261"><ele>1091.4</ele><time>2026-04-09T13:17:58.237Z</time></trkpt><trkpt lat="38.5095372" lon="16.2819546"><ele>1092.0</ele><time>2026-04-09T13:17:59.237Z</time></trkpt><trkpt lat="38.5095863" lon="16.28189"><ele>1091.4</ele><time>2026-04-09T13:18:00.237Z</time></trkpt><trkpt lat="38.5096426" lon="16.281796"><ele>1090.8000000000002</ele><time>2026-04-09T13:18:02.237Z</time></trkpt><trkpt lat="38.5096749" lon="16.2817111"><ele>1090.2</ele><time>2026-04-09T13:18:04.237Z</time></trkpt><trkpt lat="38.5096704" lon="16.2815862"><ele>1089.6000000000001</ele><time>2026-04-09T13:18:06.237Z</time></trkpt><trkpt lat="38.509652" lon="16.2814129"><ele>1089.0</ele><time>2026-04-09T13:18:08.237Z</time></trkpt><trkpt lat="38.5096332" lon="16.2812946"><ele>1089.0</ele><time>2026-04-09T13:18:09.237Z</time></trkpt><trkpt lat="38.5096028" lon="16.2811727"><ele>1089.0</ele><time>2026-04-09T13:18:10.237Z</time></trkpt><trkpt lat="38.509557" lon="16.2810346"><ele>1089.0</ele><time>2026-04-09T13:18:11.237Z</time></trkpt><trkpt lat="38.509504" lon="16.2808966"><ele>1089.0</ele><time>2026-04-09T13:18:12.236Z</time></trkpt><trkpt lat="38.5094453" lon="16.2807516"><ele>1088.75</ele><time>2026-04-09T13:18:13.237Z</time></trkpt><trkpt lat="38.5093899" lon="16.2806059"><ele>1088.5</ele><time>2026-04-09T13:18:14.237Z</time></trkpt><trkpt lat="38.5093269" lon="16.2804619"><ele>1088.25</ele><time>2026-04-09T13:18:15.237Z</time></trkpt><trkpt lat="38.5092626" lon="16.2803153"><ele>1088.0</ele><time>2026-04-09T13:18:16.237Z</time></trkpt><trkpt lat="38.5091917" lon="16.2801668"><ele>1088.0</ele><time>2026-04-09T13:18:17.237Z</time></trkpt><trkpt lat="38.5091228" lon="16.2800109"><ele>1088.0</ele><time>2026-04-09T13:18:18.237Z</time></trkpt><trkpt lat="38.5090583" lon="16.2798494"><ele>1088.0</ele><time>2026-04-09T13:18:19.237Z</time></trkpt><trkpt lat="38.5089961" lon="16.2796805"><ele>1088.0</ele><time>2026-04-09T13:18:20.237Z</time></trkpt><trkpt lat="38.5089377" lon="16.2795155"><ele>1088.75</ele><time>2026-04-09T13:18:21.237Z</time></trkpt><trkpt lat="38.5088797" lon="16.2793489"><ele>1089.5</ele><time>2026-04-09T13:18:22.237Z</time></trkpt><trkpt lat="38.5088366" lon="16.279175"><ele>1090.25</ele><time>2026-04-09T13:18:23.237Z</time></trkpt><trkpt lat="38.5087986" lon="16.2790038"><ele>1091.0</ele><time>2026-04-09T13:18:24.237Z</time></trkpt><trkpt lat="38.5087699" lon="16.2788345"><ele>1092.75</ele><time>2026-04-09T13:18:25.237Z</time></trkpt><trkpt lat="38.508756" lon="16.278667"><ele>1094.5</ele><time>2026-04-09T13:18:26.236Z</time></trkpt><trkpt lat="38.5087488" lon="16.2785014"><ele>1096.25</ele><time>2026-04-09T13:18:27.237Z</time></trkpt><trkpt lat="38.5087561" lon="16.2783345"><ele>1098.0</ele><time>2026-04-09T13:18:28.237Z</time></trkpt><trkpt lat="38.50877" lon="16.2781678"><ele>1099.5</ele><time>2026-04-09T13:18:29.237Z</time></trkpt><trkpt lat="38.5087799" lon="16.2779954"><ele>1101.0</ele><time>2026-04-09T13:18:30.237Z</time></trkpt><trkpt lat="38.5087909" lon="16.2778154"><ele>1102.5</ele><time>2026-04-09T13:18:31.237Z</time></trkpt><trkpt lat="38.5088025" lon="16.2776229"><ele>1104.0</ele><time>2026-04-09T13:18:32.237Z</time></trkpt><trkpt lat="38.5088209" lon="16.2774109"><ele>1105.3333333333333</ele><time>2026-04-09T13:18:33.237Z</time></trkpt><trkpt lat="38.5088473" lon="16.2771893"><ele>1106.6666666666665</ele><time>2026-04-09T13:18:34.236Z</time></trkpt><trkpt lat="38.5088771" lon="16.2769683"><ele>1108.0</ele><time>2026-04-09T13:18:35.237Z</time></trkpt><trkpt lat="38.5089109" lon="16.2767519"><ele>1108.0</ele><time>2026-04-09T13:18:36.237Z</time></trkpt><trkpt lat="38.5089493" lon="16.2765418"><ele>1108.0</ele><time>2026-04-09T13:18:37.237Z</time></trkpt><trkpt lat="38.5089898" lon="16.2763369"><ele>1108.0</ele><time>2026-04-09T13:18:38.237Z</time></trkpt><trkpt lat="38.5090364" lon="16.2761296"><ele>1109.0</ele><time>2026-04-09T13:18:39.237Z</time></trkpt><trkpt lat="38.5090844" lon="16.2759299"><ele>1110.0</ele><time>2026-04-09T13:18:40.237Z</time></trkpt><trkpt lat="38.5091337" lon="16.2757401"><ele>1111.0</ele><time>2026-04-09T13:18:41.237Z</time></trkpt><trkpt lat="38.5091708" lon="16.2755619"><ele>1111.3999999999999</ele><time>2026-04-09T13:18:42.237Z</time></trkpt><trkpt lat="38.5091826" lon="16.2754116"><ele>1111.8</ele><time>2026-04-09T13:18:43.237Z</time></trkpt><trkpt lat="38.5091577" lon="16.2752826"><ele>1112.1999999999998</ele><time>2026-04-09T13:18:44.237Z</time></trkpt><trkpt lat="38.5091066" lon="16.2751869"><ele>1112.6</ele><time>2026-04-09T13:18:45.237Z</time></trkpt><trkpt lat="38.5090494" lon="16.2751121"><ele>1113.0</ele><time>2026-04-09T13:18:46.237Z</time></trkpt><trkpt lat="38.5089801" lon="16.275052"><ele>1113.0</ele><time>2026-04-09T13:18:47.237Z</time></trkpt><trkpt lat="38.5088927" lon="16.2750017"><ele>1113.0</ele><time>2026-04-09T13:18:48.237Z</time></trkpt><trkpt lat="38.5087984" lon="16.2749615"><ele>1113.0</ele><time>2026-04-09T13:18:49.237Z</time></trkpt><trkpt lat="38.5086936" lon="16.2749242"><ele>1113.0</ele><time>2026-04-09T13:18:50.237Z</time></trkpt><trkpt lat="38.5085772" lon="16.2748676"><ele>1113.0</ele><time>2026-04-09T13:18:51.237Z</time></trkpt><trkpt lat="38.5084432" lon="16.2747968"><ele>1115.5</ele><time>2026-04-09T13:18:52.237Z</time></trkpt><trkpt lat="38.5083011" lon="16.2747201"><ele>1118.0</ele><time>2026-04-09T13:18:53.237Z</time></trkpt><trkpt lat="38.5081682" lon="16.2746489"><ele>1120.5</ele><time>2026-04-09T13:18:54.237Z</time></trkpt><trkpt lat="38.5080377" lon="16.2745782"><ele>1123.0</ele><time>2026-04-09T13:18:55.237Z</time></trkpt><trkpt lat="38.507916" lon="16.2744953"><ele>1124.75</ele><time>2026-04-09T13:18:56.237Z</time></trkpt><trkpt lat="38.5078028" lon="16.2744001"><ele>1126.5</ele><time>2026-04-09T13:18:57.237Z</time></trkpt><trkpt lat="38.507695" lon="16.2742909"><ele>1128.25</ele><time>2026-04-09T13:18:58.237Z</time></trkpt><trkpt lat="38.5076034" lon="16.2741646"><ele>1130.0</ele><time>2026-04-09T13:18:59.236Z</time></trkpt><trkpt lat="38.5075294" lon="16.2740179"><ele>1130.5</ele><time>2026-04-09T13:19:00.237Z</time></trkpt><trkpt lat="38.5074514" lon="16.2738688"><ele>1131.0</ele><time>2026-04-09T13:19:01.236Z</time></trkpt><trkpt lat="38.5073783" lon="16.2737373"><ele>1131.5</ele><time>2026-04-09T13:19:02.237Z</time></trkpt><trkpt lat="38.5072801" lon="16.2736215"><ele>1132.0</ele><time>2026-04-09T13:19:03.236Z</time></trkpt><trkpt lat="38.5071782" lon="16.2735391"><ele>1131.5</ele><time>2026-04-09T13:19:04.238Z</time></trkpt><trkpt lat="38.5070606" lon="16.2734974"><ele>1131.0</ele><time>2026-04-09T13:19:05.238Z</time></trkpt><trkpt lat="38.506918" lon="16.2734872"><ele>1130.5</ele><time>2026-04-09T13:19:06.238Z</time></trkpt><trkpt lat="38.5067735" lon="16.2734802"><ele>1130.0</ele><time>2026-04-09T13:19:07.238Z</time></trkpt><trkpt lat="38.5066285" lon="16.2734561"><ele>1130.0</ele><time>2026-04-09T13:19:08.238Z</time></trkpt><trkpt lat="38.5064988" lon="16.2734257"><ele>1130.0</ele><time>2026-04-09T13:19:09.238Z</time></trkpt><trkpt lat="38.5063764" lon="16.2733781"><ele>1130.0</ele><time>2026-04-09T13:19:10.238Z</time></trkpt><trkpt lat="38.5062624" lon="16.2733105"><ele>1130.0</ele><time>2026-04-09T13:19:11.238Z</time></trkpt><trkpt lat="38.5061671" lon="16.2732298"><ele>1130.0</ele><time>2026-04-09T13:19:12.238Z</time></trkpt><trkpt lat="38.5060806" lon="16.2731466"><ele>1130.0</ele><time>2026-04-09T13:19:13.238Z</time></trkpt><trkpt lat="38.5060118" lon="16.2730511"><ele>1130.0</ele><time>2026-04-09T13:19:14.238Z</time></trkpt><trkpt lat="38.5059707" lon="16.2729611"><ele>1130.0</ele><time>2026-04-09T13:19:15.238Z</time></trkpt><trkpt lat="38.5059488" lon="16.2728575"><ele>1130.0</ele><time>2026-04-09T13:19:16.238Z</time></trkpt><trkpt lat="38.5059503" lon="16.2727332"><ele>1130.0</ele><time>2026-04-09T13:19:17.238Z</time></trkpt><trkpt lat="38.5059727" lon="16.2725924"><ele>1130.0</ele><time>2026-04-09T13:19:18.238Z</time></trkpt><trkpt lat="38.5060077" lon="16.2724413"><ele>1130.0</ele><time>2026-04-09T13:19:19.238Z</time></trkpt><trkpt lat="38.5060584" lon="16.2722679"><ele>1130.0</ele><time>2026-04-09T13:19:20.238Z</time></trkpt><trkpt lat="38.5061211" lon="16.272077"><ele>1131.0</ele><time>2026-04-09T13:19:21.238Z</time></trkpt><trkpt lat="38.5061746" lon="16.271891"><ele>1132.0</ele><time>2026-04-09T13:19:22.238Z</time></trkpt><trkpt lat="38.5062161" lon="16.2717063"><ele>1133.0</ele><time>2026-04-09T13:19:23.238Z</time></trkpt><trkpt lat="38.5062574" lon="16.2715153"><ele>1132.0</ele><time>2026-04-09T13:19:24.238Z</time></trkpt><trkpt lat="38.5063022" lon="16.2713196"><ele>1131.0</ele><time>2026-04-09T13:19:25.238Z</time></trkpt><trkpt lat="38.5063389" lon="16.2711184"><ele>1130.0</ele><time>2026-04-09T13:19:26.238Z</time></trkpt><trkpt lat="38.5063757" lon="16.2709422"><ele>1130.0</ele><time>2026-04-09T13:19:27.238Z</time></trkpt><trkpt lat="38.5064055" lon="16.2707778"><ele>1130.0</ele><time>2026-04-09T13:19:28.238Z</time></trkpt><trkpt lat="38.5064325" lon="16.270614"><ele>1130.0</ele><time>2026-04-09T13:19:29.237Z</time></trkpt><trkpt lat="38.506471" lon="16.2704556"><ele>1130.0</ele><time>2026-04-09T13:19:30.238Z</time></trkpt><trkpt lat="38.5065" lon="16.2702965"><ele>1130.25</ele><time>2026-04-09T13:19:31.238Z</time></trkpt><trkpt lat="38.5065057" lon="16.2701353"><ele>1130.5</ele><time>2026-04-09T13:19:32.238Z</time></trkpt><trkpt lat="38.5064747" lon="16.2699772"><ele>1130.75</ele><time>2026-04-09T13:19:33.238Z</time></trkpt><trkpt lat="38.5064253" lon="16.2698404"><ele>1131.0</ele><time>2026-04-09T13:19:34.238Z</time></trkpt><trkpt lat="38.506355" lon="16.2697057"><ele>1131.75</ele><time>2026-04-09T13:19:35.238Z</time></trkpt><trkpt lat="38.5062692" lon="16.2695856"><ele>1132.5</ele><time>2026-04-09T13:19:36.238Z</time></trkpt><trkpt lat="38.5061706" lon="16.2694764"><ele>1133.25</ele><time>2026-04-09T13:19:37.238Z</time></trkpt><trkpt lat="38.5060603" lon="16.2693704"><ele>1134.0</ele><time>2026-04-09T13:19:38.238Z</time></trkpt><trkpt lat="38.5059424" lon="16.2692754"><ele>1134.0</ele><time>2026-04-09T13:19:39.238Z</time></trkpt><trkpt lat="38.5058208" lon="16.2691877"><ele>1134.0</ele><time>2026-04-09T13:19:40.238Z</time></trkpt><trkpt lat="38.5057129" lon="16.2690875"><ele>1134.0</ele><time>2026-04-09T13:19:41.238Z</time></trkpt><trkpt lat="38.5056249" lon="16.2689544"><ele>1134.0</ele><time>2026-04-09T13:19:42.238Z</time></trkpt><trkpt lat="38.5055482" lon="16.2688091"><ele>1135.5</ele><time>2026-04-09T13:19:43.238Z</time></trkpt><trkpt lat="38.5054979" lon="16.2686688"><ele>1137.0</ele><time>2026-04-09T13:19:44.238Z</time></trkpt><trkpt lat="38.5054838" lon="16.268522"><ele>1138.5</ele><time>2026-04-09T13:19:45.238Z</time></trkpt><trkpt lat="38.5055218" lon="16.268381"><ele>1140.0</ele><time>2026-04-09T13:19:46.238Z</time></trkpt><trkpt lat="38.5055694" lon="16.2682244"><ele>1140.25</ele><time>2026-04-09T13:19:47.237Z</time></trkpt><trkpt lat="38.5056121" lon="16.2680621"><ele>1140.5</ele><time>2026-04-09T13:19:48.238Z</time></trkpt><trkpt lat="38.5056641" lon="16.2679272"><ele>1140.75</ele><time>2026-04-09T13:19:49.238Z</time></trkpt><trkpt lat="38.5057489" lon="16.2678035"><ele>1141.0</ele><time>2026-04-09T13:19:50.238Z</time></trkpt><trkpt lat="38.5058471" lon="16.2676957"><ele>1141.0</ele><time>2026-04-09T13:19:51.238Z</time></trkpt><trkpt lat="38.5059447" lon="16.2676095"><ele>1141.0</ele><time>2026-04-09T13:19:52.238Z</time></trkpt><trkpt lat="38.5060577" lon="16.2675119"><ele>1141.0</ele><time>2026-04-09T13:19:53.238Z</time></trkpt><trkpt lat="38.5061783" lon="16.2674157"><ele>1141.0</ele><time>2026-04-09T13:19:54.238Z</time></trkpt><trkpt lat="38.5063002" lon="16.2673005"><ele>1141.3333333333333</ele><time>2026-04-09T13:19:55.238Z</time></trkpt><trkpt lat="38.5064246" lon="16.2671857"><ele>1141.6666666666667</ele><time>2026-04-09T13:19:56.237Z</time></trkpt><trkpt lat="38.5065455" lon="16.2670741"><ele>1142.0</ele><time>2026-04-09T13:19:57.238Z</time></trkpt><trkpt lat="38.5066654" lon="16.2669648"><ele>1142.0</ele><time>2026-04-09T13:19:58.238Z</time></trkpt><trkpt lat="38.5067772" lon="16.2668528"><ele>1142.0</ele><time>2026-04-09T13:19:59.238Z</time></trkpt><trkpt lat="38.5068914" lon="16.2667301"><ele>1142.0</ele><time>2026-04-09T13:20:00.238Z</time></trkpt><trkpt lat="38.5070036" lon="16.2665978"><ele>1142.0</ele><time>2026-04-09T13:20:01.238Z</time></trkpt><trkpt lat="38.5071175" lon="16.2664548"><ele>1144.0</ele><time>2026-04-09T13:20:02.237Z</time></trkpt><trkpt lat="38.5072358" lon="16.2663067"><ele>1146.0</ele><time>2026-04-09T13:20:03.238Z</time></trkpt><trkpt lat="38.5073455" lon="16.2661508"><ele>1148.0</ele><time>2026-04-09T13:20:04.238Z</time></trkpt><trkpt lat="38.5074572" lon="16.2659881"><ele>1148.0</ele><time>2026-04-09T13:20:05.238Z</time></trkpt><trkpt lat="38.5075677" lon="16.2658165"><ele>1148.0</ele><time>2026-04-09T13:20:06.238Z</time></trkpt><trkpt lat="38.5076742" lon="16.2656463"><ele>1148.0</ele><time>2026-04-09T13:20:07.238Z</time></trkpt><trkpt lat="38.5077673" lon="16.2654752"><ele>1146.25</ele><time>2026-04-09T13:20:08.238Z</time></trkpt><trkpt lat="38.5078547" lon="16.2653152"><ele>1144.5</ele><time>2026-04-09T13:20:09.238Z</time></trkpt><trkpt lat="38.5079519" lon="16.2651695"><ele>1142.75</ele><time>2026-04-09T13:20:10.238Z</time></trkpt><trkpt lat="38.5080496" lon="16.265036"><ele>1141.0</ele><time>2026-04-09T13:20:11.238Z</time></trkpt><trkpt lat="38.5081514" lon="16.2649059"><ele>1144.75</ele><time>2026-04-09T13:20:12.238Z</time></trkpt><trkpt lat="38.5082602" lon="16.2647902"><ele>1148.5</ele><time>2026-04-09T13:20:13.238Z</time></trkpt><trkpt lat="38.5083722" lon="16.2647004"><ele>1152.25</ele><time>2026-04-09T13:20:14.238Z</time></trkpt><trkpt lat="38.5084807" lon="16.2646351"><ele>1156.0</ele><time>2026-04-09T13:20:15.238Z</time></trkpt><trkpt lat="38.5085836" lon="16.2645885"><ele>1156.5</ele><time>2026-04-09T13:20:16.238Z</time></trkpt><trkpt lat="38.5086687" lon="16.2645414"><ele>1157.0</ele><time>2026-04-09T13:20:17.238Z</time></trkpt><trkpt lat="38.5087387" lon="16.2644869"><ele>1157.5</ele><time>2026-04-09T13:20:18.238Z</time></trkpt><trkpt lat="38.5087908" lon="16.2644249"><ele>1158.0</ele><time>2026-04-09T13:20:19.238Z</time></trkpt><trkpt lat="38.5088254" lon="16.2643486"><ele>1158.5</ele><time>2026-04-09T13:20:20.238Z</time></trkpt><trkpt lat="38.5088185" lon="16.2642619"><ele>1159.0</ele><time>2026-04-09T13:20:21.238Z</time></trkpt><trkpt lat="38.5087816" lon="16.264182"><ele>1159.0</ele><time>2026-04-09T13:20:22.238Z</time></trkpt><trkpt lat="38.5087207" lon="16.2641096"><ele>1159.0</ele><time>2026-04-09T13:20:23.238Z</time></trkpt><trkpt lat="38.5086449" lon="16.2640437"><ele>1159.0</ele><time>2026-04-09T13:20:24.237Z</time></trkpt><trkpt lat="38.5085564" lon="16.2639737"><ele>1159.0</ele><time>2026-04-09T13:20:25.238Z</time></trkpt><trkpt lat="38.5084597" lon="16.2638924"><ele>1159.0</ele><time>2026-04-09T13:20:26.238Z</time></trkpt><trkpt lat="38.5083699" lon="16.2637996"><ele>1160.8</ele><time>2026-04-09T13:20:27.238Z</time></trkpt><trkpt lat="38.5082756" lon="16.2637033"><ele>1162.6000000000001</ele><time>2026-04-09T13:20:28.238Z</time></trkpt><trkpt lat="38.5081926" lon="16.2636076"><ele>1164.4</ele><time>2026-04-09T13:20:29.238Z</time></trkpt><trkpt lat="38.5081297" lon="16.263519"><ele>1166.2</ele><time>2026-04-09T13:20:30.238Z</time></trkpt><trkpt lat="38.5080916" lon="16.2634328"><ele>1168.0</ele><time>2026-04-09T13:20:31.238Z</time></trkpt><trkpt lat="38.5080668" lon="16.2633486"><ele>1168.0</ele><time>2026-04-09T13:20:32.237Z</time></trkpt><trkpt lat="38.5080743" lon="16.2632637"><ele>1168.0</ele><time>2026-04-09T13:20:33.238Z</time></trkpt><trkpt lat="38.5081191" lon="16.2631877"><ele>1168.0</ele><time>2026-04-09T13:20:34.238Z</time></trkpt><trkpt lat="38.5081713" lon="16.2631178"><ele>1168.0</ele><time>2026-04-09T13:20:35.238Z</time></trkpt><trkpt lat="38.508231" lon="16.2630483"><ele>1168.0</ele><time>2026-04-09T13:20:36.238Z</time></trkpt><trkpt lat="38.5083064" lon="16.262977"><ele>1168.0</ele><time>2026-04-09T13:20:37.238Z</time></trkpt><trkpt lat="38.5083938" lon="16.2629034"><ele>1167.75</ele><time>2026-04-09T13:20:38.238Z</time></trkpt><trkpt lat="38.508489" lon="16.2628249"><ele>1167.5</ele><time>2026-04-09T13:20:39.238Z</time></trkpt><trkpt lat="38.508619" lon="16.2627508"><ele>1167.25</ele><time>2026-04-09T13:20:40.237Z</time></trkpt><trkpt lat="38.5087616" lon="16.2626766"><ele>1167.0</ele><time>2026-04-09T13:20:41.238Z</time></trkpt><trkpt lat="38.5088959" lon="16.2625903"><ele>1169.0</ele><time>2026-04-09T13:20:42.238Z</time></trkpt><trkpt lat="38.5090006" lon="16.2625036"><ele>1171.0</ele><time>2026-04-09T13:20:43.238Z</time></trkpt><trkpt lat="38.5090625" lon="16.2624114"><ele>1173.0</ele><time>2026-04-09T13:20:44.237Z</time></trkpt><trkpt lat="38.5091058" lon="16.2623021"><ele>1175.0</ele><time>2026-04-09T13:20:45.238Z</time></trkpt><trkpt lat="38.5091361" lon="16.2621869"><ele>1177.0</ele><time>2026-04-09T13:20:46.238Z</time></trkpt><trkpt lat="38.5091519" lon="16.2620623"><ele>1177.0</ele><time>2026-04-09T13:20:47.237Z</time></trkpt><trkpt lat="38.5091442" lon="16.2619287"><ele>1177.0</ele><time>2026-04-09T13:20:48.238Z</time></trkpt><trkpt lat="38.5091155" lon="16.2617954"><ele>1177.0</ele><time>2026-04-09T13:20:49.238Z</time></trkpt><trkpt lat="38.5090957" lon="16.2616576"><ele>1177.0</ele><time>2026-04-09T13:20:50.237Z</time></trkpt><trkpt lat="38.5090806" lon="16.2615065"><ele>1177.0</ele><time>2026-04-09T13:20:51.238Z</time></trkpt><trkpt lat="38.5090602" lon="16.2613545"><ele>1177.75</ele><time>2026-04-09T13:20:52.238Z</time></trkpt><trkpt lat="38.5090257" lon="16.2612021"><ele>1178.5</ele><time>2026-04-09T13:20:53.238Z</time></trkpt><trkpt lat="38.5089807" lon="16.2610575"><ele>1179.25</ele><time>2026-04-09T13:20:54.238Z</time></trkpt><trkpt lat="38.5089153" lon="16.260927"><ele>1180.0</ele><time>2026-04-09T13:20:55.238Z</time></trkpt><trkpt lat="38.5088361" lon="16.2608084"><ele>1180.25</ele><time>2026-04-09T13:20:56.238Z</time></trkpt><trkpt lat="38.5087424" lon="16.2607015"><ele>1180.5</ele><time>2026-04-09T13:20:57.238Z</time></trkpt><trkpt lat="38.5086516" lon="16.2606043"><ele>1180.75</ele><time>2026-04-09T13:20:58.238Z</time></trkpt><trkpt lat="38.5085479" lon="16.2605134"><ele>1181.0</ele><time>2026-04-09T13:20:59.238Z</time></trkpt><trkpt lat="38.5084268" lon="16.2604246"><ele>1181.0</ele><time>2026-04-09T13:21:00.238Z</time></trkpt><trkpt lat="38.5083106" lon="16.2603225"><ele>1181.0</ele><time>2026-04-09T13:21:01.238Z</time></trkpt><trkpt lat="38.5081923" lon="16.26021"><ele>1181.0</ele><time>2026-04-09T13:21:02.238Z</time></trkpt><trkpt lat="38.5080749" lon="16.2600864"><ele>1181.0</ele><time>2026-04-09T13:21:03.237Z</time></trkpt><trkpt lat="38.5079517" lon="16.2599579"><ele>1181.0</ele><time>2026-04-09T13:21:04.238Z</time></trkpt><trkpt lat="38.5078327" lon="16.2598295"><ele>1181.0</ele><time>2026-04-09T13:21:05.238Z</time></trkpt><trkpt lat="38.5077055" lon="16.2597018"><ele>1181.0</ele><time>2026-04-09T13:21:06.237Z</time></trkpt><trkpt lat="38.507585" lon="16.2595916"><ele>1181.0</ele><time>2026-04-09T13:21:07.238Z</time></trkpt><trkpt lat="38.507453" lon="16.2594806"><ele>1181.0</ele><time>2026-04-09T13:21:08.238Z</time></trkpt><trkpt lat="38.5073174" lon="16.2593556"><ele>1181.0</ele><time>2026-04-09T13:21:09.238Z</time></trkpt><trkpt lat="38.5071879" lon="16.2592257"><ele>1181.0</ele><time>2026-04-09T13:21:10.238Z</time></trkpt><trkpt lat="38.507067" lon="16.2590982"><ele>1181.0</ele><time>2026-04-09T13:21:11.238Z</time></trkpt><trkpt lat="38.5069435" lon="16.2589759"><ele>1181.0</ele><time>2026-04-09T13:21:12.238Z</time></trkpt><trkpt lat="38.5068251" lon="16.2588584"><ele>1180.75</ele><time>2026-04-09T13:21:13.238Z</time></trkpt><trkpt lat="38.5067112" lon="16.2587409"><ele>1180.5</ele><time>2026-04-09T13:21:14.237Z</time></trkpt><trkpt lat="38.5065942" lon="16.2586327"><ele>1180.25</ele><time>2026-04-09T13:21:15.238Z</time></trkpt><trkpt lat="38.5064878" lon="16.2585163"><ele>1180.0</ele><time>2026-04-09T13:21:16.238Z</time></trkpt><trkpt lat="38.5063938" lon="16.258393"><ele>1180.0</ele><time>2026-04-09T13:21:17.238Z</time></trkpt><trkpt lat="38.506315" lon="16.2582647"><ele>1180.0</ele><time>2026-04-09T13:21:18.238Z</time></trkpt><trkpt lat="38.5062604" lon="16.258123"><ele>1180.0</ele><time>2026-04-09T13:21:19.237Z</time></trkpt><trkpt lat="38.5062209" lon="16.2579742"><ele>1180.0</ele><time>2026-04-09T13:21:20.238Z</time></trkpt><trkpt lat="38.5061998" lon="16.2578172"><ele>1179.0</ele><time>2026-04-09T13:21:21.238Z</time></trkpt><trkpt lat="38.5062132" lon="16.2576529"><ele>1178.0</ele><time>2026-04-09T13:21:22.238Z</time></trkpt><trkpt lat="38.5062414" lon="16.2574893"><ele>1177.0</ele><time>2026-04-09T13:21:23.238Z</time></trkpt><trkpt lat="38.5062879" lon="16.2573179"><ele>1176.0</ele><time>2026-04-09T13:21:24.238Z</time></trkpt><trkpt lat="38.5063479" lon="16.2571552"><ele>1175.5</ele><time>2026-04-09T13:21:25.238Z</time></trkpt><trkpt lat="38.5064303" lon="16.2569926"><ele>1175.0</ele><time>2026-04-09T13:21:26.238Z</time></trkpt><trkpt lat="38.5065157" lon="16.2568446"><ele>1174.5</ele><time>2026-04-09T13:21:27.238Z</time></trkpt><trkpt lat="38.5066124" lon="16.2567121"><ele>1174.0</ele><time>2026-04-09T13:21:28.238Z</time></trkpt><trkpt lat="38.5067159" lon="16.2565926"><ele>1174.0</ele><time>2026-04-09T13:21:29.238Z</time></trkpt><trkpt lat="38.5068334" lon="16.2564727"><ele>1174.0</ele><time>2026-04-09T13:21:30.238Z</time></trkpt><trkpt lat="38.5069538" lon="16.2563468"><ele>1174.0</ele><time>2026-04-09T13:21:31.238Z</time></trkpt><trkpt lat="38.5070831" lon="16.2562133"><ele>1173.6666666666665</ele><time>2026-04-09T13:21:32.238Z</time></trkpt><trkpt lat="38.5072077" lon="16.256089"><ele>1173.3333333333333</ele><time>2026-04-09T13:21:33.238Z</time></trkpt><trkpt lat="38.5073296" lon="16.2559706"><ele>1173.0</ele><time>2026-04-09T13:21:34.238Z</time></trkpt><trkpt lat="38.5074504" lon="16.2558556"><ele>1173.0</ele><time>2026-04-09T13:21:35.238Z</time></trkpt><trkpt lat="38.5075687" lon="16.2557435"><ele>1173.0</ele><time>2026-04-09T13:21:36.238Z</time></trkpt><trkpt lat="38.5076721" lon="16.2556369"><ele>1173.0</ele><time>2026-04-09T13:21:37.238Z</time></trkpt><trkpt lat="38.5077503" lon="16.2555324"><ele>1173.0</ele><time>2026-04-09T13:21:38.237Z</time></trkpt><trkpt lat="38.5078005" lon="16.2554086"><ele>1172.5</ele><time>2026-04-09T13:21:39.238Z</time></trkpt><trkpt lat="38.5078367" lon="16.2552593"><ele>1172.0</ele><time>2026-04-09T13:21:40.238Z</time></trkpt><trkpt lat="38.5078583" lon="16.2551123"><ele>1171.5</ele><time>2026-04-09T13:21:41.238Z</time></trkpt><trkpt lat="38.5078685" lon="16.2549652"><ele>1171.0</ele><time>2026-04-09T13:21:42.238Z</time></trkpt><trkpt lat="38.5078676" lon="16.2548134"><ele>1170.75</ele><time>2026-04-09T13:21:43.238Z</time></trkpt><trkpt lat="38.5078633" lon="16.2546448"><ele>1170.5</ele><time>2026-04-09T13:21:44.238Z</time></trkpt><trkpt lat="38.5078588" lon="16.2544793"><ele>1170.25</ele><time>2026-04-09T13:21:45.237Z</time></trkpt><trkpt lat="38.5078584" lon="16.2543121"><ele>1170.0</ele><time>2026-04-09T13:21:46.237Z</time></trkpt><trkpt lat="38.5078619" lon="16.2541511"><ele>1170.0</ele><time>2026-04-09T13:21:47.238Z</time></trkpt><trkpt lat="38.5078745" lon="16.2539933"><ele>1170.0</ele><time>2026-04-09T13:21:48.238Z</time></trkpt><trkpt lat="38.5079003" lon="16.2538437"><ele>1170.0</ele><time>2026-04-09T13:21:49.238Z</time></trkpt><trkpt lat="38.507928" lon="16.2536939"><ele>1170.0</ele><time>2026-04-09T13:21:50.238Z</time></trkpt><trkpt lat="38.5079568" lon="16.2535433"><ele>1171.5</ele><time>2026-04-09T13:21:51.238Z</time></trkpt><trkpt lat="38.5079849" lon="16.2534018"><ele>1173.0</ele><time>2026-04-09T13:21:52.238Z</time></trkpt><trkpt lat="38.5079997" lon="16.2532592"><ele>1174.5</ele><time>2026-04-09T13:21:53.238Z</time></trkpt><trkpt lat="38.5079973" lon="16.2531139"><ele>1176.0</ele><time>2026-04-09T13:21:54.238Z</time></trkpt><trkpt lat="38.5079855" lon="16.2529643"><ele>1176.75</ele><time>2026-04-09T13:21:55.238Z</time></trkpt><trkpt lat="38.507962" lon="16.2528164"><ele>1177.5</ele><time>2026-04-09T13:21:56.238Z</time></trkpt><trkpt lat="38.5079223" lon="16.2526814"><ele>1178.25</ele><time>2026-04-09T13:21:57.238Z</time></trkpt><trkpt lat="38.5078712" lon="16.2525485"><ele>1179.0</ele><time>2026-04-09T13:21:58.238Z</time></trkpt><trkpt lat="38.5078218" lon="16.2524151"><ele>1177.6000000000001</ele><time>2026-04-09T13:21:59.237Z</time></trkpt><trkpt lat="38.5077707" lon="16.2522887"><ele>1176.2</ele><time>2026-04-09T13:22:00.238Z</time></trkpt><trkpt lat="38.5077203" lon="16.2521695"><ele>1174.8000000000002</ele><time>2026-04-09T13:22:01.238Z</time></trkpt><trkpt lat="38.5076794" lon="16.2520583"><ele>1173.4</ele><time>2026-04-09T13:22:02.238Z</time></trkpt><trkpt lat="38.507646" lon="16.2519629"><ele>1172.0</ele><time>2026-04-09T13:22:03.238Z</time></trkpt><trkpt lat="38.5076186" lon="16.2518756"><ele>1172.0</ele><time>2026-04-09T13:22:04.238Z</time></trkpt><trkpt lat="38.50759" lon="16.2517974"><ele>1172.0</ele><time>2026-04-09T13:22:05.238Z</time></trkpt><trkpt lat="38.5075651" lon="16.2517121"><ele>1172.0</ele><time>2026-04-09T13:22:06.238Z</time></trkpt><trkpt lat="38.5075494" lon="16.2516303"><ele>1172.0</ele><time>2026-04-09T13:22:07.238Z</time></trkpt><trkpt lat="38.5075376" lon="16.2514855"><ele>1172.0</ele><time>2026-04-09T13:22:09.238Z</time></trkpt><trkpt lat="38.507538" lon="16.2513442"><ele>1172.0</ele><time>2026-04-09T13:22:11.238Z</time></trkpt><trkpt lat="38.507535" lon="16.2511799"><ele>1172.8333333333335</ele><time>2026-04-09T13:22:13.238Z</time></trkpt><trkpt lat="38.5075364" lon="16.2510831"><ele>1173.6666666666667</ele><time>2026-04-09T13:22:14.238Z</time></trkpt><trkpt lat="38.5075394" lon="16.2509849"><ele>1174.5</ele><time>2026-04-09T13:22:15.237Z</time></trkpt><trkpt lat="38.5075476" lon="16.2508843"><ele>1175.3333333333333</ele><time>2026-04-09T13:22:16.238Z</time></trkpt><trkpt lat="38.5075566" lon="16.2507931"><ele>1176.1666666666665</ele><time>2026-04-09T13:22:17.237Z</time></trkpt><trkpt lat="38.5075629" lon="16.2507107"><ele>1177.0</ele><time>2026-04-09T13:22:18.237Z</time></trkpt><trkpt lat="38.5076016" lon="16.2505594"><ele>1177.5</ele><time>2026-04-09T13:22:20.238Z</time></trkpt><trkpt lat="38.5076328" lon="16.2504801"><ele>1178.0</ele><time>2026-04-09T13:22:21.238Z</time></trkpt><trkpt lat="38.507675" lon="16.2504012"><ele>1178.5</ele><time>2026-04-09T13:22:22.238Z</time></trkpt><trkpt lat="38.5077195" lon="16.2503263"><ele>1179.0</ele><time>2026-04-09T13:22:23.238Z</time></trkpt><trkpt lat="38.5077739" lon="16.2502485"><ele>1179.5</ele><time>2026-04-09T13:22:24.238Z</time></trkpt><trkpt lat="38.50784" lon="16.2501516"><ele>1180.0</ele><time>2026-04-09T13:22:25.238Z</time></trkpt><trkpt lat="38.5079071" lon="16.2500578"><ele>1179.25</ele><time>2026-04-09T13:22:26.238Z</time></trkpt><trkpt lat="38.5079884" lon="16.249933"><ele>1178.5</ele><time>2026-04-09T13:22:27.238Z</time></trkpt><trkpt lat="38.5080646" lon="16.2497986"><ele>1177.75</ele><time>2026-04-09T13:22:28.238Z</time></trkpt><trkpt lat="38.5081234" lon="16.2496551"><ele>1177.0</ele><time>2026-04-09T13:22:29.237Z</time></trkpt><trkpt lat="38.5081544" lon="16.2495327"><ele>1177.0</ele><time>2026-04-09T13:22:30.238Z</time></trkpt><trkpt lat="38.5081648" lon="16.2494328"><ele>1177.0</ele><time>2026-04-09T13:22:31.238Z</time></trkpt><trkpt lat="38.5081552" lon="16.2493442"><ele>1177.0</ele><time>2026-04-09T13:22:32.238Z</time></trkpt><trkpt lat="38.5081121" lon="16.2492785"><ele>1177.0</ele><time>2026-04-09T13:22:33.238Z</time></trkpt><trkpt lat="38.5080374" lon="16.2492275"><ele>1177.0</ele><time>2026-04-09T13:22:34.238Z</time></trkpt><trkpt lat="38.5079465" lon="16.2491859"><ele>1177.0</ele><time>2026-04-09T13:22:35.238Z</time></trkpt><trkpt lat="38.5078441" lon="16.2491632"><ele>1179.0</ele><time>2026-04-09T13:22:36.238Z</time></trkpt><trkpt lat="38.5077318" lon="16.2491681"><ele>1181.0</ele><time>2026-04-09T13:22:37.238Z</time></trkpt><trkpt lat="38.507608" lon="16.2491729"><ele>1183.0</ele><time>2026-04-09T13:22:38.238Z</time></trkpt><trkpt lat="38.5074733" lon="16.2491681"><ele>1185.0</ele><time>2026-04-09T13:22:39.238Z</time></trkpt><trkpt lat="38.5073382" lon="16.2491474"><ele>1185.0</ele><time>2026-04-09T13:22:40.237Z</time></trkpt><trkpt lat="38.5072069" lon="16.2491157"><ele>1185.0</ele><time>2026-04-09T13:22:41.238Z</time></trkpt><trkpt lat="38.5070721" lon="16.2490641"><ele>1185.0</ele><time>2026-04-09T13:22:42.238Z</time></trkpt><trkpt lat="38.5069548" lon="16.2489981"><ele>1185.0</ele><time>2026-04-09T13:22:43.238Z</time></trkpt><trkpt lat="38.5068299" lon="16.2489426"><ele>1185.5</ele><time>2026-04-09T13:22:44.238Z</time></trkpt><trkpt lat="38.5066964" lon="16.2488844"><ele>1186.0</ele><time>2026-04-09T13:22:45.238Z</time></trkpt><trkpt lat="38.5065604" lon="16.2488285"><ele>1186.5</ele><time>2026-04-09T13:22:46.238Z</time></trkpt><trkpt lat="38.5064217" lon="16.2487741"><ele>1187.0</ele><time>2026-04-09T13:22:47.238Z</time></trkpt><trkpt lat="38.5062816" lon="16.2487157"><ele>1188.6666666666667</ele><time>2026-04-09T13:22:48.238Z</time></trkpt><trkpt lat="38.5061439" lon="16.248652"><ele>1190.3333333333333</ele><time>2026-04-09T13:22:49.238Z</time></trkpt><trkpt lat="38.5059993" lon="16.2485765"><ele>1192.0</ele><time>2026-04-09T13:22:50.238Z</time></trkpt><trkpt lat="38.5058459" lon="16.2484942"><ele>1192.0</ele><time>2026-04-09T13:22:51.238Z</time></trkpt><trkpt lat="38.5056992" lon="16.2484122"><ele>1192.0</ele><time>2026-04-09T13:22:52.238Z</time></trkpt><trkpt lat="38.5055384" lon="16.2483327"><ele>1192.0</ele><time>2026-04-09T13:22:53.238Z</time></trkpt><trkpt lat="38.5053907" lon="16.2482534"><ele>1191.6666666666665</ele><time>2026-04-09T13:22:54.238Z</time></trkpt><trkpt lat="38.505237" lon="16.2481764"><ele>1191.3333333333333</ele><time>2026-04-09T13:22:55.238Z</time></trkpt><trkpt lat="38.5050982" lon="16.2480917"><ele>1191.0</ele><time>2026-04-09T13:22:56.238Z</time></trkpt><trkpt lat="38.5049742" lon="16.2480165"><ele>1191.0</ele><time>2026-04-09T13:22:57.238Z</time></trkpt><trkpt lat="38.5048547" lon="16.2479597"><ele>1191.0</ele><time>2026-04-09T13:22:58.237Z</time></trkpt><trkpt lat="38.5047423" lon="16.2479349"><ele>1191.0</ele><time>2026-04-09T13:22:59.238Z</time></trkpt><trkpt lat="38.5046274" lon="16.247933"><ele>1191.0</ele><time>2026-04-09T13:23:00.238Z</time></trkpt><trkpt lat="38.5045076" lon="16.247965"><ele>1190.6666666666667</ele><time>2026-04-09T13:23:01.238Z</time></trkpt><trkpt lat="38.5043568" lon="16.2479984"><ele>1190.3333333333335</ele><time>2026-04-09T13:23:02.238Z</time></trkpt><trkpt lat="38.504214" lon="16.2480579"><ele>1190.0</ele><time>2026-04-09T13:23:03.238Z</time></trkpt><trkpt lat="38.5040827" lon="16.2481415"><ele>1190.0</ele><time>2026-04-09T13:23:04.238Z</time></trkpt><trkpt lat="38.5039668" lon="16.2482431"><ele>1190.0</ele><time>2026-04-09T13:23:05.238Z</time></trkpt><trkpt lat="38.5038498" lon="16.2483574"><ele>1190.0</ele><time>2026-04-09T13:23:06.238Z</time></trkpt><trkpt lat="38.50374" lon="16.2484752"><ele>1190.0</ele><time>2026-04-09T13:23:07.238Z</time></trkpt><trkpt lat="38.5036204" lon="16.2485756"><ele>1190.0</ele><time>2026-04-09T13:23:08.238Z</time></trkpt><trkpt lat="38.5034983" lon="16.2486203"><ele>1190.0</ele><time>2026-04-09T13:23:09.238Z</time></trkpt><trkpt lat="38.5033734" lon="16.2486459"><ele>1190.0</ele><time>2026-04-09T13:23:10.238Z</time></trkpt><trkpt lat="38.5032465" lon="16.2486572"><ele>1190.0</ele><time>2026-04-09T13:23:11.238Z</time></trkpt><trkpt lat="38.5031228" lon="16.2486713"><ele>1190.0</ele><time>2026-04-09T13:23:12.238Z</time></trkpt><trkpt lat="38.5030076" lon="16.2486743"><ele>1190.0</ele><time>2026-04-09T13:23:13.238Z</time></trkpt><trkpt lat="38.5029006" lon="16.2486706"><ele>1190.0</ele><time>2026-04-09T13:23:14.238Z</time></trkpt><trkpt lat="38.5028103" lon="16.2486304"><ele>1190.0</ele><time>2026-04-09T13:23:15.238Z</time></trkpt><trkpt lat="38.5027284" lon="16.2485643"><ele>1190.0</ele><time>2026-04-09T13:23:16.238Z</time></trkpt><trkpt lat="38.5026549" lon="16.2484666"><ele>1190.25</ele><time>2026-04-09T13:23:17.237Z</time></trkpt><trkpt lat="38.5025888" lon="16.2483517"><ele>1190.5</ele><time>2026-04-09T13:23:18.238Z</time></trkpt><trkpt lat="38.5025232" lon="16.2482192"><ele>1190.75</ele><time>2026-04-09T13:23:19.238Z</time></trkpt><trkpt lat="38.5024776" lon="16.248075"><ele>1191.0</ele><time>2026-04-09T13:23:20.238Z</time></trkpt><trkpt lat="38.5024394" lon="16.2479308"><ele>1192.0</ele><time>2026-04-09T13:23:21.238Z</time></trkpt><trkpt lat="38.5023988" lon="16.2477669"><ele>1193.0</ele><time>2026-04-09T13:23:22.238Z</time></trkpt><trkpt lat="38.5023452" lon="16.2475923"><ele>1194.0</ele><time>2026-04-09T13:23:23.238Z</time></trkpt><trkpt lat="38.5022766" lon="16.2474306"><ele>1195.0</ele><time>2026-04-09T13:23:24.238Z</time></trkpt><trkpt lat="38.5021854" lon="16.2472758"><ele>1195.25</ele><time>2026-04-09T13:23:25.237Z</time></trkpt><trkpt lat="38.5020942" lon="16.2471391"><ele>1195.5</ele><time>2026-04-09T13:23:26.237Z</time></trkpt><trkpt lat="38.5019978" lon="16.2469988"><ele>1195.75</ele><time>2026-04-09T13:23:27.238Z</time></trkpt><trkpt lat="38.5019034" lon="16.2468636"><ele>1196.0</ele><time>2026-04-09T13:23:28.237Z</time></trkpt><trkpt lat="38.5018068" lon="16.2467318"><ele>1195.6666666666667</ele><time>2026-04-09T13:23:29.238Z</time></trkpt><trkpt lat="38.501708" lon="16.2466033"><ele>1195.3333333333333</ele><time>2026-04-09T13:23:30.238Z</time></trkpt><trkpt lat="38.5016055" lon="16.2464801"><ele>1195.0</ele><time>2026-04-09T13:23:31.238Z</time></trkpt><trkpt lat="38.5014778" lon="16.2463356"><ele>1195.0</ele><time>2026-04-09T13:23:32.238Z</time></trkpt><trkpt lat="38.5013587" lon="16.2462072"><ele>1195.0</ele><time>2026-04-09T13:23:33.238Z</time></trkpt><trkpt lat="38.5012381" lon="16.2460873"><ele>1195.0</ele><time>2026-04-09T13:23:34.238Z</time></trkpt><trkpt lat="38.5011159" lon="16.245965"><ele>1194.6666666666665</ele><time>2026-04-09T13:23:35.237Z</time></trkpt><trkpt lat="38.5009935" lon="16.2458412"><ele>1194.3333333333333</ele><time>2026-04-09T13:23:36.238Z</time></trkpt><trkpt lat="38.5008721" lon="16.2457127"><ele>1194.0</ele><time>2026-04-09T13:23:37.238Z</time></trkpt><trkpt lat="38.5007599" lon="16.2456014"><ele>1193.3333333333333</ele><time>2026-04-09T13:23:38.238Z</time></trkpt><trkpt lat="38.5006311" lon="16.2454833"><ele>1192.6666666666665</ele><time>2026-04-09T13:23:39.237Z</time></trkpt><trkpt lat="38.5005067" lon="16.2453661"><ele>1192.0</ele><time>2026-04-09T13:23:40.238Z</time></trkpt><trkpt lat="38.5003745" lon="16.2452583"><ele>1193.6666666666665</ele><time>2026-04-09T13:23:41.238Z</time></trkpt><trkpt lat="38.5002268" lon="16.2451728"><ele>1195.3333333333333</ele><time>2026-04-09T13:23:42.238Z</time></trkpt><trkpt lat="38.500085" lon="16.2451063"><ele>1197.0</ele><time>2026-04-09T13:23:43.238Z</time></trkpt><trkpt lat="38.4999457" lon="16.245059"><ele>1197.0</ele><time>2026-04-09T13:23:44.238Z</time></trkpt><trkpt lat="38.4998069" lon="16.2450447"><ele>1197.0</ele><time>2026-04-09T13:23:45.238Z</time></trkpt><trkpt lat="38.4996696" lon="16.2450477"><ele>1197.0</ele><time>2026-04-09T13:23:46.238Z</time></trkpt><trkpt lat="38.4995311" lon="16.2450622"><ele>1197.0</ele><time>2026-04-09T13:23:47.238Z</time></trkpt><trkpt lat="38.4994003" lon="16.2450856"><ele>1197.75</ele><time>2026-04-09T13:23:48.238Z</time></trkpt><trkpt lat="38.4992673" lon="16.2451148"><ele>1198.5</ele><time>2026-04-09T13:23:49.238Z</time></trkpt><trkpt lat="38.4991338" lon="16.2451492"><ele>1199.25</ele><time>2026-04-09T13:23:50.238Z</time></trkpt><trkpt lat="38.4990004" lon="16.245171"><ele>1200.0</ele><time>2026-04-09T13:23:51.238Z</time></trkpt><trkpt lat="38.4988692" lon="16.2451869"><ele>1200.25</ele><time>2026-04-09T13:23:52.238Z</time></trkpt><trkpt lat="38.4987428" lon="16.2451875"><ele>1200.5</ele><time>2026-04-09T13:23:53.238Z</time></trkpt><trkpt lat="38.4986139" lon="16.2451778"><ele>1200.75</ele><time>2026-04-09T13:23:54.238Z</time></trkpt><trkpt lat="38.4984891" lon="16.2451596"><ele>1201.0</ele><time>2026-04-09T13:23:55.237Z</time></trkpt><trkpt lat="38.4983709" lon="16.2451367"><ele>1201.0</ele><time>2026-04-09T13:23:56.238Z</time></trkpt><trkpt lat="38.4982625" lon="16.2450995"><ele>1201.0</ele><time>2026-04-09T13:23:57.237Z</time></trkpt><trkpt lat="38.4981557" lon="16.2450412"><ele>1201.0</ele><time>2026-04-09T13:23:58.238Z</time></trkpt><trkpt lat="38.4980385" lon="16.2449531"><ele>1201.0</ele><time>2026-04-09T13:23:59.238Z</time></trkpt><trkpt lat="38.4979337" lon="16.2448331"><ele>1203.6666666666665</ele><time>2026-04-09T13:24:00.238Z</time></trkpt><trkpt lat="38.4978368" lon="16.2446976"><ele>1206.3333333333333</ele><time>2026-04-09T13:24:01.238Z</time></trkpt><trkpt lat="38.4977361" lon="16.2445414"><ele>1209.0</ele><time>2026-04-09T13:24:02.238Z</time></trkpt><trkpt lat="38.4976373" lon="16.2443996"><ele>1209.0</ele><time>2026-04-09T13:24:03.238Z</time></trkpt><trkpt lat="38.4975356" lon="16.2442761"><ele>1209.0</ele><time>2026-04-09T13:24:04.238Z</time></trkpt><trkpt lat="38.4974251" lon="16.2441508"><ele>1209.0</ele><time>2026-04-09T13:24:05.238Z</time></trkpt><trkpt lat="38.4973059" lon="16.2440411"><ele>1209.0</ele><time>2026-04-09T13:24:06.238Z</time></trkpt><trkpt lat="38.4971685" lon="16.2439492"><ele>1210.6666666666667</ele><time>2026-04-09T13:24:07.238Z</time></trkpt><trkpt lat="38.4970318" lon="16.2438786"><ele>1212.3333333333335</ele><time>2026-04-09T13:24:08.238Z</time></trkpt><trkpt lat="38.49689" lon="16.2438233"><ele>1214.0</ele><time>2026-04-09T13:24:09.238Z</time></trkpt><trkpt lat="38.4967414" lon="16.2437702"><ele>1214.0</ele><time>2026-04-09T13:24:10.238Z</time></trkpt><trkpt lat="38.4965805" lon="16.2437161"><ele>1214.0</ele><time>2026-04-09T13:24:11.238Z</time></trkpt><trkpt lat="38.4964272" lon="16.2436622"><ele>1214.0</ele><time>2026-04-09T13:24:12.238Z</time></trkpt><trkpt lat="38.4962845" lon="16.2436044"><ele>1215.3333333333335</ele><time>2026-04-09T13:24:13.238Z</time></trkpt><trkpt lat="38.4961437" lon="16.2435203"><ele>1216.6666666666667</ele><time>2026-04-09T13:24:14.238Z</time></trkpt><trkpt lat="38.4960136" lon="16.2434057"><ele>1218.0</ele><time>2026-04-09T13:24:15.237Z</time></trkpt><trkpt lat="38.495883" lon="16.2432695"><ele>1218.0</ele><time>2026-04-09T13:24:16.238Z</time></trkpt><trkpt lat="38.4957552" lon="16.2431377"><ele>1218.0</ele><time>2026-04-09T13:24:17.238Z</time></trkpt><trkpt lat="38.4956272" lon="16.2430252"><ele>1218.0</ele><time>2026-04-09T13:24:18.238Z</time></trkpt><trkpt lat="38.4954838" lon="16.2429306"><ele>1218.25</ele><time>2026-04-09T13:24:19.238Z</time></trkpt><trkpt lat="38.4953467" lon="16.2428503"><ele>1218.5</ele><time>2026-04-09T13:24:20.238Z</time></trkpt><trkpt lat="38.495218" lon="16.2427771"><ele>1218.75</ele><time>2026-04-09T13:24:21.238Z</time></trkpt><trkpt lat="38.4951073" lon="16.2426847"><ele>1219.0</ele><time>2026-04-09T13:24:22.238Z</time></trkpt><trkpt lat="38.4950052" lon="16.2425969"><ele>1219.0</ele><time>2026-04-09T13:24:23.238Z</time></trkpt><trkpt lat="38.4949127" lon="16.2425305"><ele>1219.0</ele><time>2026-04-09T13:24:24.238Z</time></trkpt><trkpt lat="38.4948173" lon="16.2425063"><ele>1219.0</ele><time>2026-04-09T13:24:25.238Z</time></trkpt><trkpt lat="38.4947146" lon="16.2425072"><ele>1219.0</ele><time>2026-04-09T13:24:26.238Z</time></trkpt><trkpt lat="38.4946215" lon="16.2424962"><ele>1219.0</ele><time>2026-04-09T13:24:27.238Z</time></trkpt><trkpt lat="38.4945407" lon="16.2424593"><ele>1219.0</ele><time>2026-04-09T13:24:28.238Z</time></trkpt><trkpt lat="38.4944616" lon="16.2423989"><ele>1219.0</ele><time>2026-04-09T13:24:29.238Z</time></trkpt><trkpt lat="38.4943873" lon="16.2423195"><ele>1219.0</ele><time>2026-04-09T13:24:30.238Z</time></trkpt><trkpt lat="38.494318" lon="16.2422184"><ele>1219.0</ele><time>2026-04-09T13:24:31.238Z</time></trkpt><trkpt lat="38.4942627" lon="16.2421071"><ele>1219.0</ele><time>2026-04-09T13:24:32.238Z</time></trkpt><trkpt lat="38.4942059" lon="16.2420002"><ele>1219.0</ele><time>2026-04-09T13:24:33.238Z</time></trkpt><trkpt lat="38.4941595" lon="16.2418765"><ele>1219.0</ele><time>2026-04-09T13:24:34.238Z</time></trkpt><trkpt lat="38.494123" lon="16.2417438"><ele>1219.0</ele><time>2026-04-09T13:24:35.238Z</time></trkpt><trkpt lat="38.4940915" lon="16.2416109"><ele>1219.0</ele><time>2026-04-09T13:24:36.238Z</time></trkpt><trkpt lat="38.4940752" lon="16.2414694"><ele>1219.0</ele><time>2026-04-09T13:24:37.238Z</time></trkpt><trkpt lat="38.494062" lon="16.2413255"><ele>1217.6666666666665</ele><time>2026-04-09T13:24:38.238Z</time></trkpt><trkpt lat="38.4940608" lon="16.2411931"><ele>1216.3333333333333</ele><time>2026-04-09T13:24:39.238Z</time></trkpt><trkpt lat="38.4940638" lon="16.2410639"><ele>1215.0</ele><time>2026-04-09T13:24:40.238Z</time></trkpt><trkpt lat="38.494075" lon="16.2409545"><ele>1213.6666666666667</ele><time>2026-04-09T13:24:41.238Z</time></trkpt><trkpt lat="38.4940956" lon="16.2408572"><ele>1212.3333333333335</ele><time>2026-04-09T13:24:42.238Z</time></trkpt><trkpt lat="38.4941234" lon="16.2407775"><ele>1211.0</ele><time>2026-04-09T13:24:43.238Z</time></trkpt><trkpt lat="38.4941739" lon="16.2407164"><ele>1210.25</ele><time>2026-04-09T13:24:44.237Z</time></trkpt><trkpt lat="38.4943093" lon="16.2406063"><ele>1209.5</ele><time>2026-04-09T13:24:46.238Z</time></trkpt><trkpt lat="38.4943871" lon="16.2405577"><ele>1208.75</ele><time>2026-04-09T13:24:47.238Z</time></trkpt><trkpt lat="38.4944622" lon="16.2405039"><ele>1208.0</ele><time>2026-04-09T13:24:48.238Z</time></trkpt><trkpt lat="38.494581" lon="16.2404463"><ele>1208.75</ele><time>2026-04-09T13:24:49.238Z</time></trkpt><trkpt lat="38.494716" lon="16.2403927"><ele>1209.5</ele><time>2026-04-09T13:24:50.238Z</time></trkpt><trkpt lat="38.49485" lon="16.2403191"><ele>1210.25</ele><time>2026-04-09T13:24:51.238Z</time></trkpt><trkpt lat="38.4949705" lon="16.2402287"><ele>1211.0</ele><time>2026-04-09T13:24:52.238Z</time></trkpt><trkpt lat="38.4950714" lon="16.2401112"><ele>1211.0</ele><time>2026-04-09T13:24:53.238Z</time></trkpt><trkpt lat="38.4951655" lon="16.2399543"><ele>1211.0</ele><time>2026-04-09T13:24:54.238Z</time></trkpt><trkpt lat="38.4952473" lon="16.2397849"><ele>1211.0</ele><time>2026-04-09T13:24:55.238Z</time></trkpt><trkpt lat="38.495306" lon="16.2396003"><ele>1210.5</ele><time>2026-04-09T13:24:56.238Z</time></trkpt><trkpt lat="38.495352" lon="16.2394178"><ele>1210.0</ele><time>2026-04-09T13:24:57.238Z</time></trkpt><trkpt lat="38.4953911" lon="16.2392428"><ele>1209.5</ele><time>2026-04-09T13:24:58.238Z</time></trkpt><trkpt lat="38.4954259" lon="16.2390741"><ele>1209.0</ele><time>2026-04-09T13:24:59.238Z</time></trkpt><trkpt lat="38.4954611" lon="16.2389234"><ele>1205.5</ele><time>2026-04-09T13:25:00.238Z</time></trkpt><trkpt lat="38.4955049" lon="16.2387881"><ele>1202.0</ele><time>2026-04-09T13:25:01.238Z</time></trkpt><trkpt lat="38.4955603" lon="16.2386611"><ele>1198.5</ele><time>2026-04-09T13:25:02.238Z</time></trkpt><trkpt lat="38.4956332" lon="16.2385475"><ele>1195.0</ele><time>2026-04-09T13:25:03.238Z</time></trkpt><trkpt lat="38.4957214" lon="16.2384515"><ele>1195.0</ele><time>2026-04-09T13:25:04.237Z</time></trkpt><trkpt lat="38.4958062" lon="16.238366"><ele>1195.0</ele><time>2026-04-09T13:25:05.238Z</time></trkpt><trkpt lat="38.4958961" lon="16.2382832"><ele>1195.0</ele><time>2026-04-09T13:25:06.238Z</time></trkpt><trkpt lat="38.4959888" lon="16.2382165"><ele>1195.0</ele><time>2026-04-09T13:25:07.238Z</time></trkpt><trkpt lat="38.4960843" lon="16.2381615"><ele>1195.0</ele><time>2026-04-09T13:25:08.237Z</time></trkpt><trkpt lat="38.4961845" lon="16.2381211"><ele>1195.0</ele><time>2026-04-09T13:25:09.237Z</time></trkpt><trkpt lat="38.4963057" lon="16.2381139"><ele>1195.0</ele><time>2026-04-09T13:25:10.238Z</time></trkpt><trkpt lat="38.4964263" lon="16.2381178"><ele>1195.0</ele><time>2026-04-09T13:25:11.238Z</time></trkpt><trkpt lat="38.4965544" lon="16.2381338"><ele>1195.0</ele><time>2026-04-09T13:25:12.238Z</time></trkpt><trkpt lat="38.4966941" lon="16.2381623"><ele>1195.0</ele><time>2026-04-09T13:25:13.238Z</time></trkpt><trkpt lat="38.4968389" lon="16.2381799"><ele>1195.0</ele><time>2026-04-09T13:25:14.238Z</time></trkpt><trkpt lat="38.4970034" lon="16.2382016"><ele>1195.0</ele><time>2026-04-09T13:25:15.238Z</time></trkpt><trkpt lat="38.4971884" lon="16.2382122"><ele>1192.6666666666665</ele><time>2026-04-09T13:25:16.237Z</time></trkpt><trkpt lat="38.4973812" lon="16.2382179"><ele>1190.3333333333333</ele><time>2026-04-09T13:25:17.238Z</time></trkpt><trkpt lat="38.4975668" lon="16.2382298"><ele>1188.0</ele><time>2026-04-09T13:25:18.238Z</time></trkpt><trkpt lat="38.4977475" lon="16.2382439"><ele>1184.6666666666667</ele><time>2026-04-09T13:25:19.238Z</time></trkpt><trkpt lat="38.4979195" lon="16.2382569"><ele>1181.3333333333335</ele><time>2026-04-09T13:25:20.238Z</time></trkpt><trkpt lat="38.4980833" lon="16.2382724"><ele>1178.0</ele><time>2026-04-09T13:25:21.238Z</time></trkpt><trkpt lat="38.4982446" lon="16.2382918"><ele>1178.0</ele><time>2026-04-09T13:25:22.238Z</time></trkpt><trkpt lat="38.4984125" lon="16.238329"><ele>1178.0</ele><time>2026-04-09T13:25:23.238Z</time></trkpt><trkpt lat="38.4985623" lon="16.238354"><ele>1178.0</ele><time>2026-04-09T13:25:24.238Z</time></trkpt><trkpt lat="38.4987014" lon="16.2383704"><ele>1176.4</ele><time>2026-04-09T13:25:25.238Z</time></trkpt><trkpt lat="38.4988229" lon="16.2383717"><ele>1174.8</ele><time>2026-04-09T13:25:26.238Z</time></trkpt><trkpt lat="38.4989223" lon="16.2383587"><ele>1173.2</ele><time>2026-04-09T13:25:27.238Z</time></trkpt><trkpt lat="38.4990141" lon="16.2383377"><ele>1171.6</ele><time>2026-04-09T13:25:28.238Z</time></trkpt><trkpt lat="38.4990891" lon="16.2382963"><ele>1170.0</ele><time>2026-04-09T13:25:29.238Z</time></trkpt><trkpt lat="38.4991537" lon="16.2382091"><ele>1169.8</ele><time>2026-04-09T13:25:31.238Z</time></trkpt><trkpt lat="38.4991535" lon="16.23807"><ele>1169.6</ele><time>2026-04-09T13:25:33.238Z</time></trkpt><trkpt lat="38.4991074" lon="16.2379086"><ele>1169.4</ele><time>2026-04-09T13:25:35.237Z</time></trkpt><trkpt lat="38.4990937" lon="16.2378162"><ele>1169.2</ele><time>2026-04-09T13:25:36.238Z</time></trkpt><trkpt lat="38.4990875" lon="16.2377266"><ele>1169.0</ele><time>2026-04-09T13:25:37.238Z</time></trkpt><trkpt lat="38.4990838" lon="16.2376453"><ele>1169.0</ele><time>2026-04-09T13:25:38.238Z</time></trkpt><trkpt lat="38.4990922" lon="16.2375515"><ele>1169.0</ele><time>2026-04-09T13:25:39.238Z</time></trkpt><trkpt lat="38.4991063" lon="16.2374437"><ele>1169.0</ele><time>2026-04-09T13:25:40.238Z</time></trkpt><trkpt lat="38.4991209" lon="16.2373275"><ele>1169.0</ele><time>2026-04-09T13:25:41.238Z</time></trkpt><trkpt lat="38.4991341" lon="16.2371952"><ele>1169.0</ele><time>2026-04-09T13:25:42.238Z</time></trkpt><trkpt lat="38.4991429" lon="16.2370499"><ele>1168.0</ele><time>2026-04-09T13:25:43.238Z</time></trkpt><trkpt lat="38.4991419" lon="16.2368865"><ele>1167.0</ele><time>2026-04-09T13:25:44.238Z</time></trkpt><trkpt lat="38.4991485" lon="16.236733"><ele>1166.0</ele><time>2026-04-09T13:25:45.238Z</time></trkpt><trkpt lat="38.4991656" lon="16.2365954"><ele>1165.0</ele><time>2026-04-09T13:25:46.237Z</time></trkpt><trkpt lat="38.4991946" lon="16.2364672"><ele>1164.0</ele><time>2026-04-09T13:25:47.238Z</time></trkpt><trkpt lat="38.4992255" lon="16.2363385"><ele>1163.0</ele><time>2026-04-09T13:25:48.238Z</time></trkpt><trkpt lat="38.4992564" lon="16.2362233"><ele>1162.0</ele><time>2026-04-09T13:25:49.238Z</time></trkpt><trkpt lat="38.4993007" lon="16.2361118"><ele>1161.0</ele><time>2026-04-09T13:25:50.238Z</time></trkpt><trkpt lat="38.4993574" lon="16.2360136"><ele>1160.0</ele><time>2026-04-09T13:25:51.238Z</time></trkpt><trkpt lat="38.4994334" lon="16.2359226"><ele>1160.0</ele><time>2026-04-09T13:25:52.238Z</time></trkpt><trkpt lat="38.4995263" lon="16.235841"><ele>1160.0</ele><time>2026-04-09T13:25:53.238Z</time></trkpt><trkpt lat="38.4996299" lon="16.2357725"><ele>1160.0</ele><time>2026-04-09T13:25:54.238Z</time></trkpt><trkpt lat="38.4997432" lon="16.2357286"><ele>1160.0</ele><time>2026-04-09T13:25:55.238Z</time></trkpt><trkpt lat="38.4998665" lon="16.2357044"><ele>1159.2</ele><time>2026-04-09T13:25:56.238Z</time></trkpt><trkpt lat="38.4999983" lon="16.2357003"><ele>1158.4</ele><time>2026-04-09T13:25:57.238Z</time></trkpt><trkpt lat="38.5001119" lon="16.2357311"><ele>1157.6</ele><time>2026-04-09T13:25:58.238Z</time></trkpt><trkpt lat="38.500202" lon="16.2357836"><ele>1156.8</ele><time>2026-04-09T13:25:59.238Z</time></trkpt><trkpt lat="38.500289" lon="16.2358348"><ele>1156.0</ele><time>2026-04-09T13:26:00.238Z</time></trkpt><trkpt lat="38.5003688" lon="16.2358809"><ele>1155.5</ele><time>2026-04-09T13:26:01.238Z</time></trkpt><trkpt lat="38.5004457" lon="16.2358934"><ele>1155.0</ele><time>2026-04-09T13:26:02.238Z</time></trkpt><trkpt lat="38.5005113" lon="16.2358787"><ele>1154.5</ele><time>2026-04-09T13:26:03.238Z</time></trkpt><trkpt lat="38.5005818" lon="16.2357666"><ele>1154.0</ele><time>2026-04-09T13:26:05.238Z</time></trkpt><trkpt lat="38.5005829" lon="16.2356841"><ele>1153.5</ele><time>2026-04-09T13:26:06.238Z</time></trkpt><trkpt lat="38.5005675" lon="16.235596"><ele>1153.0</ele><time>2026-04-09T13:26:07.238Z</time></trkpt><trkpt lat="38.5005435" lon="16.2354912"><ele>1153.0</ele><time>2026-04-09T13:26:08.238Z</time></trkpt><trkpt lat="38.5005075" lon="16.2353724"><ele>1153.0</ele><time>2026-04-09T13:26:09.238Z</time></trkpt><trkpt lat="38.500472" lon="16.2352518"><ele>1153.0</ele><time>2026-04-09T13:26:10.238Z</time></trkpt><trkpt lat="38.500444" lon="16.2351405"><ele>1153.0</ele><time>2026-04-09T13:26:11.238Z</time></trkpt><trkpt lat="38.5004217" lon="16.2350306"><ele>1153.0</ele><time>2026-04-09T13:26:12.238Z</time></trkpt><trkpt lat="38.5004148" lon="16.2349146"><ele>1152.2</ele><time>2026-04-09T13:26:13.238Z</time></trkpt><trkpt lat="38.500416" lon="16.2347849"><ele>1151.4</ele><time>2026-04-09T13:26:14.238Z</time></trkpt><trkpt lat="38.5004278" lon="16.2346577"><ele>1150.6000000000001</ele><time>2026-04-09T13:26:15.238Z</time></trkpt><trkpt lat="38.5004521" lon="16.2345299"><ele>1149.8</ele><time>2026-04-09T13:26:16.237Z</time></trkpt><trkpt lat="38.5004861" lon="16.2344027"><ele>1149.0</ele><time>2026-04-09T13:26:17.238Z</time></trkpt><trkpt lat="38.5005221" lon="16.2342612"><ele>1148.75</ele><time>2026-04-09T13:26:18.238Z</time></trkpt><trkpt lat="38.5005576" lon="16.2341129"><ele>1148.5</ele><time>2026-04-09T13:26:19.238Z</time></trkpt><trkpt lat="38.5006045" lon="16.2339483"><ele>1148.25</ele><time>2026-04-09T13:26:20.238Z</time></trkpt><trkpt lat="38.5006616" lon="16.23377"><ele>1148.0</ele><time>2026-04-09T13:26:21.238Z</time></trkpt><trkpt lat="38.5007213" lon="16.2335784"><ele>1147.3333333333335</ele><time>2026-04-09T13:26:22.238Z</time></trkpt><trkpt lat="38.5007694" lon="16.2333963"><ele>1146.6666666666667</ele><time>2026-04-09T13:26:23.238Z</time></trkpt><trkpt lat="38.5008167" lon="16.2332052"><ele>1146.0</ele><time>2026-04-09T13:26:24.238Z</time></trkpt><trkpt lat="38.500846" lon="16.2330124"><ele>1145.6666666666667</ele><time>2026-04-09T13:26:25.238Z</time></trkpt><trkpt lat="38.5008746" lon="16.2328038"><ele>1145.3333333333335</ele><time>2026-04-09T13:26:26.238Z</time></trkpt><trkpt lat="38.5008959" lon="16.2325963"><ele>1145.0</ele><time>2026-04-09T13:26:27.238Z</time></trkpt><trkpt lat="38.5009218" lon="16.2324121"><ele>1143.25</ele><time>2026-04-09T13:26:28.238Z</time></trkpt><trkpt lat="38.5009593" lon="16.2322269"><ele>1141.5</ele><time>2026-04-09T13:26:29.238Z</time></trkpt><trkpt lat="38.5010019" lon="16.2320437"><ele>1139.75</ele><time>2026-04-09T13:26:30.238Z</time></trkpt><trkpt lat="38.5010534" lon="16.2318678"><ele>1138.0</ele><time>2026-04-09T13:26:31.238Z</time></trkpt><trkpt lat="38.5010992" lon="16.2317009"><ele>1138.0</ele><time>2026-04-09T13:26:32.238Z</time></trkpt><trkpt lat="38.5011536" lon="16.2315788"><ele>1138.0</ele><time>2026-04-09T13:26:33.238Z</time></trkpt><trkpt lat="38.501235" lon="16.2314605"><ele>1138.0</ele><time>2026-04-09T13:26:34.238Z</time></trkpt><trkpt lat="38.5013378" lon="16.2313608"><ele>1138.0</ele><time>2026-04-09T13:26:35.238Z</time></trkpt><trkpt lat="38.5014466" lon="16.2312787"><ele>1134.5</ele><time>2026-04-09T13:26:36.237Z</time></trkpt><trkpt lat="38.5015642" lon="16.2312153"><ele>1131.0</ele><time>2026-04-09T13:26:37.238Z</time></trkpt><trkpt lat="38.5016781" lon="16.2311575"><ele>1127.5</ele><time>2026-04-09T13:26:38.238Z</time></trkpt><trkpt lat="38.5017718" lon="16.2310852"><ele>1124.0</ele><time>2026-04-09T13:26:39.238Z</time></trkpt><trkpt lat="38.5018452" lon="16.231005"><ele>1124.0</ele><time>2026-04-09T13:26:40.237Z</time></trkpt><trkpt lat="38.501889" lon="16.2309301"><ele>1124.0</ele><time>2026-04-09T13:26:41.238Z</time></trkpt><trkpt lat="38.5019006" lon="16.2308364"><ele>1124.0</ele><time>2026-04-09T13:26:43.238Z</time></trkpt><trkpt lat="38.5018097" lon="16.2308016"><ele>1124.0</ele><time>2026-04-09T13:26:46.238Z</time></trkpt><trkpt lat="38.5016811" lon="16.2308059"><ele>1124.0</ele><time>2026-04-09T13:26:48.238Z</time></trkpt><trkpt lat="38.5016102" lon="16.2308014"><ele>1124.0</ele><time>2026-04-09T13:26:49.237Z</time></trkpt><trkpt lat="38.5015247" lon="16.2307803"><ele>1124.0</ele><time>2026-04-09T13:26:50.238Z</time></trkpt><trkpt lat="38.5014438" lon="16.2307195"><ele>1124.0</ele><time>2026-04-09T13:26:51.238Z</time></trkpt><trkpt lat="38.5013638" lon="16.2306137"><ele>1124.0</ele><time>2026-04-09T13:26:52.238Z</time></trkpt><trkpt lat="38.501294" lon="16.2304817"><ele>1124.0</ele><time>2026-04-09T13:26:53.237Z</time></trkpt><trkpt lat="38.5012287" lon="16.230347"><ele>1122.25</ele><time>2026-04-09T13:26:54.238Z</time></trkpt><trkpt lat="38.501158" lon="16.2302287"><ele>1120.5</ele><time>2026-04-09T13:26:55.237Z</time></trkpt><trkpt lat="38.5010532" lon="16.2301396"><ele>1118.75</ele><time>2026-04-09T13:26:56.238Z</time></trkpt><trkpt lat="38.5009523" lon="16.2300691"><ele>1117.0</ele><time>2026-04-09T13:26:57.238Z</time></trkpt><trkpt lat="38.5008483" lon="16.2300117"><ele>1117.0</ele><time>2026-04-09T13:26:58.238Z</time></trkpt><trkpt lat="38.5007401" lon="16.229977"><ele>1117.0</ele><time>2026-04-09T13:26:59.238Z</time></trkpt><trkpt lat="38.5006258" lon="16.2299311"><ele>1117.0</ele><time>2026-04-09T13:27:00.238Z</time></trkpt><trkpt lat="38.5005277" lon="16.2298704"><ele>1117.0</ele><time>2026-04-09T13:27:01.238Z</time></trkpt><trkpt lat="38.5004332" lon="16.2297944"><ele>1117.75</ele><time>2026-04-09T13:27:02.238Z</time></trkpt><trkpt lat="38.5003411" lon="16.2296943"><ele>1118.5</ele><time>2026-04-09T13:27:03.238Z</time></trkpt><trkpt lat="38.5002491" lon="16.2295572"><ele>1119.25</ele><time>2026-04-09T13:27:04.238Z</time></trkpt><trkpt lat="38.5001764" lon="16.2293904"><ele>1120.0</ele><time>2026-04-09T13:27:05.238Z</time></trkpt><trkpt lat="38.5001072" lon="16.2292044"><ele>1120.0</ele><time>2026-04-09T13:27:06.238Z</time></trkpt><trkpt lat="38.5000467" lon="16.2290244"><ele>1120.0</ele><time>2026-04-09T13:27:07.238Z</time></trkpt><trkpt lat="38.4999781" lon="16.2288413"><ele>1120.0</ele><time>2026-04-09T13:27:08.238Z</time></trkpt><trkpt lat="38.4999075" lon="16.2286552"><ele>1117.6666666666665</ele><time>2026-04-09T13:27:09.237Z</time></trkpt><trkpt lat="38.4998393" lon="16.2284676"><ele>1115.3333333333333</ele><time>2026-04-09T13:27:10.238Z</time></trkpt><trkpt lat="38.4997771" lon="16.2282794"><ele>1113.0</ele><time>2026-04-09T13:27:11.238Z</time></trkpt><trkpt lat="38.4997088" lon="16.2280902"><ele>1112.6666666666667</ele><time>2026-04-09T13:27:12.238Z</time></trkpt><trkpt lat="38.499639" lon="16.227903"><ele>1112.3333333333335</ele><time>2026-04-09T13:27:13.238Z</time></trkpt><trkpt lat="38.4995703" lon="16.2277239"><ele>1112.0</ele><time>2026-04-09T13:27:14.237Z</time></trkpt><trkpt lat="38.4994977" lon="16.2275342"><ele>1112.0</ele><time>2026-04-09T13:27:15.238Z</time></trkpt><trkpt lat="38.499423" lon="16.2273387"><ele>1112.0</ele><time>2026-04-09T13:27:16.238Z</time></trkpt><trkpt lat="38.4993457" lon="16.2271405"><ele>1112.0</ele><time>2026-04-09T13:27:17.238Z</time></trkpt><trkpt lat="38.4992821" lon="16.2269454"><ele>1112.0</ele><time>2026-04-09T13:27:18.238Z</time></trkpt><trkpt lat="38.4992152" lon="16.2267485"><ele>1112.0</ele><time>2026-04-09T13:27:19.238Z</time></trkpt><trkpt lat="38.4991484" lon="16.2265512"><ele>1112.0</ele><time>2026-04-09T13:27:20.238Z</time></trkpt><trkpt lat="38.4990894" lon="16.2263608"><ele>1110.0</ele><time>2026-04-09T13:27:21.238Z</time></trkpt><trkpt lat="38.4990375" lon="16.2261646"><ele>1108.0</ele><time>2026-04-09T13:27:22.238Z</time></trkpt><trkpt lat="38.4989888" lon="16.2259654"><ele>1106.0</ele><time>2026-04-09T13:27:23.238Z</time></trkpt><trkpt lat="38.498971" lon="16.2257594"><ele>1104.0</ele><time>2026-04-09T13:27:24.238Z</time></trkpt><trkpt lat="38.498964" lon="16.2255535"><ele>1102.0</ele><time>2026-04-09T13:27:25.238Z</time></trkpt><trkpt lat="38.4989642" lon="16.2253439"><ele>1100.0</ele><time>2026-04-09T13:27:26.237Z</time></trkpt><trkpt lat="38.4989659" lon="16.2251389"><ele>1100.0</ele><time>2026-04-09T13:27:27.238Z</time></trkpt><trkpt lat="38.4989909" lon="16.2249211"><ele>1100.0</ele><time>2026-04-09T13:27:28.238Z</time></trkpt><trkpt lat="38.499059" lon="16.2247105"><ele>1100.0</ele><time>2026-04-09T13:27:29.238Z</time></trkpt><trkpt lat="38.4991129" lon="16.2245363"><ele>1099.75</ele><time>2026-04-09T13:27:30.238Z</time></trkpt><trkpt lat="38.4991927" lon="16.2243954"><ele>1099.5</ele><time>2026-04-09T13:27:31.238Z</time></trkpt><trkpt lat="38.4992804" lon="16.2242707"><ele>1099.25</ele><time>2026-04-09T13:27:32.238Z</time></trkpt><trkpt lat="38.4993793" lon="16.2241491"><ele>1099.0</ele><time>2026-04-09T13:27:33.237Z</time></trkpt><trkpt lat="38.4994852" lon="16.2240304"><ele>1096.25</ele><time>2026-04-09T13:27:34.238Z</time></trkpt><trkpt lat="38.499591" lon="16.2239355"><ele>1093.5</ele><time>2026-04-09T13:27:35.237Z</time></trkpt><trkpt lat="38.4997127" lon="16.2238864"><ele>1090.75</ele><time>2026-04-09T13:27:36.238Z</time></trkpt><trkpt lat="38.4998441" lon="16.2238821"><ele>1088.0</ele><time>2026-04-09T13:27:37.238Z</time></trkpt><trkpt lat="38.4999818" lon="16.2238883"><ele>1088.0</ele><time>2026-04-09T13:27:38.238Z</time></trkpt><trkpt lat="38.5001189" lon="16.2238949"><ele>1088.0</ele><time>2026-04-09T13:27:39.238Z</time></trkpt><trkpt lat="38.5002606" lon="16.2238903"><ele>1088.0</ele><time>2026-04-09T13:27:40.238Z</time></trkpt><trkpt lat="38.5003964" lon="16.223871"><ele>1088.0</ele><time>2026-04-09T13:27:41.238Z</time></trkpt><trkpt lat="38.5005112" lon="16.2238363"><ele>1087.8333333333335</ele><time>2026-04-09T13:27:42.238Z</time></trkpt><trkpt lat="38.5005937" lon="16.2237708"><ele>1087.6666666666667</ele><time>2026-04-09T13:27:43.238Z</time></trkpt><trkpt lat="38.5006405" lon="16.2236794"><ele>1087.5</ele><time>2026-04-09T13:27:44.238Z</time></trkpt><trkpt lat="38.5006684" lon="16.2235676"><ele>1087.3333333333333</ele><time>2026-04-09T13:27:45.238Z</time></trkpt><trkpt lat="38.5006682" lon="16.2234533"><ele>1087.1666666666665</ele><time>2026-04-09T13:27:46.238Z</time></trkpt><trkpt lat="38.5006453" lon="16.2233528"><ele>1087.0</ele><time>2026-04-09T13:27:47.238Z</time></trkpt><trkpt lat="38.5005943" lon="16.223272"><ele>1087.0</ele><time>2026-04-09T13:27:48.238Z</time></trkpt><trkpt lat="38.5005227" lon="16.2232217"><ele>1087.0</ele><time>2026-04-09T13:27:49.238Z</time></trkpt><trkpt lat="38.5004347" lon="16.2232141"><ele>1087.0</ele><time>2026-04-09T13:27:50.238Z</time></trkpt><trkpt lat="38.5003382" lon="16.2232407"><ele>1087.0</ele><time>2026-04-09T13:27:51.238Z</time></trkpt><trkpt lat="38.50024" lon="16.2232892"><ele>1087.0</ele><time>2026-04-09T13:27:52.238Z</time></trkpt><trkpt lat="38.5001464" lon="16.2233448"><ele>1087.2</ele><time>2026-04-09T13:27:53.238Z</time></trkpt><trkpt lat="38.5000572" lon="16.2233983"><ele>1087.4</ele><time>2026-04-09T13:27:54.238Z</time></trkpt><trkpt lat="38.4999705" lon="16.2234491"><ele>1087.6</ele><time>2026-04-09T13:27:55.238Z</time></trkpt><trkpt lat="38.4998788" lon="16.2234931"><ele>1087.8</ele><time>2026-04-09T13:27:56.237Z</time></trkpt><trkpt lat="38.4997867" lon="16.2235184"><ele>1088.0</ele><time>2026-04-09T13:27:57.238Z</time></trkpt><trkpt lat="38.4996982" lon="16.2235129"><ele>1088.0</ele><time>2026-04-09T13:27:58.238Z</time></trkpt><trkpt lat="38.4996137" lon="16.2234933"><ele>1088.0</ele><time>2026-04-09T13:27:59.238Z</time></trkpt><trkpt lat="38.4995305" lon="16.2234562"><ele>1088.0</ele><time>2026-04-09T13:28:00.238Z</time></trkpt><trkpt lat="38.4994508" lon="16.2234059"><ele>1088.0</ele><time>2026-04-09T13:28:01.237Z</time></trkpt><trkpt lat="38.4993777" lon="16.2233347"><ele>1088.0</ele><time>2026-04-09T13:28:02.238Z</time></trkpt><trkpt lat="38.4993121" lon="16.2232392"><ele>1087.0</ele><time>2026-04-09T13:28:03.237Z</time></trkpt><trkpt lat="38.4992524" lon="16.2231268"><ele>1086.0</ele><time>2026-04-09T13:28:04.238Z</time></trkpt><trkpt lat="38.4991886" lon="16.2230232"><ele>1085.0</ele><time>2026-04-09T13:28:05.238Z</time></trkpt><trkpt lat="38.4991158" lon="16.2229549"><ele>1084.0</ele><time>2026-04-09T13:28:06.238Z</time></trkpt><trkpt lat="38.499036" lon="16.2229056"><ele>1083.0</ele><time>2026-04-09T13:28:07.238Z</time></trkpt><trkpt lat="38.498954" lon="16.2228616"><ele>1083.0</ele><time>2026-04-09T13:28:08.238Z</time></trkpt><trkpt lat="38.4988647" lon="16.222823"><ele>1083.0</ele><time>2026-04-09T13:28:09.238Z</time></trkpt><trkpt lat="38.4987903" lon="16.2227667"><ele>1083.0</ele><time>2026-04-09T13:28:10.238Z</time></trkpt><trkpt lat="38.4987308" lon="16.2227038"><ele>1083.0</ele><time>2026-04-09T13:28:11.238Z</time></trkpt><trkpt lat="38.4986934" lon="16.2226116"><ele>1083.0</ele><time>2026-04-09T13:28:12.238Z</time></trkpt><trkpt lat="38.4986871" lon="16.2225182"><ele>1083.0</ele><time>2026-04-09T13:28:13.238Z</time></trkpt><trkpt lat="38.4987102" lon="16.2224175"><ele>1082.5</ele><time>2026-04-09T13:28:14.238Z</time></trkpt><trkpt lat="38.4987386" lon="16.2223107"><ele>1082.0</ele><time>2026-04-09T13:28:15.238Z</time></trkpt><trkpt lat="38.4987738" lon="16.2221815"><ele>1081.5</ele><time>2026-04-09T13:28:16.238Z</time></trkpt><trkpt lat="38.4988415" lon="16.222011"><ele>1081.0</ele><time>2026-04-09T13:28:17.238Z</time></trkpt><trkpt lat="38.498914" lon="16.221824"><ele>1079.3333333333333</ele><time>2026-04-09T13:28:18.238Z</time></trkpt><trkpt lat="38.4989905" lon="16.221636"><ele>1077.6666666666667</ele><time>2026-04-09T13:28:19.238Z</time></trkpt><trkpt lat="38.4990848" lon="16.2214584"><ele>1076.0</ele><time>2026-04-09T13:28:20.238Z</time></trkpt><trkpt lat="38.4991952" lon="16.2212709"><ele>1074.75</ele><time>2026-04-09T13:28:21.238Z</time></trkpt><trkpt lat="38.4992687" lon="16.2211008"><ele>1073.5</ele><time>2026-04-09T13:28:22.238Z</time></trkpt><trkpt lat="38.4993269" lon="16.2209428"><ele>1072.25</ele><time>2026-04-09T13:28:23.238Z</time></trkpt><trkpt lat="38.4993697" lon="16.220795"><ele>1071.0</ele><time>2026-04-09T13:28:24.238Z</time></trkpt><trkpt lat="38.4993881" lon="16.2206615"><ele>1070.2</ele><time>2026-04-09T13:28:25.238Z</time></trkpt><trkpt lat="38.4993768" lon="16.2205367"><ele>1069.3999999999999</ele><time>2026-04-09T13:28:26.238Z</time></trkpt><trkpt lat="38.4993349" lon="16.2204301"><ele>1068.6</ele><time>2026-04-09T13:28:27.237Z</time></trkpt><trkpt lat="38.499273" lon="16.220344"><ele>1067.8</ele><time>2026-04-09T13:28:28.238Z</time></trkpt><trkpt lat="38.4991951" lon="16.2202614"><ele>1067.0</ele><time>2026-04-09T13:28:29.238Z</time></trkpt><trkpt lat="38.4990982" lon="16.2201841"><ele>1067.0</ele><time>2026-04-09T13:28:30.238Z</time></trkpt><trkpt lat="38.4989908" lon="16.2201059"><ele>1067.0</ele><time>2026-04-09T13:28:31.238Z</time></trkpt><trkpt lat="38.4988876" lon="16.2200233"><ele>1067.0</ele><time>2026-04-09T13:28:32.238Z</time></trkpt><trkpt lat="38.4987851" lon="16.2199264"><ele>1067.0</ele><time>2026-04-09T13:28:33.238Z</time></trkpt><trkpt lat="38.4986936" lon="16.2198172"><ele>1065.5</ele><time>2026-04-09T13:28:34.238Z</time></trkpt><trkpt lat="38.4986102" lon="16.2196976"><ele>1064.0</ele><time>2026-04-09T13:28:35.238Z</time></trkpt><trkpt lat="38.4985391" lon="16.2195584"><ele>1062.5</ele><time>2026-04-09T13:28:36.238Z</time></trkpt><trkpt lat="38.4984819" lon="16.2193989"><ele>1061.0</ele><time>2026-04-09T13:28:37.238Z</time></trkpt><trkpt lat="38.4984378" lon="16.2192155"><ele>1061.0</ele><time>2026-04-09T13:28:38.238Z</time></trkpt><trkpt lat="38.498395" lon="16.2190317"><ele>1061.0</ele><time>2026-04-09T13:28:39.238Z</time></trkpt><trkpt lat="38.4983492" lon="16.2188398"><ele>1061.0</ele><time>2026-04-09T13:28:40.238Z</time></trkpt><trkpt lat="38.4982997" lon="16.2186489"><ele>1060.6666666666667</ele><time>2026-04-09T13:28:41.239Z</time></trkpt><trkpt lat="38.4982469" lon="16.218457"><ele>1060.3333333333333</ele><time>2026-04-09T13:28:42.239Z</time></trkpt><trkpt lat="38.4981921" lon="16.2182577"><ele>1060.0</ele><time>2026-04-09T13:28:43.239Z</time></trkpt><trkpt lat="38.4981383" lon="16.2180598"><ele>1058.0</ele><time>2026-04-09T13:28:44.238Z</time></trkpt><trkpt lat="38.4980871" lon="16.2178655"><ele>1056.0</ele><time>2026-04-09T13:28:45.239Z</time></trkpt><trkpt lat="38.4980303" lon="16.217662"><ele>1054.0</ele><time>2026-04-09T13:28:46.239Z</time></trkpt><trkpt lat="38.4979564" lon="16.2174307"><ele>1058.0</ele><time>2026-04-09T13:28:47.238Z</time></trkpt><trkpt lat="38.4978988" lon="16.2172141"><ele>1062.0</ele><time>2026-04-09T13:28:48.239Z</time></trkpt><trkpt lat="38.4978665" lon="16.2170177"><ele>1066.0</ele><time>2026-04-09T13:28:49.239Z</time></trkpt><trkpt lat="38.497846" lon="16.2168501"><ele>1066.0</ele><time>2026-04-09T13:28:50.239Z</time></trkpt><trkpt lat="38.4978282" lon="16.2166911"><ele>1066.0</ele><time>2026-04-09T13:28:51.239Z</time></trkpt><trkpt lat="38.4978007" lon="16.216544"><ele>1066.0</ele><time>2026-04-09T13:28:52.239Z</time></trkpt><trkpt lat="38.4977567" lon="16.2164255"><ele>1066.0</ele><time>2026-04-09T13:28:53.239Z</time></trkpt><trkpt lat="38.4977026" lon="16.2163163"><ele>1066.0</ele><time>2026-04-09T13:28:54.239Z</time></trkpt><trkpt lat="38.497665" lon="16.2162131"><ele>1064.8</ele><time>2026-04-09T13:28:55.239Z</time></trkpt><trkpt lat="38.4976269" lon="16.2161087"><ele>1063.6</ele><time>2026-04-09T13:28:56.239Z</time></trkpt><trkpt lat="38.4976035" lon="16.2160033"><ele>1062.4</ele><time>2026-04-09T13:28:57.239Z</time></trkpt><trkpt lat="38.4976043" lon="16.2158737"><ele>1061.2</ele><time>2026-04-09T13:28:58.239Z</time></trkpt><trkpt lat="38.4976332" lon="16.2157511"><ele>1060.0</ele><time>2026-04-09T13:28:59.239Z</time></trkpt><trkpt lat="38.4976698" lon="16.2156141"><ele>1060.0</ele><time>2026-04-09T13:29:00.239Z</time></trkpt><trkpt lat="38.497706" lon="16.2154598"><ele>1060.0</ele><time>2026-04-09T13:29:01.239Z</time></trkpt><trkpt lat="38.4977419" lon="16.2152889"><ele>1060.0</ele><time>2026-04-09T13:29:02.239Z</time></trkpt><trkpt lat="38.4977866" lon="16.215109"><ele>1060.0</ele><time>2026-04-09T13:29:03.239Z</time></trkpt><trkpt lat="38.4978264" lon="16.2149264"><ele>1060.0</ele><time>2026-04-09T13:29:04.239Z</time></trkpt><trkpt lat="38.497855" lon="16.2147538"><ele>1060.0</ele><time>2026-04-09T13:29:05.239Z</time></trkpt><trkpt lat="38.497886" lon="16.2145813"><ele>1060.0</ele><time>2026-04-09T13:29:06.239Z</time></trkpt><trkpt lat="38.4979079" lon="16.2144204"><ele>1060.0</ele><time>2026-04-09T13:29:07.239Z</time></trkpt><trkpt lat="38.4979373" lon="16.2142608"><ele>1057.75</ele><time>2026-04-09T13:29:08.238Z</time></trkpt><trkpt lat="38.4979687" lon="16.2141073"><ele>1055.5</ele><time>2026-04-09T13:29:09.239Z</time></trkpt><trkpt lat="38.4979989" lon="16.2139454"><ele>1053.25</ele><time>2026-04-09T13:29:10.239Z</time></trkpt><trkpt lat="38.498031" lon="16.2137913"><ele>1051.0</ele><time>2026-04-09T13:29:11.239Z</time></trkpt><trkpt lat="38.4980529" lon="16.2136624"><ele>1050.2</ele><time>2026-04-09T13:29:12.239Z</time></trkpt><trkpt lat="38.4980587" lon="16.2135489"><ele>1049.3999999999999</ele><time>2026-04-09T13:29:13.239Z</time></trkpt><trkpt lat="38.4980418" lon="16.213444"><ele>1048.6</ele><time>2026-04-09T13:29:14.239Z</time></trkpt><trkpt lat="38.4980081" lon="16.2133468"><ele>1047.8</ele><time>2026-04-09T13:29:15.239Z</time></trkpt><trkpt lat="38.4979475" lon="16.2132535"><ele>1047.0</ele><time>2026-04-09T13:29:16.239Z</time></trkpt><trkpt lat="38.4978615" lon="16.2131607"><ele>1047.75</ele><time>2026-04-09T13:29:17.238Z</time></trkpt><trkpt lat="38.4977667" lon="16.2130404"><ele>1048.5</ele><time>2026-04-09T13:29:18.239Z</time></trkpt><trkpt lat="38.4976844" lon="16.2128984"><ele>1049.25</ele><time>2026-04-09T13:29:19.239Z</time></trkpt><trkpt lat="38.4976193" lon="16.2127547"><ele>1050.0</ele><time>2026-04-09T13:29:20.239Z</time></trkpt><trkpt lat="38.497567" lon="16.2126168"><ele>1050.0</ele><time>2026-04-09T13:29:21.239Z</time></trkpt><trkpt lat="38.4975179" lon="16.2124738"><ele>1050.0</ele><time>2026-04-09T13:29:22.239Z</time></trkpt><trkpt lat="38.4974647" lon="16.2123257"><ele>1050.0</ele><time>2026-04-09T13:29:23.239Z</time></trkpt><trkpt lat="38.4977567" lon="16.2164255"><ele>1052.0</ele><time>2026-04-09T13:28:53.239Z</time></trkpt><trkpt lat="38.4977026" lon="16.2163163"><ele>1054.0</ele><time>2026-04-09T13:28:54.239Z</time></trkpt><trkpt lat="38.497665" lon="16.2162131"><ele>1056.0</ele><time>2026-04-09T13:28:55.239Z</time></trkpt><trkpt lat="38.4976269" lon="16.2161087"><ele>1058.0</ele><time>2026-04-09T13:28:56.239Z</time></trkpt><trkpt lat="38.4976035" lon="16.2160033"><ele>1060.0</ele><time>2026-04-09T13:28:57.239Z</time></trkpt><trkpt lat="38.4976043" lon="16.2158737"><ele>1060.0</ele><time>2026-04-09T13:28:58.239Z</time></trkpt><trkpt lat="38.4976332" lon="16.2157511"><ele>1060.0</ele><time>2026-04-09T13:28:59.239Z</time></trkpt><trkpt lat="38.4976698" lon="16.2156141"><ele>1060.0</ele><time>2026-04-09T13:29:00.239Z</time></trkpt><trkpt lat="38.497706" lon="16.2154598"><ele>1060.0</ele><time>2026-04-09T13:29:01.239Z</time></trkpt><trkpt lat="38.4977419" lon="16.2152889"><ele>1060.0</ele><time>2026-04-09T13:29:02.239Z</time></trkpt><trkpt lat="38.4977866" lon="16.215109"><ele>1060.0</ele><time>2026-04-09T13:29:03.239Z</time></trkpt><trkpt lat="38.4978264" lon="16.2149264"><ele>1060.0</ele><time>2026-04-09T13:29:04.239Z</time></trkpt><trkpt lat="38.497855" lon="16.2147538"><ele>1060.0</ele><time>2026-04-09T13:29:05.239Z</time></trkpt><trkpt lat="38.497886" lon="16.2145813"><ele>1060.0</ele><time>2026-04-09T13:29:06.239Z</time></trkpt><trkpt lat="38.4979079" lon="16.2144204"><ele>1060.0</ele><time>2026-04-09T13:29:07.239Z</time></trkpt><trkpt lat="38.4979373" lon="16.2142608"><ele>1060.0</ele><time>2026-04-09T13:29:08.238Z</time></trkpt><trkpt lat="38.4979687" lon="16.2141073"><ele>1060.0</ele><time>2026-04-09T13:29:09.239Z</time></trkpt><trkpt lat="38.4979989" lon="16.2139454"><ele>1057.4</ele><time>2026-04-09T13:29:10.239Z</time></trkpt><trkpt lat="38.498031" lon="16.2137913"><ele>1054.8</ele><time>2026-04-09T13:29:11.239Z</time></trkpt><trkpt lat="38.4980529" lon="16.2136624"><ele>1052.2</ele><time>2026-04-09T13:29:12.239Z</time></trkpt><trkpt lat="38.4980587" lon="16.2135489"><ele>1049.6</ele><time>2026-04-09T13:29:13.239Z</time></trkpt><trkpt lat="38.4980418" lon="16.213444"><ele>1047.0</ele><time>2026-04-09T13:29:14.239Z</time></trkpt><trkpt lat="38.4980081" lon="16.2133468"><ele>1047.0</ele><time>2026-04-09T13:29:15.239Z</time></trkpt><trkpt lat="38.4979475" lon="16.2132535"><ele>1047.0</ele><time>2026-04-09T13:29:16.239Z</time></trkpt><trkpt lat="38.4978615" lon="16.2131607"><ele>1047.0</ele><time>2026-04-09T13:29:17.238Z</time></trkpt><trkpt lat="38.4977667" lon="16.2130404"><ele>1047.0</ele><time>2026-04-09T13:29:18.239Z</time></trkpt><trkpt lat="38.4976844" lon="16.2128984"><ele>1047.75</ele><time>2026-04-09T13:29:19.239Z</time></trkpt><trkpt lat="38.4976193" lon="16.2127547"><ele>1048.5</ele><time>2026-04-09T13:29:20.239Z</time></trkpt><trkpt lat="38.497567" lon="16.2126168"><ele>1049.25</ele><time>2026-04-09T13:29:21.239Z</time></trkpt><trkpt lat="38.4975179" lon="16.2124738"><ele>1050.0</ele><time>2026-04-09T13:29:22.239Z</time></trkpt><trkpt lat="38.4974647" lon="16.2123257"><ele>1049.5</ele><time>2026-04-09T13:29:23.239Z</time></trkpt><trkpt lat="38.4974101" lon="16.2121697"><ele>1049.0</ele><time>2026-04-09T13:29:24.239Z</time></trkpt><trkpt lat="38.4973502" lon="16.2120009"><ele>1048.5</ele><time>2026-04-09T13:29:25.239Z</time></trkpt><trkpt lat="38.4972914" lon="16.2118111"><ele>1048.0</ele><time>2026-04-09T13:29:26.239Z</time></trkpt><trkpt lat="38.4972303" lon="16.2116259"><ele>1046.6666666666665</ele><time>2026-04-09T13:29:27.239Z</time></trkpt><trkpt lat="38.4971734" lon="16.2114423"><ele>1045.3333333333333</ele><time>2026-04-09T13:29:28.239Z</time></trkpt><trkpt lat="38.4971216" lon="16.2112557"><ele>1044.0</ele><time>2026-04-09T13:29:29.239Z</time></trkpt><trkpt lat="38.49707" lon="16.2110734"><ele>1044.0</ele><time>2026-04-09T13:29:30.239Z</time></trkpt><trkpt lat="38.49702" lon="16.2108939"><ele>1044.0</ele><time>2026-04-09T13:29:31.239Z</time></trkpt><trkpt lat="38.4969722" lon="16.2107139"><ele>1044.0</ele><time>2026-04-09T13:29:32.239Z</time></trkpt><trkpt lat="38.496931" lon="16.2105406"><ele>1044.0</ele><time>2026-04-09T13:29:33.239Z</time></trkpt><trkpt lat="38.496892" lon="16.2103689"><ele>1044.0</ele><time>2026-04-09T13:29:34.238Z</time></trkpt><trkpt lat="38.4968587" lon="16.2102071"><ele>1044.0</ele><time>2026-04-09T13:29:35.239Z</time></trkpt><trkpt lat="38.4968528" lon="16.210059"><ele>1044.0</ele><time>2026-04-09T13:29:36.238Z</time></trkpt><trkpt lat="38.4968714" lon="16.2099066"><ele>1044.0</ele><time>2026-04-09T13:29:37.239Z</time></trkpt><trkpt lat="38.4969057" lon="16.2097368"><ele>1042.75</ele><time>2026-04-09T13:29:38.239Z</time></trkpt><trkpt lat="38.496943" lon="16.2095598"><ele>1041.5</ele><time>2026-04-09T13:29:39.239Z</time></trkpt><trkpt lat="38.4969696" lon="16.2093791"><ele>1040.25</ele><time>2026-04-09T13:29:40.239Z</time></trkpt><trkpt lat="38.4970018" lon="16.2092032"><ele>1039.0</ele><time>2026-04-09T13:29:41.238Z</time></trkpt><trkpt lat="38.4970326" lon="16.2090448"><ele>1036.8</ele><time>2026-04-09T13:29:42.239Z</time></trkpt><trkpt lat="38.4970748" lon="16.2088944"><ele>1034.6000000000001</ele><time>2026-04-09T13:29:43.239Z</time></trkpt><trkpt lat="38.4971101" lon="16.208747"><ele>1032.4</ele><time>2026-04-09T13:29:44.239Z</time></trkpt><trkpt lat="38.4971181" lon="16.2086196"><ele>1030.2</ele><time>2026-04-09T13:29:45.239Z</time></trkpt><trkpt lat="38.4970956" lon="16.2085231"><ele>1028.0</ele><time>2026-04-09T13:29:46.238Z</time></trkpt><trkpt lat="38.4970452" lon="16.2084487"><ele>1028.0</ele><time>2026-04-09T13:29:47.238Z</time></trkpt><trkpt lat="38.496978" lon="16.2083975"><ele>1028.0</ele><time>2026-04-09T13:29:48.239Z</time></trkpt><trkpt lat="38.4968902" lon="16.2083769"><ele>1028.0</ele><time>2026-04-09T13:29:49.238Z</time></trkpt><trkpt lat="38.4967861" lon="16.2083793"><ele>1028.0</ele><time>2026-04-09T13:29:50.239Z</time></trkpt><trkpt lat="38.496671" lon="16.208398"><ele>1028.0</ele><time>2026-04-09T13:29:51.239Z</time></trkpt><trkpt lat="38.4965511" lon="16.2084287"><ele>1028.0</ele><time>2026-04-09T13:29:52.239Z</time></trkpt><trkpt lat="38.4964314" lon="16.2084662"><ele>1028.0</ele><time>2026-04-09T13:29:53.239Z</time></trkpt><trkpt lat="38.4963288" lon="16.2084912"><ele>1028.0</ele><time>2026-04-09T13:29:54.239Z</time></trkpt><trkpt lat="38.4962388" lon="16.2085103"><ele>1028.0</ele><time>2026-04-09T13:29:55.239Z</time></trkpt><trkpt lat="38.4961735" lon="16.2084962"><ele>1028.0</ele><time>2026-04-09T13:29:56.239Z</time></trkpt><trkpt lat="38.4961144" lon="16.2084458"><ele>1027.4285714285713</ele><time>2026-04-09T13:29:57.239Z</time></trkpt><trkpt lat="38.4960625" lon="16.2083714"><ele>1026.857142857143</ele><time>2026-04-09T13:29:58.239Z</time></trkpt><trkpt lat="38.4960502" lon="16.2082826"><ele>1026.2857142857142</ele><time>2026-04-09T13:29:59.239Z</time></trkpt><trkpt lat="38.496051" lon="16.2081988"><ele>1025.7142857142858</ele><time>2026-04-09T13:30:00.238Z</time></trkpt><trkpt lat="38.4960732" lon="16.2081217"><ele>1025.142857142857</ele><time>2026-04-09T13:30:01.239Z</time></trkpt><trkpt lat="38.4961288" lon="16.2080418"><ele>1024.5714285714284</ele><time>2026-04-09T13:30:02.239Z</time></trkpt><trkpt lat="38.4961737" lon="16.2079585"><ele>1024.0</ele><time>2026-04-09T13:30:03.239Z</time></trkpt><trkpt lat="38.4962133" lon="16.2078734"><ele>1022.9999999999999</ele><time>2026-04-09T13:30:04.239Z</time></trkpt><trkpt lat="38.4962446" lon="16.2077973"><ele>1022.0</ele><time>2026-04-09T13:30:05.239Z</time></trkpt><trkpt lat="38.4962687" lon="16.2076808"><ele>1021.0</ele><time>2026-04-09T13:30:07.239Z</time></trkpt><trkpt lat="38.4962035" lon="16.2076764"><ele>1020.0</ele><time>2026-04-09T13:30:09.239Z</time></trkpt><trkpt lat="38.4961099" lon="16.2077482"><ele>1018.9999999999999</ele><time>2026-04-09T13:30:11.239Z</time></trkpt><trkpt lat="38.4960571" lon="16.2077932"><ele>1018.0</ele><time>2026-04-09T13:30:12.239Z</time></trkpt><trkpt lat="38.4959854" lon="16.2078342"><ele>1017.4</ele><time>2026-04-09T13:30:13.239Z</time></trkpt><trkpt lat="38.4959072" lon="16.2078577"><ele>1016.8</ele><time>2026-04-09T13:30:14.239Z</time></trkpt><trkpt lat="38.4958324" lon="16.2078593"><ele>1016.2</ele><time>2026-04-09T13:30:15.239Z</time></trkpt><trkpt lat="38.4957396" lon="16.2077814"><ele>1015.6</ele><time>2026-04-09T13:30:17.239Z</time></trkpt><trkpt lat="38.4957153" lon="16.2076319"><ele>1015.0</ele><time>2026-04-09T13:30:19.239Z</time></trkpt><trkpt lat="38.4956975" lon="16.2075493"><ele>1014.9999999999999</ele><time>2026-04-09T13:30:20.239Z</time></trkpt><trkpt lat="38.4956392" lon="16.2074257"><ele>1015.0</ele><time>2026-04-09T13:30:22.238Z</time></trkpt><trkpt lat="38.4955812" lon="16.2073926"><ele>1015.0</ele><time>2026-04-09T13:30:23.239Z</time></trkpt><trkpt lat="38.4955113" lon="16.2073803"><ele>1015.0</ele><time>2026-04-09T13:30:24.239Z</time></trkpt><trkpt lat="38.4954309" lon="16.2073967"><ele>1014.9999999999999</ele><time>2026-04-09T13:30:25.239Z</time></trkpt><trkpt lat="38.4953383" lon="16.2074552"><ele>1015.0</ele><time>2026-04-09T13:30:26.239Z</time></trkpt><trkpt lat="38.4952364" lon="16.2075296"><ele>1013.3333333333333</ele><time>2026-04-09T13:30:27.239Z</time></trkpt><trkpt lat="38.4951338" lon="16.2075965"><ele>1011.6666666666666</ele><time>2026-04-09T13:30:28.239Z</time></trkpt><trkpt lat="38.4950474" lon="16.2076406"><ele>1010.0</ele><time>2026-04-09T13:30:29.239Z</time></trkpt><trkpt lat="38.4949728" lon="16.2076562"><ele>1008.3333333333333</ele><time>2026-04-09T13:30:30.239Z</time></trkpt><trkpt lat="38.4948912" lon="16.207655"><ele>1006.6666666666666</ele><time>2026-04-09T13:30:31.239Z</time></trkpt><trkpt lat="38.4948183" lon="16.2076297"><ele>1005.0</ele><time>2026-04-09T13:30:32.239Z</time></trkpt><trkpt lat="38.4947595" lon="16.2075841"><ele>1005.0</ele><time>2026-04-09T13:30:33.239Z</time></trkpt><trkpt lat="38.4947122" lon="16.2075154"><ele>1005.0</ele><time>2026-04-09T13:30:34.239Z</time></trkpt><trkpt lat="38.4946884" lon="16.2074227"><ele>1005.0</ele><time>2026-04-09T13:30:35.239Z</time></trkpt><trkpt lat="38.4946826" lon="16.2073053"><ele>1005.0</ele><time>2026-04-09T13:30:36.238Z</time></trkpt><trkpt lat="38.4946972" lon="16.2071918"><ele>1005.0</ele><time>2026-04-09T13:30:37.239Z</time></trkpt><trkpt lat="38.4947424" lon="16.2070943"><ele>1005.0</ele><time>2026-04-09T13:30:38.238Z</time></trkpt><trkpt lat="38.4948229" lon="16.2070081"><ele>1003.0</ele><time>2026-04-09T13:30:39.239Z</time></trkpt><trkpt lat="38.4949338" lon="16.2069279"><ele>1001.0</ele><time>2026-04-09T13:30:40.239Z</time></trkpt><trkpt lat="38.4950778" lon="16.2068581"><ele>999.0</ele><time>2026-04-09T13:30:41.239Z</time></trkpt><trkpt lat="38.4952219" lon="16.2068042"><ele>997.0</ele><time>2026-04-09T13:30:42.239Z</time></trkpt><trkpt lat="38.4953472" lon="16.2067357"><ele>998.4000000000001</ele><time>2026-04-09T13:30:43.239Z</time></trkpt><trkpt lat="38.4954557" lon="16.2066562"><ele>999.8000000000001</ele><time>2026-04-09T13:30:44.239Z</time></trkpt><trkpt lat="38.4955496" lon="16.2065619"><ele>1001.2</ele><time>2026-04-09T13:30:45.239Z</time></trkpt><trkpt lat="38.4956304" lon="16.2064719"><ele>1002.6</ele><time>2026-04-09T13:30:46.238Z</time></trkpt><trkpt lat="38.4957029" lon="16.2064032"><ele>1004.0</ele><time>2026-04-09T13:30:47.239Z</time></trkpt><trkpt lat="38.495774" lon="16.2063589"><ele>1000.3333333333334</ele><time>2026-04-09T13:30:48.238Z</time></trkpt><trkpt lat="38.4958367" lon="16.2063473"><ele>996.6666666666667</ele><time>2026-04-09T13:30:49.239Z</time></trkpt><trkpt lat="38.4959009" lon="16.206357"><ele>993.0</ele><time>2026-04-09T13:30:50.239Z</time></trkpt><trkpt lat="38.4959711" lon="16.2063841"><ele>989.3333333333333</ele><time>2026-04-09T13:30:51.239Z</time></trkpt><trkpt lat="38.4960587" lon="16.2064256"><ele>985.6666666666666</ele><time>2026-04-09T13:30:52.239Z</time></trkpt><trkpt lat="38.4961612" lon="16.2064608"><ele>982.0</ele><time>2026-04-09T13:30:53.239Z</time></trkpt><trkpt lat="38.4962602" lon="16.206474"><ele>980.6</ele><time>2026-04-09T13:30:54.239Z</time></trkpt><trkpt lat="38.4963698" lon="16.2064683"><ele>979.2</ele><time>2026-04-09T13:30:55.239Z</time></trkpt><trkpt lat="38.4964858" lon="16.2064758"><ele>977.8</ele><time>2026-04-09T13:30:56.239Z</time></trkpt><trkpt lat="38.496587" lon="16.2065066"><ele>976.4</ele><time>2026-04-09T13:30:57.238Z</time></trkpt><trkpt lat="38.4966775" lon="16.206555"><ele>975.0</ele><time>2026-04-09T13:30:58.239Z</time></trkpt><trkpt lat="38.4967796" lon="16.2066139"><ele>979.25</ele><time>2026-04-09T13:30:59.239Z</time></trkpt><trkpt lat="38.4968917" lon="16.2066748"><ele>983.5</ele><time>2026-04-09T13:31:00.239Z</time></trkpt><trkpt lat="38.4970071" lon="16.2067363"><ele>987.75</ele><time>2026-04-09T13:31:01.239Z</time></trkpt><trkpt lat="38.4971121" lon="16.2067926"><ele>992.0</ele><time>2026-04-09T13:31:02.238Z</time></trkpt><trkpt lat="38.4972074" lon="16.2068278"><ele>992.0</ele><time>2026-04-09T13:31:03.239Z</time></trkpt><trkpt lat="38.4973053" lon="16.2068472"><ele>992.0</ele><time>2026-04-09T13:31:04.239Z</time></trkpt><trkpt lat="38.4974065" lon="16.206843"><ele>992.0</ele><time>2026-04-09T13:31:05.239Z</time></trkpt><trkpt lat="38.4975126" lon="16.2067993"><ele>992.0</ele><time>2026-04-09T13:31:06.239Z</time></trkpt><trkpt lat="38.4976053" lon="16.2067144"><ele>992.0</ele><time>2026-04-09T13:31:07.239Z</time></trkpt><trkpt lat="38.497672" lon="16.2066037"><ele>988.8</ele><time>2026-04-09T13:31:08.239Z</time></trkpt><trkpt lat="38.4977143" lon="16.2064772"><ele>985.6</ele><time>2026-04-09T13:31:09.239Z</time></trkpt><trkpt lat="38.4977374" lon="16.2063474"><ele>982.3999999999999</ele><time>2026-04-09T13:31:10.239Z</time></trkpt><trkpt lat="38.4977409" lon="16.2062059"><ele>979.1999999999999</ele><time>2026-04-09T13:31:11.239Z</time></trkpt><trkpt lat="38.4976952" lon="16.206064"><ele>976.0</ele><time>2026-04-09T13:31:12.239Z</time></trkpt><trkpt lat="38.4976556" lon="16.2059352"><ele>976.0</ele><time>2026-04-09T13:31:13.239Z</time></trkpt><trkpt lat="38.4976385" lon="16.205827"><ele>975.9999999999999</ele><time>2026-04-09T13:31:14.239Z</time></trkpt><trkpt lat="38.4976541" lon="16.2057216"><ele>975.9999999999999</ele><time>2026-04-09T13:31:15.239Z</time></trkpt><trkpt lat="38.497702" lon="16.2056237"><ele>976.0</ele><time>2026-04-09T13:31:16.239Z</time></trkpt><trkpt lat="38.4977868" lon="16.2055359"><ele>976.0</ele><time>2026-04-09T13:31:17.239Z</time></trkpt><trkpt lat="38.4978933" lon="16.2054746"><ele>976.8</ele><time>2026-04-09T13:31:18.239Z</time></trkpt><trkpt lat="38.4980259" lon="16.205431"><ele>977.5999999999999</ele><time>2026-04-09T13:31:19.239Z</time></trkpt><trkpt lat="38.4981374" lon="16.2053694"><ele>978.4</ele><time>2026-04-09T13:31:20.239Z</time></trkpt><trkpt lat="38.4982122" lon="16.2053019"><ele>979.2</ele><time>2026-04-09T13:31:21.239Z</time></trkpt><trkpt lat="38.4982443" lon="16.2051991"><ele>980.0</ele><time>2026-04-09T13:31:22.239Z</time></trkpt><trkpt lat="38.4982447" lon="16.2050796"><ele>980.0</ele><time>2026-04-09T13:31:23.239Z</time></trkpt><trkpt lat="38.4982013" lon="16.2049336"><ele>980.0</ele><time>2026-04-09T13:31:24.238Z</time></trkpt><trkpt lat="38.4981213" lon="16.2047604"><ele>980.0</ele><time>2026-04-09T13:31:25.239Z</time></trkpt><trkpt lat="38.4980606" lon="16.2045986"><ele>980.0</ele><time>2026-04-09T13:31:26.239Z</time></trkpt><trkpt lat="38.4980195" lon="16.2044396"><ele>979.0</ele><time>2026-04-09T13:31:27.239Z</time></trkpt><trkpt lat="38.497973" lon="16.2042858"><ele>978.0</ele><time>2026-04-09T13:31:28.239Z</time></trkpt><trkpt lat="38.4979099" lon="16.2041821"><ele>977.0</ele><time>2026-04-09T13:31:29.239Z</time></trkpt><trkpt lat="38.4978288" lon="16.2041165"><ele>976.0</ele><time>2026-04-09T13:31:30.239Z</time></trkpt><trkpt lat="38.4977456" lon="16.2040975"><ele>975.0</ele><time>2026-04-09T13:31:31.238Z</time></trkpt><trkpt lat="38.4976589" lon="16.2041187"><ele>973.1666666666666</ele><time>2026-04-09T13:31:32.239Z</time></trkpt><trkpt lat="38.4975964" lon="16.2041663"><ele>971.3333333333333</ele><time>2026-04-09T13:31:33.239Z</time></trkpt><trkpt lat="38.4975661" lon="16.204242"><ele>969.5</ele><time>2026-04-09T13:31:34.239Z</time></trkpt><trkpt lat="38.49757" lon="16.2043491"><ele>967.6666666666666</ele><time>2026-04-09T13:31:35.239Z</time></trkpt><trkpt lat="38.4976082" lon="16.2044757"><ele>965.8333333333333</ele><time>2026-04-09T13:31:36.239Z</time></trkpt><trkpt lat="38.4976579" lon="16.2046149"><ele>964.0</ele><time>2026-04-09T13:31:37.239Z</time></trkpt><trkpt lat="38.4976969" lon="16.2047544"><ele>964.4999999999999</ele><time>2026-04-09T13:31:38.239Z</time></trkpt><trkpt lat="38.4977192" lon="16.2048847"><ele>965.0</ele><time>2026-04-09T13:31:39.239Z</time></trkpt><trkpt lat="38.497732" lon="16.2049938"><ele>965.5</ele><time>2026-04-09T13:31:40.239Z</time></trkpt><trkpt lat="38.4977317" lon="16.2050758"><ele>966.0</ele><time>2026-04-09T13:31:41.239Z</time></trkpt><trkpt lat="38.4977091" lon="16.2051538"><ele>966.4999999999999</ele><time>2026-04-09T13:31:42.238Z</time></trkpt><trkpt lat="38.4976375" lon="16.2052109"><ele>967.0</ele><time>2026-04-09T13:31:44.239Z</time></trkpt><trkpt lat="38.4975521" lon="16.2051158"><ele>967.0</ele><time>2026-04-09T13:31:46.238Z</time></trkpt><trkpt lat="38.4975255" lon="16.2050301"><ele>967.0</ele><time>2026-04-09T13:31:47.239Z</time></trkpt><trkpt lat="38.4974864" lon="16.2049335"><ele>967.0</ele><time>2026-04-09T13:31:48.239Z</time></trkpt><trkpt lat="38.4974382" lon="16.2048117"><ele>967.0</ele><time>2026-04-09T13:31:49.238Z</time></trkpt><trkpt lat="38.4973819" lon="16.2046759"><ele>967.0</ele><time>2026-04-09T13:31:50.239Z</time></trkpt><trkpt lat="38.4973233" lon="16.2045479"><ele>966.25</ele><time>2026-04-09T13:31:51.239Z</time></trkpt><trkpt lat="38.4972584" lon="16.2044157"><ele>965.5</ele><time>2026-04-09T13:31:52.239Z</time></trkpt><trkpt lat="38.4971797" lon="16.2042417"><ele>964.75</ele><time>2026-04-09T13:31:53.238Z</time></trkpt><trkpt lat="38.497112" lon="16.2040626"><ele>964.0</ele><time>2026-04-09T13:31:54.239Z</time></trkpt><trkpt lat="38.4970544" lon="16.2038859"><ele>962.75</ele><time>2026-04-09T13:31:55.239Z</time></trkpt><trkpt lat="38.4970291" lon="16.2037241"><ele>961.5</ele><time>2026-04-09T13:31:56.239Z</time></trkpt><trkpt lat="38.4970357" lon="16.203562"><ele>960.25</ele><time>2026-04-09T13:31:57.239Z</time></trkpt><trkpt lat="38.497062" lon="16.2034038"><ele>959.0</ele><time>2026-04-09T13:31:58.239Z</time></trkpt><trkpt lat="38.4971093" lon="16.203249"><ele>955.0</ele><time>2026-04-09T13:31:59.239Z</time></trkpt><trkpt lat="38.4971758" lon="16.2031131"><ele>951.0</ele><time>2026-04-09T13:32:00.239Z</time></trkpt><trkpt lat="38.4972607" lon="16.2029939"><ele>947.0</ele><time>2026-04-09T13:32:01.239Z</time></trkpt><trkpt lat="38.4973479" lon="16.202893"><ele>943.0</ele><time>2026-04-09T13:32:02.239Z</time></trkpt><trkpt lat="38.4974407" lon="16.2027979"><ele>943.0</ele><time>2026-04-09T13:32:03.239Z</time></trkpt><trkpt lat="38.4975441" lon="16.2026998"><ele>943.0</ele><time>2026-04-09T13:32:04.239Z</time></trkpt><trkpt lat="38.4976484" lon="16.2026106"><ele>943.0</ele><time>2026-04-09T13:32:05.239Z</time></trkpt><trkpt lat="38.497752" lon="16.2025334"><ele>943.0</ele><time>2026-04-09T13:32:06.239Z</time></trkpt><trkpt lat="38.4978599" lon="16.2024888"><ele>943.0</ele><time>2026-04-09T13:32:07.239Z</time></trkpt><trkpt lat="38.4979714" lon="16.2024767"><ele>943.0</ele><time>2026-04-09T13:32:08.239Z</time></trkpt><trkpt lat="38.4980899" lon="16.2024949"><ele>943.0</ele><time>2026-04-09T13:32:09.239Z</time></trkpt><trkpt lat="38.4982252" lon="16.2025269"><ele>943.0</ele><time>2026-04-09T13:32:10.239Z</time></trkpt><trkpt lat="38.4983573" lon="16.2025485"><ele>943.0</ele><time>2026-04-09T13:32:11.239Z</time></trkpt><trkpt lat="38.4984798" lon="16.2025377"><ele>943.0</ele><time>2026-04-09T13:32:12.239Z</time></trkpt><trkpt lat="38.498595" lon="16.2024998"><ele>943.0</ele><time>2026-04-09T13:32:13.239Z</time></trkpt><trkpt lat="38.4987099" lon="16.2023957"><ele>943.0</ele><time>2026-04-09T13:32:14.239Z</time></trkpt><trkpt lat="38.4988042" lon="16.2022525"><ele>939.25</ele><time>2026-04-09T13:32:15.239Z</time></trkpt><trkpt lat="38.4988899" lon="16.2021367"><ele>935.5</ele><time>2026-04-09T13:32:16.239Z</time></trkpt><trkpt lat="38.4989868" lon="16.2020354"><ele>931.75</ele><time>2026-04-09T13:32:17.239Z</time></trkpt><trkpt lat="38.4990849" lon="16.2019591"><ele>928.0</ele><time>2026-04-09T13:32:18.239Z</time></trkpt><trkpt lat="38.4991618" lon="16.2018794"><ele>927.9999999999999</ele><time>2026-04-09T13:32:19.239Z</time></trkpt><trkpt lat="38.4992039" lon="16.2017838"><ele>928.0</ele><time>2026-04-09T13:32:20.239Z</time></trkpt><trkpt lat="38.4992209" lon="16.2016879"><ele>928.0</ele><time>2026-04-09T13:32:21.239Z</time></trkpt><trkpt lat="38.4992235" lon="16.2015971"><ele>928.0</ele><time>2026-04-09T13:32:22.239Z</time></trkpt><trkpt lat="38.4991851" lon="16.2015078"><ele>927.9999999999999</ele><time>2026-04-09T13:32:23.239Z</time></trkpt><trkpt lat="38.4991343" lon="16.2014025"><ele>928.0</ele><time>2026-04-09T13:32:24.239Z</time></trkpt><trkpt lat="38.4990768" lon="16.2012733"><ele>926.75</ele><time>2026-04-09T13:32:25.239Z</time></trkpt><trkpt lat="38.4990314" lon="16.201129"><ele>925.5</ele><time>2026-04-09T13:32:26.239Z</time></trkpt><trkpt lat="38.4989881" lon="16.2009612"><ele>924.25</ele><time>2026-04-09T13:32:27.238Z</time></trkpt><trkpt lat="38.4989557" lon="16.2007795"><ele>923.0</ele><time>2026-04-09T13:32:28.239Z</time></trkpt><trkpt lat="38.4989219" lon="16.2006007"><ele>921.0</ele><time>2026-04-09T13:32:29.239Z</time></trkpt><trkpt lat="38.4988941" lon="16.2004331"><ele>919.0</ele><time>2026-04-09T13:32:30.239Z</time></trkpt><trkpt lat="38.4988761" lon="16.2002731"><ele>917.0</ele><time>2026-04-09T13:32:31.238Z</time></trkpt><trkpt lat="38.498891" lon="16.2001298"><ele>915.0</ele><time>2026-04-09T13:32:32.239Z</time></trkpt><trkpt lat="38.4989336" lon="16.2000053"><ele>915.0</ele><time>2026-04-09T13:32:33.238Z</time></trkpt><trkpt lat="38.4989951" lon="16.1998891"><ele>915.0</ele><time>2026-04-09T13:32:34.238Z</time></trkpt><trkpt lat="38.4990642" lon="16.1997743"><ele>915.0</ele><time>2026-04-09T13:32:35.239Z</time></trkpt><trkpt lat="38.4991376" lon="16.1996457"><ele>915.0</ele><time>2026-04-09T13:32:36.238Z</time></trkpt><trkpt lat="38.4991871" lon="16.1995052"><ele>912.4</ele><time>2026-04-09T13:32:37.239Z</time></trkpt><trkpt lat="38.4992179" lon="16.199361"><ele>909.8</ele><time>2026-04-09T13:32:38.239Z</time></trkpt><trkpt lat="38.4992449" lon="16.1992151"><ele>907.2</ele><time>2026-04-09T13:32:39.239Z</time></trkpt><trkpt lat="38.4992737" lon="16.1990854"><ele>904.6</ele><time>2026-04-09T13:32:40.239Z</time></trkpt><trkpt lat="38.4992993" lon="16.1989756"><ele>902.0</ele><time>2026-04-09T13:32:41.238Z</time></trkpt><trkpt lat="38.499302" lon="16.1988696"><ele>899.6666666666667</ele><time>2026-04-09T13:32:42.239Z</time></trkpt><trkpt lat="38.4992731" lon="16.1987823"><ele>897.3333333333334</ele><time>2026-04-09T13:32:43.239Z</time></trkpt><trkpt lat="38.4992201" lon="16.1987213"><ele>895.0</ele><time>2026-04-09T13:32:44.239Z</time></trkpt><trkpt lat="38.4991411" lon="16.1987159"><ele>892.6666666666667</ele><time>2026-04-09T13:32:45.239Z</time></trkpt><trkpt lat="38.4990547" lon="16.1987457"><ele>890.3333333333334</ele><time>2026-04-09T13:32:46.238Z</time></trkpt><trkpt lat="38.4989712" lon="16.1987929"><ele>888.0</ele><time>2026-04-09T13:32:47.239Z</time></trkpt><trkpt lat="38.498884" lon="16.1988135"><ele>888.0</ele><time>2026-04-09T13:32:48.239Z</time></trkpt><trkpt lat="38.4987781" lon="16.1987502"><ele>888.0</ele><time>2026-04-09T13:32:50.239Z</time></trkpt><trkpt lat="38.4988191" lon="16.198629"><ele>888.0</ele><time>2026-04-09T13:32:52.239Z</time></trkpt><trkpt lat="38.4988854" lon="16.1985696"><ele>888.0</ele><time>2026-04-09T13:32:53.239Z</time></trkpt><trkpt lat="38.4989729" lon="16.1985159"><ele>888.0</ele><time>2026-04-09T13:32:54.238Z</time></trkpt><trkpt lat="38.4990648" lon="16.1984753"><ele>888.0</ele><time>2026-04-09T13:32:55.239Z</time></trkpt><trkpt lat="38.4991638" lon="16.1984484"><ele>888.0</ele><time>2026-04-09T13:32:56.239Z</time></trkpt><trkpt lat="38.4992663" lon="16.1984421"><ele>888.0</ele><time>2026-04-09T13:32:57.239Z</time></trkpt><trkpt lat="38.4993705" lon="16.1984518"><ele>888.0</ele><time>2026-04-09T13:32:58.239Z</time></trkpt><trkpt lat="38.499473" lon="16.1984872"><ele>888.0</ele><time>2026-04-09T13:32:59.239Z</time></trkpt><trkpt lat="38.4995506" lon="16.198545"><ele>885.4</ele><time>2026-04-09T13:33:00.239Z</time></trkpt><trkpt lat="38.4996248" lon="16.1986206"><ele>882.8</ele><time>2026-04-09T13:33:01.239Z</time></trkpt><trkpt lat="38.4996854" lon="16.1987249"><ele>880.2</ele><time>2026-04-09T13:33:02.239Z</time></trkpt><trkpt lat="38.4997283" lon="16.1988293"><ele>877.6</ele><time>2026-04-09T13:33:03.239Z</time></trkpt><trkpt lat="38.4997871" lon="16.1989268"><ele>875.0</ele><time>2026-04-09T13:33:04.238Z</time></trkpt><trkpt lat="38.4998658" lon="16.1990003"><ele>880.0</ele><time>2026-04-09T13:33:05.239Z</time></trkpt><trkpt lat="38.4999631" lon="16.1990384"><ele>885.0</ele><time>2026-04-09T13:33:06.238Z</time></trkpt><trkpt lat="38.5000807" lon="16.199043"><ele>890.0</ele><time>2026-04-09T13:33:07.238Z</time></trkpt><trkpt lat="38.5002046" lon="16.1990393"><ele>895.0</ele><time>2026-04-09T13:33:08.239Z</time></trkpt><trkpt lat="38.5003221" lon="16.1990589"><ele>891.2</ele><time>2026-04-09T13:33:09.239Z</time></trkpt><trkpt lat="38.5004319" lon="16.1990947"><ele>887.4</ele><time>2026-04-09T13:33:10.239Z</time></trkpt><trkpt lat="38.5005306" lon="16.1991504"><ele>883.5999999999999</ele><time>2026-04-09T13:33:11.239Z</time></trkpt><trkpt lat="38.500627" lon="16.1992247"><ele>879.8</ele><time>2026-04-09T13:33:12.239Z</time></trkpt><trkpt lat="38.500706" lon="16.1993098"><ele>876.0</ele><time>2026-04-09T13:33:13.239Z</time></trkpt><trkpt lat="38.5007806" lon="16.1993732"><ele>876.0</ele><time>2026-04-09T13:33:14.239Z</time></trkpt><trkpt lat="38.5008515" lon="16.1994044"><ele>876.0</ele><time>2026-04-09T13:33:15.239Z</time></trkpt><trkpt lat="38.5009453" lon="16.1993634"><ele>876.0</ele><time>2026-04-09T13:33:17.239Z</time></trkpt><trkpt lat="38.5009465" lon="16.1992821"><ele>876.0</ele><time>2026-04-09T13:33:18.239Z</time></trkpt><trkpt lat="38.5009137" lon="16.1991905"><ele>876.0</ele><time>2026-04-09T13:33:19.239Z</time></trkpt><trkpt lat="38.5008681" lon="16.1990996"><ele>876.0</ele><time>2026-04-09T13:33:20.239Z</time></trkpt><trkpt lat="38.5008189" lon="16.199015"><ele>873.1999999999999</ele><time>2026-04-09T13:33:21.238Z</time></trkpt><trkpt lat="38.5007587" lon="16.1989231"><ele>870.3999999999999</ele><time>2026-04-09T13:33:22.239Z</time></trkpt><trkpt lat="38.5006937" lon="16.1988058"><ele>867.6</ele><time>2026-04-09T13:33:23.239Z</time></trkpt><trkpt lat="38.5006422" lon="16.1986709"><ele>864.8</ele><time>2026-04-09T13:33:24.239Z</time></trkpt><trkpt lat="38.5006133" lon="16.1985301"><ele>862.0</ele><time>2026-04-09T13:33:25.239Z</time></trkpt><trkpt lat="38.5006035" lon="16.1983695"><ele>862.0</ele><time>2026-04-09T13:33:26.239Z</time></trkpt><trkpt lat="38.5006182" lon="16.1982001"><ele>862.0</ele><time>2026-04-09T13:33:27.239Z</time></trkpt><trkpt lat="38.5006429" lon="16.1980045"><ele>862.0</ele><time>2026-04-09T13:33:28.239Z</time></trkpt><trkpt lat="38.5006676" lon="16.1978096"><ele>862.0</ele><time>2026-04-09T13:33:29.238Z</time></trkpt><trkpt lat="38.5006887" lon="16.1976329"><ele>860.0</ele><time>2026-04-09T13:33:30.239Z</time></trkpt><trkpt lat="38.5006881" lon="16.1974725"><ele>858.0</ele><time>2026-04-09T13:33:31.239Z</time></trkpt><trkpt lat="38.5006515" lon="16.1973124"><ele>856.0</ele><time>2026-04-09T13:33:32.239Z</time></trkpt><trkpt lat="38.5005794" lon="16.197164"><ele>854.0</ele><time>2026-04-09T13:33:33.239Z</time></trkpt><trkpt lat="38.5004983" lon="16.1970166"><ele>853.25</ele><time>2026-04-09T13:33:34.239Z</time></trkpt><trkpt lat="38.5004112" lon="16.1968776"><ele>852.5</ele><time>2026-04-09T13:33:35.239Z</time></trkpt><trkpt lat="38.5003339" lon="16.1967255"><ele>851.75</ele><time>2026-04-09T13:33:36.239Z</time></trkpt><trkpt lat="38.500255" lon="16.1965824"><ele>851.0</ele><time>2026-04-09T13:33:37.238Z</time></trkpt><trkpt lat="38.5001797" lon="16.1964375"><ele>849.5</ele><time>2026-04-09T13:33:38.239Z</time></trkpt><trkpt lat="38.5001029" lon="16.1963005"><ele>848.0</ele><time>2026-04-09T13:33:39.239Z</time></trkpt><trkpt lat="38.5000196" lon="16.1961764"><ele>846.5</ele><time>2026-04-09T13:33:40.239Z</time></trkpt><trkpt lat="38.4999284" lon="16.1960468"><ele>845.0</ele><time>2026-04-09T13:33:41.239Z</time></trkpt><trkpt lat="38.499835" lon="16.1959359"><ele>845.0</ele><time>2026-04-09T13:33:42.239Z</time></trkpt><trkpt lat="38.499742" lon="16.1958689"><ele>845.0</ele><time>2026-04-09T13:33:43.239Z</time></trkpt><trkpt lat="38.4996362" lon="16.1958453"><ele>845.0</ele><time>2026-04-09T13:33:44.239Z</time></trkpt><trkpt lat="38.4995187" lon="16.1958538"><ele>845.0</ele><time>2026-04-09T13:33:45.239Z</time></trkpt><trkpt lat="38.4994042" lon="16.1958739"><ele>845.0</ele><time>2026-04-09T13:33:46.239Z</time></trkpt><trkpt lat="38.4992932" lon="16.1958794"><ele>844.0</ele><time>2026-04-09T13:33:47.239Z</time></trkpt><trkpt lat="38.4991878" lon="16.1958634"><ele>843.0</ele><time>2026-04-09T13:33:48.239Z</time></trkpt><trkpt lat="38.4990906" lon="16.1958302"><ele>842.0</ele><time>2026-04-09T13:33:49.239Z</time></trkpt><trkpt lat="38.4990019" lon="16.1957759"><ele>841.0</ele><time>2026-04-09T13:33:50.239Z</time></trkpt><trkpt lat="38.4989237" lon="16.1956812"><ele>840.0</ele><time>2026-04-09T13:33:51.239Z</time></trkpt><trkpt lat="38.4988523" lon="16.195559"><ele>838.75</ele><time>2026-04-09T13:33:52.239Z</time></trkpt><trkpt lat="38.4987749" lon="16.1954399"><ele>837.5</ele><time>2026-04-09T13:33:53.239Z</time></trkpt><trkpt lat="38.4986993" lon="16.1953231"><ele>836.25</ele><time>2026-04-09T13:33:54.239Z</time></trkpt><trkpt lat="38.4986341" lon="16.1952035"><ele>835.0</ele><time>2026-04-09T13:33:55.239Z</time></trkpt><trkpt lat="38.4985931" lon="16.1950708"><ele>835.0</ele><time>2026-04-09T13:33:56.239Z</time></trkpt><trkpt lat="38.4985746" lon="16.1949267"><ele>835.0</ele><time>2026-04-09T13:33:57.239Z</time></trkpt><trkpt lat="38.498571" lon="16.1947689"><ele>835.0</ele><time>2026-04-09T13:33:58.239Z</time></trkpt><trkpt lat="38.4985838" lon="16.1945983"><ele>835.0</ele><time>2026-04-09T13:33:59.239Z</time></trkpt><trkpt lat="38.4986059" lon="16.1944235"><ele>833.5</ele><time>2026-04-09T13:34:00.239Z</time></trkpt><trkpt lat="38.4986338" lon="16.1942471"><ele>832.0</ele><time>2026-04-09T13:34:01.239Z</time></trkpt><trkpt lat="38.4986627" lon="16.194059"><ele>830.5</ele><time>2026-04-09T13:34:02.239Z</time></trkpt><trkpt lat="38.4986926" lon="16.1938753"><ele>829.0</ele><time>2026-04-09T13:34:03.238Z</time></trkpt><trkpt lat="38.4987304" lon="16.1936944"><ele>828.0</ele><time>2026-04-09T13:34:04.239Z</time></trkpt><trkpt lat="38.4987628" lon="16.1935164"><ele>827.0</ele><time>2026-04-09T13:34:05.239Z</time></trkpt><trkpt lat="38.4987977" lon="16.1933417"><ele>826.0</ele><time>2026-04-09T13:34:06.239Z</time></trkpt><trkpt lat="38.4988325" lon="16.1931747"><ele>825.0</ele><time>2026-04-09T13:34:07.239Z</time></trkpt><trkpt lat="38.4988543" lon="16.1930231"><ele>824.0</ele><time>2026-04-09T13:34:08.239Z</time></trkpt><trkpt lat="38.4988446" lon="16.1928867"><ele>823.0</ele><time>2026-04-09T13:34:09.239Z</time></trkpt><trkpt lat="38.4988033" lon="16.1927635"><ele>822.0</ele><time>2026-04-09T13:34:10.239Z</time></trkpt><trkpt lat="38.4987348" lon="16.1926675"><ele>821.0</ele><time>2026-04-09T13:34:11.239Z</time></trkpt><trkpt lat="38.4986309" lon="16.1925997"><ele>820.0</ele><time>2026-04-09T13:34:12.239Z</time></trkpt><trkpt lat="38.4985085" lon="16.1925658"><ele>819.0</ele><time>2026-04-09T13:34:13.239Z</time></trkpt><trkpt lat="38.4983829" lon="16.192566"><ele>818.0</ele><time>2026-04-09T13:34:14.239Z</time></trkpt><trkpt lat="38.49825" lon="16.1925962"><ele>817.0</ele><time>2026-04-09T13:34:15.239Z</time></trkpt><trkpt lat="38.4981242" lon="16.1926415"><ele>816.0</ele><time>2026-04-09T13:34:16.239Z</time></trkpt><trkpt lat="38.4980039" lon="16.1926845"><ele>814.0</ele><time>2026-04-09T13:34:17.239Z</time></trkpt><trkpt lat="38.4978769" lon="16.1927249"><ele>812.0</ele><time>2026-04-09T13:34:18.239Z</time></trkpt><trkpt lat="38.4977432" lon="16.1927669"><ele>810.0</ele><time>2026-04-09T13:34:19.239Z</time></trkpt><trkpt lat="38.4976245" lon="16.1928317"><ele>808.0</ele><time>2026-04-09T13:34:20.239Z</time></trkpt><trkpt lat="38.4975101" lon="16.1929197"><ele>808.0</ele><time>2026-04-09T13:34:21.239Z</time></trkpt><trkpt lat="38.4974043" lon="16.1930185"><ele>808.0</ele><time>2026-04-09T13:34:22.239Z</time></trkpt><trkpt lat="38.4973059" lon="16.1931328"><ele>808.0</ele><time>2026-04-09T13:34:23.239Z</time></trkpt><trkpt lat="38.4972284" lon="16.193237"><ele>808.0</ele><time>2026-04-09T13:34:24.239Z</time></trkpt><trkpt lat="38.4971667" lon="16.1933316"><ele>809.4</ele><time>2026-04-09T13:34:25.239Z</time></trkpt><trkpt lat="38.4971052" lon="16.1934265"><ele>810.8</ele><time>2026-04-09T13:34:26.239Z</time></trkpt><trkpt lat="38.4970437" lon="16.1935173"><ele>812.2</ele><time>2026-04-09T13:34:27.239Z</time></trkpt><trkpt lat="38.4969845" lon="16.1935825"><ele>813.6</ele><time>2026-04-09T13:34:28.239Z</time></trkpt><trkpt lat="38.4969261" lon="16.1936174"><ele>815.0</ele><time>2026-04-09T13:34:29.239Z</time></trkpt><trkpt lat="38.4967973" lon="16.1935937"><ele>815.0000000000001</ele><time>2026-04-09T13:34:31.239Z</time></trkpt><trkpt lat="38.4967292" lon="16.1935414"><ele>815.0</ele><time>2026-04-09T13:34:32.239Z</time></trkpt><trkpt lat="38.4966711" lon="16.1934679"><ele>815.0</ele><time>2026-04-09T13:34:33.239Z</time></trkpt><trkpt lat="38.4966322" lon="16.1933716"><ele>815.0</ele><time>2026-04-09T13:34:34.239Z</time></trkpt><trkpt lat="38.4966142" lon="16.1932728"><ele>815.0000000000001</ele><time>2026-04-09T13:34:35.239Z</time></trkpt><trkpt lat="38.4966255" lon="16.1931618"><ele>815.0</ele><time>2026-04-09T13:34:36.239Z</time></trkpt><trkpt lat="38.4966643" lon="16.1930451"><ele>814.5</ele><time>2026-04-09T13:34:37.239Z</time></trkpt><trkpt lat="38.4967134" lon="16.192947"><ele>814.0</ele><time>2026-04-09T13:34:38.239Z</time></trkpt><trkpt lat="38.4967777" lon="16.1928266"><ele>813.5</ele><time>2026-04-09T13:34:39.239Z</time></trkpt><trkpt lat="38.496846" lon="16.1927031"><ele>813.0</ele><time>2026-04-09T13:34:40.239Z</time></trkpt><trkpt lat="38.4969158" lon="16.1925639"><ele>813.0</ele><time>2026-04-09T13:34:41.239Z</time></trkpt><trkpt lat="38.4969785" lon="16.1924171"><ele>813.0</ele><time>2026-04-09T13:34:42.239Z</time></trkpt><trkpt lat="38.4970477" lon="16.1922683"><ele>813.0</ele><time>2026-04-09T13:34:43.239Z</time></trkpt><trkpt lat="38.497122" lon="16.1921208"><ele>813.0</ele><time>2026-04-09T13:34:44.239Z</time></trkpt><trkpt lat="38.497183" lon="16.1919752"><ele>811.0</ele><time>2026-04-09T13:34:45.239Z</time></trkpt><trkpt lat="38.4972273" lon="16.1918348"><ele>809.0</ele><time>2026-04-09T13:34:46.239Z</time></trkpt><trkpt lat="38.4972528" lon="16.1916822"><ele>807.0</ele><time>2026-04-09T13:34:47.239Z</time></trkpt><trkpt lat="38.4972603" lon="16.1915097"><ele>805.0</ele><time>2026-04-09T13:34:48.239Z</time></trkpt><trkpt lat="38.4972481" lon="16.1913291"><ele>805.0</ele><time>2026-04-09T13:34:49.239Z</time></trkpt><trkpt lat="38.4972254" lon="16.1911364"><ele>805.0</ele><time>2026-04-09T13:34:50.239Z</time></trkpt><trkpt lat="38.4971979" lon="16.1909422"><ele>805.0</ele><time>2026-04-09T13:34:51.239Z</time></trkpt><trkpt lat="38.4971763" lon="16.190756"><ele>805.5</ele><time>2026-04-09T13:34:52.239Z</time></trkpt><trkpt lat="38.497159" lon="16.1905687"><ele>806.0</ele><time>2026-04-09T13:34:53.239Z</time></trkpt><trkpt lat="38.4971307" lon="16.1903902"><ele>806.5</ele><time>2026-04-09T13:34:54.238Z</time></trkpt><trkpt lat="38.4971052" lon="16.1902108"><ele>807.0</ele><time>2026-04-09T13:34:55.238Z</time></trkpt><trkpt lat="38.4970685" lon="16.1900349"><ele>807.6666666666667</ele><time>2026-04-09T13:34:56.239Z</time></trkpt><trkpt lat="38.4970235" lon="16.189849"><ele>808.3333333333334</ele><time>2026-04-09T13:34:57.239Z</time></trkpt><trkpt lat="38.496977" lon="16.1896573"><ele>809.0</ele><time>2026-04-09T13:34:58.239Z</time></trkpt><trkpt lat="38.4969215" lon="16.189467"><ele>807.6666666666667</ele><time>2026-04-09T13:34:59.239Z</time></trkpt><trkpt lat="38.4968632" lon="16.1892627"><ele>806.3333333333333</ele><time>2026-04-09T13:35:00.239Z</time></trkpt><trkpt lat="38.4968027" lon="16.1890516"><ele>805.0</ele><time>2026-04-09T13:35:01.239Z</time></trkpt><trkpt lat="38.496743" lon="16.1888269"><ele>804.0</ele><time>2026-04-09T13:35:02.239Z</time></trkpt><trkpt lat="38.496677" lon="16.1886045"><ele>803.0</ele><time>2026-04-09T13:35:03.239Z</time></trkpt><trkpt lat="38.4966133" lon="16.1883816"><ele>802.0</ele><time>2026-04-09T13:35:04.239Z</time></trkpt><trkpt lat="38.496544" lon="16.188156"><ele>800.6666666666666</ele><time>2026-04-09T13:35:05.239Z</time></trkpt><trkpt lat="38.4964857" lon="16.1879347"><ele>799.3333333333333</ele><time>2026-04-09T13:35:06.239Z</time></trkpt><trkpt lat="38.4964159" lon="16.1876942"><ele>798.0</ele><time>2026-04-09T13:35:07.239Z</time></trkpt><trkpt lat="38.4963436" lon="16.1874458"><ele>797.6666666666667</ele><time>2026-04-09T13:35:08.239Z</time></trkpt><trkpt lat="38.4962715" lon="16.1872004"><ele>797.3333333333334</ele><time>2026-04-09T13:35:09.239Z</time></trkpt><trkpt lat="38.4961985" lon="16.1869573"><ele>797.0</ele><time>2026-04-09T13:35:10.239Z</time></trkpt><trkpt lat="38.4961264" lon="16.1867174"><ele>796.3333333333334</ele><time>2026-04-09T13:35:11.239Z</time></trkpt><trkpt lat="38.4960519" lon="16.1864747"><ele>795.6666666666667</ele><time>2026-04-09T13:35:12.239Z</time></trkpt><trkpt lat="38.4959788" lon="16.1862241"><ele>795.0</ele><time>2026-04-09T13:35:13.239Z</time></trkpt><trkpt lat="38.4959091" lon="16.1859723"><ele>795.0</ele><time>2026-04-09T13:35:14.239Z</time></trkpt><trkpt lat="38.4958335" lon="16.1857234"><ele>795.0</ele><time>2026-04-09T13:35:15.239Z</time></trkpt><trkpt lat="38.4957578" lon="16.1854751"><ele>795.0</ele><time>2026-04-09T13:35:16.239Z</time></trkpt><trkpt lat="38.4956834" lon="16.1852298"><ele>794.6666666666667</ele><time>2026-04-09T13:35:17.239Z</time></trkpt><trkpt lat="38.4956094" lon="16.1849864"><ele>794.3333333333334</ele><time>2026-04-09T13:35:18.239Z</time></trkpt><trkpt lat="38.4955345" lon="16.1847445"><ele>794.0</ele><time>2026-04-09T13:35:19.239Z</time></trkpt><trkpt lat="38.4954644" lon="16.1845015"><ele>794.3333333333334</ele><time>2026-04-09T13:35:20.239Z</time></trkpt><trkpt lat="38.4953964" lon="16.184258"><ele>794.6666666666667</ele><time>2026-04-09T13:35:21.239Z</time></trkpt><trkpt lat="38.4953267" lon="16.184009"><ele>795.0</ele><time>2026-04-09T13:35:22.239Z</time></trkpt><trkpt lat="38.4952604" lon="16.1837608"><ele>794.6666666666667</ele><time>2026-04-09T13:35:23.238Z</time></trkpt><trkpt lat="38.4951826" lon="16.183521"><ele>794.3333333333334</ele><time>2026-04-09T13:35:24.239Z</time></trkpt><trkpt lat="38.4951073" lon="16.1832872"><ele>794.0</ele><time>2026-04-09T13:35:25.239Z</time></trkpt><trkpt lat="38.4950375" lon="16.1830534"><ele>794.0</ele><time>2026-04-09T13:35:26.239Z</time></trkpt><trkpt lat="38.494975" lon="16.182824"><ele>794.0</ele><time>2026-04-09T13:35:27.239Z</time></trkpt><trkpt lat="38.4949125" lon="16.1826061"><ele>794.0</ele><time>2026-04-09T13:35:28.239Z</time></trkpt><trkpt lat="38.494854" lon="16.1824003"><ele>794.0</ele><time>2026-04-09T13:35:29.239Z</time></trkpt><trkpt lat="38.4947923" lon="16.182202"><ele>794.0</ele><time>2026-04-09T13:35:30.239Z</time></trkpt><trkpt lat="38.494738" lon="16.182015"><ele>794.0</ele><time>2026-04-09T13:35:31.239Z</time></trkpt><trkpt lat="38.4946913" lon="16.1818247"><ele>794.0</ele><time>2026-04-09T13:35:32.239Z</time></trkpt><trkpt lat="38.4946422" lon="16.1816303"><ele>794.0</ele><time>2026-04-09T13:35:33.239Z</time></trkpt><trkpt lat="38.494591" lon="16.1814396"><ele>794.0</ele><time>2026-04-09T13:35:34.239Z</time></trkpt><trkpt lat="38.4945388" lon="16.181255"><ele>793.0</ele><time>2026-04-09T13:35:35.239Z</time></trkpt><trkpt lat="38.4944891" lon="16.1810846"><ele>792.0</ele><time>2026-04-09T13:35:36.239Z</time></trkpt><trkpt lat="38.494446" lon="16.1809228"><ele>791.0</ele><time>2026-04-09T13:35:37.239Z</time></trkpt><trkpt lat="38.4944065" lon="16.1807704"><ele>790.0</ele><time>2026-04-09T13:35:38.239Z</time></trkpt><trkpt lat="38.4943668" lon="16.1806167"><ele>789.25</ele><time>2026-04-09T13:35:39.239Z</time></trkpt><trkpt lat="38.4943255" lon="16.1804551"><ele>788.5</ele><time>2026-04-09T13:35:40.238Z</time></trkpt><trkpt lat="38.494289" lon="16.1802843"><ele>787.75</ele><time>2026-04-09T13:35:41.238Z</time></trkpt><trkpt lat="38.4942546" lon="16.1801029"><ele>787.0</ele><time>2026-04-09T13:35:42.239Z</time></trkpt><trkpt lat="38.4942188" lon="16.1799142"><ele>786.0</ele><time>2026-04-09T13:35:43.239Z</time></trkpt><trkpt lat="38.4941862" lon="16.1797115"><ele>785.0</ele><time>2026-04-09T13:35:44.239Z</time></trkpt><trkpt lat="38.4941484" lon="16.1794996"><ele>784.0</ele><time>2026-04-09T13:35:45.239Z</time></trkpt><trkpt lat="38.4941085" lon="16.1792808"><ele>784.0</ele><time>2026-04-09T13:35:46.238Z</time></trkpt><trkpt lat="38.4940649" lon="16.1790577"><ele>784.0</ele><time>2026-04-09T13:35:47.239Z</time></trkpt><trkpt lat="38.4940189" lon="16.1788218"><ele>784.0</ele><time>2026-04-09T13:35:48.239Z</time></trkpt><trkpt lat="38.493975" lon="16.1785786"><ele>783.3333333333333</ele><time>2026-04-09T13:35:49.239Z</time></trkpt><trkpt lat="38.4939328" lon="16.1783286"><ele>782.6666666666667</ele><time>2026-04-09T13:35:50.238Z</time></trkpt><trkpt lat="38.4938901" lon="16.1780706"><ele>782.0</ele><time>2026-04-09T13:35:51.239Z</time></trkpt><trkpt lat="38.4938551" lon="16.1777987"><ele>780.3333333333334</ele><time>2026-04-09T13:35:52.239Z</time></trkpt><trkpt lat="38.4938116" lon="16.1775334"><ele>778.6666666666667</ele><time>2026-04-09T13:35:53.238Z</time></trkpt><trkpt lat="38.4937633" lon="16.1772696"><ele>777.0</ele><time>2026-04-09T13:35:54.239Z</time></trkpt><trkpt lat="38.4937192" lon="16.1770003"><ele>774.6666666666667</ele><time>2026-04-09T13:35:55.238Z</time></trkpt><trkpt lat="38.4936743" lon="16.1767318"><ele>772.3333333333334</ele><time>2026-04-09T13:35:56.239Z</time></trkpt><trkpt lat="38.493625" lon="16.1764516"><ele>770.0</ele><time>2026-04-09T13:35:57.239Z</time></trkpt><trkpt lat="38.4935751" lon="16.1761726"><ele>769.0</ele><time>2026-04-09T13:35:58.239Z</time></trkpt><trkpt lat="38.4935236" lon="16.1758979"><ele>768.0</ele><time>2026-04-09T13:35:59.238Z</time></trkpt><trkpt lat="38.4934761" lon="16.1756212"><ele>767.0</ele><time>2026-04-09T13:36:00.239Z</time></trkpt><trkpt lat="38.4934237" lon="16.1753417"><ele>766.6666666666666</ele><time>2026-04-09T13:36:01.238Z</time></trkpt><trkpt lat="38.4933733" lon="16.1750673"><ele>766.3333333333334</ele><time>2026-04-09T13:36:02.239Z</time></trkpt><trkpt lat="38.4933303" lon="16.1747872"><ele>766.0</ele><time>2026-04-09T13:36:03.239Z</time></trkpt><trkpt lat="38.4932842" lon="16.1745028"><ele>765.0</ele><time>2026-04-09T13:36:04.239Z</time></trkpt><trkpt lat="38.4932348" lon="16.174219"><ele>764.0</ele><time>2026-04-09T13:36:05.238Z</time></trkpt><trkpt lat="38.4931806" lon="16.1739396"><ele>762.0</ele><time>2026-04-09T13:36:06.239Z</time></trkpt><trkpt lat="38.4931307" lon="16.1736538"><ele>760.0</ele><time>2026-04-09T13:36:07.239Z</time></trkpt><trkpt lat="38.4930856" lon="16.1733686"><ele>759.0</ele><time>2026-04-09T13:36:08.239Z</time></trkpt><trkpt lat="38.4930411" lon="16.1730847"><ele>758.0</ele><time>2026-04-09T13:36:09.239Z</time></trkpt><trkpt lat="38.493001" lon="16.1727967"><ele>758.0</ele><time>2026-04-09T13:36:10.238Z</time></trkpt><trkpt lat="38.4929471" lon="16.1725116"><ele>758.0</ele><time>2026-04-09T13:36:11.239Z</time></trkpt><trkpt lat="38.4928875" lon="16.172231"><ele>754.5</ele><time>2026-04-09T13:36:12.239Z</time></trkpt><trkpt lat="38.4928102" lon="16.1719529"><ele>751.0</ele><time>2026-04-09T13:36:13.238Z</time></trkpt><trkpt lat="38.4927159" lon="16.1716875"><ele>751.5</ele><time>2026-04-09T13:36:14.239Z</time></trkpt><trkpt lat="38.4926028" lon="16.1714356"><ele>752.0</ele><time>2026-04-09T13:36:15.239Z</time></trkpt><trkpt lat="38.492462" lon="16.1712024"><ele>752.0</ele><time>2026-04-09T13:36:16.239Z</time></trkpt><trkpt lat="38.4923082" lon="16.1709886"><ele>752.0</ele><time>2026-04-09T13:36:17.239Z</time></trkpt><trkpt lat="38.4921513" lon="16.1707893"><ele>752.0</ele><time>2026-04-09T13:36:18.238Z</time></trkpt><trkpt lat="38.4919819" lon="16.1705978"><ele>750.0</ele><time>2026-04-09T13:36:19.238Z</time></trkpt><trkpt lat="38.4918093" lon="16.1704093"><ele>748.0</ele><time>2026-04-09T13:36:20.239Z</time></trkpt><trkpt lat="38.4916445" lon="16.1702194"><ele>746.0</ele><time>2026-04-09T13:36:21.239Z</time></trkpt><trkpt lat="38.4914875" lon="16.1700348"><ele>746.0</ele><time>2026-04-09T13:36:22.239Z</time></trkpt><trkpt lat="38.4913378" lon="16.1698627"><ele>746.0</ele><time>2026-04-09T13:36:23.239Z</time></trkpt><trkpt lat="38.4912093" lon="16.169707"><ele>746.0</ele><time>2026-04-09T13:36:24.239Z</time></trkpt><trkpt lat="38.4910948" lon="16.1695511"><ele>744.0</ele><time>2026-04-09T13:36:25.239Z</time></trkpt><trkpt lat="38.491007" lon="16.1693868"><ele>742.0</ele><time>2026-04-09T13:36:26.238Z</time></trkpt><trkpt lat="38.4909326" lon="16.1692055"><ele>740.0</ele><time>2026-04-09T13:36:27.239Z</time></trkpt><trkpt lat="38.4908698" lon="16.1690108"><ele>739.3333333333333</ele><time>2026-04-09T13:36:28.239Z</time></trkpt><trkpt lat="38.4908095" lon="16.168816"><ele>738.6666666666666</ele><time>2026-04-09T13:36:29.239Z</time></trkpt><trkpt lat="38.4907543" lon="16.1686228"><ele>738.0</ele><time>2026-04-09T13:36:30.239Z</time></trkpt><trkpt lat="38.4906966" lon="16.1684409"><ele>738.0</ele><time>2026-04-09T13:36:31.239Z</time></trkpt><trkpt lat="38.4906463" lon="16.1682623"><ele>738.0</ele><time>2026-04-09T13:36:32.239Z</time></trkpt><trkpt lat="38.4905963" lon="16.1680996"><ele>738.0</ele><time>2026-04-09T13:36:33.239Z</time></trkpt><trkpt lat="38.4905585" lon="16.1679283"><ele>738.0</ele><time>2026-04-09T13:36:34.239Z</time></trkpt><trkpt lat="38.4905434" lon="16.1677599"><ele>737.5</ele><time>2026-04-09T13:36:35.239Z</time></trkpt><trkpt lat="38.4905319" lon="16.1675922"><ele>737.0</ele><time>2026-04-09T13:36:36.239Z</time></trkpt><trkpt lat="38.4905348" lon="16.1674271"><ele>736.5</ele><time>2026-04-09T13:36:37.239Z</time></trkpt><trkpt lat="38.4905452" lon="16.167247"><ele>736.0</ele><time>2026-04-09T13:36:38.238Z</time></trkpt><trkpt lat="38.4905672" lon="16.1670614"><ele>735.0</ele><time>2026-04-09T13:36:39.239Z</time></trkpt><trkpt lat="38.4905795" lon="16.1668761"><ele>734.0</ele><time>2026-04-09T13:36:40.239Z</time></trkpt><trkpt lat="38.4905927" lon="16.1666879"><ele>733.0</ele><time>2026-04-09T13:36:41.239Z</time></trkpt><trkpt lat="38.4906032" lon="16.1665002"><ele>732.0</ele><time>2026-04-09T13:36:42.239Z</time></trkpt><trkpt lat="38.4906129" lon="16.1663129"><ele>730.6666666666666</ele><time>2026-04-09T13:36:43.239Z</time></trkpt><trkpt lat="38.4906308" lon="16.1661182"><ele>729.3333333333333</ele><time>2026-04-09T13:36:44.239Z</time></trkpt><trkpt lat="38.4906365" lon="16.1659216"><ele>728.0</ele><time>2026-04-09T13:36:45.239Z</time></trkpt><trkpt lat="38.4906553" lon="16.1657129"><ele>727.0</ele><time>2026-04-09T13:36:46.239Z</time></trkpt><trkpt lat="38.4906713" lon="16.165503"><ele>726.0</ele><time>2026-04-09T13:36:47.239Z</time></trkpt><trkpt lat="38.4906808" lon="16.1652911"><ele>725.0</ele><time>2026-04-09T13:36:48.239Z</time></trkpt><trkpt lat="38.4906904" lon="16.1650718"><ele>723.6666666666666</ele><time>2026-04-09T13:36:49.239Z</time></trkpt><trkpt lat="38.4907106" lon="16.1648542"><ele>722.3333333333334</ele><time>2026-04-09T13:36:50.239Z</time></trkpt><trkpt lat="38.4907321" lon="16.1646313"><ele>721.0</ele><time>2026-04-09T13:36:51.239Z</time></trkpt><trkpt lat="38.49075" lon="16.1644107"><ele>721.0</ele><time>2026-04-09T13:36:52.239Z</time></trkpt><trkpt lat="38.4907706" lon="16.1641902"><ele>721.0</ele><time>2026-04-09T13:36:53.239Z</time></trkpt><trkpt lat="38.4907908" lon="16.1639769"><ele>721.0</ele><time>2026-04-09T13:36:54.239Z</time></trkpt><trkpt lat="38.490815" lon="16.1637565"><ele>719.6666666666667</ele><time>2026-04-09T13:36:55.239Z</time></trkpt><trkpt lat="38.4908365" lon="16.1635366"><ele>718.3333333333334</ele><time>2026-04-09T13:36:56.239Z</time></trkpt><trkpt lat="38.490832" lon="16.1633211"><ele>717.0</ele><time>2026-04-09T13:36:57.238Z</time></trkpt><trkpt lat="38.490834" lon="16.1631094"><ele>716.0</ele><time>2026-04-09T13:36:58.239Z</time></trkpt><trkpt lat="38.490826" lon="16.1628904"><ele>715.0</ele><time>2026-04-09T13:36:59.239Z</time></trkpt><trkpt lat="38.4908079" lon="16.1626678"><ele>714.0</ele><time>2026-04-09T13:37:00.239Z</time></trkpt><trkpt lat="38.4907826" lon="16.1624489"><ele>712.6666666666666</ele><time>2026-04-09T13:37:01.239Z</time></trkpt><trkpt lat="38.4907537" lon="16.1622346"><ele>711.3333333333333</ele><time>2026-04-09T13:37:02.239Z</time></trkpt><trkpt lat="38.4907258" lon="16.1620211"><ele>710.0</ele><time>2026-04-09T13:37:03.239Z</time></trkpt><trkpt lat="38.4907003" lon="16.1618003"><ele>710.0</ele><time>2026-04-09T13:37:04.239Z</time></trkpt><trkpt lat="38.4906822" lon="16.1615786"><ele>710.0</ele><time>2026-04-09T13:37:05.239Z</time></trkpt><trkpt lat="38.4906657" lon="16.1613477"><ele>710.0</ele><time>2026-04-09T13:37:06.239Z</time></trkpt><trkpt lat="38.4906429" lon="16.1611212"><ele>708.3333333333333</ele><time>2026-04-09T13:37:07.239Z</time></trkpt><trkpt lat="38.4906121" lon="16.1608884"><ele>706.6666666666666</ele><time>2026-04-09T13:37:08.239Z</time></trkpt><trkpt lat="38.4905748" lon="16.1606544"><ele>705.0</ele><time>2026-04-09T13:37:09.239Z</time></trkpt><trkpt lat="38.4905477" lon="16.1604017"><ele>703.6666666666666</ele><time>2026-04-09T13:37:10.239Z</time></trkpt><trkpt lat="38.4905158" lon="16.1601471"><ele>702.3333333333333</ele><time>2026-04-09T13:37:11.239Z</time></trkpt><trkpt lat="38.4904868" lon="16.1598854"><ele>701.0</ele><time>2026-04-09T13:37:12.239Z</time></trkpt><trkpt lat="38.4904568" lon="16.159606"><ele>699.3333333333333</ele><time>2026-04-09T13:37:13.239Z</time></trkpt><trkpt lat="38.4904275" lon="16.1593352"><ele>697.6666666666666</ele><time>2026-04-09T13:37:14.239Z</time></trkpt><trkpt lat="38.490401" lon="16.1590602"><ele>696.0</ele><time>2026-04-09T13:37:15.238Z</time></trkpt><trkpt lat="38.4903743" lon="16.158786"><ele>694.6666666666666</ele><time>2026-04-09T13:37:16.239Z</time></trkpt><trkpt lat="38.4903476" lon="16.1585097"><ele>693.3333333333333</ele><time>2026-04-09T13:37:17.239Z</time></trkpt><trkpt lat="38.490321" lon="16.1582336"><ele>692.0</ele><time>2026-04-09T13:37:18.239Z</time></trkpt><trkpt lat="38.4902887" lon="16.1579556"><ele>691.0</ele><time>2026-04-09T13:37:19.239Z</time></trkpt><trkpt lat="38.4902541" lon="16.15769"><ele>690.0</ele><time>2026-04-09T13:37:20.238Z</time></trkpt><trkpt lat="38.4902347" lon="16.1574138"><ele>689.0</ele><time>2026-04-09T13:37:21.239Z</time></trkpt><trkpt lat="38.4902064" lon="16.1571418"><ele>688.0</ele><time>2026-04-09T13:37:22.239Z</time></trkpt><trkpt lat="38.4901789" lon="16.1568731"><ele>687.0</ele><time>2026-04-09T13:37:23.239Z</time></trkpt><trkpt lat="38.4901509" lon="16.1566143"><ele>686.0</ele><time>2026-04-09T13:37:24.239Z</time></trkpt><trkpt lat="38.4901204" lon="16.1563622"><ele>685.6666666666666</ele><time>2026-04-09T13:37:25.239Z</time></trkpt><trkpt lat="38.490087" lon="16.1561124"><ele>685.3333333333334</ele><time>2026-04-09T13:37:26.239Z</time></trkpt><trkpt lat="38.4900598" lon="16.1558596"><ele>685.0</ele><time>2026-04-09T13:37:27.239Z</time></trkpt><trkpt lat="38.4900345" lon="16.1556019"><ele>684.3333333333334</ele><time>2026-04-09T13:37:28.239Z</time></trkpt><trkpt lat="38.4900066" lon="16.155345"><ele>683.6666666666666</ele><time>2026-04-09T13:37:29.239Z</time></trkpt><trkpt lat="38.4899769" lon="16.1550863"><ele>683.0</ele><time>2026-04-09T13:37:30.239Z</time></trkpt><trkpt lat="38.4899469" lon="16.1548236"><ele>681.3333333333333</ele><time>2026-04-09T13:37:31.239Z</time></trkpt><trkpt lat="38.4899211" lon="16.1545601"><ele>679.6666666666666</ele><time>2026-04-09T13:37:32.239Z</time></trkpt><trkpt lat="38.4898917" lon="16.1542935"><ele>678.0</ele><time>2026-04-09T13:37:33.239Z</time></trkpt><trkpt lat="38.4898562" lon="16.1540295"><ele>678.0</ele><time>2026-04-09T13:37:34.239Z</time></trkpt><trkpt lat="38.4898211" lon="16.1537618"><ele>678.0</ele><time>2026-04-09T13:37:35.239Z</time></trkpt><trkpt lat="38.4897888" lon="16.1534946"><ele>678.0</ele><time>2026-04-09T13:37:36.239Z</time></trkpt><trkpt lat="38.4897571" lon="16.1532233"><ele>677.6666666666666</ele><time>2026-04-09T13:37:37.239Z</time></trkpt><trkpt lat="38.4897317" lon="16.1529457"><ele>677.3333333333333</ele><time>2026-04-09T13:37:38.239Z</time></trkpt><trkpt lat="38.489703" lon="16.1526673"><ele>677.0</ele><time>2026-04-09T13:37:39.239Z</time></trkpt><trkpt lat="38.4896802" lon="16.1523941"><ele>676.3333333333333</ele><time>2026-04-09T13:37:40.238Z</time></trkpt><trkpt lat="38.4896499" lon="16.1521164"><ele>675.6666666666666</ele><time>2026-04-09T13:37:41.239Z</time></trkpt><trkpt lat="38.4896199" lon="16.1518311"><ele>675.0</ele><time>2026-04-09T13:37:42.239Z</time></trkpt><trkpt lat="38.4895856" lon="16.1515502"><ele>674.3333333333334</ele><time>2026-04-09T13:37:43.239Z</time></trkpt><trkpt lat="38.4895536" lon="16.1512772"><ele>673.6666666666667</ele><time>2026-04-09T13:37:44.239Z</time></trkpt><trkpt lat="38.4895256" lon="16.1510106"><ele>673.0</ele><time>2026-04-09T13:37:45.239Z</time></trkpt><trkpt lat="38.4895046" lon="16.1507559"><ele>673.3333333333334</ele><time>2026-04-09T13:37:46.239Z</time></trkpt><trkpt lat="38.4894754" lon="16.1505183"><ele>673.6666666666666</ele><time>2026-04-09T13:37:47.239Z</time></trkpt><trkpt lat="38.4894443" lon="16.1502965"><ele>674.0</ele><time>2026-04-09T13:37:48.239Z</time></trkpt><trkpt lat="38.4893964" lon="16.1500746"><ele>673.0</ele><time>2026-04-09T13:37:49.239Z</time></trkpt><trkpt lat="38.4893446" lon="16.1498471"><ele>672.0</ele><time>2026-04-09T13:37:50.239Z</time></trkpt><trkpt lat="38.489297" lon="16.1496255"><ele>671.0</ele><time>2026-04-09T13:37:51.239Z</time></trkpt><trkpt lat="38.4892462" lon="16.1494335"><ele>671.0</ele><time>2026-04-09T13:37:52.239Z</time></trkpt><trkpt lat="38.4891958" lon="16.1492626"><ele>671.0</ele><time>2026-04-09T13:37:53.239Z</time></trkpt><trkpt lat="38.4891518" lon="16.1491082"><ele>671.0</ele><time>2026-04-09T13:37:54.239Z</time></trkpt><trkpt lat="38.4891139" lon="16.1489467"><ele>671.0</ele><time>2026-04-09T13:37:55.239Z</time></trkpt><trkpt lat="38.4890824" lon="16.1487836"><ele>670.0</ele><time>2026-04-09T13:37:56.238Z</time></trkpt><trkpt lat="38.4890712" lon="16.1485933"><ele>669.0</ele><time>2026-04-09T13:37:57.239Z</time></trkpt><trkpt lat="38.4890681" lon="16.1483889"><ele>668.0</ele><time>2026-04-09T13:37:58.239Z</time></trkpt><trkpt lat="38.4890702" lon="16.1481719"><ele>667.0</ele><time>2026-04-09T13:37:59.239Z</time></trkpt><trkpt lat="38.4890925" lon="16.147949"><ele>666.0</ele><time>2026-04-09T13:38:00.239Z</time></trkpt><trkpt lat="38.4891242" lon="16.1477241"><ele>665.0</ele><time>2026-04-09T13:38:01.239Z</time></trkpt><trkpt lat="38.4891638" lon="16.1475035"><ele>664.6666666666666</ele><time>2026-04-09T13:38:02.239Z</time></trkpt><trkpt lat="38.4891999" lon="16.1472916"><ele>664.3333333333334</ele><time>2026-04-09T13:38:03.239Z</time></trkpt><trkpt lat="38.4892345" lon="16.1470856"><ele>664.0</ele><time>2026-04-09T13:38:04.239Z</time></trkpt><trkpt lat="38.4892667" lon="16.1468792"><ele>664.0</ele><time>2026-04-09T13:38:05.239Z</time></trkpt><trkpt lat="38.4892965" lon="16.1466731"><ele>664.0</ele><time>2026-04-09T13:38:06.239Z</time></trkpt><trkpt lat="38.4893222" lon="16.1464671"><ele>664.0</ele><time>2026-04-09T13:38:07.239Z</time></trkpt><trkpt lat="38.4893561" lon="16.1462665"><ele>663.3333333333334</ele><time>2026-04-09T13:38:08.239Z</time></trkpt><trkpt lat="38.4893867" lon="16.1460734"><ele>662.6666666666666</ele><time>2026-04-09T13:38:09.239Z</time></trkpt><trkpt lat="38.4894195" lon="16.1458765"><ele>662.0</ele><time>2026-04-09T13:38:10.238Z</time></trkpt><trkpt lat="38.4894588" lon="16.1456756"><ele>661.0</ele><time>2026-04-09T13:38:11.238Z</time></trkpt><trkpt lat="38.4895065" lon="16.1454813"><ele>660.0</ele><time>2026-04-09T13:38:12.239Z</time></trkpt><trkpt lat="38.48957" lon="16.1452871"><ele>659.0</ele><time>2026-04-09T13:38:13.239Z</time></trkpt><trkpt lat="38.4896464" lon="16.1451023"><ele>658.3333333333333</ele><time>2026-04-09T13:38:14.239Z</time></trkpt><trkpt lat="38.4897255" lon="16.1449159"><ele>657.6666666666666</ele><time>2026-04-09T13:38:15.239Z</time></trkpt><trkpt lat="38.4898032" lon="16.1447219"><ele>657.0</ele><time>2026-04-09T13:38:16.238Z</time></trkpt><trkpt lat="38.4898774" lon="16.1445225"><ele>656.0</ele><time>2026-04-09T13:38:17.239Z</time></trkpt><trkpt lat="38.4899605" lon="16.1443245"><ele>655.0</ele><time>2026-04-09T13:38:18.239Z</time></trkpt><trkpt lat="38.490034" lon="16.1441246"><ele>654.0</ele><time>2026-04-09T13:38:19.239Z</time></trkpt><trkpt lat="38.4901087" lon="16.1439274"><ele>652.6666666666666</ele><time>2026-04-09T13:38:20.239Z</time></trkpt><trkpt lat="38.4901833" lon="16.1437402"><ele>651.3333333333333</ele><time>2026-04-09T13:38:21.239Z</time></trkpt><trkpt lat="38.4902594" lon="16.1435542"><ele>650.0</ele><time>2026-04-09T13:38:22.239Z</time></trkpt><trkpt lat="38.490334" lon="16.1433676"><ele>650.3333333333333</ele><time>2026-04-09T13:38:23.238Z</time></trkpt><trkpt lat="38.4903937" lon="16.1431775"><ele>650.6666666666666</ele><time>2026-04-09T13:38:24.239Z</time></trkpt><trkpt lat="38.4904485" lon="16.1429786"><ele>651.0</ele><time>2026-04-09T13:38:25.238Z</time></trkpt><trkpt lat="38.4904971" lon="16.14278"><ele>651.0</ele><time>2026-04-09T13:38:26.239Z</time></trkpt><trkpt lat="38.4905467" lon="16.1425837"><ele>651.0</ele><time>2026-04-09T13:38:27.239Z</time></trkpt><trkpt lat="38.4906034" lon="16.1423992"><ele>651.0</ele><time>2026-04-09T13:38:28.239Z</time></trkpt><trkpt lat="38.4906449" lon="16.1422162"><ele>649.3333333333334</ele><time>2026-04-09T13:38:29.239Z</time></trkpt><trkpt lat="38.4906914" lon="16.1420269"><ele>647.6666666666667</ele><time>2026-04-09T13:38:30.239Z</time></trkpt><trkpt lat="38.4907438" lon="16.1418366"><ele>646.0</ele><time>2026-04-09T13:38:31.239Z</time></trkpt><trkpt lat="38.4907961" lon="16.1416448"><ele>644.3333333333334</ele><time>2026-04-09T13:38:32.239Z</time></trkpt><trkpt lat="38.4908536" lon="16.1414441"><ele>642.6666666666666</ele><time>2026-04-09T13:38:33.239Z</time></trkpt><trkpt lat="38.4909114" lon="16.1412424"><ele>641.0</ele><time>2026-04-09T13:38:34.239Z</time></trkpt><trkpt lat="38.4909788" lon="16.1410429"><ele>641.0</ele><time>2026-04-09T13:38:35.239Z</time></trkpt><trkpt lat="38.4910526" lon="16.140843"><ele>641.0</ele><time>2026-04-09T13:38:36.239Z</time></trkpt><trkpt lat="38.4911304" lon="16.1406415"><ele>641.0</ele><time>2026-04-09T13:38:37.239Z</time></trkpt><trkpt lat="38.4912077" lon="16.1404384"><ele>641.0</ele><time>2026-04-09T13:38:38.239Z</time></trkpt><trkpt lat="38.4912805" lon="16.140233"><ele>641.0</ele><time>2026-04-09T13:38:39.238Z</time></trkpt><trkpt lat="38.4913594" lon="16.1400306"><ele>641.0</ele><time>2026-04-09T13:38:40.239Z</time></trkpt><trkpt lat="38.4914393" lon="16.1398174"><ele>640.0</ele><time>2026-04-09T13:38:41.239Z</time></trkpt><trkpt lat="38.4915076" lon="16.1396098"><ele>639.0</ele><time>2026-04-09T13:38:42.239Z</time></trkpt><trkpt lat="38.4915767" lon="16.1393961"><ele>638.0</ele><time>2026-04-09T13:38:43.239Z</time></trkpt><trkpt lat="38.4916448" lon="16.139182"><ele>636.3333333333333</ele><time>2026-04-09T13:38:44.238Z</time></trkpt><trkpt lat="38.4916949" lon="16.1389693"><ele>634.6666666666666</ele><time>2026-04-09T13:38:45.239Z</time></trkpt><trkpt lat="38.4917439" lon="16.1387516"><ele>633.0</ele><time>2026-04-09T13:38:46.238Z</time></trkpt><trkpt lat="38.4917905" lon="16.1385317"><ele>633.0</ele><time>2026-04-09T13:38:47.239Z</time></trkpt><trkpt lat="38.4918403" lon="16.1383233"><ele>633.0</ele><time>2026-04-09T13:38:48.239Z</time></trkpt><trkpt lat="38.4918819" lon="16.1381036"><ele>633.0</ele><time>2026-04-09T13:38:49.239Z</time></trkpt><trkpt lat="38.4919245" lon="16.1378835"><ele>632.3333333333334</ele><time>2026-04-09T13:38:50.239Z</time></trkpt><trkpt lat="38.4919737" lon="16.1376667"><ele>631.6666666666667</ele><time>2026-04-09T13:38:51.239Z</time></trkpt><trkpt lat="38.4920241" lon="16.1374529"><ele>631.0</ele><time>2026-04-09T13:38:52.239Z</time></trkpt><trkpt lat="38.4920801" lon="16.1372348"><ele>630.0</ele><time>2026-04-09T13:38:53.239Z</time></trkpt><trkpt lat="38.4921344" lon="16.1370187"><ele>629.0</ele><time>2026-04-09T13:38:54.239Z</time></trkpt><trkpt lat="38.4921851" lon="16.1368019"><ele>628.0</ele><time>2026-04-09T13:38:55.239Z</time></trkpt><trkpt lat="38.4922353" lon="16.1365905"><ele>627.0</ele><time>2026-04-09T13:38:56.239Z</time></trkpt><trkpt lat="38.4922633" lon="16.1363951"><ele>626.0</ele><time>2026-04-09T13:38:57.239Z</time></trkpt><trkpt lat="38.4922589" lon="16.136217"><ele>625.0</ele><time>2026-04-09T13:38:58.239Z</time></trkpt><trkpt lat="38.492215" lon="16.136049"><ele>624.0</ele><time>2026-04-09T13:38:59.239Z</time></trkpt><trkpt lat="38.4921379" lon="16.1358876"><ele>624.25</ele><time>2026-04-09T13:39:00.239Z</time></trkpt><trkpt lat="38.4920514" lon="16.135738"><ele>624.5</ele><time>2026-04-09T13:39:01.239Z</time></trkpt><trkpt lat="38.4919733" lon="16.1355983"><ele>624.75</ele><time>2026-04-09T13:39:02.238Z</time></trkpt><trkpt lat="38.4919061" lon="16.135452"><ele>625.0</ele><time>2026-04-09T13:39:03.239Z</time></trkpt><trkpt lat="38.4918712" lon="16.1352996"><ele>623.75</ele><time>2026-04-09T13:39:04.239Z</time></trkpt><trkpt lat="38.4918695" lon="16.1351505"><ele>622.5</ele><time>2026-04-09T13:39:05.239Z</time></trkpt><trkpt lat="38.4919043" lon="16.1350132"><ele>621.25</ele><time>2026-04-09T13:39:06.239Z</time></trkpt><trkpt lat="38.4919624" lon="16.1348842"><ele>620.0</ele><time>2026-04-09T13:39:07.239Z</time></trkpt><trkpt lat="38.492032" lon="16.1347393"><ele>618.6666666666666</ele><time>2026-04-09T13:39:08.239Z</time></trkpt><trkpt lat="38.4920968" lon="16.1345762"><ele>617.3333333333334</ele><time>2026-04-09T13:39:09.239Z</time></trkpt><trkpt lat="38.4921618" lon="16.1343966"><ele>616.0</ele><time>2026-04-09T13:39:10.239Z</time></trkpt><trkpt lat="38.4922325" lon="16.1342093"><ele>614.0</ele><time>2026-04-09T13:39:11.239Z</time></trkpt><trkpt lat="38.4923033" lon="16.134019"><ele>612.0</ele><time>2026-04-09T13:39:12.238Z</time></trkpt><trkpt lat="38.4923736" lon="16.1338271"><ele>610.0</ele><time>2026-04-09T13:39:13.238Z</time></trkpt><trkpt lat="38.4924482" lon="16.1336303"><ele>610.0</ele><time>2026-04-09T13:39:14.239Z</time></trkpt><trkpt lat="38.4925163" lon="16.1334345"><ele>610.0</ele><time>2026-04-09T13:39:15.239Z</time></trkpt><trkpt lat="38.4925902" lon="16.1332535"><ele>610.0</ele><time>2026-04-09T13:39:16.239Z</time></trkpt><trkpt lat="38.4926644" lon="16.1330877"><ele>609.3333333333334</ele><time>2026-04-09T13:39:17.238Z</time></trkpt><trkpt lat="38.4927615" lon="16.1329287"><ele>608.6666666666666</ele><time>2026-04-09T13:39:18.239Z</time></trkpt><trkpt lat="38.4928698" lon="16.1327669"><ele>608.0</ele><time>2026-04-09T13:39:19.238Z</time></trkpt><trkpt lat="38.4929761" lon="16.132602"><ele>608.0</ele><time>2026-04-09T13:39:20.239Z</time></trkpt><trkpt lat="38.4930791" lon="16.1324362"><ele>608.0</ele><time>2026-04-09T13:39:21.239Z</time></trkpt><trkpt lat="38.4931871" lon="16.1322618"><ele>608.0</ele><time>2026-04-09T13:39:22.238Z</time></trkpt><trkpt lat="38.4933027" lon="16.1320835"><ele>605.6666666666666</ele><time>2026-04-09T13:39:23.238Z</time></trkpt><trkpt lat="38.4934252" lon="16.1319005"><ele>603.3333333333334</ele><time>2026-04-09T13:39:24.239Z</time></trkpt><trkpt lat="38.4935443" lon="16.131724"><ele>601.0</ele><time>2026-04-09T13:39:25.239Z</time></trkpt><trkpt lat="38.4936646" lon="16.1315449"><ele>599.6666666666667</ele><time>2026-04-09T13:39:26.239Z</time></trkpt><trkpt lat="38.4937892" lon="16.1313617"><ele>598.3333333333334</ele><time>2026-04-09T13:39:27.238Z</time></trkpt><trkpt lat="38.493913" lon="16.1311779"><ele>597.0</ele><time>2026-04-09T13:39:28.239Z</time></trkpt><trkpt lat="38.4940349" lon="16.1309937"><ele>597.0</ele><time>2026-04-09T13:39:29.239Z</time></trkpt><trkpt lat="38.4941554" lon="16.1308028"><ele>597.0</ele><time>2026-04-09T13:39:30.239Z</time></trkpt><trkpt lat="38.4942742" lon="16.130611"><ele>597.0</ele><time>2026-04-09T13:39:31.239Z</time></trkpt><trkpt lat="38.4944013" lon="16.1304175"><ele>595.3333333333334</ele><time>2026-04-09T13:39:32.239Z</time></trkpt><trkpt lat="38.4945371" lon="16.1302173"><ele>593.6666666666667</ele><time>2026-04-09T13:39:33.239Z</time></trkpt><trkpt lat="38.4946682" lon="16.1300156"><ele>592.0</ele><time>2026-04-09T13:39:34.239Z</time></trkpt><trkpt lat="38.4948022" lon="16.1298201"><ele>590.6666666666667</ele><time>2026-04-09T13:39:35.239Z</time></trkpt><trkpt lat="38.494926" lon="16.12964"><ele>589.3333333333334</ele><time>2026-04-09T13:39:36.239Z</time></trkpt><trkpt lat="38.4950327" lon="16.1294966"><ele>588.0</ele><time>2026-04-09T13:39:37.238Z</time></trkpt><trkpt lat="38.4951245" lon="16.1293836"><ele>588.0</ele><time>2026-04-09T13:39:38.239Z</time></trkpt><trkpt lat="38.4952156" lon="16.1293148"><ele>588.0</ele><time>2026-04-09T13:39:39.239Z</time></trkpt><trkpt lat="38.4953238" lon="16.1292857"><ele>588.0</ele><time>2026-04-09T13:39:40.239Z</time></trkpt><trkpt lat="38.4954486" lon="16.129291"><ele>588.0</ele><time>2026-04-09T13:39:41.238Z</time></trkpt><trkpt lat="38.4955815" lon="16.1293205"><ele>587.0</ele><time>2026-04-09T13:39:42.239Z</time></trkpt><trkpt lat="38.4957198" lon="16.129352"><ele>586.0</ele><time>2026-04-09T13:39:43.239Z</time></trkpt><trkpt lat="38.4958499" lon="16.1293941"><ele>585.0</ele><time>2026-04-09T13:39:44.239Z</time></trkpt><trkpt lat="38.495971" lon="16.1294237"><ele>584.0</ele><time>2026-04-09T13:39:45.239Z</time></trkpt><trkpt lat="38.4960785" lon="16.12945"><ele>584.0</ele><time>2026-04-09T13:39:46.239Z</time></trkpt><trkpt lat="38.4961784" lon="16.129475"><ele>584.0</ele><time>2026-04-09T13:39:47.239Z</time></trkpt><trkpt lat="38.4962663" lon="16.1294865"><ele>584.0</ele><time>2026-04-09T13:39:48.239Z</time></trkpt><trkpt lat="38.4963406" lon="16.1294738"><ele>584.0</ele><time>2026-04-09T13:39:49.239Z</time></trkpt><trkpt lat="38.4964056" lon="16.1294214"><ele>584.0</ele><time>2026-04-09T13:39:50.239Z</time></trkpt><trkpt lat="38.4964632" lon="16.1293243"><ele>584.0</ele><time>2026-04-09T13:39:51.239Z</time></trkpt><trkpt lat="38.4964963" lon="16.1291979"><ele>582.0</ele><time>2026-04-09T13:39:52.238Z</time></trkpt><trkpt lat="38.4965457" lon="16.129057"><ele>580.0</ele><time>2026-04-09T13:39:53.239Z</time></trkpt><trkpt lat="38.4966053" lon="16.1289226"><ele>578.0</ele><time>2026-04-09T13:39:54.239Z</time></trkpt><trkpt lat="38.4966793" lon="16.1287991"><ele>576.0</ele><time>2026-04-09T13:39:55.239Z</time></trkpt><trkpt lat="38.4967809" lon="16.1286788"><ele>576.0</ele><time>2026-04-09T13:39:56.239Z</time></trkpt><trkpt lat="38.4969085" lon="16.1285404"><ele>576.0</ele><time>2026-04-09T13:39:57.239Z</time></trkpt><trkpt lat="38.4970559" lon="16.1283853"><ele>576.0</ele><time>2026-04-09T13:39:58.239Z</time></trkpt><trkpt lat="38.4972101" lon="16.1282392"><ele>573.6666666666666</ele><time>2026-04-09T13:39:59.239Z</time></trkpt><trkpt lat="38.49736" lon="16.1280941"><ele>571.3333333333333</ele><time>2026-04-09T13:40:00.239Z</time></trkpt><trkpt lat="38.4975045" lon="16.1279553"><ele>569.0</ele><time>2026-04-09T13:40:01.239Z</time></trkpt><trkpt lat="38.4976353" lon="16.127819"><ele>569.0</ele><time>2026-04-09T13:40:02.238Z</time></trkpt><trkpt lat="38.4977602" lon="16.1276876"><ele>569.0</ele><time>2026-04-09T13:40:03.239Z</time></trkpt><trkpt lat="38.4978848" lon="16.1275669"><ele>569.0</ele><time>2026-04-09T13:40:04.239Z</time></trkpt><trkpt lat="38.4980127" lon="16.1274594"><ele>566.3333333333333</ele><time>2026-04-09T13:40:05.239Z</time></trkpt><trkpt lat="38.4981446" lon="16.1273538"><ele>563.6666666666666</ele><time>2026-04-09T13:40:06.239Z</time></trkpt><trkpt lat="38.4982782" lon="16.1272476"><ele>561.0</ele><time>2026-04-09T13:40:07.239Z</time></trkpt><trkpt lat="38.4984205" lon="16.1271413"><ele>561.0</ele><time>2026-04-09T13:40:08.239Z</time></trkpt><trkpt lat="38.4985582" lon="16.1270435"><ele>561.0</ele><time>2026-04-09T13:40:09.239Z</time></trkpt><trkpt lat="38.4986834" lon="16.1269509"><ele>561.0</ele><time>2026-04-09T13:40:10.239Z</time></trkpt><trkpt lat="38.4987942" lon="16.1268673"><ele>561.0</ele><time>2026-04-09T13:40:11.238Z</time></trkpt><trkpt lat="38.4988911" lon="16.1267859"><ele>561.75</ele><time>2026-04-09T13:40:12.239Z</time></trkpt><trkpt lat="38.4989791" lon="16.1266911"><ele>562.5</ele><time>2026-04-09T13:40:13.238Z</time></trkpt><trkpt lat="38.4990471" lon="16.1265773"><ele>563.25</ele><time>2026-04-09T13:40:14.239Z</time></trkpt><trkpt lat="38.4990886" lon="16.126442"><ele>564.0</ele><time>2026-04-09T13:40:15.239Z</time></trkpt><trkpt lat="38.4991181" lon="16.1262769"><ele>562.5</ele><time>2026-04-09T13:40:16.239Z</time></trkpt><trkpt lat="38.4991429" lon="16.1261069"><ele>561.0</ele><time>2026-04-09T13:40:17.239Z</time></trkpt><trkpt lat="38.4991566" lon="16.1259352"><ele>559.5</ele><time>2026-04-09T13:40:18.239Z</time></trkpt><trkpt lat="38.4991475" lon="16.1257659"><ele>558.0</ele><time>2026-04-09T13:40:19.239Z</time></trkpt><trkpt lat="38.4991122" lon="16.1255954"><ele>556.75</ele><time>2026-04-09T13:40:20.239Z</time></trkpt><trkpt lat="38.4990608" lon="16.1254354"><ele>555.5</ele><time>2026-04-09T13:40:21.239Z</time></trkpt><trkpt lat="38.4989987" lon="16.1252647"><ele>554.25</ele><time>2026-04-09T13:40:22.239Z</time></trkpt><trkpt lat="38.4989226" lon="16.1251034"><ele>553.0</ele><time>2026-04-09T13:40:23.239Z</time></trkpt><trkpt lat="38.4988499" lon="16.124958"><ele>551.25</ele><time>2026-04-09T13:40:24.239Z</time></trkpt><trkpt lat="38.498767" lon="16.1248196"><ele>549.5</ele><time>2026-04-09T13:40:25.239Z</time></trkpt><trkpt lat="38.498663" lon="16.1246965"><ele>547.75</ele><time>2026-04-09T13:40:26.239Z</time></trkpt><trkpt lat="38.4985469" lon="16.1245749"><ele>546.0</ele><time>2026-04-09T13:40:27.239Z</time></trkpt><trkpt lat="38.4984383" lon="16.1244436"><ele>546.0</ele><time>2026-04-09T13:40:28.239Z</time></trkpt><trkpt lat="38.4983374" lon="16.1243224"><ele>546.0</ele><time>2026-04-09T13:40:29.239Z</time></trkpt><trkpt lat="38.4982321" lon="16.1242102"><ele>546.0</ele><time>2026-04-09T13:40:30.239Z</time></trkpt><trkpt lat="38.4981432" lon="16.1241142"><ele>546.0</ele><time>2026-04-09T13:40:31.239Z</time></trkpt><trkpt lat="38.4980581" lon="16.1239888"><ele>544.25</ele><time>2026-04-09T13:40:32.239Z</time></trkpt><trkpt lat="38.4979965" lon="16.1238542"><ele>542.5</ele><time>2026-04-09T13:40:33.239Z</time></trkpt><trkpt lat="38.49795" lon="16.1237066"><ele>540.75</ele><time>2026-04-09T13:40:34.239Z</time></trkpt><trkpt lat="38.4979073" lon="16.1235547"><ele>539.0</ele><time>2026-04-09T13:40:35.239Z</time></trkpt><trkpt lat="38.4978617" lon="16.1234046"><ele>539.0</ele><time>2026-04-09T13:40:36.239Z</time></trkpt><trkpt lat="38.4978256" lon="16.1232484"><ele>539.0</ele><time>2026-04-09T13:40:37.239Z</time></trkpt><trkpt lat="38.4977988" lon="16.1230814"><ele>539.0</ele><time>2026-04-09T13:40:38.239Z</time></trkpt><trkpt lat="38.4977792" lon="16.1229041"><ele>539.0</ele><time>2026-04-09T13:40:39.239Z</time></trkpt><trkpt lat="38.4977664" lon="16.1227196"><ele>539.5</ele><time>2026-04-09T13:40:40.238Z</time></trkpt><trkpt lat="38.4977503" lon="16.1225359"><ele>540.0</ele><time>2026-04-09T13:40:41.239Z</time></trkpt><trkpt lat="38.4977336" lon="16.1223594"><ele>540.5</ele><time>2026-04-09T13:40:42.239Z</time></trkpt><trkpt lat="38.497711" lon="16.1221774"><ele>541.0</ele><time>2026-04-09T13:40:43.239Z</time></trkpt><trkpt lat="38.4976979" lon="16.1219893"><ele>541.0</ele><time>2026-04-09T13:40:44.239Z</time></trkpt><trkpt lat="38.4976769" lon="16.1218008"><ele>541.0</ele><time>2026-04-09T13:40:45.239Z</time></trkpt><trkpt lat="38.4976556" lon="16.1216163"><ele>541.0</ele><time>2026-04-09T13:40:46.239Z</time></trkpt><trkpt lat="38.4976387" lon="16.1214152"><ele>539.3333333333334</ele><time>2026-04-09T13:40:47.239Z</time></trkpt><trkpt lat="38.4976219" lon="16.12122"><ele>537.6666666666666</ele><time>2026-04-09T13:40:48.239Z</time></trkpt><trkpt lat="38.4976052" lon="16.1210173"><ele>536.0</ele><time>2026-04-09T13:40:49.239Z</time></trkpt><trkpt lat="38.4975827" lon="16.1208061"><ele>535.3333333333333</ele><time>2026-04-09T13:40:50.239Z</time></trkpt><trkpt lat="38.4975525" lon="16.120601"><ele>534.6666666666666</ele><time>2026-04-09T13:40:51.239Z</time></trkpt><trkpt lat="38.497522" lon="16.1203929"><ele>534.0</ele><time>2026-04-09T13:40:52.239Z</time></trkpt><trkpt lat="38.4974867" lon="16.1201789"><ele>534.0</ele><time>2026-04-09T13:40:53.239Z</time></trkpt><trkpt lat="38.4974488" lon="16.1199681"><ele>534.0</ele><time>2026-04-09T13:40:54.239Z</time></trkpt><trkpt lat="38.4974092" lon="16.1197556"><ele>534.0</ele><time>2026-04-09T13:40:55.239Z</time></trkpt><trkpt lat="38.4973735" lon="16.1195494"><ele>534.5</ele><time>2026-04-09T13:40:56.239Z</time></trkpt><trkpt lat="38.4973385" lon="16.1193494"><ele>535.0</ele><time>2026-04-09T13:40:57.239Z</time></trkpt><trkpt lat="38.4973137" lon="16.1191666"><ele>535.5</ele><time>2026-04-09T13:40:58.238Z</time></trkpt><trkpt lat="38.4972986" lon="16.1189877"><ele>536.0</ele><time>2026-04-09T13:40:59.239Z</time></trkpt><trkpt lat="38.4972941" lon="16.1188121"><ele>536.0</ele><time>2026-04-09T13:41:00.239Z</time></trkpt><trkpt lat="38.4973167" lon="16.1186342"><ele>536.0</ele><time>2026-04-09T13:41:01.238Z</time></trkpt><trkpt lat="38.4973432" lon="16.1184597"><ele>536.0</ele><time>2026-04-09T13:41:02.239Z</time></trkpt><trkpt lat="38.4973703" lon="16.1182801"><ele>536.0</ele><time>2026-04-09T13:41:03.239Z</time></trkpt><trkpt lat="38.4973982" lon="16.1180879"><ele>536.0</ele><time>2026-04-09T13:41:04.239Z</time></trkpt><trkpt lat="38.497417" lon="16.1179043"><ele>536.0</ele><time>2026-04-09T13:41:05.239Z</time></trkpt><trkpt lat="38.4974364" lon="16.1177184"><ele>536.0</ele><time>2026-04-09T13:41:06.239Z</time></trkpt><trkpt lat="38.4974526" lon="16.1175326"><ele>536.0</ele><time>2026-04-09T13:41:07.239Z</time></trkpt><trkpt lat="38.4974744" lon="16.117338"><ele>535.0</ele><time>2026-04-09T13:41:08.239Z</time></trkpt><trkpt lat="38.4975009" lon="16.1171311"><ele>534.0</ele><time>2026-04-09T13:41:09.239Z</time></trkpt><trkpt lat="38.4975331" lon="16.1169242"><ele>533.0</ele><time>2026-04-09T13:41:10.238Z</time></trkpt><trkpt lat="38.4975564" lon="16.1167339"><ele>532.5</ele><time>2026-04-09T13:41:11.239Z</time></trkpt><trkpt lat="38.4975665" lon="16.1165522"><ele>532.0</ele><time>2026-04-09T13:41:12.238Z</time></trkpt><trkpt lat="38.497577" lon="16.1163719"><ele>531.5</ele><time>2026-04-09T13:41:13.239Z</time></trkpt><trkpt lat="38.4975783" lon="16.116201"><ele>531.0</ele><time>2026-04-09T13:41:14.239Z</time></trkpt><trkpt lat="38.4975713" lon="16.1160359"><ele>531.0</ele><time>2026-04-09T13:41:15.239Z</time></trkpt><trkpt lat="38.4975481" lon="16.1158714"><ele>531.0</ele><time>2026-04-09T13:41:16.238Z</time></trkpt><trkpt lat="38.4975064" lon="16.1157124"><ele>531.0</ele><time>2026-04-09T13:41:17.238Z</time></trkpt><trkpt lat="38.4974532" lon="16.1155448"><ele>531.0</ele><time>2026-04-09T13:41:18.239Z</time></trkpt><trkpt lat="38.4974008" lon="16.1153638"><ele>530.75</ele><time>2026-04-09T13:41:19.239Z</time></trkpt><trkpt lat="38.4973526" lon="16.1151832"><ele>530.5</ele><time>2026-04-09T13:41:20.239Z</time></trkpt><trkpt lat="38.497304" lon="16.1150047"><ele>530.25</ele><time>2026-04-09T13:41:21.239Z</time></trkpt><trkpt lat="38.4972561" lon="16.1148224"><ele>530.0</ele><time>2026-04-09T13:41:22.238Z</time></trkpt><trkpt lat="38.4972018" lon="16.1146432"><ele>529.6666666666666</ele><time>2026-04-09T13:41:23.239Z</time></trkpt><trkpt lat="38.4971351" lon="16.1144577"><ele>529.3333333333334</ele><time>2026-04-09T13:41:24.239Z</time></trkpt><trkpt lat="38.4970613" lon="16.1142708"><ele>529.0</ele><time>2026-04-09T13:41:25.239Z</time></trkpt><trkpt lat="38.4969732" lon="16.114088"><ele>528.0</ele><time>2026-04-09T13:41:26.239Z</time></trkpt><trkpt lat="38.496878" lon="16.1139058"><ele>527.0</ele><time>2026-04-09T13:41:27.239Z</time></trkpt><trkpt lat="38.4967848" lon="16.1137185"><ele>526.0</ele><time>2026-04-09T13:41:28.239Z</time></trkpt><trkpt lat="38.4966864" lon="16.1135252"><ele>526.0</ele><time>2026-04-09T13:41:29.239Z</time></trkpt><trkpt lat="38.4966094" lon="16.1133183"><ele>526.0</ele><time>2026-04-09T13:41:30.239Z</time></trkpt><trkpt lat="38.4965366" lon="16.1131132"><ele>526.0</ele><time>2026-04-09T13:41:31.239Z</time></trkpt><trkpt lat="38.4964672" lon="16.1129151"><ele>525.3333333333334</ele><time>2026-04-09T13:41:32.239Z</time></trkpt><trkpt lat="38.4964039" lon="16.1127137"><ele>524.6666666666666</ele><time>2026-04-09T13:41:33.239Z</time></trkpt><trkpt lat="38.4963409" lon="16.1125172"><ele>524.0</ele><time>2026-04-09T13:41:34.239Z</time></trkpt><trkpt lat="38.4962637" lon="16.1123197"><ele>523.3333333333333</ele><time>2026-04-09T13:41:35.239Z</time></trkpt><trkpt lat="38.4961909" lon="16.1121223"><ele>522.6666666666666</ele><time>2026-04-09T13:41:36.238Z</time></trkpt><trkpt lat="38.4961257" lon="16.1119325"><ele>522.0</ele><time>2026-04-09T13:41:37.239Z</time></trkpt><trkpt lat="38.4960749" lon="16.1117543"><ele>522.0</ele><time>2026-04-09T13:41:38.239Z</time></trkpt><trkpt lat="38.4960397" lon="16.1115878"><ele>522.0</ele><time>2026-04-09T13:41:39.238Z</time></trkpt><trkpt lat="38.4960181" lon="16.1114308"><ele>522.0</ele><time>2026-04-09T13:41:40.239Z</time></trkpt><trkpt lat="38.4960142" lon="16.1112774"><ele>522.0</ele><time>2026-04-09T13:41:41.239Z</time></trkpt><trkpt lat="38.4960247" lon="16.111127"><ele>521.25</ele><time>2026-04-09T13:41:42.239Z</time></trkpt><trkpt lat="38.4960355" lon="16.1109683"><ele>520.5</ele><time>2026-04-09T13:41:43.239Z</time></trkpt><trkpt lat="38.4960376" lon="16.1107972"><ele>519.75</ele><time>2026-04-09T13:41:44.239Z</time></trkpt><trkpt lat="38.4960386" lon="16.1106153"><ele>519.0</ele><time>2026-04-09T13:41:45.239Z</time></trkpt><trkpt lat="38.4960387" lon="16.1104337"><ele>518.0</ele><time>2026-04-09T13:41:46.239Z</time></trkpt><trkpt lat="38.4960472" lon="16.1102673"><ele>517.0</ele><time>2026-04-09T13:41:47.238Z</time></trkpt><trkpt lat="38.4960387" lon="16.110109"><ele>516.0</ele><time>2026-04-09T13:41:48.239Z</time></trkpt><trkpt lat="38.4960248" lon="16.109956"><ele>515.0</ele><time>2026-04-09T13:41:49.239Z</time></trkpt><trkpt lat="38.4959926" lon="16.109805"><ele>513.75</ele><time>2026-04-09T13:41:50.239Z</time></trkpt><trkpt lat="38.4959566" lon="16.1096543"><ele>512.5</ele><time>2026-04-09T13:41:51.239Z</time></trkpt><trkpt lat="38.4959198" lon="16.1094981"><ele>511.25</ele><time>2026-04-09T13:41:52.239Z</time></trkpt><trkpt lat="38.4958833" lon="16.1093478"><ele>510.0</ele><time>2026-04-09T13:41:53.239Z</time></trkpt><trkpt lat="38.4958521" lon="16.1092168"><ele>510.0</ele><time>2026-04-09T13:41:54.239Z</time></trkpt><trkpt lat="38.495833" lon="16.1090889"><ele>510.0</ele><time>2026-04-09T13:41:55.239Z</time></trkpt><trkpt lat="38.4958395" lon="16.1089573"><ele>510.0</ele><time>2026-04-09T13:41:56.239Z</time></trkpt><trkpt lat="38.4958596" lon="16.1088177"><ele>510.0</ele><time>2026-04-09T13:41:57.239Z</time></trkpt><trkpt lat="38.4959003" lon="16.1086573"><ele>510.0</ele><time>2026-04-09T13:41:58.239Z</time></trkpt><trkpt lat="38.4959493" lon="16.1084681"><ele>508.66666666666663</ele><time>2026-04-09T13:41:59.239Z</time></trkpt><trkpt lat="38.4960004" lon="16.1082661"><ele>507.3333333333333</ele><time>2026-04-09T13:42:00.239Z</time></trkpt><trkpt lat="38.4960459" lon="16.1080758"><ele>506.0</ele><time>2026-04-09T13:42:01.238Z</time></trkpt><trkpt lat="38.4960817" lon="16.1079001"><ele>504.75</ele><time>2026-04-09T13:42:02.238Z</time></trkpt><trkpt lat="38.4961137" lon="16.1077307"><ele>503.5</ele><time>2026-04-09T13:42:03.238Z</time></trkpt><trkpt lat="38.496162" lon="16.1075836"><ele>502.25</ele><time>2026-04-09T13:42:04.239Z</time></trkpt><trkpt lat="38.4962305" lon="16.1074433"><ele>501.0</ele><time>2026-04-09T13:42:05.239Z</time></trkpt><trkpt lat="38.4963165" lon="16.1073155"><ele>499.5</ele><time>2026-04-09T13:42:06.238Z</time></trkpt><trkpt lat="38.4964278" lon="16.1071954"><ele>498.0</ele><time>2026-04-09T13:42:07.239Z</time></trkpt><trkpt lat="38.496543" lon="16.1070863"><ele>496.5</ele><time>2026-04-09T13:42:08.239Z</time></trkpt><trkpt lat="38.4966351" lon="16.1069646"><ele>495.0</ele><time>2026-04-09T13:42:09.239Z</time></trkpt><trkpt lat="38.4966989" lon="16.1068524"><ele>495.0</ele><time>2026-04-09T13:42:10.239Z</time></trkpt><trkpt lat="38.4967353" lon="16.1067094"><ele>495.0</ele><time>2026-04-09T13:42:11.239Z</time></trkpt><trkpt lat="38.4967646" lon="16.1065402"><ele>495.0</ele><time>2026-04-09T13:42:12.239Z</time></trkpt><trkpt lat="38.4968146" lon="16.1063568"><ele>495.0</ele><time>2026-04-09T13:42:13.239Z</time></trkpt><trkpt lat="38.4968703" lon="16.106167"><ele>493.33333333333337</ele><time>2026-04-09T13:42:14.239Z</time></trkpt><trkpt lat="38.4969313" lon="16.1059633"><ele>491.6666666666667</ele><time>2026-04-09T13:42:15.239Z</time></trkpt><trkpt lat="38.4969935" lon="16.1057775"><ele>490.0</ele><time>2026-04-09T13:42:16.239Z</time></trkpt><trkpt lat="38.4970471" lon="16.1055944"><ele>490.2</ele><time>2026-04-09T13:42:17.239Z</time></trkpt><trkpt lat="38.4970851" lon="16.1054231"><ele>490.4</ele><time>2026-04-09T13:42:18.238Z</time></trkpt><trkpt lat="38.4971151" lon="16.1052805"><ele>490.6</ele><time>2026-04-09T13:42:19.239Z</time></trkpt><trkpt lat="38.4971202" lon="16.1051516"><ele>490.8</ele><time>2026-04-09T13:42:20.239Z</time></trkpt><trkpt lat="38.4971001" lon="16.1050354"><ele>491.0</ele><time>2026-04-09T13:42:21.239Z</time></trkpt><trkpt lat="38.4970423" lon="16.1049419"><ele>490.25</ele><time>2026-04-09T13:42:22.238Z</time></trkpt><trkpt lat="38.4969647" lon="16.1048676"><ele>489.5</ele><time>2026-04-09T13:42:23.238Z</time></trkpt><trkpt lat="38.4968618" lon="16.1048063"><ele>488.75</ele><time>2026-04-09T13:42:24.238Z</time></trkpt><trkpt lat="38.4967462" lon="16.1047425"><ele>488.0</ele><time>2026-04-09T13:42:25.239Z</time></trkpt><trkpt lat="38.4966376" lon="16.1046589"><ele>488.0</ele><time>2026-04-09T13:42:26.239Z</time></trkpt><trkpt lat="38.4965567" lon="16.104554"><ele>488.0</ele><time>2026-04-09T13:42:27.239Z</time></trkpt><trkpt lat="38.4964859" lon="16.1044332"><ele>488.0</ele><time>2026-04-09T13:42:28.239Z</time></trkpt><trkpt lat="38.4964285" lon="16.1042937"><ele>488.0</ele><time>2026-04-09T13:42:29.239Z</time></trkpt><trkpt lat="38.4963753" lon="16.1041243"><ele>488.0</ele><time>2026-04-09T13:42:30.239Z</time></trkpt><trkpt lat="38.4963107" lon="16.1039595"><ele>488.0</ele><time>2026-04-09T13:42:31.238Z</time></trkpt><trkpt lat="38.4962462" lon="16.1037927"><ele>488.0</ele><time>2026-04-09T13:42:32.239Z</time></trkpt><trkpt lat="38.4961824" lon="16.1036336"><ele>488.0</ele><time>2026-04-09T13:42:33.239Z</time></trkpt><trkpt lat="38.496104" lon="16.1034965"><ele>486.75</ele><time>2026-04-09T13:42:34.239Z</time></trkpt><trkpt lat="38.496014" lon="16.1033769"><ele>485.5</ele><time>2026-04-09T13:42:35.239Z</time></trkpt><trkpt lat="38.4959237" lon="16.1032543"><ele>484.25</ele><time>2026-04-09T13:42:36.239Z</time></trkpt><trkpt lat="38.4958373" lon="16.1031218"><ele>483.0</ele><time>2026-04-09T13:42:37.239Z</time></trkpt><trkpt lat="38.49576" lon="16.102974"><ele>482.5</ele><time>2026-04-09T13:42:38.239Z</time></trkpt><trkpt lat="38.4956815" lon="16.1028165"><ele>482.0</ele><time>2026-04-09T13:42:39.239Z</time></trkpt><trkpt lat="38.4956072" lon="16.1026528"><ele>481.5</ele><time>2026-04-09T13:42:40.239Z</time></trkpt><trkpt lat="38.4955349" lon="16.102493"><ele>481.0</ele><time>2026-04-09T13:42:41.239Z</time></trkpt><trkpt lat="38.4954645" lon="16.1023423"><ele>479.0</ele><time>2026-04-09T13:42:42.239Z</time></trkpt><trkpt lat="38.4954009" lon="16.1021931"><ele>477.0</ele><time>2026-04-09T13:42:43.238Z</time></trkpt><trkpt lat="38.4953348" lon="16.1020642"><ele>475.0</ele><time>2026-04-09T13:42:44.239Z</time></trkpt><trkpt lat="38.4952616" lon="16.1019491"><ele>473.0</ele><time>2026-04-09T13:42:45.239Z</time></trkpt><trkpt lat="38.4951686" lon="16.1018492"><ele>473.0</ele><time>2026-04-09T13:42:46.239Z</time></trkpt><trkpt lat="38.4950793" lon="16.1017583"><ele>473.0</ele><time>2026-04-09T13:42:47.238Z</time></trkpt><trkpt lat="38.4949865" lon="16.1016475"><ele>473.0</ele><time>2026-04-09T13:42:48.239Z</time></trkpt><trkpt lat="38.4949033" lon="16.1015492"><ele>473.0</ele><time>2026-04-09T13:42:49.238Z</time></trkpt><trkpt lat="38.4948132" lon="16.1014416"><ele>471.25</ele><time>2026-04-09T13:42:50.239Z</time></trkpt><trkpt lat="38.4947219" lon="16.1013236"><ele>469.5</ele><time>2026-04-09T13:42:51.239Z</time></trkpt><trkpt lat="38.4946329" lon="16.1011807"><ele>467.75</ele><time>2026-04-09T13:42:52.238Z</time></trkpt><trkpt lat="38.4945462" lon="16.1010108"><ele>466.0</ele><time>2026-04-09T13:42:53.239Z</time></trkpt><trkpt lat="38.4944555" lon="16.1008481"><ele>463.33333333333337</ele><time>2026-04-09T13:42:54.238Z</time></trkpt><trkpt lat="38.4943729" lon="16.1006882"><ele>460.66666666666663</ele><time>2026-04-09T13:42:55.239Z</time></trkpt><trkpt lat="38.4942742" lon="16.100535"><ele>458.0</ele><time>2026-04-09T13:42:56.239Z</time></trkpt><trkpt lat="38.4941744" lon="16.1003869"><ele>458.0</ele><time>2026-04-09T13:42:57.239Z</time></trkpt><trkpt lat="38.4940779" lon="16.1002609"><ele>458.0</ele><time>2026-04-09T13:42:58.239Z</time></trkpt><trkpt lat="38.493979" lon="16.1001585"><ele>458.0</ele><time>2026-04-09T13:42:59.239Z</time></trkpt><trkpt lat="38.4938681" lon="16.1000963"><ele>458.0</ele><time>2026-04-09T13:43:00.239Z</time></trkpt><trkpt lat="38.4937446" lon="16.1000623"><ele>458.0</ele><time>2026-04-09T13:43:01.239Z</time></trkpt><trkpt lat="38.4936296" lon="16.100065"><ele>457.99999999999994</ele><time>2026-04-09T13:43:02.239Z</time></trkpt><trkpt lat="38.4935355" lon="16.1001001"><ele>457.99999999999994</ele><time>2026-04-09T13:43:03.238Z</time></trkpt><trkpt lat="38.4934585" lon="16.1001694"><ele>458.0</ele><time>2026-04-09T13:43:04.239Z</time></trkpt><trkpt lat="38.4933946" lon="16.1002586"><ele>458.0</ele><time>2026-04-09T13:43:05.239Z</time></trkpt><trkpt lat="38.4933431" lon="16.1003758"><ele>458.0</ele><time>2026-04-09T13:43:06.238Z</time></trkpt><trkpt lat="38.4932986" lon="16.1005049"><ele>458.0</ele><time>2026-04-09T13:43:07.239Z</time></trkpt><trkpt lat="38.4932588" lon="16.1006562"><ele>458.0</ele><time>2026-04-09T13:43:08.239Z</time></trkpt><trkpt lat="38.4932277" lon="16.1008097"><ele>458.0</ele><time>2026-04-09T13:43:09.239Z</time></trkpt><trkpt lat="38.4932211" lon="16.1009474"><ele>457.8333333333333</ele><time>2026-04-09T13:43:10.238Z</time></trkpt><trkpt lat="38.4932345" lon="16.1010703"><ele>457.66666666666663</ele><time>2026-04-09T13:43:11.239Z</time></trkpt><trkpt lat="38.4932614" lon="16.1011787"><ele>457.5</ele><time>2026-04-09T13:43:12.239Z</time></trkpt><trkpt lat="38.4932856" lon="16.1012597"><ele>457.33333333333337</ele><time>2026-04-09T13:43:13.239Z</time></trkpt><trkpt lat="38.4933053" lon="16.101388"><ele>457.1666666666667</ele><time>2026-04-09T13:43:15.239Z</time></trkpt><trkpt lat="38.4932726" lon="16.1014665"><ele>457.0</ele><time>2026-04-09T13:43:17.239Z</time></trkpt><trkpt lat="38.4931907" lon="16.1014974"><ele>457.0</ele><time>2026-04-09T13:43:19.239Z</time></trkpt><trkpt lat="38.4930919" lon="16.1014568"><ele>457.00000000000006</ele><time>2026-04-09T13:43:21.238Z</time></trkpt><trkpt lat="38.4930054" lon="16.1013486"><ele>457.00000000000006</ele><time>2026-04-09T13:43:23.239Z</time></trkpt><trkpt lat="38.4929554" lon="16.1012843"><ele>457.0</ele><time>2026-04-09T13:43:24.239Z</time></trkpt><trkpt lat="38.492896" lon="16.1012172"><ele>457.0</ele><time>2026-04-09T13:43:25.239Z</time></trkpt><trkpt lat="38.4928343" lon="16.1011355"><ele>455.40000000000003</ele><time>2026-04-09T13:43:26.239Z</time></trkpt><trkpt lat="38.4927733" lon="16.10104"><ele>453.80000000000007</ele><time>2026-04-09T13:43:27.239Z</time></trkpt><trkpt lat="38.4927113" lon="16.1009606"><ele>452.2</ele><time>2026-04-09T13:43:28.239Z</time></trkpt><trkpt lat="38.492651" lon="16.1008825"><ele>450.6</ele><time>2026-04-09T13:43:29.239Z</time></trkpt><trkpt lat="38.4925782" lon="16.1008112"><ele>449.0</ele><time>2026-04-09T13:43:30.239Z</time></trkpt><trkpt lat="38.492503" lon="16.1007401"><ele>448.66666666666663</ele><time>2026-04-09T13:43:31.239Z</time></trkpt><trkpt lat="38.4924379" lon="16.1006765"><ele>448.3333333333333</ele><time>2026-04-09T13:43:32.239Z</time></trkpt><trkpt lat="38.4923718" lon="16.1006172"><ele>448.0</ele><time>2026-04-09T13:43:33.239Z</time></trkpt><trkpt lat="38.4923038" lon="16.1005665"><ele>447.66666666666663</ele><time>2026-04-09T13:43:34.239Z</time></trkpt><trkpt lat="38.4922367" lon="16.1005235"><ele>447.3333333333333</ele><time>2026-04-09T13:43:35.239Z</time></trkpt><trkpt lat="38.4921711" lon="16.1004825"><ele>447.0</ele><time>2026-04-09T13:43:36.239Z</time></trkpt><trkpt lat="38.4920988" lon="16.1004336"><ele>445.8333333333333</ele><time>2026-04-09T13:43:37.239Z</time></trkpt><trkpt lat="38.4920226" lon="16.1003801"><ele>444.66666666666663</ele><time>2026-04-09T13:43:38.239Z</time></trkpt><trkpt lat="38.4919493" lon="16.1003153"><ele>443.5</ele><time>2026-04-09T13:43:39.239Z</time></trkpt><trkpt lat="38.4918732" lon="16.1002545"><ele>442.3333333333333</ele><time>2026-04-09T13:43:40.239Z</time></trkpt><trkpt lat="38.491803" lon="16.1001953"><ele>441.16666666666663</ele><time>2026-04-09T13:43:41.238Z</time></trkpt><trkpt lat="38.4917366" lon="16.1001242"><ele>440.0</ele><time>2026-04-09T13:43:42.239Z</time></trkpt><trkpt lat="38.4916784" lon="16.1000486"><ele>440.0</ele><time>2026-04-09T13:43:43.239Z</time></trkpt><trkpt lat="38.4916265" lon="16.0999552"><ele>440.0</ele><time>2026-04-09T13:43:44.239Z</time></trkpt><trkpt lat="38.4915837" lon="16.0998511"><ele>440.0</ele><time>2026-04-09T13:43:45.239Z</time></trkpt><trkpt lat="38.4915442" lon="16.0997318"><ele>440.0</ele><time>2026-04-09T13:43:46.239Z</time></trkpt><trkpt lat="38.4915139" lon="16.0996139"><ele>440.0</ele><time>2026-04-09T13:43:47.239Z</time></trkpt><trkpt lat="38.4914847" lon="16.0995137"><ele>438.99999999999994</ele><time>2026-04-09T13:43:48.239Z</time></trkpt><trkpt lat="38.4914551" lon="16.0994197"><ele>438.0</ele><time>2026-04-09T13:43:49.239Z</time></trkpt><trkpt lat="38.4914263" lon="16.0993393"><ele>437.0</ele><time>2026-04-09T13:43:50.239Z</time></trkpt><trkpt lat="38.4913517" lon="16.0992124"><ele>436.0</ele><time>2026-04-09T13:43:52.239Z</time></trkpt><trkpt lat="38.4913009" lon="16.0991602"><ele>434.99999999999994</ele><time>2026-04-09T13:43:53.239Z</time></trkpt><trkpt lat="38.4912303" lon="16.099125"><ele>434.0</ele><time>2026-04-09T13:43:54.239Z</time></trkpt><trkpt lat="38.4911481" lon="16.0991044"><ele>433.6</ele><time>2026-04-09T13:43:55.239Z</time></trkpt><trkpt lat="38.4910561" lon="16.0990852"><ele>433.2</ele><time>2026-04-09T13:43:56.239Z</time></trkpt><trkpt lat="38.490949" lon="16.0990613"><ele>432.80000000000007</ele><time>2026-04-09T13:43:57.238Z</time></trkpt><trkpt lat="38.4908364" lon="16.0990308"><ele>432.40000000000003</ele><time>2026-04-09T13:43:58.239Z</time></trkpt><trkpt lat="38.4907402" lon="16.0989978"><ele>432.0</ele><time>2026-04-09T13:43:59.239Z</time></trkpt><trkpt lat="38.4906384" lon="16.0989583"><ele>431.20000000000005</ele><time>2026-04-09T13:44:00.239Z</time></trkpt><trkpt lat="38.4905387" lon="16.0989173"><ele>430.40000000000003</ele><time>2026-04-09T13:44:01.239Z</time></trkpt><trkpt lat="38.4904482" lon="16.0988726"><ele>429.59999999999997</ele><time>2026-04-09T13:44:02.239Z</time></trkpt><trkpt lat="38.4903641" lon="16.098832"><ele>428.79999999999995</ele><time>2026-04-09T13:44:03.239Z</time></trkpt><trkpt lat="38.4902613" lon="16.098783"><ele>428.0</ele><time>2026-04-09T13:44:04.239Z</time></trkpt><trkpt lat="38.4901466" lon="16.0987222"><ele>426.3333333333333</ele><time>2026-04-09T13:44:05.239Z</time></trkpt><trkpt lat="38.4900142" lon="16.0986569"><ele>424.66666666666663</ele><time>2026-04-09T13:44:06.239Z</time></trkpt><trkpt lat="38.4898699" lon="16.0985864"><ele>423.0</ele><time>2026-04-09T13:44:07.239Z</time></trkpt><trkpt lat="38.4897284" lon="16.0985091"><ele>422.5</ele><time>2026-04-09T13:44:08.239Z</time></trkpt><trkpt lat="38.4895824" lon="16.0984343"><ele>422.0</ele><time>2026-04-09T13:44:09.239Z</time></trkpt><trkpt lat="38.4894452" lon="16.0983801"><ele>421.5</ele><time>2026-04-09T13:44:10.238Z</time></trkpt><trkpt lat="38.4893329" lon="16.0983546"><ele>421.0</ele><time>2026-04-09T13:44:11.239Z</time></trkpt><trkpt lat="38.4892356" lon="16.0983231"><ele>421.00000000000006</ele><time>2026-04-09T13:44:12.239Z</time></trkpt><trkpt lat="38.4891492" lon="16.0982991"><ele>421.0</ele><time>2026-04-09T13:44:13.239Z</time></trkpt><trkpt lat="38.4890707" lon="16.0982812"><ele>421.0</ele><time>2026-04-09T13:44:14.239Z</time></trkpt><trkpt lat="38.4889931" lon="16.098265"><ele>421.0</ele><time>2026-04-09T13:44:15.239Z</time></trkpt><trkpt lat="38.4889197" lon="16.0982455"><ele>421.00000000000006</ele><time>2026-04-09T13:44:16.239Z</time></trkpt><trkpt lat="38.4888454" lon="16.0982279"><ele>421.0</ele><time>2026-04-09T13:44:17.239Z</time></trkpt><trkpt lat="38.4887778" lon="16.0982068"><ele>419.6</ele><time>2026-04-09T13:44:18.239Z</time></trkpt><trkpt lat="38.488708" lon="16.0981834"><ele>418.20000000000005</ele><time>2026-04-09T13:44:19.239Z</time></trkpt><trkpt lat="38.4886019" lon="16.0981265"><ele>416.79999999999995</ele><time>2026-04-09T13:44:21.239Z</time></trkpt><trkpt lat="38.4885237" lon="16.0980452"><ele>415.4</ele><time>2026-04-09T13:44:23.239Z</time></trkpt><trkpt lat="38.4884763" lon="16.0979098"><ele>414.0</ele><time>2026-04-09T13:44:25.239Z</time></trkpt><trkpt lat="38.4884661" lon="16.0978122"><ele>414.0</ele><time>2026-04-09T13:44:26.239Z</time></trkpt><trkpt lat="38.4884608" lon="16.0976932"><ele>414.0</ele><time>2026-04-09T13:44:27.239Z</time></trkpt><trkpt lat="38.488468" lon="16.0975308"><ele>414.0</ele><time>2026-04-09T13:44:28.239Z</time></trkpt><trkpt lat="38.4885113" lon="16.0973105"><ele>414.0</ele><time>2026-04-09T13:44:29.239Z</time></trkpt><trkpt lat="38.4885741" lon="16.0970505"><ele>413.0</ele><time>2026-04-09T13:44:30.239Z</time></trkpt><trkpt lat="38.4886293" lon="16.0968122"><ele>412.0</ele><time>2026-04-09T13:44:31.239Z</time></trkpt><trkpt lat="38.4886916" lon="16.0966035"><ele>411.0</ele><time>2026-04-09T13:44:32.239Z</time></trkpt><trkpt lat="38.4887693" lon="16.0964365"><ele>408.0</ele><time>2026-04-09T13:44:33.239Z</time></trkpt><trkpt lat="38.4888676" lon="16.0962655"><ele>405.0</ele><time>2026-04-09T13:44:34.239Z</time></trkpt><trkpt lat="38.488996" lon="16.0960898"><ele>402.0</ele><time>2026-04-09T13:44:35.239Z</time></trkpt><trkpt lat="38.4891058" lon="16.0959259"><ele>402.0</ele><time>2026-04-09T13:44:36.239Z</time></trkpt><trkpt lat="38.4891929" lon="16.0957824"><ele>402.0</ele><time>2026-04-09T13:44:37.239Z</time></trkpt><trkpt lat="38.4892923" lon="16.0956655"><ele>402.0</ele><time>2026-04-09T13:44:38.239Z</time></trkpt><trkpt lat="38.4894289" lon="16.095586"><ele>402.0</ele><time>2026-04-09T13:44:39.239Z</time></trkpt><trkpt lat="38.4895769" lon="16.0955143"><ele>400.20000000000005</ele><time>2026-04-09T13:44:40.239Z</time></trkpt><trkpt lat="38.4897048" lon="16.0954513"><ele>398.4</ele><time>2026-04-09T13:44:41.238Z</time></trkpt><trkpt lat="38.4898154" lon="16.0954182"><ele>396.6</ele><time>2026-04-09T13:44:42.239Z</time></trkpt><trkpt lat="38.4899066" lon="16.0954204"><ele>394.79999999999995</ele><time>2026-04-09T13:44:43.239Z</time></trkpt><trkpt lat="38.4899984" lon="16.0954582"><ele>393.0</ele><time>2026-04-09T13:44:44.239Z</time></trkpt><trkpt lat="38.4900949" lon="16.0955349"><ele>393.0</ele><time>2026-04-09T13:44:45.238Z</time></trkpt><trkpt lat="38.4901913" lon="16.0955836"><ele>393.0</ele><time>2026-04-09T13:44:46.239Z</time></trkpt><trkpt lat="38.4902844" lon="16.0955794"><ele>393.0</ele><time>2026-04-09T13:44:47.239Z</time></trkpt><trkpt lat="38.4903642" lon="16.0955256"><ele>393.0</ele><time>2026-04-09T13:44:48.239Z</time></trkpt><trkpt lat="38.4904161" lon="16.0954327"><ele>393.0</ele><time>2026-04-09T13:44:49.239Z</time></trkpt><trkpt lat="38.490454" lon="16.0953213"><ele>393.79999999999995</ele><time>2026-04-09T13:44:50.239Z</time></trkpt><trkpt lat="38.4904926" lon="16.0952133"><ele>394.6</ele><time>2026-04-09T13:44:51.239Z</time></trkpt><trkpt lat="38.4905337" lon="16.0951197"><ele>395.4</ele><time>2026-04-09T13:44:52.239Z</time></trkpt><trkpt lat="38.4905829" lon="16.0950418"><ele>396.20000000000005</ele><time>2026-04-09T13:44:53.239Z</time></trkpt><trkpt lat="38.4906544" lon="16.0949747"><ele>397.0</ele><time>2026-04-09T13:44:54.239Z</time></trkpt><trkpt lat="38.4907495" lon="16.0949019"><ele>392.0</ele><time>2026-04-09T13:44:55.239Z</time></trkpt><trkpt lat="38.4908589" lon="16.0948136"><ele>387.0</ele><time>2026-04-09T13:44:56.239Z</time></trkpt><trkpt lat="38.4909844" lon="16.0947278"><ele>382.0</ele><time>2026-04-09T13:44:57.239Z</time></trkpt><trkpt lat="38.4911177" lon="16.094648"><ele>377.0</ele><time>2026-04-09T13:44:58.239Z</time></trkpt><trkpt lat="38.4912422" lon="16.0945821"><ele>377.40000000000003</ele><time>2026-04-09T13:44:59.239Z</time></trkpt><trkpt lat="38.4913524" lon="16.0945205"><ele>377.8</ele><time>2026-04-09T13:45:00.239Z</time></trkpt><trkpt lat="38.4914518" lon="16.0944911"><ele>378.2</ele><time>2026-04-09T13:45:01.239Z</time></trkpt><trkpt lat="38.4915528" lon="16.0944909"><ele>378.6</ele><time>2026-04-09T13:45:02.239Z</time></trkpt><trkpt lat="38.4916576" lon="16.094526"><ele>379.0</ele><time>2026-04-09T13:45:03.239Z</time></trkpt><trkpt lat="38.4917649" lon="16.094557"><ele>379.0</ele><time>2026-04-09T13:45:04.239Z</time></trkpt><trkpt lat="38.4918704" lon="16.0945716"><ele>379.0</ele><time>2026-04-09T13:45:05.239Z</time></trkpt><trkpt lat="38.4919773" lon="16.0945592"><ele>379.0</ele><time>2026-04-09T13:45:06.239Z</time></trkpt><trkpt lat="38.4920929" lon="16.0945073"><ele>379.0</ele><time>2026-04-09T13:45:07.239Z</time></trkpt><trkpt lat="38.4922132" lon="16.0944488"><ele>379.0</ele><time>2026-04-09T13:45:08.239Z</time></trkpt><trkpt lat="38.4923259" lon="16.0943841"><ele>379.0</ele><time>2026-04-09T13:45:09.239Z</time></trkpt><trkpt lat="38.4924324" lon="16.0943254"><ele>379.0</ele><time>2026-04-09T13:45:10.239Z</time></trkpt><trkpt lat="38.4925292" lon="16.0942821"><ele>379.0</ele><time>2026-04-09T13:45:11.239Z</time></trkpt><trkpt lat="38.4926237" lon="16.0942477"><ele>379.0</ele><time>2026-04-09T13:45:12.238Z</time></trkpt><trkpt lat="38.4927378" lon="16.0942316"><ele>379.0</ele><time>2026-04-09T13:45:13.239Z</time></trkpt><trkpt lat="38.4928688" lon="16.0942371"><ele>379.0</ele><time>2026-04-09T13:45:14.238Z</time></trkpt><trkpt lat="38.493008" lon="16.0942494"><ele>379.0</ele><time>2026-04-09T13:45:15.239Z</time></trkpt><trkpt lat="38.4931506" lon="16.0942636"><ele>379.0</ele><time>2026-04-09T13:45:16.239Z</time></trkpt><trkpt lat="38.493306" lon="16.0942625"><ele>378.5</ele><time>2026-04-09T13:45:17.239Z</time></trkpt><trkpt lat="38.493464" lon="16.0942523"><ele>378.0</ele><time>2026-04-09T13:45:18.239Z</time></trkpt><trkpt lat="38.4936056" lon="16.094238"><ele>377.5</ele><time>2026-04-09T13:45:19.238Z</time></trkpt><trkpt lat="38.4937378" lon="16.0942145"><ele>377.0</ele><time>2026-04-09T13:45:20.239Z</time></trkpt><trkpt lat="38.493857" lon="16.0941844"><ele>375.8</ele><time>2026-04-09T13:45:21.239Z</time></trkpt><trkpt lat="38.4939679" lon="16.0941484"><ele>374.6</ele><time>2026-04-09T13:45:22.239Z</time></trkpt><trkpt lat="38.4940663" lon="16.0941065"><ele>373.40000000000003</ele><time>2026-04-09T13:45:23.239Z</time></trkpt><trkpt lat="38.4941561" lon="16.0940561"><ele>372.20000000000005</ele><time>2026-04-09T13:45:24.239Z</time></trkpt><trkpt lat="38.4942403" lon="16.0939838"><ele>371.0</ele><time>2026-04-09T13:45:25.239Z</time></trkpt><trkpt lat="38.4943161" lon="16.093876"><ele>369.25</ele><time>2026-04-09T13:45:26.239Z</time></trkpt><trkpt lat="38.4943865" lon="16.0937506"><ele>367.5</ele><time>2026-04-09T13:45:27.239Z</time></trkpt><trkpt lat="38.4944517" lon="16.093627"><ele>365.75</ele><time>2026-04-09T13:45:28.239Z</time></trkpt><trkpt lat="38.494497" lon="16.0935114"><ele>364.0</ele><time>2026-04-09T13:45:29.239Z</time></trkpt><trkpt lat="38.4945429" lon="16.0933781"><ele>362.5</ele><time>2026-04-09T13:45:30.239Z</time></trkpt><trkpt lat="38.4945875" lon="16.0932322"><ele>361.0</ele><time>2026-04-09T13:45:31.239Z</time></trkpt><trkpt lat="38.4946215" lon="16.0930777"><ele>359.5</ele><time>2026-04-09T13:45:32.239Z</time></trkpt><trkpt lat="38.4946593" lon="16.0929084"><ele>358.0</ele><time>2026-04-09T13:45:33.239Z</time></trkpt><trkpt lat="38.4946833" lon="16.092719"><ele>358.0</ele><time>2026-04-09T13:45:34.239Z</time></trkpt><trkpt lat="38.4947093" lon="16.0925739"><ele>358.0</ele><time>2026-04-09T13:45:35.239Z</time></trkpt><trkpt lat="38.494725" lon="16.0924563"><ele>358.0</ele><time>2026-04-09T13:45:36.239Z</time></trkpt><trkpt lat="38.4947468" lon="16.0923588"><ele>358.0</ele><time>2026-04-09T13:45:37.239Z</time></trkpt><trkpt lat="38.4947775" lon="16.0922847"><ele>358.0</ele><time>2026-04-09T13:45:38.239Z</time></trkpt><trkpt lat="38.4948327" lon="16.0922327"><ele>358.0</ele><time>2026-04-09T13:45:39.239Z</time></trkpt><trkpt lat="38.4949049" lon="16.0921964"><ele>356.75</ele><time>2026-04-09T13:45:40.239Z</time></trkpt><trkpt lat="38.4950029" lon="16.0921887"><ele>355.5</ele><time>2026-04-09T13:45:41.239Z</time></trkpt><trkpt lat="38.4951293" lon="16.0922018"><ele>354.25</ele><time>2026-04-09T13:45:42.239Z</time></trkpt><trkpt lat="38.4952867" lon="16.0922275"><ele>353.0</ele><time>2026-04-09T13:45:43.238Z</time></trkpt><trkpt lat="38.4954361" lon="16.092244"><ele>352.75</ele><time>2026-04-09T13:45:44.239Z</time></trkpt><trkpt lat="38.4955687" lon="16.0922438"><ele>352.5</ele><time>2026-04-09T13:45:45.239Z</time></trkpt><trkpt lat="38.4956858" lon="16.0922318"><ele>352.25</ele><time>2026-04-09T13:45:46.238Z</time></trkpt><trkpt lat="38.4957932" lon="16.0922124"><ele>352.0</ele><time>2026-04-09T13:45:47.238Z</time></trkpt><trkpt lat="38.4958968" lon="16.0921895"><ele>352.0</ele><time>2026-04-09T13:45:48.239Z</time></trkpt><trkpt lat="38.4959934" lon="16.0921678"><ele>352.0</ele><time>2026-04-09T13:45:49.238Z</time></trkpt><trkpt lat="38.496078" lon="16.0921453"><ele>352.0</ele><time>2026-04-09T13:45:50.239Z</time></trkpt><trkpt lat="38.4961515" lon="16.0921185"><ele>352.0</ele><time>2026-04-09T13:45:51.239Z</time></trkpt><trkpt lat="38.496222" lon="16.0920906"><ele>352.0</ele><time>2026-04-09T13:45:52.239Z</time></trkpt><trkpt lat="38.4962864" lon="16.0920562"><ele>352.0</ele><time>2026-04-09T13:45:53.239Z</time></trkpt><trkpt lat="38.4963699" lon="16.0919896"><ele>351.66666666666663</ele><time>2026-04-09T13:45:55.238Z</time></trkpt><trkpt lat="38.4964507" lon="16.0919479"><ele>351.3333333333333</ele><time>2026-04-09T13:45:58.239Z</time></trkpt><trkpt lat="38.4965072" lon="16.0919094"><ele>351.0</ele><time>2026-04-09T13:46:00.239Z</time></trkpt><trkpt lat="38.4965565" lon="16.0918527"><ele>350.6666666666667</ele><time>2026-04-09T13:46:02.239Z</time></trkpt><trkpt lat="38.4966058" lon="16.091788"><ele>350.33333333333337</ele><time>2026-04-09T13:46:35.239Z</time></trkpt><trkpt lat="38.4967216" lon="16.091699"><ele>350.0</ele><time>2026-04-09T13:46:37.239Z</time></trkpt><trkpt lat="38.4968054" lon="16.0916336"><ele>349.6</ele><time>2026-04-09T13:46:38.239Z</time></trkpt><trkpt lat="38.4968964" lon="16.0915699"><ele>349.2</ele><time>2026-04-09T13:46:39.239Z</time></trkpt><trkpt lat="38.4969876" lon="16.091492"><ele>348.79999999999995</ele><time>2026-04-09T13:46:40.239Z</time></trkpt><trkpt lat="38.4970737" lon="16.0914006"><ele>348.4</ele><time>2026-04-09T13:46:41.239Z</time></trkpt><trkpt lat="38.4971489" lon="16.0913036"><ele>348.0</ele><time>2026-04-09T13:46:42.238Z</time></trkpt><trkpt lat="38.4972155" lon="16.0912145"><ele>347.3333333333333</ele><time>2026-04-09T13:46:43.239Z</time></trkpt><trkpt lat="38.4972642" lon="16.0911283"><ele>346.6666666666667</ele><time>2026-04-09T13:46:44.239Z</time></trkpt><trkpt lat="38.4972928" lon="16.0910432"><ele>346.0</ele><time>2026-04-09T13:46:45.238Z</time></trkpt><trkpt lat="38.4973145" lon="16.0909584"><ele>345.33333333333337</ele><time>2026-04-09T13:46:46.239Z</time></trkpt><trkpt lat="38.4973487" lon="16.0908096"><ele>344.6666666666667</ele><time>2026-04-09T13:46:48.239Z</time></trkpt><trkpt lat="38.4973654" lon="16.0907033"><ele>344.0</ele><time>2026-04-09T13:46:50.239Z</time></trkpt><trkpt lat="38.4973723" lon="16.090587"><ele>343.6</ele><time>2026-04-09T13:46:53.239Z</time></trkpt><trkpt lat="38.4973864" lon="16.0904766"><ele>343.2</ele><time>2026-04-09T13:46:55.239Z</time></trkpt><trkpt lat="38.4973903" lon="16.0903318"><ele>342.8</ele><time>2026-04-09T13:46:57.238Z</time></trkpt><trkpt lat="38.4973444" lon="16.0901635"><ele>342.40000000000003</ele><time>2026-04-09T13:46:59.238Z</time></trkpt><trkpt lat="38.4973097" lon="16.0900534"><ele>342.0</ele><time>2026-04-09T13:47:00.239Z</time></trkpt><trkpt lat="38.4972701" lon="16.0899176"><ele>341.8</ele><time>2026-04-09T13:47:01.238Z</time></trkpt><trkpt lat="38.4972338" lon="16.089767"><ele>341.6</ele><time>2026-04-09T13:47:02.239Z</time></trkpt><trkpt lat="38.497212" lon="16.0896299"><ele>341.40000000000003</ele><time>2026-04-09T13:47:03.239Z</time></trkpt><trkpt lat="38.4972011" lon="16.0895086"><ele>341.20000000000005</ele><time>2026-04-09T13:47:04.239Z</time></trkpt><trkpt lat="38.4972009" lon="16.0894081"><ele>341.0</ele><time>2026-04-09T13:47:05.239Z</time></trkpt><trkpt lat="38.4972018" lon="16.0893215"><ele>341.0</ele><time>2026-04-09T13:47:06.239Z</time></trkpt><trkpt lat="38.4972093" lon="16.0892407"><ele>341.0</ele><time>2026-04-09T13:47:07.239Z</time></trkpt><trkpt lat="38.4972178" lon="16.0890887"><ele>341.0</ele><time>2026-04-09T13:47:09.239Z</time></trkpt><trkpt lat="38.4972231" lon="16.0890011"><ele>341.0</ele><time>2026-04-09T13:47:10.239Z</time></trkpt><trkpt lat="38.4972326" lon="16.0889153"><ele>341.0</ele><time>2026-04-09T13:47:11.239Z</time></trkpt><trkpt lat="38.4972424" lon="16.0888311"><ele>341.0</ele><time>2026-04-09T13:47:12.239Z</time></trkpt><trkpt lat="38.497263" lon="16.0886754"><ele>341.0</ele><time>2026-04-09T13:47:14.239Z</time></trkpt><trkpt lat="38.4972687" lon="16.0885909"><ele>341.0</ele><time>2026-04-09T13:47:15.238Z</time></trkpt><trkpt lat="38.4972735" lon="16.0885013"><ele>341.0</ele><time>2026-04-09T13:47:16.239Z</time></trkpt><trkpt lat="38.497277" lon="16.0884145"><ele>341.0</ele><time>2026-04-09T13:47:17.239Z</time></trkpt><trkpt lat="38.4972815" lon="16.0883253"><ele>341.0</ele><time>2026-04-09T13:47:18.239Z</time></trkpt><trkpt lat="38.4972863" lon="16.0882408"><ele>341.0</ele><time>2026-04-09T13:47:19.239Z</time></trkpt><trkpt lat="38.4972885" lon="16.0881565"><ele>341.0</ele><time>2026-04-09T13:47:20.239Z</time></trkpt><trkpt lat="38.4972781" lon="16.0879955"><ele>340.42857142857144</ele><time>2026-04-09T13:47:22.239Z</time></trkpt><trkpt lat="38.497258" lon="16.087918"><ele>339.8571428571429</ele><time>2026-04-09T13:47:23.239Z</time></trkpt><trkpt lat="38.4972236" lon="16.0877787"><ele>339.28571428571433</ele><time>2026-04-09T13:47:25.239Z</time></trkpt><trkpt lat="38.4971849" lon="16.0877072"><ele>338.7142857142857</ele><time>2026-04-09T13:47:26.238Z</time></trkpt><trkpt lat="38.4971397" lon="16.087645"><ele>338.14285714285717</ele><time>2026-04-09T13:47:27.238Z</time></trkpt><trkpt lat="38.4970922" lon="16.0875913"><ele>337.5714285714286</ele><time>2026-04-09T13:47:28.239Z</time></trkpt><trkpt lat="38.4970331" lon="16.0875406"><ele>337.0</ele><time>2026-04-09T13:47:29.239Z</time></trkpt><trkpt lat="38.4969739" lon="16.0875011"><ele>337.00000000000006</ele><time>2026-04-09T13:47:30.239Z</time></trkpt><trkpt lat="38.4969135" lon="16.0874768"><ele>337.0</ele><time>2026-04-09T13:47:31.239Z</time></trkpt><trkpt lat="38.4968512" lon="16.0874525"><ele>337.0</ele><time>2026-04-09T13:47:32.238Z</time></trkpt><trkpt lat="38.4967855" lon="16.0874133"><ele>337.0</ele><time>2026-04-09T13:47:33.238Z</time></trkpt><trkpt lat="38.4967094" lon="16.0873868"><ele>337.0</ele><time>2026-04-09T13:47:34.238Z</time></trkpt><trkpt lat="38.4966381" lon="16.0873604"><ele>337.00000000000006</ele><time>2026-04-09T13:47:35.239Z</time></trkpt><trkpt lat="38.4965588" lon="16.0873232"><ele>337.0</ele><time>2026-04-09T13:47:36.239Z</time></trkpt><trkpt lat="38.4964805" lon="16.0872813"><ele>335.16666666666663</ele><time>2026-04-09T13:47:37.239Z</time></trkpt><trkpt lat="38.4964008" lon="16.0872494"><ele>333.3333333333333</ele><time>2026-04-09T13:47:38.239Z</time></trkpt><trkpt lat="38.4963272" lon="16.0872155"><ele>331.5</ele><time>2026-04-09T13:47:39.239Z</time></trkpt><trkpt lat="38.4962543" lon="16.0871885"><ele>329.6666666666667</ele><time>2026-04-09T13:47:40.239Z</time></trkpt><trkpt lat="38.4961792" lon="16.0871579"><ele>327.83333333333337</ele><time>2026-04-09T13:47:41.239Z</time></trkpt><trkpt lat="38.4961049" lon="16.0871399"><ele>326.0</ele><time>2026-04-09T13:47:42.239Z</time></trkpt><trkpt lat="38.4960271" lon="16.0871145"><ele>326.0</ele><time>2026-04-09T13:47:43.239Z</time></trkpt><trkpt lat="38.4959498" lon="16.0870835"><ele>326.0</ele><time>2026-04-09T13:47:44.239Z</time></trkpt><trkpt lat="38.4958628" lon="16.0870545"><ele>326.0</ele><time>2026-04-09T13:47:45.239Z</time></trkpt><trkpt lat="38.4957707" lon="16.087012"><ele>326.0</ele><time>2026-04-09T13:47:46.239Z</time></trkpt><trkpt lat="38.4956793" lon="16.08697"><ele>326.0</ele><time>2026-04-09T13:47:47.239Z</time></trkpt><trkpt lat="38.4955968" lon="16.0869181"><ele>326.0</ele><time>2026-04-09T13:47:48.239Z</time></trkpt><trkpt lat="38.4955096" lon="16.0868676"><ele>326.0</ele><time>2026-04-09T13:47:49.239Z</time></trkpt><trkpt lat="38.4954281" lon="16.0868123"><ele>326.0</ele><time>2026-04-09T13:47:50.238Z</time></trkpt><trkpt lat="38.4953584" lon="16.0867608"><ele>326.0</ele><time>2026-04-09T13:47:51.239Z</time></trkpt><trkpt lat="38.49531" lon="16.0866797"><ele>326.0</ele><time>2026-04-09T13:47:52.238Z</time></trkpt><trkpt lat="38.4952756" lon="16.0865829"><ele>326.0</ele><time>2026-04-09T13:47:53.238Z</time></trkpt><trkpt lat="38.4952598" lon="16.0864487"><ele>323.6</ele><time>2026-04-09T13:47:54.239Z</time></trkpt><trkpt lat="38.4952443" lon="16.0863316"><ele>321.20000000000005</ele><time>2026-04-09T13:47:55.239Z</time></trkpt><trkpt lat="38.4952367" lon="16.086236"><ele>318.79999999999995</ele><time>2026-04-09T13:47:56.239Z</time></trkpt><trkpt lat="38.4952077" lon="16.0861392"><ele>316.4</ele><time>2026-04-09T13:47:58.239Z</time></trkpt><trkpt lat="38.4951094" lon="16.0860749"><ele>314.0</ele><time>2026-04-09T13:48:52.239Z</time></trkpt><trkpt lat="38.4950261" lon="16.0860308"><ele>314.0</ele><time>2026-04-09T13:48:53.239Z</time></trkpt><trkpt lat="38.4949195" lon="16.0859792"><ele>314.0</ele><time>2026-04-09T13:48:54.239Z</time></trkpt><trkpt lat="38.494794" lon="16.0859194"><ele>314.0</ele><time>2026-04-09T13:48:55.239Z</time></trkpt><trkpt lat="38.4946429" lon="16.0858605"><ele>314.0</ele><time>2026-04-09T13:48:56.239Z</time></trkpt><trkpt lat="38.4944907" lon="16.0857914"><ele>310.33333333333337</ele><time>2026-04-09T13:48:57.239Z</time></trkpt><trkpt lat="38.4943325" lon="16.0857136"><ele>306.6666666666667</ele><time>2026-04-09T13:48:58.239Z</time></trkpt><trkpt lat="38.4941969" lon="16.0855976"><ele>303.0</ele><time>2026-04-09T13:48:59.239Z</time></trkpt><trkpt lat="38.4940482" lon="16.0854515"><ele>303.0</ele><time>2026-04-09T13:49:00.239Z</time></trkpt><trkpt lat="38.4939038" lon="16.0852959"><ele>303.0</ele><time>2026-04-09T13:49:01.239Z</time></trkpt><trkpt lat="38.4937664" lon="16.0851411"><ele>303.0</ele><time>2026-04-09T13:49:02.239Z</time></trkpt><trkpt lat="38.4936398" lon="16.0849906"><ele>303.0</ele><time>2026-04-09T13:49:03.238Z</time></trkpt><trkpt lat="38.4935259" lon="16.0848083"><ele>303.0</ele><time>2026-04-09T13:49:04.239Z</time></trkpt><trkpt lat="38.4934235" lon="16.0846107"><ele>303.0</ele><time>2026-04-09T13:49:05.239Z</time></trkpt><trkpt lat="38.4933341" lon="16.084428"><ele>303.0</ele><time>2026-04-09T13:49:06.239Z</time></trkpt><trkpt lat="38.4932365" lon="16.0842807"><ele>303.0</ele><time>2026-04-09T13:49:07.239Z</time></trkpt><trkpt lat="38.4931144" lon="16.0841509"><ele>303.0</ele><time>2026-04-09T13:49:08.239Z</time></trkpt><trkpt lat="38.4929644" lon="16.0840503"><ele>304.3333333333333</ele><time>2026-04-09T13:49:09.238Z</time></trkpt><trkpt lat="38.4928298" lon="16.083968"><ele>305.66666666666663</ele><time>2026-04-09T13:49:10.239Z</time></trkpt><trkpt lat="38.4927112" lon="16.0838409"><ele>307.0</ele><time>2026-04-09T13:49:11.239Z</time></trkpt><trkpt lat="38.492602" lon="16.0836778"><ele>307.0</ele><time>2026-04-09T13:49:12.238Z</time></trkpt><trkpt lat="38.4924997" lon="16.0834962"><ele>307.0</ele><time>2026-04-09T13:49:13.239Z</time></trkpt><trkpt lat="38.4924049" lon="16.0833251"><ele>307.0</ele><time>2026-04-09T13:49:14.239Z</time></trkpt><trkpt lat="38.4923239" lon="16.0831567"><ele>304.75</ele><time>2026-04-09T13:49:15.239Z</time></trkpt><trkpt lat="38.4922509" lon="16.0829949"><ele>302.5</ele><time>2026-04-09T13:49:16.239Z</time></trkpt><trkpt lat="38.4921878" lon="16.0828389"><ele>300.25</ele><time>2026-04-09T13:49:17.239Z</time></trkpt><trkpt lat="38.4921228" lon="16.0827095"><ele>298.0</ele><time>2026-04-09T13:49:18.239Z</time></trkpt><trkpt lat="38.4920497" lon="16.0826221"><ele>298.0</ele><time>2026-04-09T13:49:19.239Z</time></trkpt><trkpt lat="38.4919516" lon="16.0825754"><ele>298.0</ele><time>2026-04-09T13:49:20.239Z</time></trkpt><trkpt lat="38.4918251" lon="16.082574"><ele>298.0</ele><time>2026-04-09T13:49:21.239Z</time></trkpt><trkpt lat="38.491694" lon="16.0826088"><ele>298.0</ele><time>2026-04-09T13:49:22.239Z</time></trkpt><trkpt lat="38.4915737" lon="16.0826569"><ele>298.0</ele><time>2026-04-09T13:49:23.239Z</time></trkpt><trkpt lat="38.4914535" lon="16.0826959"><ele>298.0</ele><time>2026-04-09T13:49:24.239Z</time></trkpt><trkpt lat="38.4913213" lon="16.082724"><ele>298.0</ele><time>2026-04-09T13:49:25.239Z</time></trkpt><trkpt lat="38.4911989" lon="16.0827406"><ele>298.0</ele><time>2026-04-09T13:49:26.238Z</time></trkpt><trkpt lat="38.4910775" lon="16.0827862"><ele>296.5</ele><time>2026-04-09T13:49:27.239Z</time></trkpt><trkpt lat="38.4909519" lon="16.0828827"><ele>295.0</ele><time>2026-04-09T13:49:28.239Z</time></trkpt><trkpt lat="38.4908442" lon="16.082985"><ele>293.5</ele><time>2026-04-09T13:49:29.239Z</time></trkpt><trkpt lat="38.4907375" lon="16.0831023"><ele>292.0</ele><time>2026-04-09T13:49:30.239Z</time></trkpt><trkpt lat="38.4906346" lon="16.0832365"><ele>292.25</ele><time>2026-04-09T13:49:31.238Z</time></trkpt><trkpt lat="38.4905275" lon="16.0833873"><ele>292.5</ele><time>2026-04-09T13:49:32.238Z</time></trkpt><trkpt lat="38.4904246" lon="16.0835254"><ele>292.75</ele><time>2026-04-09T13:49:33.239Z</time></trkpt><trkpt lat="38.4903303" lon="16.0836533"><ele>293.0</ele><time>2026-04-09T13:49:34.239Z</time></trkpt><trkpt lat="38.4902505" lon="16.0837828"><ele>293.0</ele><time>2026-04-09T13:49:35.239Z</time></trkpt><trkpt lat="38.4901741" lon="16.0838962"><ele>293.0</ele><time>2026-04-09T13:49:36.239Z</time></trkpt><trkpt lat="38.4901051" lon="16.0839974"><ele>293.0</ele><time>2026-04-09T13:49:37.238Z</time></trkpt><trkpt lat="38.490043" lon="16.0840788"><ele>293.0</ele><time>2026-04-09T13:49:38.238Z</time></trkpt><trkpt lat="38.4899852" lon="16.0841439"><ele>293.0</ele><time>2026-04-09T13:49:39.239Z</time></trkpt><trkpt lat="38.4898824" lon="16.0841664"><ele>293.0</ele><time>2026-04-09T13:49:41.238Z</time></trkpt><trkpt lat="38.4898054" lon="16.0841393"><ele>293.0</ele><time>2026-04-09T13:49:42.239Z</time></trkpt><trkpt lat="38.4897211" lon="16.0840926"><ele>293.0</ele><time>2026-04-09T13:49:43.238Z</time></trkpt><trkpt lat="38.4896447" lon="16.0840549"><ele>293.0</ele><time>2026-04-09T13:49:44.239Z</time></trkpt><trkpt lat="38.489582" lon="16.0840165"><ele>293.0</ele><time>2026-04-09T13:49:45.239Z</time></trkpt><trkpt lat="38.4895258" lon="16.0838816"><ele>293.0</ele><time>2026-04-09T13:49:47.239Z</time></trkpt><trkpt lat="38.4895411" lon="16.083773"><ele>293.0</ele><time>2026-04-09T13:49:48.239Z</time></trkpt><trkpt lat="38.4895858" lon="16.0836419"><ele>293.0</ele><time>2026-04-09T13:49:49.239Z</time></trkpt><trkpt lat="38.4896384" lon="16.0835013"><ele>293.0</ele><time>2026-04-09T13:49:50.239Z</time></trkpt><trkpt lat="38.4896913" lon="16.083349"><ele>293.0</ele><time>2026-04-09T13:49:51.239Z</time></trkpt><trkpt lat="38.4897471" lon="16.0831533"><ele>291.5</ele><time>2026-04-09T13:49:52.238Z</time></trkpt><trkpt lat="38.4898032" lon="16.0829623"><ele>290.0</ele><time>2026-04-09T13:49:53.239Z</time></trkpt><trkpt lat="38.4898523" lon="16.0827891"><ele>288.5</ele><time>2026-04-09T13:49:54.239Z</time></trkpt><trkpt lat="38.4898985" lon="16.082626"><ele>287.0</ele><time>2026-04-09T13:49:55.239Z</time></trkpt><trkpt lat="38.4899475" lon="16.0824631"><ele>285.5</ele><time>2026-04-09T13:49:56.239Z</time></trkpt><trkpt lat="38.4899999" lon="16.0822959"><ele>284.0</ele><time>2026-04-09T13:49:57.239Z</time></trkpt><trkpt lat="38.4900547" lon="16.0821394"><ele>282.5</ele><time>2026-04-09T13:49:58.239Z</time></trkpt><trkpt lat="38.4900957" lon="16.0820002"><ele>281.0</ele><time>2026-04-09T13:49:59.239Z</time></trkpt><trkpt lat="38.4901287" lon="16.0818787"><ele>281.0</ele><time>2026-04-09T13:50:00.239Z</time></trkpt><trkpt lat="38.4901598" lon="16.0817727"><ele>281.0</ele><time>2026-04-09T13:50:01.239Z</time></trkpt><trkpt lat="38.4901879" lon="16.0816844"><ele>281.0</ele><time>2026-04-09T13:50:02.239Z</time></trkpt><trkpt lat="38.4902276" lon="16.0815525"><ele>281.0</ele><time>2026-04-09T13:50:04.239Z</time></trkpt><trkpt lat="38.4902695" lon="16.0814614"><ele>281.0</ele><time>2026-04-09T13:50:06.239Z</time></trkpt><trkpt lat="38.4903061" lon="16.0813847"><ele>281.0</ele><time>2026-04-09T13:50:09.238Z</time></trkpt><trkpt lat="38.4903279" lon="16.0812935"><ele>281.0</ele><time>2026-04-09T13:50:11.239Z</time></trkpt><trkpt lat="38.4903477" lon="16.081164"><ele>281.0</ele><time>2026-04-09T13:50:13.239Z</time></trkpt><trkpt lat="38.4903829" lon="16.0810574"><ele>281.0</ele><time>2026-04-09T13:50:15.239Z</time></trkpt><trkpt lat="38.4904121" lon="16.0809444"><ele>281.0</ele><time>2026-04-09T13:50:17.239Z</time></trkpt><trkpt lat="38.4904487" lon="16.0808547"><ele>281.0</ele><time>2026-04-09T13:50:19.239Z</time></trkpt><trkpt lat="38.4905001" lon="16.0807839"><ele>281.0</ele><time>2026-04-09T13:50:22.239Z</time></trkpt><trkpt lat="38.4905344" lon="16.0806935"><ele>279.1666666666667</ele><time>2026-04-09T13:50:30.239Z</time></trkpt><trkpt lat="38.4904884" lon="16.0806011"><ele>277.33333333333337</ele><time>2026-04-09T13:50:35.239Z</time></trkpt><trkpt lat="38.4904154" lon="16.0805729"><ele>275.5</ele><time>2026-04-09T13:50:37.239Z</time></trkpt><trkpt lat="38.490333" lon="16.0805699"><ele>273.6666666666667</ele><time>2026-04-09T13:50:39.239Z</time></trkpt><trkpt lat="38.490252" lon="16.0805806"><ele>271.8333333333333</ele><time>2026-04-09T13:50:42.238Z</time></trkpt><trkpt lat="38.4901798" lon="16.0806036"><ele>270.0</ele><time>2026-04-09T13:50:44.239Z</time></trkpt><trkpt lat="38.4900477" lon="16.0806197"><ele>269.8</ele><time>2026-04-09T13:50:46.239Z</time></trkpt><trkpt lat="38.4899701" lon="16.0806265"><ele>269.6</ele><time>2026-04-09T13:50:47.239Z</time></trkpt><trkpt lat="38.4898757" lon="16.0806344"><ele>269.4</ele><time>2026-04-09T13:50:48.239Z</time></trkpt><trkpt lat="38.4897708" lon="16.0806414"><ele>269.2</ele><time>2026-04-09T13:50:49.239Z</time></trkpt><trkpt lat="38.4896441" lon="16.0806559"><ele>269.0</ele><time>2026-04-09T13:50:50.239Z</time></trkpt><trkpt lat="38.4895178" lon="16.0806725"><ele>267.75</ele><time>2026-04-09T13:50:51.239Z</time></trkpt><trkpt lat="38.489395" lon="16.0806939"><ele>266.5</ele><time>2026-04-09T13:50:52.239Z</time></trkpt><trkpt lat="38.4892736" lon="16.0807038"><ele>265.25</ele><time>2026-04-09T13:50:53.239Z</time></trkpt><trkpt lat="38.4891552" lon="16.0807085"><ele>264.0</ele><time>2026-04-09T13:50:54.239Z</time></trkpt><trkpt lat="38.489047" lon="16.0807229"><ele>264.0</ele><time>2026-04-09T13:50:55.239Z</time></trkpt><trkpt lat="38.4889423" lon="16.080728"><ele>264.0</ele><time>2026-04-09T13:50:56.239Z</time></trkpt><trkpt lat="38.488844" lon="16.0807319"><ele>264.0</ele><time>2026-04-09T13:50:57.239Z</time></trkpt><trkpt lat="38.4887632" lon="16.0807343"><ele>264.0</ele><time>2026-04-09T13:50:58.239Z</time></trkpt><trkpt lat="38.4886808" lon="16.0807282"><ele>264.0</ele><time>2026-04-09T13:50:59.239Z</time></trkpt><trkpt lat="38.4886194" lon="16.0806974"><ele>264.0</ele><time>2026-04-09T13:51:00.239Z</time></trkpt><trkpt lat="38.48855" lon="16.0805452"><ele>263.0</ele><time>2026-04-09T13:51:02.239Z</time></trkpt><trkpt lat="38.4885319" lon="16.0804313"><ele>262.0</ele><time>2026-04-09T13:51:03.239Z</time></trkpt><trkpt lat="38.4885304" lon="16.0803141"><ele>261.0</ele><time>2026-04-09T13:51:04.239Z</time></trkpt><trkpt lat="38.4885529" lon="16.080198"><ele>260.0</ele><time>2026-04-09T13:51:05.239Z</time></trkpt><trkpt lat="38.488602" lon="16.0800848"><ele>259.0</ele><time>2026-04-09T13:51:06.239Z</time></trkpt><trkpt lat="38.4886711" lon="16.0799699"><ele>259.0</ele><time>2026-04-09T13:51:07.239Z</time></trkpt><trkpt lat="38.4887523" lon="16.0798539"><ele>259.0</ele><time>2026-04-09T13:51:08.239Z</time></trkpt><trkpt lat="38.488844" lon="16.0797501"><ele>259.0</ele><time>2026-04-09T13:51:09.239Z</time></trkpt><trkpt lat="38.4889359" lon="16.079644"><ele>259.0</ele><time>2026-04-09T13:51:10.239Z</time></trkpt><trkpt lat="38.4890235" lon="16.079535"><ele>259.0</ele><time>2026-04-09T13:51:11.239Z</time></trkpt><trkpt lat="38.4891019" lon="16.079406"><ele>259.0</ele><time>2026-04-09T13:51:12.239Z</time></trkpt><trkpt lat="38.4891843" lon="16.0792928"><ele>259.0</ele><time>2026-04-09T13:51:13.239Z</time></trkpt><trkpt lat="38.4892649" lon="16.0791777"><ele>259.0</ele><time>2026-04-09T13:51:14.239Z</time></trkpt><trkpt lat="38.4893452" lon="16.0790703"><ele>258.0</ele><time>2026-04-09T13:51:15.239Z</time></trkpt><trkpt lat="38.4894299" lon="16.0789631"><ele>257.0</ele><time>2026-04-09T13:51:16.238Z</time></trkpt><trkpt lat="38.4895016" lon="16.0788519"><ele>256.0</ele><time>2026-04-09T13:51:17.239Z</time></trkpt><trkpt lat="38.4895756" lon="16.0787437"><ele>255.0</ele><time>2026-04-09T13:51:18.239Z</time></trkpt><trkpt lat="38.4896487" lon="16.0786429"><ele>255.0</ele><time>2026-04-09T13:51:19.239Z</time></trkpt><trkpt lat="38.4897147" lon="16.078546"><ele>255.0</ele><time>2026-04-09T13:51:20.239Z</time></trkpt><trkpt lat="38.4897914" lon="16.0784495"><ele>255.0</ele><time>2026-04-09T13:51:21.239Z</time></trkpt><trkpt lat="38.4898702" lon="16.0783383"><ele>255.0</ele><time>2026-04-09T13:51:22.238Z</time></trkpt><trkpt lat="38.489951" lon="16.0782375"><ele>255.0</ele><time>2026-04-09T13:51:23.239Z</time></trkpt><trkpt lat="38.4900307" lon="16.0781483"><ele>253.0</ele><time>2026-04-09T13:51:24.239Z</time></trkpt><trkpt lat="38.4901002" lon="16.0780522"><ele>251.0</ele><time>2026-04-09T13:51:25.239Z</time></trkpt><trkpt lat="38.4901686" lon="16.0779567"><ele>249.0</ele><time>2026-04-09T13:51:26.239Z</time></trkpt><trkpt lat="38.490229" lon="16.0778683"><ele>247.0</ele><time>2026-04-09T13:51:27.239Z</time></trkpt><trkpt lat="38.4902855" lon="16.0777829"><ele>245.0</ele><time>2026-04-09T13:51:28.239Z</time></trkpt><trkpt lat="38.4903415" lon="16.0776933"><ele>245.00000000000003</ele><time>2026-04-09T13:51:29.239Z</time></trkpt><trkpt lat="38.4903838" lon="16.0776087"><ele>245.0</ele><time>2026-04-09T13:51:30.239Z</time></trkpt><trkpt lat="38.4904252" lon="16.0775325"><ele>245.0</ele><time>2026-04-09T13:51:31.239Z</time></trkpt><trkpt lat="38.4904594" lon="16.0774605"><ele>245.0</ele><time>2026-04-09T13:51:32.239Z</time></trkpt><trkpt lat="38.4905413" lon="16.0773345"><ele>245.00000000000003</ele><time>2026-04-09T13:51:34.239Z</time></trkpt><trkpt lat="38.490591" lon="16.0772827"><ele>245.0</ele><time>2026-04-09T13:51:35.239Z</time></trkpt><trkpt lat="38.4906429" lon="16.0772359"><ele>243.50000000000003</ele><time>2026-04-09T13:51:36.239Z</time></trkpt><trkpt lat="38.4907355" lon="16.0771505"><ele>242.0</ele><time>2026-04-09T13:51:38.239Z</time></trkpt><trkpt lat="38.4907756" lon="16.0770474"><ele>240.5</ele><time>2026-04-09T13:51:40.239Z</time></trkpt><trkpt lat="38.4907386" lon="16.0769167"><ele>239.0</ele><time>2026-04-09T13:51:42.239Z</time></trkpt><trkpt lat="38.4907002" lon="16.0768501"><ele>237.50000000000003</ele><time>2026-04-09T13:51:43.238Z</time></trkpt><trkpt lat="38.4906417" lon="16.0768063"><ele>236.0</ele><time>2026-04-09T13:51:44.239Z</time></trkpt><trkpt lat="38.4905809" lon="16.0767806"><ele>236.0</ele><time>2026-04-09T13:51:45.239Z</time></trkpt><trkpt lat="38.4904802" lon="16.0767314"><ele>236.00000000000003</ele><time>2026-04-09T13:51:47.239Z</time></trkpt><trkpt lat="38.4903886" lon="16.076633"><ele>236.00000000000003</ele><time>2026-04-09T13:51:49.239Z</time></trkpt><trkpt lat="38.4903445" lon="16.0765753"><ele>236.0</ele><time>2026-04-09T13:51:50.239Z</time></trkpt><trkpt lat="38.4902733" lon="16.0764486"><ele>236.0</ele><time>2026-04-09T13:51:52.239Z</time></trkpt><trkpt lat="38.4902337" lon="16.0763762"><ele>235.4</ele><time>2026-04-09T13:51:53.239Z</time></trkpt><trkpt lat="38.490192" lon="16.0762963"><ele>234.8</ele><time>2026-04-09T13:51:54.239Z</time></trkpt><trkpt lat="38.4901443" lon="16.0762067"><ele>234.20000000000002</ele><time>2026-04-09T13:51:55.239Z</time></trkpt><trkpt lat="38.4900943" lon="16.0761128"><ele>233.60000000000002</ele><time>2026-04-09T13:51:56.239Z</time></trkpt><trkpt lat="38.4900411" lon="16.0760028"><ele>233.0</ele><time>2026-04-09T13:51:57.239Z</time></trkpt><trkpt lat="38.4899855" lon="16.0758766"><ele>232.0</ele><time>2026-04-09T13:51:58.239Z</time></trkpt><trkpt lat="38.4899323" lon="16.0757504"><ele>231.0</ele><time>2026-04-09T13:51:59.239Z</time></trkpt><trkpt lat="38.4898726" lon="16.0756216"><ele>230.0</ele><time>2026-04-09T13:52:00.239Z</time></trkpt><trkpt lat="38.4898" lon="16.0754948"><ele>229.0</ele><time>2026-04-09T13:52:01.239Z</time></trkpt><trkpt lat="38.4897094" lon="16.0753701"><ele>229.0</ele><time>2026-04-09T13:52:02.239Z</time></trkpt><trkpt lat="38.4896093" lon="16.0752498"><ele>229.0</ele><time>2026-04-09T13:52:03.239Z</time></trkpt><trkpt lat="38.4894967" lon="16.0751434"><ele>229.0</ele><time>2026-04-09T13:52:04.239Z</time></trkpt><trkpt lat="38.4893775" lon="16.0750252"><ele>229.0</ele><time>2026-04-09T13:52:05.239Z</time></trkpt><trkpt lat="38.4892549" lon="16.0749012"><ele>226.66666666666666</ele><time>2026-04-09T13:52:06.239Z</time></trkpt><trkpt lat="38.489118" lon="16.0747871"><ele>224.33333333333331</ele><time>2026-04-09T13:52:07.239Z</time></trkpt><trkpt lat="38.4889768" lon="16.0746904"><ele>222.0</ele><time>2026-04-09T13:52:08.239Z</time></trkpt><trkpt lat="38.48883" lon="16.0746173"><ele>220.0</ele><time>2026-04-09T13:52:09.238Z</time></trkpt><trkpt lat="38.4886866" lon="16.0745531"><ele>218.0</ele><time>2026-04-09T13:52:10.239Z</time></trkpt><trkpt lat="38.4885512" lon="16.0744912"><ele>216.0</ele><time>2026-04-09T13:52:11.239Z</time></trkpt><trkpt lat="38.4884278" lon="16.0744365"><ele>214.0</ele><time>2026-04-09T13:52:12.238Z</time></trkpt><trkpt lat="38.4882998" lon="16.0743913"><ele>214.0</ele><time>2026-04-09T13:52:13.239Z</time></trkpt><trkpt lat="38.4881711" lon="16.074362"><ele>214.0</ele><time>2026-04-09T13:52:14.239Z</time></trkpt><trkpt lat="38.4880401" lon="16.0743466"><ele>214.0</ele><time>2026-04-09T13:52:15.239Z</time></trkpt><trkpt lat="38.4879039" lon="16.074333"><ele>214.0</ele><time>2026-04-09T13:52:16.239Z</time></trkpt><trkpt lat="38.4877545" lon="16.0743158"><ele>213.0</ele><time>2026-04-09T13:52:17.239Z</time></trkpt><trkpt lat="38.487609" lon="16.0742769"><ele>212.0</ele><time>2026-04-09T13:52:18.239Z</time></trkpt><trkpt lat="38.4874831" lon="16.0742009"><ele>211.0</ele><time>2026-04-09T13:52:19.239Z</time></trkpt><trkpt lat="38.4873717" lon="16.0740988"><ele>210.0</ele><time>2026-04-09T13:52:20.239Z</time></trkpt><trkpt lat="38.4872872" lon="16.0739749"><ele>210.0</ele><time>2026-04-09T13:52:21.239Z</time></trkpt><trkpt lat="38.4872287" lon="16.0738364"><ele>210.0</ele><time>2026-04-09T13:52:22.239Z</time></trkpt><trkpt lat="38.4871962" lon="16.0736803"><ele>210.0</ele><time>2026-04-09T13:52:23.239Z</time></trkpt><trkpt lat="38.4871761" lon="16.0735198"><ele>210.0</ele><time>2026-04-09T13:52:24.239Z</time></trkpt><trkpt lat="38.4871563" lon="16.0733536"><ele>207.5</ele><time>2026-04-09T13:52:25.239Z</time></trkpt><trkpt lat="38.4871357" lon="16.0731995"><ele>205.0</ele><time>2026-04-09T13:52:26.239Z</time></trkpt><trkpt lat="38.4871267" lon="16.0730443"><ele>202.5</ele><time>2026-04-09T13:52:27.239Z</time></trkpt><trkpt lat="38.4871211" lon="16.0728848"><ele>200.0</ele><time>2026-04-09T13:52:28.239Z</time></trkpt><trkpt lat="38.487111" lon="16.0727158"><ele>200.0</ele><time>2026-04-09T13:52:29.239Z</time></trkpt><trkpt lat="38.4870982" lon="16.0725138"><ele>200.0</ele><time>2026-04-09T13:52:30.239Z</time></trkpt><trkpt lat="38.487075" lon="16.0722986"><ele>200.0</ele><time>2026-04-09T13:52:31.239Z</time></trkpt><trkpt lat="38.4870511" lon="16.0720684"><ele>196.66666666666669</ele><time>2026-04-09T13:52:32.238Z</time></trkpt><trkpt lat="38.4870304" lon="16.0718383"><ele>193.33333333333334</ele><time>2026-04-09T13:52:33.238Z</time></trkpt><trkpt lat="38.4870243" lon="16.071619"><ele>190.0</ele><time>2026-04-09T13:52:34.239Z</time></trkpt><trkpt lat="38.4870399" lon="16.0714065"><ele>190.0</ele><time>2026-04-09T13:52:35.239Z</time></trkpt><trkpt lat="38.4870542" lon="16.0712079"><ele>190.0</ele><time>2026-04-09T13:52:36.239Z</time></trkpt><trkpt lat="38.487067" lon="16.0710265"><ele>190.0</ele><time>2026-04-09T13:52:37.239Z</time></trkpt><trkpt lat="38.4870405" lon="16.0708543"><ele>190.0</ele><time>2026-04-09T13:52:38.238Z</time></trkpt><trkpt lat="38.4869677" lon="16.0706904"><ele>190.0</ele><time>2026-04-09T13:52:39.239Z</time></trkpt><trkpt lat="38.4868706" lon="16.0705426"><ele>190.0</ele><time>2026-04-09T13:52:40.239Z</time></trkpt><trkpt lat="38.4867676" lon="16.0704096"><ele>190.0</ele><time>2026-04-09T13:52:41.239Z</time></trkpt><trkpt lat="38.4866743" lon="16.0702744"><ele>190.0</ele><time>2026-04-09T13:52:42.239Z</time></trkpt><trkpt lat="38.4865902" lon="16.0701434"><ele>190.0</ele><time>2026-04-09T13:52:43.239Z</time></trkpt><trkpt lat="38.4865142" lon="16.0700216"><ele>190.0</ele><time>2026-04-09T13:52:44.239Z</time></trkpt><trkpt lat="38.4864689" lon="16.0698869"><ele>190.0</ele><time>2026-04-09T13:52:45.239Z</time></trkpt><trkpt lat="38.4864648" lon="16.0697516"><ele>190.0</ele><time>2026-04-09T13:52:46.239Z</time></trkpt><trkpt lat="38.4864884" lon="16.0696039"><ele>188.75</ele><time>2026-04-09T13:52:47.239Z</time></trkpt><trkpt lat="38.4865422" lon="16.0694474"><ele>187.5</ele><time>2026-04-09T13:52:48.239Z</time></trkpt><trkpt lat="38.4865857" lon="16.0692724"><ele>186.25</ele><time>2026-04-09T13:52:49.239Z</time></trkpt><trkpt lat="38.4865919" lon="16.0690708"><ele>185.0</ele><time>2026-04-09T13:52:50.239Z</time></trkpt><trkpt lat="38.4865712" lon="16.0688714"><ele>184.25</ele><time>2026-04-09T13:52:51.239Z</time></trkpt><trkpt lat="38.486524" lon="16.0686865"><ele>183.5</ele><time>2026-04-09T13:52:52.239Z</time></trkpt><trkpt lat="38.4864559" lon="16.0685236"><ele>182.75</ele><time>2026-04-09T13:52:53.239Z</time></trkpt><trkpt lat="38.4863566" lon="16.068384"><ele>182.0</ele><time>2026-04-09T13:52:54.239Z</time></trkpt><trkpt lat="38.4862391" lon="16.0682555"><ele>182.0</ele><time>2026-04-09T13:52:55.239Z</time></trkpt><trkpt lat="38.4861206" lon="16.0681303"><ele>182.0</ele><time>2026-04-09T13:52:56.239Z</time></trkpt><trkpt lat="38.4860097" lon="16.0679973"><ele>182.0</ele><time>2026-04-09T13:52:57.239Z</time></trkpt><trkpt lat="38.4859049" lon="16.0678511"><ele>182.0</ele><time>2026-04-09T13:52:58.239Z</time></trkpt><trkpt lat="38.4858157" lon="16.0676918"><ele>182.0</ele><time>2026-04-09T13:52:59.239Z</time></trkpt><trkpt lat="38.4857431" lon="16.0675119"><ele>182.0</ele><time>2026-04-09T13:53:00.238Z</time></trkpt><trkpt lat="38.4856727" lon="16.0673142"><ele>179.0</ele><time>2026-04-09T13:53:01.239Z</time></trkpt><trkpt lat="38.4855971" lon="16.0671133"><ele>176.0</ele><time>2026-04-09T13:53:02.239Z</time></trkpt><trkpt lat="38.485513" lon="16.0669172"><ele>173.0</ele><time>2026-04-09T13:53:03.239Z</time></trkpt><trkpt lat="38.4854481" lon="16.0667313"><ele>172.5</ele><time>2026-04-09T13:53:04.239Z</time></trkpt><trkpt lat="38.4853779" lon="16.0665599"><ele>172.0</ele><time>2026-04-09T13:53:05.239Z</time></trkpt><trkpt lat="38.4853089" lon="16.0663938"><ele>171.5</ele><time>2026-04-09T13:53:06.239Z</time></trkpt><trkpt lat="38.4852262" lon="16.066243"><ele>171.0</ele><time>2026-04-09T13:53:07.239Z</time></trkpt><trkpt lat="38.4851286" lon="16.0660951"><ele>171.0</ele><time>2026-04-09T13:53:08.239Z</time></trkpt><trkpt lat="38.4850012" lon="16.0659437"><ele>171.0</ele><time>2026-04-09T13:53:09.239Z</time></trkpt><trkpt lat="38.484845" lon="16.0658023"><ele>171.0</ele><time>2026-04-09T13:53:10.239Z</time></trkpt><trkpt lat="38.4846741" lon="16.0656492"><ele>164.0</ele><time>2026-04-09T13:53:11.239Z</time></trkpt><trkpt lat="38.4845026" lon="16.0654616"><ele>157.0</ele><time>2026-04-09T13:53:12.238Z</time></trkpt><trkpt lat="38.4843337" lon="16.0652397"><ele>157.0</ele><time>2026-04-09T13:53:13.239Z</time></trkpt><trkpt lat="38.4841688" lon="16.0650124"><ele>157.0</ele><time>2026-04-09T13:53:14.239Z</time></trkpt><trkpt lat="38.4840093" lon="16.0647813"><ele>158.0</ele><time>2026-04-09T13:53:15.239Z</time></trkpt><trkpt lat="38.4838587" lon="16.06455"><ele>159.0</ele><time>2026-04-09T13:53:16.239Z</time></trkpt><trkpt lat="38.4837076" lon="16.0643204"><ele>162.66666666666666</ele><time>2026-04-09T13:53:17.239Z</time></trkpt><trkpt lat="38.4835756" lon="16.0641092"><ele>166.33333333333331</ele><time>2026-04-09T13:53:18.239Z</time></trkpt><trkpt lat="38.4834476" lon="16.0639072"><ele>170.0</ele><time>2026-04-09T13:53:19.239Z</time></trkpt><trkpt lat="38.4833413" lon="16.0636996"><ele>170.0</ele><time>2026-04-09T13:53:20.238Z</time></trkpt><trkpt lat="38.4832685" lon="16.0634651"><ele>170.0</ele><time>2026-04-09T13:53:21.239Z</time></trkpt><trkpt lat="38.4832047" lon="16.063223"><ele>170.0</ele><time>2026-04-09T13:53:22.239Z</time></trkpt><trkpt lat="38.4831571" lon="16.0629648"><ele>167.0</ele><time>2026-04-09T13:53:23.239Z</time></trkpt><trkpt lat="38.4831089" lon="16.0626994"><ele>164.0</ele><time>2026-04-09T13:53:24.239Z</time></trkpt><trkpt lat="38.483072" lon="16.0624265"><ele>161.0</ele><time>2026-04-09T13:53:25.238Z</time></trkpt><trkpt lat="38.483051" lon="16.0621536"><ele>161.0</ele><time>2026-04-09T13:53:26.239Z</time></trkpt><trkpt lat="38.4830291" lon="16.0618756"><ele>161.0</ele><time>2026-04-09T13:53:27.238Z</time></trkpt><trkpt lat="38.4830031" lon="16.0615909"><ele>161.0</ele><time>2026-04-09T13:53:28.239Z</time></trkpt><trkpt lat="38.4829688" lon="16.0613063"><ele>162.5</ele><time>2026-04-09T13:53:29.239Z</time></trkpt><trkpt lat="38.4829284" lon="16.0610167"><ele>164.0</ele><time>2026-04-09T13:53:30.239Z</time></trkpt><trkpt lat="38.4828896" lon="16.0607199"><ele>164.0</ele><time>2026-04-09T13:53:31.238Z</time></trkpt><trkpt lat="38.4828498" lon="16.0604275"><ele>164.0</ele><time>2026-04-09T13:53:32.239Z</time></trkpt><trkpt lat="38.4828206" lon="16.0601558"><ele>164.0</ele><time>2026-04-09T13:53:33.238Z</time></trkpt><trkpt lat="38.4827928" lon="16.0598824"><ele>163.0</ele><time>2026-04-09T13:53:34.239Z</time></trkpt><trkpt lat="38.482786" lon="16.0596031"><ele>162.0</ele><time>2026-04-09T13:53:35.238Z</time></trkpt><trkpt lat="38.4827887" lon="16.059314"><ele>161.0</ele><time>2026-04-09T13:53:36.239Z</time></trkpt><trkpt lat="38.4827856" lon="16.0590154"><ele>160.0</ele><time>2026-04-09T13:53:37.239Z</time></trkpt><trkpt lat="38.4827698" lon="16.0587273"><ele>159.0</ele><time>2026-04-09T13:53:38.239Z</time></trkpt><trkpt lat="38.4827439" lon="16.0584616"><ele>158.0</ele><time>2026-04-09T13:53:39.239Z</time></trkpt><trkpt lat="38.4827172" lon="16.0582197"><ele>155.66666666666666</ele><time>2026-04-09T13:53:40.239Z</time></trkpt><trkpt lat="38.4827034" lon="16.0579946"><ele>153.33333333333334</ele><time>2026-04-09T13:53:41.239Z</time></trkpt><trkpt lat="38.4827197" lon="16.0577888"><ele>151.0</ele><time>2026-04-09T13:53:42.239Z</time></trkpt><trkpt lat="38.4827671" lon="16.0576021"><ele>150.5</ele><time>2026-04-09T13:53:43.239Z</time></trkpt><trkpt lat="38.4828358" lon="16.0574443"><ele>150.0</ele><time>2026-04-09T13:53:44.239Z</time></trkpt><trkpt lat="38.4829372" lon="16.0573224"><ele>149.5</ele><time>2026-04-09T13:53:45.239Z</time></trkpt><trkpt lat="38.4830641" lon="16.0572224"><ele>149.0</ele><time>2026-04-09T13:53:46.239Z</time></trkpt><trkpt lat="38.4832148" lon="16.0571493"><ele>149.0</ele><time>2026-04-09T13:53:47.238Z</time></trkpt><trkpt lat="38.4833887" lon="16.0570811"><ele>149.0</ele><time>2026-04-09T13:53:48.239Z</time></trkpt><trkpt lat="38.4835651" lon="16.056993"><ele>149.0</ele><time>2026-04-09T13:53:49.239Z</time></trkpt><trkpt lat="38.483725" lon="16.0569031"><ele>149.0</ele><time>2026-04-09T13:53:50.239Z</time></trkpt><trkpt lat="38.4838628" lon="16.0568098"><ele>149.0</ele><time>2026-04-09T13:53:51.239Z</time></trkpt><trkpt lat="38.4839819" lon="16.0566924"><ele>149.0</ele><time>2026-04-09T13:53:52.239Z</time></trkpt><trkpt lat="38.4840898" lon="16.0565352"><ele>147.66666666666666</ele><time>2026-04-09T13:53:53.239Z</time></trkpt><trkpt lat="38.484175" lon="16.0563597"><ele>146.33333333333334</ele><time>2026-04-09T13:53:54.239Z</time></trkpt><trkpt lat="38.4842523" lon="16.0561695"><ele>145.0</ele><time>2026-04-09T13:53:55.239Z</time></trkpt><trkpt lat="38.4843777" lon="16.0559911"><ele>145.0</ele><time>2026-04-09T13:53:56.239Z</time></trkpt><trkpt lat="38.484512" lon="16.0558319"><ele>145.0</ele><time>2026-04-09T13:53:57.239Z</time></trkpt><trkpt lat="38.4846448" lon="16.0556856"><ele>145.0</ele><time>2026-04-09T13:53:58.239Z</time></trkpt><trkpt lat="38.4847625" lon="16.0555205"><ele>141.66666666666669</ele><time>2026-04-09T13:53:59.239Z</time></trkpt><trkpt lat="38.4848707" lon="16.0553244"><ele>138.33333333333334</ele><time>2026-04-09T13:54:00.239Z</time></trkpt><trkpt lat="38.4849682" lon="16.0551044"><ele>135.0</ele><time>2026-04-09T13:54:01.239Z</time></trkpt><trkpt lat="38.4850594" lon="16.0548621"><ele>132.0</ele><time>2026-04-09T13:54:02.239Z</time></trkpt><trkpt lat="38.485141" lon="16.0546077"><ele>129.0</ele><time>2026-04-09T13:54:03.239Z</time></trkpt><trkpt lat="38.4852171" lon="16.0543458"><ele>126.0</ele><time>2026-04-09T13:54:04.238Z</time></trkpt><trkpt lat="38.4852967" lon="16.0540926"><ele>123.33333333333334</ele><time>2026-04-09T13:54:05.239Z</time></trkpt><trkpt lat="38.4853679" lon="16.0538542"><ele>120.66666666666667</ele><time>2026-04-09T13:54:06.239Z</time></trkpt><trkpt lat="38.4854287" lon="16.053627"><ele>118.0</ele><time>2026-04-09T13:54:07.239Z</time></trkpt><trkpt lat="38.485476" lon="16.0533946"><ele>116.0</ele><time>2026-04-09T13:54:08.239Z</time></trkpt><trkpt lat="38.4855024" lon="16.0531652"><ele>114.0</ele><time>2026-04-09T13:54:09.239Z</time></trkpt><trkpt lat="38.4855166" lon="16.0529268"><ele>112.0</ele><time>2026-04-09T13:54:10.239Z</time></trkpt><trkpt lat="38.4855079" lon="16.0526896"><ele>111.33333333333334</ele><time>2026-04-09T13:54:11.239Z</time></trkpt><trkpt lat="38.4854898" lon="16.0524528"><ele>110.66666666666666</ele><time>2026-04-09T13:54:12.239Z</time></trkpt><trkpt lat="38.4854606" lon="16.0522156"><ele>110.0</ele><time>2026-04-09T13:54:13.239Z</time></trkpt><trkpt lat="38.4854266" lon="16.0519852"><ele>109.0</ele><time>2026-04-09T13:54:14.239Z</time></trkpt><trkpt lat="38.4853914" lon="16.051762"><ele>108.0</ele><time>2026-04-09T13:54:15.239Z</time></trkpt><trkpt lat="38.4853609" lon="16.051559"><ele>107.0</ele><time>2026-04-09T13:54:16.239Z</time></trkpt><trkpt lat="38.4853376" lon="16.0513756"><ele>105.75</ele><time>2026-04-09T13:54:17.239Z</time></trkpt><trkpt lat="38.4853191" lon="16.0512012"><ele>104.5</ele><time>2026-04-09T13:54:18.239Z</time></trkpt><trkpt lat="38.4852978" lon="16.0510325"><ele>103.25</ele><time>2026-04-09T13:54:19.239Z</time></trkpt><trkpt lat="38.4852671" lon="16.0508777"><ele>102.0</ele><time>2026-04-09T13:54:20.239Z</time></trkpt><trkpt lat="38.4852422" lon="16.0507497"><ele>101.19999999999999</ele><time>2026-04-09T13:54:21.239Z</time></trkpt><trkpt lat="38.4852287" lon="16.050622"><ele>100.4</ele><time>2026-04-09T13:54:22.238Z</time></trkpt><trkpt lat="38.4852196" lon="16.0504954"><ele>99.6</ele><time>2026-04-09T13:54:23.239Z</time></trkpt><trkpt lat="38.4852146" lon="16.0503678"><ele>98.80000000000001</ele><time>2026-04-09T13:54:24.239Z</time></trkpt><trkpt lat="38.4852161" lon="16.0502399"><ele>98.0</ele><time>2026-04-09T13:54:25.239Z</time></trkpt><trkpt lat="38.4852369" lon="16.050121"><ele>97.99999999999999</ele><time>2026-04-09T13:54:26.238Z</time></trkpt><trkpt lat="38.48527" lon="16.0500096"><ele>98.0</ele><time>2026-04-09T13:54:27.239Z</time></trkpt><trkpt lat="38.4853029" lon="16.049913"><ele>98.0</ele><time>2026-04-09T13:54:28.239Z</time></trkpt><trkpt lat="38.4853424" lon="16.0498273"><ele>98.0</ele><time>2026-04-09T13:54:29.239Z</time></trkpt><trkpt lat="38.4853814" lon="16.0497403"><ele>97.99999999999999</ele><time>2026-04-09T13:54:30.239Z</time></trkpt><trkpt lat="38.4854169" lon="16.0496569"><ele>98.0</ele><time>2026-04-09T13:54:31.239Z</time></trkpt><trkpt lat="38.4854515" lon="16.0495714"><ele>98.49999999999999</ele><time>2026-04-09T13:54:32.24Z</time></trkpt><trkpt lat="38.4854703" lon="16.0494903"><ele>99.0</ele><time>2026-04-09T13:54:33.239Z</time></trkpt><trkpt lat="38.4854609" lon="16.0493932"><ele>99.5</ele><time>2026-04-09T13:54:35.24Z</time></trkpt><trkpt lat="38.485413" lon="16.0493335"><ele>100.0</ele><time>2026-04-09T13:54:38.24Z</time></trkpt><trkpt lat="38.4853382" lon="16.0493124"><ele>100.49999999999999</ele><time>2026-04-09T13:54:48.239Z</time></trkpt><trkpt lat="38.4852597" lon="16.0493086"><ele>101.0</ele><time>2026-04-09T13:54:50.24Z</time></trkpt><trkpt lat="38.4851647" lon="16.0493094"><ele>101.0</ele><time>2026-04-09T13:54:52.24Z</time></trkpt><trkpt lat="38.4850611" lon="16.0493112"><ele>101.0</ele><time>2026-04-09T13:54:54.24Z</time></trkpt><trkpt lat="38.4849452" lon="16.0492944"><ele>101.0</ele><time>2026-04-09T13:54:56.24Z</time></trkpt><trkpt lat="38.4848771" lon="16.0492863"><ele>101.0</ele><time>2026-04-09T13:54:57.239Z</time></trkpt><trkpt lat="38.4848064" lon="16.0492621"><ele>101.0</ele><time>2026-04-09T13:54:58.24Z</time></trkpt><trkpt lat="38.4847211" lon="16.0492305"><ele>101.0</ele><time>2026-04-09T13:54:59.24Z</time></trkpt><trkpt lat="38.4846277" lon="16.0492098"><ele>101.0</ele><time>2026-04-09T13:55:00.24Z</time></trkpt><trkpt lat="38.4845275" lon="16.0491792"><ele>101.0</ele><time>2026-04-09T13:55:01.24Z</time></trkpt><trkpt lat="38.4844178" lon="16.0491474"><ele>101.0</ele><time>2026-04-09T13:55:02.24Z</time></trkpt><trkpt lat="38.4843082" lon="16.0491196"><ele>101.0</ele><time>2026-04-09T13:55:03.24Z</time></trkpt><trkpt lat="38.4842057" lon="16.0490869"><ele>100.8</ele><time>2026-04-09T13:55:04.24Z</time></trkpt><trkpt lat="38.4841028" lon="16.0490467"><ele>100.6</ele><time>2026-04-09T13:55:05.239Z</time></trkpt><trkpt lat="38.4840043" lon="16.0490092"><ele>100.4</ele><time>2026-04-09T13:55:06.24Z</time></trkpt><trkpt lat="38.4839022" lon="16.0489772"><ele>100.2</ele><time>2026-04-09T13:55:07.24Z</time></trkpt><trkpt lat="38.4838052" lon="16.0489502"><ele>100.0</ele><time>2026-04-09T13:55:08.24Z</time></trkpt><trkpt lat="38.4837158" lon="16.0489309"><ele>100.0</ele><time>2026-04-09T13:55:09.24Z</time></trkpt><trkpt lat="38.4836336" lon="16.0488937"><ele>100.0</ele><time>2026-04-09T13:55:10.24Z</time></trkpt><trkpt lat="38.4835556" lon="16.0488525"><ele>100.0</ele><time>2026-04-09T13:55:11.239Z</time></trkpt><trkpt lat="38.4834778" lon="16.048792"><ele>100.0</ele><time>2026-04-09T13:55:12.24Z</time></trkpt><trkpt lat="38.4833991" lon="16.0487156"><ele>100.0</ele><time>2026-04-09T13:55:13.24Z</time></trkpt><trkpt lat="38.4833257" lon="16.0486236"><ele>100.0</ele><time>2026-04-09T13:55:14.24Z</time></trkpt><trkpt lat="38.4832521" lon="16.0485143"><ele>100.0</ele><time>2026-04-09T13:55:15.239Z</time></trkpt><trkpt lat="38.4831765" lon="16.0484078"><ele>100.0</ele><time>2026-04-09T13:55:16.24Z</time></trkpt><trkpt lat="38.4831059" lon="16.0482906"><ele>100.0</ele><time>2026-04-09T13:55:17.24Z</time></trkpt><trkpt lat="38.4830331" lon="16.048172"><ele>102.5</ele><time>2026-04-09T13:55:18.24Z</time></trkpt><trkpt lat="38.4829565" lon="16.0480548"><ele>105.0</ele><time>2026-04-09T13:55:19.24Z</time></trkpt><trkpt lat="38.4828739" lon="16.0479383"><ele>107.5</ele><time>2026-04-09T13:55:20.24Z</time></trkpt><trkpt lat="38.4828029" lon="16.0478211"><ele>110.0</ele><time>2026-04-09T13:55:21.24Z</time></trkpt><trkpt lat="38.4827412" lon="16.0476921"><ele>103.75</ele><time>2026-04-09T13:55:22.24Z</time></trkpt><trkpt lat="38.4826835" lon="16.0475468"><ele>97.5</ele><time>2026-04-09T13:55:23.24Z</time></trkpt><trkpt lat="38.4826318" lon="16.0473819"><ele>91.25</ele><time>2026-04-09T13:55:24.24Z</time></trkpt><trkpt lat="38.4825915" lon="16.0472057"><ele>85.0</ele><time>2026-04-09T13:55:25.24Z</time></trkpt><trkpt lat="38.4825685" lon="16.0470029"><ele>84.33333333333333</ele><time>2026-04-09T13:55:26.239Z</time></trkpt><trkpt lat="38.4825382" lon="16.0467919"><ele>83.66666666666667</ele><time>2026-04-09T13:55:27.24Z</time></trkpt><trkpt lat="38.4825053" lon="16.0465738"><ele>83.0</ele><time>2026-04-09T13:55:28.24Z</time></trkpt><trkpt lat="38.4824611" lon="16.0463606"><ele>82.66666666666667</ele><time>2026-04-09T13:55:29.24Z</time></trkpt><trkpt lat="38.4824054" lon="16.0461501"><ele>82.33333333333333</ele><time>2026-04-09T13:55:30.24Z</time></trkpt><trkpt lat="38.4823337" lon="16.045936"><ele>82.0</ele><time>2026-04-09T13:55:31.24Z</time></trkpt><trkpt lat="38.482254" lon="16.0457255"><ele>83.33333333333333</ele><time>2026-04-09T13:55:32.24Z</time></trkpt><trkpt lat="38.4821688" lon="16.0455198"><ele>84.66666666666667</ele><time>2026-04-09T13:55:33.24Z</time></trkpt><trkpt lat="38.4820862" lon="16.0453179"><ele>86.0</ele><time>2026-04-09T13:55:34.24Z</time></trkpt><trkpt lat="38.4819963" lon="16.0451254"><ele>85.66666666666667</ele><time>2026-04-09T13:55:35.24Z</time></trkpt><trkpt lat="38.4819174" lon="16.0449247"><ele>85.33333333333333</ele><time>2026-04-09T13:55:36.239Z</time></trkpt><trkpt lat="38.4818204" lon="16.044752"><ele>85.0</ele><time>2026-04-09T13:55:37.239Z</time></trkpt><trkpt lat="38.4817012" lon="16.0445922"><ele>85.0</ele><time>2026-04-09T13:55:38.24Z</time></trkpt><trkpt lat="38.4815587" lon="16.0444521"><ele>85.0</ele><time>2026-04-09T13:55:39.24Z</time></trkpt><trkpt lat="38.4814049" lon="16.0443394"><ele>85.0</ele><time>2026-04-09T13:55:40.24Z</time></trkpt><trkpt lat="38.4812412" lon="16.0442599"><ele>81.33333333333333</ele><time>2026-04-09T13:55:41.24Z</time></trkpt><trkpt lat="38.4810652" lon="16.0441945"><ele>77.66666666666667</ele><time>2026-04-09T13:55:42.24Z</time></trkpt><trkpt lat="38.4808888" lon="16.0441407"><ele>74.0</ele><time>2026-04-09T13:55:43.239Z</time></trkpt><trkpt lat="38.4807144" lon="16.0440821"><ele>79.0</ele><time>2026-04-09T13:55:44.24Z</time></trkpt><trkpt lat="38.4805367" lon="16.0440223"><ele>84.0</ele><time>2026-04-09T13:55:45.24Z</time></trkpt><trkpt lat="38.4803559" lon="16.0439638"><ele>89.0</ele><time>2026-04-09T13:55:46.24Z</time></trkpt><trkpt lat="38.4801743" lon="16.0439166"><ele>89.0</ele><time>2026-04-09T13:55:47.239Z</time></trkpt><trkpt lat="38.4799952" lon="16.0438941"><ele>89.0</ele><time>2026-04-09T13:55:48.24Z</time></trkpt><trkpt lat="38.479812" lon="16.043877"><ele>89.0</ele><time>2026-04-09T13:55:49.24Z</time></trkpt><trkpt lat="38.4796268" lon="16.043874"><ele>86.66666666666667</ele><time>2026-04-09T13:55:50.24Z</time></trkpt><trkpt lat="38.4794453" lon="16.0438721"><ele>84.33333333333333</ele><time>2026-04-09T13:55:51.24Z</time></trkpt><trkpt lat="38.4792748" lon="16.0438703"><ele>82.0</ele><time>2026-04-09T13:55:52.24Z</time></trkpt><trkpt lat="38.4791205" lon="16.043852"><ele>82.0</ele><time>2026-04-09T13:55:53.24Z</time></trkpt><trkpt lat="38.4789723" lon="16.043808"><ele>82.0</ele><time>2026-04-09T13:55:54.24Z</time></trkpt><trkpt lat="38.4788243" lon="16.0437265"><ele>82.0</ele><time>2026-04-09T13:55:55.24Z</time></trkpt><trkpt lat="38.4786793" lon="16.0436201"><ele>81.33333333333333</ele><time>2026-04-09T13:55:56.24Z</time></trkpt><trkpt lat="38.4785389" lon="16.0434977"><ele>80.66666666666667</ele><time>2026-04-09T13:55:57.24Z</time></trkpt><trkpt lat="38.4784003" lon="16.0433604"><ele>80.0</ele><time>2026-04-09T13:55:58.24Z</time></trkpt><trkpt lat="38.4782632" lon="16.0432284"><ele>80.0</ele><time>2026-04-09T13:55:59.24Z</time></trkpt><trkpt lat="38.4781267" lon="16.0430869"><ele>80.0</ele><time>2026-04-09T13:56:00.24Z</time></trkpt><trkpt lat="38.4779889" lon="16.0429404"><ele>80.0</ele><time>2026-04-09T13:56:01.24Z</time></trkpt><trkpt lat="38.477852" lon="16.0427729"><ele>72.66666666666667</ele><time>2026-04-09T13:56:02.24Z</time></trkpt><trkpt lat="38.4777194" lon="16.0425915"><ele>65.33333333333333</ele><time>2026-04-09T13:56:03.24Z</time></trkpt><trkpt lat="38.4775814" lon="16.0424105"><ele>58.0</ele><time>2026-04-09T13:56:04.24Z</time></trkpt><trkpt lat="38.4774425" lon="16.0422506"><ele>58.0</ele><time>2026-04-09T13:56:05.24Z</time></trkpt><trkpt lat="38.4772973" lon="16.0421118"><ele>58.0</ele><time>2026-04-09T13:56:06.239Z</time></trkpt><trkpt lat="38.47714" lon="16.0419944"><ele>58.0</ele><time>2026-04-09T13:56:07.24Z</time></trkpt><trkpt lat="38.4769647" lon="16.0419011"><ele>57.0</ele><time>2026-04-09T13:56:08.24Z</time></trkpt><trkpt lat="38.476805" lon="16.0418128"><ele>56.0</ele><time>2026-04-09T13:56:09.24Z</time></trkpt><trkpt lat="38.476652" lon="16.0417371"><ele>55.0</ele><time>2026-04-09T13:56:10.24Z</time></trkpt><trkpt lat="38.476511" lon="16.0416716"><ele>54.5</ele><time>2026-04-09T13:56:11.24Z</time></trkpt><trkpt lat="38.4763766" lon="16.0415908"><ele>54.0</ele><time>2026-04-09T13:56:12.24Z</time></trkpt><trkpt lat="38.4762505" lon="16.0415136"><ele>53.5</ele><time>2026-04-09T13:56:13.24Z</time></trkpt><trkpt lat="38.4761385" lon="16.0414478"><ele>53.0</ele><time>2026-04-09T13:56:14.24Z</time></trkpt><trkpt lat="38.4760457" lon="16.0413881"><ele>54.16666666666667</ele><time>2026-04-09T13:56:15.24Z</time></trkpt><trkpt lat="38.4759703" lon="16.0413394"><ele>55.333333333333336</ele><time>2026-04-09T13:56:16.24Z</time></trkpt><trkpt lat="38.4759033" lon="16.0412959"><ele>56.5</ele><time>2026-04-09T13:56:17.24Z</time></trkpt><trkpt lat="38.4758574" lon="16.0412407"><ele>57.66666666666667</ele><time>2026-04-09T13:56:18.24Z</time></trkpt><trkpt lat="38.475809" lon="16.0410907"><ele>58.833333333333336</ele><time>2026-04-09T13:56:20.239Z</time></trkpt><trkpt lat="38.4758006" lon="16.0409881"><ele>60.0</ele><time>2026-04-09T13:56:21.24Z</time></trkpt><trkpt lat="38.4758008" lon="16.0408652"><ele>60.75</ele><time>2026-04-09T13:56:22.239Z</time></trkpt><trkpt lat="38.4758076" lon="16.0407345"><ele>61.5</ele><time>2026-04-09T13:56:23.24Z</time></trkpt><trkpt lat="38.4758168" lon="16.0405926"><ele>62.25</ele><time>2026-04-09T13:56:24.24Z</time></trkpt><trkpt lat="38.4758313" lon="16.0404331"><ele>63.0</ele><time>2026-04-09T13:56:25.24Z</time></trkpt><trkpt lat="38.4758495" lon="16.0402671"><ele>63.0</ele><time>2026-04-09T13:56:26.239Z</time></trkpt><trkpt lat="38.4758688" lon="16.0400903"><ele>63.0</ele><time>2026-04-09T13:56:27.24Z</time></trkpt><trkpt lat="38.4758959" lon="16.0398982"><ele>63.0</ele><time>2026-04-09T13:56:28.24Z</time></trkpt><trkpt lat="38.4759265" lon="16.0397036"><ele>63.0</ele><time>2026-04-09T13:56:29.24Z</time></trkpt><trkpt lat="38.4759488" lon="16.0394992"><ele>62.0</ele><time>2026-04-09T13:56:30.239Z</time></trkpt><trkpt lat="38.4759624" lon="16.0392751"><ele>61.0</ele><time>2026-04-09T13:56:31.24Z</time></trkpt><trkpt lat="38.4759628" lon="16.039037"><ele>60.0</ele><time>2026-04-09T13:56:32.239Z</time></trkpt><trkpt lat="38.4759566" lon="16.0387931"><ele>58.66666666666667</ele><time>2026-04-09T13:56:33.24Z</time></trkpt><trkpt lat="38.4759302" lon="16.0385447"><ele>57.333333333333336</ele><time>2026-04-09T13:56:34.24Z</time></trkpt><trkpt lat="38.4758941" lon="16.0383147"><ele>56.0</ele><time>2026-04-09T13:56:35.24Z</time></trkpt><trkpt lat="38.4758462" lon="16.038092"><ele>54.66666666666667</ele><time>2026-04-09T13:56:36.24Z</time></trkpt><trkpt lat="38.4757927" lon="16.0378647"><ele>53.33333333333333</ele><time>2026-04-09T13:56:37.24Z</time></trkpt><trkpt lat="38.475734" lon="16.0376322"><ele>52.0</ele><time>2026-04-09T13:56:38.24Z</time></trkpt><trkpt lat="38.4756778" lon="16.0374015"><ele>51.0</ele><time>2026-04-09T13:56:39.239Z</time></trkpt><trkpt lat="38.4756187" lon="16.0371701"><ele>50.0</ele><time>2026-04-09T13:56:40.24Z</time></trkpt><trkpt lat="38.4755552" lon="16.036934"><ele>49.0</ele><time>2026-04-09T13:56:41.24Z</time></trkpt><trkpt lat="38.4754933" lon="16.0367063"><ele>52.0</ele><time>2026-04-09T13:56:42.24Z</time></trkpt><trkpt lat="38.4754355" lon="16.0364845"><ele>55.0</ele><time>2026-04-09T13:56:43.24Z</time></trkpt><trkpt lat="38.4753809" lon="16.0362751"><ele>58.0</ele><time>2026-04-09T13:56:44.24Z</time></trkpt><trkpt lat="38.4753382" lon="16.0360782"><ele>58.0</ele><time>2026-04-09T13:56:45.24Z</time></trkpt><trkpt lat="38.4753124" lon="16.0358982"><ele>58.0</ele><time>2026-04-09T13:56:46.24Z</time></trkpt><trkpt lat="38.4753165" lon="16.0357167"><ele>58.0</ele><time>2026-04-09T13:56:47.24Z</time></trkpt><trkpt lat="38.475354" lon="16.0355533"><ele>58.0</ele><time>2026-04-09T13:56:48.24Z</time></trkpt><trkpt lat="38.4754213" lon="16.0354121"><ele>55.5</ele><time>2026-04-09T13:56:49.24Z</time></trkpt><trkpt lat="38.4755115" lon="16.035295"><ele>53.0</ele><time>2026-04-09T13:56:50.24Z</time></trkpt><trkpt lat="38.4756223" lon="16.0351835"><ele>50.5</ele><time>2026-04-09T13:56:51.24Z</time></trkpt><trkpt lat="38.4757367" lon="16.0350617"><ele>48.0</ele><time>2026-04-09T13:56:52.24Z</time></trkpt><trkpt lat="38.4758536" lon="16.0349317"><ele>47.666666666666664</ele><time>2026-04-09T13:56:53.24Z</time></trkpt><trkpt lat="38.4759859" lon="16.034809"><ele>47.33333333333333</ele><time>2026-04-09T13:56:54.24Z</time></trkpt><trkpt lat="38.4761283" lon="16.0346836"><ele>47.0</ele><time>2026-04-09T13:56:55.24Z</time></trkpt><trkpt lat="38.4762798" lon="16.0345631"><ele>48.666666666666664</ele><time>2026-04-09T13:56:56.24Z</time></trkpt><trkpt lat="38.4764277" lon="16.0344398"><ele>50.33333333333333</ele><time>2026-04-09T13:56:57.24Z</time></trkpt><trkpt lat="38.4765719" lon="16.0343156"><ele>52.0</ele><time>2026-04-09T13:56:58.24Z</time></trkpt><trkpt lat="38.4767221" lon="16.0341888"><ele>52.0</ele><time>2026-04-09T13:56:59.24Z</time></trkpt><trkpt lat="38.4768648" lon="16.0340454"><ele>52.0</ele><time>2026-04-09T13:57:00.24Z</time></trkpt><trkpt lat="38.4769976" lon="16.033894"><ele>52.0</ele><time>2026-04-09T13:57:01.24Z</time></trkpt><trkpt lat="38.4771224" lon="16.0337567"><ele>52.0</ele><time>2026-04-09T13:57:02.24Z</time></trkpt><trkpt lat="38.4772297" lon="16.033627"><ele>52.0</ele><time>2026-04-09T13:57:03.24Z</time></trkpt><trkpt lat="38.477326" lon="16.0335122"><ele>52.0</ele><time>2026-04-09T13:57:04.24Z</time></trkpt><trkpt lat="38.4774139" lon="16.0334067"><ele>52.0</ele><time>2026-04-09T13:57:05.24Z</time></trkpt><trkpt lat="38.4774865" lon="16.0332958"><ele>51.25</ele><time>2026-04-09T13:57:06.24Z</time></trkpt><trkpt lat="38.4775362" lon="16.033156"><ele>50.5</ele><time>2026-04-09T13:57:07.24Z</time></trkpt><trkpt lat="38.477563" lon="16.03298"><ele>49.75</ele><time>2026-04-09T13:57:08.239Z</time></trkpt><trkpt lat="38.4775785" lon="16.0327858"><ele>49.0</ele><time>2026-04-09T13:57:09.24Z</time></trkpt><trkpt lat="38.4775883" lon="16.0325924"><ele>47.666666666666664</ele><time>2026-04-09T13:57:10.24Z</time></trkpt><trkpt lat="38.4776024" lon="16.032398"><ele>46.33333333333333</ele><time>2026-04-09T13:57:11.24Z</time></trkpt><trkpt lat="38.4776197" lon="16.0322038"><ele>45.0</ele><time>2026-04-09T13:57:12.24Z</time></trkpt><trkpt lat="38.4776347" lon="16.0320051"><ele>45.0</ele><time>2026-04-09T13:57:13.24Z</time></trkpt><trkpt lat="38.4776484" lon="16.031791"><ele>45.0</ele><time>2026-04-09T13:57:14.24Z</time></trkpt><trkpt lat="38.4776737" lon="16.0315497"><ele>45.0</ele><time>2026-04-09T13:57:15.24Z</time></trkpt><trkpt lat="38.477695" lon="16.0312849"><ele>45.0</ele><time>2026-04-09T13:57:16.24Z</time></trkpt><trkpt lat="38.4777168" lon="16.0310063"><ele>45.0</ele><time>2026-04-09T13:57:17.239Z</time></trkpt><trkpt lat="38.4777427" lon="16.0307319"><ele>45.0</ele><time>2026-04-09T13:57:18.24Z</time></trkpt><trkpt lat="38.4777713" lon="16.0304683"><ele>45.333333333333336</ele><time>2026-04-09T13:57:19.24Z</time></trkpt><trkpt lat="38.4777947" lon="16.0302061"><ele>45.66666666666667</ele><time>2026-04-09T13:57:20.239Z</time></trkpt><trkpt lat="38.4778151" lon="16.0299545"><ele>46.0</ele><time>2026-04-09T13:57:21.24Z</time></trkpt><trkpt lat="38.4778289" lon="16.0297018"><ele>46.0</ele><time>2026-04-09T13:57:22.24Z</time></trkpt><trkpt lat="38.4778474" lon="16.0294543"><ele>46.0</ele><time>2026-04-09T13:57:23.239Z</time></trkpt><trkpt lat="38.4778563" lon="16.0292039"><ele>46.0</ele><time>2026-04-09T13:57:24.239Z</time></trkpt><trkpt lat="38.4778566" lon="16.0289661"><ele>45.333333333333336</ele><time>2026-04-09T13:57:25.24Z</time></trkpt><trkpt lat="38.4778491" lon="16.0287359"><ele>44.666666666666664</ele><time>2026-04-09T13:57:26.24Z</time></trkpt><trkpt lat="38.4778414" lon="16.0285064"><ele>44.0</ele><time>2026-04-09T13:57:27.24Z</time></trkpt><trkpt lat="38.4778289" lon="16.0282872"><ele>43.666666666666664</ele><time>2026-04-09T13:57:28.239Z</time></trkpt><trkpt lat="38.4778143" lon="16.0280752"><ele>43.333333333333336</ele><time>2026-04-09T13:57:29.24Z</time></trkpt><trkpt lat="38.4777966" lon="16.0278649"><ele>43.0</ele><time>2026-04-09T13:57:30.24Z</time></trkpt><trkpt lat="38.4777845" lon="16.0276407"><ele>43.333333333333336</ele><time>2026-04-09T13:57:31.24Z</time></trkpt><trkpt lat="38.4777689" lon="16.027413"><ele>43.666666666666664</ele><time>2026-04-09T13:57:32.24Z</time></trkpt><trkpt lat="38.4777567" lon="16.027183"><ele>44.0</ele><time>2026-04-09T13:57:33.24Z</time></trkpt><trkpt lat="38.4777341" lon="16.0269615"><ele>44.0</ele><time>2026-04-09T13:57:34.239Z</time></trkpt><trkpt lat="38.4777057" lon="16.0267369"><ele>44.0</ele><time>2026-04-09T13:57:35.24Z</time></trkpt><trkpt lat="38.4776731" lon="16.0265192"><ele>44.0</ele><time>2026-04-09T13:57:36.24Z</time></trkpt><trkpt lat="38.4776263" lon="16.026304"><ele>43.666666666666664</ele><time>2026-04-09T13:57:37.24Z</time></trkpt><trkpt lat="38.4775795" lon="16.0260856"><ele>43.333333333333336</ele><time>2026-04-09T13:57:38.24Z</time></trkpt><trkpt lat="38.4775399" lon="16.0258603"><ele>43.0</ele><time>2026-04-09T13:57:39.24Z</time></trkpt><trkpt lat="38.4775079" lon="16.0256355"><ele>43.0</ele><time>2026-04-09T13:57:40.24Z</time></trkpt><trkpt lat="38.4774731" lon="16.0254155"><ele>43.0</ele><time>2026-04-09T13:57:41.24Z</time></trkpt><trkpt lat="38.4774316" lon="16.025203"><ele>43.0</ele><time>2026-04-09T13:57:42.24Z</time></trkpt><trkpt lat="38.4773778" lon="16.0249898"><ele>43.0</ele><time>2026-04-09T13:57:43.24Z</time></trkpt><trkpt lat="38.4773081" lon="16.0247915"><ele>43.0</ele><time>2026-04-09T13:57:44.24Z</time></trkpt><trkpt lat="38.4772343" lon="16.0245864"><ele>43.0</ele><time>2026-04-09T13:57:45.24Z</time></trkpt><trkpt lat="38.4771609" lon="16.0243856"><ele>43.0</ele><time>2026-04-09T13:57:46.24Z</time></trkpt><trkpt lat="38.4770908" lon="16.0241759"><ele>43.0</ele><time>2026-04-09T13:57:47.24Z</time></trkpt><trkpt lat="38.4770161" lon="16.0239689"><ele>43.0</ele><time>2026-04-09T13:57:48.24Z</time></trkpt><trkpt lat="38.4769378" lon="16.0237694"><ele>43.0</ele><time>2026-04-09T13:57:49.239Z</time></trkpt><trkpt lat="38.4768545" lon="16.0235743"><ele>43.0</ele><time>2026-04-09T13:57:50.24Z</time></trkpt><trkpt lat="38.4767712" lon="16.0233851"><ele>43.0</ele><time>2026-04-09T13:57:51.24Z</time></trkpt><trkpt lat="38.4766866" lon="16.0231829"><ele>42.66666666666667</ele><time>2026-04-09T13:57:52.24Z</time></trkpt><trkpt lat="38.4765956" lon="16.0229898"><ele>42.333333333333336</ele><time>2026-04-09T13:57:53.24Z</time></trkpt><trkpt lat="38.4765082" lon="16.0227895"><ele>42.0</ele><time>2026-04-09T13:57:54.24Z</time></trkpt><trkpt lat="38.4764228" lon="16.022606"><ele>42.666666666666664</ele><time>2026-04-09T13:57:55.24Z</time></trkpt><trkpt lat="38.4763423" lon="16.0224233"><ele>43.33333333333333</ele><time>2026-04-09T13:57:56.24Z</time></trkpt><trkpt lat="38.4762621" lon="16.022248"><ele>44.0</ele><time>2026-04-09T13:57:57.24Z</time></trkpt><trkpt lat="38.4761825" lon="16.0220808"><ele>44.25</ele><time>2026-04-09T13:57:58.24Z</time></trkpt><trkpt lat="38.4761122" lon="16.0219241"><ele>44.5</ele><time>2026-04-09T13:57:59.24Z</time></trkpt><trkpt lat="38.4760372" lon="16.0217828"><ele>44.75</ele><time>2026-04-09T13:58:00.24Z</time></trkpt><trkpt lat="38.4759724" lon="16.0216434"><ele>45.0</ele><time>2026-04-09T13:58:01.24Z</time></trkpt><trkpt lat="38.4759084" lon="16.0215117"><ele>45.0</ele><time>2026-04-09T13:58:02.24Z</time></trkpt><trkpt lat="38.4758523" lon="16.0213908"><ele>45.0</ele><time>2026-04-09T13:58:03.24Z</time></trkpt><trkpt lat="38.475799" lon="16.0212947"><ele>45.0</ele><time>2026-04-09T13:58:04.24Z</time></trkpt><trkpt lat="38.4757539" lon="16.0212167"><ele>45.0</ele><time>2026-04-09T13:58:05.24Z</time></trkpt><trkpt lat="38.4756835" lon="16.0211323"><ele>45.0</ele><time>2026-04-09T13:58:07.24Z</time></trkpt><trkpt lat="38.4755869" lon="16.0211157"><ele>45.0</ele><time>2026-04-09T13:58:10.24Z</time></trkpt><trkpt lat="38.4754696" lon="16.0212007"><ele>45.0</ele><time>2026-04-09T13:58:12.24Z</time></trkpt><trkpt lat="38.4754027" lon="16.021259"><ele>45.0</ele><time>2026-04-09T13:58:13.24Z</time></trkpt><trkpt lat="38.47534" lon="16.0213133"><ele>45.0</ele><time>2026-04-09T13:58:14.24Z</time></trkpt><trkpt lat="38.4752804" lon="16.0213615"><ele>45.0</ele><time>2026-04-09T13:58:15.24Z</time></trkpt><trkpt lat="38.4752268" lon="16.0214037"><ele>45.0</ele><time>2026-04-09T13:58:16.24Z</time></trkpt><trkpt lat="38.4751424" lon="16.0214753"><ele>45.0</ele><time>2026-04-09T13:58:18.24Z</time></trkpt><trkpt lat="38.4750675" lon="16.0215308"><ele>45.0</ele><time>2026-04-09T13:58:20.24Z</time></trkpt><trkpt lat="38.4750076" lon="16.0215696"><ele>45.0</ele><time>2026-04-09T13:58:22.24Z</time></trkpt><trkpt lat="38.4749341" lon="16.0215757"><ele>45.0</ele><time>2026-04-09T13:58:24.24Z</time></trkpt><trkpt lat="38.4748258" lon="16.0214915"><ele>45.0</ele><time>2026-04-09T13:58:26.24Z</time></trkpt><trkpt lat="38.4747741" lon="16.0214079"><ele>45.0</ele><time>2026-04-09T13:58:27.24Z</time></trkpt><trkpt lat="38.4747167" lon="16.0213219"><ele>45.0</ele><time>2026-04-09T13:58:28.24Z</time></trkpt><trkpt lat="38.4746662" lon="16.021235"><ele>45.0</ele><time>2026-04-09T13:58:29.24Z</time></trkpt><trkpt lat="38.4746103" lon="16.0211536"><ele>45.0</ele><time>2026-04-09T13:58:30.24Z</time></trkpt><trkpt lat="38.4745401" lon="16.0210537"><ele>45.0</ele><time>2026-04-09T13:58:31.24Z</time></trkpt><trkpt lat="38.4744504" lon="16.0209463"><ele>45.0</ele><time>2026-04-09T13:58:32.24Z</time></trkpt><trkpt lat="38.4743426" lon="16.0208146"><ele>45.0</ele><time>2026-04-09T13:58:33.24Z</time></trkpt><trkpt lat="38.4742366" lon="16.0206686"><ele>45.0</ele><time>2026-04-09T13:58:34.24Z</time></trkpt><trkpt lat="38.4741238" lon="16.0205226"><ele>45.0</ele><time>2026-04-09T13:58:35.239Z</time></trkpt><trkpt lat="38.4740071" lon="16.0203631"><ele>45.0</ele><time>2026-04-09T13:58:36.24Z</time></trkpt><trkpt lat="38.4738882" lon="16.0201965"><ele>45.0</ele><time>2026-04-09T13:58:37.24Z</time></trkpt><trkpt lat="38.4737593" lon="16.0200278"><ele>45.0</ele><time>2026-04-09T13:58:38.24Z</time></trkpt><trkpt lat="38.4736333" lon="16.0198481"><ele>45.333333333333336</ele><time>2026-04-09T13:58:39.24Z</time></trkpt><trkpt lat="38.4735002" lon="16.0196691"><ele>45.66666666666667</ele><time>2026-04-09T13:58:40.24Z</time></trkpt><trkpt lat="38.4733573" lon="16.0194831"><ele>46.0</ele><time>2026-04-09T13:58:41.24Z</time></trkpt><trkpt lat="38.4732204" lon="16.0192929"><ele>45.66666666666667</ele><time>2026-04-09T13:58:42.24Z</time></trkpt><trkpt lat="38.4730734" lon="16.0191034"><ele>45.333333333333336</ele><time>2026-04-09T13:58:43.24Z</time></trkpt><trkpt lat="38.4729254" lon="16.0189168"><ele>45.0</ele><time>2026-04-09T13:58:44.24Z</time></trkpt><trkpt lat="38.4727755" lon="16.0187284"><ele>45.333333333333336</ele><time>2026-04-09T13:58:45.24Z</time></trkpt><trkpt lat="38.4726267" lon="16.018537"><ele>45.66666666666667</ele><time>2026-04-09T13:58:46.24Z</time></trkpt><trkpt lat="38.4724838" lon="16.0183466"><ele>46.0</ele><time>2026-04-09T13:58:47.24Z</time></trkpt><trkpt lat="38.4723404" lon="16.0181493"><ele>46.0</ele><time>2026-04-09T13:58:48.24Z</time></trkpt><trkpt lat="38.4721912" lon="16.0179551"><ele>46.0</ele><time>2026-04-09T13:58:49.24Z</time></trkpt><trkpt lat="38.4720427" lon="16.0177575"><ele>46.0</ele><time>2026-04-09T13:58:50.24Z</time></trkpt><trkpt lat="38.4718894" lon="16.0175687"><ele>46.66666666666667</ele><time>2026-04-09T13:58:51.24Z</time></trkpt><trkpt lat="38.4717393" lon="16.0173798"><ele>47.333333333333336</ele><time>2026-04-09T13:58:52.24Z</time></trkpt><trkpt lat="38.4715923" lon="16.0171836"><ele>48.0</ele><time>2026-04-09T13:58:53.24Z</time></trkpt><trkpt lat="38.4714432" lon="16.0169837"><ele>48.0</ele><time>2026-04-09T13:58:54.24Z</time></trkpt><trkpt lat="38.4712892" lon="16.0167852"><ele>48.0</ele><time>2026-04-09T13:58:55.24Z</time></trkpt><trkpt lat="38.4711411" lon="16.0165987"><ele>48.0</ele><time>2026-04-09T13:58:56.24Z</time></trkpt><trkpt lat="38.47099" lon="16.0164107"><ele>48.0</ele><time>2026-04-09T13:58:57.24Z</time></trkpt><trkpt lat="38.4708472" lon="16.0162229"><ele>48.0</ele><time>2026-04-09T13:58:58.24Z</time></trkpt><trkpt lat="38.4707012" lon="16.0160305"><ele>48.0</ele><time>2026-04-09T13:58:59.24Z</time></trkpt><trkpt lat="38.4705476" lon="16.0158415"><ele>48.33333333333333</ele><time>2026-04-09T13:59:00.239Z</time></trkpt><trkpt lat="38.4703956" lon="16.0156545"><ele>48.666666666666664</ele><time>2026-04-09T13:59:01.24Z</time></trkpt><trkpt lat="38.4702537" lon="16.0154607"><ele>49.0</ele><time>2026-04-09T13:59:02.24Z</time></trkpt><trkpt lat="38.4701106" lon="16.0152617"><ele>49.0</ele><time>2026-04-09T13:59:03.24Z</time></trkpt><trkpt lat="38.4699645" lon="16.0150661"><ele>49.0</ele><time>2026-04-09T13:59:04.24Z</time></trkpt><trkpt lat="38.4698091" lon="16.0148856"><ele>49.0</ele><time>2026-04-09T13:59:05.239Z</time></trkpt><trkpt lat="38.4696651" lon="16.0147062"><ele>48.666666666666664</ele><time>2026-04-09T13:59:06.24Z</time></trkpt><trkpt lat="38.4695248" lon="16.0145303"><ele>48.33333333333333</ele><time>2026-04-09T13:59:07.24Z</time></trkpt><trkpt lat="38.469399" lon="16.0143646"><ele>48.0</ele><time>2026-04-09T13:59:08.24Z</time></trkpt><trkpt lat="38.4692807" lon="16.0142164"><ele>47.666666666666664</ele><time>2026-04-09T13:59:09.24Z</time></trkpt><trkpt lat="38.4691691" lon="16.014078"><ele>47.33333333333333</ele><time>2026-04-09T13:59:10.24Z</time></trkpt><trkpt lat="38.4690651" lon="16.0139384"><ele>47.0</ele><time>2026-04-09T13:59:11.24Z</time></trkpt><trkpt lat="38.4689634" lon="16.0137989"><ele>47.0</ele><time>2026-04-09T13:59:12.24Z</time></trkpt><trkpt lat="38.4688626" lon="16.0136665"><ele>47.0</ele><time>2026-04-09T13:59:13.24Z</time></trkpt><trkpt lat="38.4687621" lon="16.0135457"><ele>47.0</ele><time>2026-04-09T13:59:14.24Z</time></trkpt><trkpt lat="38.4686712" lon="16.0134225"><ele>47.0</ele><time>2026-04-09T13:59:15.24Z</time></trkpt><trkpt lat="38.4685858" lon="16.0133045"><ele>47.5</ele><time>2026-04-09T13:59:16.24Z</time></trkpt><trkpt lat="38.4684998" lon="16.0131933"><ele>48.0</ele><time>2026-04-09T13:59:17.24Z</time></trkpt><trkpt lat="38.4684119" lon="16.0130861"><ele>48.5</ele><time>2026-04-09T13:59:18.24Z</time></trkpt><trkpt lat="38.468323" lon="16.0129673"><ele>49.0</ele><time>2026-04-09T13:59:19.24Z</time></trkpt><trkpt lat="38.4682285" lon="16.0128455"><ele>49.0</ele><time>2026-04-09T13:59:20.239Z</time></trkpt><trkpt lat="38.4681337" lon="16.0127281"><ele>49.0</ele><time>2026-04-09T13:59:21.24Z</time></trkpt><trkpt lat="38.4680418" lon="16.0126096"><ele>49.0</ele><time>2026-04-09T13:59:22.24Z</time></trkpt><trkpt lat="38.4679518" lon="16.0124902"><ele>49.0</ele><time>2026-04-09T13:59:23.24Z</time></trkpt><trkpt lat="38.467856" lon="16.0123722"><ele>49.0</ele><time>2026-04-09T13:59:24.24Z</time></trkpt><trkpt lat="38.4677612" lon="16.0122557"><ele>49.0</ele><time>2026-04-09T13:59:25.24Z</time></trkpt><trkpt lat="38.4676733" lon="16.0121448"><ele>49.0</ele><time>2026-04-09T13:59:26.24Z</time></trkpt><trkpt lat="38.467591" lon="16.0120273"><ele>49.0</ele><time>2026-04-09T13:59:27.24Z</time></trkpt><trkpt lat="38.4675116" lon="16.0119143"><ele>49.0</ele><time>2026-04-09T13:59:28.24Z</time></trkpt><trkpt lat="38.4674262" lon="16.011801"><ele>49.0</ele><time>2026-04-09T13:59:29.24Z</time></trkpt><trkpt lat="38.4673342" lon="16.0116902"><ele>49.0</ele><time>2026-04-09T13:59:30.24Z</time></trkpt><trkpt lat="38.467258" lon="16.0115736"><ele>49.0</ele><time>2026-04-09T13:59:31.24Z</time></trkpt><trkpt lat="38.467183" lon="16.0114691"><ele>49.2</ele><time>2026-04-09T13:59:32.24Z</time></trkpt><trkpt lat="38.4671046" lon="16.0113618"><ele>49.400000000000006</ele><time>2026-04-09T13:59:33.24Z</time></trkpt><trkpt lat="38.4670296" lon="16.0112525"><ele>49.6</ele><time>2026-04-09T13:59:34.24Z</time></trkpt><trkpt lat="38.4669565" lon="16.0111538"><ele>49.8</ele><time>2026-04-09T13:59:35.24Z</time></trkpt><trkpt lat="38.4668836" lon="16.011054"><ele>50.0</ele><time>2026-04-09T13:59:36.24Z</time></trkpt><trkpt lat="38.466821" lon="16.0109562"><ele>50.00000000000001</ele><time>2026-04-09T13:59:37.24Z</time></trkpt><trkpt lat="38.4667721" lon="16.0108631"><ele>50.0</ele><time>2026-04-09T13:59:38.24Z</time></trkpt><trkpt lat="38.4667348" lon="16.0107794"><ele>50.0</ele><time>2026-04-09T13:59:39.24Z</time></trkpt><trkpt lat="38.4666989" lon="16.0106906"><ele>50.0</ele><time>2026-04-09T13:59:40.24Z</time></trkpt><trkpt lat="38.4666703" lon="16.0106083"><ele>50.00000000000001</ele><time>2026-04-09T13:59:41.24Z</time></trkpt><trkpt lat="38.466649" lon="16.0105317"><ele>50.0</ele><time>2026-04-09T13:59:42.24Z</time></trkpt><trkpt lat="38.4666418" lon="16.0103875"><ele>49.85714285714286</ele><time>2026-04-09T13:59:44.24Z</time></trkpt><trkpt lat="38.4666505" lon="16.0102987"><ele>49.714285714285715</ele><time>2026-04-09T13:59:45.24Z</time></trkpt><trkpt lat="38.4666623" lon="16.0102037"><ele>49.57142857142857</ele><time>2026-04-09T13:59:46.24Z</time></trkpt><trkpt lat="38.4666696" lon="16.0101063"><ele>49.42857142857143</ele><time>2026-04-09T13:59:47.24Z</time></trkpt><trkpt lat="38.4666729" lon="16.0100112"><ele>49.285714285714285</ele><time>2026-04-09T13:59:48.239Z</time></trkpt><trkpt lat="38.4666795" lon="16.0099151"><ele>49.142857142857146</ele><time>2026-04-09T13:59:49.24Z</time></trkpt><trkpt lat="38.4666944" lon="16.009824"><ele>49.0</ele><time>2026-04-09T13:59:50.24Z</time></trkpt><trkpt lat="38.4667257" lon="16.0097326"><ele>49.0</ele><time>2026-04-09T13:59:51.24Z</time></trkpt><trkpt lat="38.4667748" lon="16.0096488"><ele>49.0</ele><time>2026-04-09T13:59:52.24Z</time></trkpt><trkpt lat="38.4668354" lon="16.0095687"><ele>49.0</ele><time>2026-04-09T13:59:53.24Z</time></trkpt><trkpt lat="38.4669036" lon="16.0094873"><ele>49.0</ele><time>2026-04-09T13:59:54.24Z</time></trkpt><trkpt lat="38.4669664" lon="16.0094001"><ele>49.0</ele><time>2026-04-09T13:59:55.24Z</time></trkpt><trkpt lat="38.4670345" lon="16.0093026"><ele>49.0</ele><time>2026-04-09T13:59:56.24Z</time></trkpt><trkpt lat="38.4671065" lon="16.0092051"><ele>49.0</ele><time>2026-04-09T13:59:57.24Z</time></trkpt><trkpt lat="38.4671829" lon="16.0091033"><ele>49.0</ele><time>2026-04-09T13:59:58.24Z</time></trkpt><trkpt lat="38.4672586" lon="16.0089969"><ele>49.0</ele><time>2026-04-09T13:59:59.24Z</time></trkpt><trkpt lat="38.4673351" lon="16.0088938"><ele>49.0</ele><time>2026-04-09T14:00:00.24Z</time></trkpt><trkpt lat="38.4674174" lon="16.0087716"><ele>47.666666666666664</ele><time>2026-04-09T14:00:01.24Z</time></trkpt><trkpt lat="38.4675083" lon="16.0086452"><ele>46.33333333333333</ele><time>2026-04-09T14:00:02.24Z</time></trkpt><trkpt lat="38.467607" lon="16.0085031"><ele>45.0</ele><time>2026-04-09T14:00:03.24Z</time></trkpt><trkpt lat="38.4677197" lon="16.0083449"><ele>45.333333333333336</ele><time>2026-04-09T14:00:04.239Z</time></trkpt><trkpt lat="38.4678483" lon="16.0081754"><ele>45.66666666666667</ele><time>2026-04-09T14:00:05.239Z</time></trkpt><trkpt lat="38.4679887" lon="16.0080008"><ele>46.0</ele><time>2026-04-09T14:00:06.24Z</time></trkpt><trkpt lat="38.4681318" lon="16.0078228"><ele>46.0</ele><time>2026-04-09T14:00:07.24Z</time></trkpt><trkpt lat="38.4682774" lon="16.0076405"><ele>46.0</ele><time>2026-04-09T14:00:08.24Z</time></trkpt><trkpt lat="38.4684286" lon="16.0074444"><ele>46.0</ele><time>2026-04-09T14:00:09.24Z</time></trkpt><trkpt lat="38.4685741" lon="16.0072424"><ele>46.333333333333336</ele><time>2026-04-09T14:00:10.24Z</time></trkpt><trkpt lat="38.468719" lon="16.0070413"><ele>46.666666666666664</ele><time>2026-04-09T14:00:11.24Z</time></trkpt><trkpt lat="38.4688722" lon="16.0068318"><ele>47.0</ele><time>2026-04-09T14:00:12.24Z</time></trkpt><trkpt lat="38.4690175" lon="16.0066214"><ele>45.0</ele><time>2026-04-09T14:00:13.24Z</time></trkpt><trkpt lat="38.4691684" lon="16.006408"><ele>43.0</ele><time>2026-04-09T14:00:14.24Z</time></trkpt><trkpt lat="38.4693267" lon="16.0061959"><ele>43.0</ele><time>2026-04-09T14:00:15.24Z</time></trkpt><trkpt lat="38.4694865" lon="16.0059797"><ele>43.0</ele><time>2026-04-09T14:00:16.239Z</time></trkpt><trkpt lat="38.4696511" lon="16.005757"><ele>42.5</ele><time>2026-04-09T14:00:17.24Z</time></trkpt><trkpt lat="38.4698134" lon="16.0055306"><ele>42.0</ele><time>2026-04-09T14:00:18.24Z</time></trkpt><trkpt lat="38.4699796" lon="16.0053093"><ele>42.0</ele><time>2026-04-09T14:00:19.24Z</time></trkpt><trkpt lat="38.4701518" lon="16.0050863"><ele>42.0</ele><time>2026-04-09T14:00:20.24Z</time></trkpt><trkpt lat="38.4703225" lon="16.0048584"><ele>41.5</ele><time>2026-04-09T14:00:21.24Z</time></trkpt><trkpt lat="38.4704969" lon="16.004637"><ele>41.0</ele><time>2026-04-09T14:00:22.24Z</time></trkpt><trkpt lat="38.4706706" lon="16.0044054"><ele>41.0</ele><time>2026-04-09T14:00:23.24Z</time></trkpt><trkpt lat="38.4708369" lon="16.0041752"><ele>41.0</ele><time>2026-04-09T14:00:24.24Z</time></trkpt><trkpt lat="38.4710023" lon="16.0039449"><ele>40.5</ele><time>2026-04-09T14:00:25.24Z</time></trkpt><trkpt lat="38.4711741" lon="16.0037124"><ele>40.0</ele><time>2026-04-09T14:00:26.239Z</time></trkpt><trkpt lat="38.4713386" lon="16.0034877"><ele>40.0</ele><time>2026-04-09T14:00:27.24Z</time></trkpt><trkpt lat="38.4714965" lon="16.0032657"><ele>40.0</ele><time>2026-04-09T14:00:28.24Z</time></trkpt><trkpt lat="38.4716584" lon="16.003045"><ele>40.0</ele><time>2026-04-09T14:00:29.24Z</time></trkpt><trkpt lat="38.4718143" lon="16.0028208"><ele>40.0</ele><time>2026-04-09T14:00:30.24Z</time></trkpt><trkpt lat="38.4719763" lon="16.0025948"><ele>40.5</ele><time>2026-04-09T14:00:31.24Z</time></trkpt><trkpt lat="38.4721422" lon="16.0023711"><ele>41.0</ele><time>2026-04-09T14:00:32.24Z</time></trkpt><trkpt lat="38.4723058" lon="16.0021438"><ele>41.0</ele><time>2026-04-09T14:00:33.24Z</time></trkpt><trkpt lat="38.4724647" lon="16.0019257"><ele>41.0</ele><time>2026-04-09T14:00:34.24Z</time></trkpt><trkpt lat="38.4726224" lon="16.0017072"><ele>41.0</ele><time>2026-04-09T14:00:35.24Z</time></trkpt><trkpt lat="38.4727759" lon="16.00148"><ele>41.0</ele><time>2026-04-09T14:00:36.24Z</time></trkpt><trkpt lat="38.4729265" lon="16.0012574"><ele>39.5</ele><time>2026-04-09T14:00:37.24Z</time></trkpt><trkpt lat="38.4730793" lon="16.0010244"><ele>38.0</ele><time>2026-04-09T14:00:38.24Z</time></trkpt><trkpt lat="38.4732269" lon="16.0008053"><ele>38.0</ele><time>2026-04-09T14:00:39.24Z</time></trkpt><trkpt lat="38.4733778" lon="16.000587"><ele>38.0</ele><time>2026-04-09T14:00:40.24Z</time></trkpt><trkpt lat="38.4735237" lon="16.0003618"><ele>38.0</ele><time>2026-04-09T14:00:41.24Z</time></trkpt><trkpt lat="38.4736704" lon="16.0001378"><ele>38.0</ele><time>2026-04-09T14:00:42.239Z</time></trkpt><trkpt lat="38.4738254" lon="15.9999133"><ele>36.5</ele><time>2026-04-09T14:00:43.24Z</time></trkpt><trkpt lat="38.4739777" lon="15.9996949"><ele>35.0</ele><time>2026-04-09T14:00:44.24Z</time></trkpt><trkpt lat="38.4741268" lon="15.9994735"><ele>35.0</ele><time>2026-04-09T14:00:45.24Z</time></trkpt><trkpt lat="38.474276" lon="15.9992545"><ele>35.0</ele><time>2026-04-09T14:00:46.239Z</time></trkpt><trkpt lat="38.4744229" lon="15.9990448"><ele>35.0</ele><time>2026-04-09T14:00:47.24Z</time></trkpt><trkpt lat="38.4745681" lon="15.9988405"><ele>35.0</ele><time>2026-04-09T14:00:48.24Z</time></trkpt><trkpt lat="38.4747157" lon="15.998629"><ele>35.0</ele><time>2026-04-09T14:00:49.24Z</time></trkpt><trkpt lat="38.4748552" lon="15.9984192"><ele>35.0</ele><time>2026-04-09T14:00:50.24Z</time></trkpt><trkpt lat="38.4749837" lon="15.9982327"><ele>35.33333333333333</ele><time>2026-04-09T14:00:51.239Z</time></trkpt><trkpt lat="38.4750993" lon="15.998054"><ele>35.666666666666664</ele><time>2026-04-09T14:00:52.24Z</time></trkpt><trkpt lat="38.4752029" lon="15.9978909"><ele>36.0</ele><time>2026-04-09T14:00:53.24Z</time></trkpt><trkpt lat="38.4752929" lon="15.9977467"><ele>36.0</ele><time>2026-04-09T14:00:54.24Z</time></trkpt><trkpt lat="38.4753769" lon="15.9976287"><ele>36.0</ele><time>2026-04-09T14:00:55.24Z</time></trkpt><trkpt lat="38.4754514" lon="15.9975307"><ele>36.0</ele><time>2026-04-09T14:00:56.239Z</time></trkpt><trkpt lat="38.4755364" lon="15.9974594"><ele>36.0</ele><time>2026-04-09T14:00:57.239Z</time></trkpt><trkpt lat="38.4756385" lon="15.9974358"><ele>36.0</ele><time>2026-04-09T14:00:58.24Z</time></trkpt><trkpt lat="38.4757415" lon="15.9974407"><ele>36.0</ele><time>2026-04-09T14:00:59.24Z</time></trkpt><trkpt lat="38.4758503" lon="15.9974814"><ele>36.0</ele><time>2026-04-09T14:01:00.239Z</time></trkpt><trkpt lat="38.4759518" lon="15.9975604"><ele>36.0</ele><time>2026-04-09T14:01:01.24Z</time></trkpt><trkpt lat="38.4760569" lon="15.9976766"><ele>36.0</ele><time>2026-04-09T14:01:02.24Z</time></trkpt><trkpt lat="38.4761645" lon="15.9978031"><ele>35.75</ele><time>2026-04-09T14:01:03.24Z</time></trkpt><trkpt lat="38.4762796" lon="15.9979123"><ele>35.5</ele><time>2026-04-09T14:01:04.24Z</time></trkpt><trkpt lat="38.4764115" lon="15.9980004"><ele>35.25</ele><time>2026-04-09T14:01:05.24Z</time></trkpt><trkpt lat="38.4765426" lon="15.9980445"><ele>35.0</ele><time>2026-04-09T14:01:06.24Z</time></trkpt><trkpt lat="38.4766757" lon="15.9980415"><ele>35.0</ele><time>2026-04-09T14:01:07.24Z</time></trkpt><trkpt lat="38.4768003" lon="15.9979903"><ele>35.0</ele><time>2026-04-09T14:01:08.24Z</time></trkpt><trkpt lat="38.4769183" lon="15.9978942"><ele>35.0</ele><time>2026-04-09T14:01:09.24Z</time></trkpt><trkpt lat="38.4770269" lon="15.9977633"><ele>35.0</ele><time>2026-04-09T14:01:10.24Z</time></trkpt><trkpt lat="38.4771106" lon="15.9976374"><ele>34.8</ele><time>2026-04-09T14:01:11.24Z</time></trkpt><trkpt lat="38.4771891" lon="15.9975453"><ele>34.6</ele><time>2026-04-09T14:01:12.24Z</time></trkpt><trkpt lat="38.4772797" lon="15.9974741"><ele>34.4</ele><time>2026-04-09T14:01:13.24Z</time></trkpt><trkpt lat="38.47738" lon="15.9974179"><ele>34.2</ele><time>2026-04-09T14:01:14.24Z</time></trkpt><trkpt lat="38.4774731" lon="15.9974038"><ele>34.0</ele><time>2026-04-09T14:01:15.24Z</time></trkpt><trkpt lat="38.4775679" lon="15.9974213"><ele>34.0</ele><time>2026-04-09T14:01:16.24Z</time></trkpt><trkpt lat="38.4776537" lon="15.997473"><ele>34.0</ele><time>2026-04-09T14:01:17.24Z</time></trkpt><trkpt lat="38.4777412" lon="15.9975466"><ele>34.0</ele><time>2026-04-09T14:01:18.24Z</time></trkpt><trkpt lat="38.4778252" lon="15.9976266"><ele>34.0</ele><time>2026-04-09T14:01:19.24Z</time></trkpt><trkpt lat="38.4779179" lon="15.9977208"><ele>34.0</ele><time>2026-04-09T14:01:20.24Z</time></trkpt><trkpt lat="38.478015" lon="15.9978139"><ele>33.5</ele><time>2026-04-09T14:01:21.24Z</time></trkpt><trkpt lat="38.4781149" lon="15.9979155"><ele>33.0</ele><time>2026-04-09T14:01:22.24Z</time></trkpt><trkpt lat="38.4782184" lon="15.9980235"><ele>32.5</ele><time>2026-04-09T14:01:23.24Z</time></trkpt><trkpt lat="38.4783292" lon="15.9981257"><ele>32.0</ele><time>2026-04-09T14:01:24.239Z</time></trkpt><trkpt lat="38.4784397" lon="15.9982321"><ele>32.0</ele><time>2026-04-09T14:01:25.24Z</time></trkpt><trkpt lat="38.4785468" lon="15.9983318"><ele>32.0</ele><time>2026-04-09T14:01:26.24Z</time></trkpt><trkpt lat="38.4786488" lon="15.9984284"><ele>32.0</ele><time>2026-04-09T14:01:27.239Z</time></trkpt><trkpt lat="38.4787544" lon="15.9985233"><ele>32.0</ele><time>2026-04-09T14:01:28.239Z</time></trkpt><trkpt lat="38.4788536" lon="15.9986223"><ele>32.75</ele><time>2026-04-09T14:01:29.24Z</time></trkpt><trkpt lat="38.478949" lon="15.9987182"><ele>33.5</ele><time>2026-04-09T14:01:30.24Z</time></trkpt><trkpt lat="38.4790465" lon="15.9988154"><ele>34.25</ele><time>2026-04-09T14:01:31.24Z</time></trkpt><trkpt lat="38.4791417" lon="15.9989154"><ele>35.0</ele><time>2026-04-09T14:01:32.24Z</time></trkpt><trkpt lat="38.4792258" lon="15.9990263"><ele>35.0</ele><time>2026-04-09T14:01:33.24Z</time></trkpt><trkpt lat="38.479299" lon="15.9991553"><ele>35.0</ele><time>2026-04-09T14:01:34.24Z</time></trkpt><trkpt lat="38.4793467" lon="15.9993002"><ele>35.0</ele><time>2026-04-09T14:01:35.24Z</time></trkpt><trkpt lat="38.4793765" lon="15.9994526"><ele>35.0</ele><time>2026-04-09T14:01:36.24Z</time></trkpt><trkpt lat="38.4793807" lon="15.9996155"><ele>34.25</ele><time>2026-04-09T14:01:37.239Z</time></trkpt><trkpt lat="38.4793574" lon="15.9997718"><ele>33.5</ele><time>2026-04-09T14:01:38.24Z</time></trkpt><trkpt lat="38.479308" lon="15.9999131"><ele>32.75</ele><time>2026-04-09T14:01:39.24Z</time></trkpt><trkpt lat="38.4792396" lon="16.0000418"><ele>32.0</ele><time>2026-04-09T14:01:40.24Z</time></trkpt><trkpt lat="38.4791584" lon="16.0001493"><ele>32.0</ele><time>2026-04-09T14:01:41.24Z</time></trkpt><trkpt lat="38.4790634" lon="16.0002391"><ele>32.0</ele><time>2026-04-09T14:01:42.239Z</time></trkpt><trkpt lat="38.4789579" lon="16.0003085"><ele>32.0</ele><time>2026-04-09T14:01:43.24Z</time></trkpt><trkpt lat="38.4788481" lon="16.0003436"><ele>32.0</ele><time>2026-04-09T14:01:44.24Z</time></trkpt><trkpt lat="38.4787302" lon="16.0003542"><ele>32.75</ele><time>2026-04-09T14:01:45.24Z</time></trkpt><trkpt lat="38.478612" lon="16.0003437"><ele>33.5</ele><time>2026-04-09T14:01:46.24Z</time></trkpt><trkpt lat="38.4784933" lon="16.0003063"><ele>34.25</ele><time>2026-04-09T14:01:47.24Z</time></trkpt><trkpt lat="38.4783781" lon="16.0002601"><ele>35.0</ele><time>2026-04-09T14:01:48.24Z</time></trkpt><trkpt lat="38.4782571" lon="16.0002068"><ele>35.0</ele><time>2026-04-09T14:01:49.24Z</time></trkpt><trkpt lat="38.4781323" lon="16.000151"><ele>35.0</ele><time>2026-04-09T14:01:50.24Z</time></trkpt><trkpt lat="38.4779977" lon="16.0000892"><ele>35.0</ele><time>2026-04-09T14:01:51.24Z</time></trkpt><trkpt lat="38.477856" lon="16.0000189"><ele>35.0</ele><time>2026-04-09T14:01:52.24Z</time></trkpt><trkpt lat="38.4777293" lon="15.9999517"><ele>34.75</ele><time>2026-04-09T14:01:53.24Z</time></trkpt><trkpt lat="38.4776093" lon="15.9998869"><ele>34.5</ele><time>2026-04-09T14:01:54.24Z</time></trkpt><trkpt lat="38.4774917" lon="15.9998313"><ele>34.25</ele><time>2026-04-09T14:01:55.24Z</time></trkpt><trkpt lat="38.4773574" lon="15.9997683"><ele>34.0</ele><time>2026-04-09T14:01:56.24Z</time></trkpt><trkpt lat="38.4772098" lon="15.9996918"><ele>34.66666666666667</ele><time>2026-04-09T14:01:57.24Z</time></trkpt><trkpt lat="38.4770543" lon="15.9995996"><ele>35.333333333333336</ele><time>2026-04-09T14:01:58.24Z</time></trkpt><trkpt lat="38.4768933" lon="15.9995055"><ele>36.0</ele><time>2026-04-09T14:01:59.24Z</time></trkpt><trkpt lat="38.4767325" lon="15.9994011"><ele>36.0</ele><time>2026-04-09T14:02:00.24Z</time></trkpt><trkpt lat="38.476567" lon="15.9992957"><ele>36.0</ele><time>2026-04-09T14:02:01.24Z</time></trkpt><trkpt lat="38.476396" lon="15.9991897"><ele>36.0</ele><time>2026-04-09T14:02:02.24Z</time></trkpt><trkpt lat="38.4762255" lon="15.9990766"><ele>35.0</ele><time>2026-04-09T14:02:03.24Z</time></trkpt><trkpt lat="38.4760515" lon="15.9989626"><ele>34.0</ele><time>2026-04-09T14:02:04.24Z</time></trkpt><trkpt lat="38.4758808" lon="15.9988377"><ele>33.0</ele><time>2026-04-09T14:02:05.24Z</time></trkpt><trkpt lat="38.4756958" lon="15.9987043"><ele>33.0</ele><time>2026-04-09T14:02:06.24Z</time></trkpt><trkpt lat="38.4755044" lon="15.9985626"><ele>33.0</ele><time>2026-04-09T14:02:07.24Z</time></trkpt><trkpt lat="38.4753203" lon="15.9984324"><ele>33.0</ele><time>2026-04-09T14:02:08.24Z</time></trkpt><trkpt lat="38.475131" lon="15.9982896"><ele>33.333333333333336</ele><time>2026-04-09T14:02:09.24Z</time></trkpt><trkpt lat="38.4749463" lon="15.9981433"><ele>33.66666666666667</ele><time>2026-04-09T14:02:10.24Z</time></trkpt><trkpt lat="38.4747587" lon="15.9979816"><ele>34.0</ele><time>2026-04-09T14:02:11.24Z</time></trkpt><trkpt lat="38.4745544" lon="15.9978308"><ele>34.0</ele><time>2026-04-09T14:02:12.24Z</time></trkpt><trkpt lat="38.4743507" lon="15.9976711"><ele>34.0</ele><time>2026-04-09T14:02:13.24Z</time></trkpt><trkpt lat="38.4741456" lon="15.997518"><ele>34.0</ele><time>2026-04-09T14:02:14.239Z</time></trkpt><trkpt lat="38.4739356" lon="15.9973636"><ele>34.0</ele><time>2026-04-09T14:02:15.24Z</time></trkpt><trkpt lat="38.4737312" lon="15.997206"><ele>34.5</ele><time>2026-04-09T14:02:16.24Z</time></trkpt><trkpt lat="38.4735176" lon="15.9970461"><ele>35.0</ele><time>2026-04-09T14:02:17.24Z</time></trkpt><trkpt lat="38.4733086" lon="15.9968881"><ele>35.0</ele><time>2026-04-09T14:02:18.24Z</time></trkpt><trkpt lat="38.4731033" lon="15.9967263"><ele>35.0</ele><time>2026-04-09T14:02:19.24Z</time></trkpt><trkpt lat="38.4728941" lon="15.9965538"><ele>35.5</ele><time>2026-04-09T14:02:20.24Z</time></trkpt><trkpt lat="38.4726885" lon="15.9963697"><ele>36.0</ele><time>2026-04-09T14:02:21.24Z</time></trkpt><trkpt lat="38.4724892" lon="15.9961812"><ele>36.0</ele><time>2026-04-09T14:02:22.24Z</time></trkpt><trkpt lat="38.4722883" lon="15.9959812"><ele>36.0</ele><time>2026-04-09T14:02:23.239Z</time></trkpt><trkpt lat="38.4720916" lon="15.9957697"><ele>35.0</ele><time>2026-04-09T14:02:24.24Z</time></trkpt><trkpt lat="38.4719035" lon="15.9955416"><ele>34.0</ele><time>2026-04-09T14:02:25.24Z</time></trkpt><trkpt lat="38.4717218" lon="15.9953149"><ele>34.0</ele><time>2026-04-09T14:02:26.24Z</time></trkpt><trkpt lat="38.4715426" lon="15.9950871"><ele>34.0</ele><time>2026-04-09T14:02:27.24Z</time></trkpt><trkpt lat="38.4713647" lon="15.9948527"><ele>33.5</ele><time>2026-04-09T14:02:28.24Z</time></trkpt><trkpt lat="38.4712015" lon="15.9946124"><ele>33.0</ele><time>2026-04-09T14:02:29.24Z</time></trkpt><trkpt lat="38.4710389" lon="15.9943691"><ele>33.0</ele><time>2026-04-09T14:02:30.24Z</time></trkpt><trkpt lat="38.4708823" lon="15.9941219"><ele>33.0</ele><time>2026-04-09T14:02:31.24Z</time></trkpt><trkpt lat="38.4707236" lon="15.9938734"><ele>33.0</ele><time>2026-04-09T14:02:32.24Z</time></trkpt><trkpt lat="38.4705728" lon="15.9936232"><ele>33.0</ele><time>2026-04-09T14:02:33.24Z</time></trkpt><trkpt lat="38.470431" lon="15.9933626"><ele>32.0</ele><time>2026-04-09T14:02:34.24Z</time></trkpt><trkpt lat="38.4702864" lon="15.9930939"><ele>31.0</ele><time>2026-04-09T14:02:35.24Z</time></trkpt><trkpt lat="38.4701405" lon="15.9928289"><ele>31.0</ele><time>2026-04-09T14:02:36.24Z</time></trkpt><trkpt lat="38.4699981" lon="15.9925681"><ele>31.0</ele><time>2026-04-09T14:02:37.24Z</time></trkpt><trkpt lat="38.4698564" lon="15.992308"><ele>32.0</ele><time>2026-04-09T14:02:38.24Z</time></trkpt><trkpt lat="38.4697189" lon="15.9920508"><ele>33.0</ele><time>2026-04-09T14:02:39.24Z</time></trkpt><trkpt lat="38.4695793" lon="15.9917955"><ele>45.5</ele><time>2026-04-09T14:02:40.24Z</time></trkpt><trkpt lat="38.4694308" lon="15.9915319"><ele>58.0</ele><time>2026-04-09T14:02:41.24Z</time></trkpt><trkpt lat="38.4692849" lon="15.9912722"><ele>58.0</ele><time>2026-04-09T14:02:42.24Z</time></trkpt><trkpt lat="38.4691302" lon="15.9910074"><ele>58.0</ele><time>2026-04-09T14:02:43.24Z</time></trkpt><trkpt lat="38.4689713" lon="15.9907442"><ele>59.5</ele><time>2026-04-09T14:02:44.24Z</time></trkpt><trkpt lat="38.4688128" lon="15.9904724"><ele>61.0</ele><time>2026-04-09T14:02:45.24Z</time></trkpt><trkpt lat="38.4686635" lon="15.9902048"><ele>61.0</ele><time>2026-04-09T14:02:46.24Z</time></trkpt><trkpt lat="38.4685183" lon="15.9899397"><ele>61.0</ele><time>2026-04-09T14:02:47.24Z</time></trkpt><trkpt lat="38.4683784" lon="15.9896705"><ele>61.0</ele><time>2026-04-09T14:02:48.24Z</time></trkpt><trkpt lat="38.4681834" lon="15.9894297"><ele>61.0</ele><time>2026-04-09T14:02:49.24Z</time></trkpt><trkpt lat="38.4680682" lon="15.9891322"><ele>57.5</ele><time>2026-04-09T14:02:50.24Z</time></trkpt><trkpt lat="38.4679352" lon="15.9888456"><ele>54.0</ele><time>2026-04-09T14:02:51.24Z</time></trkpt><trkpt lat="38.4677948" lon="15.9885701"><ele>54.5</ele><time>2026-04-09T14:02:52.24Z</time></trkpt><trkpt lat="38.4676507" lon="15.9882953"><ele>55.0</ele><time>2026-04-09T14:02:53.24Z</time></trkpt><trkpt lat="38.4675084" lon="15.9880215"><ele>55.0</ele><time>2026-04-09T14:02:54.239Z</time></trkpt><trkpt lat="38.4673737" lon="15.9877466"><ele>55.0</ele><time>2026-04-09T14:02:55.24Z</time></trkpt><trkpt lat="38.467235" lon="15.9874795"><ele>55.5</ele><time>2026-04-09T14:02:56.24Z</time></trkpt><trkpt lat="38.4670953" lon="15.9872087"><ele>56.0</ele><time>2026-04-09T14:02:57.24Z</time></trkpt><trkpt lat="38.466954" lon="15.9869445"><ele>56.0</ele><time>2026-04-09T14:02:58.24Z</time></trkpt><trkpt lat="38.4668112" lon="15.9866799"><ele>56.0</ele><time>2026-04-09T14:02:59.24Z</time></trkpt><trkpt lat="38.4666696" lon="15.9864182"><ele>56.5</ele><time>2026-04-09T14:03:00.24Z</time></trkpt><trkpt lat="38.4665282" lon="15.9861584"><ele>57.0</ele><time>2026-04-09T14:03:01.24Z</time></trkpt><trkpt lat="38.4663922" lon="15.9859083"><ele>59.0</ele><time>2026-04-09T14:03:02.24Z</time></trkpt><trkpt lat="38.4662571" lon="15.9856486"><ele>61.0</ele><time>2026-04-09T14:03:03.24Z</time></trkpt><trkpt lat="38.4661156" lon="15.9853784"><ele>61.0</ele><time>2026-04-09T14:03:04.24Z</time></trkpt><trkpt lat="38.4659635" lon="15.9851197"><ele>61.0</ele><time>2026-04-09T14:03:05.24Z</time></trkpt><trkpt lat="38.4658226" lon="15.9848566"><ele>60.0</ele><time>2026-04-09T14:03:06.24Z</time></trkpt><trkpt lat="38.4656767" lon="15.9845887"><ele>59.0</ele><time>2026-04-09T14:03:07.24Z</time></trkpt><trkpt lat="38.4655272" lon="15.984323"><ele>62.5</ele><time>2026-04-09T14:03:08.24Z</time></trkpt><trkpt lat="38.4653716" lon="15.9840591"><ele>66.0</ele><time>2026-04-09T14:03:09.24Z</time></trkpt><trkpt lat="38.4652159" lon="15.9837976"><ele>66.0</ele><time>2026-04-09T14:03:10.24Z</time></trkpt><trkpt lat="38.4650692" lon="15.983536"><ele>66.0</ele><time>2026-04-09T14:03:11.239Z</time></trkpt><trkpt lat="38.4649194" lon="15.9832767"><ele>65.0</ele><time>2026-04-09T14:03:12.24Z</time></trkpt><trkpt lat="38.4647666" lon="15.9830139"><ele>64.0</ele><time>2026-04-09T14:03:13.239Z</time></trkpt><trkpt lat="38.4646128" lon="15.9827527"><ele>63.5</ele><time>2026-04-09T14:03:14.24Z</time></trkpt><trkpt lat="38.4644574" lon="15.9824986"><ele>63.0</ele><time>2026-04-09T14:03:15.24Z</time></trkpt><trkpt lat="38.4642834" lon="15.982251"><ele>63.0</ele><time>2026-04-09T14:03:16.24Z</time></trkpt><trkpt lat="38.4641163" lon="15.9820088"><ele>63.0</ele><time>2026-04-09T14:03:17.24Z</time></trkpt><trkpt lat="38.4639428" lon="15.9817654"><ele>65.0</ele><time>2026-04-09T14:03:18.24Z</time></trkpt><trkpt lat="38.4637688" lon="15.9815197"><ele>67.0</ele><time>2026-04-09T14:03:19.24Z</time></trkpt><trkpt lat="38.4635892" lon="15.9812906"><ele>67.0</ele><time>2026-04-09T14:03:20.239Z</time></trkpt><trkpt lat="38.4634022" lon="15.9810593"><ele>67.0</ele><time>2026-04-09T14:03:21.24Z</time></trkpt><trkpt lat="38.4632091" lon="15.9808351"><ele>66.5</ele><time>2026-04-09T14:03:22.24Z</time></trkpt><trkpt lat="38.4630169" lon="15.9806152"><ele>66.0</ele><time>2026-04-09T14:03:23.239Z</time></trkpt><trkpt lat="38.4628197" lon="15.9803949"><ele>66.0</ele><time>2026-04-09T14:03:24.239Z</time></trkpt><trkpt lat="38.4626201" lon="15.9801748"><ele>66.0</ele><time>2026-04-09T14:03:25.24Z</time></trkpt><trkpt lat="38.4624182" lon="15.979954"><ele>66.0</ele><time>2026-04-09T14:03:26.24Z</time></trkpt><trkpt lat="38.4622093" lon="15.9797365"><ele>66.0</ele><time>2026-04-09T14:03:27.24Z</time></trkpt><trkpt lat="38.4620003" lon="15.9795091"><ele>66.0</ele><time>2026-04-09T14:03:28.24Z</time></trkpt><trkpt lat="38.4617947" lon="15.9792964"><ele>66.0</ele><time>2026-04-09T14:03:29.24Z</time></trkpt><trkpt lat="38.4615921" lon="15.9790896"><ele>66.0</ele><time>2026-04-09T14:03:30.24Z</time></trkpt><trkpt lat="38.4613917" lon="15.9788801"><ele>66.0</ele><time>2026-04-09T14:03:31.239Z</time></trkpt><trkpt lat="38.4611907" lon="15.9786611"><ele>66.0</ele><time>2026-04-09T14:03:32.24Z</time></trkpt><trkpt lat="38.4609919" lon="15.978437"><ele>66.0</ele><time>2026-04-09T14:03:33.24Z</time></trkpt><trkpt lat="38.4607899" lon="15.9782173"><ele>66.0</ele><time>2026-04-09T14:03:34.24Z</time></trkpt><trkpt lat="38.4605851" lon="15.9779952"><ele>66.0</ele><time>2026-04-09T14:03:35.24Z</time></trkpt><trkpt lat="38.4603731" lon="15.9777792"><ele>68.0</ele><time>2026-04-09T14:03:36.24Z</time></trkpt><trkpt lat="38.4601714" lon="15.9775683"><ele>70.0</ele><time>2026-04-09T14:03:37.24Z</time></trkpt><trkpt lat="38.4599724" lon="15.9773597"><ele>70.0</ele><time>2026-04-09T14:03:38.239Z</time></trkpt><trkpt lat="38.4597655" lon="15.9771512"><ele>70.0</ele><time>2026-04-09T14:03:39.24Z</time></trkpt><trkpt lat="38.4595619" lon="15.9769459"><ele>72.0</ele><time>2026-04-09T14:03:40.24Z</time></trkpt><trkpt lat="38.4593655" lon="15.9767366"><ele>74.0</ele><time>2026-04-09T14:03:41.24Z</time></trkpt><trkpt lat="38.4591548" lon="15.9765169"><ele>74.0</ele><time>2026-04-09T14:03:42.24Z</time></trkpt><trkpt lat="38.4589443" lon="15.9763078"><ele>74.0</ele><time>2026-04-09T14:03:43.24Z</time></trkpt><trkpt lat="38.4587399" lon="15.9760952"><ele>74.5</ele><time>2026-04-09T14:03:44.24Z</time></trkpt><trkpt lat="38.4585407" lon="15.9758749"><ele>75.0</ele><time>2026-04-09T14:03:45.24Z</time></trkpt><trkpt lat="38.4583449" lon="15.9756519"><ele>75.0</ele><time>2026-04-09T14:03:46.24Z</time></trkpt><trkpt lat="38.4581413" lon="15.9754384"><ele>75.0</ele><time>2026-04-09T14:03:47.239Z</time></trkpt><trkpt lat="38.4579393" lon="15.9752251"><ele>74.5</ele><time>2026-04-09T14:03:48.24Z</time></trkpt><trkpt lat="38.4577362" lon="15.9750131"><ele>74.0</ele><time>2026-04-09T14:03:49.24Z</time></trkpt><trkpt lat="38.4575315" lon="15.9747958"><ele>74.0</ele><time>2026-04-09T14:03:50.24Z</time></trkpt><trkpt lat="38.4573277" lon="15.9745817"><ele>74.0</ele><time>2026-04-09T14:03:51.24Z</time></trkpt><trkpt lat="38.4571216" lon="15.9743767"><ele>73.5</ele><time>2026-04-09T14:03:52.24Z</time></trkpt><trkpt lat="38.456922" lon="15.9741577"><ele>73.0</ele><time>2026-04-09T14:03:53.24Z</time></trkpt><trkpt lat="38.4567193" lon="15.9739407"><ele>73.0</ele><time>2026-04-09T14:03:54.24Z</time></trkpt><trkpt lat="38.4565162" lon="15.9737255"><ele>73.0</ele><time>2026-04-09T14:03:55.239Z</time></trkpt><trkpt lat="38.4563101" lon="15.9735048"><ele>73.0</ele><time>2026-04-09T14:03:56.24Z</time></trkpt><trkpt lat="38.4561035" lon="15.9732918"><ele>73.0</ele><time>2026-04-09T14:03:57.24Z</time></trkpt><trkpt lat="38.4559025" lon="15.9730673"><ele>73.0</ele><time>2026-04-09T14:03:58.24Z</time></trkpt><trkpt lat="38.4556982" lon="15.972848"><ele>73.0</ele><time>2026-04-09T14:03:59.24Z</time></trkpt><trkpt lat="38.4555071" lon="15.9726292"><ele>72.5</ele><time>2026-04-09T14:04:00.24Z</time></trkpt><trkpt lat="38.4553003" lon="15.9724237"><ele>72.0</ele><time>2026-04-09T14:04:01.24Z</time></trkpt><trkpt lat="38.4550878" lon="15.9722142"><ele>72.0</ele><time>2026-04-09T14:04:02.24Z</time></trkpt><trkpt lat="38.4548916" lon="15.9720031"><ele>72.0</ele><time>2026-04-09T14:04:03.24Z</time></trkpt><trkpt lat="38.4546894" lon="15.9717887"><ele>70.0</ele><time>2026-04-09T14:04:04.24Z</time></trkpt><trkpt lat="38.4544869" lon="15.9715732"><ele>68.0</ele><time>2026-04-09T14:04:05.239Z</time></trkpt><trkpt lat="38.4542879" lon="15.9713596"><ele>68.0</ele><time>2026-04-09T14:04:06.24Z</time></trkpt><trkpt lat="38.45409" lon="15.9711385"><ele>68.0</ele><time>2026-04-09T14:04:07.24Z</time></trkpt><trkpt lat="38.4539008" lon="15.9709123"><ele>68.0</ele><time>2026-04-09T14:04:08.24Z</time></trkpt><trkpt lat="38.4537151" lon="15.9706758"><ele>68.0</ele><time>2026-04-09T14:04:09.24Z</time></trkpt><trkpt lat="38.4535291" lon="15.9704357"><ele>68.0</ele><time>2026-04-09T14:04:10.239Z</time></trkpt><trkpt lat="38.453343" lon="15.970195"><ele>68.0</ele><time>2026-04-09T14:04:11.24Z</time></trkpt><trkpt lat="38.4531611" lon="15.9699556"><ele>68.0</ele><time>2026-04-09T14:04:12.24Z</time></trkpt><trkpt lat="38.4529751" lon="15.969717"><ele>68.0</ele><time>2026-04-09T14:04:13.24Z</time></trkpt><trkpt lat="38.4527919" lon="15.9694793"><ele>69.0</ele><time>2026-04-09T14:04:14.24Z</time></trkpt><trkpt lat="38.4526182" lon="15.9692396"><ele>70.0</ele><time>2026-04-09T14:04:15.24Z</time></trkpt><trkpt lat="38.452437" lon="15.9689878"><ele>70.0</ele><time>2026-04-09T14:04:16.24Z</time></trkpt><trkpt lat="38.4522559" lon="15.9687397"><ele>70.0</ele><time>2026-04-09T14:04:17.24Z</time></trkpt><trkpt lat="38.4520828" lon="15.9684801"><ele>68.5</ele><time>2026-04-09T14:04:18.24Z</time></trkpt><trkpt lat="38.4519185" lon="15.9682141"><ele>67.0</ele><time>2026-04-09T14:04:19.24Z</time></trkpt><trkpt lat="38.4517556" lon="15.9679511"><ele>67.0</ele><time>2026-04-09T14:04:20.24Z</time></trkpt><trkpt lat="38.4515957" lon="15.9676915"><ele>67.0</ele><time>2026-04-09T14:04:21.24Z</time></trkpt><trkpt lat="38.4514344" lon="15.9674288"><ele>67.5</ele><time>2026-04-09T14:04:22.24Z</time></trkpt><trkpt lat="38.4512746" lon="15.9671706"><ele>68.0</ele><time>2026-04-09T14:04:23.239Z</time></trkpt><trkpt lat="38.4511209" lon="15.9669019"><ele>67.5</ele><time>2026-04-09T14:04:24.24Z</time></trkpt><trkpt lat="38.4509689" lon="15.9666307"><ele>67.0</ele><time>2026-04-09T14:04:25.239Z</time></trkpt><trkpt lat="38.4508135" lon="15.9663668"><ele>67.0</ele><time>2026-04-09T14:04:26.24Z</time></trkpt><trkpt lat="38.4506633" lon="15.966103"><ele>67.0</ele><time>2026-04-09T14:04:27.24Z</time></trkpt><trkpt lat="38.450518" lon="15.965825"><ele>66.5</ele><time>2026-04-09T14:04:28.24Z</time></trkpt><trkpt lat="38.4503749" lon="15.9655475"><ele>66.0</ele><time>2026-04-09T14:04:29.24Z</time></trkpt><trkpt lat="38.4502317" lon="15.9652665"><ele>68.0</ele><time>2026-04-09T14:04:30.24Z</time></trkpt><trkpt lat="38.4500924" lon="15.964979"><ele>70.0</ele><time>2026-04-09T14:04:31.24Z</time></trkpt><trkpt lat="38.4499524" lon="15.9646807"><ele>70.0</ele><time>2026-04-09T14:04:32.24Z</time></trkpt><trkpt lat="38.4498221" lon="15.9643844"><ele>70.0</ele><time>2026-04-09T14:04:33.24Z</time></trkpt><trkpt lat="38.4496943" lon="15.9640905"><ele>71.5</ele><time>2026-04-09T14:04:34.24Z</time></trkpt><trkpt lat="38.4495709" lon="15.9637938"><ele>73.0</ele><time>2026-04-09T14:04:35.239Z</time></trkpt><trkpt lat="38.4494517" lon="15.9634971"><ele>72.0</ele><time>2026-04-09T14:04:36.24Z</time></trkpt><trkpt lat="38.4493367" lon="15.9631959"><ele>71.0</ele><time>2026-04-09T14:04:37.24Z</time></trkpt><trkpt lat="38.4492181" lon="15.9628979"><ele>71.0</ele><time>2026-04-09T14:04:38.24Z</time></trkpt><trkpt lat="38.4491046" lon="15.9625936"><ele>71.0</ele><time>2026-04-09T14:04:39.24Z</time></trkpt><trkpt lat="38.4489926" lon="15.9622874"><ele>71.0</ele><time>2026-04-09T14:04:40.24Z</time></trkpt><trkpt lat="38.4488816" lon="15.9619776"><ele>71.0</ele><time>2026-04-09T14:04:41.24Z</time></trkpt><trkpt lat="38.4487742" lon="15.9616689"><ele>69.5</ele><time>2026-04-09T14:04:42.24Z</time></trkpt><trkpt lat="38.4486709" lon="15.961363"><ele>68.0</ele><time>2026-04-09T14:04:43.24Z</time></trkpt><trkpt lat="38.4485655" lon="15.9610505"><ele>68.0</ele><time>2026-04-09T14:04:44.24Z</time></trkpt><trkpt lat="38.4484632" lon="15.9607415"><ele>68.0</ele><time>2026-04-09T14:04:45.239Z</time></trkpt><trkpt lat="38.4483712" lon="15.9604267"><ele>68.0</ele><time>2026-04-09T14:04:46.24Z</time></trkpt><trkpt lat="38.4482766" lon="15.9601032"><ele>68.0</ele><time>2026-04-09T14:04:47.239Z</time></trkpt><trkpt lat="38.4481838" lon="15.9597837"><ele>68.0</ele><time>2026-04-09T14:04:48.239Z</time></trkpt><trkpt lat="38.4480997" lon="15.9594721"><ele>68.0</ele><time>2026-04-09T14:04:49.24Z</time></trkpt><trkpt lat="38.4480134" lon="15.9591563"><ele>68.5</ele><time>2026-04-09T14:04:50.24Z</time></trkpt><trkpt lat="38.4479317" lon="15.9588366"><ele>69.0</ele><time>2026-04-09T14:04:51.24Z</time></trkpt><trkpt lat="38.4478472" lon="15.958515"><ele>67.5</ele><time>2026-04-09T14:04:52.24Z</time></trkpt><trkpt lat="38.4477651" lon="15.9581949"><ele>66.0</ele><time>2026-04-09T14:04:53.24Z</time></trkpt><trkpt lat="38.4476813" lon="15.9578781"><ele>66.0</ele><time>2026-04-09T14:04:54.24Z</time></trkpt><trkpt lat="38.4476049" lon="15.9575557"><ele>66.0</ele><time>2026-04-09T14:04:55.239Z</time></trkpt><trkpt lat="38.4475198" lon="15.9572339"><ele>66.0</ele><time>2026-04-09T14:04:56.24Z</time></trkpt><trkpt lat="38.4474271" lon="15.9569111"><ele>66.0</ele><time>2026-04-09T14:04:57.24Z</time></trkpt><trkpt lat="38.4473332" lon="15.9565925"><ele>66.0</ele><time>2026-04-09T14:04:58.24Z</time></trkpt><trkpt lat="38.4472349" lon="15.9562829"><ele>66.0</ele><time>2026-04-09T14:04:59.24Z</time></trkpt><trkpt lat="38.4471318" lon="15.9559749"><ele>66.5</ele><time>2026-04-09T14:05:00.24Z</time></trkpt><trkpt lat="38.4470159" lon="15.95568"><ele>67.0</ele><time>2026-04-09T14:05:01.24Z</time></trkpt><trkpt lat="38.4469016" lon="15.9553772"><ele>67.0</ele><time>2026-04-09T14:05:02.239Z</time></trkpt><trkpt lat="38.446779" lon="15.9550715"><ele>67.0</ele><time>2026-04-09T14:05:03.24Z</time></trkpt><trkpt lat="38.4466503" lon="15.9547742"><ele>65.0</ele><time>2026-04-09T14:05:04.24Z</time></trkpt><trkpt lat="38.4465198" lon="15.9544834"><ele>63.0</ele><time>2026-04-09T14:05:05.24Z</time></trkpt><trkpt lat="38.446385" lon="15.9542037"><ele>64.0</ele><time>2026-04-09T14:05:06.24Z</time></trkpt><trkpt lat="38.4462389" lon="15.9539247"><ele>65.0</ele><time>2026-04-09T14:05:07.24Z</time></trkpt><trkpt lat="38.4460988" lon="15.9536566"><ele>65.0</ele><time>2026-04-09T14:05:08.24Z</time></trkpt><trkpt lat="38.445947" lon="15.9533874"><ele>65.0</ele><time>2026-04-09T14:05:09.24Z</time></trkpt><trkpt lat="38.4457899" lon="15.9531215"><ele>65.0</ele><time>2026-04-09T14:05:10.24Z</time></trkpt><trkpt lat="38.4456254" lon="15.9528593"><ele>65.0</ele><time>2026-04-09T14:05:11.24Z</time></trkpt><trkpt lat="38.4454569" lon="15.9525965"><ele>64.0</ele><time>2026-04-09T14:05:12.24Z</time></trkpt><trkpt lat="38.4452825" lon="15.9523466"><ele>63.0</ele><time>2026-04-09T14:05:13.24Z</time></trkpt><trkpt lat="38.4451121" lon="15.9521007"><ele>63.0</ele><time>2026-04-09T14:05:14.24Z</time></trkpt><trkpt lat="38.4449345" lon="15.9518576"><ele>63.0</ele><time>2026-04-09T14:05:15.24Z</time></trkpt><trkpt lat="38.4447549" lon="15.9516116"><ele>64.0</ele><time>2026-04-09T14:05:16.239Z</time></trkpt><trkpt lat="38.4445708" lon="15.9513594"><ele>65.0</ele><time>2026-04-09T14:05:17.24Z</time></trkpt><trkpt lat="38.4443902" lon="15.9511175"><ele>64.5</ele><time>2026-04-09T14:05:18.24Z</time></trkpt><trkpt lat="38.4442115" lon="15.9508618"><ele>64.0</ele><time>2026-04-09T14:05:19.24Z</time></trkpt><trkpt lat="38.4440331" lon="15.9506179"><ele>64.0</ele><time>2026-04-09T14:05:20.24Z</time></trkpt><trkpt lat="38.4438487" lon="15.9503753"><ele>64.0</ele><time>2026-04-09T14:05:21.24Z</time></trkpt><trkpt lat="38.443668" lon="15.9501264"><ele>63.5</ele><time>2026-04-09T14:05:22.239Z</time></trkpt><trkpt lat="38.4434878" lon="15.9498836"><ele>63.0</ele><time>2026-04-09T14:05:23.24Z</time></trkpt><trkpt lat="38.4433036" lon="15.9496418"><ele>63.0</ele><time>2026-04-09T14:05:24.24Z</time></trkpt><trkpt lat="38.4431228" lon="15.9494013"><ele>63.0</ele><time>2026-04-09T14:05:25.24Z</time></trkpt><trkpt lat="38.4429484" lon="15.9491598"><ele>62.5</ele><time>2026-04-09T14:05:26.24Z</time></trkpt><trkpt lat="38.4427669" lon="15.948923"><ele>62.0</ele><time>2026-04-09T14:05:27.24Z</time></trkpt><trkpt lat="38.4425956" lon="15.9486633"><ele>62.0</ele><time>2026-04-09T14:05:28.24Z</time></trkpt><trkpt lat="38.4424302" lon="15.9484013"><ele>62.0</ele><time>2026-04-09T14:05:29.24Z</time></trkpt><trkpt lat="38.4422601" lon="15.948142"><ele>62.0</ele><time>2026-04-09T14:05:30.239Z</time></trkpt><trkpt lat="38.4420921" lon="15.9478773"><ele>62.0</ele><time>2026-04-09T14:05:31.24Z</time></trkpt><trkpt lat="38.4419342" lon="15.947602"><ele>60.5</ele><time>2026-04-09T14:05:32.24Z</time></trkpt><trkpt lat="38.4417828" lon="15.9473316"><ele>59.0</ele><time>2026-04-09T14:05:33.24Z</time></trkpt><trkpt lat="38.4416329" lon="15.9470508"><ele>59.0</ele><time>2026-04-09T14:05:34.24Z</time></trkpt><trkpt lat="38.4414928" lon="15.9467679"><ele>59.0</ele><time>2026-04-09T14:05:35.24Z</time></trkpt><trkpt lat="38.4413568" lon="15.9464822"><ele>61.0</ele><time>2026-04-09T14:05:36.24Z</time></trkpt><trkpt lat="38.4412285" lon="15.9461877"><ele>63.0</ele><time>2026-04-09T14:05:37.239Z</time></trkpt><trkpt lat="38.4411001" lon="15.9458919"><ele>62.0</ele><time>2026-04-09T14:05:38.24Z</time></trkpt><trkpt lat="38.4409737" lon="15.9455949"><ele>61.0</ele><time>2026-04-09T14:05:39.24Z</time></trkpt><trkpt lat="38.440855" lon="15.9452958"><ele>60.5</ele><time>2026-04-09T14:05:40.24Z</time></trkpt><trkpt lat="38.4407385" lon="15.9449938"><ele>60.0</ele><time>2026-04-09T14:05:41.24Z</time></trkpt><trkpt lat="38.4406176" lon="15.9446992"><ele>60.0</ele><time>2026-04-09T14:05:42.24Z</time></trkpt><trkpt lat="38.4404995" lon="15.9443939"><ele>60.0</ele><time>2026-04-09T14:05:43.24Z</time></trkpt><trkpt lat="38.4403842" lon="15.9440893"><ele>59.0</ele><time>2026-04-09T14:05:44.24Z</time></trkpt><trkpt lat="38.44027" lon="15.9437859"><ele>58.0</ele><time>2026-04-09T14:05:45.24Z</time></trkpt><trkpt lat="38.4401608" lon="15.9434867"><ele>56.5</ele><time>2026-04-09T14:05:46.24Z</time></trkpt><trkpt lat="38.4400501" lon="15.9431766"><ele>55.0</ele><time>2026-04-09T14:05:47.24Z</time></trkpt><trkpt lat="38.4399378" lon="15.942868"><ele>55.0</ele><time>2026-04-09T14:05:48.24Z</time></trkpt><trkpt lat="38.4398289" lon="15.9425781"><ele>55.0</ele><time>2026-04-09T14:05:49.24Z</time></trkpt><trkpt lat="38.4397197" lon="15.9423038"><ele>54.0</ele><time>2026-04-09T14:05:50.24Z</time></trkpt><trkpt lat="38.4396116" lon="15.9420359"><ele>53.0</ele><time>2026-04-09T14:05:51.239Z</time></trkpt><trkpt lat="38.4395046" lon="15.9417705"><ele>53.5</ele><time>2026-04-09T14:05:52.24Z</time></trkpt><trkpt lat="38.4394006" lon="15.9415025"><ele>54.0</ele><time>2026-04-09T14:05:53.24Z</time></trkpt><trkpt lat="38.4392889" lon="15.941223"><ele>54.0</ele><time>2026-04-09T14:05:54.24Z</time></trkpt><trkpt lat="38.4391864" lon="15.9409401"><ele>54.0</ele><time>2026-04-09T14:05:55.24Z</time></trkpt><trkpt lat="38.4390744" lon="15.9406502"><ele>53.5</ele><time>2026-04-09T14:05:56.24Z</time></trkpt><trkpt lat="38.4389552" lon="15.9403505"><ele>53.0</ele><time>2026-04-09T14:05:57.24Z</time></trkpt><trkpt lat="38.4388294" lon="15.9400527"><ele>54.5</ele><time>2026-04-09T14:05:58.24Z</time></trkpt><trkpt lat="38.4386993" lon="15.9397518"><ele>56.0</ele><time>2026-04-09T14:05:59.24Z</time></trkpt><trkpt lat="38.4385706" lon="15.9394558"><ele>55.0</ele><time>2026-04-09T14:06:00.24Z</time></trkpt><trkpt lat="38.4384374" lon="15.9391568"><ele>54.0</ele><time>2026-04-09T14:06:01.24Z</time></trkpt><trkpt lat="38.4383043" lon="15.938865"><ele>54.0</ele><time>2026-04-09T14:06:02.239Z</time></trkpt><trkpt lat="38.4381634" lon="15.938577"><ele>54.0</ele><time>2026-04-09T14:06:03.24Z</time></trkpt><trkpt lat="38.4380201" lon="15.938298"><ele>55.0</ele><time>2026-04-09T14:06:04.24Z</time></trkpt><trkpt lat="38.4378733" lon="15.9380243"><ele>56.0</ele><time>2026-04-09T14:06:05.24Z</time></trkpt><trkpt lat="38.43772" lon="15.9377577"><ele>54.5</ele><time>2026-04-09T14:06:06.24Z</time></trkpt><trkpt lat="38.4375661" lon="15.9374916"><ele>53.0</ele><time>2026-04-09T14:06:07.24Z</time></trkpt><trkpt lat="38.4374112" lon="15.9372236"><ele>53.0</ele><time>2026-04-09T14:06:08.24Z</time></trkpt><trkpt lat="38.4372528" lon="15.9369601"><ele>53.0</ele><time>2026-04-09T14:06:09.24Z</time></trkpt><trkpt lat="38.4370869" lon="15.9367014"><ele>51.5</ele><time>2026-04-09T14:06:10.24Z</time></trkpt><trkpt lat="38.4369188" lon="15.9364416"><ele>50.0</ele><time>2026-04-09T14:06:11.24Z</time></trkpt><trkpt lat="38.4367428" lon="15.9361875"><ele>50.0</ele><time>2026-04-09T14:06:12.239Z</time></trkpt><trkpt lat="38.4365626" lon="15.9359328"><ele>50.0</ele><time>2026-04-09T14:06:13.239Z</time></trkpt><trkpt lat="38.4363823" lon="15.9356888"><ele>49.0</ele><time>2026-04-09T14:06:14.24Z</time></trkpt><trkpt lat="38.4361999" lon="15.9354439"><ele>48.0</ele><time>2026-04-09T14:06:15.24Z</time></trkpt><trkpt lat="38.4360131" lon="15.9352006"><ele>48.5</ele><time>2026-04-09T14:06:16.24Z</time></trkpt><trkpt lat="38.435823" lon="15.9349691"><ele>49.0</ele><time>2026-04-09T14:06:17.24Z</time></trkpt><trkpt lat="38.435626" lon="15.9347402"><ele>44.0</ele><time>2026-04-09T14:06:18.24Z</time></trkpt><trkpt lat="38.4354321" lon="15.9345132"><ele>39.0</ele><time>2026-04-09T14:06:19.24Z</time></trkpt><trkpt lat="38.4352563" lon="15.9342847"><ele>39.0</ele><time>2026-04-09T14:06:20.24Z</time></trkpt><trkpt lat="38.4350854" lon="15.9340774"><ele>39.0</ele><time>2026-04-09T14:06:21.24Z</time></trkpt><trkpt lat="38.434924" lon="15.9338883"><ele>39.0</ele><time>2026-04-09T14:06:22.24Z</time></trkpt><trkpt lat="38.4347694" lon="15.9337123"><ele>39.0</ele><time>2026-04-09T14:06:23.24Z</time></trkpt><trkpt lat="38.4346134" lon="15.9335333"><ele>39.0</ele><time>2026-04-09T14:06:24.24Z</time></trkpt><trkpt lat="38.434452" lon="15.9333444"><ele>35.5</ele><time>2026-04-09T14:06:25.24Z</time></trkpt><trkpt lat="38.4342837" lon="15.9331463"><ele>32.0</ele><time>2026-04-09T14:06:26.239Z</time></trkpt><trkpt lat="38.4341085" lon="15.9329367"><ele>32.0</ele><time>2026-04-09T14:06:27.24Z</time></trkpt><trkpt lat="38.4339287" lon="15.9327194"><ele>32.0</ele><time>2026-04-09T14:06:28.24Z</time></trkpt><trkpt lat="38.4337381" lon="15.9324933"><ele>30.5</ele><time>2026-04-09T14:06:29.24Z</time></trkpt><trkpt lat="38.433544" lon="15.9322707"><ele>29.0</ele><time>2026-04-09T14:06:30.24Z</time></trkpt><trkpt lat="38.43335" lon="15.9320439"><ele>29.0</ele><time>2026-04-09T14:06:31.24Z</time></trkpt><trkpt lat="38.433153" lon="15.9318095"><ele>29.0</ele><time>2026-04-09T14:06:32.24Z</time></trkpt><trkpt lat="38.4329537" lon="15.9315735"><ele>27.0</ele><time>2026-04-09T14:06:33.24Z</time></trkpt><trkpt lat="38.4327564" lon="15.9313367"><ele>25.0</ele><time>2026-04-09T14:06:34.24Z</time></trkpt><trkpt lat="38.4325595" lon="15.9311027"><ele>28.5</ele><time>2026-04-09T14:06:35.24Z</time></trkpt><trkpt lat="38.432367" lon="15.9308665"><ele>32.0</ele><time>2026-04-09T14:06:36.24Z</time></trkpt><trkpt lat="38.4321695" lon="15.9306213"><ele>30.5</ele><time>2026-04-09T14:06:37.24Z</time></trkpt><trkpt lat="38.4319726" lon="15.9303819"><ele>29.0</ele><time>2026-04-09T14:06:38.24Z</time></trkpt><trkpt lat="38.431775" lon="15.9301466"><ele>28.5</ele><time>2026-04-09T14:06:39.24Z</time></trkpt><trkpt lat="38.431581" lon="15.9299074"><ele>28.0</ele><time>2026-04-09T14:06:40.24Z</time></trkpt><trkpt lat="38.4313832" lon="15.9296688"><ele>25.0</ele><time>2026-04-09T14:06:41.24Z</time></trkpt><trkpt lat="38.4311893" lon="15.9294305"><ele>22.0</ele><time>2026-04-09T14:06:42.24Z</time></trkpt><trkpt lat="38.4309888" lon="15.9291908"><ele>22.0</ele><time>2026-04-09T14:06:43.24Z</time></trkpt><trkpt lat="38.430784" lon="15.9289557"><ele>22.0</ele><time>2026-04-09T14:06:44.24Z</time></trkpt><trkpt lat="38.4305787" lon="15.9287218"><ele>21.0</ele><time>2026-04-09T14:06:45.24Z</time></trkpt><trkpt lat="38.4303732" lon="15.9284907"><ele>20.0</ele><time>2026-04-09T14:06:46.24Z</time></trkpt><trkpt lat="38.4301617" lon="15.9282594"><ele>20.0</ele><time>2026-04-09T14:06:47.24Z</time></trkpt><trkpt lat="38.4299399" lon="15.9280247"><ele>20.0</ele><time>2026-04-09T14:06:48.24Z</time></trkpt><trkpt lat="38.4297206" lon="15.9277904"><ele>18.5</ele><time>2026-04-09T14:06:49.24Z</time></trkpt><trkpt lat="38.429503" lon="15.9275563"><ele>17.0</ele><time>2026-04-09T14:06:50.239Z</time></trkpt><trkpt lat="38.4292934" lon="15.9273343"><ele>17.0</ele><time>2026-04-09T14:06:51.239Z</time></trkpt><trkpt lat="38.4290759" lon="15.9271204"><ele>17.0</ele><time>2026-04-09T14:06:52.24Z</time></trkpt><trkpt lat="38.428853" lon="15.9269148"><ele>17.0</ele><time>2026-04-09T14:06:53.24Z</time></trkpt><trkpt lat="38.4286282" lon="15.9267121"><ele>17.0</ele><time>2026-04-09T14:06:54.24Z</time></trkpt><trkpt lat="38.4284054" lon="15.9265"><ele>17.0</ele><time>2026-04-09T14:06:55.239Z</time></trkpt><trkpt lat="38.4281787" lon="15.9262971"><ele>17.0</ele><time>2026-04-09T14:06:56.24Z</time></trkpt><trkpt lat="38.4279561" lon="15.9260947"><ele>18.5</ele><time>2026-04-09T14:06:57.24Z</time></trkpt><trkpt lat="38.4277393" lon="15.925894"><ele>20.0</ele><time>2026-04-09T14:06:58.24Z</time></trkpt><trkpt lat="38.4275194" lon="15.9257031"><ele>20.0</ele><time>2026-04-09T14:06:59.24Z</time></trkpt><trkpt lat="38.4272963" lon="15.9255332"><ele>20.0</ele><time>2026-04-09T14:07:00.24Z</time></trkpt><trkpt lat="38.4270655" lon="15.9253678"><ele>21.5</ele><time>2026-04-09T14:07:01.24Z</time></trkpt><trkpt lat="38.4268379" lon="15.9252078"><ele>23.0</ele><time>2026-04-09T14:07:02.24Z</time></trkpt><trkpt lat="38.426611" lon="15.9250488"><ele>23.0</ele><time>2026-04-09T14:07:03.24Z</time></trkpt><trkpt lat="38.4263776" lon="15.924892"><ele>23.0</ele><time>2026-04-09T14:07:04.24Z</time></trkpt><trkpt lat="38.426144" lon="15.9247446"><ele>29.0</ele><time>2026-04-09T14:07:05.24Z</time></trkpt><trkpt lat="38.4259146" lon="15.9246043"><ele>35.0</ele><time>2026-04-09T14:07:06.24Z</time></trkpt><trkpt lat="38.4256789" lon="15.9244708"><ele>34.5</ele><time>2026-04-09T14:07:07.24Z</time></trkpt><trkpt lat="38.4254433" lon="15.9243419"><ele>34.0</ele><time>2026-04-09T14:07:08.24Z</time></trkpt><trkpt lat="38.4252055" lon="15.9242149"><ele>34.0</ele><time>2026-04-09T14:07:09.24Z</time></trkpt><trkpt lat="38.424967" lon="15.9240904"><ele>34.0</ele><time>2026-04-09T14:07:10.24Z</time></trkpt><trkpt lat="38.4247312" lon="15.9239711"><ele>40.0</ele><time>2026-04-09T14:07:11.24Z</time></trkpt><trkpt lat="38.424493" lon="15.9238632"><ele>46.0</ele><time>2026-04-09T14:07:12.24Z</time></trkpt><trkpt lat="38.4242502" lon="15.9237529"><ele>46.0</ele><time>2026-04-09T14:07:13.24Z</time></trkpt><trkpt lat="38.4240067" lon="15.9236466"><ele>46.0</ele><time>2026-04-09T14:07:14.24Z</time></trkpt><trkpt lat="38.4237585" lon="15.9235463"><ele>48.5</ele><time>2026-04-09T14:07:15.24Z</time></trkpt><trkpt lat="38.4235098" lon="15.9234432"><ele>51.0</ele><time>2026-04-09T14:07:16.239Z</time></trkpt><trkpt lat="38.4232526" lon="15.9233422"><ele>51.0</ele><time>2026-04-09T14:07:17.24Z</time></trkpt><trkpt lat="38.4229999" lon="15.9232447"><ele>51.0</ele><time>2026-04-09T14:07:18.24Z</time></trkpt><trkpt lat="38.4227406" lon="15.9231393"><ele>51.0</ele><time>2026-04-09T14:07:19.24Z</time></trkpt><trkpt lat="38.4224749" lon="15.9230329"><ele>51.0</ele><time>2026-04-09T14:07:20.24Z</time></trkpt><trkpt lat="38.4222207" lon="15.9229148"><ele>54.5</ele><time>2026-04-09T14:07:21.24Z</time></trkpt><trkpt lat="38.4219626" lon="15.9228005"><ele>58.0</ele><time>2026-04-09T14:07:22.24Z</time></trkpt><trkpt lat="38.4217041" lon="15.9226898"><ele>58.0</ele><time>2026-04-09T14:07:23.24Z</time></trkpt><trkpt lat="38.4214457" lon="15.9225877"><ele>58.0</ele><time>2026-04-09T14:07:24.24Z</time></trkpt><trkpt lat="38.421183" lon="15.9224874"><ele>57.5</ele><time>2026-04-09T14:07:25.24Z</time></trkpt><trkpt lat="38.4209184" lon="15.9223901"><ele>57.0</ele><time>2026-04-09T14:07:26.24Z</time></trkpt><trkpt lat="38.4206552" lon="15.9222949"><ele>58.0</ele><time>2026-04-09T14:07:27.24Z</time></trkpt><trkpt lat="38.4203961" lon="15.9221971"><ele>59.0</ele><time>2026-04-09T14:07:28.24Z</time></trkpt><trkpt lat="38.4201349" lon="15.9220988"><ele>59.0</ele><time>2026-04-09T14:07:29.24Z</time></trkpt><trkpt lat="38.4198692" lon="15.9220075"><ele>59.0</ele><time>2026-04-09T14:07:30.24Z</time></trkpt><trkpt lat="38.419598" lon="15.921921"><ele>59.5</ele><time>2026-04-09T14:07:31.24Z</time></trkpt><trkpt lat="38.4193304" lon="15.9218244"><ele>60.0</ele><time>2026-04-09T14:07:32.24Z</time></trkpt><trkpt lat="38.4190665" lon="15.9217212"><ele>60.0</ele><time>2026-04-09T14:07:33.24Z</time></trkpt><trkpt lat="38.4187957" lon="15.921622"><ele>60.0</ele><time>2026-04-09T14:07:34.24Z</time></trkpt><trkpt lat="38.4185283" lon="15.9215192"><ele>60.0</ele><time>2026-04-09T14:07:35.24Z</time></trkpt><trkpt lat="38.4182502" lon="15.9214343"><ele>60.0</ele><time>2026-04-09T14:07:36.24Z</time></trkpt><trkpt lat="38.417976" lon="15.9213366"><ele>60.0</ele><time>2026-04-09T14:07:37.24Z</time></trkpt><trkpt lat="38.4176983" lon="15.9212551"><ele>60.0</ele><time>2026-04-09T14:07:38.24Z</time></trkpt><trkpt lat="38.4174214" lon="15.9211651"><ele>61.0</ele><time>2026-04-09T14:07:39.24Z</time></trkpt><trkpt lat="38.417149" lon="15.9210723"><ele>62.0</ele><time>2026-04-09T14:07:40.24Z</time></trkpt><trkpt lat="38.4168857" lon="15.9209608"><ele>61.5</ele><time>2026-04-09T14:07:41.24Z</time></trkpt><trkpt lat="38.4166209" lon="15.9208492"><ele>61.0</ele><time>2026-04-09T14:07:42.24Z</time></trkpt><trkpt lat="38.4163644" lon="15.9207389"><ele>62.0</ele><time>2026-04-09T14:07:43.24Z</time></trkpt><trkpt lat="38.4161051" lon="15.9206279"><ele>63.0</ele><time>2026-04-09T14:07:44.239Z</time></trkpt><trkpt lat="38.4158367" lon="15.9205149"><ele>63.0</ele><time>2026-04-09T14:07:45.239Z</time></trkpt><trkpt lat="38.4155712" lon="15.9204002"><ele>63.0</ele><time>2026-04-09T14:07:46.24Z</time></trkpt><trkpt lat="38.4153061" lon="15.9202936"><ele>63.5</ele><time>2026-04-09T14:07:47.24Z</time></trkpt><trkpt lat="38.4150402" lon="15.9201876"><ele>64.0</ele><time>2026-04-09T14:07:48.24Z</time></trkpt><trkpt lat="38.4147763" lon="15.9200754"><ele>63.5</ele><time>2026-04-09T14:07:49.24Z</time></trkpt><trkpt lat="38.4145004" lon="15.9199655"><ele>63.0</ele><time>2026-04-09T14:07:50.24Z</time></trkpt><trkpt lat="38.4142396" lon="15.9198349"><ele>63.0</ele><time>2026-04-09T14:07:51.24Z</time></trkpt><trkpt lat="38.4139825" lon="15.9196899"><ele>63.0</ele><time>2026-04-09T14:07:52.24Z</time></trkpt><trkpt lat="38.4137307" lon="15.9195389"><ele>63.5</ele><time>2026-04-09T14:07:53.24Z</time></trkpt><trkpt lat="38.4134852" lon="15.9193838"><ele>64.0</ele><time>2026-04-09T14:07:54.24Z</time></trkpt><trkpt lat="38.4132307" lon="15.9192254"><ele>63.0</ele><time>2026-04-09T14:07:55.24Z</time></trkpt><trkpt lat="38.4129834" lon="15.9190636"><ele>62.0</ele><time>2026-04-09T14:07:56.24Z</time></trkpt><trkpt lat="38.4127479" lon="15.918891"><ele>62.0</ele><time>2026-04-09T14:07:57.24Z</time></trkpt><trkpt lat="38.4125118" lon="15.9187141"><ele>62.0</ele><time>2026-04-09T14:07:58.24Z</time></trkpt><trkpt lat="38.4122844" lon="15.9185312"><ele>61.5</ele><time>2026-04-09T14:07:59.24Z</time></trkpt><trkpt lat="38.412051" lon="15.9183484"><ele>61.0</ele><time>2026-04-09T14:08:00.24Z</time></trkpt><trkpt lat="38.4118242" lon="15.9181483"><ele>61.0</ele><time>2026-04-09T14:08:01.24Z</time></trkpt><trkpt lat="38.4116009" lon="15.9179447"><ele>61.0</ele><time>2026-04-09T14:08:02.24Z</time></trkpt><trkpt lat="38.4113815" lon="15.9177386"><ele>61.5</ele><time>2026-04-09T14:08:03.24Z</time></trkpt><trkpt lat="38.4111607" lon="15.9175244"><ele>62.0</ele><time>2026-04-09T14:08:04.24Z</time></trkpt><trkpt lat="38.4109523" lon="15.9173088"><ele>62.0</ele><time>2026-04-09T14:08:05.24Z</time></trkpt><trkpt lat="38.4107432" lon="15.9170833"><ele>62.0</ele><time>2026-04-09T14:08:06.24Z</time></trkpt><trkpt lat="38.410545" lon="15.9168532"><ele>62.5</ele><time>2026-04-09T14:08:07.24Z</time></trkpt><trkpt lat="38.4103443" lon="15.9166237"><ele>63.0</ele><time>2026-04-09T14:08:08.24Z</time></trkpt><trkpt lat="38.4101461" lon="15.9163819"><ele>63.0</ele><time>2026-04-09T14:08:09.24Z</time></trkpt><trkpt lat="38.4099521" lon="15.9161364"><ele>63.0</ele><time>2026-04-09T14:08:10.24Z</time></trkpt><trkpt lat="38.4097516" lon="15.9158854"><ele>64.0</ele><time>2026-04-09T14:08:11.24Z</time></trkpt><trkpt lat="38.4095529" lon="15.915634"><ele>65.0</ele><time>2026-04-09T14:08:12.24Z</time></trkpt><trkpt lat="38.4093599" lon="15.9153792"><ele>65.0</ele><time>2026-04-09T14:08:13.24Z</time></trkpt><trkpt lat="38.4091583" lon="15.9151302"><ele>65.0</ele><time>2026-04-09T14:08:14.239Z</time></trkpt><trkpt lat="38.4089476" lon="15.914864"><ele>64.5</ele><time>2026-04-09T14:08:15.24Z</time></trkpt><trkpt lat="38.4087384" lon="15.9145996"><ele>64.0</ele><time>2026-04-09T14:08:16.24Z</time></trkpt><trkpt lat="38.4085281" lon="15.9143356"><ele>62.0</ele><time>2026-04-09T14:08:17.24Z</time></trkpt><trkpt lat="38.4083136" lon="15.9140663"><ele>60.0</ele><time>2026-04-09T14:08:18.24Z</time></trkpt><trkpt lat="38.4080997" lon="15.9137987"><ele>60.5</ele><time>2026-04-09T14:08:19.239Z</time></trkpt><trkpt lat="38.4078875" lon="15.9135302"><ele>61.0</ele><time>2026-04-09T14:08:20.24Z</time></trkpt><trkpt lat="38.4076633" lon="15.9132578"><ele>57.0</ele><time>2026-04-09T14:08:21.24Z</time></trkpt><trkpt lat="38.4074267" lon="15.9130009"><ele>53.0</ele><time>2026-04-09T14:08:22.24Z</time></trkpt><trkpt lat="38.407186" lon="15.9127498"><ele>49.5</ele><time>2026-04-09T14:08:23.239Z</time></trkpt><trkpt lat="38.4069377" lon="15.912504"><ele>46.0</ele><time>2026-04-09T14:08:24.24Z</time></trkpt><trkpt lat="38.406681" lon="15.9122828"><ele>46.0</ele><time>2026-04-09T14:08:25.239Z</time></trkpt><trkpt lat="38.4064251" lon="15.9120577"><ele>46.0</ele><time>2026-04-09T14:08:26.24Z</time></trkpt><trkpt lat="38.4061722" lon="15.9118238"><ele>43.0</ele><time>2026-04-09T14:08:27.24Z</time></trkpt><trkpt lat="38.4059173" lon="15.9116041"><ele>40.0</ele><time>2026-04-09T14:08:28.24Z</time></trkpt><trkpt lat="38.4056628" lon="15.9113819"><ele>46.5</ele><time>2026-04-09T14:08:29.24Z</time></trkpt><trkpt lat="38.4054053" lon="15.9111406"><ele>53.0</ele><time>2026-04-09T14:08:30.24Z</time></trkpt><trkpt lat="38.4051485" lon="15.9109089"><ele>46.5</ele><time>2026-04-09T14:08:31.24Z</time></trkpt><trkpt lat="38.4048989" lon="15.9106703"><ele>40.0</ele><time>2026-04-09T14:08:32.239Z</time></trkpt><trkpt lat="38.4046488" lon="15.910429"><ele>40.0</ele><time>2026-04-09T14:08:33.239Z</time></trkpt><trkpt lat="38.4043842" lon="15.9102036"><ele>40.0</ele><time>2026-04-09T14:08:34.24Z</time></trkpt><trkpt lat="38.4041307" lon="15.9099745"><ele>32.5</ele><time>2026-04-09T14:08:35.24Z</time></trkpt><trkpt lat="38.403876" lon="15.9097476"><ele>25.0</ele><time>2026-04-09T14:08:36.24Z</time></trkpt><trkpt lat="38.4036182" lon="15.9095335"><ele>24.0</ele><time>2026-04-09T14:08:37.24Z</time></trkpt><trkpt lat="38.4033672" lon="15.9093089"><ele>23.0</ele><time>2026-04-09T14:08:38.24Z</time></trkpt><trkpt lat="38.4031148" lon="15.9090817"><ele>23.0</ele><time>2026-04-09T14:08:39.24Z</time></trkpt><trkpt lat="38.4028646" lon="15.9088635"><ele>23.0</ele><time>2026-04-09T14:08:40.24Z</time></trkpt><trkpt lat="38.4026181" lon="15.9086502"><ele>23.0</ele><time>2026-04-09T14:08:41.24Z</time></trkpt><trkpt lat="38.4023741" lon="15.9084268"><ele>23.0</ele><time>2026-04-09T14:08:42.24Z</time></trkpt><trkpt lat="38.4021308" lon="15.9082232"><ele>22.5</ele><time>2026-04-09T14:08:43.24Z</time></trkpt><trkpt lat="38.4018772" lon="15.9080249"><ele>22.0</ele><time>2026-04-09T14:08:44.24Z</time></trkpt><trkpt lat="38.4016265" lon="15.9078234"><ele>22.0</ele><time>2026-04-09T14:08:45.24Z</time></trkpt><trkpt lat="38.4013775" lon="15.9076299"><ele>22.0</ele><time>2026-04-09T14:08:46.24Z</time></trkpt><trkpt lat="38.4011259" lon="15.9074513"><ele>27.0</ele><time>2026-04-09T14:08:47.24Z</time></trkpt><trkpt lat="38.4008667" lon="15.9072903"><ele>32.0</ele><time>2026-04-09T14:08:48.24Z</time></trkpt><trkpt lat="38.4005989" lon="15.907147"><ele>31.0</ele><time>2026-04-09T14:08:49.24Z</time></trkpt><trkpt lat="38.4003244" lon="15.9070305"><ele>30.0</ele><time>2026-04-09T14:08:50.24Z</time></trkpt><trkpt lat="38.4000445" lon="15.9069265"><ele>30.0</ele><time>2026-04-09T14:08:51.24Z</time></trkpt><trkpt lat="38.3997643" lon="15.9068321"><ele>30.0</ele><time>2026-04-09T14:08:52.24Z</time></trkpt><trkpt lat="38.3994898" lon="15.9067506"><ele>38.5</ele><time>2026-04-09T14:08:53.24Z</time></trkpt><trkpt lat="38.3992143" lon="15.9066816"><ele>47.0</ele><time>2026-04-09T14:08:54.24Z</time></trkpt><trkpt lat="38.3989318" lon="15.9066361"><ele>49.0</ele><time>2026-04-09T14:08:55.24Z</time></trkpt><trkpt lat="38.3986485" lon="15.9065977"><ele>51.0</ele><time>2026-04-09T14:08:56.24Z</time></trkpt><trkpt lat="38.3983533" lon="15.9065862"><ele>51.0</ele><time>2026-04-09T14:08:57.24Z</time></trkpt><trkpt lat="38.398062" lon="15.9065625"><ele>51.0</ele><time>2026-04-09T14:08:58.24Z</time></trkpt><trkpt lat="38.3977669" lon="15.9065523"><ele>54.5</ele><time>2026-04-09T14:08:59.24Z</time></trkpt><trkpt lat="38.3974687" lon="15.9065339"><ele>58.0</ele><time>2026-04-09T14:09:00.24Z</time></trkpt><trkpt lat="38.3971744" lon="15.9065075"><ele>54.5</ele><time>2026-04-09T14:09:01.24Z</time></trkpt><trkpt lat="38.3968806" lon="15.9064713"><ele>51.0</ele><time>2026-04-09T14:09:02.24Z</time></trkpt><trkpt lat="38.3965831" lon="15.9064256"><ele>47.0</ele><time>2026-04-09T14:09:03.24Z</time></trkpt><trkpt lat="38.3962861" lon="15.9063657"><ele>43.0</ele><time>2026-04-09T14:09:04.24Z</time></trkpt><trkpt lat="38.3959914" lon="15.9062802"><ele>43.0</ele><time>2026-04-09T14:09:05.24Z</time></trkpt><trkpt lat="38.3957041" lon="15.9061794"><ele>43.0</ele><time>2026-04-09T14:09:06.239Z</time></trkpt><trkpt lat="38.3954226" lon="15.9060651"><ele>39.0</ele><time>2026-04-09T14:09:07.24Z</time></trkpt><trkpt lat="38.3951421" lon="15.9059405"><ele>35.0</ele><time>2026-04-09T14:09:08.24Z</time></trkpt><trkpt lat="38.3948625" lon="15.9058132"><ele>43.0</ele><time>2026-04-09T14:09:09.239Z</time></trkpt><trkpt lat="38.3945987" lon="15.9056717"><ele>51.0</ele><time>2026-04-09T14:09:10.24Z</time></trkpt><trkpt lat="38.3943371" lon="15.9055246"><ele>51.0</ele><time>2026-04-09T14:09:11.24Z</time></trkpt><trkpt lat="38.3940718" lon="15.9053894"><ele>51.0</ele><time>2026-04-09T14:09:12.24Z</time></trkpt><trkpt lat="38.3938147" lon="15.9052566"><ele>51.5</ele><time>2026-04-09T14:09:13.24Z</time></trkpt><trkpt lat="38.3935601" lon="15.9051142"><ele>52.0</ele><time>2026-04-09T14:09:14.24Z</time></trkpt><trkpt lat="38.3933173" lon="15.9049747"><ele>54.0</ele><time>2026-04-09T14:09:15.24Z</time></trkpt><trkpt lat="38.3930787" lon="15.9048199"><ele>56.0</ele><time>2026-04-09T14:09:16.239Z</time></trkpt><trkpt lat="38.3928467" lon="15.9046616"><ele>56.0</ele><time>2026-04-09T14:09:17.24Z</time></trkpt><trkpt lat="38.3926159" lon="15.9044881"><ele>56.0</ele><time>2026-04-09T14:09:18.24Z</time></trkpt><trkpt lat="38.3923865" lon="15.904306"><ele>63.5</ele><time>2026-04-09T14:09:19.239Z</time></trkpt><trkpt lat="38.39216" lon="15.9041128"><ele>71.0</ele><time>2026-04-09T14:09:20.24Z</time></trkpt><trkpt lat="38.3919437" lon="15.9039131"><ele>71.0</ele><time>2026-04-09T14:09:21.24Z</time></trkpt><trkpt lat="38.3917306" lon="15.9037084"><ele>71.0</ele><time>2026-04-09T14:09:22.24Z</time></trkpt><trkpt lat="38.3915214" lon="15.9034952"><ele>77.0</ele><time>2026-04-09T14:09:23.24Z</time></trkpt><trkpt lat="38.3913168" lon="15.9033001"><ele>83.0</ele><time>2026-04-09T14:09:24.24Z</time></trkpt><trkpt lat="38.3911254" lon="15.9031007"><ele>83.0</ele><time>2026-04-09T14:09:25.239Z</time></trkpt><trkpt lat="38.3909521" lon="15.9028845"><ele>83.0</ele><time>2026-04-09T14:09:26.239Z</time></trkpt><trkpt lat="38.3907815" lon="15.9026715"><ele>85.5</ele><time>2026-04-09T14:09:27.239Z</time></trkpt><trkpt lat="38.3906076" lon="15.902453"><ele>88.0</ele><time>2026-04-09T14:09:28.24Z</time></trkpt><trkpt lat="38.3904376" lon="15.9022329"><ele>88.0</ele><time>2026-04-09T14:09:29.24Z</time></trkpt><trkpt lat="38.3902605" lon="15.9020169"><ele>88.0</ele><time>2026-04-09T14:09:30.24Z</time></trkpt><trkpt lat="38.3900923" lon="15.9018004"><ele>92.5</ele><time>2026-04-09T14:09:31.239Z</time></trkpt><trkpt lat="38.3899246" lon="15.9015821"><ele>97.0</ele><time>2026-04-09T14:09:32.24Z</time></trkpt><trkpt lat="38.3897578" lon="15.9013637"><ele>91.5</ele><time>2026-04-09T14:09:33.24Z</time></trkpt><trkpt lat="38.3895791" lon="15.9011551"><ele>86.0</ele><time>2026-04-09T14:09:34.24Z</time></trkpt><trkpt lat="38.3894003" lon="15.900935"><ele>84.0</ele><time>2026-04-09T14:09:35.24Z</time></trkpt><trkpt lat="38.389217" lon="15.9007309"><ele>82.0</ele><time>2026-04-09T14:09:36.24Z</time></trkpt><trkpt lat="38.3890321" lon="15.9005257"><ele>82.0</ele><time>2026-04-09T14:09:37.24Z</time></trkpt><trkpt lat="38.3888486" lon="15.9003113"><ele>82.0</ele><time>2026-04-09T14:09:38.239Z</time></trkpt><trkpt lat="38.3886686" lon="15.9000902"><ele>82.0</ele><time>2026-04-09T14:09:39.24Z</time></trkpt><trkpt lat="38.3885013" lon="15.8998701"><ele>82.0</ele><time>2026-04-09T14:09:40.24Z</time></trkpt><trkpt lat="38.3883288" lon="15.89965"><ele>82.0</ele><time>2026-04-09T14:09:41.24Z</time></trkpt><trkpt lat="38.3881568" lon="15.8994255"><ele>82.0</ele><time>2026-04-09T14:09:42.24Z</time></trkpt><trkpt lat="38.3879779" lon="15.8992103"><ele>86.5</ele><time>2026-04-09T14:09:43.239Z</time></trkpt><trkpt lat="38.3877956" lon="15.8989885"><ele>91.0</ele><time>2026-04-09T14:09:44.24Z</time></trkpt><trkpt lat="38.3876235" lon="15.8987664"><ele>91.0</ele><time>2026-04-09T14:09:45.24Z</time></trkpt><trkpt lat="38.387441" lon="15.898547"><ele>91.0</ele><time>2026-04-09T14:09:46.24Z</time></trkpt><trkpt lat="38.3872601" lon="15.8983277"><ele>91.0</ele><time>2026-04-09T14:09:47.24Z</time></trkpt><trkpt lat="38.3870756" lon="15.8980896"><ele>91.0</ele><time>2026-04-09T14:09:48.24Z</time></trkpt><trkpt lat="38.3868863" lon="15.8978511"><ele>91.0</ele><time>2026-04-09T14:09:49.24Z</time></trkpt><trkpt lat="38.3866984" lon="15.8976299"><ele>91.0</ele><time>2026-04-09T14:09:50.24Z</time></trkpt><trkpt lat="38.3865186" lon="15.8973914"><ele>91.0</ele><time>2026-04-09T14:09:51.24Z</time></trkpt><trkpt lat="38.3863363" lon="15.8971594"><ele>91.0</ele><time>2026-04-09T14:09:52.24Z</time></trkpt><trkpt lat="38.3861566" lon="15.8969259"><ele>97.5</ele><time>2026-04-09T14:09:53.24Z</time></trkpt><trkpt lat="38.3859886" lon="15.8966823"><ele>104.0</ele><time>2026-04-09T14:09:54.24Z</time></trkpt><trkpt lat="38.3858251" lon="15.8964286"><ele>104.0</ele><time>2026-04-09T14:09:55.24Z</time></trkpt><trkpt lat="38.3856698" lon="15.896167"><ele>104.0</ele><time>2026-04-09T14:09:56.24Z</time></trkpt><trkpt lat="38.3855144" lon="15.8959013"><ele>107.5</ele><time>2026-04-09T14:09:57.24Z</time></trkpt><trkpt lat="38.3853633" lon="15.8956295"><ele>111.0</ele><time>2026-04-09T14:09:58.239Z</time></trkpt><trkpt lat="38.3852265" lon="15.8953378"><ele>114.5</ele><time>2026-04-09T14:09:59.239Z</time></trkpt><trkpt lat="38.3850897" lon="15.8950535"><ele>118.0</ele><time>2026-04-09T14:10:00.24Z</time></trkpt><trkpt lat="38.3849654" lon="15.8947621"><ele>118.0</ele><time>2026-04-09T14:10:01.24Z</time></trkpt><trkpt lat="38.3848402" lon="15.8944621"><ele>118.0</ele><time>2026-04-09T14:10:02.24Z</time></trkpt><trkpt lat="38.3847306" lon="15.8941599"><ele>118.0</ele><time>2026-04-09T14:10:03.24Z</time></trkpt><trkpt lat="38.3846262" lon="15.893852"><ele>118.0</ele><time>2026-04-09T14:10:04.24Z</time></trkpt><trkpt lat="38.3845281" lon="15.8935342"><ele>120.0</ele><time>2026-04-09T14:10:05.239Z</time></trkpt><trkpt lat="38.3844347" lon="15.8932241"><ele>122.0</ele><time>2026-04-09T14:10:06.24Z</time></trkpt><trkpt lat="38.3843463" lon="15.892911"><ele>122.0</ele><time>2026-04-09T14:10:07.24Z</time></trkpt><trkpt lat="38.3842594" lon="15.8926006"><ele>122.0</ele><time>2026-04-09T14:10:08.24Z</time></trkpt><trkpt lat="38.3841799" lon="15.8922841"><ele>122.5</ele><time>2026-04-09T14:10:09.24Z</time></trkpt><trkpt lat="38.3840978" lon="15.8919643"><ele>123.0</ele><time>2026-04-09T14:10:10.24Z</time></trkpt><trkpt lat="38.3840126" lon="15.8916448"><ele>130.0</ele><time>2026-04-09T14:10:11.24Z</time></trkpt><trkpt lat="38.3839305" lon="15.8913405"><ele>137.0</ele><time>2026-04-09T14:10:12.24Z</time></trkpt><trkpt lat="38.3838501" lon="15.89103"><ele>133.5</ele><time>2026-04-09T14:10:13.239Z</time></trkpt><trkpt lat="38.3837629" lon="15.890721"><ele>130.0</ele><time>2026-04-09T14:10:14.24Z</time></trkpt><trkpt lat="38.3836762" lon="15.8904082"><ele>130.0</ele><time>2026-04-09T14:10:15.24Z</time></trkpt><trkpt lat="38.3835944" lon="15.890092"><ele>130.0</ele><time>2026-04-09T14:10:16.24Z</time></trkpt><trkpt lat="38.3835135" lon="15.8897853"><ele>132.5</ele><time>2026-04-09T14:10:17.24Z</time></trkpt><trkpt lat="38.3834452" lon="15.8894585"><ele>135.0</ele><time>2026-04-09T14:10:18.24Z</time></trkpt><trkpt lat="38.3833789" lon="15.889137"><ele>136.5</ele><time>2026-04-09T14:10:19.24Z</time></trkpt><trkpt lat="38.3833193" lon="15.8888104"><ele>138.0</ele><time>2026-04-09T14:10:20.24Z</time></trkpt><trkpt lat="38.3832621" lon="15.8884849"><ele>138.5</ele><time>2026-04-09T14:10:21.24Z</time></trkpt><trkpt lat="38.3832061" lon="15.8881567"><ele>139.0</ele><time>2026-04-09T14:10:22.24Z</time></trkpt><trkpt lat="38.38316" lon="15.8878237"><ele>141.0</ele><time>2026-04-09T14:10:23.24Z</time></trkpt><trkpt lat="38.3831183" lon="15.887487"><ele>143.0</ele><time>2026-04-09T14:10:24.24Z</time></trkpt><trkpt lat="38.3830674" lon="15.8871406"><ele>143.0</ele><time>2026-04-09T14:10:25.24Z</time></trkpt><trkpt lat="38.3830331" lon="15.8867679"><ele>143.0</ele><time>2026-04-09T14:10:26.24Z</time></trkpt><trkpt lat="38.3830002" lon="15.8863926"><ele>142.5</ele><time>2026-04-09T14:10:27.239Z</time></trkpt><trkpt lat="38.3829633" lon="15.886004"><ele>142.0</ele><time>2026-04-09T14:10:28.24Z</time></trkpt><trkpt lat="38.3829307" lon="15.8856039"><ele>143.5</ele><time>2026-04-09T14:10:29.24Z</time></trkpt><trkpt lat="38.3828959" lon="15.8851932"><ele>145.0</ele><time>2026-04-09T14:10:30.24Z</time></trkpt><trkpt lat="38.3828568" lon="15.8847931"><ele>147.0</ele><time>2026-04-09T14:10:31.24Z</time></trkpt><trkpt lat="38.3828198" lon="15.8843964"><ele>149.0</ele><time>2026-04-09T14:10:32.24Z</time></trkpt><trkpt lat="38.3827887" lon="15.8839916"><ele>151.0</ele><time>2026-04-09T14:10:33.24Z</time></trkpt><trkpt lat="38.3827422" lon="15.8835951"><ele>153.0</ele><time>2026-04-09T14:10:34.239Z</time></trkpt><trkpt lat="38.3826988" lon="15.8831992"><ele>155.0</ele><time>2026-04-09T14:10:35.24Z</time></trkpt><trkpt lat="38.3826514" lon="15.8828132"><ele>157.0</ele><time>2026-04-09T14:10:36.24Z</time></trkpt><trkpt lat="38.3826053" lon="15.8824333"><ele>160.0</ele><time>2026-04-09T14:10:37.24Z</time></trkpt><trkpt lat="38.3825639" lon="15.8820745"><ele>163.0</ele><time>2026-04-09T14:10:38.24Z</time></trkpt><trkpt lat="38.3825189" lon="15.8817192"><ele>167.5</ele><time>2026-04-09T14:10:39.239Z</time></trkpt><trkpt lat="38.3824663" lon="15.8813589"><ele>172.0</ele><time>2026-04-09T14:10:40.24Z</time></trkpt><trkpt lat="38.3824033" lon="15.8810116"><ele>179.5</ele><time>2026-04-09T14:10:41.24Z</time></trkpt><trkpt lat="38.3823345" lon="15.8806665"><ele>187.0</ele><time>2026-04-09T14:10:42.24Z</time></trkpt><trkpt lat="38.3822631" lon="15.8803157"><ele>188.5</ele><time>2026-04-09T14:10:43.24Z</time></trkpt><trkpt lat="38.3821915" lon="15.8799669"><ele>190.0</ele><time>2026-04-09T14:10:44.24Z</time></trkpt><trkpt lat="38.3821155" lon="15.8796199"><ele>218.0</ele><time>2026-04-09T14:10:45.24Z</time></trkpt><trkpt lat="38.3817646" lon="15.8779919"><ele>222.0</ele><time>2026-04-09T14:10:50.395Z</time></trkpt><trkpt lat="38.3747317" lon="15.8694533"><ele>222.0</ele><time>2026-04-09T14:11:20.235Z</time></trkpt><trkpt lat="38.3744" lon="15.869205"><ele>222.0</ele><time>2026-04-09T14:11:21.235Z</time></trkpt><trkpt lat="38.3741283" lon="15.8689883"><ele>225.5</ele><time>2026-04-09T14:11:22.235Z</time></trkpt><trkpt lat="38.373855" lon="15.8687533"><ele>229.0</ele><time>2026-04-09T14:11:23.235Z</time></trkpt><trkpt lat="38.37358" lon="15.8685217"><ele>232.5</ele><time>2026-04-09T14:11:24.235Z</time></trkpt><trkpt lat="38.3733067" lon="15.8682833"><ele>236.0</ele><time>2026-04-09T14:11:25.234Z</time></trkpt><trkpt lat="38.373035" lon="15.8680283"><ele>234.0</ele><time>2026-04-09T14:11:26.235Z</time></trkpt><trkpt lat="38.372775" lon="15.8677817"><ele>232.0</ele><time>2026-04-09T14:11:27.235Z</time></trkpt><trkpt lat="38.3725133" lon="15.8675483"><ele>234.0</ele><time>2026-04-09T14:11:28.234Z</time></trkpt><trkpt lat="38.37225" lon="15.8673083"><ele>236.0</ele><time>2026-04-09T14:11:29.235Z</time></trkpt><trkpt lat="38.3719833" lon="15.86708"><ele>236.0</ele><time>2026-04-09T14:11:30.235Z</time></trkpt><trkpt lat="38.37172" lon="15.8668567"><ele>236.0</ele><time>2026-04-09T14:11:31.234Z</time></trkpt><trkpt lat="38.37146" lon="15.8666533"><ele>241.0</ele><time>2026-04-09T14:11:32.235Z</time></trkpt><trkpt lat="38.3711867" lon="15.866455"><ele>246.0</ele><time>2026-04-09T14:11:33.235Z</time></trkpt><trkpt lat="38.37092" lon="15.866275"><ele>246.0</ele><time>2026-04-09T14:11:34.234Z</time></trkpt><trkpt lat="38.3706367" lon="15.8661117"><ele>246.0</ele><time>2026-04-09T14:11:35.235Z</time></trkpt><trkpt lat="38.3703433" lon="15.865965"><ele>244.0</ele><time>2026-04-09T14:11:36.235Z</time></trkpt><trkpt lat="38.37005" lon="15.86583"><ele>242.0</ele><time>2026-04-09T14:11:37.235Z</time></trkpt><trkpt lat="38.3697467" lon="15.8657067"><ele>245.0</ele><time>2026-04-09T14:11:38.235Z</time></trkpt><trkpt lat="38.3694383" lon="15.8656033"><ele>248.0</ele><time>2026-04-09T14:11:39.235Z</time></trkpt><trkpt lat="38.369135" lon="15.8655233"><ele>249.0</ele><time>2026-04-09T14:11:40.235Z</time></trkpt><trkpt lat="38.3688267" lon="15.8654467"><ele>250.0</ele><time>2026-04-09T14:11:41.235Z</time></trkpt><trkpt lat="38.3685167" lon="15.865385"><ele>250.0</ele><time>2026-04-09T14:11:42.235Z</time></trkpt><trkpt lat="38.3682" lon="15.865335"><ele>250.0</ele><time>2026-04-09T14:11:43.235Z</time></trkpt><trkpt lat="38.3678767" lon="15.8652967"><ele>250.5</ele><time>2026-04-09T14:11:44.235Z</time></trkpt><trkpt lat="38.3675567" lon="15.8652717"><ele>251.0</ele><time>2026-04-09T14:11:45.235Z</time></trkpt><trkpt lat="38.36724" lon="15.865265"><ele>252.5</ele><time>2026-04-09T14:11:46.235Z</time></trkpt><trkpt lat="38.3669217" lon="15.865255"><ele>254.0</ele><time>2026-04-09T14:11:47.235Z</time></trkpt><trkpt lat="38.3666" lon="15.865245"><ele>254.0</ele><time>2026-04-09T14:11:48.235Z</time></trkpt><trkpt lat="38.3662767" lon="15.8652383"><ele>254.0</ele><time>2026-04-09T14:11:49.235Z</time></trkpt><trkpt lat="38.3659483" lon="15.8652283"><ele>254.0</ele><time>2026-04-09T14:11:50.235Z</time></trkpt><trkpt lat="38.3656133" lon="15.86522"><ele>254.0</ele><time>2026-04-09T14:11:51.235Z</time></trkpt><trkpt lat="38.3652867" lon="15.8651983"><ele>256.5</ele><time>2026-04-09T14:11:52.235Z</time></trkpt><trkpt lat="38.3649617" lon="15.8651833"><ele>259.0</ele><time>2026-04-09T14:11:53.235Z</time></trkpt><trkpt lat="38.3646383" lon="15.865165"><ele>260.5</ele><time>2026-04-09T14:11:54.235Z</time></trkpt><trkpt lat="38.3643183" lon="15.8651467"><ele>262.0</ele><time>2026-04-09T14:11:55.234Z</time></trkpt><trkpt lat="38.3640083" lon="15.8651283"><ele>264.5</ele><time>2026-04-09T14:11:56.235Z</time></trkpt><trkpt lat="38.3637" lon="15.8651183"><ele>267.0</ele><time>2026-04-09T14:11:57.235Z</time></trkpt><trkpt lat="38.3633983" lon="15.8651017"><ele>269.0</ele><time>2026-04-09T14:11:58.235Z</time></trkpt><trkpt lat="38.3631133" lon="15.865095"><ele>271.0</ele><time>2026-04-09T14:11:59.235Z</time></trkpt><trkpt lat="38.36284" lon="15.8650733"><ele>274.5</ele><time>2026-04-09T14:12:00.235Z</time></trkpt><trkpt lat="38.3625767" lon="15.8650583"><ele>278.0</ele><time>2026-04-09T14:12:01.235Z</time></trkpt><trkpt lat="38.3623217" lon="15.8650533"><ele>282.5</ele><time>2026-04-09T14:12:02.235Z</time></trkpt><trkpt lat="38.36207" lon="15.86504"><ele>287.0</ele><time>2026-04-09T14:12:03.235Z</time></trkpt><trkpt lat="38.361835" lon="15.8650283"><ele>287.0</ele><time>2026-04-09T14:12:04.235Z</time></trkpt><trkpt lat="38.3616017" lon="15.8650183"><ele>287.0</ele><time>2026-04-09T14:12:05.235Z</time></trkpt><trkpt lat="38.3613733" lon="15.86501"><ele>289.0</ele><time>2026-04-09T14:12:06.235Z</time></trkpt><trkpt lat="38.3611433" lon="15.8649967"><ele>291.0</ele><time>2026-04-09T14:12:07.235Z</time></trkpt><trkpt lat="38.3609" lon="15.864995"><ele>291.0</ele><time>2026-04-09T14:12:08.235Z</time></trkpt><trkpt lat="38.360655" lon="15.8650033"><ele>291.0</ele><time>2026-04-09T14:12:09.235Z</time></trkpt><trkpt lat="38.3604" lon="15.8650033"><ele>293.5</ele><time>2026-04-09T14:12:10.235Z</time></trkpt><trkpt lat="38.360155" lon="15.8650333"><ele>296.0</ele><time>2026-04-09T14:12:11.234Z</time></trkpt><trkpt lat="38.3598983" lon="15.8650583"><ele>292.5</ele><time>2026-04-09T14:12:12.235Z</time></trkpt><trkpt lat="38.3596383" lon="15.8650967"><ele>289.0</ele><time>2026-04-09T14:12:13.234Z</time></trkpt><trkpt lat="38.359385" lon="15.865135"><ele>289.0</ele><time>2026-04-09T14:12:14.235Z</time></trkpt><trkpt lat="38.3591283" lon="15.8651833"><ele>289.0</ele><time>2026-04-09T14:12:15.235Z</time></trkpt><trkpt lat="38.35887" lon="15.865245"><ele>291.0</ele><time>2026-04-09T14:12:16.235Z</time></trkpt><trkpt lat="38.3585883" lon="15.8653167"><ele>293.0</ele><time>2026-04-09T14:12:17.235Z</time></trkpt><trkpt lat="38.3582883" lon="15.8653983"><ele>295.5</ele><time>2026-04-09T14:12:18.235Z</time></trkpt><trkpt lat="38.357985" lon="15.865495"><ele>298.0</ele><time>2026-04-09T14:12:19.235Z</time></trkpt><trkpt lat="38.3576667" lon="15.8656117"><ele>298.0</ele><time>2026-04-09T14:12:20.234Z</time></trkpt><trkpt lat="38.3573367" lon="15.8657617"><ele>298.0</ele><time>2026-04-09T14:12:21.235Z</time></trkpt><trkpt lat="38.3569967" lon="15.8659333"><ele>297.0</ele><time>2026-04-09T14:12:22.235Z</time></trkpt><trkpt lat="38.3566733" lon="15.8661067"><ele>296.0</ele><time>2026-04-09T14:12:23.235Z</time></trkpt><trkpt lat="38.356365" lon="15.8662867"><ele>296.0</ele><time>2026-04-09T14:12:24.235Z</time></trkpt><trkpt lat="38.3560683" lon="15.866475"><ele>296.0</ele><time>2026-04-09T14:12:25.235Z</time></trkpt><trkpt lat="38.35577" lon="15.8666683"><ele>299.0</ele><time>2026-04-09T14:12:26.235Z</time></trkpt><trkpt lat="38.35548" lon="15.8668667"><ele>302.0</ele><time>2026-04-09T14:12:27.235Z</time></trkpt><trkpt lat="38.35521" lon="15.86707"><ele>302.0</ele><time>2026-04-09T14:12:28.235Z</time></trkpt><trkpt lat="38.3549433" lon="15.8672817"><ele>302.0</ele><time>2026-04-09T14:12:29.235Z</time></trkpt><trkpt lat="38.3546833" lon="15.8675"><ele>302.0</ele><time>2026-04-09T14:12:30.235Z</time></trkpt><trkpt lat="38.3544133" lon="15.8677067"><ele>302.0</ele><time>2026-04-09T14:12:31.235Z</time></trkpt><trkpt lat="38.3541483" lon="15.8679117"><ele>302.0</ele><time>2026-04-09T14:12:32.235Z</time></trkpt><trkpt lat="38.3538883" lon="15.86811"><ele>302.0</ele><time>2026-04-09T14:12:33.234Z</time></trkpt><trkpt lat="38.3536317" lon="15.8683"><ele>314.5</ele><time>2026-04-09T14:12:34.235Z</time></trkpt><trkpt lat="38.3533767" lon="15.8684733"><ele>327.0</ele><time>2026-04-09T14:12:35.236Z</time></trkpt><trkpt lat="38.353125" lon="15.868645"><ele>347.0</ele><time>2026-04-09T14:12:36.236Z</time></trkpt><trkpt lat="38.35287" lon="15.8688"><ele>367.0</ele><time>2026-04-09T14:12:37.236Z</time></trkpt><trkpt lat="38.3526217" lon="15.86897"><ele>367.0</ele><time>2026-04-09T14:12:38.236Z</time></trkpt><trkpt lat="38.3523717" lon="15.8691383"><ele>367.0</ele><time>2026-04-09T14:12:39.236Z</time></trkpt><trkpt lat="38.3521233" lon="15.8693067"><ele>378.0</ele><time>2026-04-09T14:12:40.236Z</time></trkpt><trkpt lat="38.3518733" lon="15.8694733"><ele>389.0</ele><time>2026-04-09T14:12:41.236Z</time></trkpt><trkpt lat="38.3441683" lon="15.86836"><ele>366.5</ele><time>2026-04-09T14:13:06.234Z</time></trkpt><trkpt lat="38.3438917" lon="15.8681933"><ele>344.0</ele><time>2026-04-09T14:13:07.234Z</time></trkpt><trkpt lat="38.3435983" lon="15.8680133"><ele>339.0</ele><time>2026-04-09T14:13:08.234Z</time></trkpt><trkpt lat="38.34331" lon="15.8678083"><ele>334.0</ele><time>2026-04-09T14:13:09.234Z</time></trkpt><trkpt lat="38.343025" lon="15.8676067"><ele>334.0</ele><time>2026-04-09T14:13:10.234Z</time></trkpt><trkpt lat="38.3427333" lon="15.8674017"><ele>334.0</ele><time>2026-04-09T14:13:11.234Z</time></trkpt><trkpt lat="38.3424417" lon="15.867185"><ele>328.5</ele><time>2026-04-09T14:13:12.234Z</time></trkpt><trkpt lat="38.3421433" lon="15.866955"><ele>323.0</ele><time>2026-04-09T14:13:13.234Z</time></trkpt><trkpt lat="38.3418367" lon="15.8667217"><ele>328.5</ele><time>2026-04-09T14:13:14.234Z</time></trkpt><trkpt lat="38.3415133" lon="15.8664617"><ele>334.0</ele><time>2026-04-09T14:13:15.234Z</time></trkpt><trkpt lat="38.3412033" lon="15.8661933"><ele>339.0</ele><time>2026-04-09T14:13:16.234Z</time></trkpt><trkpt lat="38.3408817" lon="15.86592"><ele>344.0</ele><time>2026-04-09T14:13:17.234Z</time></trkpt><trkpt lat="38.3405467" lon="15.8656217"><ele>344.0</ele><time>2026-04-09T14:13:18.234Z</time></trkpt><trkpt lat="38.3402133" lon="15.86532"><ele>344.0</ele><time>2026-04-09T14:13:19.234Z</time></trkpt><trkpt lat="38.3398733" lon="15.86502"><ele>341.0</ele><time>2026-04-09T14:13:20.234Z</time></trkpt><trkpt lat="38.3395217" lon="15.8647117"><ele>338.0</ele><time>2026-04-09T14:13:21.233Z</time></trkpt><trkpt lat="38.33917" lon="15.8644333"><ele>336.5</ele><time>2026-04-09T14:13:22.234Z</time></trkpt><trkpt lat="38.3388333" lon="15.86415"><ele>335.0</ele><time>2026-04-09T14:13:23.234Z</time></trkpt><trkpt lat="38.3384983" lon="15.86387"><ele>335.0</ele><time>2026-04-09T14:13:24.234Z</time></trkpt><trkpt lat="38.3381783" lon="15.8635833"><ele>335.0</ele><time>2026-04-09T14:13:25.234Z</time></trkpt><trkpt lat="38.3378767" lon="15.863325"><ele>340.5</ele><time>2026-04-09T14:13:26.234Z</time></trkpt><trkpt lat="38.337575" lon="15.8630833"><ele>346.0</ele><time>2026-04-09T14:13:27.233Z</time></trkpt><trkpt lat="38.3372767" lon="15.862845"><ele>353.0</ele><time>2026-04-09T14:13:28.234Z</time></trkpt><trkpt lat="38.3369967" lon="15.8626117"><ele>360.0</ele><time>2026-04-09T14:13:29.234Z</time></trkpt><trkpt lat="38.336725" lon="15.8623783"><ele>360.0</ele><time>2026-04-09T14:13:30.233Z</time></trkpt><trkpt lat="38.3364583" lon="15.8621583"><ele>360.0</ele><time>2026-04-09T14:13:31.234Z</time></trkpt><trkpt lat="38.3361917" lon="15.8619417"><ele>365.5</ele><time>2026-04-09T14:13:32.234Z</time></trkpt><trkpt lat="38.3359283" lon="15.861715"><ele>371.0</ele><time>2026-04-09T14:13:33.234Z</time></trkpt><trkpt lat="38.3356633" lon="15.86148"><ele>370.0</ele><time>2026-04-09T14:13:34.234Z</time></trkpt><trkpt lat="38.3353983" lon="15.8612367"><ele>369.0</ele><time>2026-04-09T14:13:35.234Z</time></trkpt><trkpt lat="38.3351483" lon="15.860995"><ele>370.0</ele><time>2026-04-09T14:13:36.233Z</time></trkpt><trkpt lat="38.3349167" lon="15.8607683"><ele>371.0</ele><time>2026-04-09T14:13:37.234Z</time></trkpt><trkpt lat="38.3346967" lon="15.8605317"><ele>371.0</ele><time>2026-04-09T14:13:38.234Z</time></trkpt><trkpt lat="38.3344683" lon="15.86028"><ele>371.0</ele><time>2026-04-09T14:13:39.234Z</time></trkpt><trkpt lat="38.33424" lon="15.860025"><ele>372.5</ele><time>2026-04-09T14:13:40.234Z</time></trkpt><trkpt lat="38.3340267" lon="15.8597617"><ele>374.0</ele><time>2026-04-09T14:13:41.233Z</time></trkpt><trkpt lat="38.3338283" lon="15.8595"><ele>379.0</ele><time>2026-04-09T14:13:42.234Z</time></trkpt><trkpt lat="38.3336383" lon="15.8592233"><ele>384.0</ele><time>2026-04-09T14:13:43.234Z</time></trkpt><trkpt lat="38.33345" lon="15.858965"><ele>384.0</ele><time>2026-04-09T14:13:44.234Z</time></trkpt><trkpt lat="38.3332783" lon="15.8587117"><ele>384.0</ele><time>2026-04-09T14:13:45.234Z</time></trkpt><trkpt lat="38.3331167" lon="15.8584517"><ele>387.5</ele><time>2026-04-09T14:13:46.234Z</time></trkpt><trkpt lat="38.3329583" lon="15.8581733"><ele>391.0</ele><time>2026-04-09T14:13:47.234Z</time></trkpt><trkpt lat="38.3328017" lon="15.8579083"><ele>391.0</ele><time>2026-04-09T14:13:48.234Z</time></trkpt><trkpt lat="38.3326483" lon="15.8576417"><ele>391.0</ele><time>2026-04-09T14:13:49.234Z</time></trkpt><trkpt lat="38.3324917" lon="15.8573733"><ele>395.5</ele><time>2026-04-09T14:13:50.234Z</time></trkpt><trkpt lat="38.3323383" lon="15.8571083"><ele>400.0</ele><time>2026-04-09T14:13:51.233Z</time></trkpt><trkpt lat="38.332185" lon="15.856845"><ele>408.5</ele><time>2026-04-09T14:13:52.234Z</time></trkpt><trkpt lat="38.33203" lon="15.85658"><ele>417.0</ele><time>2026-04-09T14:13:53.234Z</time></trkpt><trkpt lat="38.331875" lon="15.8563133"><ele>417.0</ele><time>2026-04-09T14:13:54.234Z</time></trkpt><trkpt lat="38.33172" lon="15.8560483"><ele>417.0</ele><time>2026-04-09T14:13:55.234Z</time></trkpt><trkpt lat="38.3315667" lon="15.855785"><ele>483.0</ele><time>2026-04-09T14:13:56.234Z</time></trkpt><trkpt lat="38.314615" lon="15.8424483"><ele>483.0</ele><time>2026-04-09T14:15:05.234Z</time></trkpt><trkpt lat="38.3143167" lon="15.8425383"><ele>483.0</ele><time>2026-04-09T14:15:06.234Z</time></trkpt><trkpt lat="38.31401" lon="15.8426583"><ele>482.5</ele><time>2026-04-09T14:15:07.233Z</time></trkpt><trkpt lat="38.3137033" lon="15.8427733"><ele>482.0</ele><time>2026-04-09T14:15:08.234Z</time></trkpt><trkpt lat="38.3134" lon="15.842885"><ele>482.0</ele><time>2026-04-09T14:15:09.234Z</time></trkpt><trkpt lat="38.3131" lon="15.8429883"><ele>482.0</ele><time>2026-04-09T14:15:10.234Z</time></trkpt><trkpt lat="38.3128" lon="15.8430983"><ele>480.5</ele><time>2026-04-09T14:15:11.234Z</time></trkpt><trkpt lat="38.3124833" lon="15.8432183"><ele>479.0</ele><time>2026-04-09T14:15:12.234Z</time></trkpt><trkpt lat="38.3121633" lon="15.8433433"><ele>477.5</ele><time>2026-04-09T14:15:13.234Z</time></trkpt><trkpt lat="38.3118333" lon="15.843465"><ele>476.0</ele><time>2026-04-09T14:15:14.234Z</time></trkpt><trkpt lat="38.3115" lon="15.8435867"><ele>477.0</ele><time>2026-04-09T14:15:15.234Z</time></trkpt><trkpt lat="38.3111667" lon="15.84369"><ele>478.0</ele><time>2026-04-09T14:15:16.234Z</time></trkpt><trkpt lat="38.31085" lon="15.8437767"><ele>479.0</ele><time>2026-04-09T14:15:17.234Z</time></trkpt><trkpt lat="38.3105267" lon="15.8438517"><ele>480.0</ele><time>2026-04-09T14:15:18.233Z</time></trkpt><trkpt lat="38.3101983" lon="15.8439217"><ele>480.0</ele><time>2026-04-09T14:15:19.234Z</time></trkpt><trkpt lat="38.3098633" lon="15.8439783"><ele>480.0</ele><time>2026-04-09T14:15:20.234Z</time></trkpt><trkpt lat="38.309525" lon="15.844035"><ele>480.5</ele><time>2026-04-09T14:15:21.234Z</time></trkpt><trkpt lat="38.3091917" lon="15.8440917"><ele>481.0</ele><time>2026-04-09T14:15:22.234Z</time></trkpt><trkpt lat="38.308855" lon="15.844135"><ele>481.0</ele><time>2026-04-09T14:15:23.234Z</time></trkpt><trkpt lat="38.3085233" lon="15.84416"><ele>481.0</ele><time>2026-04-09T14:15:24.234Z</time></trkpt><trkpt lat="38.3081817" lon="15.8441783"><ele>482.0</ele><time>2026-04-09T14:15:25.234Z</time></trkpt><trkpt lat="38.307845" lon="15.84419"><ele>483.0</ele><time>2026-04-09T14:15:26.234Z</time></trkpt><trkpt lat="38.3075117" lon="15.844195"><ele>484.5</ele><time>2026-04-09T14:15:27.233Z</time></trkpt><trkpt lat="38.3071783" lon="15.844195"><ele>486.0</ele><time>2026-04-09T14:15:28.234Z</time></trkpt><trkpt lat="38.306845" lon="15.84419"><ele>486.0</ele><time>2026-04-09T14:15:29.233Z</time></trkpt><trkpt lat="38.3065133" lon="15.8441817"><ele>486.0</ele><time>2026-04-09T14:15:30.234Z</time></trkpt><trkpt lat="38.3061867" lon="15.8441633"><ele>487.0</ele><time>2026-04-09T14:15:31.234Z</time></trkpt><trkpt lat="38.3058533" lon="15.8441333"><ele>488.0</ele><time>2026-04-09T14:15:32.234Z</time></trkpt><trkpt lat="38.3055167" lon="15.8440933"><ele>488.5</ele><time>2026-04-09T14:15:33.234Z</time></trkpt><trkpt lat="38.3051767" lon="15.8440583"><ele>489.0</ele><time>2026-04-09T14:15:34.234Z</time></trkpt><trkpt lat="38.30484" lon="15.844005"><ele>490.5</ele><time>2026-04-09T14:15:35.234Z</time></trkpt><trkpt lat="38.3045167" lon="15.8439467"><ele>492.0</ele><time>2026-04-09T14:15:36.234Z</time></trkpt><trkpt lat="38.3041967" lon="15.8438833"><ele>495.0</ele><time>2026-04-09T14:15:37.233Z</time></trkpt><trkpt lat="38.303875" lon="15.8438183"><ele>498.0</ele><time>2026-04-09T14:15:38.234Z</time></trkpt><trkpt lat="38.3035533" lon="15.8437567"><ele>498.0</ele><time>2026-04-09T14:15:39.234Z</time></trkpt><trkpt lat="38.3032267" lon="15.8437"><ele>498.0</ele><time>2026-04-09T14:15:40.234Z</time></trkpt><trkpt lat="38.302895" lon="15.8436533"><ele>499.5</ele><time>2026-04-09T14:15:41.234Z</time></trkpt><trkpt lat="38.30256" lon="15.8435983"><ele>501.0</ele><time>2026-04-09T14:15:42.233Z</time></trkpt><trkpt lat="38.3022333" lon="15.8435367"><ele>502.0</ele><time>2026-04-09T14:15:43.234Z</time></trkpt><trkpt lat="38.3018933" lon="15.8434717"><ele>503.0</ele><time>2026-04-09T14:15:44.234Z</time></trkpt><trkpt lat="38.30155" lon="15.8434133"><ele>501.0</ele><time>2026-04-09T14:15:45.234Z</time></trkpt><trkpt lat="38.3012167" lon="15.843355"><ele>499.0</ele><time>2026-04-09T14:15:46.234Z</time></trkpt><trkpt lat="38.30088" lon="15.84329"><ele>510.0</ele><time>2026-04-09T14:15:47.234Z</time></trkpt><trkpt lat="38.3005417" lon="15.8432233"><ele>521.0</ele><time>2026-04-09T14:15:48.234Z</time></trkpt><trkpt lat="38.3002083" lon="15.8431583"><ele>521.0</ele><time>2026-04-09T14:15:49.234Z</time></trkpt><trkpt lat="38.29988" lon="15.8430883"><ele>521.0</ele><time>2026-04-09T14:15:50.234Z</time></trkpt><trkpt lat="38.299545" lon="15.8430217"><ele>529.0</ele><time>2026-04-09T14:15:51.233Z</time></trkpt><trkpt lat="38.2992117" lon="15.8429533"><ele>537.0</ele><time>2026-04-09T14:15:52.234Z</time></trkpt><trkpt lat="38.29888" lon="15.8428867"><ele>545.5</ele><time>2026-04-09T14:15:53.234Z</time></trkpt><trkpt lat="38.2985467" lon="15.8428183"><ele>554.0</ele><time>2026-04-09T14:15:54.234Z</time></trkpt><trkpt lat="38.2982133" lon="15.84275"><ele>556.5</ele><time>2026-04-09T14:15:55.234Z</time></trkpt><trkpt lat="38.2978817" lon="15.8426817"><ele>559.0</ele><time>2026-04-09T14:15:56.234Z</time></trkpt><trkpt lat="38.29755" lon="15.8426117"><ele>492.0</ele><time>2026-04-09T14:15:57.234Z</time></trkpt><trkpt lat="38.2944767" lon="15.8399183"><ele>492.0</ele><time>2026-04-09T14:16:08.234Z</time></trkpt><trkpt lat="38.294245" lon="15.8397167"><ele>492.0</ele><time>2026-04-09T14:16:09.234Z</time></trkpt><trkpt lat="38.2940533" lon="15.839465"><ele>483.5</ele><time>2026-04-09T14:16:10.234Z</time></trkpt><trkpt lat="38.2938667" lon="15.83919"><ele>475.0</ele><time>2026-04-09T14:16:11.234Z</time></trkpt><trkpt lat="38.2936733" lon="15.8389167"><ele>475.0</ele><time>2026-04-09T14:16:12.234Z</time></trkpt><trkpt lat="38.293475" lon="15.8386383"><ele>475.0</ele><time>2026-04-09T14:16:13.234Z</time></trkpt><trkpt lat="38.2932717" lon="15.8383467"><ele>489.5</ele><time>2026-04-09T14:16:14.234Z</time></trkpt><trkpt lat="38.2930733" lon="15.8380383"><ele>504.0</ele><time>2026-04-09T14:16:15.234Z</time></trkpt><trkpt lat="38.2928733" lon="15.8377183"><ele>504.0</ele><time>2026-04-09T14:16:16.234Z</time></trkpt><trkpt lat="38.292675" lon="15.837405"><ele>504.0</ele><time>2026-04-09T14:16:17.234Z</time></trkpt><trkpt lat="38.29247" lon="15.8370867"><ele>502.0</ele><time>2026-04-09T14:16:18.234Z</time></trkpt><trkpt lat="38.2922467" lon="15.8367683"><ele>500.0</ele><time>2026-04-09T14:16:19.234Z</time></trkpt><trkpt lat="38.2920417" lon="15.83646"><ele>500.0</ele><time>2026-04-09T14:16:20.234Z</time></trkpt><trkpt lat="38.2918433" lon="15.836135"><ele>500.0</ele><time>2026-04-09T14:16:21.234Z</time></trkpt><trkpt lat="38.29174" lon="15.83578"><ele>498.5</ele><time>2026-04-09T14:16:22.234Z</time></trkpt><trkpt lat="38.291585" lon="15.8354683"><ele>497.0</ele><time>2026-04-09T14:16:23.234Z</time></trkpt><trkpt lat="38.2914167" lon="15.835155"><ele>499.0</ele><time>2026-04-09T14:16:24.234Z</time></trkpt><trkpt lat="38.291265" lon="15.8348333"><ele>501.0</ele><time>2026-04-09T14:16:25.234Z</time></trkpt><trkpt lat="38.2911067" lon="15.8345183"><ele>503.0</ele><time>2026-04-09T14:16:26.234Z</time></trkpt><trkpt lat="38.2909567" lon="15.8342133"><ele>505.0</ele><time>2026-04-09T14:16:27.234Z</time></trkpt><trkpt lat="38.2907967" lon="15.8339083"><ele>505.0</ele><time>2026-04-09T14:16:28.234Z</time></trkpt><trkpt lat="38.2906267" lon="15.8335933"><ele>505.0</ele><time>2026-04-09T14:16:29.234Z</time></trkpt><trkpt lat="38.290455" lon="15.83328"><ele>512.5</ele><time>2026-04-09T14:16:30.234Z</time></trkpt><trkpt lat="38.29029" lon="15.832965"><ele>520.0</ele><time>2026-04-09T14:16:31.234Z</time></trkpt><trkpt lat="38.2901233" lon="15.8326533"><ele>515.5</ele><time>2026-04-09T14:16:32.233Z</time></trkpt><trkpt lat="38.2899567" lon="15.8323417"><ele>511.0</ele><time>2026-04-09T14:16:33.234Z</time></trkpt><trkpt lat="38.2841883" lon="15.8211883"><ele>516.5</ele><time>2026-04-09T14:17:03.234Z</time></trkpt><trkpt lat="38.2839833" lon="15.8208417"><ele>522.0</ele><time>2026-04-09T14:17:04.234Z</time></trkpt><trkpt lat="38.2838033" lon="15.82049"><ele>530.0</ele><time>2026-04-09T14:17:05.234Z</time></trkpt><trkpt lat="38.2836333" lon="15.82014"><ele>538.0</ele><time>2026-04-09T14:17:06.233Z</time></trkpt><trkpt lat="38.283465" lon="15.8197967"><ele>538.0</ele><time>2026-04-09T14:17:07.233Z</time></trkpt><trkpt lat="38.283285" lon="15.81945"><ele>538.0</ele><time>2026-04-09T14:17:08.234Z</time></trkpt><trkpt lat="38.2830833" lon="15.819095"><ele>540.0</ele><time>2026-04-09T14:17:09.234Z</time></trkpt><trkpt lat="38.2829017" lon="15.8187433"><ele>542.0</ele><time>2026-04-09T14:17:10.234Z</time></trkpt><trkpt lat="38.28271" lon="15.8183883"><ele>542.0</ele><time>2026-04-09T14:17:11.234Z</time></trkpt><trkpt lat="38.282515" lon="15.8180317"><ele>542.0</ele><time>2026-04-09T14:17:12.234Z</time></trkpt><trkpt lat="38.28229" lon="15.8177283"><ele>529.0</ele><time>2026-04-09T14:17:13.234Z</time></trkpt><trkpt lat="38.28209" lon="15.8173933"><ele>516.0</ele><time>2026-04-09T14:17:14.234Z</time></trkpt><trkpt lat="38.2815717" lon="15.8168267"><ele>490.5</ele><time>2026-04-09T14:17:16.235Z</time></trkpt><trkpt lat="38.281325" lon="15.8164367"><ele>465.0</ele><time>2026-04-09T14:17:17.235Z</time></trkpt><trkpt lat="38.2810167" lon="15.8161283"><ele>462.0</ele><time>2026-04-09T14:17:18.235Z</time></trkpt><trkpt lat="38.28073" lon="15.8158683"><ele>459.0</ele><time>2026-04-09T14:17:19.235Z</time></trkpt><trkpt lat="38.2804783" lon="15.815615"><ele>478.5</ele><time>2026-04-09T14:17:20.235Z</time></trkpt><trkpt lat="38.2802283" lon="15.8153583"><ele>498.0</ele><time>2026-04-09T14:17:21.235Z</time></trkpt><trkpt lat="38.2799783" lon="15.8150983"><ele>512.0</ele><time>2026-04-09T14:17:22.235Z</time></trkpt><trkpt lat="38.2797317" lon="15.8148433"><ele>526.0</ele><time>2026-04-09T14:17:23.235Z</time></trkpt><trkpt lat="38.27948" lon="15.814595"><ele>526.0</ele><time>2026-04-09T14:17:24.234Z</time></trkpt><trkpt lat="38.2792233" lon="15.814365"><ele>526.0</ele><time>2026-04-09T14:17:25.235Z</time></trkpt><trkpt lat="38.272075" lon="15.8063733"><ele>422.5</ele><time>2026-04-09T14:17:56.236Z</time></trkpt><trkpt lat="38.27197" lon="15.8059717"><ele>319.0</ele><time>2026-04-09T14:17:57.236Z</time></trkpt><trkpt lat="38.27188" lon="15.8055867"><ele>319.0</ele><time>2026-04-09T14:17:58.236Z</time></trkpt><trkpt lat="38.2717733" lon="15.8051933"><ele>319.0</ele><time>2026-04-09T14:17:59.236Z</time></trkpt><trkpt lat="38.2716583" lon="15.8048083"><ele>304.0</ele><time>2026-04-09T14:18:00.236Z</time></trkpt><trkpt lat="38.271535" lon="15.8044267"><ele>289.0</ele><time>2026-04-09T14:18:01.236Z</time></trkpt><trkpt lat="38.2714067" lon="15.804025"><ele>257.5</ele><time>2026-04-09T14:18:02.236Z</time></trkpt><trkpt lat="38.2712833" lon="15.8036067"><ele>226.0</ele><time>2026-04-09T14:18:03.236Z</time></trkpt><trkpt lat="38.2711617" lon="15.80319"><ele>213.0</ele><time>2026-04-09T14:18:04.236Z</time></trkpt><trkpt lat="38.2710317" lon="15.8027633"><ele>200.0</ele><time>2026-04-09T14:18:05.236Z</time></trkpt><trkpt lat="38.270905" lon="15.8023417"><ele>200.0</ele><time>2026-04-09T14:18:06.236Z</time></trkpt><trkpt lat="38.270785" lon="15.8019217"><ele>200.0</ele><time>2026-04-09T14:18:07.236Z</time></trkpt><trkpt lat="38.2706667" lon="15.8015283"><ele>215.0</ele><time>2026-04-09T14:18:08.236Z</time></trkpt><trkpt lat="38.2705583" lon="15.8011383"><ele>230.0</ele><time>2026-04-09T14:18:09.236Z</time></trkpt><trkpt lat="38.2704467" lon="15.8007617"><ele>255.5</ele><time>2026-04-09T14:18:10.236Z</time></trkpt><trkpt lat="38.2703383" lon="15.8003833"><ele>281.0</ele><time>2026-04-09T14:18:11.236Z</time></trkpt><trkpt lat="38.2702233" lon="15.8000067"><ele>330.0</ele><time>2026-04-09T14:18:12.236Z</time></trkpt><trkpt lat="38.2701183" lon="15.7996233"><ele>379.0</ele><time>2026-04-09T14:18:13.236Z</time></trkpt><trkpt lat="38.2700267" lon="15.799255"><ele>394.0</ele><time>2026-04-09T14:18:14.236Z</time></trkpt><trkpt lat="38.2699417" lon="15.7988833"><ele>409.0</ele><time>2026-04-09T14:18:15.235Z</time></trkpt><trkpt lat="38.2698583" lon="15.7985067"><ele>375.0</ele><time>2026-04-09T14:18:16.236Z</time></trkpt><trkpt lat="38.2653317" lon="15.785175"><ele>375.0</ele><time>2026-04-09T14:18:50.234Z</time></trkpt><trkpt lat="38.2651733" lon="15.7847967"><ele>375.0</ele><time>2026-04-09T14:18:51.233Z</time></trkpt><trkpt lat="38.2649867" lon="15.7844233"><ele>380.5</ele><time>2026-04-09T14:18:52.234Z</time></trkpt><trkpt lat="38.2647983" lon="15.7840633"><ele>386.0</ele><time>2026-04-09T14:18:53.234Z</time></trkpt><trkpt lat="38.2646067" lon="15.7837033"><ele>429.0</ele><time>2026-04-09T14:18:54.234Z</time></trkpt><trkpt lat="38.2644117" lon="15.7833483"><ele>472.0</ele><time>2026-04-09T14:18:55.234Z</time></trkpt><trkpt lat="38.2642117" lon="15.7830067"><ele>474.0</ele><time>2026-04-09T14:18:56.234Z</time></trkpt><trkpt lat="38.2640183" lon="15.782665"><ele>476.0</ele><time>2026-04-09T14:18:57.234Z</time></trkpt><trkpt lat="38.261985" lon="15.77861"><ele>410.5</ele><time>2026-04-09T14:19:08.235Z</time></trkpt><trkpt lat="38.2618017" lon="15.7782817"><ele>345.0</ele><time>2026-04-09T14:19:09.235Z</time></trkpt><trkpt lat="38.2616133" lon="15.77794"><ele>237.0</ele><time>2026-04-09T14:19:10.235Z</time></trkpt><trkpt lat="38.2553383" lon="15.7689967"><ele>237.0</ele><time>2026-04-09T14:19:37.233Z</time></trkpt><trkpt lat="38.25518" lon="15.76863"><ele>237.0</ele><time>2026-04-09T14:19:38.232Z</time></trkpt><trkpt lat="38.2550217" lon="15.768255"><ele>226.5</ele><time>2026-04-09T14:19:39.233Z</time></trkpt><trkpt lat="38.2548783" lon="15.76789"><ele>216.0</ele><time>2026-04-09T14:19:40.233Z</time></trkpt><trkpt lat="38.2547317" lon="15.767505"><ele>222.5</ele><time>2026-04-09T14:19:41.233Z</time></trkpt><trkpt lat="38.254585" lon="15.7671133"><ele>229.0</ele><time>2026-04-09T14:19:42.233Z</time></trkpt><trkpt lat="38.2544383" lon="15.7667017"><ele>229.0</ele><time>2026-04-09T14:19:43.233Z</time></trkpt><trkpt lat="38.2543067" lon="15.7662833"><ele>229.0</ele><time>2026-04-09T14:19:44.233Z</time></trkpt><trkpt lat="38.254175" lon="15.7658583"><ele>242.0</ele><time>2026-04-09T14:19:45.233Z</time></trkpt><trkpt lat="38.254055" lon="15.7654467"><ele>255.0</ele><time>2026-04-09T14:19:46.233Z</time></trkpt><trkpt lat="38.253945" lon="15.7650517"><ele>291.0</ele><time>2026-04-09T14:19:47.233Z</time></trkpt><trkpt lat="38.2538267" lon="15.7646517"><ele>327.0</ele><time>2026-04-09T14:19:48.232Z</time></trkpt><trkpt lat="38.2537083" lon="15.7642483"><ele>340.5</ele><time>2026-04-09T14:19:49.232Z</time></trkpt><trkpt lat="38.2535967" lon="15.7638517"><ele>354.0</ele><time>2026-04-09T14:19:50.233Z</time></trkpt><trkpt lat="38.2534867" lon="15.7634517"><ele>360.0</ele><time>2026-04-09T14:19:51.232Z</time></trkpt><trkpt lat="38.253375" lon="15.7630533"><ele>366.0</ele><time>2026-04-09T14:19:52.233Z</time></trkpt><trkpt lat="38.2532633" lon="15.762655"><ele>377.0</ele><time>2026-04-09T14:19:53.233Z</time></trkpt><trkpt lat="38.2531517" lon="15.7622567"><ele>388.0</ele><time>2026-04-09T14:19:54.233Z</time></trkpt><trkpt lat="38.25304" lon="15.7618583"><ele>178.0</ele><time>2026-04-09T14:19:55.233Z</time></trkpt><trkpt lat="38.2508083" lon="15.7448767"><ele>178.0</ele><time>2026-04-09T14:20:31.233Z</time></trkpt><trkpt lat="38.2507217" lon="15.744445"><ele>178.0</ele><time>2026-04-09T14:20:32.233Z</time></trkpt><trkpt lat="38.2506633" lon="15.7440133"><ele>182.5</ele><time>2026-04-09T14:20:33.233Z</time></trkpt><trkpt lat="38.2505867" lon="15.74359"><ele>187.0</ele><time>2026-04-09T14:20:34.233Z</time></trkpt><trkpt lat="38.250515" lon="15.7431717"><ele>193.0</ele><time>2026-04-09T14:20:35.233Z</time></trkpt><trkpt lat="38.2504417" lon="15.7427567"><ele>199.0</ele><time>2026-04-09T14:20:36.233Z</time></trkpt><trkpt lat="38.250365" lon="15.742335"><ele>233.0</ele><time>2026-04-09T14:20:37.233Z</time></trkpt><trkpt lat="38.2502833" lon="15.7419083"><ele>267.0</ele><time>2026-04-09T14:20:38.233Z</time></trkpt><trkpt lat="38.2502033" lon="15.7414833"><ele>291.0</ele><time>2026-04-09T14:20:39.233Z</time></trkpt><trkpt lat="38.2501233" lon="15.7410583"><ele>315.0</ele><time>2026-04-09T14:20:40.233Z</time></trkpt><trkpt lat="38.24873" lon="15.7320533"><ele>231.5</ele><time>2026-04-09T14:21:00.233Z</time></trkpt><trkpt lat="38.24868" lon="15.7315833"><ele>148.0</ele><time>2026-04-09T14:21:01.233Z</time></trkpt><trkpt lat="38.248655" lon="15.7311"><ele>157.5</ele><time>2026-04-09T14:21:02.233Z</time></trkpt><trkpt lat="38.2486267" lon="15.7306083"><ele>167.0</ele><time>2026-04-09T14:21:03.233Z</time></trkpt><trkpt lat="38.24861" lon="15.7301167"><ele>166.0</ele><time>2026-04-09T14:21:04.232Z</time></trkpt><trkpt lat="38.248595" lon="15.7296217"><ele>165.0</ele><time>2026-04-09T14:21:05.233Z</time></trkpt><trkpt lat="38.2485783" lon="15.72913"><ele>165.0</ele><time>2026-04-09T14:21:06.233Z</time></trkpt><trkpt lat="38.2485667" lon="15.72863"><ele>165.0</ele><time>2026-04-09T14:21:07.233Z</time></trkpt><trkpt lat="38.248555" lon="15.7281433"><ele>153.0</ele><time>2026-04-09T14:21:08.232Z</time></trkpt><trkpt lat="38.2485483" lon="15.7276583"><ele>141.0</ele><time>2026-04-09T14:21:09.233Z</time></trkpt><trkpt lat="38.24854" lon="15.7271783"><ele>138.0</ele><time>2026-04-09T14:21:10.233Z</time></trkpt><trkpt lat="38.24853" lon="15.7266933"><ele>135.0</ele><time>2026-04-09T14:21:11.233Z</time></trkpt><trkpt lat="38.2485133" lon="15.7262083"><ele>144.5</ele><time>2026-04-09T14:21:12.233Z</time></trkpt><trkpt lat="38.2485067" lon="15.7257183"><ele>154.0</ele><time>2026-04-09T14:21:13.233Z</time></trkpt><trkpt lat="38.248505" lon="15.7252383"><ele>155.0</ele><time>2026-04-09T14:21:14.233Z</time></trkpt><trkpt lat="38.248505" lon="15.724755"><ele>156.0</ele><time>2026-04-09T14:21:15.233Z</time></trkpt><trkpt lat="38.2485017" lon="15.72429"><ele>153.0</ele><time>2026-04-09T14:21:16.233Z</time></trkpt><trkpt lat="38.248505" lon="15.7238167"><ele>150.0</ele><time>2026-04-09T14:21:17.233Z</time></trkpt><trkpt lat="38.2485117" lon="15.72335"><ele>149.5</ele><time>2026-04-09T14:21:18.233Z</time></trkpt><trkpt lat="38.2485217" lon="15.7228933"><ele>149.0</ele><time>2026-04-09T14:21:19.233Z</time></trkpt><trkpt lat="38.24853" lon="15.72244"><ele>145.5</ele><time>2026-04-09T14:21:20.233Z</time></trkpt><trkpt lat="38.24854" lon="15.7219983"><ele>142.0</ele><time>2026-04-09T14:21:21.232Z</time></trkpt><trkpt lat="38.2485483" lon="15.7215383"><ele>142.0</ele><time>2026-04-09T14:21:22.233Z</time></trkpt><trkpt lat="38.2485583" lon="15.721095"><ele>142.0</ele><time>2026-04-09T14:21:23.233Z</time></trkpt><trkpt lat="38.2485717" lon="15.720645"><ele>144.5</ele><time>2026-04-09T14:21:24.233Z</time></trkpt><trkpt lat="38.24858" lon="15.7201883"><ele>147.0</ele><time>2026-04-09T14:21:25.233Z</time></trkpt><trkpt lat="38.24859" lon="15.7197417"><ele>148.5</ele><time>2026-04-09T14:21:26.233Z</time></trkpt><trkpt lat="38.2485983" lon="15.7192983"><ele>150.0</ele><time>2026-04-09T14:21:27.233Z</time></trkpt><trkpt lat="38.248615" lon="15.7188667"><ele>152.0</ele><time>2026-04-09T14:21:28.233Z</time></trkpt><trkpt lat="38.2486267" lon="15.7184517"><ele>154.0</ele><time>2026-04-09T14:21:29.233Z</time></trkpt><trkpt lat="38.2486367" lon="15.718045"><ele>157.5</ele><time>2026-04-09T14:21:30.233Z</time></trkpt><trkpt lat="38.2486467" lon="15.717635"><ele>161.0</ele><time>2026-04-09T14:21:31.233Z</time></trkpt><trkpt lat="38.2486433" lon="15.7172167"><ele>158.0</ele><time>2026-04-09T14:21:32.233Z</time></trkpt><trkpt lat="38.248625" lon="15.7167917"><ele>155.0</ele><time>2026-04-09T14:21:33.233Z</time></trkpt><trkpt lat="38.24859" lon="15.7163717"><ele>143.0</ele><time>2026-04-09T14:21:34.233Z</time></trkpt><trkpt lat="38.248545" lon="15.7159417"><ele>131.0</ele><time>2026-04-09T14:21:35.233Z</time></trkpt><trkpt lat="38.2484883" lon="15.7155183"><ele>117.5</ele><time>2026-04-09T14:21:36.233Z</time></trkpt><trkpt lat="38.2484267" lon="15.71509"><ele>104.0</ele><time>2026-04-09T14:21:37.233Z</time></trkpt><trkpt lat="38.2483633" lon="15.7146617"><ele>108.5</ele><time>2026-04-09T14:21:38.233Z</time></trkpt><trkpt lat="38.2483067" lon="15.7142383"><ele>113.0</ele><time>2026-04-09T14:21:39.233Z</time></trkpt><trkpt lat="38.2482583" lon="15.7138117"><ele>125.0</ele><time>2026-04-09T14:21:40.233Z</time></trkpt><trkpt lat="38.248205" lon="15.713375"><ele>137.0</ele><time>2026-04-09T14:21:41.232Z</time></trkpt><trkpt lat="38.2481633" lon="15.7129617"><ele>165.0</ele><time>2026-04-09T14:21:42.233Z</time></trkpt><trkpt lat="38.2481083" lon="15.7125433"><ele>193.0</ele><time>2026-04-09T14:21:43.233Z</time></trkpt><trkpt lat="38.2480517" lon="15.7121217"><ele>201.5</ele><time>2026-04-09T14:21:44.233Z</time></trkpt><trkpt lat="38.247995" lon="15.7117"><ele>210.0</ele><time>2026-04-09T14:21:45.233Z</time></trkpt><trkpt lat="38.2479433" lon="15.7112817"><ele>206.0</ele><time>2026-04-09T14:21:46.233Z</time></trkpt><trkpt lat="38.24789" lon="15.7108617"><ele>202.0</ele><time>2026-04-09T14:21:47.233Z</time></trkpt><trkpt lat="38.2478367" lon="15.7104433"><ele>184.0</ele><time>2026-04-09T14:21:48.233Z</time></trkpt><trkpt lat="38.2478067" lon="15.7099817"><ele>166.0</ele><time>2026-04-09T14:21:49.233Z</time></trkpt><trkpt lat="38.2477283" lon="15.7094817"><ele>170.5</ele><time>2026-04-09T14:21:50.233Z</time></trkpt><trkpt lat="38.247655" lon="15.7090133"><ele>175.0</ele><time>2026-04-09T14:21:51.233Z</time></trkpt><trkpt lat="38.247585" lon="15.7085633"><ele>197.0</ele><time>2026-04-09T14:21:52.233Z</time></trkpt><trkpt lat="38.2475267" lon="15.7081117"><ele>219.0</ele><time>2026-04-09T14:21:53.233Z</time></trkpt><trkpt lat="38.2474667" lon="15.7076617"><ele>235.0</ele><time>2026-04-09T14:21:54.233Z</time></trkpt><trkpt lat="38.24741" lon="15.7072117"><ele>251.0</ele><time>2026-04-09T14:21:55.233Z</time></trkpt><trkpt lat="38.24478" lon="15.689155"><ele>200.0</ele><time>2026-04-09T14:22:40.233Z</time></trkpt><trkpt lat="38.2446017" lon="15.688765"><ele>149.0</ele><time>2026-04-09T14:22:41.233Z</time></trkpt><trkpt lat="38.2444367" lon="15.6884017"><ele>149.0</ele><time>2026-04-09T14:22:42.233Z</time></trkpt><trkpt lat="38.244295" lon="15.68805"><ele>149.0</ele><time>2026-04-09T14:22:43.233Z</time></trkpt><trkpt lat="38.2441533" lon="15.687695"><ele>153.5</ele><time>2026-04-09T14:22:44.233Z</time></trkpt><trkpt lat="38.2440167" lon="15.6873417"><ele>158.0</ele><time>2026-04-09T14:22:45.233Z</time></trkpt><trkpt lat="38.2438833" lon="15.6869867"><ele>175.0</ele><time>2026-04-09T14:22:46.233Z</time></trkpt><trkpt lat="38.2437483" lon="15.6866517"><ele>192.0</ele><time>2026-04-09T14:22:47.233Z</time></trkpt><trkpt lat="38.24362" lon="15.6863083"><ele>144.0</ele><time>2026-04-09T14:22:48.233Z</time></trkpt><trkpt lat="38.2403583" lon="15.68111"><ele>133.5</ele><time>2026-04-09T14:23:04.233Z</time></trkpt><trkpt lat="38.240055" lon="15.6807817"><ele>123.0</ele><time>2026-04-09T14:23:05.232Z</time></trkpt><trkpt lat="38.2397617" lon="15.6805183"><ele>119.5</ele><time>2026-04-09T14:23:06.233Z</time></trkpt><trkpt lat="38.2394617" lon="15.680295"><ele>116.0</ele><time>2026-04-09T14:23:07.233Z</time></trkpt><trkpt lat="38.239155" lon="15.6800817"><ele>111.0</ele><time>2026-04-09T14:23:08.233Z</time></trkpt><trkpt lat="38.2388733" lon="15.67986"><ele>106.0</ele><time>2026-04-09T14:23:09.233Z</time></trkpt><trkpt lat="38.2385983" lon="15.6796283"><ele>104.5</ele><time>2026-04-09T14:23:10.232Z</time></trkpt><trkpt lat="38.2383283" lon="15.67939"><ele>103.0</ele><time>2026-04-09T14:23:11.233Z</time></trkpt><trkpt lat="38.2380683" lon="15.679125"><ele>111.0</ele><time>2026-04-09T14:23:12.233Z</time></trkpt><trkpt lat="38.237825" lon="15.6788567"><ele>119.0</ele><time>2026-04-09T14:23:13.233Z</time></trkpt><trkpt lat="38.2376" lon="15.6785933"><ele>119.0</ele><time>2026-04-09T14:23:14.233Z</time></trkpt><trkpt lat="38.2374" lon="15.6783183"><ele>119.0</ele><time>2026-04-09T14:23:15.233Z</time></trkpt><trkpt lat="38.23722" lon="15.678035"><ele>121.0</ele><time>2026-04-09T14:23:16.233Z</time></trkpt><trkpt lat="38.2370467" lon="15.67775"><ele>123.0</ele><time>2026-04-09T14:23:17.233Z</time></trkpt><trkpt lat="38.2368933" lon="15.6774617"><ele>123.0</ele><time>2026-04-09T14:23:18.232Z</time></trkpt><trkpt lat="38.236725" lon="15.6771617"><ele>123.0</ele><time>2026-04-09T14:23:19.233Z</time></trkpt><trkpt lat="38.2365617" lon="15.67686"><ele>123.0</ele><time>2026-04-09T14:23:20.233Z</time></trkpt><trkpt lat="38.2364083" lon="15.6765533"><ele>123.0</ele><time>2026-04-09T14:23:21.233Z</time></trkpt><trkpt lat="38.236255" lon="15.6762367"><ele>112.0</ele><time>2026-04-09T14:23:22.233Z</time></trkpt><trkpt lat="38.236105" lon="15.6759117"><ele>101.0</ele><time>2026-04-09T14:23:23.233Z</time></trkpt><trkpt lat="38.235955" lon="15.6755733"><ele>103.5</ele><time>2026-04-09T14:23:24.233Z</time></trkpt><trkpt lat="38.2358" lon="15.6752267"><ele>106.0</ele><time>2026-04-09T14:23:25.233Z</time></trkpt><trkpt lat="38.23564" lon="15.674875"><ele>114.0</ele><time>2026-04-09T14:23:26.233Z</time></trkpt><trkpt lat="38.2354883" lon="15.6745167"><ele>122.0</ele><time>2026-04-09T14:23:27.233Z</time></trkpt><trkpt lat="38.23534" lon="15.6741583"><ele>122.0</ele><time>2026-04-09T14:23:28.233Z</time></trkpt><trkpt lat="38.235185" lon="15.67382"><ele>122.0</ele><time>2026-04-09T14:23:29.233Z</time></trkpt><trkpt lat="38.2350367" lon="15.6734833"><ele>128.5</ele><time>2026-04-09T14:23:30.233Z</time></trkpt><trkpt lat="38.2348833" lon="15.6731483"><ele>135.0</ele><time>2026-04-09T14:23:31.232Z</time></trkpt><trkpt lat="38.23474" lon="15.6728017"><ele>130.5</ele><time>2026-04-09T14:23:32.233Z</time></trkpt><trkpt lat="38.2345833" lon="15.6724483"><ele>126.0</ele><time>2026-04-09T14:23:33.233Z</time></trkpt><trkpt lat="38.2344183" lon="15.67208"><ele>121.5</ele><time>2026-04-09T14:23:34.233Z</time></trkpt><trkpt lat="38.2342433" lon="15.6716917"><ele>117.0</ele><time>2026-04-09T14:23:35.232Z</time></trkpt><trkpt lat="38.2340767" lon="15.6712833"><ele>121.0</ele><time>2026-04-09T14:23:36.233Z</time></trkpt><trkpt lat="38.2339133" lon="15.6708483"><ele>125.0</ele><time>2026-04-09T14:23:37.233Z</time></trkpt><trkpt lat="38.2337517" lon="15.6704"><ele>119.0</ele><time>2026-04-09T14:23:38.233Z</time></trkpt><trkpt lat="38.2335967" lon="15.6699483"><ele>113.0</ele><time>2026-04-09T14:23:39.233Z</time></trkpt><trkpt lat="38.2334483" lon="15.669515"><ele>109.5</ele><time>2026-04-09T14:23:40.233Z</time></trkpt><trkpt lat="38.233305" lon="15.6690867"><ele>106.0</ele><time>2026-04-09T14:23:41.233Z</time></trkpt><trkpt lat="38.2331633" lon="15.66865"><ele>106.5</ele><time>2026-04-09T14:23:42.233Z</time></trkpt><trkpt lat="38.2330083" lon="15.66821"><ele>107.0</ele><time>2026-04-09T14:23:43.233Z</time></trkpt><trkpt lat="38.2328483" lon="15.6677617"><ele>107.0</ele><time>2026-04-09T14:23:44.233Z</time></trkpt><trkpt lat="38.2326933" lon="15.667295"><ele>107.0</ele><time>2026-04-09T14:23:45.233Z</time></trkpt><trkpt lat="38.232535" lon="15.666825"><ele>107.5</ele><time>2026-04-09T14:23:46.233Z</time></trkpt><trkpt lat="38.2323833" lon="15.666365"><ele>108.0</ele><time>2026-04-09T14:23:47.234Z</time></trkpt><trkpt lat="38.23223" lon="15.665915"><ele>108.0</ele><time>2026-04-09T14:23:48.234Z</time></trkpt><trkpt lat="38.2320817" lon="15.665475"><ele>108.0</ele><time>2026-04-09T14:23:49.234Z</time></trkpt><trkpt lat="38.2319367" lon="15.6650367"><ele>103.0</ele><time>2026-04-09T14:23:50.234Z</time></trkpt><trkpt lat="38.2317983" lon="15.6646033"><ele>98.0</ele><time>2026-04-09T14:23:51.234Z</time></trkpt><trkpt lat="38.2316767" lon="15.6641683"><ele>95.0</ele><time>2026-04-09T14:23:52.234Z</time></trkpt><trkpt lat="38.231555" lon="15.663725"><ele>92.0</ele><time>2026-04-09T14:23:53.234Z</time></trkpt><trkpt lat="38.2314383" lon="15.6632783"><ele>99.5</ele><time>2026-04-09T14:23:54.234Z</time></trkpt><trkpt lat="38.2313167" lon="15.662845"><ele>107.0</ele><time>2026-04-09T14:23:55.234Z</time></trkpt><trkpt lat="38.23119" lon="15.662415"><ele>107.0</ele><time>2026-04-09T14:23:56.234Z</time></trkpt><trkpt lat="38.2310633" lon="15.6619867"><ele>107.0</ele><time>2026-04-09T14:23:57.233Z</time></trkpt><trkpt lat="38.230935" lon="15.6615617"><ele>102.0</ele><time>2026-04-09T14:23:58.233Z</time></trkpt><trkpt lat="38.230815" lon="15.6611217"><ele>97.0</ele><time>2026-04-09T14:23:59.234Z</time></trkpt><trkpt lat="38.2306867" lon="15.6606833"><ele>101.0</ele><time>2026-04-09T14:24:00.234Z</time></trkpt><trkpt lat="38.2305567" lon="15.660225"><ele>105.0</ele><time>2026-04-09T14:24:01.234Z</time></trkpt><trkpt lat="38.2304117" lon="15.659765"><ele>102.0</ele><time>2026-04-09T14:24:02.234Z</time></trkpt><trkpt lat="38.230265" lon="15.6592967"><ele>99.0</ele><time>2026-04-09T14:24:03.234Z</time></trkpt><trkpt lat="38.23012" lon="15.6588233"><ele>97.0</ele><time>2026-04-09T14:24:04.234Z</time></trkpt><trkpt lat="38.229985" lon="15.6583617"><ele>95.0</ele><time>2026-04-09T14:24:05.234Z</time></trkpt><trkpt lat="38.22984" lon="15.6579017"><ele>106.5</ele><time>2026-04-09T14:24:06.234Z</time></trkpt><trkpt lat="38.2296933" lon="15.6574517"><ele>118.0</ele><time>2026-04-09T14:24:07.234Z</time></trkpt><trkpt lat="38.2295617" lon="15.657015"><ele>114.0</ele><time>2026-04-09T14:24:08.234Z</time></trkpt><trkpt lat="38.229425" lon="15.6565933"><ele>110.0</ele><time>2026-04-09T14:24:09.233Z</time></trkpt><trkpt lat="38.2292917" lon="15.6561767"><ele>107.5</ele><time>2026-04-09T14:24:10.234Z</time></trkpt><trkpt lat="38.22916" lon="15.6557633"><ele>105.0</ele><time>2026-04-09T14:24:11.234Z</time></trkpt><trkpt lat="38.22902" lon="15.655365"><ele>115.0</ele><time>2026-04-09T14:24:12.234Z</time></trkpt><trkpt lat="38.2288733" lon="15.654975"><ele>125.0</ele><time>2026-04-09T14:24:13.234Z</time></trkpt><trkpt lat="38.2287233" lon="15.65459"><ele>121.0</ele><time>2026-04-09T14:24:14.234Z</time></trkpt><trkpt lat="38.2285617" lon="15.6542083"><ele>117.0</ele><time>2026-04-09T14:24:15.234Z</time></trkpt><trkpt lat="38.22839" lon="15.65384"><ele>114.0</ele><time>2026-04-09T14:24:16.234Z</time></trkpt><trkpt lat="38.2282067" lon="15.6534883"><ele>111.0</ele><time>2026-04-09T14:24:17.233Z</time></trkpt><trkpt lat="38.2280283" lon="15.6531183"><ele>125.5</ele><time>2026-04-09T14:24:18.234Z</time></trkpt><trkpt lat="38.227855" lon="15.6527633"><ele>140.0</ele><time>2026-04-09T14:24:19.233Z</time></trkpt><trkpt lat="38.2276783" lon="15.65242"><ele>140.0</ele><time>2026-04-09T14:24:20.234Z</time></trkpt><trkpt lat="38.2274967" lon="15.6520967"><ele>140.0</ele><time>2026-04-09T14:24:21.233Z</time></trkpt><trkpt lat="38.2273133" lon="15.6517617"><ele>145.5</ele><time>2026-04-09T14:24:22.234Z</time></trkpt><trkpt lat="38.227145" lon="15.65141"><ele>151.0</ele><time>2026-04-09T14:24:23.234Z</time></trkpt><trkpt lat="38.2269683" lon="15.6510783"><ele>151.0</ele><time>2026-04-09T14:24:24.234Z</time></trkpt><trkpt lat="38.2267833" lon="15.6507267"><ele>151.0</ele><time>2026-04-09T14:24:25.234Z</time></trkpt><trkpt lat="38.2265883" lon="15.6503667"><ele>148.0</ele><time>2026-04-09T14:24:26.234Z</time></trkpt><trkpt lat="38.2264" lon="15.6500117"><ele>145.0</ele><time>2026-04-09T14:24:27.234Z</time></trkpt><trkpt lat="38.22047" lon="15.6479567"><ele>126.0</ele><time>2026-04-09T14:24:45.234Z</time></trkpt><trkpt lat="38.2200783" lon="15.6478583"><ele>107.0</ele><time>2026-04-09T14:24:46.233Z</time></trkpt><trkpt lat="38.2197183" lon="15.6478467"><ele>107.0</ele><time>2026-04-09T14:24:47.234Z</time></trkpt><trkpt lat="38.2193033" lon="15.647845"><ele>107.0</ele><time>2026-04-09T14:24:48.234Z</time></trkpt><trkpt lat="38.2188867" lon="15.6478783"><ele>110.0</ele><time>2026-04-09T14:24:49.234Z</time></trkpt><trkpt lat="38.2184917" lon="15.647925"><ele>113.0</ele><time>2026-04-09T14:24:50.234Z</time></trkpt><trkpt lat="38.2181217" lon="15.6479533"><ele>113.0</ele><time>2026-04-09T14:24:51.233Z</time></trkpt><trkpt lat="38.2177667" lon="15.6479633"><ele>113.0</ele><time>2026-04-09T14:24:52.234Z</time></trkpt><trkpt lat="38.2174233" lon="15.6479783"><ele>111.5</ele><time>2026-04-09T14:24:53.234Z</time></trkpt><trkpt lat="38.21707" lon="15.6479867"><ele>110.0</ele><time>2026-04-09T14:24:54.234Z</time></trkpt><trkpt lat="38.2167183" lon="15.6479633"><ele>111.5</ele><time>2026-04-09T14:24:55.234Z</time></trkpt><trkpt lat="38.2163467" lon="15.6479117"><ele>113.0</ele><time>2026-04-09T14:24:56.234Z</time></trkpt><trkpt lat="38.215985" lon="15.64783"><ele>107.5</ele><time>2026-04-09T14:24:57.234Z</time></trkpt><trkpt lat="38.2156233" lon="15.6477283"><ele>102.0</ele><time>2026-04-09T14:24:58.234Z</time></trkpt><trkpt lat="38.2152733" lon="15.647615"><ele>102.0</ele><time>2026-04-09T14:24:59.234Z</time></trkpt><trkpt lat="38.2149267" lon="15.6474817"><ele>102.0</ele><time>2026-04-09T14:25:00.234Z</time></trkpt><trkpt lat="38.2145833" lon="15.6473383"><ele>101.0</ele><time>2026-04-09T14:25:01.234Z</time></trkpt><trkpt lat="38.2142433" lon="15.6471717"><ele>100.0</ele><time>2026-04-09T14:25:02.233Z</time></trkpt><trkpt lat="38.213905" lon="15.6469717"><ele>89.5</ele><time>2026-04-09T14:25:03.233Z</time></trkpt><trkpt lat="38.2135617" lon="15.6467417"><ele>79.0</ele><time>2026-04-09T14:25:04.234Z</time></trkpt><trkpt lat="38.2132183" lon="15.6464933"><ele>80.0</ele><time>2026-04-09T14:25:05.234Z</time></trkpt><trkpt lat="38.2128883" lon="15.6462183"><ele>81.0</ele><time>2026-04-09T14:25:06.234Z</time></trkpt><trkpt lat="38.212585" lon="15.6459433"><ele>88.0</ele><time>2026-04-09T14:25:07.234Z</time></trkpt><trkpt lat="38.2122833" lon="15.6456633"><ele>95.0</ele><time>2026-04-09T14:25:08.234Z</time></trkpt><trkpt lat="38.212" lon="15.64538"><ele>93.0</ele><time>2026-04-09T14:25:09.234Z</time></trkpt><trkpt lat="38.21172" lon="15.6450867"><ele>91.0</ele><time>2026-04-09T14:25:10.234Z</time></trkpt><trkpt lat="38.2114467" lon="15.6447867"><ele>91.0</ele><time>2026-04-09T14:25:11.234Z</time></trkpt><trkpt lat="38.2111733" lon="15.644485"><ele>91.0</ele><time>2026-04-09T14:25:12.234Z</time></trkpt><trkpt lat="38.2109133" lon="15.6441833"><ele>86.5</ele><time>2026-04-09T14:25:13.234Z</time></trkpt><trkpt lat="38.210665" lon="15.643905"><ele>82.0</ele><time>2026-04-09T14:25:14.234Z</time></trkpt><trkpt lat="38.2104017" lon="15.6436217"><ele>78.0</ele><time>2026-04-09T14:25:15.234Z</time></trkpt><trkpt lat="38.2101383" lon="15.64335"><ele>74.0</ele><time>2026-04-09T14:25:16.234Z</time></trkpt><trkpt lat="38.209875" lon="15.64309"><ele>73.0</ele><time>2026-04-09T14:25:17.234Z</time></trkpt><trkpt lat="38.2096033" lon="15.6428533"><ele>72.0</ele><time>2026-04-09T14:25:18.234Z</time></trkpt><trkpt lat="38.209325" lon="15.6426267"><ele>68.5</ele><time>2026-04-09T14:25:19.233Z</time></trkpt><trkpt lat="38.209045" lon="15.6423983"><ele>65.0</ele><time>2026-04-09T14:25:20.234Z</time></trkpt><trkpt lat="38.2087383" lon="15.642185"><ele>63.0</ele><time>2026-04-09T14:25:21.234Z</time></trkpt><trkpt lat="38.2084283" lon="15.6419683"><ele>61.0</ele><time>2026-04-09T14:25:22.234Z</time></trkpt><trkpt lat="38.208105" lon="15.6417667"><ele>58.0</ele><time>2026-04-09T14:25:23.234Z</time></trkpt><trkpt lat="38.2077783" lon="15.6415883"><ele>55.0</ele><time>2026-04-09T14:25:24.233Z</time></trkpt><trkpt lat="38.2074383" lon="15.64142"><ele>54.0</ele><time>2026-04-09T14:25:25.234Z</time></trkpt><trkpt lat="38.2070883" lon="15.6412633"><ele>53.0</ele><time>2026-04-09T14:25:26.233Z</time></trkpt><trkpt lat="38.206725" lon="15.6411317"><ele>55.0</ele><time>2026-04-09T14:25:27.233Z</time></trkpt><trkpt lat="38.20634" lon="15.6410133"><ele>57.0</ele><time>2026-04-09T14:25:28.234Z</time></trkpt><trkpt lat="38.2059517" lon="15.640915"><ele>55.0</ele><time>2026-04-09T14:25:29.234Z</time></trkpt><trkpt lat="38.2055683" lon="15.64083"><ele>53.0</ele><time>2026-04-09T14:25:30.233Z</time></trkpt><trkpt lat="38.2051767" lon="15.6407767"><ele>53.0</ele><time>2026-04-09T14:25:31.234Z</time></trkpt><trkpt lat="38.2047967" lon="15.640735"><ele>53.0</ele><time>2026-04-09T14:25:32.234Z</time></trkpt><trkpt lat="38.2044267" lon="15.6407117"><ele>53.0</ele><time>2026-04-09T14:25:33.234Z</time></trkpt><trkpt lat="38.2040533" lon="15.6407017"><ele>53.0</ele><time>2026-04-09T14:25:34.233Z</time></trkpt><trkpt lat="38.203675" lon="15.6407"><ele>54.5</ele><time>2026-04-09T14:25:35.234Z</time></trkpt><trkpt lat="38.2033033" lon="15.6406833"><ele>56.0</ele><time>2026-04-09T14:25:36.234Z</time></trkpt><trkpt lat="38.2029483" lon="15.640675"><ele>56.5</ele><time>2026-04-09T14:25:37.234Z</time></trkpt><trkpt lat="38.202605" lon="15.6406683"><ele>57.0</ele><time>2026-04-09T14:25:38.234Z</time></trkpt><trkpt lat="38.2022667" lon="15.6406783"><ele>57.0</ele><time>2026-04-09T14:25:39.234Z</time></trkpt><trkpt lat="38.2019283" lon="15.640695"><ele>57.0</ele><time>2026-04-09T14:25:40.234Z</time></trkpt><trkpt lat="38.201595" lon="15.6407233"><ele>56.0</ele><time>2026-04-09T14:25:41.233Z</time></trkpt><trkpt lat="38.2012517" lon="15.6407717"><ele>55.0</ele><time>2026-04-09T14:25:42.234Z</time></trkpt><trkpt lat="38.2009167" lon="15.64084"><ele>56.0</ele><time>2026-04-09T14:25:43.234Z</time></trkpt><trkpt lat="38.20058" lon="15.6409217"><ele>57.0</ele><time>2026-04-09T14:25:44.234Z</time></trkpt><trkpt lat="38.20025" lon="15.641015"><ele>57.0</ele><time>2026-04-09T14:25:45.233Z</time></trkpt><trkpt lat="38.19992" lon="15.6411267"><ele>57.0</ele><time>2026-04-09T14:25:46.233Z</time></trkpt><trkpt lat="38.1995883" lon="15.6412517"><ele>58.0</ele><time>2026-04-09T14:25:47.234Z</time></trkpt><trkpt lat="38.19927" lon="15.6413833"><ele>59.0</ele><time>2026-04-09T14:25:48.234Z</time></trkpt><trkpt lat="38.198955" lon="15.64153"><ele>57.0</ele><time>2026-04-09T14:25:49.233Z</time></trkpt><trkpt lat="38.1986633" lon="15.6416917"><ele>55.0</ele><time>2026-04-09T14:25:50.234Z</time></trkpt><trkpt lat="38.1983917" lon="15.641845"><ele>55.0</ele><time>2026-04-09T14:25:51.233Z</time></trkpt><trkpt lat="38.1981133" lon="15.6420183"><ele>55.0</ele><time>2026-04-09T14:25:52.233Z</time></trkpt><trkpt lat="38.1978367" lon="15.64221"><ele>55.0</ele><time>2026-04-09T14:25:53.234Z</time></trkpt><trkpt lat="38.19757" lon="15.6424067"><ele>55.0</ele><time>2026-04-09T14:25:54.234Z</time></trkpt><trkpt lat="38.19731" lon="15.642615"><ele>54.0</ele><time>2026-04-09T14:25:55.234Z</time></trkpt><trkpt lat="38.1970617" lon="15.6428067"><ele>53.0</ele><time>2026-04-09T14:25:56.234Z</time></trkpt><trkpt lat="38.1968183" lon="15.64301"><ele>53.0</ele><time>2026-04-09T14:25:57.234Z</time></trkpt><trkpt lat="38.1965883" lon="15.64324"><ele>53.0</ele><time>2026-04-09T14:25:58.234Z</time></trkpt><trkpt lat="38.19636" lon="15.643465"><ele>46.0</ele><time>2026-04-09T14:25:59.234Z</time></trkpt><trkpt lat="38.1961217" lon="15.643715"><ele>39.0</ele><time>2026-04-09T14:26:00.234Z</time></trkpt><trkpt lat="38.1958683" lon="15.643985"><ele>36.5</ele><time>2026-04-09T14:26:01.234Z</time></trkpt><trkpt lat="38.1956" lon="15.644275"><ele>34.0</ele><time>2026-04-09T14:26:02.234Z</time></trkpt><trkpt lat="38.195315" lon="15.6445683"><ele>34.0</ele><time>2026-04-09T14:26:03.234Z</time></trkpt><trkpt lat="38.1950217" lon="15.6448817"><ele>34.0</ele><time>2026-04-09T14:26:04.234Z</time></trkpt><trkpt lat="38.194715" lon="15.6451917"><ele>34.5</ele><time>2026-04-09T14:26:05.233Z</time></trkpt><trkpt lat="38.1944233" lon="15.64549"><ele>35.0</ele><time>2026-04-09T14:26:06.234Z</time></trkpt><trkpt lat="38.19415" lon="15.6457733"><ele>34.5</ele><time>2026-04-09T14:26:07.234Z</time></trkpt><trkpt lat="38.1938933" lon="15.6460383"><ele>34.0</ele><time>2026-04-09T14:26:08.234Z</time></trkpt><trkpt lat="38.1936483" lon="15.6462933"><ele>33.5</ele><time>2026-04-09T14:26:09.234Z</time></trkpt><trkpt lat="38.19341" lon="15.6465467"><ele>33.0</ele><time>2026-04-09T14:26:10.234Z</time></trkpt><trkpt lat="38.1931683" lon="15.6467967"><ele>33.0</ele><time>2026-04-09T14:26:11.234Z</time></trkpt><trkpt lat="38.19294" lon="15.6470267"><ele>33.0</ele><time>2026-04-09T14:26:12.234Z</time></trkpt><trkpt lat="38.1927017" lon="15.647275"><ele>33.0</ele><time>2026-04-09T14:26:13.234Z</time></trkpt><trkpt lat="38.1924817" lon="15.6474967"><ele>33.0</ele><time>2026-04-09T14:26:14.234Z</time></trkpt><trkpt lat="38.1922533" lon="15.6477183"><ele>32.5</ele><time>2026-04-09T14:26:15.234Z</time></trkpt><trkpt lat="38.192025" lon="15.6479217"><ele>32.0</ele><time>2026-04-09T14:26:16.234Z</time></trkpt><trkpt lat="38.19179" lon="15.6481083"><ele>32.0</ele><time>2026-04-09T14:26:17.234Z</time></trkpt><trkpt lat="38.19155" lon="15.64827"><ele>32.0</ele><time>2026-04-09T14:26:18.233Z</time></trkpt><trkpt lat="38.1912967" lon="15.6484233"><ele>31.5</ele><time>2026-04-09T14:26:19.234Z</time></trkpt><trkpt lat="38.1910283" lon="15.6485433"><ele>31.0</ele><time>2026-04-09T14:26:20.234Z</time></trkpt><trkpt lat="38.1907483" lon="15.6486467"><ele>29.5</ele><time>2026-04-09T14:26:21.234Z</time></trkpt><trkpt lat="38.1904667" lon="15.6487133"><ele>28.0</ele><time>2026-04-09T14:26:22.234Z</time></trkpt><trkpt lat="38.1901833" lon="15.6487567"><ele>28.0</ele><time>2026-04-09T14:26:23.234Z</time></trkpt><trkpt lat="38.1898867" lon="15.64878"><ele>28.0</ele><time>2026-04-09T14:26:24.234Z</time></trkpt><trkpt lat="38.1895767" lon="15.648785"><ele>28.0</ele><time>2026-04-09T14:26:25.234Z</time></trkpt><trkpt lat="38.1892667" lon="15.6487533"><ele>28.0</ele><time>2026-04-09T14:26:26.234Z</time></trkpt><trkpt lat="38.1889533" lon="15.6486967"><ele>28.5</ele><time>2026-04-09T14:26:27.234Z</time></trkpt><trkpt lat="38.1886467" lon="15.64861"><ele>29.0</ele><time>2026-04-09T14:26:28.234Z</time></trkpt><trkpt lat="38.1883417" lon="15.6485083"><ele>29.5</ele><time>2026-04-09T14:26:29.234Z</time></trkpt><trkpt lat="38.1880283" lon="15.6483867"><ele>30.0</ele><time>2026-04-09T14:26:30.234Z</time></trkpt><trkpt lat="38.1877217" lon="15.6482783"><ele>30.0</ele><time>2026-04-09T14:26:31.234Z</time></trkpt><trkpt lat="38.1874117" lon="15.6481783"><ele>30.0</ele><time>2026-04-09T14:26:32.234Z</time></trkpt><trkpt lat="38.1871033" lon="15.6481017"><ele>30.0</ele><time>2026-04-09T14:26:33.234Z</time></trkpt><trkpt lat="38.1867917" lon="15.648035"><ele>30.0</ele><time>2026-04-09T14:26:34.234Z</time></trkpt><trkpt lat="38.18647" lon="15.648"><ele>33.5</ele><time>2026-04-09T14:26:35.233Z</time></trkpt><trkpt lat="38.1861267" lon="15.6479983"><ele>37.0</ele><time>2026-04-09T14:26:36.234Z</time></trkpt><trkpt lat="38.1857883" lon="15.648015"><ele>38.0</ele><time>2026-04-09T14:26:37.234Z</time></trkpt><trkpt lat="38.18546" lon="15.6480517"><ele>39.0</ele><time>2026-04-09T14:26:38.233Z</time></trkpt><trkpt lat="38.1851317" lon="15.6481183"><ele>37.5</ele><time>2026-04-09T14:26:39.234Z</time></trkpt><trkpt lat="38.1848" lon="15.6482117"><ele>36.0</ele><time>2026-04-09T14:26:40.234Z</time></trkpt><trkpt lat="38.1844717" lon="15.64833"><ele>36.0</ele><time>2026-04-09T14:26:41.233Z</time></trkpt><trkpt lat="38.18415" lon="15.6484583"><ele>36.0</ele><time>2026-04-09T14:26:42.234Z</time></trkpt><trkpt lat="38.18382" lon="15.6486117"><ele>38.0</ele><time>2026-04-09T14:26:43.234Z</time></trkpt><trkpt lat="38.1834983" lon="15.64878"><ele>40.0</ele><time>2026-04-09T14:26:44.234Z</time></trkpt><trkpt lat="38.1831967" lon="15.6489717"><ele>41.0</ele><time>2026-04-09T14:26:45.234Z</time></trkpt><trkpt lat="38.1829367" lon="15.6491717"><ele>42.0</ele><time>2026-04-09T14:26:46.234Z</time></trkpt><trkpt lat="38.1826633" lon="15.64939"><ele>41.0</ele><time>2026-04-09T14:26:47.234Z</time></trkpt><trkpt lat="38.1823933" lon="15.6495983"><ele>40.0</ele><time>2026-04-09T14:26:48.233Z</time></trkpt><trkpt lat="38.1821367" lon="15.6497933"><ele>40.0</ele><time>2026-04-09T14:26:49.234Z</time></trkpt><trkpt lat="38.1819033" lon="15.6499717"><ele>40.0</ele><time>2026-04-09T14:26:50.234Z</time></trkpt><trkpt lat="38.1816733" lon="15.6501367"><ele>41.5</ele><time>2026-04-09T14:26:51.233Z</time></trkpt><trkpt lat="38.181445" lon="15.650305"><ele>43.0</ele><time>2026-04-09T14:26:52.234Z</time></trkpt><trkpt lat="38.18121" lon="15.6504817"><ele>43.0</ele><time>2026-04-09T14:26:53.234Z</time></trkpt><trkpt lat="38.18097" lon="15.65064"><ele>43.0</ele><time>2026-04-09T14:26:54.233Z</time></trkpt><trkpt lat="38.1807083" lon="15.6507967"><ele>44.0</ele><time>2026-04-09T14:26:55.234Z</time></trkpt><trkpt lat="38.1804417" lon="15.6509433"><ele>45.0</ele><time>2026-04-09T14:26:56.234Z</time></trkpt><trkpt lat="38.1801683" lon="15.6510767"><ele>48.5</ele><time>2026-04-09T14:26:57.234Z</time></trkpt><trkpt lat="38.1799067" lon="15.6511967"><ele>52.0</ele><time>2026-04-09T14:26:58.234Z</time></trkpt><trkpt lat="38.1796483" lon="15.6513"><ele>52.0</ele><time>2026-04-09T14:26:59.234Z</time></trkpt><trkpt lat="38.179395" lon="15.6514067"><ele>52.0</ele><time>2026-04-09T14:27:00.234Z</time></trkpt><trkpt lat="38.1791517" lon="15.6515033"><ele>49.0</ele><time>2026-04-09T14:27:01.234Z</time></trkpt><trkpt lat="38.17891" lon="15.6516067"><ele>46.0</ele><time>2026-04-09T14:27:02.233Z</time></trkpt><trkpt lat="38.1786783" lon="15.6517"><ele>46.0</ele><time>2026-04-09T14:27:03.234Z</time></trkpt><trkpt lat="38.178445" lon="15.6517967"><ele>46.0</ele><time>2026-04-09T14:27:04.234Z</time></trkpt><trkpt lat="38.17821" lon="15.6518967"><ele>48.0</ele><time>2026-04-09T14:27:05.234Z</time></trkpt><trkpt lat="38.1779817" lon="15.6519917"><ele>50.0</ele><time>2026-04-09T14:27:06.234Z</time></trkpt><trkpt lat="38.17776" lon="15.6520933"><ele>50.0</ele><time>2026-04-09T14:27:07.234Z</time></trkpt><trkpt lat="38.1775367" lon="15.6521933"><ele>50.0</ele><time>2026-04-09T14:27:08.234Z</time></trkpt><trkpt lat="38.1773067" lon="15.652285"><ele>49.5</ele><time>2026-04-09T14:27:09.234Z</time></trkpt><trkpt lat="38.177085" lon="15.652375"><ele>49.0</ele><time>2026-04-09T14:27:10.234Z</time></trkpt><trkpt lat="38.176875" lon="15.6524667"><ele>49.0</ele><time>2026-04-09T14:27:11.234Z</time></trkpt><trkpt lat="38.1766583" lon="15.6525617"><ele>49.0</ele><time>2026-04-09T14:27:12.234Z</time></trkpt><trkpt lat="38.1764483" lon="15.652655"><ele>46.666666666666664</ele><time>2026-04-09T14:27:13.234Z</time></trkpt><trkpt lat="38.1762417" lon="15.65275"><ele>44.33333333333333</ele><time>2026-04-09T14:27:14.234Z</time></trkpt><trkpt lat="38.176035" lon="15.652845"><ele>42.0</ele><time>2026-04-09T14:27:15.234Z</time></trkpt><trkpt lat="38.17583" lon="15.6529333"><ele>40.333333333333336</ele><time>2026-04-09T14:27:16.234Z</time></trkpt><trkpt lat="38.175625" lon="15.65302"><ele>38.66666666666667</ele><time>2026-04-09T14:27:17.233Z</time></trkpt><trkpt lat="38.17542" lon="15.6531117"><ele>37.0</ele><time>2026-04-09T14:27:18.234Z</time></trkpt><trkpt lat="38.175215" lon="15.6531933"><ele>37.0</ele><time>2026-04-09T14:27:19.234Z</time></trkpt><trkpt lat="38.1750117" lon="15.6532783"><ele>37.0</ele><time>2026-04-09T14:27:20.234Z</time></trkpt><trkpt lat="38.17481" lon="15.65337"><ele>37.0</ele><time>2026-04-09T14:27:21.234Z</time></trkpt><trkpt lat="38.1746017" lon="15.653455"><ele>37.333333333333336</ele><time>2026-04-09T14:27:22.234Z</time></trkpt><trkpt lat="38.1744067" lon="15.65354"><ele>37.666666666666664</ele><time>2026-04-09T14:27:23.234Z</time></trkpt><trkpt lat="38.1742167" lon="15.65362"><ele>38.0</ele><time>2026-04-09T14:27:24.234Z</time></trkpt><trkpt lat="38.1740367" lon="15.6537033"><ele>36.666666666666664</ele><time>2026-04-09T14:27:25.234Z</time></trkpt><trkpt lat="38.1738633" lon="15.6537733"><ele>35.333333333333336</ele><time>2026-04-09T14:27:26.234Z</time></trkpt><trkpt lat="38.1736967" lon="15.6538383"><ele>34.0</ele><time>2026-04-09T14:27:27.234Z</time></trkpt><trkpt lat="38.1735283" lon="15.6539067"><ele>34.0</ele><time>2026-04-09T14:27:28.234Z</time></trkpt><trkpt lat="38.1733667" lon="15.6539717"><ele>34.0</ele><time>2026-04-09T14:27:29.234Z</time></trkpt><trkpt lat="38.17319" lon="15.6540117"><ele>34.0</ele><time>2026-04-09T14:27:30.233Z</time></trkpt><trkpt lat="38.1730467" lon="15.6540833"><ele>33.75</ele><time>2026-04-09T14:27:31.234Z</time></trkpt><trkpt lat="38.1729017" lon="15.654145"><ele>33.5</ele><time>2026-04-09T14:27:32.233Z</time></trkpt><trkpt lat="38.17277" lon="15.6541933"><ele>33.25</ele><time>2026-04-09T14:27:33.234Z</time></trkpt><trkpt lat="38.17264" lon="15.6542133"><ele>33.0</ele><time>2026-04-09T14:27:34.234Z</time></trkpt><trkpt lat="38.1725183" lon="15.6541967"><ele>33.0</ele><time>2026-04-09T14:27:35.234Z</time></trkpt><trkpt lat="38.1723917" lon="15.6541517"><ele>33.0</ele><time>2026-04-09T14:27:36.234Z</time></trkpt><trkpt lat="38.1722867" lon="15.65407"><ele>33.0</ele><time>2026-04-09T14:27:37.234Z</time></trkpt><trkpt lat="38.1722017" lon="15.6539733"><ele>33.0</ele><time>2026-04-09T14:27:38.234Z</time></trkpt><trkpt lat="38.17212" lon="15.653865"><ele>32.4</ele><time>2026-04-09T14:27:39.234Z</time></trkpt><trkpt lat="38.172055" lon="15.6537517"><ele>31.799999999999997</ele><time>2026-04-09T14:27:40.234Z</time></trkpt><trkpt lat="38.1720083" lon="15.65363"><ele>31.2</ele><time>2026-04-09T14:27:41.234Z</time></trkpt><trkpt lat="38.17198" lon="15.653515"><ele>30.6</ele><time>2026-04-09T14:27:42.233Z</time></trkpt><trkpt lat="38.171955" lon="15.653415"><ele>30.0</ele><time>2026-04-09T14:27:43.234Z</time></trkpt><trkpt lat="38.17193" lon="15.65333"><ele>29.833333333333332</ele><time>2026-04-09T14:27:44.234Z</time></trkpt><trkpt lat="38.17191" lon="15.65324"><ele>29.666666666666664</ele><time>2026-04-09T14:27:45.234Z</time></trkpt><trkpt lat="38.1718867" lon="15.6531517"><ele>29.5</ele><time>2026-04-09T14:27:46.234Z</time></trkpt><trkpt lat="38.1718633" lon="15.6530533"><ele>29.333333333333332</ele><time>2026-04-09T14:27:47.233Z</time></trkpt><trkpt lat="38.1718383" lon="15.65296"><ele>29.166666666666664</ele><time>2026-04-09T14:27:48.234Z</time></trkpt><trkpt lat="38.1718083" lon="15.6528617"><ele>29.0</ele><time>2026-04-09T14:27:49.234Z</time></trkpt><trkpt lat="38.1717783" lon="15.6527583"><ele>28.799999999999997</ele><time>2026-04-09T14:27:50.234Z</time></trkpt><trkpt lat="38.1717483" lon="15.65265"><ele>28.599999999999998</ele><time>2026-04-09T14:27:51.234Z</time></trkpt><trkpt lat="38.1717133" lon="15.652545"><ele>28.4</ele><time>2026-04-09T14:27:52.234Z</time></trkpt><trkpt lat="38.1716733" lon="15.6524433"><ele>28.2</ele><time>2026-04-09T14:27:53.234Z</time></trkpt><trkpt lat="38.1716283" lon="15.6523383"><ele>28.0</ele><time>2026-04-09T14:27:54.234Z</time></trkpt><trkpt lat="38.1715833" lon="15.65224"><ele>28.000000000000004</ele><time>2026-04-09T14:27:55.234Z</time></trkpt><trkpt lat="38.1715383" lon="15.65214"><ele>28.0</ele><time>2026-04-09T14:27:56.233Z</time></trkpt><trkpt lat="38.1714867" lon="15.6520483"><ele>28.0</ele><time>2026-04-09T14:27:57.234Z</time></trkpt><trkpt lat="38.17144" lon="15.6519633"><ele>28.0</ele><time>2026-04-09T14:27:58.234Z</time></trkpt><trkpt lat="38.1713883" lon="15.6518833"><ele>28.000000000000004</ele><time>2026-04-09T14:27:59.234Z</time></trkpt><trkpt lat="38.17134" lon="15.6518083"><ele>28.0</ele><time>2026-04-09T14:28:00.234Z</time></trkpt><trkpt lat="38.17129" lon="15.6517383"><ele>27.571428571428573</ele><time>2026-04-09T14:28:01.234Z</time></trkpt><trkpt lat="38.171245" lon="15.6516817"><ele>27.142857142857142</ele><time>2026-04-09T14:28:02.234Z</time></trkpt><trkpt lat="38.17119" lon="15.6515917"><ele>26.714285714285715</ele><time>2026-04-09T14:28:04.234Z</time></trkpt><trkpt lat="38.1711483" lon="15.65152"><ele>26.285714285714285</ele><time>2026-04-09T14:28:06.234Z</time></trkpt><trkpt lat="38.1710983" lon="15.6514517"><ele>25.857142857142858</ele><time>2026-04-09T14:28:08.234Z</time></trkpt><trkpt lat="38.171065" lon="15.6513767"><ele>25.42857142857143</ele><time>2026-04-09T14:28:10.234Z</time></trkpt><trkpt lat="38.1710383" lon="15.6512983"><ele>25.0</ele><time>2026-04-09T14:28:12.234Z</time></trkpt><trkpt lat="38.17096" lon="15.6512517"><ele>25.000000000000004</ele><time>2026-04-09T14:29:50.234Z</time></trkpt><trkpt lat="38.1708917" lon="15.6512283"><ele>25.0</ele><time>2026-04-09T14:29:52.234Z</time></trkpt><trkpt lat="38.170765" lon="15.6511967"><ele>25.0</ele><time>2026-04-09T14:29:54.234Z</time></trkpt><trkpt lat="38.1706883" lon="15.651195"><ele>25.0</ele><time>2026-04-09T14:29:55.234Z</time></trkpt><trkpt lat="38.1706167" lon="15.6512133"><ele>25.000000000000004</ele><time>2026-04-09T14:29:56.234Z</time></trkpt><trkpt lat="38.1705533" lon="15.65124"><ele>25.0</ele><time>2026-04-09T14:29:57.234Z</time></trkpt><trkpt lat="38.170425" lon="15.6513167"><ele>24.666666666666668</ele><time>2026-04-09T14:29:59.234Z</time></trkpt><trkpt lat="38.17035" lon="15.6513667"><ele>24.333333333333336</ele><time>2026-04-09T14:30:00.234Z</time></trkpt><trkpt lat="38.17028" lon="15.6514117"><ele>24.0</ele><time>2026-04-09T14:30:01.234Z</time></trkpt><trkpt lat="38.170215" lon="15.6514567"><ele>23.666666666666668</ele><time>2026-04-09T14:30:02.234Z</time></trkpt><trkpt lat="38.1701483" lon="15.6515017"><ele>23.333333333333336</ele><time>2026-04-09T14:30:03.234Z</time></trkpt><trkpt lat="38.170075" lon="15.6515467"><ele>23.0</ele><time>2026-04-09T14:30:04.234Z</time></trkpt><trkpt lat="38.1700017" lon="15.65159"><ele>23.0</ele><time>2026-04-09T14:30:05.234Z</time></trkpt><trkpt lat="38.1699317" lon="15.6516317"><ele>23.0</ele><time>2026-04-09T14:30:06.234Z</time></trkpt><trkpt lat="38.169825" lon="15.6516833"><ele>23.0</ele><time>2026-04-09T14:30:08.234Z</time></trkpt><trkpt lat="38.1697383" lon="15.6517183"><ele>23.0</ele><time>2026-04-09T14:30:10.234Z</time></trkpt><trkpt lat="38.16966" lon="15.65167"><ele>23.0</ele><time>2026-04-09T14:30:12.234Z</time></trkpt><trkpt lat="38.1696" lon="15.65154"><ele>23.25</ele><time>2026-04-09T14:30:14.234Z</time></trkpt><trkpt lat="38.16958" lon="15.6513817"><ele>23.5</ele><time>2026-04-09T14:30:16.234Z</time></trkpt><trkpt lat="38.1695433" lon="15.6512567"><ele>23.75</ele><time>2026-04-09T14:30:18.234Z</time></trkpt><trkpt lat="38.1695033" lon="15.65111"><ele>24.0</ele><time>2026-04-09T14:30:20.234Z</time></trkpt><trkpt lat="38.1694683" lon="15.6509583"><ele>23.4</ele><time>2026-04-09T14:30:22.234Z</time></trkpt><trkpt lat="38.1694417" lon="15.6508167"><ele>22.799999999999997</ele><time>2026-04-09T14:30:24.234Z</time></trkpt><trkpt lat="38.1694333" lon="15.6506733"><ele>22.200000000000003</ele><time>2026-04-09T14:30:26.234Z</time></trkpt><trkpt lat="38.1694" lon="15.6505567"><ele>21.6</ele><time>2026-04-09T14:30:28.234Z</time></trkpt><trkpt lat="38.169385" lon="15.6504433"><ele>21.0</ele><time>2026-04-09T14:30:30.234Z</time></trkpt><trkpt lat="38.1693733" lon="15.6503617"><ele>20.5</ele><time>2026-04-09T14:30:32.234Z</time></trkpt><trkpt lat="38.16935" lon="15.6502517"><ele>20.0</ele><time>2026-04-09T14:30:35.234Z</time></trkpt><trkpt lat="38.169335" lon="15.6501583"><ele>19.5</ele><time>2026-04-09T14:30:37.234Z</time></trkpt><trkpt lat="38.1693383" lon="15.6500433"><ele>19.0</ele><time>2026-04-09T14:30:39.234Z</time></trkpt><trkpt lat="38.1693433" lon="15.6499617"><ele>18.5</ele><time>2026-04-09T14:30:41.234Z</time></trkpt><trkpt lat="38.1693" lon="15.6499017"><ele>18.0</ele><time>2026-04-09T14:30:44.234Z</time></trkpt><trkpt lat="38.1692617" lon="15.6499833"><ele>18.0</ele><time>2026-04-09T14:30:47.234Z</time></trkpt><trkpt lat="38.1692917" lon="15.6500767"><ele>18.0</ele><time>2026-04-09T14:30:49.234Z</time></trkpt><trkpt lat="38.1693183" lon="15.65018"><ele>18.0</ele><time>2026-04-09T14:30:52.234Z</time></trkpt><trkpt lat="38.1693467" lon="15.6502633"><ele>18.0</ele><time>2026-04-09T14:30:58.234Z</time></trkpt><trkpt lat="38.1693083" lon="15.6501983"><ele>18.0</ele><time>2026-04-09T15:03:58.231Z</time></trkpt><trkpt lat="38.1693" lon="15.6500533"><ele>18.0</ele><time>2026-04-09T15:04:00.231Z</time></trkpt><trkpt lat="38.1693" lon="15.6499617"><ele>18.0</ele><time>2026-04-09T15:04:01.231Z</time></trkpt><trkpt lat="38.1692883" lon="15.6498767"><ele>18.0</ele><time>2026-04-09T15:04:02.231Z</time></trkpt><trkpt lat="38.1692617" lon="15.6497767"><ele>18.0</ele><time>2026-04-09T15:04:03.231Z</time></trkpt><trkpt lat="38.1692283" lon="15.6496783"><ele>18.0</ele><time>2026-04-09T15:04:04.231Z</time></trkpt><trkpt lat="38.169195" lon="15.6495667"><ele>18.0</ele><time>2026-04-09T15:04:05.231Z</time></trkpt><trkpt lat="38.1691617" lon="15.64946"><ele>18.0</ele><time>2026-04-09T15:04:06.231Z</time></trkpt><trkpt lat="38.1691283" lon="15.6493567"><ele>17.8</ele><time>2026-04-09T15:04:07.231Z</time></trkpt><trkpt lat="38.1691017" lon="15.6492417"><ele>17.6</ele><time>2026-04-09T15:04:08.231Z</time></trkpt><trkpt lat="38.1690767" lon="15.6491217"><ele>17.4</ele><time>2026-04-09T15:04:09.231Z</time></trkpt><trkpt lat="38.1690417" lon="15.6489967"><ele>17.2</ele><time>2026-04-09T15:04:10.231Z</time></trkpt><trkpt lat="38.1689983" lon="15.6488633"><ele>17.0</ele><time>2026-04-09T15:04:11.231Z</time></trkpt><trkpt lat="38.16895" lon="15.6487317"><ele>16.0</ele><time>2026-04-09T15:04:12.231Z</time></trkpt><trkpt lat="38.1688917" lon="15.6485967"><ele>15.0</ele><time>2026-04-09T15:04:13.231Z</time></trkpt><trkpt lat="38.1688483" lon="15.6484617"><ele>14.0</ele><time>2026-04-09T15:04:14.231Z</time></trkpt><trkpt lat="38.1688167" lon="15.6483317"><ele>13.0</ele><time>2026-04-09T15:04:15.231Z</time></trkpt><trkpt lat="38.168785" lon="15.6481717"><ele>13.0</ele><time>2026-04-09T15:04:16.231Z</time></trkpt><trkpt lat="38.16875" lon="15.6480433"><ele>13.0</ele><time>2026-04-09T15:04:17.231Z</time></trkpt><trkpt lat="38.1687167" lon="15.64793"><ele>13.0</ele><time>2026-04-09T15:04:18.231Z</time></trkpt><trkpt lat="38.1686933" lon="15.6478233"><ele>13.0</ele><time>2026-04-09T15:04:19.231Z</time></trkpt><trkpt lat="38.168675" lon="15.6477367"><ele>13.0</ele><time>2026-04-09T15:04:20.231Z</time></trkpt><trkpt lat="38.168645" lon="15.6476"><ele>12.666666666666666</ele><time>2026-04-09T15:04:22.23Z</time></trkpt><trkpt lat="38.1686267" lon="15.64749"><ele>12.333333333333332</ele><time>2026-04-09T15:04:24.231Z</time></trkpt><trkpt lat="38.1686083" lon="15.6473967"><ele>12.0</ele><time>2026-04-09T15:04:26.231Z</time></trkpt><trkpt lat="38.1686" lon="15.647295"><ele>11.666666666666666</ele><time>2026-04-09T15:04:28.231Z</time></trkpt><trkpt lat="38.1685617" lon="15.6472083"><ele>11.333333333333332</ele><time>2026-04-09T15:04:30.231Z</time></trkpt><trkpt lat="38.16853" lon="15.6471367"><ele>11.0</ele><time>2026-04-09T15:04:32.231Z</time></trkpt><trkpt lat="38.1684917" lon="15.6470617"><ele>11.0</ele><time>2026-04-09T15:04:36.23Z</time></trkpt><trkpt lat="38.1684867" lon="15.6471917"><ele>11.0</ele><time>2026-04-09T15:05:06.23Z</time></trkpt><trkpt lat="38.1685417" lon="15.647305"><ele>11.0</ele><time>2026-04-09T15:05:32.231Z</time></trkpt><trkpt lat="38.1685933" lon="15.647445"><ele>11.0</ele><time>2026-04-09T15:05:34.231Z</time></trkpt><trkpt lat="38.168625" lon="15.64752"><ele>11.0</ele><time>2026-04-09T15:05:35.231Z</time></trkpt><trkpt lat="38.16865" lon="15.6476133"><ele>11.0</ele><time>2026-04-09T15:05:36.231Z</time></trkpt><trkpt lat="38.1686733" lon="15.6477183"><ele>11.0</ele><time>2026-04-09T15:05:37.231Z</time></trkpt><trkpt lat="38.168685" lon="15.6478367"><ele>11.0</ele><time>2026-04-09T15:05:38.23Z</time></trkpt><trkpt lat="38.168705" lon="15.6479633"><ele>11.0</ele><time>2026-04-09T15:05:39.231Z</time></trkpt><trkpt lat="38.1687283" lon="15.6480817"><ele>11.0</ele><time>2026-04-09T15:05:40.231Z</time></trkpt><trkpt lat="38.1687567" lon="15.64819"><ele>11.333333333333332</ele><time>2026-04-09T15:05:41.231Z</time></trkpt><trkpt lat="38.16878" lon="15.64828"><ele>11.666666666666666</ele><time>2026-04-09T15:05:42.231Z</time></trkpt><trkpt lat="38.168805" lon="15.6483683"><ele>12.0</ele><time>2026-04-09T15:05:43.231Z</time></trkpt><trkpt lat="38.1688267" lon="15.6484467"><ele>12.333333333333332</ele><time>2026-04-09T15:05:44.231Z</time></trkpt><trkpt lat="38.1688467" lon="15.6485233"><ele>12.666666666666666</ele><time>2026-04-09T15:05:45.231Z</time></trkpt><trkpt lat="38.168895" lon="15.6486567"><ele>13.0</ele><time>2026-04-09T15:05:47.231Z</time></trkpt><trkpt lat="38.16895" lon="15.64879"><ele>13.666666666666666</ele><time>2026-04-09T15:05:49.231Z</time></trkpt><trkpt lat="38.16899" lon="15.6489"><ele>14.333333333333332</ele><time>2026-04-09T15:05:51.231Z</time></trkpt><trkpt lat="38.1690367" lon="15.6490367"><ele>15.0</ele><time>2026-04-09T15:05:53.231Z</time></trkpt><trkpt lat="38.16907" lon="15.6491133"><ele>15.666666666666668</ele><time>2026-04-09T15:05:54.231Z</time></trkpt><trkpt lat="38.1690917" lon="15.6492"><ele>16.333333333333336</ele><time>2026-04-09T15:05:55.231Z</time></trkpt><trkpt lat="38.1691033" lon="15.649295"><ele>17.0</ele><time>2026-04-09T15:05:56.231Z</time></trkpt><trkpt lat="38.1691167" lon="15.6493783"><ele>16.999999999999996</ele><time>2026-04-09T15:05:57.231Z</time></trkpt><trkpt lat="38.16913" lon="15.6494583"><ele>17.0</ele><time>2026-04-09T15:05:58.231Z</time></trkpt><trkpt lat="38.16915" lon="15.649535"><ele>17.0</ele><time>2026-04-09T15:05:59.231Z</time></trkpt><trkpt lat="38.1691783" lon="15.6496233"><ele>17.0</ele><time>2026-04-09T15:06:00.231Z</time></trkpt><trkpt lat="38.169205" lon="15.6497133"><ele>17.0</ele><time>2026-04-09T15:06:01.231Z</time></trkpt><trkpt lat="38.1692383" lon="15.6498"><ele>16.999999999999996</ele><time>2026-04-09T15:06:02.231Z</time></trkpt><trkpt lat="38.169265" lon="15.6498867"><ele>17.0</ele><time>2026-04-09T15:06:03.231Z</time></trkpt><trkpt lat="38.169285" lon="15.6499667"><ele>17.166666666666668</ele><time>2026-04-09T15:06:04.231Z</time></trkpt><trkpt lat="38.169305" lon="15.6500533"><ele>17.333333333333336</ele><time>2026-04-09T15:06:05.23Z</time></trkpt><trkpt lat="38.16931" lon="15.650145"><ele>17.5</ele><time>2026-04-09T15:06:06.231Z</time></trkpt><trkpt lat="38.1693283" lon="15.6502433"><ele>17.666666666666668</ele><time>2026-04-09T15:06:07.231Z</time></trkpt><trkpt lat="38.169345" lon="15.650345"><ele>17.833333333333332</ele><time>2026-04-09T15:06:08.231Z</time></trkpt><trkpt lat="38.1693633" lon="15.6504383"><ele>18.0</ele><time>2026-04-09T15:06:09.231Z</time></trkpt><trkpt lat="38.1693733" lon="15.6505267"><ele>18.6</ele><time>2026-04-09T15:06:10.231Z</time></trkpt><trkpt lat="38.1693767" lon="15.6506117"><ele>19.200000000000003</ele><time>2026-04-09T15:06:11.231Z</time></trkpt><trkpt lat="38.1694033" lon="15.6507633"><ele>19.8</ele><time>2026-04-09T15:06:13.231Z</time></trkpt><trkpt lat="38.169415" lon="15.6508783"><ele>20.400000000000002</ele><time>2026-04-09T15:06:15.231Z</time></trkpt><trkpt lat="38.169425" lon="15.6509867"><ele>21.0</ele><time>2026-04-09T15:06:17.231Z</time></trkpt><trkpt lat="38.169465" lon="15.6511467"><ele>21.6</ele><time>2026-04-09T15:06:19.231Z</time></trkpt><trkpt lat="38.1694867" lon="15.6512267"><ele>22.200000000000003</ele><time>2026-04-09T15:06:20.231Z</time></trkpt><trkpt lat="38.169535" lon="15.65137"><ele>22.799999999999997</ele><time>2026-04-09T15:06:22.231Z</time></trkpt><trkpt lat="38.1695717" lon="15.6514417"><ele>23.4</ele><time>2026-04-09T15:06:23.231Z</time></trkpt><trkpt lat="38.1696283" lon="15.6515733"><ele>24.0</ele><time>2026-04-09T15:06:25.231Z</time></trkpt><trkpt lat="38.1696567" lon="15.6516833"><ele>24.0</ele><time>2026-04-09T15:06:27.231Z</time></trkpt><trkpt lat="38.16966" lon="15.6517633"><ele>24.0</ele><time>2026-04-09T15:06:30.231Z</time></trkpt><trkpt lat="38.169605" lon="15.6518133"><ele>24.0</ele><time>2026-04-09T15:06:32.231Z</time></trkpt><trkpt lat="38.16952" lon="15.6518533"><ele>24.0</ele><time>2026-04-09T15:06:34.231Z</time></trkpt><trkpt lat="38.1694017" lon="15.6519117"><ele>24.0</ele><time>2026-04-09T15:06:36.231Z</time></trkpt><trkpt lat="38.1693367" lon="15.6519417"><ele>24.0</ele><time>2026-04-09T15:06:37.231Z</time></trkpt><trkpt lat="38.1692783" lon="15.6519717"><ele>24.0</ele><time>2026-04-09T15:06:38.231Z</time></trkpt><trkpt lat="38.1691767" lon="15.6520317"><ele>24.0</ele><time>2026-04-09T15:06:40.231Z</time></trkpt><trkpt lat="38.1691033" lon="15.6521033"><ele>24.0</ele><time>2026-04-09T15:06:42.231Z</time></trkpt><trkpt lat="38.169" lon="15.6521767"><ele>24.0</ele><time>2026-04-09T15:06:44.231Z</time></trkpt><trkpt lat="38.1689367" lon="15.6522167"><ele>24.0</ele><time>2026-04-09T15:06:45.23Z</time></trkpt><trkpt lat="38.1688767" lon="15.65226"><ele>24.0</ele><time>2026-04-09T15:06:46.231Z</time></trkpt><trkpt lat="38.1688183" lon="15.6523033"><ele>24.0</ele><time>2026-04-09T15:06:47.231Z</time></trkpt><trkpt lat="38.16876" lon="15.6523483"><ele>24.0</ele><time>2026-04-09T15:06:48.231Z</time></trkpt><trkpt lat="38.1687033" lon="15.652395"><ele>24.0</ele><time>2026-04-09T15:06:49.231Z</time></trkpt><trkpt lat="38.16865" lon="15.6524467"><ele>24.0</ele><time>2026-04-09T15:06:50.23Z</time></trkpt><trkpt lat="38.1686" lon="15.65251"><ele>24.0</ele><time>2026-04-09T15:06:51.231Z</time></trkpt><trkpt lat="38.1685183" lon="15.6526033"><ele>24.0</ele><time>2026-04-09T15:06:53.231Z</time></trkpt><trkpt lat="38.168465" lon="15.652685"><ele>24.0</ele><time>2026-04-09T15:06:56.231Z</time></trkpt><trkpt lat="38.1684417" lon="15.6527667"><ele>24.0</ele><time>2026-04-09T15:06:58.231Z</time></trkpt><trkpt lat="38.1684667" lon="15.652895"><ele>24.0</ele><time>2026-04-09T15:07:00.231Z</time></trkpt><trkpt lat="38.1685067" lon="15.65299"><ele>24.0</ele><time>2026-04-09T15:07:01.231Z</time></trkpt><trkpt lat="38.16856" lon="15.6531067"><ele>24.0</ele><time>2026-04-09T15:07:02.231Z</time></trkpt><trkpt lat="38.1686133" lon="15.65324"><ele>24.5</ele><time>2026-04-09T15:07:03.231Z</time></trkpt><trkpt lat="38.168665" lon="15.6533983"><ele>25.0</ele><time>2026-04-09T15:07:04.231Z</time></trkpt><trkpt lat="38.16874" lon="15.6535567"><ele>25.5</ele><time>2026-04-09T15:07:05.231Z</time></trkpt><trkpt lat="38.1688" lon="15.6537133"><ele>26.0</ele><time>2026-04-09T15:07:06.231Z</time></trkpt><trkpt lat="38.1688567" lon="15.653885"><ele>26.0</ele><time>2026-04-09T15:07:07.231Z</time></trkpt><trkpt lat="38.1689217" lon="15.6540383"><ele>26.0</ele><time>2026-04-09T15:07:08.231Z</time></trkpt><trkpt lat="38.16899" lon="15.6542067"><ele>26.0</ele><time>2026-04-09T15:07:09.231Z</time></trkpt><trkpt lat="38.1690617" lon="15.65437"><ele>26.0</ele><time>2026-04-09T15:07:10.231Z</time></trkpt><trkpt lat="38.16914" lon="15.65455"><ele>27.333333333333332</ele><time>2026-04-09T15:07:11.231Z</time></trkpt><trkpt lat="38.16922" lon="15.6547433"><ele>28.666666666666664</ele><time>2026-04-09T15:07:12.231Z</time></trkpt><trkpt lat="38.1693183" lon="15.6549317"><ele>30.0</ele><time>2026-04-09T15:07:13.231Z</time></trkpt><trkpt lat="38.1693883" lon="15.6551167"><ele>30.333333333333336</ele><time>2026-04-09T15:07:14.23Z</time></trkpt><trkpt lat="38.1694667" lon="15.655295"><ele>30.666666666666668</ele><time>2026-04-09T15:07:15.231Z</time></trkpt><trkpt lat="38.1695283" lon="15.6554917"><ele>31.0</ele><time>2026-04-09T15:07:16.231Z</time></trkpt><trkpt lat="38.1695833" lon="15.65567"><ele>31.0</ele><time>2026-04-09T15:07:17.231Z</time></trkpt><trkpt lat="38.1696333" lon="15.6558367"><ele>31.0</ele><time>2026-04-09T15:07:18.231Z</time></trkpt><trkpt lat="38.1696867" lon="15.6559933"><ele>31.0</ele><time>2026-04-09T15:07:19.231Z</time></trkpt><trkpt lat="38.16974" lon="15.656155"><ele>31.0</ele><time>2026-04-09T15:07:20.231Z</time></trkpt><trkpt lat="38.16981" lon="15.65633"><ele>33.0</ele><time>2026-04-09T15:07:21.231Z</time></trkpt><trkpt lat="38.1698983" lon="15.6565317"><ele>35.0</ele><time>2026-04-09T15:07:22.231Z</time></trkpt><trkpt lat="38.1699867" lon="15.6567317"><ele>37.0</ele><time>2026-04-09T15:07:23.231Z</time></trkpt><trkpt lat="38.1700583" lon="15.656915"><ele>37.5</ele><time>2026-04-09T15:07:24.231Z</time></trkpt><trkpt lat="38.1701083" lon="15.6570667"><ele>38.0</ele><time>2026-04-09T15:07:25.23Z</time></trkpt><trkpt lat="38.170135" lon="15.6572033"><ele>38.5</ele><time>2026-04-09T15:07:26.231Z</time></trkpt><trkpt lat="38.1701583" lon="15.6573483"><ele>39.0</ele><time>2026-04-09T15:07:27.231Z</time></trkpt><trkpt lat="38.1701483" lon="15.6575233"><ele>39.0</ele><time>2026-04-09T15:07:28.231Z</time></trkpt><trkpt lat="38.170125" lon="15.657725"><ele>39.0</ele><time>2026-04-09T15:07:29.231Z</time></trkpt><trkpt lat="38.170095" lon="15.6579317"><ele>39.0</ele><time>2026-04-09T15:07:30.231Z</time></trkpt><trkpt lat="38.1700983" lon="15.6581217"><ele>39.25</ele><time>2026-04-09T15:07:31.231Z</time></trkpt><trkpt lat="38.17014" lon="15.658295"><ele>39.5</ele><time>2026-04-09T15:07:32.231Z</time></trkpt><trkpt lat="38.170205" lon="15.6584617"><ele>39.75</ele><time>2026-04-09T15:07:33.231Z</time></trkpt><trkpt lat="38.170295" lon="15.6586167"><ele>40.0</ele><time>2026-04-09T15:07:34.231Z</time></trkpt><trkpt lat="38.1703883" lon="15.6587767"><ele>41.333333333333336</ele><time>2026-04-09T15:07:35.231Z</time></trkpt><trkpt lat="38.1704783" lon="15.6589317"><ele>42.666666666666664</ele><time>2026-04-09T15:07:36.231Z</time></trkpt><trkpt lat="38.1705633" lon="15.6591083"><ele>44.0</ele><time>2026-04-09T15:07:37.231Z</time></trkpt><trkpt lat="38.1706483" lon="15.6592817"><ele>46.0</ele><time>2026-04-09T15:07:38.231Z</time></trkpt><trkpt lat="38.1707133" lon="15.6594517"><ele>48.0</ele><time>2026-04-09T15:07:39.231Z</time></trkpt><trkpt lat="38.17077" lon="15.65961"><ele>50.0</ele><time>2026-04-09T15:07:40.231Z</time></trkpt><trkpt lat="38.17082" lon="15.6597417"><ele>52.0</ele><time>2026-04-09T15:07:41.231Z</time></trkpt><trkpt lat="38.1708667" lon="15.65986"><ele>51.99999999999999</ele><time>2026-04-09T15:07:42.231Z</time></trkpt><trkpt lat="38.170915" lon="15.659965"><ele>52.0</ele><time>2026-04-09T15:07:43.231Z</time></trkpt><trkpt lat="38.1709417" lon="15.6600617"><ele>52.0</ele><time>2026-04-09T15:07:44.231Z</time></trkpt><trkpt lat="38.170965" lon="15.6601367"><ele>52.0</ele><time>2026-04-09T15:07:45.231Z</time></trkpt><trkpt lat="38.1710117" lon="15.6602667"><ele>51.99999999999999</ele><time>2026-04-09T15:07:47.231Z</time></trkpt><trkpt lat="38.17103" lon="15.6603467"><ele>52.0</ele><time>2026-04-09T15:07:48.231Z</time></trkpt><trkpt lat="38.1710483" lon="15.6604333"><ele>53.0</ele><time>2026-04-09T15:07:49.231Z</time></trkpt><trkpt lat="38.1710783" lon="15.6605283"><ele>54.0</ele><time>2026-04-09T15:07:50.231Z</time></trkpt><trkpt lat="38.1711217" lon="15.6606367"><ele>55.0</ele><time>2026-04-09T15:07:51.231Z</time></trkpt><trkpt lat="38.1711617" lon="15.660765"><ele>56.0</ele><time>2026-04-09T15:07:52.23Z</time></trkpt><trkpt lat="38.1712" lon="15.6609033"><ele>57.0</ele><time>2026-04-09T15:07:53.231Z</time></trkpt><trkpt lat="38.17123" lon="15.6610517"><ele>56.75</ele><time>2026-04-09T15:07:54.231Z</time></trkpt><trkpt lat="38.171275" lon="15.6611983"><ele>56.5</ele><time>2026-04-09T15:07:55.231Z</time></trkpt><trkpt lat="38.1713083" lon="15.6613417"><ele>56.25</ele><time>2026-04-09T15:07:56.231Z</time></trkpt><trkpt lat="38.1713317" lon="15.6614917"><ele>56.0</ele><time>2026-04-09T15:07:57.231Z</time></trkpt><trkpt lat="38.1713467" lon="15.661655"><ele>56.0</ele><time>2026-04-09T15:07:58.23Z</time></trkpt><trkpt lat="38.1713567" lon="15.6618067"><ele>56.0</ele><time>2026-04-09T15:07:59.231Z</time></trkpt><trkpt lat="38.1713533" lon="15.6619533"><ele>56.0</ele><time>2026-04-09T15:08:00.23Z</time></trkpt><trkpt lat="38.1713417" lon="15.662105"><ele>56.0</ele><time>2026-04-09T15:08:01.231Z</time></trkpt><trkpt lat="38.1713433" lon="15.6622483"><ele>56.599999999999994</ele><time>2026-04-09T15:08:02.231Z</time></trkpt><trkpt lat="38.17135" lon="15.6623783"><ele>57.199999999999996</ele><time>2026-04-09T15:08:03.231Z</time></trkpt><trkpt lat="38.17137" lon="15.66251"><ele>57.800000000000004</ele><time>2026-04-09T15:08:04.231Z</time></trkpt><trkpt lat="38.1713783" lon="15.6626317"><ele>58.400000000000006</ele><time>2026-04-09T15:08:05.231Z</time></trkpt><trkpt lat="38.1714017" lon="15.6627367"><ele>59.0</ele><time>2026-04-09T15:08:06.231Z</time></trkpt><trkpt lat="38.171415" lon="15.6628417"><ele>59.50000000000001</ele><time>2026-04-09T15:08:07.231Z</time></trkpt><trkpt lat="38.1714267" lon="15.66294"><ele>60.0</ele><time>2026-04-09T15:08:08.231Z</time></trkpt><trkpt lat="38.171435" lon="15.6630283"><ele>60.5</ele><time>2026-04-09T15:08:09.231Z</time></trkpt><trkpt lat="38.171455" lon="15.663115"><ele>61.0</ele><time>2026-04-09T15:08:10.231Z</time></trkpt><trkpt lat="38.1715083" lon="15.6632467"><ele>61.50000000000001</ele><time>2026-04-09T15:08:12.231Z</time></trkpt><trkpt lat="38.17155" lon="15.663325"><ele>62.0</ele><time>2026-04-09T15:08:13.23Z</time></trkpt><trkpt lat="38.171595" lon="15.6634033"><ele>62.6</ele><time>2026-04-09T15:08:14.231Z</time></trkpt><trkpt lat="38.17165" lon="15.663495"><ele>63.2</ele><time>2026-04-09T15:08:15.231Z</time></trkpt><trkpt lat="38.1717083" lon="15.6635817"><ele>63.8</ele><time>2026-04-09T15:08:16.231Z</time></trkpt><trkpt lat="38.1717767" lon="15.6636817"><ele>64.4</ele><time>2026-04-09T15:08:17.231Z</time></trkpt><trkpt lat="38.1718517" lon="15.6637983"><ele>65.0</ele><time>2026-04-09T15:08:18.231Z</time></trkpt><trkpt lat="38.1719317" lon="15.663905"><ele>65.75</ele><time>2026-04-09T15:08:19.231Z</time></trkpt><trkpt lat="38.1720217" lon="15.6640067"><ele>66.5</ele><time>2026-04-09T15:08:20.231Z</time></trkpt><trkpt lat="38.172115" lon="15.66413"><ele>67.25</ele><time>2026-04-09T15:08:21.231Z</time></trkpt><trkpt lat="38.1722067" lon="15.66425"><ele>68.0</ele><time>2026-04-09T15:08:22.231Z</time></trkpt><trkpt lat="38.1723083" lon="15.66436"><ele>68.75</ele><time>2026-04-09T15:08:23.231Z</time></trkpt><trkpt lat="38.172415" lon="15.6644617"><ele>69.5</ele><time>2026-04-09T15:08:24.231Z</time></trkpt><trkpt lat="38.1725317" lon="15.66456"><ele>70.25</ele><time>2026-04-09T15:08:25.231Z</time></trkpt><trkpt lat="38.1726533" lon="15.6646583"><ele>71.0</ele><time>2026-04-09T15:08:26.231Z</time></trkpt><trkpt lat="38.1727717" lon="15.6647533"><ele>71.0</ele><time>2026-04-09T15:08:27.231Z</time></trkpt><trkpt lat="38.1728817" lon="15.6648433"><ele>71.0</ele><time>2026-04-09T15:08:28.231Z</time></trkpt><trkpt lat="38.1729817" lon="15.664945"><ele>71.0</ele><time>2026-04-09T15:08:29.231Z</time></trkpt><trkpt lat="38.1730933" lon="15.66503"><ele>71.0</ele><time>2026-04-09T15:08:30.231Z</time></trkpt><trkpt lat="38.1731833" lon="15.6651183"><ele>70.8</ele><time>2026-04-09T15:08:31.231Z</time></trkpt><trkpt lat="38.1732667" lon="15.6651983"><ele>70.6</ele><time>2026-04-09T15:08:32.231Z</time></trkpt><trkpt lat="38.1733517" lon="15.6652833"><ele>70.4</ele><time>2026-04-09T15:08:33.231Z</time></trkpt><trkpt lat="38.1734417" lon="15.66536"><ele>70.2</ele><time>2026-04-09T15:08:34.231Z</time></trkpt><trkpt lat="38.1735167" lon="15.665415"><ele>70.0</ele><time>2026-04-09T15:08:35.231Z</time></trkpt><trkpt lat="38.1735983" lon="15.6655117"><ele>70.66666666666666</ele><time>2026-04-09T15:08:37.231Z</time></trkpt><trkpt lat="38.17354" lon="15.6656167"><ele>71.33333333333333</ele><time>2026-04-09T15:08:39.231Z</time></trkpt><trkpt lat="38.1734583" lon="15.6656533"><ele>72.0</ele><time>2026-04-09T15:08:40.231Z</time></trkpt><trkpt lat="38.1733983" lon="15.6656833"><ele>72.66666666666667</ele><time>2026-04-09T15:08:41.231Z</time></trkpt><trkpt lat="38.1733183" lon="15.6656833"><ele>73.33333333333334</ele><time>2026-04-09T15:08:43.231Z</time></trkpt><trkpt lat="38.1732767" lon="15.6656167"><ele>74.0</ele><time>2026-04-09T15:08:45.23Z</time></trkpt><trkpt lat="38.1732033" lon="15.6655567"><ele>74.2</ele><time>2026-04-09T15:08:47.231Z</time></trkpt><trkpt lat="38.1731133" lon="15.6655667"><ele>74.4</ele><time>2026-04-09T15:08:49.231Z</time></trkpt><trkpt lat="38.173015" lon="15.6656967"><ele>74.6</ele><time>2026-04-09T15:08:51.231Z</time></trkpt><trkpt lat="38.1729617" lon="15.6657883"><ele>74.8</ele><time>2026-04-09T15:08:52.231Z</time></trkpt><trkpt lat="38.1729083" lon="15.6658867"><ele>75.0</ele><time>2026-04-09T15:08:53.231Z</time></trkpt><trkpt lat="38.1728617" lon="15.6659883"><ele>75.0</ele><time>2026-04-09T15:08:54.231Z</time></trkpt><trkpt lat="38.17282" lon="15.6660917"><ele>75.0</ele><time>2026-04-09T15:08:55.231Z</time></trkpt><trkpt lat="38.172795" lon="15.6662"><ele>75.0</ele><time>2026-04-09T15:08:56.231Z</time></trkpt><trkpt lat="38.1727817" lon="15.66632"><ele>75.0</ele><time>2026-04-09T15:08:57.231Z</time></trkpt><trkpt lat="38.17277" lon="15.6664483"><ele>75.0</ele><time>2026-04-09T15:08:58.231Z</time></trkpt><trkpt lat="38.1727667" lon="15.6665833"><ele>75.6</ele><time>2026-04-09T15:08:59.231Z</time></trkpt><trkpt lat="38.1727717" lon="15.6667183"><ele>76.2</ele><time>2026-04-09T15:09:00.231Z</time></trkpt><trkpt lat="38.1727733" lon="15.6668517"><ele>76.8</ele><time>2026-04-09T15:09:01.231Z</time></trkpt><trkpt lat="38.1727733" lon="15.6669783"><ele>77.4</ele><time>2026-04-09T15:09:02.231Z</time></trkpt><trkpt lat="38.1727683" lon="15.66711"><ele>78.0</ele><time>2026-04-09T15:09:03.231Z</time></trkpt><trkpt lat="38.17276" lon="15.6672417"><ele>78.33333333333333</ele><time>2026-04-09T15:09:04.231Z</time></trkpt><trkpt lat="38.17275" lon="15.6673633"><ele>78.66666666666667</ele><time>2026-04-09T15:09:05.23Z</time></trkpt><trkpt lat="38.1727483" lon="15.66748"><ele>79.0</ele><time>2026-04-09T15:09:06.231Z</time></trkpt><trkpt lat="38.1727533" lon="15.6675783"><ele>79.33333333333334</ele><time>2026-04-09T15:09:07.231Z</time></trkpt><trkpt lat="38.1727767" lon="15.6676667"><ele>79.66666666666667</ele><time>2026-04-09T15:09:08.231Z</time></trkpt><trkpt lat="38.1728267" lon="15.66773"><ele>80.0</ele><time>2026-04-09T15:09:09.231Z</time></trkpt><trkpt lat="38.1728867" lon="15.66776"><ele>80.0</ele><time>2026-04-09T15:09:10.231Z</time></trkpt><trkpt lat="38.1729667" lon="15.6677583"><ele>80.0</ele><time>2026-04-09T15:09:11.231Z</time></trkpt><trkpt lat="38.173065" lon="15.6677617"><ele>80.0</ele><time>2026-04-09T15:09:12.231Z</time></trkpt><trkpt lat="38.1731783" lon="15.6677717"><ele>80.0</ele><time>2026-04-09T15:09:13.23Z</time></trkpt><trkpt lat="38.17329" lon="15.6677983"><ele>80.0</ele><time>2026-04-09T15:09:14.231Z</time></trkpt><trkpt lat="38.1733967" lon="15.667825"><ele>81.2</ele><time>2026-04-09T15:09:15.231Z</time></trkpt><trkpt lat="38.1734967" lon="15.6678417"><ele>82.4</ele><time>2026-04-09T15:09:16.231Z</time></trkpt><trkpt lat="38.1735983" lon="15.6678717"><ele>83.6</ele><time>2026-04-09T15:09:17.231Z</time></trkpt><trkpt lat="38.1736967" lon="15.6679067"><ele>84.8</ele><time>2026-04-09T15:09:18.231Z</time></trkpt><trkpt lat="38.1737817" lon="15.6679517"><ele>86.0</ele><time>2026-04-09T15:09:19.23Z</time></trkpt><trkpt lat="38.17384" lon="15.667995"><ele>86.0</ele><time>2026-04-09T15:09:20.231Z</time></trkpt><trkpt lat="38.173865" lon="15.66807"><ele>86.0</ele><time>2026-04-09T15:09:21.23Z</time></trkpt><trkpt lat="38.17386" lon="15.66816"><ele>86.0</ele><time>2026-04-09T15:09:22.231Z</time></trkpt><trkpt lat="38.17384" lon="15.668265"><ele>86.0</ele><time>2026-04-09T15:09:23.231Z</time></trkpt><trkpt lat="38.1738167" lon="15.6683733"><ele>86.0</ele><time>2026-04-09T15:09:24.23Z</time></trkpt><trkpt lat="38.173805" lon="15.66848"><ele>86.0</ele><time>2026-04-09T15:09:25.231Z</time></trkpt><trkpt lat="38.1737833" lon="15.668595"><ele>86.83333333333334</ele><time>2026-04-09T15:09:26.231Z</time></trkpt><trkpt lat="38.17376" lon="15.6687117"><ele>87.66666666666667</ele><time>2026-04-09T15:09:27.231Z</time></trkpt><trkpt lat="38.173745" lon="15.668835"><ele>88.5</ele><time>2026-04-09T15:09:28.231Z</time></trkpt><trkpt lat="38.1737233" lon="15.6689383"><ele>89.33333333333333</ele><time>2026-04-09T15:09:29.231Z</time></trkpt><trkpt lat="38.1737167" lon="15.6690483"><ele>90.16666666666666</ele><time>2026-04-09T15:09:30.231Z</time></trkpt><trkpt lat="38.1737167" lon="15.6691467"><ele>91.0</ele><time>2026-04-09T15:09:31.231Z</time></trkpt><trkpt lat="38.1737383" lon="15.669235"><ele>91.0</ele><time>2026-04-09T15:09:32.231Z</time></trkpt><trkpt lat="38.1737817" lon="15.6693117"><ele>91.0</ele><time>2026-04-09T15:09:33.231Z</time></trkpt><trkpt lat="38.1738383" lon="15.66939"><ele>91.0</ele><time>2026-04-09T15:09:34.231Z</time></trkpt><trkpt lat="38.1739117" lon="15.6694383"><ele>91.0</ele><time>2026-04-09T15:09:35.231Z</time></trkpt><trkpt lat="38.1739733" lon="15.6694817"><ele>91.0</ele><time>2026-04-09T15:09:36.231Z</time></trkpt><trkpt lat="38.1740233" lon="15.6695767"><ele>91.0</ele><time>2026-04-09T15:09:38.231Z</time></trkpt><trkpt lat="38.1740217" lon="15.6697317"><ele>91.57142857142857</ele><time>2026-04-09T15:09:40.23Z</time></trkpt><trkpt lat="38.1740033" lon="15.6698133"><ele>92.14285714285714</ele><time>2026-04-09T15:09:41.231Z</time></trkpt><trkpt lat="38.1739917" lon="15.6699033"><ele>92.71428571428572</ele><time>2026-04-09T15:09:42.231Z</time></trkpt><trkpt lat="38.1739833" lon="15.6699967"><ele>93.28571428571428</ele><time>2026-04-09T15:09:43.231Z</time></trkpt><trkpt lat="38.1739733" lon="15.6700783"><ele>93.85714285714286</ele><time>2026-04-09T15:09:44.231Z</time></trkpt><trkpt lat="38.1739483" lon="15.6702117"><ele>94.42857142857143</ele><time>2026-04-09T15:09:46.231Z</time></trkpt><trkpt lat="38.1739067" lon="15.6702733"><ele>95.0</ele><time>2026-04-09T15:09:48.231Z</time></trkpt><trkpt lat="38.17387" lon="15.6703733"><ele>96.5</ele><time>2026-04-09T15:09:50.231Z</time></trkpt><trkpt lat="38.17384" lon="15.670525"><ele>98.0</ele><time>2026-04-09T15:09:52.231Z</time></trkpt><trkpt lat="38.1738233" lon="15.6706733"><ele>99.5</ele><time>2026-04-09T15:09:54.231Z</time></trkpt><trkpt lat="38.1738017" lon="15.67082"><ele>101.0</ele><time>2026-04-09T15:09:56.231Z</time></trkpt><trkpt lat="38.1737917" lon="15.6709467"><ele>101.0</ele><time>2026-04-09T15:09:58.23Z</time></trkpt><trkpt lat="38.1737633" lon="15.6710617"><ele>101.0</ele><time>2026-04-09T15:10:00.231Z</time></trkpt><trkpt lat="38.1737117" lon="15.6711433"><ele>107.0</ele><time>2026-04-09T15:10:02.231Z</time></trkpt><trkpt lat="38.1736333" lon="15.6711583"><ele>107.0</ele><time>2026-04-09T15:10:05.231Z</time></trkpt></trkseg></trk></gpx>